<?xml version="1.0" encoding="UTF-8" standalone="no" ?>
<gpx xmlns="http://www.topografix.com/GPX/1/1" xmlns:xsi="http://www.w3.org/2001/XMLSchema-instance" xsi:schemaLocation="http://www.topografix.com/GPX/1/1 http://www.topografix.com/GPX/1/1/gpx.xsd" version="1.1" creator="VisuGPX - https://www.visugpx.com">
  <metadata>
    <name>Randonnée à Mauroux (46) de 01 avril 2012</name>
    <desc><![CDATA[Un bon circuit assez dur et plutôt exigeant.]]></desc>
  </metadata>
  <trk>
    <name><![CDATA[Randonnée à Mauroux (46) de 01 avril 2012_1]]></name>
    <trkseg>
      <trkpt lat="44.45369" lon="1.04804">
        <ele>199</ele>
        <time>2012-04-01T05:43:54Z</time>
      </trkpt>
      <trkpt lat="44.45343" lon="1.04789">
        <ele>202</ele>
        <time>2012-04-01T05:44:48Z</time>
      </trkpt>
      <trkpt lat="44.45341" lon="1.04791">
        <ele>202</ele>
        <time>2012-04-01T05:44:49Z</time>
      </trkpt>
      <trkpt lat="44.4534" lon="1.04793">
        <ele>202</ele>
        <time>2012-04-01T05:44:50Z</time>
      </trkpt>
      <trkpt lat="44.45338" lon="1.04795">
        <ele>202</ele>
        <time>2012-04-01T05:44:51Z</time>
      </trkpt>
      <trkpt lat="44.45337" lon="1.04797">
        <ele>202</ele>
        <time>2012-04-01T05:44:52Z</time>
      </trkpt>
      <trkpt lat="44.45335" lon="1.048">
        <ele>202</ele>
        <time>2012-04-01T05:44:53Z</time>
      </trkpt>
      <trkpt lat="44.45333" lon="1.04803">
        <ele>202</ele>
        <time>2012-04-01T05:44:54Z</time>
      </trkpt>
      <trkpt lat="44.45331" lon="1.04805">
        <ele>202</ele>
        <time>2012-04-01T05:44:55Z</time>
      </trkpt>
      <trkpt lat="44.45329" lon="1.04808">
        <ele>202</ele>
        <time>2012-04-01T05:44:56Z</time>
      </trkpt>
      <trkpt lat="44.45328" lon="1.04811">
        <ele>202</ele>
        <time>2012-04-01T05:44:57Z</time>
      </trkpt>
      <trkpt lat="44.45326" lon="1.04813">
        <ele>202</ele>
        <time>2012-04-01T05:44:58Z</time>
      </trkpt>
      <trkpt lat="44.45325" lon="1.04816">
        <ele>202</ele>
        <time>2012-04-01T05:44:59Z</time>
      </trkpt>
      <trkpt lat="44.45322" lon="1.04818">
        <ele>202</ele>
        <time>2012-04-01T05:45:00Z</time>
      </trkpt>
      <trkpt lat="44.4532" lon="1.04818">
        <ele>202</ele>
        <time>2012-04-01T05:45:01Z</time>
      </trkpt>
      <trkpt lat="44.45319" lon="1.04817">
        <ele>202</ele>
        <time>2012-04-01T05:45:02Z</time>
      </trkpt>
      <trkpt lat="44.45318" lon="1.04814">
        <ele>202</ele>
        <time>2012-04-01T05:45:03Z</time>
      </trkpt>
      <trkpt lat="44.45319" lon="1.04811">
        <ele>202</ele>
        <time>2012-04-01T05:45:04Z</time>
      </trkpt>
      <trkpt lat="44.45319" lon="1.04808">
        <ele>202</ele>
        <time>2012-04-01T05:45:05Z</time>
      </trkpt>
      <trkpt lat="44.45319" lon="1.04805">
        <ele>202</ele>
        <time>2012-04-01T05:45:06Z</time>
      </trkpt>
      <trkpt lat="44.45319" lon="1.04801">
        <ele>202</ele>
        <time>2012-04-01T05:45:07Z</time>
      </trkpt>
      <trkpt lat="44.4532" lon="1.04798">
        <ele>202</ele>
        <time>2012-04-01T05:45:08Z</time>
      </trkpt>
      <trkpt lat="44.4532" lon="1.04794">
        <ele>202</ele>
        <time>2012-04-01T05:45:09Z</time>
      </trkpt>
      <trkpt lat="44.45318" lon="1.0479">
        <ele>202</ele>
        <time>2012-04-01T05:45:10Z</time>
      </trkpt>
      <trkpt lat="44.45316" lon="1.04788">
        <ele>202</ele>
        <time>2012-04-01T05:45:11Z</time>
      </trkpt>
      <trkpt lat="44.45313" lon="1.04786">
        <ele>202</ele>
        <time>2012-04-01T05:45:12Z</time>
      </trkpt>
      <trkpt lat="44.4531" lon="1.04786">
        <ele>202</ele>
        <time>2012-04-01T05:45:13Z</time>
      </trkpt>
      <trkpt lat="44.45307" lon="1.04786">
        <ele>202</ele>
        <time>2012-04-01T05:45:14Z</time>
      </trkpt>
      <trkpt lat="44.45303" lon="1.04785">
        <ele>202</ele>
        <time>2012-04-01T05:45:15Z</time>
      </trkpt>
      <trkpt lat="44.453" lon="1.04785">
        <ele>202</ele>
        <time>2012-04-01T05:45:16Z</time>
      </trkpt>
      <trkpt lat="44.45296" lon="1.04786">
        <ele>202</ele>
        <time>2012-04-01T05:45:17Z</time>
      </trkpt>
      <trkpt lat="44.45292" lon="1.04786">
        <ele>202</ele>
        <time>2012-04-01T05:45:18Z</time>
      </trkpt>
      <trkpt lat="44.45288" lon="1.04787">
        <ele>202</ele>
        <time>2012-04-01T05:45:19Z</time>
      </trkpt>
      <trkpt lat="44.45284" lon="1.04788">
        <ele>202</ele>
        <time>2012-04-01T05:45:20Z</time>
      </trkpt>
      <trkpt lat="44.4528" lon="1.04789">
        <ele>202</ele>
        <time>2012-04-01T05:45:21Z</time>
      </trkpt>
      <trkpt lat="44.45276" lon="1.0479">
        <ele>202</ele>
        <time>2012-04-01T05:45:22Z</time>
      </trkpt>
      <trkpt lat="44.45272" lon="1.04791">
        <ele>202</ele>
        <time>2012-04-01T05:45:23Z</time>
      </trkpt>
      <trkpt lat="44.45269" lon="1.04792">
        <ele>202</ele>
        <time>2012-04-01T05:45:24Z</time>
      </trkpt>
      <trkpt lat="44.45266" lon="1.0479">
        <ele>202</ele>
        <time>2012-04-01T05:45:25Z</time>
      </trkpt>
      <trkpt lat="44.45264" lon="1.04788">
        <ele>202</ele>
        <time>2012-04-01T05:45:26Z</time>
      </trkpt>
      <trkpt lat="44.45264" lon="1.04785">
        <ele>202</ele>
        <time>2012-04-01T05:45:27Z</time>
      </trkpt>
      <trkpt lat="44.45265" lon="1.04781">
        <ele>202</ele>
        <time>2012-04-01T05:45:28Z</time>
      </trkpt>
      <trkpt lat="44.45265" lon="1.04778">
        <ele>202</ele>
        <time>2012-04-01T05:45:29Z</time>
      </trkpt>
      <trkpt lat="44.45266" lon="1.04775">
        <ele>202</ele>
        <time>2012-04-01T05:45:30Z</time>
      </trkpt>
      <trkpt lat="44.45267" lon="1.04773">
        <ele>202</ele>
        <time>2012-04-01T05:45:31Z</time>
      </trkpt>
      <trkpt lat="44.45268" lon="1.04771">
        <ele>202</ele>
        <time>2012-04-01T05:45:32Z</time>
      </trkpt>
      <trkpt lat="44.4527" lon="1.04771">
        <ele>202</ele>
        <time>2012-04-01T05:45:33Z</time>
      </trkpt>
      <trkpt lat="44.45272" lon="1.04768">
        <ele>202</ele>
        <time>2012-04-01T05:45:34Z</time>
      </trkpt>
      <trkpt lat="44.45274" lon="1.04767">
        <ele>202</ele>
        <time>2012-04-01T05:45:35Z</time>
      </trkpt>
      <trkpt lat="44.45277" lon="1.04765">
        <ele>202</ele>
        <time>2012-04-01T05:45:36Z</time>
      </trkpt>
      <trkpt lat="44.4528" lon="1.04763">
        <ele>202</ele>
        <time>2012-04-01T05:45:37Z</time>
      </trkpt>
      <trkpt lat="44.45283" lon="1.04761">
        <ele>202</ele>
        <time>2012-04-01T05:45:38Z</time>
      </trkpt>
      <trkpt lat="44.45285" lon="1.0476">
        <ele>202</ele>
        <time>2012-04-01T05:45:39Z</time>
      </trkpt>
      <trkpt lat="44.45287" lon="1.04759">
        <ele>201</ele>
        <time>2012-04-01T05:45:40Z</time>
      </trkpt>
      <trkpt lat="44.4529" lon="1.04758">
        <ele>201</ele>
        <time>2012-04-01T05:45:41Z</time>
      </trkpt>
      <trkpt lat="44.45292" lon="1.04757">
        <ele>201</ele>
        <time>2012-04-01T05:45:42Z</time>
      </trkpt>
      <trkpt lat="44.45294" lon="1.04755">
        <ele>200</ele>
        <time>2012-04-01T05:45:43Z</time>
      </trkpt>
      <trkpt lat="44.45296" lon="1.04755">
        <ele>200</ele>
        <time>2012-04-01T05:45:44Z</time>
      </trkpt>
      <trkpt lat="44.45299" lon="1.04754">
        <ele>199</ele>
        <time>2012-04-01T05:45:45Z</time>
      </trkpt>
      <trkpt lat="44.45301" lon="1.04753">
        <ele>199</ele>
        <time>2012-04-01T05:45:46Z</time>
      </trkpt>
      <trkpt lat="44.45304" lon="1.04752">
        <ele>199</ele>
        <time>2012-04-01T05:45:47Z</time>
      </trkpt>
      <trkpt lat="44.45306" lon="1.04751">
        <ele>199</ele>
        <time>2012-04-01T05:45:48Z</time>
      </trkpt>
      <trkpt lat="44.45309" lon="1.0475">
        <ele>199</ele>
        <time>2012-04-01T05:45:49Z</time>
      </trkpt>
      <trkpt lat="44.45311" lon="1.04748">
        <ele>199</ele>
        <time>2012-04-01T05:45:50Z</time>
      </trkpt>
      <trkpt lat="44.45313" lon="1.04746">
        <ele>198</ele>
        <time>2012-04-01T05:45:51Z</time>
      </trkpt>
      <trkpt lat="44.45316" lon="1.04744">
        <ele>198</ele>
        <time>2012-04-01T05:45:52Z</time>
      </trkpt>
      <trkpt lat="44.45318" lon="1.04742">
        <ele>198</ele>
        <time>2012-04-01T05:45:53Z</time>
      </trkpt>
      <trkpt lat="44.4532" lon="1.0474">
        <ele>198</ele>
        <time>2012-04-01T05:45:54Z</time>
      </trkpt>
      <trkpt lat="44.45322" lon="1.04739">
        <ele>198</ele>
        <time>2012-04-01T05:45:55Z</time>
      </trkpt>
      <trkpt lat="44.45324" lon="1.04737">
        <ele>198</ele>
        <time>2012-04-01T05:45:56Z</time>
      </trkpt>
      <trkpt lat="44.45326" lon="1.04734">
        <ele>198</ele>
        <time>2012-04-01T05:45:57Z</time>
      </trkpt>
      <trkpt lat="44.45328" lon="1.04732">
        <ele>198</ele>
        <time>2012-04-01T05:45:58Z</time>
      </trkpt>
      <trkpt lat="44.4533" lon="1.04728">
        <ele>198</ele>
        <time>2012-04-01T05:45:59Z</time>
      </trkpt>
      <trkpt lat="44.45332" lon="1.04725">
        <ele>198</ele>
        <time>2012-04-01T05:46:00Z</time>
      </trkpt>
      <trkpt lat="44.45335" lon="1.04722">
        <ele>197</ele>
        <time>2012-04-01T05:46:01Z</time>
      </trkpt>
      <trkpt lat="44.45337" lon="1.04718">
        <ele>197</ele>
        <time>2012-04-01T05:46:02Z</time>
      </trkpt>
      <trkpt lat="44.4534" lon="1.04715">
        <ele>197</ele>
        <time>2012-04-01T05:46:03Z</time>
      </trkpt>
      <trkpt lat="44.45342" lon="1.04711">
        <ele>196</ele>
        <time>2012-04-01T05:46:04Z</time>
      </trkpt>
      <trkpt lat="44.45344" lon="1.04707">
        <ele>196</ele>
        <time>2012-04-01T05:46:05Z</time>
      </trkpt>
      <trkpt lat="44.45346" lon="1.04702">
        <ele>196</ele>
        <time>2012-04-01T05:46:06Z</time>
      </trkpt>
      <trkpt lat="44.45348" lon="1.04698">
        <ele>196</ele>
        <time>2012-04-01T05:46:07Z</time>
      </trkpt>
      <trkpt lat="44.4535" lon="1.04694">
        <ele>196</ele>
        <time>2012-04-01T05:46:08Z</time>
      </trkpt>
      <trkpt lat="44.45352" lon="1.0469">
        <ele>196</ele>
        <time>2012-04-01T05:46:09Z</time>
      </trkpt>
      <trkpt lat="44.45355" lon="1.04685">
        <ele>196</ele>
        <time>2012-04-01T05:46:10Z</time>
      </trkpt>
      <trkpt lat="44.45357" lon="1.04681">
        <ele>196</ele>
        <time>2012-04-01T05:46:11Z</time>
      </trkpt>
      <trkpt lat="44.4536" lon="1.04676">
        <ele>196</ele>
        <time>2012-04-01T05:46:12Z</time>
      </trkpt>
      <trkpt lat="44.45363" lon="1.04671">
        <ele>196</ele>
        <time>2012-04-01T05:46:13Z</time>
      </trkpt>
      <trkpt lat="44.45366" lon="1.04666">
        <ele>196</ele>
        <time>2012-04-01T05:46:14Z</time>
      </trkpt>
      <trkpt lat="44.45369" lon="1.04662">
        <ele>196</ele>
        <time>2012-04-01T05:46:15Z</time>
      </trkpt>
      <trkpt lat="44.45372" lon="1.04657">
        <ele>196</ele>
        <time>2012-04-01T05:46:16Z</time>
      </trkpt>
      <trkpt lat="44.45374" lon="1.04653">
        <ele>196</ele>
        <time>2012-04-01T05:46:17Z</time>
      </trkpt>
      <trkpt lat="44.45377" lon="1.04648">
        <ele>196</ele>
        <time>2012-04-01T05:46:18Z</time>
      </trkpt>
      <trkpt lat="44.45379" lon="1.04643">
        <ele>196</ele>
        <time>2012-04-01T05:46:19Z</time>
      </trkpt>
      <trkpt lat="44.45382" lon="1.04639">
        <ele>196</ele>
        <time>2012-04-01T05:46:20Z</time>
      </trkpt>
      <trkpt lat="44.45385" lon="1.04634">
        <ele>196</ele>
        <time>2012-04-01T05:46:21Z</time>
      </trkpt>
      <trkpt lat="44.45387" lon="1.0463">
        <ele>196</ele>
        <time>2012-04-01T05:46:22Z</time>
      </trkpt>
      <trkpt lat="44.45389" lon="1.04625">
        <ele>196</ele>
        <time>2012-04-01T05:46:23Z</time>
      </trkpt>
      <trkpt lat="44.45392" lon="1.04621">
        <ele>196</ele>
        <time>2012-04-01T05:46:24Z</time>
      </trkpt>
      <trkpt lat="44.45394" lon="1.04616">
        <ele>196</ele>
        <time>2012-04-01T05:46:25Z</time>
      </trkpt>
      <trkpt lat="44.45396" lon="1.04612">
        <ele>196</ele>
        <time>2012-04-01T05:46:26Z</time>
      </trkpt>
      <trkpt lat="44.45398" lon="1.04607">
        <ele>196</ele>
        <time>2012-04-01T05:46:27Z</time>
      </trkpt>
      <trkpt lat="44.454" lon="1.04602">
        <ele>196</ele>
        <time>2012-04-01T05:46:28Z</time>
      </trkpt>
      <trkpt lat="44.45402" lon="1.04597">
        <ele>196</ele>
        <time>2012-04-01T05:46:29Z</time>
      </trkpt>
      <trkpt lat="44.45404" lon="1.04592">
        <ele>196</ele>
        <time>2012-04-01T05:46:30Z</time>
      </trkpt>
      <trkpt lat="44.45406" lon="1.04587">
        <ele>196</ele>
        <time>2012-04-01T05:46:31Z</time>
      </trkpt>
      <trkpt lat="44.45408" lon="1.04582">
        <ele>196</ele>
        <time>2012-04-01T05:46:32Z</time>
      </trkpt>
      <trkpt lat="44.4541" lon="1.04576">
        <ele>196</ele>
        <time>2012-04-01T05:46:33Z</time>
      </trkpt>
      <trkpt lat="44.45411" lon="1.0457">
        <ele>196</ele>
        <time>2012-04-01T05:46:34Z</time>
      </trkpt>
      <trkpt lat="44.45413" lon="1.04564">
        <ele>196</ele>
        <time>2012-04-01T05:46:35Z</time>
      </trkpt>
      <trkpt lat="44.45415" lon="1.0456">
        <ele>196</ele>
        <time>2012-04-01T05:46:36Z</time>
      </trkpt>
      <trkpt lat="44.45417" lon="1.04554">
        <ele>196</ele>
        <time>2012-04-01T05:46:37Z</time>
      </trkpt>
      <trkpt lat="44.4542" lon="1.04551">
        <ele>196</ele>
        <time>2012-04-01T05:46:38Z</time>
      </trkpt>
      <trkpt lat="44.45423" lon="1.04547">
        <ele>196</ele>
        <time>2012-04-01T05:46:39Z</time>
      </trkpt>
      <trkpt lat="44.45426" lon="1.04544">
        <ele>196</ele>
        <time>2012-04-01T05:46:40Z</time>
      </trkpt>
      <trkpt lat="44.45428" lon="1.04541">
        <ele>196</ele>
        <time>2012-04-01T05:46:41Z</time>
      </trkpt>
      <trkpt lat="44.45431" lon="1.04537">
        <ele>196</ele>
        <time>2012-04-01T05:46:42Z</time>
      </trkpt>
      <trkpt lat="44.45434" lon="1.04534">
        <ele>197</ele>
        <time>2012-04-01T05:46:43Z</time>
      </trkpt>
      <trkpt lat="44.45437" lon="1.04532">
        <ele>198</ele>
        <time>2012-04-01T05:46:44Z</time>
      </trkpt>
      <trkpt lat="44.45439" lon="1.04529">
        <ele>199</ele>
        <time>2012-04-01T05:46:45Z</time>
      </trkpt>
      <trkpt lat="44.45441" lon="1.04527">
        <ele>200</ele>
        <time>2012-04-01T05:46:46Z</time>
      </trkpt>
      <trkpt lat="44.45443" lon="1.04524">
        <ele>201</ele>
        <time>2012-04-01T05:46:47Z</time>
      </trkpt>
      <trkpt lat="44.45446" lon="1.04522">
        <ele>201</ele>
        <time>2012-04-01T05:46:48Z</time>
      </trkpt>
      <trkpt lat="44.45448" lon="1.04519">
        <ele>201</ele>
        <time>2012-04-01T05:46:49Z</time>
      </trkpt>
      <trkpt lat="44.45449" lon="1.04516">
        <ele>201</ele>
        <time>2012-04-01T05:46:50Z</time>
      </trkpt>
      <trkpt lat="44.45451" lon="1.04511">
        <ele>201</ele>
        <time>2012-04-01T05:46:51Z</time>
      </trkpt>
      <trkpt lat="44.45453" lon="1.04507">
        <ele>201</ele>
        <time>2012-04-01T05:46:52Z</time>
      </trkpt>
      <trkpt lat="44.45455" lon="1.04502">
        <ele>201</ele>
        <time>2012-04-01T05:46:53Z</time>
      </trkpt>
      <trkpt lat="44.45457" lon="1.04497">
        <ele>201</ele>
        <time>2012-04-01T05:46:54Z</time>
      </trkpt>
      <trkpt lat="44.45459" lon="1.04491">
        <ele>201</ele>
        <time>2012-04-01T05:46:55Z</time>
      </trkpt>
      <trkpt lat="44.45461" lon="1.04486">
        <ele>201</ele>
        <time>2012-04-01T05:46:56Z</time>
      </trkpt>
      <trkpt lat="44.45463" lon="1.04481">
        <ele>201</ele>
        <time>2012-04-01T05:46:57Z</time>
      </trkpt>
      <trkpt lat="44.45464" lon="1.04476">
        <ele>201</ele>
        <time>2012-04-01T05:46:58Z</time>
      </trkpt>
      <trkpt lat="44.45466" lon="1.04471">
        <ele>201</ele>
        <time>2012-04-01T05:46:59Z</time>
      </trkpt>
      <trkpt lat="44.45468" lon="1.04466">
        <ele>201</ele>
        <time>2012-04-01T05:47:00Z</time>
      </trkpt>
      <trkpt lat="44.45469" lon="1.04462">
        <ele>201</ele>
        <time>2012-04-01T05:47:01Z</time>
      </trkpt>
      <trkpt lat="44.4547" lon="1.04457">
        <ele>201</ele>
        <time>2012-04-01T05:47:02Z</time>
      </trkpt>
      <trkpt lat="44.45472" lon="1.04454">
        <ele>201</ele>
        <time>2012-04-01T05:47:03Z</time>
      </trkpt>
      <trkpt lat="44.45474" lon="1.04451">
        <ele>201</ele>
        <time>2012-04-01T05:47:04Z</time>
      </trkpt>
      <trkpt lat="44.45477" lon="1.04448">
        <ele>201</ele>
        <time>2012-04-01T05:47:05Z</time>
      </trkpt>
      <trkpt lat="44.4548" lon="1.04447">
        <ele>201</ele>
        <time>2012-04-01T05:47:06Z</time>
      </trkpt>
      <trkpt lat="44.45484" lon="1.04447">
        <ele>201</ele>
        <time>2012-04-01T05:47:07Z</time>
      </trkpt>
      <trkpt lat="44.45488" lon="1.04446">
        <ele>201</ele>
        <time>2012-04-01T05:47:08Z</time>
      </trkpt>
      <trkpt lat="44.45493" lon="1.04446">
        <ele>201</ele>
        <time>2012-04-01T05:47:09Z</time>
      </trkpt>
      <trkpt lat="44.45498" lon="1.04445">
        <ele>201</ele>
        <time>2012-04-01T05:47:10Z</time>
      </trkpt>
      <trkpt lat="44.45503" lon="1.04444">
        <ele>201</ele>
        <time>2012-04-01T05:47:11Z</time>
      </trkpt>
      <trkpt lat="44.45509" lon="1.04443">
        <ele>201</ele>
        <time>2012-04-01T05:47:12Z</time>
      </trkpt>
      <trkpt lat="44.45514" lon="1.04443">
        <ele>201</ele>
        <time>2012-04-01T05:47:13Z</time>
      </trkpt>
      <trkpt lat="44.45519" lon="1.04442">
        <ele>200</ele>
        <time>2012-04-01T05:47:14Z</time>
      </trkpt>
      <trkpt lat="44.45525" lon="1.04442">
        <ele>199</ele>
        <time>2012-04-01T05:47:15Z</time>
      </trkpt>
      <trkpt lat="44.4553" lon="1.04443">
        <ele>198</ele>
        <time>2012-04-01T05:47:16Z</time>
      </trkpt>
      <trkpt lat="44.45535" lon="1.04443">
        <ele>197</ele>
        <time>2012-04-01T05:47:17Z</time>
      </trkpt>
      <trkpt lat="44.4554" lon="1.04444">
        <ele>197</ele>
        <time>2012-04-01T05:47:18Z</time>
      </trkpt>
      <trkpt lat="44.45544" lon="1.04445">
        <ele>196</ele>
        <time>2012-04-01T05:47:19Z</time>
      </trkpt>
      <trkpt lat="44.45546" lon="1.04445">
        <ele>195</ele>
        <time>2012-04-01T05:47:20Z</time>
      </trkpt>
      <trkpt lat="44.45549" lon="1.04446">
        <ele>194</ele>
        <time>2012-04-01T05:47:21Z</time>
      </trkpt>
      <trkpt lat="44.45551" lon="1.04447">
        <ele>193</ele>
        <time>2012-04-01T05:47:22Z</time>
      </trkpt>
      <trkpt lat="44.45554" lon="1.04447">
        <ele>193</ele>
        <time>2012-04-01T05:47:23Z</time>
      </trkpt>
      <trkpt lat="44.45555" lon="1.04447">
        <ele>192</ele>
        <time>2012-04-01T05:47:24Z</time>
      </trkpt>
      <trkpt lat="44.45557" lon="1.04448">
        <ele>192</ele>
        <time>2012-04-01T05:47:25Z</time>
      </trkpt>
      <trkpt lat="44.4556" lon="1.04449">
        <ele>192</ele>
        <time>2012-04-01T05:47:26Z</time>
      </trkpt>
      <trkpt lat="44.45562" lon="1.0445">
        <ele>191</ele>
        <time>2012-04-01T05:47:27Z</time>
      </trkpt>
      <trkpt lat="44.45564" lon="1.04451">
        <ele>191</ele>
        <time>2012-04-01T05:47:28Z</time>
      </trkpt>
      <trkpt lat="44.45567" lon="1.04452">
        <ele>190</ele>
        <time>2012-04-01T05:47:29Z</time>
      </trkpt>
      <trkpt lat="44.45569" lon="1.04452">
        <ele>190</ele>
        <time>2012-04-01T05:47:30Z</time>
      </trkpt>
      <trkpt lat="44.45571" lon="1.04452">
        <ele>190</ele>
        <time>2012-04-01T05:47:31Z</time>
      </trkpt>
      <trkpt lat="44.45573" lon="1.04452">
        <ele>190</ele>
        <time>2012-04-01T05:47:32Z</time>
      </trkpt>
      <trkpt lat="44.45576" lon="1.04452">
        <ele>189</ele>
        <time>2012-04-01T05:47:33Z</time>
      </trkpt>
      <trkpt lat="44.45579" lon="1.04452">
        <ele>189</ele>
        <time>2012-04-01T05:47:34Z</time>
      </trkpt>
      <trkpt lat="44.45582" lon="1.04452">
        <ele>189</ele>
        <time>2012-04-01T05:47:35Z</time>
      </trkpt>
      <trkpt lat="44.45586" lon="1.04452">
        <ele>189</ele>
        <time>2012-04-01T05:47:36Z</time>
      </trkpt>
      <trkpt lat="44.45589" lon="1.04452">
        <ele>188</ele>
        <time>2012-04-01T05:47:37Z</time>
      </trkpt>
      <trkpt lat="44.45593" lon="1.04452">
        <ele>188</ele>
        <time>2012-04-01T05:47:38Z</time>
      </trkpt>
      <trkpt lat="44.45596" lon="1.04453">
        <ele>188</ele>
        <time>2012-04-01T05:47:39Z</time>
      </trkpt>
      <trkpt lat="44.45601" lon="1.04453">
        <ele>188</ele>
        <time>2012-04-01T05:47:40Z</time>
      </trkpt>
      <trkpt lat="44.45604" lon="1.04454">
        <ele>187</ele>
        <time>2012-04-01T05:47:41Z</time>
      </trkpt>
      <trkpt lat="44.45607" lon="1.04454">
        <ele>187</ele>
        <time>2012-04-01T05:47:42Z</time>
      </trkpt>
      <trkpt lat="44.45611" lon="1.04454">
        <ele>187</ele>
        <time>2012-04-01T05:47:43Z</time>
      </trkpt>
      <trkpt lat="44.45615" lon="1.04454">
        <ele>186</ele>
        <time>2012-04-01T05:47:44Z</time>
      </trkpt>
      <trkpt lat="44.4562" lon="1.04455">
        <ele>186</ele>
        <time>2012-04-01T05:47:45Z</time>
      </trkpt>
      <trkpt lat="44.45626" lon="1.04456">
        <ele>185</ele>
        <time>2012-04-01T05:47:46Z</time>
      </trkpt>
      <trkpt lat="44.45632" lon="1.04458">
        <ele>185</ele>
        <time>2012-04-01T05:47:47Z</time>
      </trkpt>
      <trkpt lat="44.45639" lon="1.04459">
        <ele>184</ele>
        <time>2012-04-01T05:47:48Z</time>
      </trkpt>
      <trkpt lat="44.45647" lon="1.0446">
        <ele>184</ele>
        <time>2012-04-01T05:47:49Z</time>
      </trkpt>
      <trkpt lat="44.45655" lon="1.0446">
        <ele>183</ele>
        <time>2012-04-01T05:47:50Z</time>
      </trkpt>
      <trkpt lat="44.45663" lon="1.0446">
        <ele>182</ele>
        <time>2012-04-01T05:47:51Z</time>
      </trkpt>
      <trkpt lat="44.45673" lon="1.04459">
        <ele>181</ele>
        <time>2012-04-01T05:47:52Z</time>
      </trkpt>
      <trkpt lat="44.45682" lon="1.0446">
        <ele>180</ele>
        <time>2012-04-01T05:47:53Z</time>
      </trkpt>
      <trkpt lat="44.45692" lon="1.0446">
        <ele>179</ele>
        <time>2012-04-01T05:47:54Z</time>
      </trkpt>
      <trkpt lat="44.45702" lon="1.04461">
        <ele>178</ele>
        <time>2012-04-01T05:47:55Z</time>
      </trkpt>
      <trkpt lat="44.45712" lon="1.04462">
        <ele>177</ele>
        <time>2012-04-01T05:47:56Z</time>
      </trkpt>
      <trkpt lat="44.45722" lon="1.04463">
        <ele>176</ele>
        <time>2012-04-01T05:47:57Z</time>
      </trkpt>
      <trkpt lat="44.45732" lon="1.04463">
        <ele>175</ele>
        <time>2012-04-01T05:47:58Z</time>
      </trkpt>
      <trkpt lat="44.45741" lon="1.04464">
        <ele>174</ele>
        <time>2012-04-01T05:47:59Z</time>
      </trkpt>
      <trkpt lat="44.4575" lon="1.04464">
        <ele>173</ele>
        <time>2012-04-01T05:48:00Z</time>
      </trkpt>
      <trkpt lat="44.45759" lon="1.04465">
        <ele>172</ele>
        <time>2012-04-01T05:48:01Z</time>
      </trkpt>
      <trkpt lat="44.45768" lon="1.04466">
        <ele>171</ele>
        <time>2012-04-01T05:48:02Z</time>
      </trkpt>
      <trkpt lat="44.45776" lon="1.04467">
        <ele>170</ele>
        <time>2012-04-01T05:48:03Z</time>
      </trkpt>
      <trkpt lat="44.45785" lon="1.04469">
        <ele>169</ele>
        <time>2012-04-01T05:48:04Z</time>
      </trkpt>
      <trkpt lat="44.45794" lon="1.0447">
        <ele>168</ele>
        <time>2012-04-01T05:48:05Z</time>
      </trkpt>
      <trkpt lat="44.45802" lon="1.04471">
        <ele>167</ele>
        <time>2012-04-01T05:48:06Z</time>
      </trkpt>
      <trkpt lat="44.4581" lon="1.04471">
        <ele>166</ele>
        <time>2012-04-01T05:48:07Z</time>
      </trkpt>
      <trkpt lat="44.45818" lon="1.04471">
        <ele>165</ele>
        <time>2012-04-01T05:48:08Z</time>
      </trkpt>
      <trkpt lat="44.45825" lon="1.0447">
        <ele>164</ele>
        <time>2012-04-01T05:48:09Z</time>
      </trkpt>
      <trkpt lat="44.45832" lon="1.04467">
        <ele>163</ele>
        <time>2012-04-01T05:48:10Z</time>
      </trkpt>
      <trkpt lat="44.45837" lon="1.04464">
        <ele>163</ele>
        <time>2012-04-01T05:48:11Z</time>
      </trkpt>
      <trkpt lat="44.45842" lon="1.04461">
        <ele>162</ele>
        <time>2012-04-01T05:48:12Z</time>
      </trkpt>
      <trkpt lat="44.45846" lon="1.04458">
        <ele>162</ele>
        <time>2012-04-01T05:48:13Z</time>
      </trkpt>
      <trkpt lat="44.45849" lon="1.04455">
        <ele>162</ele>
        <time>2012-04-01T05:48:14Z</time>
      </trkpt>
      <trkpt lat="44.45852" lon="1.04451">
        <ele>162</ele>
        <time>2012-04-01T05:48:15Z</time>
      </trkpt>
      <trkpt lat="44.45856" lon="1.04447">
        <ele>162</ele>
        <time>2012-04-01T05:48:16Z</time>
      </trkpt>
      <trkpt lat="44.45859" lon="1.04443">
        <ele>162</ele>
        <time>2012-04-01T05:48:17Z</time>
      </trkpt>
      <trkpt lat="44.45862" lon="1.04439">
        <ele>162</ele>
        <time>2012-04-01T05:48:18Z</time>
      </trkpt>
      <trkpt lat="44.45865" lon="1.04436">
        <ele>162</ele>
        <time>2012-04-01T05:48:19Z</time>
      </trkpt>
      <trkpt lat="44.45868" lon="1.04432">
        <ele>162</ele>
        <time>2012-04-01T05:48:20Z</time>
      </trkpt>
      <trkpt lat="44.45871" lon="1.04428">
        <ele>162</ele>
        <time>2012-04-01T05:48:21Z</time>
      </trkpt>
      <trkpt lat="44.45875" lon="1.04425">
        <ele>162</ele>
        <time>2012-04-01T05:48:22Z</time>
      </trkpt>
      <trkpt lat="44.45877" lon="1.04421">
        <ele>162</ele>
        <time>2012-04-01T05:48:23Z</time>
      </trkpt>
      <trkpt lat="44.4588" lon="1.04418">
        <ele>162</ele>
        <time>2012-04-01T05:48:24Z</time>
      </trkpt>
      <trkpt lat="44.45882" lon="1.04415">
        <ele>163</ele>
        <time>2012-04-01T05:48:25Z</time>
      </trkpt>
      <trkpt lat="44.45884" lon="1.04413">
        <ele>164</ele>
        <time>2012-04-01T05:48:26Z</time>
      </trkpt>
      <trkpt lat="44.45886" lon="1.04411">
        <ele>164</ele>
        <time>2012-04-01T05:48:27Z</time>
      </trkpt>
      <trkpt lat="44.45889" lon="1.0441">
        <ele>165</ele>
        <time>2012-04-01T05:48:28Z</time>
      </trkpt>
      <trkpt lat="44.4589" lon="1.04408">
        <ele>166</ele>
        <time>2012-04-01T05:48:29Z</time>
      </trkpt>
      <trkpt lat="44.45892" lon="1.04406">
        <ele>166</ele>
        <time>2012-04-01T05:48:30Z</time>
      </trkpt>
      <trkpt lat="44.45894" lon="1.04404">
        <ele>166</ele>
        <time>2012-04-01T05:48:31Z</time>
      </trkpt>
      <trkpt lat="44.45895" lon="1.04403">
        <ele>166</ele>
        <time>2012-04-01T05:48:32Z</time>
      </trkpt>
      <trkpt lat="44.45896" lon="1.04402">
        <ele>167</ele>
        <time>2012-04-01T05:48:33Z</time>
      </trkpt>
      <trkpt lat="44.45898" lon="1.044">
        <ele>167</ele>
        <time>2012-04-01T05:48:35Z</time>
      </trkpt>
      <trkpt lat="44.45899" lon="1.04399">
        <ele>167</ele>
        <time>2012-04-01T05:48:36Z</time>
      </trkpt>
      <trkpt lat="44.45901" lon="1.04396">
        <ele>167</ele>
        <time>2012-04-01T05:48:37Z</time>
      </trkpt>
      <trkpt lat="44.45902" lon="1.04394">
        <ele>167</ele>
        <time>2012-04-01T05:48:38Z</time>
      </trkpt>
      <trkpt lat="44.45903" lon="1.04391">
        <ele>167</ele>
        <time>2012-04-01T05:48:39Z</time>
      </trkpt>
      <trkpt lat="44.45905" lon="1.04389">
        <ele>167</ele>
        <time>2012-04-01T05:48:40Z</time>
      </trkpt>
      <trkpt lat="44.45907" lon="1.04386">
        <ele>167</ele>
        <time>2012-04-01T05:48:41Z</time>
      </trkpt>
      <trkpt lat="44.45909" lon="1.04383">
        <ele>167</ele>
        <time>2012-04-01T05:48:42Z</time>
      </trkpt>
      <trkpt lat="44.45911" lon="1.04381">
        <ele>167</ele>
        <time>2012-04-01T05:48:43Z</time>
      </trkpt>
      <trkpt lat="44.45913" lon="1.04377">
        <ele>167</ele>
        <time>2012-04-01T05:48:44Z</time>
      </trkpt>
      <trkpt lat="44.45916" lon="1.04372">
        <ele>167</ele>
        <time>2012-04-01T05:48:45Z</time>
      </trkpt>
      <trkpt lat="44.45919" lon="1.04368">
        <ele>167</ele>
        <time>2012-04-01T05:48:46Z</time>
      </trkpt>
      <trkpt lat="44.45921" lon="1.04364">
        <ele>167</ele>
        <time>2012-04-01T05:48:47Z</time>
      </trkpt>
      <trkpt lat="44.45923" lon="1.0436">
        <ele>167</ele>
        <time>2012-04-01T05:48:48Z</time>
      </trkpt>
      <trkpt lat="44.45926" lon="1.04356">
        <ele>167</ele>
        <time>2012-04-01T05:48:49Z</time>
      </trkpt>
      <trkpt lat="44.45928" lon="1.04353">
        <ele>167</ele>
        <time>2012-04-01T05:48:50Z</time>
      </trkpt>
      <trkpt lat="44.4593" lon="1.0435">
        <ele>167</ele>
        <time>2012-04-01T05:48:51Z</time>
      </trkpt>
      <trkpt lat="44.45932" lon="1.04347">
        <ele>167</ele>
        <time>2012-04-01T05:48:52Z</time>
      </trkpt>
      <trkpt lat="44.45934" lon="1.04344">
        <ele>167</ele>
        <time>2012-04-01T05:48:53Z</time>
      </trkpt>
      <trkpt lat="44.45937" lon="1.04341">
        <ele>167</ele>
        <time>2012-04-01T05:48:54Z</time>
      </trkpt>
      <trkpt lat="44.45939" lon="1.04336">
        <ele>168</ele>
        <time>2012-04-01T05:48:55Z</time>
      </trkpt>
      <trkpt lat="44.45942" lon="1.04331">
        <ele>168</ele>
        <time>2012-04-01T05:48:56Z</time>
      </trkpt>
      <trkpt lat="44.45945" lon="1.04327">
        <ele>168</ele>
        <time>2012-04-01T05:48:57Z</time>
      </trkpt>
      <trkpt lat="44.45948" lon="1.04323">
        <ele>169</ele>
        <time>2012-04-01T05:48:58Z</time>
      </trkpt>
      <trkpt lat="44.45951" lon="1.04319">
        <ele>169</ele>
        <time>2012-04-01T05:48:59Z</time>
      </trkpt>
      <trkpt lat="44.45954" lon="1.04315">
        <ele>169</ele>
        <time>2012-04-01T05:49:00Z</time>
      </trkpt>
      <trkpt lat="44.45958" lon="1.04311">
        <ele>169</ele>
        <time>2012-04-01T05:49:01Z</time>
      </trkpt>
      <trkpt lat="44.45963" lon="1.04306">
        <ele>169</ele>
        <time>2012-04-01T05:49:02Z</time>
      </trkpt>
      <trkpt lat="44.45967" lon="1.04302">
        <ele>169</ele>
        <time>2012-04-01T05:49:03Z</time>
      </trkpt>
      <trkpt lat="44.45972" lon="1.04297">
        <ele>170</ele>
        <time>2012-04-01T05:49:04Z</time>
      </trkpt>
      <trkpt lat="44.45978" lon="1.04293">
        <ele>170</ele>
        <time>2012-04-01T05:49:05Z</time>
      </trkpt>
      <trkpt lat="44.45984" lon="1.04288">
        <ele>170</ele>
        <time>2012-04-01T05:49:06Z</time>
      </trkpt>
      <trkpt lat="44.45989" lon="1.04285">
        <ele>170</ele>
        <time>2012-04-01T05:49:07Z</time>
      </trkpt>
      <trkpt lat="44.45994" lon="1.0428">
        <ele>170</ele>
        <time>2012-04-01T05:49:08Z</time>
      </trkpt>
      <trkpt lat="44.46" lon="1.04275">
        <ele>170</ele>
        <time>2012-04-01T05:49:09Z</time>
      </trkpt>
      <trkpt lat="44.46006" lon="1.04271">
        <ele>170</ele>
        <time>2012-04-01T05:49:10Z</time>
      </trkpt>
      <trkpt lat="44.46011" lon="1.04268">
        <ele>170</ele>
        <time>2012-04-01T05:49:11Z</time>
      </trkpt>
      <trkpt lat="44.46016" lon="1.04265">
        <ele>170</ele>
        <time>2012-04-01T05:49:12Z</time>
      </trkpt>
      <trkpt lat="44.4602" lon="1.04261">
        <ele>170</ele>
        <time>2012-04-01T05:49:13Z</time>
      </trkpt>
      <trkpt lat="44.46024" lon="1.04256">
        <ele>170</ele>
        <time>2012-04-01T05:49:14Z</time>
      </trkpt>
      <trkpt lat="44.46029" lon="1.04251">
        <ele>170</ele>
        <time>2012-04-01T05:49:15Z</time>
      </trkpt>
      <trkpt lat="44.46033" lon="1.04246">
        <ele>170</ele>
        <time>2012-04-01T05:49:16Z</time>
      </trkpt>
      <trkpt lat="44.46038" lon="1.04244">
        <ele>170</ele>
        <time>2012-04-01T05:49:17Z</time>
      </trkpt>
      <trkpt lat="44.46043" lon="1.04242">
        <ele>170</ele>
        <time>2012-04-01T05:49:18Z</time>
      </trkpt>
      <trkpt lat="44.46048" lon="1.04239">
        <ele>170</ele>
        <time>2012-04-01T05:49:19Z</time>
      </trkpt>
      <trkpt lat="44.46051" lon="1.04238">
        <ele>170</ele>
        <time>2012-04-01T05:49:20Z</time>
      </trkpt>
      <trkpt lat="44.46056" lon="1.04236">
        <ele>170</ele>
        <time>2012-04-01T05:49:21Z</time>
      </trkpt>
      <trkpt lat="44.46061" lon="1.04236">
        <ele>170</ele>
        <time>2012-04-01T05:49:22Z</time>
      </trkpt>
      <trkpt lat="44.46066" lon="1.04235">
        <ele>170</ele>
        <time>2012-04-01T05:49:23Z</time>
      </trkpt>
      <trkpt lat="44.4607" lon="1.04234">
        <ele>170</ele>
        <time>2012-04-01T05:49:24Z</time>
      </trkpt>
      <trkpt lat="44.46074" lon="1.04233">
        <ele>170</ele>
        <time>2012-04-01T05:49:25Z</time>
      </trkpt>
      <trkpt lat="44.46078" lon="1.04233">
        <ele>170</ele>
        <time>2012-04-01T05:49:26Z</time>
      </trkpt>
      <trkpt lat="44.46083" lon="1.04234">
        <ele>170</ele>
        <time>2012-04-01T05:49:27Z</time>
      </trkpt>
      <trkpt lat="44.46087" lon="1.04235">
        <ele>171</ele>
        <time>2012-04-01T05:49:28Z</time>
      </trkpt>
      <trkpt lat="44.46089" lon="1.04237">
        <ele>172</ele>
        <time>2012-04-01T05:49:29Z</time>
      </trkpt>
      <trkpt lat="44.46092" lon="1.04239">
        <ele>173</ele>
        <time>2012-04-01T05:49:30Z</time>
      </trkpt>
      <trkpt lat="44.46095" lon="1.04241">
        <ele>174</ele>
        <time>2012-04-01T05:49:31Z</time>
      </trkpt>
      <trkpt lat="44.46096" lon="1.04242">
        <ele>175</ele>
        <time>2012-04-01T05:49:32Z</time>
      </trkpt>
      <trkpt lat="44.46099" lon="1.04243">
        <ele>176</ele>
        <time>2012-04-01T05:49:33Z</time>
      </trkpt>
      <trkpt lat="44.46103" lon="1.04243">
        <ele>177</ele>
        <time>2012-04-01T05:49:34Z</time>
      </trkpt>
      <trkpt lat="44.46106" lon="1.04244">
        <ele>177</ele>
        <time>2012-04-01T05:49:35Z</time>
      </trkpt>
      <trkpt lat="44.46108" lon="1.04244">
        <ele>178</ele>
        <time>2012-04-01T05:49:36Z</time>
      </trkpt>
      <trkpt lat="44.46111" lon="1.04243">
        <ele>179</ele>
        <time>2012-04-01T05:49:37Z</time>
      </trkpt>
      <trkpt lat="44.46112" lon="1.04242">
        <ele>180</ele>
        <time>2012-04-01T05:49:38Z</time>
      </trkpt>
      <trkpt lat="44.46115" lon="1.04241">
        <ele>181</ele>
        <time>2012-04-01T05:49:39Z</time>
      </trkpt>
      <trkpt lat="44.46118" lon="1.04242">
        <ele>182</ele>
        <time>2012-04-01T05:49:40Z</time>
      </trkpt>
      <trkpt lat="44.46121" lon="1.04242">
        <ele>182</ele>
        <time>2012-04-01T05:49:41Z</time>
      </trkpt>
      <trkpt lat="44.46124" lon="1.0424">
        <ele>183</ele>
        <time>2012-04-01T05:49:42Z</time>
      </trkpt>
      <trkpt lat="44.46126" lon="1.04239">
        <ele>183</ele>
        <time>2012-04-01T05:49:43Z</time>
      </trkpt>
      <trkpt lat="44.46128" lon="1.04238">
        <ele>183</ele>
        <time>2012-04-01T05:49:44Z</time>
      </trkpt>
      <trkpt lat="44.4613" lon="1.04236">
        <ele>184</ele>
        <time>2012-04-01T05:49:45Z</time>
      </trkpt>
      <trkpt lat="44.46132" lon="1.04235">
        <ele>185</ele>
        <time>2012-04-01T05:49:46Z</time>
      </trkpt>
      <trkpt lat="44.46133" lon="1.04234">
        <ele>186</ele>
        <time>2012-04-01T05:49:47Z</time>
      </trkpt>
      <trkpt lat="44.46135" lon="1.04232">
        <ele>187</ele>
        <time>2012-04-01T05:49:48Z</time>
      </trkpt>
      <trkpt lat="44.46136" lon="1.0423">
        <ele>188</ele>
        <time>2012-04-01T05:49:49Z</time>
      </trkpt>
      <trkpt lat="44.46139" lon="1.04228">
        <ele>189</ele>
        <time>2012-04-01T05:49:50Z</time>
      </trkpt>
      <trkpt lat="44.46143" lon="1.04226">
        <ele>190</ele>
        <time>2012-04-01T05:49:51Z</time>
      </trkpt>
      <trkpt lat="44.46145" lon="1.04225">
        <ele>190</ele>
        <time>2012-04-01T05:49:52Z</time>
      </trkpt>
      <trkpt lat="44.46148" lon="1.04223">
        <ele>190</ele>
        <time>2012-04-01T05:49:53Z</time>
      </trkpt>
      <trkpt lat="44.46149" lon="1.04222">
        <ele>190</ele>
        <time>2012-04-01T05:49:54Z</time>
      </trkpt>
      <trkpt lat="44.46151" lon="1.0422">
        <ele>190</ele>
        <time>2012-04-01T05:49:55Z</time>
      </trkpt>
      <trkpt lat="44.46154" lon="1.04221">
        <ele>190</ele>
        <time>2012-04-01T05:49:56Z</time>
      </trkpt>
      <trkpt lat="44.46157" lon="1.04219">
        <ele>190</ele>
        <time>2012-04-01T05:49:57Z</time>
      </trkpt>
      <trkpt lat="44.46159" lon="1.04219">
        <ele>190</ele>
        <time>2012-04-01T05:49:58Z</time>
      </trkpt>
      <trkpt lat="44.46162" lon="1.0422">
        <ele>190</ele>
        <time>2012-04-01T05:49:59Z</time>
      </trkpt>
      <trkpt lat="44.46165" lon="1.0422">
        <ele>190</ele>
        <time>2012-04-01T05:50:00Z</time>
      </trkpt>
      <trkpt lat="44.46168" lon="1.04221">
        <ele>190</ele>
        <time>2012-04-01T05:50:01Z</time>
      </trkpt>
      <trkpt lat="44.46171" lon="1.04219">
        <ele>190</ele>
        <time>2012-04-01T05:50:02Z</time>
      </trkpt>
      <trkpt lat="44.46175" lon="1.0422">
        <ele>190</ele>
        <time>2012-04-01T05:50:03Z</time>
      </trkpt>
      <trkpt lat="44.46178" lon="1.0422">
        <ele>190</ele>
        <time>2012-04-01T05:50:04Z</time>
      </trkpt>
      <trkpt lat="44.46181" lon="1.04221">
        <ele>190</ele>
        <time>2012-04-01T05:50:05Z</time>
      </trkpt>
      <trkpt lat="44.46184" lon="1.04221">
        <ele>190</ele>
        <time>2012-04-01T05:50:06Z</time>
      </trkpt>
      <trkpt lat="44.46187" lon="1.04221">
        <ele>190</ele>
        <time>2012-04-01T05:50:07Z</time>
      </trkpt>
      <trkpt lat="44.4619" lon="1.0422">
        <ele>190</ele>
        <time>2012-04-01T05:50:08Z</time>
      </trkpt>
      <trkpt lat="44.46192" lon="1.04219">
        <ele>190</ele>
        <time>2012-04-01T05:50:09Z</time>
      </trkpt>
      <trkpt lat="44.46194" lon="1.04219">
        <ele>190</ele>
        <time>2012-04-01T05:50:10Z</time>
      </trkpt>
      <trkpt lat="44.46196" lon="1.04218">
        <ele>190</ele>
        <time>2012-04-01T05:50:11Z</time>
      </trkpt>
      <trkpt lat="44.46198" lon="1.04218">
        <ele>190</ele>
        <time>2012-04-01T05:50:12Z</time>
      </trkpt>
      <trkpt lat="44.46199" lon="1.04217">
        <ele>191</ele>
        <time>2012-04-01T05:50:13Z</time>
      </trkpt>
      <trkpt lat="44.46202" lon="1.04217">
        <ele>191</ele>
        <time>2012-04-01T05:50:14Z</time>
      </trkpt>
      <trkpt lat="44.46204" lon="1.04218">
        <ele>192</ele>
        <time>2012-04-01T05:50:15Z</time>
      </trkpt>
      <trkpt lat="44.46206" lon="1.04217">
        <ele>192</ele>
        <time>2012-04-01T05:50:16Z</time>
      </trkpt>
      <trkpt lat="44.46208" lon="1.04218">
        <ele>193</ele>
        <time>2012-04-01T05:50:17Z</time>
      </trkpt>
      <trkpt lat="44.46211" lon="1.04217">
        <ele>194</ele>
        <time>2012-04-01T05:50:18Z</time>
      </trkpt>
      <trkpt lat="44.46213" lon="1.04216">
        <ele>194</ele>
        <time>2012-04-01T05:50:19Z</time>
      </trkpt>
      <trkpt lat="44.46215" lon="1.04215">
        <ele>195</ele>
        <time>2012-04-01T05:50:20Z</time>
      </trkpt>
      <trkpt lat="44.46216" lon="1.04216">
        <ele>196</ele>
        <time>2012-04-01T05:50:21Z</time>
      </trkpt>
      <trkpt lat="44.46218" lon="1.04217">
        <ele>196</ele>
        <time>2012-04-01T05:50:22Z</time>
      </trkpt>
      <trkpt lat="44.46221" lon="1.04218">
        <ele>197</ele>
        <time>2012-04-01T05:50:23Z</time>
      </trkpt>
      <trkpt lat="44.46223" lon="1.04219">
        <ele>198</ele>
        <time>2012-04-01T05:50:24Z</time>
      </trkpt>
      <trkpt lat="44.46225" lon="1.0422">
        <ele>199</ele>
        <time>2012-04-01T05:50:25Z</time>
      </trkpt>
      <trkpt lat="44.46227" lon="1.0422">
        <ele>200</ele>
        <time>2012-04-01T05:50:26Z</time>
      </trkpt>
      <trkpt lat="44.4623" lon="1.0422">
        <ele>201</ele>
        <time>2012-04-01T05:50:27Z</time>
      </trkpt>
      <trkpt lat="44.46231" lon="1.04221">
        <ele>202</ele>
        <time>2012-04-01T05:50:28Z</time>
      </trkpt>
      <trkpt lat="44.46233" lon="1.04219">
        <ele>203</ele>
        <time>2012-04-01T05:50:29Z</time>
      </trkpt>
      <trkpt lat="44.46235" lon="1.04219">
        <ele>204</ele>
        <time>2012-04-01T05:50:30Z</time>
      </trkpt>
      <trkpt lat="44.46237" lon="1.04218">
        <ele>204</ele>
        <time>2012-04-01T05:50:31Z</time>
      </trkpt>
      <trkpt lat="44.46239" lon="1.04218">
        <ele>204</ele>
        <time>2012-04-01T05:50:32Z</time>
      </trkpt>
      <trkpt lat="44.46242" lon="1.04218">
        <ele>204</ele>
        <time>2012-04-01T05:50:33Z</time>
      </trkpt>
      <trkpt lat="44.46243" lon="1.04218">
        <ele>204</ele>
        <time>2012-04-01T05:50:34Z</time>
      </trkpt>
      <trkpt lat="44.46244" lon="1.04219">
        <ele>204</ele>
        <time>2012-04-01T05:50:35Z</time>
      </trkpt>
      <trkpt lat="44.46246" lon="1.04218">
        <ele>204</ele>
        <time>2012-04-01T05:50:36Z</time>
      </trkpt>
      <trkpt lat="44.46248" lon="1.04218">
        <ele>204</ele>
        <time>2012-04-01T05:50:37Z</time>
      </trkpt>
      <trkpt lat="44.46249" lon="1.04218">
        <ele>204</ele>
        <time>2012-04-01T05:50:38Z</time>
      </trkpt>
      <trkpt lat="44.46251" lon="1.04217">
        <ele>204</ele>
        <time>2012-04-01T05:50:39Z</time>
      </trkpt>
      <trkpt lat="44.46254" lon="1.04218">
        <ele>204</ele>
        <time>2012-04-01T05:50:40Z</time>
      </trkpt>
      <trkpt lat="44.46256" lon="1.04218">
        <ele>204</ele>
        <time>2012-04-01T05:50:41Z</time>
      </trkpt>
      <trkpt lat="44.46258" lon="1.04219">
        <ele>204</ele>
        <time>2012-04-01T05:50:42Z</time>
      </trkpt>
      <trkpt lat="44.4626" lon="1.04219">
        <ele>204</ele>
        <time>2012-04-01T05:50:43Z</time>
      </trkpt>
      <trkpt lat="44.46262" lon="1.04219">
        <ele>204</ele>
        <time>2012-04-01T05:50:44Z</time>
      </trkpt>
      <trkpt lat="44.46264" lon="1.04218">
        <ele>204</ele>
        <time>2012-04-01T05:50:45Z</time>
      </trkpt>
      <trkpt lat="44.46266" lon="1.04216">
        <ele>204</ele>
        <time>2012-04-01T05:50:47Z</time>
      </trkpt>
      <trkpt lat="44.46267" lon="1.04215">
        <ele>204</ele>
        <time>2012-04-01T05:50:48Z</time>
      </trkpt>
      <trkpt lat="44.46268" lon="1.04214">
        <ele>204</ele>
        <time>2012-04-01T05:50:49Z</time>
      </trkpt>
      <trkpt lat="44.4627" lon="1.04213">
        <ele>204</ele>
        <time>2012-04-01T05:50:50Z</time>
      </trkpt>
      <trkpt lat="44.46272" lon="1.04211">
        <ele>204</ele>
        <time>2012-04-01T05:50:51Z</time>
      </trkpt>
      <trkpt lat="44.46274" lon="1.0421">
        <ele>204</ele>
        <time>2012-04-01T05:50:52Z</time>
      </trkpt>
      <trkpt lat="44.46276" lon="1.04209">
        <ele>204</ele>
        <time>2012-04-01T05:50:53Z</time>
      </trkpt>
      <trkpt lat="44.46278" lon="1.0421">
        <ele>204</ele>
        <time>2012-04-01T05:50:54Z</time>
      </trkpt>
      <trkpt lat="44.4628" lon="1.04208">
        <ele>204</ele>
        <time>2012-04-01T05:50:56Z</time>
      </trkpt>
      <trkpt lat="44.46282" lon="1.04207">
        <ele>204</ele>
        <time>2012-04-01T05:50:57Z</time>
      </trkpt>
      <trkpt lat="44.46284" lon="1.04207">
        <ele>204</ele>
        <time>2012-04-01T05:50:58Z</time>
      </trkpt>
      <trkpt lat="44.46286" lon="1.04206">
        <ele>204</ele>
        <time>2012-04-01T05:50:59Z</time>
      </trkpt>
      <trkpt lat="44.46289" lon="1.04206">
        <ele>204</ele>
        <time>2012-04-01T05:51:00Z</time>
      </trkpt>
      <trkpt lat="44.46291" lon="1.04206">
        <ele>203</ele>
        <time>2012-04-01T05:51:01Z</time>
      </trkpt>
      <trkpt lat="44.46293" lon="1.04206">
        <ele>203</ele>
        <time>2012-04-01T05:51:02Z</time>
      </trkpt>
      <trkpt lat="44.46295" lon="1.04206">
        <ele>202</ele>
        <time>2012-04-01T05:51:03Z</time>
      </trkpt>
      <trkpt lat="44.46296" lon="1.04206">
        <ele>202</ele>
        <time>2012-04-01T05:51:04Z</time>
      </trkpt>
      <trkpt lat="44.46299" lon="1.04206">
        <ele>200</ele>
        <time>2012-04-01T05:51:06Z</time>
      </trkpt>
      <trkpt lat="44.463" lon="1.04206">
        <ele>200</ele>
        <time>2012-04-01T05:51:07Z</time>
      </trkpt>
      <trkpt lat="44.46302" lon="1.04206">
        <ele>200</ele>
        <time>2012-04-01T05:51:08Z</time>
      </trkpt>
      <trkpt lat="44.46304" lon="1.04206">
        <ele>200</ele>
        <time>2012-04-01T05:51:09Z</time>
      </trkpt>
      <trkpt lat="44.46305" lon="1.04206">
        <ele>200</ele>
        <time>2012-04-01T05:51:10Z</time>
      </trkpt>
      <trkpt lat="44.46307" lon="1.04206">
        <ele>200</ele>
        <time>2012-04-01T05:51:11Z</time>
      </trkpt>
      <trkpt lat="44.46308" lon="1.04206">
        <ele>200</ele>
        <time>2012-04-01T05:51:12Z</time>
      </trkpt>
      <trkpt lat="44.4631" lon="1.04206">
        <ele>200</ele>
        <time>2012-04-01T05:51:14Z</time>
      </trkpt>
      <trkpt lat="44.46312" lon="1.04206">
        <ele>200</ele>
        <time>2012-04-01T05:51:15Z</time>
      </trkpt>
      <trkpt lat="44.46313" lon="1.04207">
        <ele>200</ele>
        <time>2012-04-01T05:51:16Z</time>
      </trkpt>
      <trkpt lat="44.46314" lon="1.04208">
        <ele>200</ele>
        <time>2012-04-01T05:51:17Z</time>
      </trkpt>
      <trkpt lat="44.46316" lon="1.04209">
        <ele>200</ele>
        <time>2012-04-01T05:51:18Z</time>
      </trkpt>
      <trkpt lat="44.46318" lon="1.04209">
        <ele>200</ele>
        <time>2012-04-01T05:51:19Z</time>
      </trkpt>
      <trkpt lat="44.4632" lon="1.0421">
        <ele>200</ele>
        <time>2012-04-01T05:51:20Z</time>
      </trkpt>
      <trkpt lat="44.46321" lon="1.04211">
        <ele>200</ele>
        <time>2012-04-01T05:51:21Z</time>
      </trkpt>
      <trkpt lat="44.46323" lon="1.04212">
        <ele>200</ele>
        <time>2012-04-01T05:51:22Z</time>
      </trkpt>
      <trkpt lat="44.46325" lon="1.04212">
        <ele>200</ele>
        <time>2012-04-01T05:51:23Z</time>
      </trkpt>
      <trkpt lat="44.46328" lon="1.04212">
        <ele>200</ele>
        <time>2012-04-01T05:51:24Z</time>
      </trkpt>
      <trkpt lat="44.4633" lon="1.04212">
        <ele>200</ele>
        <time>2012-04-01T05:51:25Z</time>
      </trkpt>
      <trkpt lat="44.46332" lon="1.04212">
        <ele>200</ele>
        <time>2012-04-01T05:51:26Z</time>
      </trkpt>
      <trkpt lat="44.46334" lon="1.04212">
        <ele>200</ele>
        <time>2012-04-01T05:51:27Z</time>
      </trkpt>
      <trkpt lat="44.46337" lon="1.04212">
        <ele>201</ele>
        <time>2012-04-01T05:51:28Z</time>
      </trkpt>
      <trkpt lat="44.46339" lon="1.04213">
        <ele>201</ele>
        <time>2012-04-01T05:51:29Z</time>
      </trkpt>
      <trkpt lat="44.46342" lon="1.04213">
        <ele>201</ele>
        <time>2012-04-01T05:51:30Z</time>
      </trkpt>
      <trkpt lat="44.46344" lon="1.04213">
        <ele>202</ele>
        <time>2012-04-01T05:51:31Z</time>
      </trkpt>
      <trkpt lat="44.46346" lon="1.04214">
        <ele>203</ele>
        <time>2012-04-01T05:51:32Z</time>
      </trkpt>
      <trkpt lat="44.46349" lon="1.04214">
        <ele>203</ele>
        <time>2012-04-01T05:51:33Z</time>
      </trkpt>
      <trkpt lat="44.46351" lon="1.04214">
        <ele>203</ele>
        <time>2012-04-01T05:51:34Z</time>
      </trkpt>
      <trkpt lat="44.46354" lon="1.04215">
        <ele>204</ele>
        <time>2012-04-01T05:51:35Z</time>
      </trkpt>
      <trkpt lat="44.46356" lon="1.04215">
        <ele>204</ele>
        <time>2012-04-01T05:51:36Z</time>
      </trkpt>
      <trkpt lat="44.46358" lon="1.04215">
        <ele>204</ele>
        <time>2012-04-01T05:51:37Z</time>
      </trkpt>
      <trkpt lat="44.4636" lon="1.04215">
        <ele>204</ele>
        <time>2012-04-01T05:51:38Z</time>
      </trkpt>
      <trkpt lat="44.46363" lon="1.04215">
        <ele>204</ele>
        <time>2012-04-01T05:51:39Z</time>
      </trkpt>
      <trkpt lat="44.46365" lon="1.04215">
        <ele>204</ele>
        <time>2012-04-01T05:51:40Z</time>
      </trkpt>
      <trkpt lat="44.46367" lon="1.04215">
        <ele>204</ele>
        <time>2012-04-01T05:51:41Z</time>
      </trkpt>
      <trkpt lat="44.4637" lon="1.04215">
        <ele>204</ele>
        <time>2012-04-01T05:51:42Z</time>
      </trkpt>
      <trkpt lat="44.46373" lon="1.04215">
        <ele>204</ele>
        <time>2012-04-01T05:51:43Z</time>
      </trkpt>
      <trkpt lat="44.46375" lon="1.04216">
        <ele>204</ele>
        <time>2012-04-01T05:51:44Z</time>
      </trkpt>
      <trkpt lat="44.46378" lon="1.04216">
        <ele>204</ele>
        <time>2012-04-01T05:51:45Z</time>
      </trkpt>
      <trkpt lat="44.4638" lon="1.04216">
        <ele>204</ele>
        <time>2012-04-01T05:51:46Z</time>
      </trkpt>
      <trkpt lat="44.46383" lon="1.04216">
        <ele>204</ele>
        <time>2012-04-01T05:51:47Z</time>
      </trkpt>
      <trkpt lat="44.46386" lon="1.04216">
        <ele>204</ele>
        <time>2012-04-01T05:51:48Z</time>
      </trkpt>
      <trkpt lat="44.46389" lon="1.04216">
        <ele>203</ele>
        <time>2012-04-01T05:51:49Z</time>
      </trkpt>
      <trkpt lat="44.46392" lon="1.04217">
        <ele>203</ele>
        <time>2012-04-01T05:51:50Z</time>
      </trkpt>
      <trkpt lat="44.46395" lon="1.04218">
        <ele>202</ele>
        <time>2012-04-01T05:51:51Z</time>
      </trkpt>
      <trkpt lat="44.46398" lon="1.04218">
        <ele>202</ele>
        <time>2012-04-01T05:51:52Z</time>
      </trkpt>
      <trkpt lat="44.46401" lon="1.04218">
        <ele>201</ele>
        <time>2012-04-01T05:51:53Z</time>
      </trkpt>
      <trkpt lat="44.46404" lon="1.04218">
        <ele>201</ele>
        <time>2012-04-01T05:51:54Z</time>
      </trkpt>
      <trkpt lat="44.46407" lon="1.04218">
        <ele>200</ele>
        <time>2012-04-01T05:51:55Z</time>
      </trkpt>
      <trkpt lat="44.4641" lon="1.04218">
        <ele>200</ele>
        <time>2012-04-01T05:51:56Z</time>
      </trkpt>
      <trkpt lat="44.46415" lon="1.04218">
        <ele>200</ele>
        <time>2012-04-01T05:51:57Z</time>
      </trkpt>
      <trkpt lat="44.46419" lon="1.04218">
        <ele>200</ele>
        <time>2012-04-01T05:51:58Z</time>
      </trkpt>
      <trkpt lat="44.46421" lon="1.04218">
        <ele>200</ele>
        <time>2012-04-01T05:51:59Z</time>
      </trkpt>
      <trkpt lat="44.46423" lon="1.04218">
        <ele>200</ele>
        <time>2012-04-01T05:52:00Z</time>
      </trkpt>
      <trkpt lat="44.46425" lon="1.04219">
        <ele>200</ele>
        <time>2012-04-01T05:52:01Z</time>
      </trkpt>
      <trkpt lat="44.46427" lon="1.04219">
        <ele>200</ele>
        <time>2012-04-01T05:52:02Z</time>
      </trkpt>
      <trkpt lat="44.46429" lon="1.04218">
        <ele>200</ele>
        <time>2012-04-01T05:52:03Z</time>
      </trkpt>
      <trkpt lat="44.46432" lon="1.04218">
        <ele>200</ele>
        <time>2012-04-01T05:52:04Z</time>
      </trkpt>
      <trkpt lat="44.46434" lon="1.04218">
        <ele>200</ele>
        <time>2012-04-01T05:52:05Z</time>
      </trkpt>
      <trkpt lat="44.46436" lon="1.04218">
        <ele>200</ele>
        <time>2012-04-01T05:52:06Z</time>
      </trkpt>
      <trkpt lat="44.46439" lon="1.04218">
        <ele>200</ele>
        <time>2012-04-01T05:52:07Z</time>
      </trkpt>
      <trkpt lat="44.46441" lon="1.04218">
        <ele>200</ele>
        <time>2012-04-01T05:52:08Z</time>
      </trkpt>
      <trkpt lat="44.46443" lon="1.04218">
        <ele>200</ele>
        <time>2012-04-01T05:52:09Z</time>
      </trkpt>
      <trkpt lat="44.46445" lon="1.04217">
        <ele>200</ele>
        <time>2012-04-01T05:52:10Z</time>
      </trkpt>
      <trkpt lat="44.46447" lon="1.04217">
        <ele>200</ele>
        <time>2012-04-01T05:52:11Z</time>
      </trkpt>
      <trkpt lat="44.46449" lon="1.04217">
        <ele>200</ele>
        <time>2012-04-01T05:52:12Z</time>
      </trkpt>
      <trkpt lat="44.46452" lon="1.04217">
        <ele>200</ele>
        <time>2012-04-01T05:52:13Z</time>
      </trkpt>
      <trkpt lat="44.46453" lon="1.04218">
        <ele>200</ele>
        <time>2012-04-01T05:52:14Z</time>
      </trkpt>
      <trkpt lat="44.46456" lon="1.04218">
        <ele>200</ele>
        <time>2012-04-01T05:52:15Z</time>
      </trkpt>
      <trkpt lat="44.46458" lon="1.04218">
        <ele>200</ele>
        <time>2012-04-01T05:52:16Z</time>
      </trkpt>
      <trkpt lat="44.4646" lon="1.04218">
        <ele>200</ele>
        <time>2012-04-01T05:52:17Z</time>
      </trkpt>
      <trkpt lat="44.46462" lon="1.04218">
        <ele>200</ele>
        <time>2012-04-01T05:52:18Z</time>
      </trkpt>
      <trkpt lat="44.46465" lon="1.04218">
        <ele>200</ele>
        <time>2012-04-01T05:52:19Z</time>
      </trkpt>
      <trkpt lat="44.46466" lon="1.04218">
        <ele>200</ele>
        <time>2012-04-01T05:52:20Z</time>
      </trkpt>
      <trkpt lat="44.46469" lon="1.04218">
        <ele>200</ele>
        <time>2012-04-01T05:52:21Z</time>
      </trkpt>
      <trkpt lat="44.46471" lon="1.04219">
        <ele>200</ele>
        <time>2012-04-01T05:52:22Z</time>
      </trkpt>
      <trkpt lat="44.46473" lon="1.04219">
        <ele>200</ele>
        <time>2012-04-01T05:52:23Z</time>
      </trkpt>
      <trkpt lat="44.46475" lon="1.04219">
        <ele>200</ele>
        <time>2012-04-01T05:52:24Z</time>
      </trkpt>
      <trkpt lat="44.46477" lon="1.04219">
        <ele>200</ele>
        <time>2012-04-01T05:52:25Z</time>
      </trkpt>
      <trkpt lat="44.46479" lon="1.04219">
        <ele>200</ele>
        <time>2012-04-01T05:52:26Z</time>
      </trkpt>
      <trkpt lat="44.46481" lon="1.04219">
        <ele>200</ele>
        <time>2012-04-01T05:52:27Z</time>
      </trkpt>
      <trkpt lat="44.46483" lon="1.04219">
        <ele>200</ele>
        <time>2012-04-01T05:52:28Z</time>
      </trkpt>
      <trkpt lat="44.46485" lon="1.0422">
        <ele>200</ele>
        <time>2012-04-01T05:52:29Z</time>
      </trkpt>
      <trkpt lat="44.46487" lon="1.0422">
        <ele>200</ele>
        <time>2012-04-01T05:52:30Z</time>
      </trkpt>
      <trkpt lat="44.46489" lon="1.0422">
        <ele>200</ele>
        <time>2012-04-01T05:52:31Z</time>
      </trkpt>
      <trkpt lat="44.4649" lon="1.0422">
        <ele>200</ele>
        <time>2012-04-01T05:52:32Z</time>
      </trkpt>
      <trkpt lat="44.46492" lon="1.04221">
        <ele>200</ele>
        <time>2012-04-01T05:52:33Z</time>
      </trkpt>
      <trkpt lat="44.46494" lon="1.04221">
        <ele>201</ele>
        <time>2012-04-01T05:52:34Z</time>
      </trkpt>
      <trkpt lat="44.46495" lon="1.04221">
        <ele>201</ele>
        <time>2012-04-01T05:52:35Z</time>
      </trkpt>
      <trkpt lat="44.46497" lon="1.04221">
        <ele>202</ele>
        <time>2012-04-01T05:52:36Z</time>
      </trkpt>
      <trkpt lat="44.465" lon="1.04222">
        <ele>202</ele>
        <time>2012-04-01T05:52:37Z</time>
      </trkpt>
      <trkpt lat="44.46502" lon="1.04222">
        <ele>202</ele>
        <time>2012-04-01T05:52:38Z</time>
      </trkpt>
      <trkpt lat="44.46505" lon="1.04222">
        <ele>203</ele>
        <time>2012-04-01T05:52:39Z</time>
      </trkpt>
      <trkpt lat="44.46507" lon="1.04222">
        <ele>204</ele>
        <time>2012-04-01T05:52:40Z</time>
      </trkpt>
      <trkpt lat="44.4651" lon="1.04222">
        <ele>204</ele>
        <time>2012-04-01T05:52:41Z</time>
      </trkpt>
      <trkpt lat="44.46513" lon="1.04222">
        <ele>205</ele>
        <time>2012-04-01T05:52:42Z</time>
      </trkpt>
      <trkpt lat="44.46515" lon="1.04222">
        <ele>206</ele>
        <time>2012-04-01T05:52:43Z</time>
      </trkpt>
      <trkpt lat="44.46518" lon="1.04222">
        <ele>206</ele>
        <time>2012-04-01T05:52:44Z</time>
      </trkpt>
      <trkpt lat="44.46521" lon="1.04222">
        <ele>207</ele>
        <time>2012-04-01T05:52:45Z</time>
      </trkpt>
      <trkpt lat="44.46523" lon="1.04222">
        <ele>207</ele>
        <time>2012-04-01T05:52:46Z</time>
      </trkpt>
      <trkpt lat="44.46526" lon="1.04222">
        <ele>208</ele>
        <time>2012-04-01T05:52:47Z</time>
      </trkpt>
      <trkpt lat="44.46528" lon="1.04223">
        <ele>208</ele>
        <time>2012-04-01T05:52:48Z</time>
      </trkpt>
      <trkpt lat="44.46531" lon="1.04223">
        <ele>209</ele>
        <time>2012-04-01T05:52:49Z</time>
      </trkpt>
      <trkpt lat="44.46533" lon="1.04223">
        <ele>210</ele>
        <time>2012-04-01T05:52:50Z</time>
      </trkpt>
      <trkpt lat="44.46535" lon="1.04223">
        <ele>210</ele>
        <time>2012-04-01T05:52:51Z</time>
      </trkpt>
      <trkpt lat="44.46538" lon="1.04224">
        <ele>211</ele>
        <time>2012-04-01T05:52:52Z</time>
      </trkpt>
      <trkpt lat="44.46539" lon="1.04224">
        <ele>211</ele>
        <time>2012-04-01T05:52:53Z</time>
      </trkpt>
      <trkpt lat="44.46541" lon="1.04224">
        <ele>212</ele>
        <time>2012-04-01T05:52:54Z</time>
      </trkpt>
      <trkpt lat="44.46543" lon="1.04223">
        <ele>212</ele>
        <time>2012-04-01T05:52:55Z</time>
      </trkpt>
      <trkpt lat="44.46546" lon="1.04223">
        <ele>213</ele>
        <time>2012-04-01T05:52:56Z</time>
      </trkpt>
      <trkpt lat="44.46548" lon="1.04223">
        <ele>213</ele>
        <time>2012-04-01T05:52:57Z</time>
      </trkpt>
      <trkpt lat="44.4655" lon="1.04223">
        <ele>214</ele>
        <time>2012-04-01T05:52:58Z</time>
      </trkpt>
      <trkpt lat="44.46552" lon="1.04223">
        <ele>214</ele>
        <time>2012-04-01T05:52:59Z</time>
      </trkpt>
      <trkpt lat="44.46555" lon="1.04222">
        <ele>214</ele>
        <time>2012-04-01T05:53:00Z</time>
      </trkpt>
      <trkpt lat="44.46558" lon="1.04223">
        <ele>215</ele>
        <time>2012-04-01T05:53:01Z</time>
      </trkpt>
      <trkpt lat="44.4656" lon="1.04223">
        <ele>215</ele>
        <time>2012-04-01T05:53:02Z</time>
      </trkpt>
      <trkpt lat="44.46561" lon="1.04223">
        <ele>215</ele>
        <time>2012-04-01T05:53:03Z</time>
      </trkpt>
      <trkpt lat="44.46563" lon="1.04222">
        <ele>215</ele>
        <time>2012-04-01T05:53:04Z</time>
      </trkpt>
      <trkpt lat="44.46565" lon="1.04221">
        <ele>216</ele>
        <time>2012-04-01T05:53:05Z</time>
      </trkpt>
      <trkpt lat="44.46568" lon="1.0422">
        <ele>216</ele>
        <time>2012-04-01T05:53:06Z</time>
      </trkpt>
      <trkpt lat="44.4657" lon="1.04219">
        <ele>216</ele>
        <time>2012-04-01T05:53:07Z</time>
      </trkpt>
      <trkpt lat="44.46572" lon="1.04218">
        <ele>216</ele>
        <time>2012-04-01T05:53:08Z</time>
      </trkpt>
      <trkpt lat="44.46574" lon="1.04217">
        <ele>216</ele>
        <time>2012-04-01T05:53:09Z</time>
      </trkpt>
      <trkpt lat="44.46576" lon="1.04216">
        <ele>216</ele>
        <time>2012-04-01T05:53:10Z</time>
      </trkpt>
      <trkpt lat="44.46578" lon="1.04215">
        <ele>217</ele>
        <time>2012-04-01T05:53:11Z</time>
      </trkpt>
      <trkpt lat="44.46581" lon="1.04215">
        <ele>217</ele>
        <time>2012-04-01T05:53:12Z</time>
      </trkpt>
      <trkpt lat="44.46583" lon="1.04215">
        <ele>218</ele>
        <time>2012-04-01T05:53:13Z</time>
      </trkpt>
      <trkpt lat="44.46585" lon="1.04214">
        <ele>218</ele>
        <time>2012-04-01T05:53:14Z</time>
      </trkpt>
      <trkpt lat="44.46587" lon="1.04213">
        <ele>218</ele>
        <time>2012-04-01T05:53:15Z</time>
      </trkpt>
      <trkpt lat="44.46589" lon="1.04211">
        <ele>218</ele>
        <time>2012-04-01T05:53:16Z</time>
      </trkpt>
      <trkpt lat="44.46592" lon="1.0421">
        <ele>219</ele>
        <time>2012-04-01T05:53:17Z</time>
      </trkpt>
      <trkpt lat="44.46595" lon="1.04208">
        <ele>219</ele>
        <time>2012-04-01T05:53:18Z</time>
      </trkpt>
      <trkpt lat="44.46597" lon="1.04206">
        <ele>219</ele>
        <time>2012-04-01T05:53:19Z</time>
      </trkpt>
      <trkpt lat="44.46598" lon="1.04203">
        <ele>219</ele>
        <time>2012-04-01T05:53:20Z</time>
      </trkpt>
      <trkpt lat="44.466" lon="1.04202">
        <ele>219</ele>
        <time>2012-04-01T05:53:21Z</time>
      </trkpt>
      <trkpt lat="44.46603" lon="1.04201">
        <ele>219</ele>
        <time>2012-04-01T05:53:22Z</time>
      </trkpt>
      <trkpt lat="44.46605" lon="1.042">
        <ele>219</ele>
        <time>2012-04-01T05:53:23Z</time>
      </trkpt>
      <trkpt lat="44.46607" lon="1.04199">
        <ele>219</ele>
        <time>2012-04-01T05:53:24Z</time>
      </trkpt>
      <trkpt lat="44.46609" lon="1.04199">
        <ele>219</ele>
        <time>2012-04-01T05:53:25Z</time>
      </trkpt>
      <trkpt lat="44.46611" lon="1.04198">
        <ele>219</ele>
        <time>2012-04-01T05:53:26Z</time>
      </trkpt>
      <trkpt lat="44.46613" lon="1.04196">
        <ele>219</ele>
        <time>2012-04-01T05:53:27Z</time>
      </trkpt>
      <trkpt lat="44.46615" lon="1.04195">
        <ele>219</ele>
        <time>2012-04-01T05:53:28Z</time>
      </trkpt>
      <trkpt lat="44.46618" lon="1.04194">
        <ele>219</ele>
        <time>2012-04-01T05:53:29Z</time>
      </trkpt>
      <trkpt lat="44.4662" lon="1.04193">
        <ele>219</ele>
        <time>2012-04-01T05:53:30Z</time>
      </trkpt>
      <trkpt lat="44.46621" lon="1.04192">
        <ele>219</ele>
        <time>2012-04-01T05:53:31Z</time>
      </trkpt>
      <trkpt lat="44.46623" lon="1.04191">
        <ele>219</ele>
        <time>2012-04-01T05:53:32Z</time>
      </trkpt>
      <trkpt lat="44.46625" lon="1.0419">
        <ele>219</ele>
        <time>2012-04-01T05:53:33Z</time>
      </trkpt>
      <trkpt lat="44.46626" lon="1.0419">
        <ele>219</ele>
        <time>2012-04-01T05:53:34Z</time>
      </trkpt>
      <trkpt lat="44.46629" lon="1.0419">
        <ele>219</ele>
        <time>2012-04-01T05:53:35Z</time>
      </trkpt>
      <trkpt lat="44.46631" lon="1.04189">
        <ele>219</ele>
        <time>2012-04-01T05:53:36Z</time>
      </trkpt>
      <trkpt lat="44.46633" lon="1.04189">
        <ele>219</ele>
        <time>2012-04-01T05:53:37Z</time>
      </trkpt>
      <trkpt lat="44.46636" lon="1.04188">
        <ele>219</ele>
        <time>2012-04-01T05:53:38Z</time>
      </trkpt>
      <trkpt lat="44.46638" lon="1.04188">
        <ele>219</ele>
        <time>2012-04-01T05:53:39Z</time>
      </trkpt>
      <trkpt lat="44.4664" lon="1.04188">
        <ele>219</ele>
        <time>2012-04-01T05:53:40Z</time>
      </trkpt>
      <trkpt lat="44.46642" lon="1.04187">
        <ele>219</ele>
        <time>2012-04-01T05:53:41Z</time>
      </trkpt>
      <trkpt lat="44.46644" lon="1.04187">
        <ele>219</ele>
        <time>2012-04-01T05:53:42Z</time>
      </trkpt>
      <trkpt lat="44.46647" lon="1.04187">
        <ele>219</ele>
        <time>2012-04-01T05:53:43Z</time>
      </trkpt>
      <trkpt lat="44.4665" lon="1.04188">
        <ele>219</ele>
        <time>2012-04-01T05:53:44Z</time>
      </trkpt>
      <trkpt lat="44.46653" lon="1.04188">
        <ele>219</ele>
        <time>2012-04-01T05:53:45Z</time>
      </trkpt>
      <trkpt lat="44.46656" lon="1.04188">
        <ele>219</ele>
        <time>2012-04-01T05:53:46Z</time>
      </trkpt>
      <trkpt lat="44.46658" lon="1.04189">
        <ele>219</ele>
        <time>2012-04-01T05:53:47Z</time>
      </trkpt>
      <trkpt lat="44.46661" lon="1.04189">
        <ele>219</ele>
        <time>2012-04-01T05:53:48Z</time>
      </trkpt>
      <trkpt lat="44.46664" lon="1.04188">
        <ele>219</ele>
        <time>2012-04-01T05:53:49Z</time>
      </trkpt>
      <trkpt lat="44.46667" lon="1.04188">
        <ele>219</ele>
        <time>2012-04-01T05:53:50Z</time>
      </trkpt>
      <trkpt lat="44.46671" lon="1.04188">
        <ele>219</ele>
        <time>2012-04-01T05:53:51Z</time>
      </trkpt>
      <trkpt lat="44.46674" lon="1.04187">
        <ele>219</ele>
        <time>2012-04-01T05:53:52Z</time>
      </trkpt>
      <trkpt lat="44.46677" lon="1.04186">
        <ele>219</ele>
        <time>2012-04-01T05:53:53Z</time>
      </trkpt>
      <trkpt lat="44.46681" lon="1.04185">
        <ele>219</ele>
        <time>2012-04-01T05:53:54Z</time>
      </trkpt>
      <trkpt lat="44.46685" lon="1.04184">
        <ele>219</ele>
        <time>2012-04-01T05:53:55Z</time>
      </trkpt>
      <trkpt lat="44.46689" lon="1.04184">
        <ele>219</ele>
        <time>2012-04-01T05:53:56Z</time>
      </trkpt>
      <trkpt lat="44.46692" lon="1.04183">
        <ele>219</ele>
        <time>2012-04-01T05:53:57Z</time>
      </trkpt>
      <trkpt lat="44.46695" lon="1.04183">
        <ele>218</ele>
        <time>2012-04-01T05:53:58Z</time>
      </trkpt>
      <trkpt lat="44.46699" lon="1.04183">
        <ele>217</ele>
        <time>2012-04-01T05:53:59Z</time>
      </trkpt>
      <trkpt lat="44.46702" lon="1.04183">
        <ele>216</ele>
        <time>2012-04-01T05:54:00Z</time>
      </trkpt>
      <trkpt lat="44.46706" lon="1.04183">
        <ele>215</ele>
        <time>2012-04-01T05:54:01Z</time>
      </trkpt>
      <trkpt lat="44.46709" lon="1.04183">
        <ele>215</ele>
        <time>2012-04-01T05:54:02Z</time>
      </trkpt>
      <trkpt lat="44.46713" lon="1.04185">
        <ele>214</ele>
        <time>2012-04-01T05:54:03Z</time>
      </trkpt>
      <trkpt lat="44.46717" lon="1.04186">
        <ele>214</ele>
        <time>2012-04-01T05:54:04Z</time>
      </trkpt>
      <trkpt lat="44.46721" lon="1.04186">
        <ele>213</ele>
        <time>2012-04-01T05:54:05Z</time>
      </trkpt>
      <trkpt lat="44.46726" lon="1.04188">
        <ele>213</ele>
        <time>2012-04-01T05:54:06Z</time>
      </trkpt>
      <trkpt lat="44.46731" lon="1.04188">
        <ele>213</ele>
        <time>2012-04-01T05:54:07Z</time>
      </trkpt>
      <trkpt lat="44.46735" lon="1.04189">
        <ele>213</ele>
        <time>2012-04-01T05:54:08Z</time>
      </trkpt>
      <trkpt lat="44.46739" lon="1.0419">
        <ele>213</ele>
        <time>2012-04-01T05:54:09Z</time>
      </trkpt>
      <trkpt lat="44.46742" lon="1.04191">
        <ele>213</ele>
        <time>2012-04-01T05:54:10Z</time>
      </trkpt>
      <trkpt lat="44.46746" lon="1.04191">
        <ele>213</ele>
        <time>2012-04-01T05:54:11Z</time>
      </trkpt>
      <trkpt lat="44.46749" lon="1.04191">
        <ele>213</ele>
        <time>2012-04-01T05:54:12Z</time>
      </trkpt>
      <trkpt lat="44.46753" lon="1.04191">
        <ele>213</ele>
        <time>2012-04-01T05:54:13Z</time>
      </trkpt>
      <trkpt lat="44.46759" lon="1.04191">
        <ele>213</ele>
        <time>2012-04-01T05:54:14Z</time>
      </trkpt>
      <trkpt lat="44.46763" lon="1.04191">
        <ele>213</ele>
        <time>2012-04-01T05:54:15Z</time>
      </trkpt>
      <trkpt lat="44.46768" lon="1.04191">
        <ele>213</ele>
        <time>2012-04-01T05:54:16Z</time>
      </trkpt>
      <trkpt lat="44.46772" lon="1.04191">
        <ele>213</ele>
        <time>2012-04-01T05:54:17Z</time>
      </trkpt>
      <trkpt lat="44.46776" lon="1.04192">
        <ele>213</ele>
        <time>2012-04-01T05:54:18Z</time>
      </trkpt>
      <trkpt lat="44.4678" lon="1.04192">
        <ele>213</ele>
        <time>2012-04-01T05:54:19Z</time>
      </trkpt>
      <trkpt lat="44.46784" lon="1.04193">
        <ele>213</ele>
        <time>2012-04-01T05:54:20Z</time>
      </trkpt>
      <trkpt lat="44.46788" lon="1.04195">
        <ele>213</ele>
        <time>2012-04-01T05:54:21Z</time>
      </trkpt>
      <trkpt lat="44.46793" lon="1.04197">
        <ele>213</ele>
        <time>2012-04-01T05:54:22Z</time>
      </trkpt>
      <trkpt lat="44.46797" lon="1.04199">
        <ele>213</ele>
        <time>2012-04-01T05:54:23Z</time>
      </trkpt>
      <trkpt lat="44.46801" lon="1.042">
        <ele>213</ele>
        <time>2012-04-01T05:54:24Z</time>
      </trkpt>
      <trkpt lat="44.46805" lon="1.04201">
        <ele>213</ele>
        <time>2012-04-01T05:54:25Z</time>
      </trkpt>
      <trkpt lat="44.4681" lon="1.04203">
        <ele>213</ele>
        <time>2012-04-01T05:54:26Z</time>
      </trkpt>
      <trkpt lat="44.46814" lon="1.04204">
        <ele>213</ele>
        <time>2012-04-01T05:54:27Z</time>
      </trkpt>
      <trkpt lat="44.46818" lon="1.04206">
        <ele>213</ele>
        <time>2012-04-01T05:54:28Z</time>
      </trkpt>
      <trkpt lat="44.46822" lon="1.04207">
        <ele>213</ele>
        <time>2012-04-01T05:54:29Z</time>
      </trkpt>
      <trkpt lat="44.46826" lon="1.04209">
        <ele>213</ele>
        <time>2012-04-01T05:54:30Z</time>
      </trkpt>
      <trkpt lat="44.4683" lon="1.04211">
        <ele>213</ele>
        <time>2012-04-01T05:54:31Z</time>
      </trkpt>
      <trkpt lat="44.46833" lon="1.04212">
        <ele>213</ele>
        <time>2012-04-01T05:54:32Z</time>
      </trkpt>
      <trkpt lat="44.46837" lon="1.04214">
        <ele>213</ele>
        <time>2012-04-01T05:54:33Z</time>
      </trkpt>
      <trkpt lat="44.46841" lon="1.04216">
        <ele>213</ele>
        <time>2012-04-01T05:54:34Z</time>
      </trkpt>
      <trkpt lat="44.46844" lon="1.04218">
        <ele>213</ele>
        <time>2012-04-01T05:54:35Z</time>
      </trkpt>
      <trkpt lat="44.46848" lon="1.0422">
        <ele>213</ele>
        <time>2012-04-01T05:54:36Z</time>
      </trkpt>
      <trkpt lat="44.46851" lon="1.04221">
        <ele>213</ele>
        <time>2012-04-01T05:54:37Z</time>
      </trkpt>
      <trkpt lat="44.46855" lon="1.04223">
        <ele>213</ele>
        <time>2012-04-01T05:54:38Z</time>
      </trkpt>
      <trkpt lat="44.46859" lon="1.04225">
        <ele>213</ele>
        <time>2012-04-01T05:54:39Z</time>
      </trkpt>
      <trkpt lat="44.46862" lon="1.04226">
        <ele>213</ele>
        <time>2012-04-01T05:54:40Z</time>
      </trkpt>
      <trkpt lat="44.46866" lon="1.04227">
        <ele>213</ele>
        <time>2012-04-01T05:54:41Z</time>
      </trkpt>
      <trkpt lat="44.4687" lon="1.04228">
        <ele>213</ele>
        <time>2012-04-01T05:54:42Z</time>
      </trkpt>
      <trkpt lat="44.46874" lon="1.04229">
        <ele>213</ele>
        <time>2012-04-01T05:54:43Z</time>
      </trkpt>
      <trkpt lat="44.46878" lon="1.0423">
        <ele>213</ele>
        <time>2012-04-01T05:54:44Z</time>
      </trkpt>
      <trkpt lat="44.46883" lon="1.04232">
        <ele>213</ele>
        <time>2012-04-01T05:54:45Z</time>
      </trkpt>
      <trkpt lat="44.46887" lon="1.04233">
        <ele>213</ele>
        <time>2012-04-01T05:54:46Z</time>
      </trkpt>
      <trkpt lat="44.46892" lon="1.04234">
        <ele>213</ele>
        <time>2012-04-01T05:54:47Z</time>
      </trkpt>
      <trkpt lat="44.46896" lon="1.04236">
        <ele>213</ele>
        <time>2012-04-01T05:54:48Z</time>
      </trkpt>
      <trkpt lat="44.46901" lon="1.04238">
        <ele>213</ele>
        <time>2012-04-01T05:54:49Z</time>
      </trkpt>
      <trkpt lat="44.46905" lon="1.0424">
        <ele>213</ele>
        <time>2012-04-01T05:54:50Z</time>
      </trkpt>
      <trkpt lat="44.4691" lon="1.04242">
        <ele>213</ele>
        <time>2012-04-01T05:54:51Z</time>
      </trkpt>
      <trkpt lat="44.46915" lon="1.04244">
        <ele>213</ele>
        <time>2012-04-01T05:54:52Z</time>
      </trkpt>
      <trkpt lat="44.4692" lon="1.04246">
        <ele>213</ele>
        <time>2012-04-01T05:54:53Z</time>
      </trkpt>
      <trkpt lat="44.46925" lon="1.04248">
        <ele>213</ele>
        <time>2012-04-01T05:54:54Z</time>
      </trkpt>
      <trkpt lat="44.4693" lon="1.0425">
        <ele>213</ele>
        <time>2012-04-01T05:54:55Z</time>
      </trkpt>
      <trkpt lat="44.46935" lon="1.04252">
        <ele>213</ele>
        <time>2012-04-01T05:54:56Z</time>
      </trkpt>
      <trkpt lat="44.46941" lon="1.04253">
        <ele>213</ele>
        <time>2012-04-01T05:54:57Z</time>
      </trkpt>
      <trkpt lat="44.46945" lon="1.04255">
        <ele>213</ele>
        <time>2012-04-01T05:54:58Z</time>
      </trkpt>
      <trkpt lat="44.4695" lon="1.04256">
        <ele>212</ele>
        <time>2012-04-01T05:54:59Z</time>
      </trkpt>
      <trkpt lat="44.46954" lon="1.04258">
        <ele>211</ele>
        <time>2012-04-01T05:55:00Z</time>
      </trkpt>
      <trkpt lat="44.46957" lon="1.04259">
        <ele>210</ele>
        <time>2012-04-01T05:55:01Z</time>
      </trkpt>
      <trkpt lat="44.4696" lon="1.0426">
        <ele>209</ele>
        <time>2012-04-01T05:55:02Z</time>
      </trkpt>
      <trkpt lat="44.46962" lon="1.04259">
        <ele>208</ele>
        <time>2012-04-01T05:55:03Z</time>
      </trkpt>
      <trkpt lat="44.46964" lon="1.04257">
        <ele>208</ele>
        <time>2012-04-01T05:55:04Z</time>
      </trkpt>
      <trkpt lat="44.46965" lon="1.04254">
        <ele>207</ele>
        <time>2012-04-01T05:55:05Z</time>
      </trkpt>
      <trkpt lat="44.46967" lon="1.04251">
        <ele>207</ele>
        <time>2012-04-01T05:55:06Z</time>
      </trkpt>
      <trkpt lat="44.46968" lon="1.04246">
        <ele>207</ele>
        <time>2012-04-01T05:55:07Z</time>
      </trkpt>
      <trkpt lat="44.4697" lon="1.04242">
        <ele>207</ele>
        <time>2012-04-01T05:55:08Z</time>
      </trkpt>
      <trkpt lat="44.46972" lon="1.04237">
        <ele>207</ele>
        <time>2012-04-01T05:55:09Z</time>
      </trkpt>
      <trkpt lat="44.46974" lon="1.04233">
        <ele>207</ele>
        <time>2012-04-01T05:55:10Z</time>
      </trkpt>
      <trkpt lat="44.46976" lon="1.04229">
        <ele>207</ele>
        <time>2012-04-01T05:55:11Z</time>
      </trkpt>
      <trkpt lat="44.46978" lon="1.04225">
        <ele>207</ele>
        <time>2012-04-01T05:55:12Z</time>
      </trkpt>
      <trkpt lat="44.46981" lon="1.04221">
        <ele>207</ele>
        <time>2012-04-01T05:55:13Z</time>
      </trkpt>
      <trkpt lat="44.46983" lon="1.04217">
        <ele>207</ele>
        <time>2012-04-01T05:55:14Z</time>
      </trkpt>
      <trkpt lat="44.46985" lon="1.04212">
        <ele>207</ele>
        <time>2012-04-01T05:55:15Z</time>
      </trkpt>
      <trkpt lat="44.46987" lon="1.04208">
        <ele>207</ele>
        <time>2012-04-01T05:55:16Z</time>
      </trkpt>
      <trkpt lat="44.4699" lon="1.04204">
        <ele>207</ele>
        <time>2012-04-01T05:55:17Z</time>
      </trkpt>
      <trkpt lat="44.46992" lon="1.04199">
        <ele>207</ele>
        <time>2012-04-01T05:55:18Z</time>
      </trkpt>
      <trkpt lat="44.46995" lon="1.04194">
        <ele>207</ele>
        <time>2012-04-01T05:55:19Z</time>
      </trkpt>
      <trkpt lat="44.46997" lon="1.04188">
        <ele>207</ele>
        <time>2012-04-01T05:55:20Z</time>
      </trkpt>
      <trkpt lat="44.47" lon="1.04183">
        <ele>207</ele>
        <time>2012-04-01T05:55:21Z</time>
      </trkpt>
      <trkpt lat="44.47002" lon="1.04178">
        <ele>207</ele>
        <time>2012-04-01T05:55:22Z</time>
      </trkpt>
      <trkpt lat="44.47004" lon="1.04173">
        <ele>207</ele>
        <time>2012-04-01T05:55:23Z</time>
      </trkpt>
      <trkpt lat="44.47007" lon="1.04168">
        <ele>207</ele>
        <time>2012-04-01T05:55:24Z</time>
      </trkpt>
      <trkpt lat="44.47009" lon="1.04162">
        <ele>207</ele>
        <time>2012-04-01T05:55:25Z</time>
      </trkpt>
      <trkpt lat="44.47012" lon="1.04156">
        <ele>207</ele>
        <time>2012-04-01T05:55:26Z</time>
      </trkpt>
      <trkpt lat="44.47014" lon="1.0415">
        <ele>207</ele>
        <time>2012-04-01T05:55:27Z</time>
      </trkpt>
      <trkpt lat="44.47016" lon="1.04145">
        <ele>207</ele>
        <time>2012-04-01T05:55:28Z</time>
      </trkpt>
      <trkpt lat="44.47018" lon="1.04138">
        <ele>207</ele>
        <time>2012-04-01T05:55:29Z</time>
      </trkpt>
      <trkpt lat="44.4702" lon="1.04131">
        <ele>206</ele>
        <time>2012-04-01T05:55:30Z</time>
      </trkpt>
      <trkpt lat="44.47023" lon="1.04124">
        <ele>206</ele>
        <time>2012-04-01T05:55:31Z</time>
      </trkpt>
      <trkpt lat="44.47025" lon="1.04117">
        <ele>205</ele>
        <time>2012-04-01T05:55:32Z</time>
      </trkpt>
      <trkpt lat="44.47028" lon="1.04109">
        <ele>205</ele>
        <time>2012-04-01T05:55:33Z</time>
      </trkpt>
      <trkpt lat="44.47031" lon="1.04101">
        <ele>205</ele>
        <time>2012-04-01T05:55:34Z</time>
      </trkpt>
      <trkpt lat="44.47034" lon="1.04092">
        <ele>204</ele>
        <time>2012-04-01T05:55:35Z</time>
      </trkpt>
      <trkpt lat="44.47037" lon="1.04084">
        <ele>204</ele>
        <time>2012-04-01T05:55:36Z</time>
      </trkpt>
      <trkpt lat="44.47041" lon="1.04075">
        <ele>204</ele>
        <time>2012-04-01T05:55:37Z</time>
      </trkpt>
      <trkpt lat="44.47044" lon="1.04066">
        <ele>203</ele>
        <time>2012-04-01T05:55:38Z</time>
      </trkpt>
      <trkpt lat="44.47047" lon="1.04057">
        <ele>203</ele>
        <time>2012-04-01T05:55:39Z</time>
      </trkpt>
      <trkpt lat="44.4705" lon="1.04048">
        <ele>203</ele>
        <time>2012-04-01T05:55:40Z</time>
      </trkpt>
      <trkpt lat="44.47053" lon="1.04038">
        <ele>202</ele>
        <time>2012-04-01T05:55:41Z</time>
      </trkpt>
      <trkpt lat="44.47056" lon="1.04028">
        <ele>202</ele>
        <time>2012-04-01T05:55:42Z</time>
      </trkpt>
      <trkpt lat="44.4706" lon="1.04019">
        <ele>201</ele>
        <time>2012-04-01T05:55:43Z</time>
      </trkpt>
      <trkpt lat="44.47063" lon="1.04009">
        <ele>201</ele>
        <time>2012-04-01T05:55:44Z</time>
      </trkpt>
      <trkpt lat="44.47067" lon="1.04">
        <ele>201</ele>
        <time>2012-04-01T05:55:45Z</time>
      </trkpt>
      <trkpt lat="44.4707" lon="1.0399">
        <ele>201</ele>
        <time>2012-04-01T05:55:46Z</time>
      </trkpt>
      <trkpt lat="44.47074" lon="1.03981">
        <ele>201</ele>
        <time>2012-04-01T05:55:47Z</time>
      </trkpt>
      <trkpt lat="44.47078" lon="1.03971">
        <ele>201</ele>
        <time>2012-04-01T05:55:48Z</time>
      </trkpt>
      <trkpt lat="44.47081" lon="1.03962">
        <ele>201</ele>
        <time>2012-04-01T05:55:49Z</time>
      </trkpt>
      <trkpt lat="44.47085" lon="1.03952">
        <ele>201</ele>
        <time>2012-04-01T05:55:50Z</time>
      </trkpt>
      <trkpt lat="44.47089" lon="1.03943">
        <ele>201</ele>
        <time>2012-04-01T05:55:51Z</time>
      </trkpt>
      <trkpt lat="44.47092" lon="1.03934">
        <ele>201</ele>
        <time>2012-04-01T05:55:52Z</time>
      </trkpt>
      <trkpt lat="44.47096" lon="1.03924">
        <ele>201</ele>
        <time>2012-04-01T05:55:53Z</time>
      </trkpt>
      <trkpt lat="44.47099" lon="1.03913">
        <ele>201</ele>
        <time>2012-04-01T05:55:54Z</time>
      </trkpt>
      <trkpt lat="44.47102" lon="1.03903">
        <ele>201</ele>
        <time>2012-04-01T05:55:55Z</time>
      </trkpt>
      <trkpt lat="44.47105" lon="1.03893">
        <ele>201</ele>
        <time>2012-04-01T05:55:56Z</time>
      </trkpt>
      <trkpt lat="44.47109" lon="1.03883">
        <ele>201</ele>
        <time>2012-04-01T05:55:57Z</time>
      </trkpt>
      <trkpt lat="44.47113" lon="1.03873">
        <ele>201</ele>
        <time>2012-04-01T05:55:58Z</time>
      </trkpt>
      <trkpt lat="44.47118" lon="1.03863">
        <ele>201</ele>
        <time>2012-04-01T05:55:59Z</time>
      </trkpt>
      <trkpt lat="44.47121" lon="1.03854">
        <ele>201</ele>
        <time>2012-04-01T05:56:00Z</time>
      </trkpt>
      <trkpt lat="44.47125" lon="1.03845">
        <ele>201</ele>
        <time>2012-04-01T05:56:01Z</time>
      </trkpt>
      <trkpt lat="44.47129" lon="1.03836">
        <ele>201</ele>
        <time>2012-04-01T05:56:02Z</time>
      </trkpt>
      <trkpt lat="44.47132" lon="1.03827">
        <ele>200</ele>
        <time>2012-04-01T05:56:03Z</time>
      </trkpt>
      <trkpt lat="44.47136" lon="1.03818">
        <ele>200</ele>
        <time>2012-04-01T05:56:04Z</time>
      </trkpt>
      <trkpt lat="44.47139" lon="1.03809">
        <ele>200</ele>
        <time>2012-04-01T05:56:05Z</time>
      </trkpt>
      <trkpt lat="44.47142" lon="1.038">
        <ele>200</ele>
        <time>2012-04-01T05:56:06Z</time>
      </trkpt>
      <trkpt lat="44.47145" lon="1.03791">
        <ele>199</ele>
        <time>2012-04-01T05:56:07Z</time>
      </trkpt>
      <trkpt lat="44.47148" lon="1.03781">
        <ele>199</ele>
        <time>2012-04-01T05:56:08Z</time>
      </trkpt>
      <trkpt lat="44.4715" lon="1.03771">
        <ele>199</ele>
        <time>2012-04-01T05:56:09Z</time>
      </trkpt>
      <trkpt lat="44.47152" lon="1.03761">
        <ele>198</ele>
        <time>2012-04-01T05:56:10Z</time>
      </trkpt>
      <trkpt lat="44.47153" lon="1.03751">
        <ele>198</ele>
        <time>2012-04-01T05:56:11Z</time>
      </trkpt>
      <trkpt lat="44.47155" lon="1.0374">
        <ele>198</ele>
        <time>2012-04-01T05:56:12Z</time>
      </trkpt>
      <trkpt lat="44.47157" lon="1.0373">
        <ele>197</ele>
        <time>2012-04-01T05:56:13Z</time>
      </trkpt>
      <trkpt lat="44.47159" lon="1.0372">
        <ele>197</ele>
        <time>2012-04-01T05:56:14Z</time>
      </trkpt>
      <trkpt lat="44.4716" lon="1.03712">
        <ele>196</ele>
        <time>2012-04-01T05:56:15Z</time>
      </trkpt>
      <trkpt lat="44.47162" lon="1.03704">
        <ele>196</ele>
        <time>2012-04-01T05:56:16Z</time>
      </trkpt>
      <trkpt lat="44.47164" lon="1.03696">
        <ele>195</ele>
        <time>2012-04-01T05:56:17Z</time>
      </trkpt>
      <trkpt lat="44.47166" lon="1.03689">
        <ele>195</ele>
        <time>2012-04-01T05:56:18Z</time>
      </trkpt>
      <trkpt lat="44.47168" lon="1.03682">
        <ele>194</ele>
        <time>2012-04-01T05:56:19Z</time>
      </trkpt>
      <trkpt lat="44.4717" lon="1.03674">
        <ele>194</ele>
        <time>2012-04-01T05:56:20Z</time>
      </trkpt>
      <trkpt lat="44.47172" lon="1.03667">
        <ele>193</ele>
        <time>2012-04-01T05:56:21Z</time>
      </trkpt>
      <trkpt lat="44.47174" lon="1.03661">
        <ele>193</ele>
        <time>2012-04-01T05:56:22Z</time>
      </trkpt>
      <trkpt lat="44.47175" lon="1.03654">
        <ele>192</ele>
        <time>2012-04-01T05:56:23Z</time>
      </trkpt>
      <trkpt lat="44.47178" lon="1.03648">
        <ele>191</ele>
        <time>2012-04-01T05:56:24Z</time>
      </trkpt>
      <trkpt lat="44.47179" lon="1.03641">
        <ele>191</ele>
        <time>2012-04-01T05:56:25Z</time>
      </trkpt>
      <trkpt lat="44.47181" lon="1.03635">
        <ele>190</ele>
        <time>2012-04-01T05:56:26Z</time>
      </trkpt>
      <trkpt lat="44.47183" lon="1.0363">
        <ele>189</ele>
        <time>2012-04-01T05:56:27Z</time>
      </trkpt>
      <trkpt lat="44.47184" lon="1.03624">
        <ele>189</ele>
        <time>2012-04-01T05:56:28Z</time>
      </trkpt>
      <trkpt lat="44.47186" lon="1.03619">
        <ele>188</ele>
        <time>2012-04-01T05:56:29Z</time>
      </trkpt>
      <trkpt lat="44.47188" lon="1.03612">
        <ele>188</ele>
        <time>2012-04-01T05:56:30Z</time>
      </trkpt>
      <trkpt lat="44.4719" lon="1.03606">
        <ele>187</ele>
        <time>2012-04-01T05:56:31Z</time>
      </trkpt>
      <trkpt lat="44.47192" lon="1.036">
        <ele>187</ele>
        <time>2012-04-01T05:56:32Z</time>
      </trkpt>
      <trkpt lat="44.47193" lon="1.03594">
        <ele>186</ele>
        <time>2012-04-01T05:56:33Z</time>
      </trkpt>
      <trkpt lat="44.47194" lon="1.03586">
        <ele>186</ele>
        <time>2012-04-01T05:56:34Z</time>
      </trkpt>
      <trkpt lat="44.47196" lon="1.03578">
        <ele>185</ele>
        <time>2012-04-01T05:56:35Z</time>
      </trkpt>
      <trkpt lat="44.47197" lon="1.0357">
        <ele>184</ele>
        <time>2012-04-01T05:56:36Z</time>
      </trkpt>
      <trkpt lat="44.47199" lon="1.03562">
        <ele>183</ele>
        <time>2012-04-01T05:56:37Z</time>
      </trkpt>
      <trkpt lat="44.47201" lon="1.03554">
        <ele>183</ele>
        <time>2012-04-01T05:56:38Z</time>
      </trkpt>
      <trkpt lat="44.47202" lon="1.03546">
        <ele>182</ele>
        <time>2012-04-01T05:56:39Z</time>
      </trkpt>
      <trkpt lat="44.47203" lon="1.03537">
        <ele>181</ele>
        <time>2012-04-01T05:56:40Z</time>
      </trkpt>
      <trkpt lat="44.47204" lon="1.03528">
        <ele>181</ele>
        <time>2012-04-01T05:56:41Z</time>
      </trkpt>
      <trkpt lat="44.47205" lon="1.03519">
        <ele>180</ele>
        <time>2012-04-01T05:56:42Z</time>
      </trkpt>
      <trkpt lat="44.47205" lon="1.03511">
        <ele>179</ele>
        <time>2012-04-01T05:56:43Z</time>
      </trkpt>
      <trkpt lat="44.47204" lon="1.03505">
        <ele>179</ele>
        <time>2012-04-01T05:56:44Z</time>
      </trkpt>
      <trkpt lat="44.47203" lon="1.035">
        <ele>178</ele>
        <time>2012-04-01T05:56:45Z</time>
      </trkpt>
      <trkpt lat="44.47202" lon="1.03495">
        <ele>178</ele>
        <time>2012-04-01T05:56:46Z</time>
      </trkpt>
      <trkpt lat="44.47202" lon="1.03491">
        <ele>177</ele>
        <time>2012-04-01T05:56:47Z</time>
      </trkpt>
      <trkpt lat="44.47202" lon="1.03486">
        <ele>177</ele>
        <time>2012-04-01T05:56:48Z</time>
      </trkpt>
      <trkpt lat="44.47202" lon="1.03481">
        <ele>176</ele>
        <time>2012-04-01T05:56:49Z</time>
      </trkpt>
      <trkpt lat="44.47201" lon="1.03477">
        <ele>176</ele>
        <time>2012-04-01T05:56:50Z</time>
      </trkpt>
      <trkpt lat="44.472" lon="1.03473">
        <ele>176</ele>
        <time>2012-04-01T05:56:51Z</time>
      </trkpt>
      <trkpt lat="44.472" lon="1.0347">
        <ele>176</ele>
        <time>2012-04-01T05:56:52Z</time>
      </trkpt>
      <trkpt lat="44.472" lon="1.03467">
        <ele>176</ele>
        <time>2012-04-01T05:56:53Z</time>
      </trkpt>
      <trkpt lat="44.47199" lon="1.03463">
        <ele>176</ele>
        <time>2012-04-01T05:56:54Z</time>
      </trkpt>
      <trkpt lat="44.47198" lon="1.0346">
        <ele>175</ele>
        <time>2012-04-01T05:56:55Z</time>
      </trkpt>
      <trkpt lat="44.47198" lon="1.03457">
        <ele>175</ele>
        <time>2012-04-01T05:56:56Z</time>
      </trkpt>
      <trkpt lat="44.47197" lon="1.03455">
        <ele>175</ele>
        <time>2012-04-01T05:56:57Z</time>
      </trkpt>
      <trkpt lat="44.47196" lon="1.03452">
        <ele>175</ele>
        <time>2012-04-01T05:56:58Z</time>
      </trkpt>
      <trkpt lat="44.47195" lon="1.0345">
        <ele>174</ele>
        <time>2012-04-01T05:56:59Z</time>
      </trkpt>
      <trkpt lat="44.47195" lon="1.03448">
        <ele>173</ele>
        <time>2012-04-01T05:57:00Z</time>
      </trkpt>
      <trkpt lat="44.47194" lon="1.03446">
        <ele>173</ele>
        <time>2012-04-01T05:57:01Z</time>
      </trkpt>
      <trkpt lat="44.47194" lon="1.03444">
        <ele>172</ele>
        <time>2012-04-01T05:57:02Z</time>
      </trkpt>
      <trkpt lat="44.47193" lon="1.03442">
        <ele>170</ele>
        <time>2012-04-01T05:57:04Z</time>
      </trkpt>
      <trkpt lat="44.47192" lon="1.0344">
        <ele>168</ele>
        <time>2012-04-01T05:57:06Z</time>
      </trkpt>
      <trkpt lat="44.47192" lon="1.03438">
        <ele>167</ele>
        <time>2012-04-01T05:57:07Z</time>
      </trkpt>
      <trkpt lat="44.47192" lon="1.03436">
        <ele>166</ele>
        <time>2012-04-01T05:57:08Z</time>
      </trkpt>
      <trkpt lat="44.47191" lon="1.03435">
        <ele>165</ele>
        <time>2012-04-01T05:57:09Z</time>
      </trkpt>
      <trkpt lat="44.47191" lon="1.03433">
        <ele>164</ele>
        <time>2012-04-01T05:57:10Z</time>
      </trkpt>
      <trkpt lat="44.4719" lon="1.03431">
        <ele>163</ele>
        <time>2012-04-01T05:57:11Z</time>
      </trkpt>
      <trkpt lat="44.4719" lon="1.03429">
        <ele>162</ele>
        <time>2012-04-01T05:57:12Z</time>
      </trkpt>
      <trkpt lat="44.47189" lon="1.03427">
        <ele>161</ele>
        <time>2012-04-01T05:57:13Z</time>
      </trkpt>
      <trkpt lat="44.47189" lon="1.03424">
        <ele>160</ele>
        <time>2012-04-01T05:57:14Z</time>
      </trkpt>
      <trkpt lat="44.47188" lon="1.03421">
        <ele>159</ele>
        <time>2012-04-01T05:57:15Z</time>
      </trkpt>
      <trkpt lat="44.47187" lon="1.03419">
        <ele>158</ele>
        <time>2012-04-01T05:57:16Z</time>
      </trkpt>
      <trkpt lat="44.47187" lon="1.03417">
        <ele>157</ele>
        <time>2012-04-01T05:57:17Z</time>
      </trkpt>
      <trkpt lat="44.47187" lon="1.03415">
        <ele>156</ele>
        <time>2012-04-01T05:57:18Z</time>
      </trkpt>
      <trkpt lat="44.47186" lon="1.03413">
        <ele>155</ele>
        <time>2012-04-01T05:57:19Z</time>
      </trkpt>
      <trkpt lat="44.47185" lon="1.03411">
        <ele>155</ele>
        <time>2012-04-01T05:57:20Z</time>
      </trkpt>
      <trkpt lat="44.47185" lon="1.03409">
        <ele>155</ele>
        <time>2012-04-01T05:57:21Z</time>
      </trkpt>
      <trkpt lat="44.47185" lon="1.03406">
        <ele>154</ele>
        <time>2012-04-01T05:57:22Z</time>
      </trkpt>
      <trkpt lat="44.47184" lon="1.03403">
        <ele>154</ele>
        <time>2012-04-01T05:57:23Z</time>
      </trkpt>
      <trkpt lat="44.47184" lon="1.03401">
        <ele>154</ele>
        <time>2012-04-01T05:57:24Z</time>
      </trkpt>
      <trkpt lat="44.47184" lon="1.03398">
        <ele>154</ele>
        <time>2012-04-01T05:57:25Z</time>
      </trkpt>
      <trkpt lat="44.47184" lon="1.03396">
        <ele>153</ele>
        <time>2012-04-01T05:57:26Z</time>
      </trkpt>
      <trkpt lat="44.47184" lon="1.03394">
        <ele>153</ele>
        <time>2012-04-01T05:57:27Z</time>
      </trkpt>
      <trkpt lat="44.47184" lon="1.03392">
        <ele>153</ele>
        <time>2012-04-01T05:57:28Z</time>
      </trkpt>
      <trkpt lat="44.47184" lon="1.0339">
        <ele>153</ele>
        <time>2012-04-01T05:57:29Z</time>
      </trkpt>
      <trkpt lat="44.47184" lon="1.03388">
        <ele>153</ele>
        <time>2012-04-01T05:57:30Z</time>
      </trkpt>
      <trkpt lat="44.47184" lon="1.03385">
        <ele>153</ele>
        <time>2012-04-01T05:57:32Z</time>
      </trkpt>
      <trkpt lat="44.47183" lon="1.03384">
        <ele>152</ele>
        <time>2012-04-01T05:57:33Z</time>
      </trkpt>
      <trkpt lat="44.47183" lon="1.03382">
        <ele>152</ele>
        <time>2012-04-01T05:57:34Z</time>
      </trkpt>
      <trkpt lat="44.47183" lon="1.03381">
        <ele>152</ele>
        <time>2012-04-01T05:57:35Z</time>
      </trkpt>
      <trkpt lat="44.47183" lon="1.03378">
        <ele>151</ele>
        <time>2012-04-01T05:57:37Z</time>
      </trkpt>
      <trkpt lat="44.47183" lon="1.03376">
        <ele>151</ele>
        <time>2012-04-01T05:57:38Z</time>
      </trkpt>
      <trkpt lat="44.47183" lon="1.03374">
        <ele>150</ele>
        <time>2012-04-01T05:57:39Z</time>
      </trkpt>
      <trkpt lat="44.47183" lon="1.03372">
        <ele>150</ele>
        <time>2012-04-01T05:57:40Z</time>
      </trkpt>
      <trkpt lat="44.47182" lon="1.0337">
        <ele>150</ele>
        <time>2012-04-01T05:57:41Z</time>
      </trkpt>
      <trkpt lat="44.47183" lon="1.03369">
        <ele>149</ele>
        <time>2012-04-01T05:57:42Z</time>
      </trkpt>
      <trkpt lat="44.47183" lon="1.03367">
        <ele>149</ele>
        <time>2012-04-01T05:57:43Z</time>
      </trkpt>
      <trkpt lat="44.47183" lon="1.03365">
        <ele>148</ele>
        <time>2012-04-01T05:57:45Z</time>
      </trkpt>
      <trkpt lat="44.47183" lon="1.03363">
        <ele>148</ele>
        <time>2012-04-01T05:57:46Z</time>
      </trkpt>
      <trkpt lat="44.47183" lon="1.03361">
        <ele>147</ele>
        <time>2012-04-01T05:57:47Z</time>
      </trkpt>
      <trkpt lat="44.47182" lon="1.03359">
        <ele>147</ele>
        <time>2012-04-01T05:57:48Z</time>
      </trkpt>
      <trkpt lat="44.47182" lon="1.03357">
        <ele>147</ele>
        <time>2012-04-01T05:57:49Z</time>
      </trkpt>
      <trkpt lat="44.47181" lon="1.03355">
        <ele>146</ele>
        <time>2012-04-01T05:57:50Z</time>
      </trkpt>
      <trkpt lat="44.47181" lon="1.03353">
        <ele>146</ele>
        <time>2012-04-01T05:57:51Z</time>
      </trkpt>
      <trkpt lat="44.47181" lon="1.03351">
        <ele>145</ele>
        <time>2012-04-01T05:57:52Z</time>
      </trkpt>
      <trkpt lat="44.47181" lon="1.03349">
        <ele>144</ele>
        <time>2012-04-01T05:57:53Z</time>
      </trkpt>
      <trkpt lat="44.4718" lon="1.03347">
        <ele>143</ele>
        <time>2012-04-01T05:57:54Z</time>
      </trkpt>
      <trkpt lat="44.47181" lon="1.03345">
        <ele>143</ele>
        <time>2012-04-01T05:57:55Z</time>
      </trkpt>
      <trkpt lat="44.47181" lon="1.03343">
        <ele>142</ele>
        <time>2012-04-01T05:57:56Z</time>
      </trkpt>
      <trkpt lat="44.4718" lon="1.03341">
        <ele>142</ele>
        <time>2012-04-01T05:57:57Z</time>
      </trkpt>
      <trkpt lat="44.4718" lon="1.03339">
        <ele>141</ele>
        <time>2012-04-01T05:57:59Z</time>
      </trkpt>
      <trkpt lat="44.47179" lon="1.03337">
        <ele>141</ele>
        <time>2012-04-01T05:58:00Z</time>
      </trkpt>
      <trkpt lat="44.47179" lon="1.03335">
        <ele>139</ele>
        <time>2012-04-01T05:58:02Z</time>
      </trkpt>
      <trkpt lat="44.47179" lon="1.03333">
        <ele>139</ele>
        <time>2012-04-01T05:58:03Z</time>
      </trkpt>
      <trkpt lat="44.47179" lon="1.03331">
        <ele>138</ele>
        <time>2012-04-01T05:58:04Z</time>
      </trkpt>
      <trkpt lat="44.47179" lon="1.03328">
        <ele>136</ele>
        <time>2012-04-01T05:58:06Z</time>
      </trkpt>
      <trkpt lat="44.47179" lon="1.03326">
        <ele>136</ele>
        <time>2012-04-01T05:58:07Z</time>
      </trkpt>
      <trkpt lat="44.47179" lon="1.03324">
        <ele>136</ele>
        <time>2012-04-01T05:58:08Z</time>
      </trkpt>
      <trkpt lat="44.47179" lon="1.03322">
        <ele>136</ele>
        <time>2012-04-01T05:58:09Z</time>
      </trkpt>
      <trkpt lat="44.47179" lon="1.0332">
        <ele>136</ele>
        <time>2012-04-01T05:58:10Z</time>
      </trkpt>
      <trkpt lat="44.47179" lon="1.03317">
        <ele>135</ele>
        <time>2012-04-01T05:58:11Z</time>
      </trkpt>
      <trkpt lat="44.47179" lon="1.03315">
        <ele>135</ele>
        <time>2012-04-01T05:58:12Z</time>
      </trkpt>
      <trkpt lat="44.47179" lon="1.03312">
        <ele>135</ele>
        <time>2012-04-01T05:58:14Z</time>
      </trkpt>
      <trkpt lat="44.47179" lon="1.0331">
        <ele>135</ele>
        <time>2012-04-01T05:58:15Z</time>
      </trkpt>
      <trkpt lat="44.47179" lon="1.03308">
        <ele>135</ele>
        <time>2012-04-01T05:58:16Z</time>
      </trkpt>
      <trkpt lat="44.47179" lon="1.03306">
        <ele>134</ele>
        <time>2012-04-01T05:58:17Z</time>
      </trkpt>
      <trkpt lat="44.47178" lon="1.03304">
        <ele>134</ele>
        <time>2012-04-01T05:58:18Z</time>
      </trkpt>
      <trkpt lat="44.47178" lon="1.03301">
        <ele>134</ele>
        <time>2012-04-01T05:58:19Z</time>
      </trkpt>
      <trkpt lat="44.47178" lon="1.03298">
        <ele>133</ele>
        <time>2012-04-01T05:58:20Z</time>
      </trkpt>
      <trkpt lat="44.47178" lon="1.03296">
        <ele>132</ele>
        <time>2012-04-01T05:58:21Z</time>
      </trkpt>
      <trkpt lat="44.47179" lon="1.03294">
        <ele>132</ele>
        <time>2012-04-01T05:58:22Z</time>
      </trkpt>
      <trkpt lat="44.47179" lon="1.03292">
        <ele>131</ele>
        <time>2012-04-01T05:58:23Z</time>
      </trkpt>
      <trkpt lat="44.47179" lon="1.03289">
        <ele>131</ele>
        <time>2012-04-01T05:58:24Z</time>
      </trkpt>
      <trkpt lat="44.4718" lon="1.03287">
        <ele>131</ele>
        <time>2012-04-01T05:58:25Z</time>
      </trkpt>
      <trkpt lat="44.4718" lon="1.03285">
        <ele>131</ele>
        <time>2012-04-01T05:58:26Z</time>
      </trkpt>
      <trkpt lat="44.47181" lon="1.03282">
        <ele>131</ele>
        <time>2012-04-01T05:58:27Z</time>
      </trkpt>
      <trkpt lat="44.47181" lon="1.03279">
        <ele>131</ele>
        <time>2012-04-01T05:58:28Z</time>
      </trkpt>
      <trkpt lat="44.47181" lon="1.03275">
        <ele>131</ele>
        <time>2012-04-01T05:58:29Z</time>
      </trkpt>
      <trkpt lat="44.47182" lon="1.03271">
        <ele>131</ele>
        <time>2012-04-01T05:58:30Z</time>
      </trkpt>
      <trkpt lat="44.47183" lon="1.03266">
        <ele>131</ele>
        <time>2012-04-01T05:58:31Z</time>
      </trkpt>
      <trkpt lat="44.47183" lon="1.0326">
        <ele>131</ele>
        <time>2012-04-01T05:58:32Z</time>
      </trkpt>
      <trkpt lat="44.47184" lon="1.03252">
        <ele>131</ele>
        <time>2012-04-01T05:58:33Z</time>
      </trkpt>
      <trkpt lat="44.47184" lon="1.03244">
        <ele>131</ele>
        <time>2012-04-01T05:58:34Z</time>
      </trkpt>
      <trkpt lat="44.47185" lon="1.03236">
        <ele>131</ele>
        <time>2012-04-01T05:58:35Z</time>
      </trkpt>
      <trkpt lat="44.47184" lon="1.03226">
        <ele>131</ele>
        <time>2012-04-01T05:58:36Z</time>
      </trkpt>
      <trkpt lat="44.47181" lon="1.03215">
        <ele>131</ele>
        <time>2012-04-01T05:58:37Z</time>
      </trkpt>
      <trkpt lat="44.47179" lon="1.03203">
        <ele>131</ele>
        <time>2012-04-01T05:58:38Z</time>
      </trkpt>
      <trkpt lat="44.47177" lon="1.03194">
        <ele>131</ele>
        <time>2012-04-01T05:58:39Z</time>
      </trkpt>
      <trkpt lat="44.47176" lon="1.03185">
        <ele>131</ele>
        <time>2012-04-01T05:58:40Z</time>
      </trkpt>
      <trkpt lat="44.47174" lon="1.03174">
        <ele>131</ele>
        <time>2012-04-01T05:58:41Z</time>
      </trkpt>
      <trkpt lat="44.47172" lon="1.03164">
        <ele>132</ele>
        <time>2012-04-01T05:58:42Z</time>
      </trkpt>
      <trkpt lat="44.47171" lon="1.03155">
        <ele>132</ele>
        <time>2012-04-01T05:58:43Z</time>
      </trkpt>
      <trkpt lat="44.47169" lon="1.03146">
        <ele>133</ele>
        <time>2012-04-01T05:58:44Z</time>
      </trkpt>
      <trkpt lat="44.47168" lon="1.03138">
        <ele>134</ele>
        <time>2012-04-01T05:58:45Z</time>
      </trkpt>
      <trkpt lat="44.47167" lon="1.0313">
        <ele>135</ele>
        <time>2012-04-01T05:58:46Z</time>
      </trkpt>
      <trkpt lat="44.47166" lon="1.03122">
        <ele>135</ele>
        <time>2012-04-01T05:58:47Z</time>
      </trkpt>
      <trkpt lat="44.47166" lon="1.03115">
        <ele>135</ele>
        <time>2012-04-01T05:58:48Z</time>
      </trkpt>
      <trkpt lat="44.47166" lon="1.03108">
        <ele>135</ele>
        <time>2012-04-01T05:58:49Z</time>
      </trkpt>
      <trkpt lat="44.47167" lon="1.03101">
        <ele>135</ele>
        <time>2012-04-01T05:58:50Z</time>
      </trkpt>
      <trkpt lat="44.47168" lon="1.03093">
        <ele>135</ele>
        <time>2012-04-01T05:58:51Z</time>
      </trkpt>
      <trkpt lat="44.47169" lon="1.03086">
        <ele>135</ele>
        <time>2012-04-01T05:58:52Z</time>
      </trkpt>
      <trkpt lat="44.47171" lon="1.03077">
        <ele>135</ele>
        <time>2012-04-01T05:58:53Z</time>
      </trkpt>
      <trkpt lat="44.47173" lon="1.03068">
        <ele>135</ele>
        <time>2012-04-01T05:58:54Z</time>
      </trkpt>
      <trkpt lat="44.47174" lon="1.03059">
        <ele>135</ele>
        <time>2012-04-01T05:58:55Z</time>
      </trkpt>
      <trkpt lat="44.47176" lon="1.0305">
        <ele>135</ele>
        <time>2012-04-01T05:58:56Z</time>
      </trkpt>
      <trkpt lat="44.47178" lon="1.0304">
        <ele>135</ele>
        <time>2012-04-01T05:58:57Z</time>
      </trkpt>
      <trkpt lat="44.4718" lon="1.0303">
        <ele>135</ele>
        <time>2012-04-01T05:58:58Z</time>
      </trkpt>
      <trkpt lat="44.47181" lon="1.03019">
        <ele>135</ele>
        <time>2012-04-01T05:58:59Z</time>
      </trkpt>
      <trkpt lat="44.47181" lon="1.03008">
        <ele>135</ele>
        <time>2012-04-01T05:59:00Z</time>
      </trkpt>
      <trkpt lat="44.47181" lon="1.02998">
        <ele>135</ele>
        <time>2012-04-01T05:59:01Z</time>
      </trkpt>
      <trkpt lat="44.4718" lon="1.02988">
        <ele>135</ele>
        <time>2012-04-01T05:59:02Z</time>
      </trkpt>
      <trkpt lat="44.47179" lon="1.02977">
        <ele>135</ele>
        <time>2012-04-01T05:59:03Z</time>
      </trkpt>
      <trkpt lat="44.47176" lon="1.02967">
        <ele>135</ele>
        <time>2012-04-01T05:59:04Z</time>
      </trkpt>
      <trkpt lat="44.47174" lon="1.02956">
        <ele>135</ele>
        <time>2012-04-01T05:59:05Z</time>
      </trkpt>
      <trkpt lat="44.47172" lon="1.02945">
        <ele>135</ele>
        <time>2012-04-01T05:59:06Z</time>
      </trkpt>
      <trkpt lat="44.47171" lon="1.02934">
        <ele>135</ele>
        <time>2012-04-01T05:59:07Z</time>
      </trkpt>
      <trkpt lat="44.47169" lon="1.02923">
        <ele>135</ele>
        <time>2012-04-01T05:59:08Z</time>
      </trkpt>
      <trkpt lat="44.47168" lon="1.02912">
        <ele>135</ele>
        <time>2012-04-01T05:59:09Z</time>
      </trkpt>
      <trkpt lat="44.47168" lon="1.02902">
        <ele>135</ele>
        <time>2012-04-01T05:59:10Z</time>
      </trkpt>
      <trkpt lat="44.47167" lon="1.02891">
        <ele>135</ele>
        <time>2012-04-01T05:59:11Z</time>
      </trkpt>
      <trkpt lat="44.47167" lon="1.02881">
        <ele>135</ele>
        <time>2012-04-01T05:59:12Z</time>
      </trkpt>
      <trkpt lat="44.47166" lon="1.0287">
        <ele>135</ele>
        <time>2012-04-01T05:59:13Z</time>
      </trkpt>
      <trkpt lat="44.47166" lon="1.02859">
        <ele>135</ele>
        <time>2012-04-01T05:59:14Z</time>
      </trkpt>
      <trkpt lat="44.47165" lon="1.02849">
        <ele>135</ele>
        <time>2012-04-01T05:59:15Z</time>
      </trkpt>
      <trkpt lat="44.47164" lon="1.02838">
        <ele>135</ele>
        <time>2012-04-01T05:59:16Z</time>
      </trkpt>
      <trkpt lat="44.47162" lon="1.02828">
        <ele>134</ele>
        <time>2012-04-01T05:59:17Z</time>
      </trkpt>
      <trkpt lat="44.47159" lon="1.02817">
        <ele>134</ele>
        <time>2012-04-01T05:59:18Z</time>
      </trkpt>
      <trkpt lat="44.47156" lon="1.02807">
        <ele>134</ele>
        <time>2012-04-01T05:59:19Z</time>
      </trkpt>
      <trkpt lat="44.47153" lon="1.02797">
        <ele>134</ele>
        <time>2012-04-01T05:59:20Z</time>
      </trkpt>
      <trkpt lat="44.47149" lon="1.02787">
        <ele>134</ele>
        <time>2012-04-01T05:59:21Z</time>
      </trkpt>
      <trkpt lat="44.47145" lon="1.02777">
        <ele>133</ele>
        <time>2012-04-01T05:59:22Z</time>
      </trkpt>
      <trkpt lat="44.47141" lon="1.02768">
        <ele>133</ele>
        <time>2012-04-01T05:59:23Z</time>
      </trkpt>
      <trkpt lat="44.47138" lon="1.02758">
        <ele>133</ele>
        <time>2012-04-01T05:59:24Z</time>
      </trkpt>
      <trkpt lat="44.47134" lon="1.02749">
        <ele>133</ele>
        <time>2012-04-01T05:59:25Z</time>
      </trkpt>
      <trkpt lat="44.47132" lon="1.0274">
        <ele>133</ele>
        <time>2012-04-01T05:59:26Z</time>
      </trkpt>
      <trkpt lat="44.4713" lon="1.02732">
        <ele>132</ele>
        <time>2012-04-01T05:59:27Z</time>
      </trkpt>
      <trkpt lat="44.47129" lon="1.02723">
        <ele>132</ele>
        <time>2012-04-01T05:59:28Z</time>
      </trkpt>
      <trkpt lat="44.47129" lon="1.02714">
        <ele>132</ele>
        <time>2012-04-01T05:59:29Z</time>
      </trkpt>
      <trkpt lat="44.47129" lon="1.02705">
        <ele>132</ele>
        <time>2012-04-01T05:59:30Z</time>
      </trkpt>
      <trkpt lat="44.47129" lon="1.02697">
        <ele>132</ele>
        <time>2012-04-01T05:59:31Z</time>
      </trkpt>
      <trkpt lat="44.47129" lon="1.02689">
        <ele>132</ele>
        <time>2012-04-01T05:59:32Z</time>
      </trkpt>
      <trkpt lat="44.47129" lon="1.02681">
        <ele>132</ele>
        <time>2012-04-01T05:59:33Z</time>
      </trkpt>
      <trkpt lat="44.4713" lon="1.02672">
        <ele>132</ele>
        <time>2012-04-01T05:59:34Z</time>
      </trkpt>
      <trkpt lat="44.4713" lon="1.02664">
        <ele>132</ele>
        <time>2012-04-01T05:59:35Z</time>
      </trkpt>
      <trkpt lat="44.47131" lon="1.02655">
        <ele>132</ele>
        <time>2012-04-01T05:59:36Z</time>
      </trkpt>
      <trkpt lat="44.47132" lon="1.02647">
        <ele>132</ele>
        <time>2012-04-01T05:59:37Z</time>
      </trkpt>
      <trkpt lat="44.47133" lon="1.02639">
        <ele>132</ele>
        <time>2012-04-01T05:59:38Z</time>
      </trkpt>
      <trkpt lat="44.47134" lon="1.02631">
        <ele>132</ele>
        <time>2012-04-01T05:59:39Z</time>
      </trkpt>
      <trkpt lat="44.47136" lon="1.02622">
        <ele>132</ele>
        <time>2012-04-01T05:59:40Z</time>
      </trkpt>
      <trkpt lat="44.47137" lon="1.02614">
        <ele>132</ele>
        <time>2012-04-01T05:59:41Z</time>
      </trkpt>
      <trkpt lat="44.47138" lon="1.02606">
        <ele>132</ele>
        <time>2012-04-01T05:59:42Z</time>
      </trkpt>
      <trkpt lat="44.4714" lon="1.02597">
        <ele>131</ele>
        <time>2012-04-01T05:59:43Z</time>
      </trkpt>
      <trkpt lat="44.47142" lon="1.02589">
        <ele>131</ele>
        <time>2012-04-01T05:59:44Z</time>
      </trkpt>
      <trkpt lat="44.47144" lon="1.0258">
        <ele>131</ele>
        <time>2012-04-01T05:59:45Z</time>
      </trkpt>
      <trkpt lat="44.47147" lon="1.02572">
        <ele>131</ele>
        <time>2012-04-01T05:59:46Z</time>
      </trkpt>
      <trkpt lat="44.47149" lon="1.02565">
        <ele>131</ele>
        <time>2012-04-01T05:59:47Z</time>
      </trkpt>
      <trkpt lat="44.47152" lon="1.02558">
        <ele>131</ele>
        <time>2012-04-01T05:59:48Z</time>
      </trkpt>
      <trkpt lat="44.47155" lon="1.0255">
        <ele>131</ele>
        <time>2012-04-01T05:59:49Z</time>
      </trkpt>
      <trkpt lat="44.47159" lon="1.02542">
        <ele>131</ele>
        <time>2012-04-01T05:59:50Z</time>
      </trkpt>
      <trkpt lat="44.47162" lon="1.02534">
        <ele>131</ele>
        <time>2012-04-01T05:59:51Z</time>
      </trkpt>
      <trkpt lat="44.47166" lon="1.02526">
        <ele>131</ele>
        <time>2012-04-01T05:59:52Z</time>
      </trkpt>
      <trkpt lat="44.47169" lon="1.02517">
        <ele>131</ele>
        <time>2012-04-01T05:59:53Z</time>
      </trkpt>
      <trkpt lat="44.47171" lon="1.02507">
        <ele>131</ele>
        <time>2012-04-01T05:59:54Z</time>
      </trkpt>
      <trkpt lat="44.47172" lon="1.02496">
        <ele>130</ele>
        <time>2012-04-01T05:59:55Z</time>
      </trkpt>
      <trkpt lat="44.47172" lon="1.02485">
        <ele>130</ele>
        <time>2012-04-01T05:59:56Z</time>
      </trkpt>
      <trkpt lat="44.47171" lon="1.02474">
        <ele>129</ele>
        <time>2012-04-01T05:59:57Z</time>
      </trkpt>
      <trkpt lat="44.4717" lon="1.02462">
        <ele>128</ele>
        <time>2012-04-01T05:59:58Z</time>
      </trkpt>
      <trkpt lat="44.47169" lon="1.02451">
        <ele>127</ele>
        <time>2012-04-01T05:59:59Z</time>
      </trkpt>
      <trkpt lat="44.47167" lon="1.02439">
        <ele>127</ele>
        <time>2012-04-01T06:00:00Z</time>
      </trkpt>
      <trkpt lat="44.47165" lon="1.02427">
        <ele>126</ele>
        <time>2012-04-01T06:00:01Z</time>
      </trkpt>
      <trkpt lat="44.47163" lon="1.02416">
        <ele>125</ele>
        <time>2012-04-01T06:00:02Z</time>
      </trkpt>
      <trkpt lat="44.4716" lon="1.02403">
        <ele>124</ele>
        <time>2012-04-01T06:00:03Z</time>
      </trkpt>
      <trkpt lat="44.47158" lon="1.02391">
        <ele>123</ele>
        <time>2012-04-01T06:00:04Z</time>
      </trkpt>
      <trkpt lat="44.47155" lon="1.02379">
        <ele>122</ele>
        <time>2012-04-01T06:00:05Z</time>
      </trkpt>
      <trkpt lat="44.47153" lon="1.02368">
        <ele>121</ele>
        <time>2012-04-01T06:00:06Z</time>
      </trkpt>
      <trkpt lat="44.47151" lon="1.02356">
        <ele>120</ele>
        <time>2012-04-01T06:00:07Z</time>
      </trkpt>
      <trkpt lat="44.47148" lon="1.02345">
        <ele>119</ele>
        <time>2012-04-01T06:00:08Z</time>
      </trkpt>
      <trkpt lat="44.47145" lon="1.02333">
        <ele>118</ele>
        <time>2012-04-01T06:00:09Z</time>
      </trkpt>
      <trkpt lat="44.47142" lon="1.02321">
        <ele>117</ele>
        <time>2012-04-01T06:00:10Z</time>
      </trkpt>
      <trkpt lat="44.47139" lon="1.0231">
        <ele>116</ele>
        <time>2012-04-01T06:00:11Z</time>
      </trkpt>
      <trkpt lat="44.47136" lon="1.02297">
        <ele>115</ele>
        <time>2012-04-01T06:00:12Z</time>
      </trkpt>
      <trkpt lat="44.47133" lon="1.02285">
        <ele>114</ele>
        <time>2012-04-01T06:00:13Z</time>
      </trkpt>
      <trkpt lat="44.4713" lon="1.02273">
        <ele>113</ele>
        <time>2012-04-01T06:00:14Z</time>
      </trkpt>
      <trkpt lat="44.47127" lon="1.02261">
        <ele>112</ele>
        <time>2012-04-01T06:00:15Z</time>
      </trkpt>
      <trkpt lat="44.47124" lon="1.0225">
        <ele>111</ele>
        <time>2012-04-01T06:00:16Z</time>
      </trkpt>
      <trkpt lat="44.47121" lon="1.02238">
        <ele>110</ele>
        <time>2012-04-01T06:00:17Z</time>
      </trkpt>
      <trkpt lat="44.47118" lon="1.02226">
        <ele>109</ele>
        <time>2012-04-01T06:00:18Z</time>
      </trkpt>
      <trkpt lat="44.47115" lon="1.02215">
        <ele>108</ele>
        <time>2012-04-01T06:00:19Z</time>
      </trkpt>
      <trkpt lat="44.47112" lon="1.02203">
        <ele>107</ele>
        <time>2012-04-01T06:00:20Z</time>
      </trkpt>
      <trkpt lat="44.47109" lon="1.0219">
        <ele>106</ele>
        <time>2012-04-01T06:00:21Z</time>
      </trkpt>
      <trkpt lat="44.47105" lon="1.02177">
        <ele>105</ele>
        <time>2012-04-01T06:00:22Z</time>
      </trkpt>
      <trkpt lat="44.47101" lon="1.02163">
        <ele>104</ele>
        <time>2012-04-01T06:00:23Z</time>
      </trkpt>
      <trkpt lat="44.47099" lon="1.0215">
        <ele>103</ele>
        <time>2012-04-01T06:00:24Z</time>
      </trkpt>
      <trkpt lat="44.47096" lon="1.02137">
        <ele>102</ele>
        <time>2012-04-01T06:00:25Z</time>
      </trkpt>
      <trkpt lat="44.47094" lon="1.02124">
        <ele>101</ele>
        <time>2012-04-01T06:00:26Z</time>
      </trkpt>
      <trkpt lat="44.47092" lon="1.0211">
        <ele>100</ele>
        <time>2012-04-01T06:00:27Z</time>
      </trkpt>
      <trkpt lat="44.47089" lon="1.02095">
        <ele>100</ele>
        <time>2012-04-01T06:00:27Z</time>
      </trkpt>
      <trkpt lat="44.47087" lon="1.02081">
        <ele>99</ele>
        <time>2012-04-01T06:00:29Z</time>
      </trkpt>
      <trkpt lat="44.47084" lon="1.02067">
        <ele>99</ele>
        <time>2012-04-01T06:00:30Z</time>
      </trkpt>
      <trkpt lat="44.47082" lon="1.02053">
        <ele>99</ele>
        <time>2012-04-01T06:00:31Z</time>
      </trkpt>
      <trkpt lat="44.4708" lon="1.0204">
        <ele>99</ele>
        <time>2012-04-01T06:00:32Z</time>
      </trkpt>
      <trkpt lat="44.47079" lon="1.02027">
        <ele>99</ele>
        <time>2012-04-01T06:00:33Z</time>
      </trkpt>
      <trkpt lat="44.47078" lon="1.02015">
        <ele>99</ele>
        <time>2012-04-01T06:00:34Z</time>
      </trkpt>
      <trkpt lat="44.47077" lon="1.02003">
        <ele>99</ele>
        <time>2012-04-01T06:00:35Z</time>
      </trkpt>
      <trkpt lat="44.47076" lon="1.01991">
        <ele>99</ele>
        <time>2012-04-01T06:00:36Z</time>
      </trkpt>
      <trkpt lat="44.47076" lon="1.01978">
        <ele>99</ele>
        <time>2012-04-01T06:00:37Z</time>
      </trkpt>
      <trkpt lat="44.47075" lon="1.01966">
        <ele>99</ele>
        <time>2012-04-01T06:00:38Z</time>
      </trkpt>
      <trkpt lat="44.47074" lon="1.01955">
        <ele>99</ele>
        <time>2012-04-01T06:00:39Z</time>
      </trkpt>
      <trkpt lat="44.47073" lon="1.01944">
        <ele>99</ele>
        <time>2012-04-01T06:00:40Z</time>
      </trkpt>
      <trkpt lat="44.47073" lon="1.01934">
        <ele>99</ele>
        <time>2012-04-01T06:00:41Z</time>
      </trkpt>
      <trkpt lat="44.47073" lon="1.01924">
        <ele>99</ele>
        <time>2012-04-01T06:00:42Z</time>
      </trkpt>
      <trkpt lat="44.47073" lon="1.01914">
        <ele>99</ele>
        <time>2012-04-01T06:00:43Z</time>
      </trkpt>
      <trkpt lat="44.47073" lon="1.01904">
        <ele>99</ele>
        <time>2012-04-01T06:00:44Z</time>
      </trkpt>
      <trkpt lat="44.47074" lon="1.01895">
        <ele>99</ele>
        <time>2012-04-01T06:00:45Z</time>
      </trkpt>
      <trkpt lat="44.47075" lon="1.01885">
        <ele>99</ele>
        <time>2012-04-01T06:00:46Z</time>
      </trkpt>
      <trkpt lat="44.47076" lon="1.01876">
        <ele>99</ele>
        <time>2012-04-01T06:00:47Z</time>
      </trkpt>
      <trkpt lat="44.47077" lon="1.01867">
        <ele>98</ele>
        <time>2012-04-01T06:00:48Z</time>
      </trkpt>
      <trkpt lat="44.47079" lon="1.01858">
        <ele>97</ele>
        <time>2012-04-01T06:00:49Z</time>
      </trkpt>
      <trkpt lat="44.47081" lon="1.01849">
        <ele>97</ele>
        <time>2012-04-01T06:00:50Z</time>
      </trkpt>
      <trkpt lat="44.47083" lon="1.01839">
        <ele>96</ele>
        <time>2012-04-01T06:00:51Z</time>
      </trkpt>
      <trkpt lat="44.47084" lon="1.0183">
        <ele>96</ele>
        <time>2012-04-01T06:00:52Z</time>
      </trkpt>
      <trkpt lat="44.47086" lon="1.0182">
        <ele>96</ele>
        <time>2012-04-01T06:00:53Z</time>
      </trkpt>
      <trkpt lat="44.47087" lon="1.0181">
        <ele>96</ele>
        <time>2012-04-01T06:00:54Z</time>
      </trkpt>
      <trkpt lat="44.47089" lon="1.01799">
        <ele>95</ele>
        <time>2012-04-01T06:00:55Z</time>
      </trkpt>
      <trkpt lat="44.4709" lon="1.01788">
        <ele>95</ele>
        <time>2012-04-01T06:00:56Z</time>
      </trkpt>
      <trkpt lat="44.47091" lon="1.01776">
        <ele>95</ele>
        <time>2012-04-01T06:00:57Z</time>
      </trkpt>
      <trkpt lat="44.47093" lon="1.01765">
        <ele>95</ele>
        <time>2012-04-01T06:00:58Z</time>
      </trkpt>
      <trkpt lat="44.47094" lon="1.01754">
        <ele>95</ele>
        <time>2012-04-01T06:00:59Z</time>
      </trkpt>
      <trkpt lat="44.47094" lon="1.01743">
        <ele>95</ele>
        <time>2012-04-01T06:01:00Z</time>
      </trkpt>
      <trkpt lat="44.47095" lon="1.01732">
        <ele>95</ele>
        <time>2012-04-01T06:01:01Z</time>
      </trkpt>
      <trkpt lat="44.47097" lon="1.01722">
        <ele>95</ele>
        <time>2012-04-01T06:01:02Z</time>
      </trkpt>
      <trkpt lat="44.47097" lon="1.01711">
        <ele>95</ele>
        <time>2012-04-01T06:01:03Z</time>
      </trkpt>
      <trkpt lat="44.47097" lon="1.017">
        <ele>94</ele>
        <time>2012-04-01T06:01:04Z</time>
      </trkpt>
      <trkpt lat="44.47097" lon="1.01688">
        <ele>94</ele>
        <time>2012-04-01T06:01:05Z</time>
      </trkpt>
      <trkpt lat="44.47098" lon="1.01676">
        <ele>93</ele>
        <time>2012-04-01T06:01:06Z</time>
      </trkpt>
      <trkpt lat="44.47099" lon="1.01664">
        <ele>92</ele>
        <time>2012-04-01T06:01:07Z</time>
      </trkpt>
      <trkpt lat="44.47099" lon="1.01651">
        <ele>91</ele>
        <time>2012-04-01T06:01:08Z</time>
      </trkpt>
      <trkpt lat="44.471" lon="1.01638">
        <ele>91</ele>
        <time>2012-04-01T06:01:09Z</time>
      </trkpt>
      <trkpt lat="44.47099" lon="1.01623">
        <ele>90</ele>
        <time>2012-04-01T06:01:10Z</time>
      </trkpt>
      <trkpt lat="44.471" lon="1.01609">
        <ele>89</ele>
        <time>2012-04-01T06:01:10Z</time>
      </trkpt>
      <trkpt lat="44.471" lon="1.01595">
        <ele>88</ele>
        <time>2012-04-01T06:01:11Z</time>
      </trkpt>
      <trkpt lat="44.471" lon="1.01581">
        <ele>87</ele>
        <time>2012-04-01T06:01:13Z</time>
      </trkpt>
      <trkpt lat="44.471" lon="1.01569">
        <ele>87</ele>
        <time>2012-04-01T06:01:14Z</time>
      </trkpt>
      <trkpt lat="44.47101" lon="1.01557">
        <ele>86</ele>
        <time>2012-04-01T06:01:15Z</time>
      </trkpt>
      <trkpt lat="44.47101" lon="1.01545">
        <ele>85</ele>
        <time>2012-04-01T06:01:16Z</time>
      </trkpt>
      <trkpt lat="44.47101" lon="1.01534">
        <ele>84</ele>
        <time>2012-04-01T06:01:17Z</time>
      </trkpt>
      <trkpt lat="44.47102" lon="1.01523">
        <ele>83</ele>
        <time>2012-04-01T06:01:18Z</time>
      </trkpt>
      <trkpt lat="44.47102" lon="1.01513">
        <ele>82</ele>
        <time>2012-04-01T06:01:19Z</time>
      </trkpt>
      <trkpt lat="44.471" lon="1.01502">
        <ele>81</ele>
        <time>2012-04-01T06:01:20Z</time>
      </trkpt>
      <trkpt lat="44.47099" lon="1.01492">
        <ele>81</ele>
        <time>2012-04-01T06:01:21Z</time>
      </trkpt>
      <trkpt lat="44.47098" lon="1.01483">
        <ele>80</ele>
        <time>2012-04-01T06:01:22Z</time>
      </trkpt>
      <trkpt lat="44.47097" lon="1.01474">
        <ele>80</ele>
        <time>2012-04-01T06:01:23Z</time>
      </trkpt>
      <trkpt lat="44.47096" lon="1.01466">
        <ele>80</ele>
        <time>2012-04-01T06:01:24Z</time>
      </trkpt>
      <trkpt lat="44.47096" lon="1.01459">
        <ele>80</ele>
        <time>2012-04-01T06:01:25Z</time>
      </trkpt>
      <trkpt lat="44.47095" lon="1.01451">
        <ele>80</ele>
        <time>2012-04-01T06:01:26Z</time>
      </trkpt>
      <trkpt lat="44.47093" lon="1.01442">
        <ele>80</ele>
        <time>2012-04-01T06:01:27Z</time>
      </trkpt>
      <trkpt lat="44.47093" lon="1.01435">
        <ele>80</ele>
        <time>2012-04-01T06:01:28Z</time>
      </trkpt>
      <trkpt lat="44.47092" lon="1.01429">
        <ele>80</ele>
        <time>2012-04-01T06:01:29Z</time>
      </trkpt>
      <trkpt lat="44.47092" lon="1.01423">
        <ele>80</ele>
        <time>2012-04-01T06:01:30Z</time>
      </trkpt>
      <trkpt lat="44.47092" lon="1.01417">
        <ele>80</ele>
        <time>2012-04-01T06:01:31Z</time>
      </trkpt>
      <trkpt lat="44.47091" lon="1.01411">
        <ele>80</ele>
        <time>2012-04-01T06:01:32Z</time>
      </trkpt>
      <trkpt lat="44.4709" lon="1.01404">
        <ele>80</ele>
        <time>2012-04-01T06:01:33Z</time>
      </trkpt>
      <trkpt lat="44.4709" lon="1.01399">
        <ele>81</ele>
        <time>2012-04-01T06:01:34Z</time>
      </trkpt>
      <trkpt lat="44.47089" lon="1.01393">
        <ele>82</ele>
        <time>2012-04-01T06:01:35Z</time>
      </trkpt>
      <trkpt lat="44.47089" lon="1.01387">
        <ele>83</ele>
        <time>2012-04-01T06:01:36Z</time>
      </trkpt>
      <trkpt lat="44.47089" lon="1.01382">
        <ele>84</ele>
        <time>2012-04-01T06:01:37Z</time>
      </trkpt>
      <trkpt lat="44.47088" lon="1.01376">
        <ele>85</ele>
        <time>2012-04-01T06:01:38Z</time>
      </trkpt>
      <trkpt lat="44.47087" lon="1.0137">
        <ele>86</ele>
        <time>2012-04-01T06:01:39Z</time>
      </trkpt>
      <trkpt lat="44.47087" lon="1.01365">
        <ele>87</ele>
        <time>2012-04-01T06:01:40Z</time>
      </trkpt>
      <trkpt lat="44.47087" lon="1.01359">
        <ele>88</ele>
        <time>2012-04-01T06:01:41Z</time>
      </trkpt>
      <trkpt lat="44.47087" lon="1.01353">
        <ele>89</ele>
        <time>2012-04-01T06:01:42Z</time>
      </trkpt>
      <trkpt lat="44.47087" lon="1.01347">
        <ele>90</ele>
        <time>2012-04-01T06:01:43Z</time>
      </trkpt>
      <trkpt lat="44.47087" lon="1.01342">
        <ele>91</ele>
        <time>2012-04-01T06:01:44Z</time>
      </trkpt>
      <trkpt lat="44.47087" lon="1.01336">
        <ele>92</ele>
        <time>2012-04-01T06:01:45Z</time>
      </trkpt>
      <trkpt lat="44.47087" lon="1.01331">
        <ele>93</ele>
        <time>2012-04-01T06:01:46Z</time>
      </trkpt>
      <trkpt lat="44.47087" lon="1.01326">
        <ele>94</ele>
        <time>2012-04-01T06:01:47Z</time>
      </trkpt>
      <trkpt lat="44.47087" lon="1.01321">
        <ele>95</ele>
        <time>2012-04-01T06:01:48Z</time>
      </trkpt>
      <trkpt lat="44.47088" lon="1.01317">
        <ele>96</ele>
        <time>2012-04-01T06:01:49Z</time>
      </trkpt>
      <trkpt lat="44.47088" lon="1.01312">
        <ele>97</ele>
        <time>2012-04-01T06:01:50Z</time>
      </trkpt>
      <trkpt lat="44.47089" lon="1.01308">
        <ele>97</ele>
        <time>2012-04-01T06:01:51Z</time>
      </trkpt>
      <trkpt lat="44.4709" lon="1.01303">
        <ele>98</ele>
        <time>2012-04-01T06:01:52Z</time>
      </trkpt>
      <trkpt lat="44.4709" lon="1.01298">
        <ele>98</ele>
        <time>2012-04-01T06:01:53Z</time>
      </trkpt>
      <trkpt lat="44.47091" lon="1.01294">
        <ele>99</ele>
        <time>2012-04-01T06:01:54Z</time>
      </trkpt>
      <trkpt lat="44.47092" lon="1.0129">
        <ele>99</ele>
        <time>2012-04-01T06:01:55Z</time>
      </trkpt>
      <trkpt lat="44.47092" lon="1.01286">
        <ele>99</ele>
        <time>2012-04-01T06:01:56Z</time>
      </trkpt>
      <trkpt lat="44.47092" lon="1.01281">
        <ele>100</ele>
        <time>2012-04-01T06:01:57Z</time>
      </trkpt>
      <trkpt lat="44.47093" lon="1.01277">
        <ele>100</ele>
        <time>2012-04-01T06:01:58Z</time>
      </trkpt>
      <trkpt lat="44.47093" lon="1.01272">
        <ele>100</ele>
        <time>2012-04-01T06:01:59Z</time>
      </trkpt>
      <trkpt lat="44.47093" lon="1.01268">
        <ele>100</ele>
        <time>2012-04-01T06:02:00Z</time>
      </trkpt>
      <trkpt lat="44.47093" lon="1.01263">
        <ele>100</ele>
        <time>2012-04-01T06:02:01Z</time>
      </trkpt>
      <trkpt lat="44.47093" lon="1.01259">
        <ele>100</ele>
        <time>2012-04-01T06:02:02Z</time>
      </trkpt>
      <trkpt lat="44.47093" lon="1.01255">
        <ele>100</ele>
        <time>2012-04-01T06:02:03Z</time>
      </trkpt>
      <trkpt lat="44.47093" lon="1.01251">
        <ele>100</ele>
        <time>2012-04-01T06:02:04Z</time>
      </trkpt>
      <trkpt lat="44.47093" lon="1.01246">
        <ele>100</ele>
        <time>2012-04-01T06:02:05Z</time>
      </trkpt>
      <trkpt lat="44.47092" lon="1.01242">
        <ele>100</ele>
        <time>2012-04-01T06:02:06Z</time>
      </trkpt>
      <trkpt lat="44.47092" lon="1.01238">
        <ele>100</ele>
        <time>2012-04-01T06:02:07Z</time>
      </trkpt>
      <trkpt lat="44.47092" lon="1.01234">
        <ele>100</ele>
        <time>2012-04-01T06:02:08Z</time>
      </trkpt>
      <trkpt lat="44.47092" lon="1.0123">
        <ele>100</ele>
        <time>2012-04-01T06:02:09Z</time>
      </trkpt>
      <trkpt lat="44.47092" lon="1.01225">
        <ele>100</ele>
        <time>2012-04-01T06:02:10Z</time>
      </trkpt>
      <trkpt lat="44.47091" lon="1.01221">
        <ele>100</ele>
        <time>2012-04-01T06:02:11Z</time>
      </trkpt>
      <trkpt lat="44.47089" lon="1.01216">
        <ele>100</ele>
        <time>2012-04-01T06:02:12Z</time>
      </trkpt>
      <trkpt lat="44.47087" lon="1.01212">
        <ele>100</ele>
        <time>2012-04-01T06:02:13Z</time>
      </trkpt>
      <trkpt lat="44.47085" lon="1.01211">
        <ele>100</ele>
        <time>2012-04-01T06:02:14Z</time>
      </trkpt>
      <trkpt lat="44.47083" lon="1.0121">
        <ele>100</ele>
        <time>2012-04-01T06:02:15Z</time>
      </trkpt>
      <trkpt lat="44.47081" lon="1.0121">
        <ele>100</ele>
        <time>2012-04-01T06:02:16Z</time>
      </trkpt>
      <trkpt lat="44.47078" lon="1.01211">
        <ele>100</ele>
        <time>2012-04-01T06:02:17Z</time>
      </trkpt>
      <trkpt lat="44.47075" lon="1.01212">
        <ele>100</ele>
        <time>2012-04-01T06:02:18Z</time>
      </trkpt>
      <trkpt lat="44.47073" lon="1.01213">
        <ele>100</ele>
        <time>2012-04-01T06:02:19Z</time>
      </trkpt>
      <trkpt lat="44.4707" lon="1.01213">
        <ele>101</ele>
        <time>2012-04-01T06:02:20Z</time>
      </trkpt>
      <trkpt lat="44.47067" lon="1.01214">
        <ele>101</ele>
        <time>2012-04-01T06:02:21Z</time>
      </trkpt>
      <trkpt lat="44.47064" lon="1.01214">
        <ele>102</ele>
        <time>2012-04-01T06:02:22Z</time>
      </trkpt>
      <trkpt lat="44.47062" lon="1.01215">
        <ele>102</ele>
        <time>2012-04-01T06:02:23Z</time>
      </trkpt>
      <trkpt lat="44.47059" lon="1.01215">
        <ele>103</ele>
        <time>2012-04-01T06:02:24Z</time>
      </trkpt>
      <trkpt lat="44.47056" lon="1.01216">
        <ele>103</ele>
        <time>2012-04-01T06:02:25Z</time>
      </trkpt>
      <trkpt lat="44.47053" lon="1.01216">
        <ele>103</ele>
        <time>2012-04-01T06:02:26Z</time>
      </trkpt>
      <trkpt lat="44.47051" lon="1.01217">
        <ele>104</ele>
        <time>2012-04-01T06:02:27Z</time>
      </trkpt>
      <trkpt lat="44.47048" lon="1.01218">
        <ele>104</ele>
        <time>2012-04-01T06:02:28Z</time>
      </trkpt>
      <trkpt lat="44.47046" lon="1.01219">
        <ele>104</ele>
        <time>2012-04-01T06:02:29Z</time>
      </trkpt>
      <trkpt lat="44.47043" lon="1.01219">
        <ele>105</ele>
        <time>2012-04-01T06:02:30Z</time>
      </trkpt>
      <trkpt lat="44.47041" lon="1.0122">
        <ele>105</ele>
        <time>2012-04-01T06:02:31Z</time>
      </trkpt>
      <trkpt lat="44.47038" lon="1.01221">
        <ele>106</ele>
        <time>2012-04-01T06:02:32Z</time>
      </trkpt>
      <trkpt lat="44.47035" lon="1.01221">
        <ele>106</ele>
        <time>2012-04-01T06:02:33Z</time>
      </trkpt>
      <trkpt lat="44.47033" lon="1.01222">
        <ele>107</ele>
        <time>2012-04-01T06:02:34Z</time>
      </trkpt>
      <trkpt lat="44.47029" lon="1.01222">
        <ele>107</ele>
        <time>2012-04-01T06:02:35Z</time>
      </trkpt>
      <trkpt lat="44.47027" lon="1.01222">
        <ele>108</ele>
        <time>2012-04-01T06:02:36Z</time>
      </trkpt>
      <trkpt lat="44.47024" lon="1.01221">
        <ele>108</ele>
        <time>2012-04-01T06:02:37Z</time>
      </trkpt>
      <trkpt lat="44.47021" lon="1.01221">
        <ele>108</ele>
        <time>2012-04-01T06:02:38Z</time>
      </trkpt>
      <trkpt lat="44.47018" lon="1.0122">
        <ele>109</ele>
        <time>2012-04-01T06:02:39Z</time>
      </trkpt>
      <trkpt lat="44.47015" lon="1.01219">
        <ele>109</ele>
        <time>2012-04-01T06:02:40Z</time>
      </trkpt>
      <trkpt lat="44.47012" lon="1.01219">
        <ele>109</ele>
        <time>2012-04-01T06:02:41Z</time>
      </trkpt>
      <trkpt lat="44.47008" lon="1.01218">
        <ele>109</ele>
        <time>2012-04-01T06:02:42Z</time>
      </trkpt>
      <trkpt lat="44.47005" lon="1.01218">
        <ele>109</ele>
        <time>2012-04-01T06:02:43Z</time>
      </trkpt>
      <trkpt lat="44.47002" lon="1.01216">
        <ele>109</ele>
        <time>2012-04-01T06:02:44Z</time>
      </trkpt>
      <trkpt lat="44.47" lon="1.01215">
        <ele>109</ele>
        <time>2012-04-01T06:02:45Z</time>
      </trkpt>
      <trkpt lat="44.46997" lon="1.01213">
        <ele>109</ele>
        <time>2012-04-01T06:02:46Z</time>
      </trkpt>
      <trkpt lat="44.46995" lon="1.0121">
        <ele>109</ele>
        <time>2012-04-01T06:02:47Z</time>
      </trkpt>
      <trkpt lat="44.46993" lon="1.01207">
        <ele>110</ele>
        <time>2012-04-01T06:02:48Z</time>
      </trkpt>
      <trkpt lat="44.4699" lon="1.01204">
        <ele>110</ele>
        <time>2012-04-01T06:02:49Z</time>
      </trkpt>
      <trkpt lat="44.46988" lon="1.01201">
        <ele>110</ele>
        <time>2012-04-01T06:02:50Z</time>
      </trkpt>
      <trkpt lat="44.46986" lon="1.01198">
        <ele>111</ele>
        <time>2012-04-01T06:02:51Z</time>
      </trkpt>
      <trkpt lat="44.46984" lon="1.01195">
        <ele>111</ele>
        <time>2012-04-01T06:02:52Z</time>
      </trkpt>
      <trkpt lat="44.46983" lon="1.01192">
        <ele>111</ele>
        <time>2012-04-01T06:02:53Z</time>
      </trkpt>
      <trkpt lat="44.46981" lon="1.01189">
        <ele>111</ele>
        <time>2012-04-01T06:02:54Z</time>
      </trkpt>
      <trkpt lat="44.46979" lon="1.01186">
        <ele>111</ele>
        <time>2012-04-01T06:02:55Z</time>
      </trkpt>
      <trkpt lat="44.46977" lon="1.01183">
        <ele>111</ele>
        <time>2012-04-01T06:02:56Z</time>
      </trkpt>
      <trkpt lat="44.46976" lon="1.01181">
        <ele>112</ele>
        <time>2012-04-01T06:02:57Z</time>
      </trkpt>
      <trkpt lat="44.46974" lon="1.01178">
        <ele>112</ele>
        <time>2012-04-01T06:02:58Z</time>
      </trkpt>
      <trkpt lat="44.46972" lon="1.01175">
        <ele>112</ele>
        <time>2012-04-01T06:02:59Z</time>
      </trkpt>
      <trkpt lat="44.4697" lon="1.01173">
        <ele>113</ele>
        <time>2012-04-01T06:03:00Z</time>
      </trkpt>
      <trkpt lat="44.46968" lon="1.0117">
        <ele>113</ele>
        <time>2012-04-01T06:03:01Z</time>
      </trkpt>
      <trkpt lat="44.46966" lon="1.01167">
        <ele>114</ele>
        <time>2012-04-01T06:03:02Z</time>
      </trkpt>
      <trkpt lat="44.46964" lon="1.01164">
        <ele>114</ele>
        <time>2012-04-01T06:03:03Z</time>
      </trkpt>
      <trkpt lat="44.46961" lon="1.01163">
        <ele>114</ele>
        <time>2012-04-01T06:03:04Z</time>
      </trkpt>
      <trkpt lat="44.46958" lon="1.01161">
        <ele>114</ele>
        <time>2012-04-01T06:03:05Z</time>
      </trkpt>
      <trkpt lat="44.46955" lon="1.0116">
        <ele>115</ele>
        <time>2012-04-01T06:03:06Z</time>
      </trkpt>
      <trkpt lat="44.46952" lon="1.01159">
        <ele>115</ele>
        <time>2012-04-01T06:03:07Z</time>
      </trkpt>
      <trkpt lat="44.4695" lon="1.01159">
        <ele>115</ele>
        <time>2012-04-01T06:03:08Z</time>
      </trkpt>
      <trkpt lat="44.46948" lon="1.01157">
        <ele>115</ele>
        <time>2012-04-01T06:03:09Z</time>
      </trkpt>
      <trkpt lat="44.46946" lon="1.01156">
        <ele>116</ele>
        <time>2012-04-01T06:03:10Z</time>
      </trkpt>
      <trkpt lat="44.46944" lon="1.01155">
        <ele>117</ele>
        <time>2012-04-01T06:03:11Z</time>
      </trkpt>
      <trkpt lat="44.46942" lon="1.01154">
        <ele>118</ele>
        <time>2012-04-01T06:03:12Z</time>
      </trkpt>
      <trkpt lat="44.4694" lon="1.01153">
        <ele>119</ele>
        <time>2012-04-01T06:03:13Z</time>
      </trkpt>
      <trkpt lat="44.46939" lon="1.01153">
        <ele>120</ele>
        <time>2012-04-01T06:03:14Z</time>
      </trkpt>
      <trkpt lat="44.46937" lon="1.01151">
        <ele>121</ele>
        <time>2012-04-01T06:03:15Z</time>
      </trkpt>
      <trkpt lat="44.46935" lon="1.0115">
        <ele>122</ele>
        <time>2012-04-01T06:03:16Z</time>
      </trkpt>
      <trkpt lat="44.46934" lon="1.01147">
        <ele>123</ele>
        <time>2012-04-01T06:03:17Z</time>
      </trkpt>
      <trkpt lat="44.46932" lon="1.01145">
        <ele>123</ele>
        <time>2012-04-01T06:03:18Z</time>
      </trkpt>
      <trkpt lat="44.46931" lon="1.01144">
        <ele>124</ele>
        <time>2012-04-01T06:03:19Z</time>
      </trkpt>
      <trkpt lat="44.4693" lon="1.01142">
        <ele>125</ele>
        <time>2012-04-01T06:03:20Z</time>
      </trkpt>
      <trkpt lat="44.46928" lon="1.01139">
        <ele>125</ele>
        <time>2012-04-01T06:03:21Z</time>
      </trkpt>
      <trkpt lat="44.46927" lon="1.01137">
        <ele>125</ele>
        <time>2012-04-01T06:03:22Z</time>
      </trkpt>
      <trkpt lat="44.46926" lon="1.01135">
        <ele>125</ele>
        <time>2012-04-01T06:03:23Z</time>
      </trkpt>
      <trkpt lat="44.46925" lon="1.01133">
        <ele>126</ele>
        <time>2012-04-01T06:03:24Z</time>
      </trkpt>
      <trkpt lat="44.46923" lon="1.01131">
        <ele>126</ele>
        <time>2012-04-01T06:03:25Z</time>
      </trkpt>
      <trkpt lat="44.46922" lon="1.01129">
        <ele>126</ele>
        <time>2012-04-01T06:03:26Z</time>
      </trkpt>
      <trkpt lat="44.4692" lon="1.01126">
        <ele>126</ele>
        <time>2012-04-01T06:03:27Z</time>
      </trkpt>
      <trkpt lat="44.46919" lon="1.01123">
        <ele>126</ele>
        <time>2012-04-01T06:03:28Z</time>
      </trkpt>
      <trkpt lat="44.46917" lon="1.01121">
        <ele>126</ele>
        <time>2012-04-01T06:03:29Z</time>
      </trkpt>
      <trkpt lat="44.46916" lon="1.01118">
        <ele>126</ele>
        <time>2012-04-01T06:03:30Z</time>
      </trkpt>
      <trkpt lat="44.46914" lon="1.01116">
        <ele>126</ele>
        <time>2012-04-01T06:03:31Z</time>
      </trkpt>
      <trkpt lat="44.46913" lon="1.01114">
        <ele>126</ele>
        <time>2012-04-01T06:03:32Z</time>
      </trkpt>
      <trkpt lat="44.46911" lon="1.01112">
        <ele>126</ele>
        <time>2012-04-01T06:03:33Z</time>
      </trkpt>
      <trkpt lat="44.46909" lon="1.0111">
        <ele>127</ele>
        <time>2012-04-01T06:03:34Z</time>
      </trkpt>
      <trkpt lat="44.46908" lon="1.01108">
        <ele>127</ele>
        <time>2012-04-01T06:03:35Z</time>
      </trkpt>
      <trkpt lat="44.46906" lon="1.01106">
        <ele>127</ele>
        <time>2012-04-01T06:03:36Z</time>
      </trkpt>
      <trkpt lat="44.46904" lon="1.01104">
        <ele>128</ele>
        <time>2012-04-01T06:03:37Z</time>
      </trkpt>
      <trkpt lat="44.46902" lon="1.01102">
        <ele>128</ele>
        <time>2012-04-01T06:03:38Z</time>
      </trkpt>
      <trkpt lat="44.46901" lon="1.011">
        <ele>128</ele>
        <time>2012-04-01T06:03:39Z</time>
      </trkpt>
      <trkpt lat="44.46899" lon="1.01098">
        <ele>129</ele>
        <time>2012-04-01T06:03:40Z</time>
      </trkpt>
      <trkpt lat="44.46897" lon="1.01096">
        <ele>129</ele>
        <time>2012-04-01T06:03:41Z</time>
      </trkpt>
      <trkpt lat="44.46896" lon="1.01094">
        <ele>130</ele>
        <time>2012-04-01T06:03:42Z</time>
      </trkpt>
      <trkpt lat="44.46894" lon="1.01093">
        <ele>130</ele>
        <time>2012-04-01T06:03:43Z</time>
      </trkpt>
      <trkpt lat="44.46892" lon="1.01091">
        <ele>131</ele>
        <time>2012-04-01T06:03:44Z</time>
      </trkpt>
      <trkpt lat="44.46891" lon="1.0109">
        <ele>133</ele>
        <time>2012-04-01T06:03:46Z</time>
      </trkpt>
      <trkpt lat="44.4689" lon="1.01088">
        <ele>134</ele>
        <time>2012-04-01T06:03:47Z</time>
      </trkpt>
      <trkpt lat="44.46888" lon="1.01086">
        <ele>135</ele>
        <time>2012-04-01T06:03:48Z</time>
      </trkpt>
      <trkpt lat="44.46887" lon="1.01085">
        <ele>136</ele>
        <time>2012-04-01T06:03:49Z</time>
      </trkpt>
      <trkpt lat="44.46885" lon="1.01084">
        <ele>137</ele>
        <time>2012-04-01T06:03:50Z</time>
      </trkpt>
      <trkpt lat="44.46883" lon="1.01083">
        <ele>138</ele>
        <time>2012-04-01T06:03:51Z</time>
      </trkpt>
      <trkpt lat="44.46881" lon="1.01082">
        <ele>139</ele>
        <time>2012-04-01T06:03:52Z</time>
      </trkpt>
      <trkpt lat="44.4688" lon="1.01081">
        <ele>140</ele>
        <time>2012-04-01T06:03:53Z</time>
      </trkpt>
      <trkpt lat="44.46878" lon="1.01079">
        <ele>141</ele>
        <time>2012-04-01T06:03:54Z</time>
      </trkpt>
      <trkpt lat="44.46877" lon="1.01078">
        <ele>142</ele>
        <time>2012-04-01T06:03:55Z</time>
      </trkpt>
      <trkpt lat="44.46876" lon="1.01076">
        <ele>143</ele>
        <time>2012-04-01T06:03:56Z</time>
      </trkpt>
      <trkpt lat="44.46874" lon="1.01075">
        <ele>144</ele>
        <time>2012-04-01T06:03:57Z</time>
      </trkpt>
      <trkpt lat="44.46873" lon="1.01073">
        <ele>144</ele>
        <time>2012-04-01T06:03:58Z</time>
      </trkpt>
      <trkpt lat="44.46871" lon="1.01071">
        <ele>145</ele>
        <time>2012-04-01T06:03:59Z</time>
      </trkpt>
      <trkpt lat="44.46869" lon="1.0107">
        <ele>145</ele>
        <time>2012-04-01T06:04:00Z</time>
      </trkpt>
      <trkpt lat="44.46867" lon="1.01069">
        <ele>145</ele>
        <time>2012-04-01T06:04:01Z</time>
      </trkpt>
      <trkpt lat="44.46865" lon="1.01068">
        <ele>145</ele>
        <time>2012-04-01T06:04:02Z</time>
      </trkpt>
      <trkpt lat="44.46864" lon="1.01068">
        <ele>145</ele>
        <time>2012-04-01T06:04:03Z</time>
      </trkpt>
      <trkpt lat="44.46863" lon="1.01067">
        <ele>145</ele>
        <time>2012-04-01T06:04:04Z</time>
      </trkpt>
      <trkpt lat="44.46861" lon="1.01065">
        <ele>145</ele>
        <time>2012-04-01T06:04:05Z</time>
      </trkpt>
      <trkpt lat="44.46859" lon="1.01063">
        <ele>145</ele>
        <time>2012-04-01T06:04:06Z</time>
      </trkpt>
      <trkpt lat="44.46858" lon="1.01061">
        <ele>145</ele>
        <time>2012-04-01T06:04:07Z</time>
      </trkpt>
      <trkpt lat="44.46857" lon="1.01058">
        <ele>145</ele>
        <time>2012-04-01T06:04:08Z</time>
      </trkpt>
      <trkpt lat="44.46855" lon="1.01054">
        <ele>145</ele>
        <time>2012-04-01T06:04:09Z</time>
      </trkpt>
      <trkpt lat="44.46854" lon="1.01049">
        <ele>145</ele>
        <time>2012-04-01T06:04:10Z</time>
      </trkpt>
      <trkpt lat="44.46854" lon="1.01044">
        <ele>145</ele>
        <time>2012-04-01T06:04:11Z</time>
      </trkpt>
      <trkpt lat="44.46854" lon="1.01039">
        <ele>145</ele>
        <time>2012-04-01T06:04:12Z</time>
      </trkpt>
      <trkpt lat="44.46853" lon="1.01034">
        <ele>145</ele>
        <time>2012-04-01T06:04:13Z</time>
      </trkpt>
      <trkpt lat="44.46853" lon="1.01028">
        <ele>144</ele>
        <time>2012-04-01T06:04:14Z</time>
      </trkpt>
      <trkpt lat="44.46854" lon="1.01022">
        <ele>143</ele>
        <time>2012-04-01T06:04:15Z</time>
      </trkpt>
      <trkpt lat="44.46855" lon="1.01015">
        <ele>143</ele>
        <time>2012-04-01T06:04:16Z</time>
      </trkpt>
      <trkpt lat="44.46857" lon="1.01008">
        <ele>142</ele>
        <time>2012-04-01T06:04:17Z</time>
      </trkpt>
      <trkpt lat="44.46858" lon="1.01">
        <ele>142</ele>
        <time>2012-04-01T06:04:18Z</time>
      </trkpt>
      <trkpt lat="44.46859" lon="1.00993">
        <ele>141</ele>
        <time>2012-04-01T06:04:19Z</time>
      </trkpt>
      <trkpt lat="44.4686" lon="1.00985">
        <ele>141</ele>
        <time>2012-04-01T06:04:20Z</time>
      </trkpt>
      <trkpt lat="44.46862" lon="1.00976">
        <ele>141</ele>
        <time>2012-04-01T06:04:21Z</time>
      </trkpt>
      <trkpt lat="44.46864" lon="1.00967">
        <ele>141</ele>
        <time>2012-04-01T06:04:22Z</time>
      </trkpt>
      <trkpt lat="44.46866" lon="1.00959">
        <ele>141</ele>
        <time>2012-04-01T06:04:23Z</time>
      </trkpt>
      <trkpt lat="44.46867" lon="1.0095">
        <ele>141</ele>
        <time>2012-04-01T06:04:24Z</time>
      </trkpt>
      <trkpt lat="44.46868" lon="1.00941">
        <ele>140</ele>
        <time>2012-04-01T06:04:25Z</time>
      </trkpt>
      <trkpt lat="44.46868" lon="1.00931">
        <ele>140</ele>
        <time>2012-04-01T06:04:26Z</time>
      </trkpt>
      <trkpt lat="44.46868" lon="1.00922">
        <ele>139</ele>
        <time>2012-04-01T06:04:27Z</time>
      </trkpt>
      <trkpt lat="44.46868" lon="1.00911">
        <ele>138</ele>
        <time>2012-04-01T06:04:28Z</time>
      </trkpt>
      <trkpt lat="44.46869" lon="1.00901">
        <ele>138</ele>
        <time>2012-04-01T06:04:29Z</time>
      </trkpt>
      <trkpt lat="44.4687" lon="1.0089">
        <ele>137</ele>
        <time>2012-04-01T06:04:30Z</time>
      </trkpt>
      <trkpt lat="44.4687" lon="1.00879">
        <ele>137</ele>
        <time>2012-04-01T06:04:31Z</time>
      </trkpt>
      <trkpt lat="44.4687" lon="1.00868">
        <ele>136</ele>
        <time>2012-04-01T06:04:32Z</time>
      </trkpt>
      <trkpt lat="44.46871" lon="1.00859">
        <ele>136</ele>
        <time>2012-04-01T06:04:33Z</time>
      </trkpt>
      <trkpt lat="44.46871" lon="1.00851">
        <ele>135</ele>
        <time>2012-04-01T06:04:34Z</time>
      </trkpt>
      <trkpt lat="44.46871" lon="1.00844">
        <ele>135</ele>
        <time>2012-04-01T06:04:35Z</time>
      </trkpt>
      <trkpt lat="44.46871" lon="1.00838">
        <ele>134</ele>
        <time>2012-04-01T06:04:36Z</time>
      </trkpt>
      <trkpt lat="44.46871" lon="1.00832">
        <ele>134</ele>
        <time>2012-04-01T06:04:37Z</time>
      </trkpt>
      <trkpt lat="44.4687" lon="1.00828">
        <ele>134</ele>
        <time>2012-04-01T06:04:38Z</time>
      </trkpt>
      <trkpt lat="44.46867" lon="1.00824">
        <ele>134</ele>
        <time>2012-04-01T06:04:39Z</time>
      </trkpt>
      <trkpt lat="44.46864" lon="1.00821">
        <ele>134</ele>
        <time>2012-04-01T06:04:40Z</time>
      </trkpt>
      <trkpt lat="44.46861" lon="1.00819">
        <ele>134</ele>
        <time>2012-04-01T06:04:41Z</time>
      </trkpt>
      <trkpt lat="44.46856" lon="1.00817">
        <ele>134</ele>
        <time>2012-04-01T06:04:42Z</time>
      </trkpt>
      <trkpt lat="44.46851" lon="1.00814">
        <ele>134</ele>
        <time>2012-04-01T06:04:43Z</time>
      </trkpt>
      <trkpt lat="44.46847" lon="1.00811">
        <ele>134</ele>
        <time>2012-04-01T06:04:44Z</time>
      </trkpt>
      <trkpt lat="44.46842" lon="1.00807">
        <ele>134</ele>
        <time>2012-04-01T06:04:45Z</time>
      </trkpt>
      <trkpt lat="44.46838" lon="1.00804">
        <ele>134</ele>
        <time>2012-04-01T06:04:46Z</time>
      </trkpt>
      <trkpt lat="44.46833" lon="1.00801">
        <ele>134</ele>
        <time>2012-04-01T06:04:47Z</time>
      </trkpt>
      <trkpt lat="44.46828" lon="1.00798">
        <ele>134</ele>
        <time>2012-04-01T06:04:48Z</time>
      </trkpt>
      <trkpt lat="44.46824" lon="1.00794">
        <ele>134</ele>
        <time>2012-04-01T06:04:49Z</time>
      </trkpt>
      <trkpt lat="44.46819" lon="1.00791">
        <ele>134</ele>
        <time>2012-04-01T06:04:50Z</time>
      </trkpt>
      <trkpt lat="44.46814" lon="1.00787">
        <ele>134</ele>
        <time>2012-04-01T06:04:51Z</time>
      </trkpt>
      <trkpt lat="44.46809" lon="1.00784">
        <ele>134</ele>
        <time>2012-04-01T06:04:52Z</time>
      </trkpt>
      <trkpt lat="44.46804" lon="1.0078">
        <ele>134</ele>
        <time>2012-04-01T06:04:53Z</time>
      </trkpt>
      <trkpt lat="44.46799" lon="1.00776">
        <ele>134</ele>
        <time>2012-04-01T06:04:54Z</time>
      </trkpt>
      <trkpt lat="44.46795" lon="1.00772">
        <ele>134</ele>
        <time>2012-04-01T06:04:55Z</time>
      </trkpt>
      <trkpt lat="44.46789" lon="1.00768">
        <ele>134</ele>
        <time>2012-04-01T06:04:56Z</time>
      </trkpt>
      <trkpt lat="44.46784" lon="1.00765">
        <ele>134</ele>
        <time>2012-04-01T06:04:57Z</time>
      </trkpt>
      <trkpt lat="44.46778" lon="1.00762">
        <ele>134</ele>
        <time>2012-04-01T06:04:58Z</time>
      </trkpt>
      <trkpt lat="44.46772" lon="1.0076">
        <ele>134</ele>
        <time>2012-04-01T06:04:59Z</time>
      </trkpt>
      <trkpt lat="44.46766" lon="1.00758">
        <ele>134</ele>
        <time>2012-04-01T06:05:00Z</time>
      </trkpt>
      <trkpt lat="44.46759" lon="1.00757">
        <ele>134</ele>
        <time>2012-04-01T06:05:01Z</time>
      </trkpt>
      <trkpt lat="44.46752" lon="1.00757">
        <ele>134</ele>
        <time>2012-04-01T06:05:02Z</time>
      </trkpt>
      <trkpt lat="44.46746" lon="1.00758">
        <ele>134</ele>
        <time>2012-04-01T06:05:03Z</time>
      </trkpt>
      <trkpt lat="44.4674" lon="1.00759">
        <ele>134</ele>
        <time>2012-04-01T06:05:04Z</time>
      </trkpt>
      <trkpt lat="44.46735" lon="1.00761">
        <ele>134</ele>
        <time>2012-04-01T06:05:05Z</time>
      </trkpt>
      <trkpt lat="44.4673" lon="1.00763">
        <ele>134</ele>
        <time>2012-04-01T06:05:06Z</time>
      </trkpt>
      <trkpt lat="44.46725" lon="1.00764">
        <ele>134</ele>
        <time>2012-04-01T06:05:07Z</time>
      </trkpt>
      <trkpt lat="44.46721" lon="1.00763">
        <ele>134</ele>
        <time>2012-04-01T06:05:08Z</time>
      </trkpt>
      <trkpt lat="44.46718" lon="1.00763">
        <ele>134</ele>
        <time>2012-04-01T06:05:09Z</time>
      </trkpt>
      <trkpt lat="44.46715" lon="1.00761">
        <ele>134</ele>
        <time>2012-04-01T06:05:10Z</time>
      </trkpt>
      <trkpt lat="44.46712" lon="1.00758">
        <ele>134</ele>
        <time>2012-04-01T06:05:11Z</time>
      </trkpt>
      <trkpt lat="44.46709" lon="1.00754">
        <ele>134</ele>
        <time>2012-04-01T06:05:12Z</time>
      </trkpt>
      <trkpt lat="44.46706" lon="1.00751">
        <ele>134</ele>
        <time>2012-04-01T06:05:13Z</time>
      </trkpt>
      <trkpt lat="44.46703" lon="1.00748">
        <ele>134</ele>
        <time>2012-04-01T06:05:14Z</time>
      </trkpt>
      <trkpt lat="44.46701" lon="1.00745">
        <ele>134</ele>
        <time>2012-04-01T06:05:15Z</time>
      </trkpt>
      <trkpt lat="44.46699" lon="1.00742">
        <ele>134</ele>
        <time>2012-04-01T06:05:16Z</time>
      </trkpt>
      <trkpt lat="44.46697" lon="1.00741">
        <ele>133</ele>
        <time>2012-04-01T06:05:17Z</time>
      </trkpt>
      <trkpt lat="44.46695" lon="1.00739">
        <ele>132</ele>
        <time>2012-04-01T06:05:18Z</time>
      </trkpt>
      <trkpt lat="44.46694" lon="1.00737">
        <ele>132</ele>
        <time>2012-04-01T06:05:19Z</time>
      </trkpt>
      <trkpt lat="44.46693" lon="1.00736">
        <ele>131</ele>
        <time>2012-04-01T06:05:20Z</time>
      </trkpt>
      <trkpt lat="44.46691" lon="1.00734">
        <ele>131</ele>
        <time>2012-04-01T06:05:21Z</time>
      </trkpt>
      <trkpt lat="44.4669" lon="1.00732">
        <ele>130</ele>
        <time>2012-04-01T06:05:22Z</time>
      </trkpt>
      <trkpt lat="44.46688" lon="1.00731">
        <ele>129</ele>
        <time>2012-04-01T06:05:23Z</time>
      </trkpt>
      <trkpt lat="44.46685" lon="1.00728">
        <ele>129</ele>
        <time>2012-04-01T06:05:24Z</time>
      </trkpt>
      <trkpt lat="44.46684" lon="1.00726">
        <ele>129</ele>
        <time>2012-04-01T06:05:25Z</time>
      </trkpt>
      <trkpt lat="44.46682" lon="1.00723">
        <ele>129</ele>
        <time>2012-04-01T06:05:26Z</time>
      </trkpt>
      <trkpt lat="44.4668" lon="1.0072">
        <ele>129</ele>
        <time>2012-04-01T06:05:27Z</time>
      </trkpt>
      <trkpt lat="44.46679" lon="1.00718">
        <ele>129</ele>
        <time>2012-04-01T06:05:28Z</time>
      </trkpt>
      <trkpt lat="44.46678" lon="1.00716">
        <ele>129</ele>
        <time>2012-04-01T06:05:29Z</time>
      </trkpt>
      <trkpt lat="44.46678" lon="1.00714">
        <ele>129</ele>
        <time>2012-04-01T06:05:31Z</time>
      </trkpt>
      <trkpt lat="44.46677" lon="1.00712">
        <ele>129</ele>
        <time>2012-04-01T06:05:33Z</time>
      </trkpt>
      <trkpt lat="44.46677" lon="1.00709">
        <ele>129</ele>
        <time>2012-04-01T06:05:35Z</time>
      </trkpt>
      <trkpt lat="44.46677" lon="1.00707">
        <ele>129</ele>
        <time>2012-04-01T06:05:36Z</time>
      </trkpt>
      <trkpt lat="44.46677" lon="1.00705">
        <ele>130</ele>
        <time>2012-04-01T06:05:38Z</time>
      </trkpt>
      <trkpt lat="44.46676" lon="1.00702">
        <ele>132</ele>
        <time>2012-04-01T06:05:40Z</time>
      </trkpt>
      <trkpt lat="44.46674" lon="1.007">
        <ele>133</ele>
        <time>2012-04-01T06:05:42Z</time>
      </trkpt>
      <trkpt lat="44.46674" lon="1.00697">
        <ele>133</ele>
        <time>2012-04-01T06:05:44Z</time>
      </trkpt>
      <trkpt lat="44.46672" lon="1.00697">
        <ele>133</ele>
        <time>2012-04-01T06:05:45Z</time>
      </trkpt>
      <trkpt lat="44.46671" lon="1.00696">
        <ele>133</ele>
        <time>2012-04-01T06:05:48Z</time>
      </trkpt>
      <trkpt lat="44.46672" lon="1.00694">
        <ele>133</ele>
        <time>2012-04-01T06:05:51Z</time>
      </trkpt>
      <trkpt lat="44.4667" lon="1.00693">
        <ele>133</ele>
        <time>2012-04-01T06:05:53Z</time>
      </trkpt>
      <trkpt lat="44.46669" lon="1.00692">
        <ele>133</ele>
        <time>2012-04-01T06:05:54Z</time>
      </trkpt>
      <trkpt lat="44.46667" lon="1.0069">
        <ele>133</ele>
        <time>2012-04-01T06:05:56Z</time>
      </trkpt>
      <trkpt lat="44.46666" lon="1.00689">
        <ele>134</ele>
        <time>2012-04-01T06:05:58Z</time>
      </trkpt>
      <trkpt lat="44.46664" lon="1.00687">
        <ele>135</ele>
        <time>2012-04-01T06:06:00Z</time>
      </trkpt>
      <trkpt lat="44.46663" lon="1.00686">
        <ele>135</ele>
        <time>2012-04-01T06:06:02Z</time>
      </trkpt>
      <trkpt lat="44.46662" lon="1.00685">
        <ele>135</ele>
        <time>2012-04-01T06:06:04Z</time>
      </trkpt>
      <trkpt lat="44.4666" lon="1.00683">
        <ele>135</ele>
        <time>2012-04-01T06:06:06Z</time>
      </trkpt>
      <trkpt lat="44.46659" lon="1.00681">
        <ele>135</ele>
        <time>2012-04-01T06:06:09Z</time>
      </trkpt>
      <trkpt lat="44.46658" lon="1.0068">
        <ele>135</ele>
        <time>2012-04-01T06:06:11Z</time>
      </trkpt>
      <trkpt lat="44.46656" lon="1.00679">
        <ele>135</ele>
        <time>2012-04-01T06:06:14Z</time>
      </trkpt>
      <trkpt lat="44.46654" lon="1.00676">
        <ele>135</ele>
        <time>2012-04-01T06:06:16Z</time>
      </trkpt>
      <trkpt lat="44.46652" lon="1.00674">
        <ele>135</ele>
        <time>2012-04-01T06:06:18Z</time>
      </trkpt>
      <trkpt lat="44.46651" lon="1.00672">
        <ele>135</ele>
        <time>2012-04-01T06:06:20Z</time>
      </trkpt>
      <trkpt lat="44.46649" lon="1.0067">
        <ele>136</ele>
        <time>2012-04-01T06:06:22Z</time>
      </trkpt>
      <trkpt lat="44.46648" lon="1.00668">
        <ele>137</ele>
        <time>2012-04-01T06:06:24Z</time>
      </trkpt>
      <trkpt lat="44.46647" lon="1.00667">
        <ele>138</ele>
        <time>2012-04-01T06:06:26Z</time>
      </trkpt>
      <trkpt lat="44.46646" lon="1.00665">
        <ele>138</ele>
        <time>2012-04-01T06:06:30Z</time>
      </trkpt>
      <trkpt lat="44.46645" lon="1.00663">
        <ele>138</ele>
        <time>2012-04-01T06:06:32Z</time>
      </trkpt>
      <trkpt lat="44.46644" lon="1.00661">
        <ele>138</ele>
        <time>2012-04-01T06:06:33Z</time>
      </trkpt>
      <trkpt lat="44.46643" lon="1.00659">
        <ele>139</ele>
        <time>2012-04-01T06:06:35Z</time>
      </trkpt>
      <trkpt lat="44.46642" lon="1.00658">
        <ele>140</ele>
        <time>2012-04-01T06:06:37Z</time>
      </trkpt>
      <trkpt lat="44.4664" lon="1.00657">
        <ele>142</ele>
        <time>2012-04-01T06:06:39Z</time>
      </trkpt>
      <trkpt lat="44.4664" lon="1.00655">
        <ele>143</ele>
        <time>2012-04-01T06:06:42Z</time>
      </trkpt>
      <trkpt lat="44.46638" lon="1.00654">
        <ele>143</ele>
        <time>2012-04-01T06:06:44Z</time>
      </trkpt>
      <trkpt lat="44.46637" lon="1.00653">
        <ele>143</ele>
        <time>2012-04-01T06:06:45Z</time>
      </trkpt>
      <trkpt lat="44.46636" lon="1.00651">
        <ele>143</ele>
        <time>2012-04-01T06:06:46Z</time>
      </trkpt>
      <trkpt lat="44.46636" lon="1.00649">
        <ele>144</ele>
        <time>2012-04-01T06:06:47Z</time>
      </trkpt>
      <trkpt lat="44.46635" lon="1.00648">
        <ele>145</ele>
        <time>2012-04-01T06:06:48Z</time>
      </trkpt>
      <trkpt lat="44.46634" lon="1.00646">
        <ele>145</ele>
        <time>2012-04-01T06:06:49Z</time>
      </trkpt>
      <trkpt lat="44.46632" lon="1.00645">
        <ele>146</ele>
        <time>2012-04-01T06:06:50Z</time>
      </trkpt>
      <trkpt lat="44.46631" lon="1.00644">
        <ele>147</ele>
        <time>2012-04-01T06:06:51Z</time>
      </trkpt>
      <trkpt lat="44.46629" lon="1.00641">
        <ele>148</ele>
        <time>2012-04-01T06:06:53Z</time>
      </trkpt>
      <trkpt lat="44.46628" lon="1.00639">
        <ele>149</ele>
        <time>2012-04-01T06:06:54Z</time>
      </trkpt>
      <trkpt lat="44.46626" lon="1.00637">
        <ele>149</ele>
        <time>2012-04-01T06:06:55Z</time>
      </trkpt>
      <trkpt lat="44.46625" lon="1.00635">
        <ele>150</ele>
        <time>2012-04-01T06:06:56Z</time>
      </trkpt>
      <trkpt lat="44.46624" lon="1.00633">
        <ele>150</ele>
        <time>2012-04-01T06:06:57Z</time>
      </trkpt>
      <trkpt lat="44.46622" lon="1.00632">
        <ele>151</ele>
        <time>2012-04-01T06:06:58Z</time>
      </trkpt>
      <trkpt lat="44.46621" lon="1.0063">
        <ele>152</ele>
        <time>2012-04-01T06:06:59Z</time>
      </trkpt>
      <trkpt lat="44.4662" lon="1.00629">
        <ele>152</ele>
        <time>2012-04-01T06:07:00Z</time>
      </trkpt>
      <trkpt lat="44.46619" lon="1.00628">
        <ele>153</ele>
        <time>2012-04-01T06:07:01Z</time>
      </trkpt>
      <trkpt lat="44.46617" lon="1.00626">
        <ele>154</ele>
        <time>2012-04-01T06:07:02Z</time>
      </trkpt>
      <trkpt lat="44.46615" lon="1.00625">
        <ele>154</ele>
        <time>2012-04-01T06:07:03Z</time>
      </trkpt>
      <trkpt lat="44.46613" lon="1.00625">
        <ele>155</ele>
        <time>2012-04-01T06:07:04Z</time>
      </trkpt>
      <trkpt lat="44.46611" lon="1.00624">
        <ele>155</ele>
        <time>2012-04-01T06:07:05Z</time>
      </trkpt>
      <trkpt lat="44.46609" lon="1.00623">
        <ele>156</ele>
        <time>2012-04-01T06:07:06Z</time>
      </trkpt>
      <trkpt lat="44.46606" lon="1.00623">
        <ele>156</ele>
        <time>2012-04-01T06:07:07Z</time>
      </trkpt>
      <trkpt lat="44.46604" lon="1.00622">
        <ele>157</ele>
        <time>2012-04-01T06:07:08Z</time>
      </trkpt>
      <trkpt lat="44.46601" lon="1.00621">
        <ele>157</ele>
        <time>2012-04-01T06:07:09Z</time>
      </trkpt>
      <trkpt lat="44.466" lon="1.00621">
        <ele>157</ele>
        <time>2012-04-01T06:07:10Z</time>
      </trkpt>
      <trkpt lat="44.46598" lon="1.00621">
        <ele>157</ele>
        <time>2012-04-01T06:07:11Z</time>
      </trkpt>
      <trkpt lat="44.46596" lon="1.0062">
        <ele>158</ele>
        <time>2012-04-01T06:07:12Z</time>
      </trkpt>
      <trkpt lat="44.46595" lon="1.0062">
        <ele>158</ele>
        <time>2012-04-01T06:07:13Z</time>
      </trkpt>
      <trkpt lat="44.46593" lon="1.00619">
        <ele>158</ele>
        <time>2012-04-01T06:07:14Z</time>
      </trkpt>
      <trkpt lat="44.46591" lon="1.00619">
        <ele>158</ele>
        <time>2012-04-01T06:07:15Z</time>
      </trkpt>
      <trkpt lat="44.46589" lon="1.00619">
        <ele>158</ele>
        <time>2012-04-01T06:07:16Z</time>
      </trkpt>
      <trkpt lat="44.46587" lon="1.00619">
        <ele>158</ele>
        <time>2012-04-01T06:07:17Z</time>
      </trkpt>
      <trkpt lat="44.46586" lon="1.00618">
        <ele>158</ele>
        <time>2012-04-01T06:07:18Z</time>
      </trkpt>
      <trkpt lat="44.46585" lon="1.00617">
        <ele>158</ele>
        <time>2012-04-01T06:07:19Z</time>
      </trkpt>
      <trkpt lat="44.46583" lon="1.00616">
        <ele>158</ele>
        <time>2012-04-01T06:07:20Z</time>
      </trkpt>
      <trkpt lat="44.46581" lon="1.00616">
        <ele>158</ele>
        <time>2012-04-01T06:07:21Z</time>
      </trkpt>
      <trkpt lat="44.46579" lon="1.00615">
        <ele>159</ele>
        <time>2012-04-01T06:07:22Z</time>
      </trkpt>
      <trkpt lat="44.46578" lon="1.00614">
        <ele>159</ele>
        <time>2012-04-01T06:07:23Z</time>
      </trkpt>
      <trkpt lat="44.46577" lon="1.00613">
        <ele>159</ele>
        <time>2012-04-01T06:07:24Z</time>
      </trkpt>
      <trkpt lat="44.46574" lon="1.00612">
        <ele>160</ele>
        <time>2012-04-01T06:07:24Z</time>
      </trkpt>
      <trkpt lat="44.46572" lon="1.00609">
        <ele>160</ele>
        <time>2012-04-01T06:07:27Z</time>
      </trkpt>
      <trkpt lat="44.4657" lon="1.00608">
        <ele>160</ele>
        <time>2012-04-01T06:07:28Z</time>
      </trkpt>
      <trkpt lat="44.46568" lon="1.00606">
        <ele>160</ele>
        <time>2012-04-01T06:07:29Z</time>
      </trkpt>
      <trkpt lat="44.46566" lon="1.00604">
        <ele>160</ele>
        <time>2012-04-01T06:07:30Z</time>
      </trkpt>
      <trkpt lat="44.46565" lon="1.00603">
        <ele>160</ele>
        <time>2012-04-01T06:07:31Z</time>
      </trkpt>
      <trkpt lat="44.46563" lon="1.00601">
        <ele>161</ele>
        <time>2012-04-01T06:07:32Z</time>
      </trkpt>
      <trkpt lat="44.46561" lon="1.006">
        <ele>161</ele>
        <time>2012-04-01T06:07:33Z</time>
      </trkpt>
      <trkpt lat="44.46559" lon="1.00598">
        <ele>161</ele>
        <time>2012-04-01T06:07:34Z</time>
      </trkpt>
      <trkpt lat="44.46557" lon="1.00596">
        <ele>162</ele>
        <time>2012-04-01T06:07:35Z</time>
      </trkpt>
      <trkpt lat="44.46555" lon="1.00593">
        <ele>162</ele>
        <time>2012-04-01T06:07:36Z</time>
      </trkpt>
      <trkpt lat="44.46553" lon="1.00591">
        <ele>162</ele>
        <time>2012-04-01T06:07:37Z</time>
      </trkpt>
      <trkpt lat="44.46551" lon="1.00589">
        <ele>162</ele>
        <time>2012-04-01T06:07:38Z</time>
      </trkpt>
      <trkpt lat="44.46549" lon="1.00587">
        <ele>163</ele>
        <time>2012-04-01T06:07:39Z</time>
      </trkpt>
      <trkpt lat="44.46547" lon="1.00585">
        <ele>163</ele>
        <time>2012-04-01T06:07:40Z</time>
      </trkpt>
      <trkpt lat="44.46545" lon="1.00583">
        <ele>163</ele>
        <time>2012-04-01T06:07:41Z</time>
      </trkpt>
      <trkpt lat="44.46543" lon="1.00581">
        <ele>164</ele>
        <time>2012-04-01T06:07:42Z</time>
      </trkpt>
      <trkpt lat="44.46541" lon="1.00579">
        <ele>164</ele>
        <time>2012-04-01T06:07:43Z</time>
      </trkpt>
      <trkpt lat="44.46539" lon="1.00577">
        <ele>165</ele>
        <time>2012-04-01T06:07:44Z</time>
      </trkpt>
      <trkpt lat="44.46538" lon="1.00575">
        <ele>165</ele>
        <time>2012-04-01T06:07:45Z</time>
      </trkpt>
      <trkpt lat="44.46536" lon="1.00573">
        <ele>166</ele>
        <time>2012-04-01T06:07:46Z</time>
      </trkpt>
      <trkpt lat="44.46535" lon="1.00571">
        <ele>166</ele>
        <time>2012-04-01T06:07:47Z</time>
      </trkpt>
      <trkpt lat="44.46534" lon="1.00569">
        <ele>167</ele>
        <time>2012-04-01T06:07:48Z</time>
      </trkpt>
      <trkpt lat="44.46532" lon="1.00566">
        <ele>167</ele>
        <time>2012-04-01T06:07:49Z</time>
      </trkpt>
      <trkpt lat="44.46531" lon="1.00564">
        <ele>167</ele>
        <time>2012-04-01T06:07:50Z</time>
      </trkpt>
      <trkpt lat="44.46529" lon="1.00562">
        <ele>167</ele>
        <time>2012-04-01T06:07:51Z</time>
      </trkpt>
      <trkpt lat="44.46527" lon="1.0056">
        <ele>167</ele>
        <time>2012-04-01T06:07:52Z</time>
      </trkpt>
      <trkpt lat="44.46526" lon="1.00558">
        <ele>167</ele>
        <time>2012-04-01T06:07:53Z</time>
      </trkpt>
      <trkpt lat="44.46526" lon="1.00556">
        <ele>167</ele>
        <time>2012-04-01T06:07:54Z</time>
      </trkpt>
      <trkpt lat="44.46525" lon="1.00554">
        <ele>168</ele>
        <time>2012-04-01T06:07:55Z</time>
      </trkpt>
      <trkpt lat="44.46524" lon="1.00552">
        <ele>168</ele>
        <time>2012-04-01T06:07:56Z</time>
      </trkpt>
      <trkpt lat="44.46523" lon="1.0055">
        <ele>169</ele>
        <time>2012-04-01T06:07:57Z</time>
      </trkpt>
      <trkpt lat="44.46521" lon="1.00549">
        <ele>169</ele>
        <time>2012-04-01T06:07:58Z</time>
      </trkpt>
      <trkpt lat="44.4652" lon="1.00547">
        <ele>170</ele>
        <time>2012-04-01T06:07:59Z</time>
      </trkpt>
      <trkpt lat="44.46519" lon="1.00545">
        <ele>171</ele>
        <time>2012-04-01T06:08:00Z</time>
      </trkpt>
      <trkpt lat="44.46518" lon="1.00544">
        <ele>171</ele>
        <time>2012-04-01T06:08:01Z</time>
      </trkpt>
      <trkpt lat="44.46516" lon="1.00542">
        <ele>172</ele>
        <time>2012-04-01T06:08:02Z</time>
      </trkpt>
      <trkpt lat="44.46514" lon="1.0054">
        <ele>172</ele>
        <time>2012-04-01T06:08:03Z</time>
      </trkpt>
      <trkpt lat="44.46513" lon="1.00539">
        <ele>173</ele>
        <time>2012-04-01T06:08:04Z</time>
      </trkpt>
      <trkpt lat="44.46512" lon="1.00538">
        <ele>173</ele>
        <time>2012-04-01T06:08:05Z</time>
      </trkpt>
      <trkpt lat="44.46511" lon="1.00536">
        <ele>173</ele>
        <time>2012-04-01T06:08:06Z</time>
      </trkpt>
      <trkpt lat="44.4651" lon="1.00535">
        <ele>174</ele>
        <time>2012-04-01T06:08:07Z</time>
      </trkpt>
      <trkpt lat="44.46507" lon="1.00532">
        <ele>175</ele>
        <time>2012-04-01T06:08:09Z</time>
      </trkpt>
      <trkpt lat="44.46506" lon="1.00531">
        <ele>175</ele>
        <time>2012-04-01T06:08:10Z</time>
      </trkpt>
      <trkpt lat="44.46504" lon="1.0053">
        <ele>176</ele>
        <time>2012-04-01T06:08:11Z</time>
      </trkpt>
      <trkpt lat="44.46503" lon="1.00528">
        <ele>176</ele>
        <time>2012-04-01T06:08:12Z</time>
      </trkpt>
      <trkpt lat="44.46502" lon="1.00527">
        <ele>177</ele>
        <time>2012-04-01T06:08:13Z</time>
      </trkpt>
      <trkpt lat="44.465" lon="1.00526">
        <ele>177</ele>
        <time>2012-04-01T06:08:14Z</time>
      </trkpt>
      <trkpt lat="44.46498" lon="1.00525">
        <ele>177</ele>
        <time>2012-04-01T06:08:15Z</time>
      </trkpt>
      <trkpt lat="44.46496" lon="1.00524">
        <ele>177</ele>
        <time>2012-04-01T06:08:16Z</time>
      </trkpt>
      <trkpt lat="44.46495" lon="1.00523">
        <ele>177</ele>
        <time>2012-04-01T06:08:17Z</time>
      </trkpt>
      <trkpt lat="44.46494" lon="1.00522">
        <ele>177</ele>
        <time>2012-04-01T06:08:18Z</time>
      </trkpt>
      <trkpt lat="44.46491" lon="1.0052">
        <ele>177</ele>
        <time>2012-04-01T06:08:19Z</time>
      </trkpt>
      <trkpt lat="44.4649" lon="1.00519">
        <ele>177</ele>
        <time>2012-04-01T06:08:20Z</time>
      </trkpt>
      <trkpt lat="44.46488" lon="1.00517">
        <ele>177</ele>
        <time>2012-04-01T06:08:21Z</time>
      </trkpt>
      <trkpt lat="44.46486" lon="1.00516">
        <ele>177</ele>
        <time>2012-04-01T06:08:22Z</time>
      </trkpt>
      <trkpt lat="44.46484" lon="1.00514">
        <ele>177</ele>
        <time>2012-04-01T06:08:23Z</time>
      </trkpt>
      <trkpt lat="44.46482" lon="1.00513">
        <ele>177</ele>
        <time>2012-04-01T06:08:24Z</time>
      </trkpt>
      <trkpt lat="44.46481" lon="1.00512">
        <ele>177</ele>
        <time>2012-04-01T06:08:25Z</time>
      </trkpt>
      <trkpt lat="44.46479" lon="1.0051">
        <ele>177</ele>
        <time>2012-04-01T06:08:26Z</time>
      </trkpt>
      <trkpt lat="44.46478" lon="1.00509">
        <ele>177</ele>
        <time>2012-04-01T06:08:27Z</time>
      </trkpt>
      <trkpt lat="44.46476" lon="1.00508">
        <ele>177</ele>
        <time>2012-04-01T06:08:28Z</time>
      </trkpt>
      <trkpt lat="44.46474" lon="1.00506">
        <ele>177</ele>
        <time>2012-04-01T06:08:29Z</time>
      </trkpt>
      <trkpt lat="44.46473" lon="1.00505">
        <ele>177</ele>
        <time>2012-04-01T06:08:30Z</time>
      </trkpt>
      <trkpt lat="44.46471" lon="1.00504">
        <ele>177</ele>
        <time>2012-04-01T06:08:31Z</time>
      </trkpt>
      <trkpt lat="44.4647" lon="1.00503">
        <ele>178</ele>
        <time>2012-04-01T06:08:32Z</time>
      </trkpt>
      <trkpt lat="44.46468" lon="1.00502">
        <ele>178</ele>
        <time>2012-04-01T06:08:33Z</time>
      </trkpt>
      <trkpt lat="44.46467" lon="1.00501">
        <ele>178</ele>
        <time>2012-04-01T06:08:34Z</time>
      </trkpt>
      <trkpt lat="44.46465" lon="1.005">
        <ele>178</ele>
        <time>2012-04-01T06:08:35Z</time>
      </trkpt>
      <trkpt lat="44.46463" lon="1.00499">
        <ele>179</ele>
        <time>2012-04-01T06:08:36Z</time>
      </trkpt>
      <trkpt lat="44.46462" lon="1.00497">
        <ele>179</ele>
        <time>2012-04-01T06:08:37Z</time>
      </trkpt>
      <trkpt lat="44.46461" lon="1.00496">
        <ele>179</ele>
        <time>2012-04-01T06:08:37Z</time>
      </trkpt>
      <trkpt lat="44.46459" lon="1.00495">
        <ele>179</ele>
        <time>2012-04-01T06:08:39Z</time>
      </trkpt>
      <trkpt lat="44.46458" lon="1.00494">
        <ele>179</ele>
        <time>2012-04-01T06:08:40Z</time>
      </trkpt>
      <trkpt lat="44.46456" lon="1.00493">
        <ele>179</ele>
        <time>2012-04-01T06:08:41Z</time>
      </trkpt>
      <trkpt lat="44.46454" lon="1.00492">
        <ele>180</ele>
        <time>2012-04-01T06:08:42Z</time>
      </trkpt>
      <trkpt lat="44.46452" lon="1.00491">
        <ele>180</ele>
        <time>2012-04-01T06:08:43Z</time>
      </trkpt>
      <trkpt lat="44.4645" lon="1.00491">
        <ele>180</ele>
        <time>2012-04-01T06:08:44Z</time>
      </trkpt>
      <trkpt lat="44.46449" lon="1.0049">
        <ele>181</ele>
        <time>2012-04-01T06:08:45Z</time>
      </trkpt>
      <trkpt lat="44.46447" lon="1.00488">
        <ele>181</ele>
        <time>2012-04-01T06:08:45Z</time>
      </trkpt>
      <trkpt lat="44.46445" lon="1.00487">
        <ele>181</ele>
        <time>2012-04-01T06:08:46Z</time>
      </trkpt>
      <trkpt lat="44.46443" lon="1.00485">
        <ele>181</ele>
        <time>2012-04-01T06:08:48Z</time>
      </trkpt>
      <trkpt lat="44.46441" lon="1.00483">
        <ele>181</ele>
        <time>2012-04-01T06:08:49Z</time>
      </trkpt>
      <trkpt lat="44.46439" lon="1.0048">
        <ele>181</ele>
        <time>2012-04-01T06:08:49Z</time>
      </trkpt>
      <trkpt lat="44.46438" lon="1.00478">
        <ele>181</ele>
        <time>2012-04-01T06:08:50Z</time>
      </trkpt>
      <trkpt lat="44.46436" lon="1.00475">
        <ele>181</ele>
        <time>2012-04-01T06:08:52Z</time>
      </trkpt>
      <trkpt lat="44.46435" lon="1.00472">
        <ele>181</ele>
        <time>2012-04-01T06:08:53Z</time>
      </trkpt>
      <trkpt lat="44.46433" lon="1.0047">
        <ele>181</ele>
        <time>2012-04-01T06:08:54Z</time>
      </trkpt>
      <trkpt lat="44.46431" lon="1.00468">
        <ele>181</ele>
        <time>2012-04-01T06:08:55Z</time>
      </trkpt>
      <trkpt lat="44.4643" lon="1.00465">
        <ele>181</ele>
        <time>2012-04-01T06:08:56Z</time>
      </trkpt>
      <trkpt lat="44.46429" lon="1.00462">
        <ele>181</ele>
        <time>2012-04-01T06:08:57Z</time>
      </trkpt>
      <trkpt lat="44.46427" lon="1.00459">
        <ele>181</ele>
        <time>2012-04-01T06:08:58Z</time>
      </trkpt>
      <trkpt lat="44.46426" lon="1.00456">
        <ele>181</ele>
        <time>2012-04-01T06:08:58Z</time>
      </trkpt>
      <trkpt lat="44.46424" lon="1.00454">
        <ele>181</ele>
        <time>2012-04-01T06:09:00Z</time>
      </trkpt>
      <trkpt lat="44.46423" lon="1.00451">
        <ele>181</ele>
        <time>2012-04-01T06:09:01Z</time>
      </trkpt>
      <trkpt lat="44.46421" lon="1.00448">
        <ele>181</ele>
        <time>2012-04-01T06:09:02Z</time>
      </trkpt>
      <trkpt lat="44.4642" lon="1.00445">
        <ele>181</ele>
        <time>2012-04-01T06:09:03Z</time>
      </trkpt>
      <trkpt lat="44.46419" lon="1.00442">
        <ele>181</ele>
        <time>2012-04-01T06:09:04Z</time>
      </trkpt>
      <trkpt lat="44.46417" lon="1.00439">
        <ele>181</ele>
        <time>2012-04-01T06:09:05Z</time>
      </trkpt>
      <trkpt lat="44.46415" lon="1.00436">
        <ele>181</ele>
        <time>2012-04-01T06:09:06Z</time>
      </trkpt>
      <trkpt lat="44.46414" lon="1.00433">
        <ele>181</ele>
        <time>2012-04-01T06:09:07Z</time>
      </trkpt>
      <trkpt lat="44.46412" lon="1.0043">
        <ele>181</ele>
        <time>2012-04-01T06:09:08Z</time>
      </trkpt>
      <trkpt lat="44.4641" lon="1.00427">
        <ele>181</ele>
        <time>2012-04-01T06:09:09Z</time>
      </trkpt>
      <trkpt lat="44.46407" lon="1.00424">
        <ele>181</ele>
        <time>2012-04-01T06:09:10Z</time>
      </trkpt>
      <trkpt lat="44.46405" lon="1.00421">
        <ele>181</ele>
        <time>2012-04-01T06:09:11Z</time>
      </trkpt>
      <trkpt lat="44.46402" lon="1.00418">
        <ele>181</ele>
        <time>2012-04-01T06:09:12Z</time>
      </trkpt>
      <trkpt lat="44.46399" lon="1.00415">
        <ele>181</ele>
        <time>2012-04-01T06:09:13Z</time>
      </trkpt>
      <trkpt lat="44.46396" lon="1.00411">
        <ele>181</ele>
        <time>2012-04-01T06:09:14Z</time>
      </trkpt>
      <trkpt lat="44.46393" lon="1.00408">
        <ele>181</ele>
        <time>2012-04-01T06:09:15Z</time>
      </trkpt>
      <trkpt lat="44.4639" lon="1.00405">
        <ele>181</ele>
        <time>2012-04-01T06:09:15Z</time>
      </trkpt>
      <trkpt lat="44.46387" lon="1.00401">
        <ele>181</ele>
        <time>2012-04-01T06:09:17Z</time>
      </trkpt>
      <trkpt lat="44.46384" lon="1.00398">
        <ele>181</ele>
        <time>2012-04-01T06:09:18Z</time>
      </trkpt>
      <trkpt lat="44.46382" lon="1.00394">
        <ele>181</ele>
        <time>2012-04-01T06:09:19Z</time>
      </trkpt>
      <trkpt lat="44.46381" lon="1.0039">
        <ele>181</ele>
        <time>2012-04-01T06:09:20Z</time>
      </trkpt>
      <trkpt lat="44.46381" lon="1.00385">
        <ele>181</ele>
        <time>2012-04-01T06:09:21Z</time>
      </trkpt>
      <trkpt lat="44.46382" lon="1.0038">
        <ele>181</ele>
        <time>2012-04-01T06:09:22Z</time>
      </trkpt>
      <trkpt lat="44.46384" lon="1.00375">
        <ele>181</ele>
        <time>2012-04-01T06:09:23Z</time>
      </trkpt>
      <trkpt lat="44.46385" lon="1.00371">
        <ele>181</ele>
        <time>2012-04-01T06:09:24Z</time>
      </trkpt>
      <trkpt lat="44.46387" lon="1.00366">
        <ele>181</ele>
        <time>2012-04-01T06:09:24Z</time>
      </trkpt>
      <trkpt lat="44.46389" lon="1.0036">
        <ele>181</ele>
        <time>2012-04-01T06:09:26Z</time>
      </trkpt>
      <trkpt lat="44.46391" lon="1.00355">
        <ele>181</ele>
        <time>2012-04-01T06:09:27Z</time>
      </trkpt>
      <trkpt lat="44.46392" lon="1.00349">
        <ele>181</ele>
        <time>2012-04-01T06:09:28Z</time>
      </trkpt>
      <trkpt lat="44.46394" lon="1.00344">
        <ele>181</ele>
        <time>2012-04-01T06:09:29Z</time>
      </trkpt>
      <trkpt lat="44.46396" lon="1.00338">
        <ele>181</ele>
        <time>2012-04-01T06:09:30Z</time>
      </trkpt>
      <trkpt lat="44.46397" lon="1.00332">
        <ele>181</ele>
        <time>2012-04-01T06:09:30Z</time>
      </trkpt>
      <trkpt lat="44.46398" lon="1.00326">
        <ele>181</ele>
        <time>2012-04-01T06:09:32Z</time>
      </trkpt>
      <trkpt lat="44.46399" lon="1.00321">
        <ele>181</ele>
        <time>2012-04-01T06:09:33Z</time>
      </trkpt>
      <trkpt lat="44.46401" lon="1.00315">
        <ele>181</ele>
        <time>2012-04-01T06:09:33Z</time>
      </trkpt>
      <trkpt lat="44.46402" lon="1.00309">
        <ele>181</ele>
        <time>2012-04-01T06:09:34Z</time>
      </trkpt>
      <trkpt lat="44.46403" lon="1.00303">
        <ele>181</ele>
        <time>2012-04-01T06:09:36Z</time>
      </trkpt>
      <trkpt lat="44.46403" lon="1.00297">
        <ele>181</ele>
        <time>2012-04-01T06:09:37Z</time>
      </trkpt>
      <trkpt lat="44.46404" lon="1.0029">
        <ele>181</ele>
        <time>2012-04-01T06:09:38Z</time>
      </trkpt>
      <trkpt lat="44.46404" lon="1.00284">
        <ele>181</ele>
        <time>2012-04-01T06:09:39Z</time>
      </trkpt>
      <trkpt lat="44.46404" lon="1.00276">
        <ele>181</ele>
        <time>2012-04-01T06:09:39Z</time>
      </trkpt>
      <trkpt lat="44.46404" lon="1.00269">
        <ele>181</ele>
        <time>2012-04-01T06:09:41Z</time>
      </trkpt>
      <trkpt lat="44.46403" lon="1.00261">
        <ele>181</ele>
        <time>2012-04-01T06:09:42Z</time>
      </trkpt>
      <trkpt lat="44.46402" lon="1.00253">
        <ele>180</ele>
        <time>2012-04-01T06:09:43Z</time>
      </trkpt>
      <trkpt lat="44.46402" lon="1.00244">
        <ele>180</ele>
        <time>2012-04-01T06:09:44Z</time>
      </trkpt>
      <trkpt lat="44.46401" lon="1.00236">
        <ele>180</ele>
        <time>2012-04-01T06:09:45Z</time>
      </trkpt>
      <trkpt lat="44.464" lon="1.00228">
        <ele>180</ele>
        <time>2012-04-01T06:09:45Z</time>
      </trkpt>
      <trkpt lat="44.46399" lon="1.0022">
        <ele>179</ele>
        <time>2012-04-01T06:09:47Z</time>
      </trkpt>
      <trkpt lat="44.46398" lon="1.00211">
        <ele>179</ele>
        <time>2012-04-01T06:09:48Z</time>
      </trkpt>
      <trkpt lat="44.46397" lon="1.00203">
        <ele>179</ele>
        <time>2012-04-01T06:09:49Z</time>
      </trkpt>
      <trkpt lat="44.46395" lon="1.00194">
        <ele>178</ele>
        <time>2012-04-01T06:09:50Z</time>
      </trkpt>
      <trkpt lat="44.46394" lon="1.00186">
        <ele>178</ele>
        <time>2012-04-01T06:09:51Z</time>
      </trkpt>
      <trkpt lat="44.46393" lon="1.00177">
        <ele>177</ele>
        <time>2012-04-01T06:09:52Z</time>
      </trkpt>
      <trkpt lat="44.46391" lon="1.00168">
        <ele>177</ele>
        <time>2012-04-01T06:09:53Z</time>
      </trkpt>
      <trkpt lat="44.4639" lon="1.00159">
        <ele>177</ele>
        <time>2012-04-01T06:09:54Z</time>
      </trkpt>
      <trkpt lat="44.46388" lon="1.0015">
        <ele>177</ele>
        <time>2012-04-01T06:09:55Z</time>
      </trkpt>
      <trkpt lat="44.46387" lon="1.00141">
        <ele>176</ele>
        <time>2012-04-01T06:09:56Z</time>
      </trkpt>
      <trkpt lat="44.46384" lon="1.00133">
        <ele>176</ele>
        <time>2012-04-01T06:09:57Z</time>
      </trkpt>
      <trkpt lat="44.46382" lon="1.00125">
        <ele>176</ele>
        <time>2012-04-01T06:09:58Z</time>
      </trkpt>
      <trkpt lat="44.4638" lon="1.00118">
        <ele>176</ele>
        <time>2012-04-01T06:09:59Z</time>
      </trkpt>
      <trkpt lat="44.46378" lon="1.00112">
        <ele>176</ele>
        <time>2012-04-01T06:10:00Z</time>
      </trkpt>
      <trkpt lat="44.46376" lon="1.00108">
        <ele>176</ele>
        <time>2012-04-01T06:10:01Z</time>
      </trkpt>
      <trkpt lat="44.46373" lon="1.00107">
        <ele>176</ele>
        <time>2012-04-01T06:10:02Z</time>
      </trkpt>
      <trkpt lat="44.46369" lon="1.00108">
        <ele>176</ele>
        <time>2012-04-01T06:10:03Z</time>
      </trkpt>
      <trkpt lat="44.46365" lon="1.0011">
        <ele>176</ele>
        <time>2012-04-01T06:10:04Z</time>
      </trkpt>
      <trkpt lat="44.4636" lon="1.00115">
        <ele>176</ele>
        <time>2012-04-01T06:10:05Z</time>
      </trkpt>
      <trkpt lat="44.46355" lon="1.0012">
        <ele>176</ele>
        <time>2012-04-01T06:10:05Z</time>
      </trkpt>
      <trkpt lat="44.4635" lon="1.00124">
        <ele>176</ele>
        <time>2012-04-01T06:10:07Z</time>
      </trkpt>
      <trkpt lat="44.46344" lon="1.00129">
        <ele>175</ele>
        <time>2012-04-01T06:10:08Z</time>
      </trkpt>
      <trkpt lat="44.46337" lon="1.00134">
        <ele>174</ele>
        <time>2012-04-01T06:10:09Z</time>
      </trkpt>
      <trkpt lat="44.46331" lon="1.00141">
        <ele>173</ele>
        <time>2012-04-01T06:10:10Z</time>
      </trkpt>
      <trkpt lat="44.46324" lon="1.00148">
        <ele>172</ele>
        <time>2012-04-01T06:10:11Z</time>
      </trkpt>
      <trkpt lat="44.46318" lon="1.00156">
        <ele>171</ele>
        <time>2012-04-01T06:10:12Z</time>
      </trkpt>
      <trkpt lat="44.46312" lon="1.00165">
        <ele>170</ele>
        <time>2012-04-01T06:10:13Z</time>
      </trkpt>
      <trkpt lat="44.46305" lon="1.00175">
        <ele>169</ele>
        <time>2012-04-01T06:10:14Z</time>
      </trkpt>
      <trkpt lat="44.46299" lon="1.00185">
        <ele>168</ele>
        <time>2012-04-01T06:10:14Z</time>
      </trkpt>
      <trkpt lat="44.46292" lon="1.00196">
        <ele>167</ele>
        <time>2012-04-01T06:10:15Z</time>
      </trkpt>
      <trkpt lat="44.46285" lon="1.00206">
        <ele>166</ele>
        <time>2012-04-01T06:10:16Z</time>
      </trkpt>
      <trkpt lat="44.46278" lon="1.00216">
        <ele>165</ele>
        <time>2012-04-01T06:10:17Z</time>
      </trkpt>
      <trkpt lat="44.46271" lon="1.00225">
        <ele>164</ele>
        <time>2012-04-01T06:10:18Z</time>
      </trkpt>
      <trkpt lat="44.46262" lon="1.00234">
        <ele>163</ele>
        <time>2012-04-01T06:10:19Z</time>
      </trkpt>
      <trkpt lat="44.46253" lon="1.0024">
        <ele>162</ele>
        <time>2012-04-01T06:10:20Z</time>
      </trkpt>
      <trkpt lat="44.46243" lon="1.00243">
        <ele>161</ele>
        <time>2012-04-01T06:10:21Z</time>
      </trkpt>
      <trkpt lat="44.46233" lon="1.00244">
        <ele>160</ele>
        <time>2012-04-01T06:10:23Z</time>
      </trkpt>
      <trkpt lat="44.46223" lon="1.00244">
        <ele>160</ele>
        <time>2012-04-01T06:10:24Z</time>
      </trkpt>
      <trkpt lat="44.46213" lon="1.00243">
        <ele>160</ele>
        <time>2012-04-01T06:10:25Z</time>
      </trkpt>
      <trkpt lat="44.46203" lon="1.00242">
        <ele>160</ele>
        <time>2012-04-01T06:10:25Z</time>
      </trkpt>
      <trkpt lat="44.46193" lon="1.00241">
        <ele>160</ele>
        <time>2012-04-01T06:10:27Z</time>
      </trkpt>
      <trkpt lat="44.46183" lon="1.0024">
        <ele>160</ele>
        <time>2012-04-01T06:10:28Z</time>
      </trkpt>
      <trkpt lat="44.46174" lon="1.00239">
        <ele>160</ele>
        <time>2012-04-01T06:10:29Z</time>
      </trkpt>
      <trkpt lat="44.46164" lon="1.00238">
        <ele>160</ele>
        <time>2012-04-01T06:10:29Z</time>
      </trkpt>
      <trkpt lat="44.46155" lon="1.00239">
        <ele>160</ele>
        <time>2012-04-01T06:10:30Z</time>
      </trkpt>
      <trkpt lat="44.46146" lon="1.0024">
        <ele>160</ele>
        <time>2012-04-01T06:10:32Z</time>
      </trkpt>
      <trkpt lat="44.46136" lon="1.00241">
        <ele>160</ele>
        <time>2012-04-01T06:10:33Z</time>
      </trkpt>
      <trkpt lat="44.46127" lon="1.00243">
        <ele>160</ele>
        <time>2012-04-01T06:10:33Z</time>
      </trkpt>
      <trkpt lat="44.46118" lon="1.00245">
        <ele>160</ele>
        <time>2012-04-01T06:10:34Z</time>
      </trkpt>
      <trkpt lat="44.46109" lon="1.00248">
        <ele>160</ele>
        <time>2012-04-01T06:10:35Z</time>
      </trkpt>
      <trkpt lat="44.46099" lon="1.0025">
        <ele>160</ele>
        <time>2012-04-01T06:10:36Z</time>
      </trkpt>
      <trkpt lat="44.46089" lon="1.00253">
        <ele>160</ele>
        <time>2012-04-01T06:10:38Z</time>
      </trkpt>
      <trkpt lat="44.46079" lon="1.00254">
        <ele>160</ele>
        <time>2012-04-01T06:10:38Z</time>
      </trkpt>
      <trkpt lat="44.46069" lon="1.00253">
        <ele>160</ele>
        <time>2012-04-01T06:10:40Z</time>
      </trkpt>
      <trkpt lat="44.46059" lon="1.00252">
        <ele>160</ele>
        <time>2012-04-01T06:10:40Z</time>
      </trkpt>
      <trkpt lat="44.46049" lon="1.00251">
        <ele>160</ele>
        <time>2012-04-01T06:10:41Z</time>
      </trkpt>
      <trkpt lat="44.4604" lon="1.00249">
        <ele>160</ele>
        <time>2012-04-01T06:10:43Z</time>
      </trkpt>
      <trkpt lat="44.46031" lon="1.00247">
        <ele>160</ele>
        <time>2012-04-01T06:10:43Z</time>
      </trkpt>
      <trkpt lat="44.46022" lon="1.00245">
        <ele>159</ele>
        <time>2012-04-01T06:10:44Z</time>
      </trkpt>
      <trkpt lat="44.46012" lon="1.00242">
        <ele>159</ele>
        <time>2012-04-01T06:10:45Z</time>
      </trkpt>
      <trkpt lat="44.46003" lon="1.00239">
        <ele>159</ele>
        <time>2012-04-01T06:10:47Z</time>
      </trkpt>
      <trkpt lat="44.45994" lon="1.00237">
        <ele>158</ele>
        <time>2012-04-01T06:10:48Z</time>
      </trkpt>
      <trkpt lat="44.45983" lon="1.00235">
        <ele>158</ele>
        <time>2012-04-01T06:10:49Z</time>
      </trkpt>
      <trkpt lat="44.45973" lon="1.00235">
        <ele>157</ele>
        <time>2012-04-01T06:10:49Z</time>
      </trkpt>
      <trkpt lat="44.45963" lon="1.00235">
        <ele>157</ele>
        <time>2012-04-01T06:10:51Z</time>
      </trkpt>
      <trkpt lat="44.45953" lon="1.00235">
        <ele>156</ele>
        <time>2012-04-01T06:10:51Z</time>
      </trkpt>
      <trkpt lat="44.45944" lon="1.00236">
        <ele>156</ele>
        <time>2012-04-01T06:10:53Z</time>
      </trkpt>
      <trkpt lat="44.45935" lon="1.00238">
        <ele>155</ele>
        <time>2012-04-01T06:10:53Z</time>
      </trkpt>
      <trkpt lat="44.45926" lon="1.00239">
        <ele>155</ele>
        <time>2012-04-01T06:10:55Z</time>
      </trkpt>
      <trkpt lat="44.45917" lon="1.0024">
        <ele>155</ele>
        <time>2012-04-01T06:10:56Z</time>
      </trkpt>
      <trkpt lat="44.45908" lon="1.00242">
        <ele>154</ele>
        <time>2012-04-01T06:10:57Z</time>
      </trkpt>
      <trkpt lat="44.459" lon="1.00245">
        <ele>154</ele>
        <time>2012-04-01T06:10:57Z</time>
      </trkpt>
      <trkpt lat="44.45892" lon="1.00248">
        <ele>154</ele>
        <time>2012-04-01T06:10:59Z</time>
      </trkpt>
      <trkpt lat="44.45883" lon="1.00251">
        <ele>154</ele>
        <time>2012-04-01T06:10:59Z</time>
      </trkpt>
      <trkpt lat="44.45875" lon="1.00254">
        <ele>154</ele>
        <time>2012-04-01T06:11:00Z</time>
      </trkpt>
      <trkpt lat="44.45866" lon="1.00258">
        <ele>153</ele>
        <time>2012-04-01T06:11:01Z</time>
      </trkpt>
      <trkpt lat="44.45858" lon="1.00262">
        <ele>153</ele>
        <time>2012-04-01T06:11:02Z</time>
      </trkpt>
      <trkpt lat="44.4585" lon="1.00266">
        <ele>153</ele>
        <time>2012-04-01T06:11:03Z</time>
      </trkpt>
      <trkpt lat="44.45842" lon="1.0027">
        <ele>153</ele>
        <time>2012-04-01T06:11:04Z</time>
      </trkpt>
      <trkpt lat="44.45834" lon="1.00274">
        <ele>152</ele>
        <time>2012-04-01T06:11:05Z</time>
      </trkpt>
      <trkpt lat="44.45827" lon="1.00278">
        <ele>152</ele>
        <time>2012-04-01T06:11:06Z</time>
      </trkpt>
      <trkpt lat="44.45819" lon="1.00282">
        <ele>152</ele>
        <time>2012-04-01T06:11:07Z</time>
      </trkpt>
      <trkpt lat="44.45812" lon="1.00286">
        <ele>152</ele>
        <time>2012-04-01T06:11:08Z</time>
      </trkpt>
      <trkpt lat="44.45805" lon="1.0029">
        <ele>151</ele>
        <time>2012-04-01T06:11:09Z</time>
      </trkpt>
      <trkpt lat="44.45797" lon="1.00294">
        <ele>151</ele>
        <time>2012-04-01T06:11:10Z</time>
      </trkpt>
      <trkpt lat="44.4579" lon="1.00297">
        <ele>151</ele>
        <time>2012-04-01T06:11:11Z</time>
      </trkpt>
      <trkpt lat="44.45782" lon="1.00301">
        <ele>151</ele>
        <time>2012-04-01T06:11:12Z</time>
      </trkpt>
      <trkpt lat="44.45774" lon="1.00305">
        <ele>151</ele>
        <time>2012-04-01T06:11:13Z</time>
      </trkpt>
      <trkpt lat="44.45767" lon="1.00309">
        <ele>151</ele>
        <time>2012-04-01T06:11:14Z</time>
      </trkpt>
      <trkpt lat="44.45759" lon="1.00313">
        <ele>151</ele>
        <time>2012-04-01T06:11:15Z</time>
      </trkpt>
      <trkpt lat="44.45752" lon="1.00318">
        <ele>151</ele>
        <time>2012-04-01T06:11:16Z</time>
      </trkpt>
      <trkpt lat="44.45744" lon="1.00322">
        <ele>151</ele>
        <time>2012-04-01T06:11:17Z</time>
      </trkpt>
      <trkpt lat="44.45737" lon="1.00328">
        <ele>151</ele>
        <time>2012-04-01T06:11:19Z</time>
      </trkpt>
      <trkpt lat="44.45729" lon="1.00332">
        <ele>151</ele>
        <time>2012-04-01T06:11:19Z</time>
      </trkpt>
      <trkpt lat="44.45722" lon="1.00338">
        <ele>150</ele>
        <time>2012-04-01T06:11:20Z</time>
      </trkpt>
      <trkpt lat="44.45715" lon="1.00343">
        <ele>150</ele>
        <time>2012-04-01T06:11:21Z</time>
      </trkpt>
      <trkpt lat="44.45708" lon="1.00348">
        <ele>149</ele>
        <time>2012-04-01T06:11:22Z</time>
      </trkpt>
      <trkpt lat="44.45701" lon="1.00353">
        <ele>149</ele>
        <time>2012-04-01T06:11:23Z</time>
      </trkpt>
      <trkpt lat="44.45695" lon="1.00359">
        <ele>148</ele>
        <time>2012-04-01T06:11:24Z</time>
      </trkpt>
      <trkpt lat="44.45688" lon="1.00364">
        <ele>148</ele>
        <time>2012-04-01T06:11:25Z</time>
      </trkpt>
      <trkpt lat="44.45683" lon="1.0037">
        <ele>147</ele>
        <time>2012-04-01T06:11:26Z</time>
      </trkpt>
      <trkpt lat="44.45676" lon="1.00377">
        <ele>146</ele>
        <time>2012-04-01T06:11:27Z</time>
      </trkpt>
      <trkpt lat="44.4567" lon="1.00383">
        <ele>145</ele>
        <time>2012-04-01T06:11:29Z</time>
      </trkpt>
      <trkpt lat="44.45663" lon="1.00389">
        <ele>145</ele>
        <time>2012-04-01T06:11:29Z</time>
      </trkpt>
      <trkpt lat="44.45657" lon="1.00396">
        <ele>144</ele>
        <time>2012-04-01T06:11:30Z</time>
      </trkpt>
      <trkpt lat="44.45651" lon="1.00402">
        <ele>144</ele>
        <time>2012-04-01T06:11:31Z</time>
      </trkpt>
      <trkpt lat="44.45644" lon="1.00409">
        <ele>144</ele>
        <time>2012-04-01T06:11:32Z</time>
      </trkpt>
      <trkpt lat="44.45638" lon="1.00414">
        <ele>144</ele>
        <time>2012-04-01T06:11:33Z</time>
      </trkpt>
      <trkpt lat="44.45631" lon="1.00418">
        <ele>144</ele>
        <time>2012-04-01T06:11:34Z</time>
      </trkpt>
      <trkpt lat="44.45625" lon="1.00419">
        <ele>144</ele>
        <time>2012-04-01T06:11:35Z</time>
      </trkpt>
      <trkpt lat="44.45617" lon="1.00418">
        <ele>144</ele>
        <time>2012-04-01T06:11:36Z</time>
      </trkpt>
      <trkpt lat="44.4561" lon="1.00417">
        <ele>144</ele>
        <time>2012-04-01T06:11:37Z</time>
      </trkpt>
      <trkpt lat="44.45603" lon="1.00418">
        <ele>144</ele>
        <time>2012-04-01T06:11:38Z</time>
      </trkpt>
      <trkpt lat="44.45596" lon="1.00418">
        <ele>144</ele>
        <time>2012-04-01T06:11:39Z</time>
      </trkpt>
      <trkpt lat="44.45589" lon="1.0042">
        <ele>144</ele>
        <time>2012-04-01T06:11:40Z</time>
      </trkpt>
      <trkpt lat="44.45581" lon="1.00422">
        <ele>144</ele>
        <time>2012-04-01T06:11:41Z</time>
      </trkpt>
      <trkpt lat="44.45574" lon="1.00424">
        <ele>143</ele>
        <time>2012-04-01T06:11:42Z</time>
      </trkpt>
      <trkpt lat="44.45568" lon="1.00427">
        <ele>142</ele>
        <time>2012-04-01T06:11:43Z</time>
      </trkpt>
      <trkpt lat="44.4556" lon="1.0043">
        <ele>141</ele>
        <time>2012-04-01T06:11:44Z</time>
      </trkpt>
      <trkpt lat="44.45552" lon="1.00433">
        <ele>141</ele>
        <time>2012-04-01T06:11:45Z</time>
      </trkpt>
      <trkpt lat="44.45544" lon="1.00436">
        <ele>140</ele>
        <time>2012-04-01T06:11:46Z</time>
      </trkpt>
      <trkpt lat="44.45536" lon="1.00439">
        <ele>140</ele>
        <time>2012-04-01T06:11:47Z</time>
      </trkpt>
      <trkpt lat="44.45528" lon="1.00443">
        <ele>139</ele>
        <time>2012-04-01T06:11:48Z</time>
      </trkpt>
      <trkpt lat="44.4552" lon="1.00446">
        <ele>139</ele>
        <time>2012-04-01T06:11:49Z</time>
      </trkpt>
      <trkpt lat="44.45512" lon="1.0045">
        <ele>139</ele>
        <time>2012-04-01T06:11:50Z</time>
      </trkpt>
      <trkpt lat="44.45504" lon="1.00453">
        <ele>139</ele>
        <time>2012-04-01T06:11:51Z</time>
      </trkpt>
      <trkpt lat="44.45496" lon="1.00458">
        <ele>139</ele>
        <time>2012-04-01T06:11:52Z</time>
      </trkpt>
      <trkpt lat="44.45488" lon="1.00463">
        <ele>139</ele>
        <time>2012-04-01T06:11:53Z</time>
      </trkpt>
      <trkpt lat="44.4548" lon="1.00469">
        <ele>139</ele>
        <time>2012-04-01T06:11:54Z</time>
      </trkpt>
      <trkpt lat="44.45473" lon="1.00475">
        <ele>139</ele>
        <time>2012-04-01T06:11:55Z</time>
      </trkpt>
      <trkpt lat="44.45466" lon="1.00481">
        <ele>138</ele>
        <time>2012-04-01T06:11:56Z</time>
      </trkpt>
      <trkpt lat="44.45459" lon="1.00486">
        <ele>138</ele>
        <time>2012-04-01T06:11:57Z</time>
      </trkpt>
      <trkpt lat="44.45452" lon="1.00491">
        <ele>138</ele>
        <time>2012-04-01T06:11:58Z</time>
      </trkpt>
      <trkpt lat="44.45445" lon="1.00497">
        <ele>138</ele>
        <time>2012-04-01T06:11:59Z</time>
      </trkpt>
      <trkpt lat="44.45438" lon="1.00503">
        <ele>137</ele>
        <time>2012-04-01T06:12:00Z</time>
      </trkpt>
      <trkpt lat="44.45431" lon="1.00509">
        <ele>137</ele>
        <time>2012-04-01T06:12:01Z</time>
      </trkpt>
      <trkpt lat="44.45425" lon="1.00515">
        <ele>137</ele>
        <time>2012-04-01T06:12:02Z</time>
      </trkpt>
      <trkpt lat="44.45418" lon="1.0052">
        <ele>137</ele>
        <time>2012-04-01T06:12:03Z</time>
      </trkpt>
      <trkpt lat="44.45412" lon="1.00526">
        <ele>137</ele>
        <time>2012-04-01T06:12:04Z</time>
      </trkpt>
      <trkpt lat="44.45405" lon="1.00531">
        <ele>137</ele>
        <time>2012-04-01T06:12:05Z</time>
      </trkpt>
      <trkpt lat="44.45399" lon="1.00537">
        <ele>136</ele>
        <time>2012-04-01T06:12:06Z</time>
      </trkpt>
      <trkpt lat="44.45393" lon="1.00544">
        <ele>136</ele>
        <time>2012-04-01T06:12:07Z</time>
      </trkpt>
      <trkpt lat="44.45386" lon="1.0055">
        <ele>136</ele>
        <time>2012-04-01T06:12:09Z</time>
      </trkpt>
      <trkpt lat="44.4538" lon="1.00556">
        <ele>136</ele>
        <time>2012-04-01T06:12:09Z</time>
      </trkpt>
      <trkpt lat="44.45374" lon="1.00561">
        <ele>135</ele>
        <time>2012-04-01T06:12:10Z</time>
      </trkpt>
      <trkpt lat="44.45368" lon="1.00567">
        <ele>135</ele>
        <time>2012-04-01T06:12:11Z</time>
      </trkpt>
      <trkpt lat="44.45361" lon="1.00573">
        <ele>134</ele>
        <time>2012-04-01T06:12:12Z</time>
      </trkpt>
      <trkpt lat="44.45355" lon="1.00578">
        <ele>134</ele>
        <time>2012-04-01T06:12:13Z</time>
      </trkpt>
      <trkpt lat="44.45348" lon="1.00583">
        <ele>134</ele>
        <time>2012-04-01T06:12:14Z</time>
      </trkpt>
      <trkpt lat="44.45341" lon="1.00587">
        <ele>134</ele>
        <time>2012-04-01T06:12:15Z</time>
      </trkpt>
      <trkpt lat="44.45335" lon="1.00592">
        <ele>134</ele>
        <time>2012-04-01T06:12:16Z</time>
      </trkpt>
      <trkpt lat="44.45327" lon="1.00596">
        <ele>133</ele>
        <time>2012-04-01T06:12:17Z</time>
      </trkpt>
      <trkpt lat="44.4532" lon="1.006">
        <ele>133</ele>
        <time>2012-04-01T06:12:18Z</time>
      </trkpt>
      <trkpt lat="44.45312" lon="1.00602">
        <ele>133</ele>
        <time>2012-04-01T06:12:19Z</time>
      </trkpt>
      <trkpt lat="44.45305" lon="1.00604">
        <ele>133</ele>
        <time>2012-04-01T06:12:20Z</time>
      </trkpt>
      <trkpt lat="44.45299" lon="1.00606">
        <ele>132</ele>
        <time>2012-04-01T06:12:21Z</time>
      </trkpt>
      <trkpt lat="44.45294" lon="1.00607">
        <ele>132</ele>
        <time>2012-04-01T06:12:22Z</time>
      </trkpt>
      <trkpt lat="44.4529" lon="1.00607">
        <ele>132</ele>
        <time>2012-04-01T06:12:24Z</time>
      </trkpt>
      <trkpt lat="44.45286" lon="1.00607">
        <ele>132</ele>
        <time>2012-04-01T06:12:24Z</time>
      </trkpt>
      <trkpt lat="44.45284" lon="1.00606">
        <ele>131</ele>
        <time>2012-04-01T06:12:25Z</time>
      </trkpt>
      <trkpt lat="44.45282" lon="1.00606">
        <ele>131</ele>
        <time>2012-04-01T06:12:26Z</time>
      </trkpt>
      <trkpt lat="44.45282" lon="1.00604">
        <ele>131</ele>
        <time>2012-04-01T06:12:31Z</time>
      </trkpt>
      <trkpt lat="44.45283" lon="1.00602">
        <ele>129</ele>
        <time>2012-04-01T06:12:36Z</time>
      </trkpt>
      <trkpt lat="44.45284" lon="1.00601">
        <ele>128</ele>
        <time>2012-04-01T06:12:42Z</time>
      </trkpt>
      <trkpt lat="44.45282" lon="1.006">
        <ele>127</ele>
        <time>2012-04-01T06:12:47Z</time>
      </trkpt>
      <trkpt lat="44.45281" lon="1.00599">
        <ele>127</ele>
        <time>2012-04-01T06:12:47Z</time>
      </trkpt>
      <trkpt lat="44.45279" lon="1.00599">
        <ele>127</ele>
        <time>2012-04-01T06:12:48Z</time>
      </trkpt>
      <trkpt lat="44.45278" lon="1.00597">
        <ele>127</ele>
        <time>2012-04-01T06:12:49Z</time>
      </trkpt>
      <trkpt lat="44.45277" lon="1.00595">
        <ele>127</ele>
        <time>2012-04-01T06:12:50Z</time>
      </trkpt>
      <trkpt lat="44.45275" lon="1.00593">
        <ele>127</ele>
        <time>2012-04-01T06:12:51Z</time>
      </trkpt>
      <trkpt lat="44.45273" lon="1.00592">
        <ele>127</ele>
        <time>2012-04-01T06:12:52Z</time>
      </trkpt>
      <trkpt lat="44.45271" lon="1.00592">
        <ele>127</ele>
        <time>2012-04-01T06:12:53Z</time>
      </trkpt>
      <trkpt lat="44.4527" lon="1.00592">
        <ele>127</ele>
        <time>2012-04-01T06:12:54Z</time>
      </trkpt>
      <trkpt lat="44.45267" lon="1.00593">
        <ele>127</ele>
        <time>2012-04-01T06:12:55Z</time>
      </trkpt>
      <trkpt lat="44.45264" lon="1.00593">
        <ele>127</ele>
        <time>2012-04-01T06:12:57Z</time>
      </trkpt>
      <trkpt lat="44.45259" lon="1.00594">
        <ele>127</ele>
        <time>2012-04-01T06:12:57Z</time>
      </trkpt>
      <trkpt lat="44.45255" lon="1.00594">
        <ele>127</ele>
        <time>2012-04-01T06:12:58Z</time>
      </trkpt>
      <trkpt lat="44.45251" lon="1.00595">
        <ele>127</ele>
        <time>2012-04-01T06:12:59Z</time>
      </trkpt>
      <trkpt lat="44.45246" lon="1.00595">
        <ele>127</ele>
        <time>2012-04-01T06:13:00Z</time>
      </trkpt>
      <trkpt lat="44.45242" lon="1.00595">
        <ele>127</ele>
        <time>2012-04-01T06:13:02Z</time>
      </trkpt>
      <trkpt lat="44.45237" lon="1.00595">
        <ele>127</ele>
        <time>2012-04-01T06:13:02Z</time>
      </trkpt>
      <trkpt lat="44.45232" lon="1.00594">
        <ele>127</ele>
        <time>2012-04-01T06:13:03Z</time>
      </trkpt>
      <trkpt lat="44.45228" lon="1.00594">
        <ele>127</ele>
        <time>2012-04-01T06:13:04Z</time>
      </trkpt>
      <trkpt lat="44.45223" lon="1.00594">
        <ele>127</ele>
        <time>2012-04-01T06:13:05Z</time>
      </trkpt>
      <trkpt lat="44.45219" lon="1.00594">
        <ele>127</ele>
        <time>2012-04-01T06:13:07Z</time>
      </trkpt>
      <trkpt lat="44.45215" lon="1.00595">
        <ele>127</ele>
        <time>2012-04-01T06:13:07Z</time>
      </trkpt>
      <trkpt lat="44.45211" lon="1.00596">
        <ele>127</ele>
        <time>2012-04-01T06:13:08Z</time>
      </trkpt>
      <trkpt lat="44.45208" lon="1.00596">
        <ele>127</ele>
        <time>2012-04-01T06:13:09Z</time>
      </trkpt>
      <trkpt lat="44.45205" lon="1.00596">
        <ele>127</ele>
        <time>2012-04-01T06:13:10Z</time>
      </trkpt>
      <trkpt lat="44.45203" lon="1.00596">
        <ele>127</ele>
        <time>2012-04-01T06:13:12Z</time>
      </trkpt>
      <trkpt lat="44.452" lon="1.00596">
        <ele>127</ele>
        <time>2012-04-01T06:13:12Z</time>
      </trkpt>
      <trkpt lat="44.45197" lon="1.00595">
        <ele>128</ele>
        <time>2012-04-01T06:13:13Z</time>
      </trkpt>
      <trkpt lat="44.45194" lon="1.00595">
        <ele>129</ele>
        <time>2012-04-01T06:13:14Z</time>
      </trkpt>
      <trkpt lat="44.45192" lon="1.00593">
        <ele>129</ele>
        <time>2012-04-01T06:13:15Z</time>
      </trkpt>
      <trkpt lat="44.45189" lon="1.00591">
        <ele>130</ele>
        <time>2012-04-01T06:13:17Z</time>
      </trkpt>
      <trkpt lat="44.45187" lon="1.00588">
        <ele>131</ele>
        <time>2012-04-01T06:13:17Z</time>
      </trkpt>
      <trkpt lat="44.45186" lon="1.00584">
        <ele>131</ele>
        <time>2012-04-01T06:13:18Z</time>
      </trkpt>
      <trkpt lat="44.45184" lon="1.00579">
        <ele>131</ele>
        <time>2012-04-01T06:13:19Z</time>
      </trkpt>
      <trkpt lat="44.45183" lon="1.00574">
        <ele>131</ele>
        <time>2012-04-01T06:13:20Z</time>
      </trkpt>
      <trkpt lat="44.45182" lon="1.00569">
        <ele>131</ele>
        <time>2012-04-01T06:13:22Z</time>
      </trkpt>
      <trkpt lat="44.45181" lon="1.00564">
        <ele>131</ele>
        <time>2012-04-01T06:13:22Z</time>
      </trkpt>
      <trkpt lat="44.4518" lon="1.0056">
        <ele>131</ele>
        <time>2012-04-01T06:13:23Z</time>
      </trkpt>
      <trkpt lat="44.45178" lon="1.00558">
        <ele>131</ele>
        <time>2012-04-01T06:13:24Z</time>
      </trkpt>
      <trkpt lat="44.45175" lon="1.00558">
        <ele>131</ele>
        <time>2012-04-01T06:13:25Z</time>
      </trkpt>
      <trkpt lat="44.45173" lon="1.00558">
        <ele>131</ele>
        <time>2012-04-01T06:13:27Z</time>
      </trkpt>
      <trkpt lat="44.45171" lon="1.00558">
        <ele>131</ele>
        <time>2012-04-01T06:13:27Z</time>
      </trkpt>
      <trkpt lat="44.45169" lon="1.0056">
        <ele>131</ele>
        <time>2012-04-01T06:13:28Z</time>
      </trkpt>
      <trkpt lat="44.45166" lon="1.00561">
        <ele>131</ele>
        <time>2012-04-01T06:13:29Z</time>
      </trkpt>
      <trkpt lat="44.45164" lon="1.00561">
        <ele>131</ele>
        <time>2012-04-01T06:13:30Z</time>
      </trkpt>
      <trkpt lat="44.45161" lon="1.00562">
        <ele>131</ele>
        <time>2012-04-01T06:13:32Z</time>
      </trkpt>
      <trkpt lat="44.45159" lon="1.00564">
        <ele>131</ele>
        <time>2012-04-01T06:13:32Z</time>
      </trkpt>
      <trkpt lat="44.45156" lon="1.00565">
        <ele>131</ele>
        <time>2012-04-01T06:13:33Z</time>
      </trkpt>
      <trkpt lat="44.45154" lon="1.00568">
        <ele>131</ele>
        <time>2012-04-01T06:13:34Z</time>
      </trkpt>
      <trkpt lat="44.45151" lon="1.00569">
        <ele>131</ele>
        <time>2012-04-01T06:13:35Z</time>
      </trkpt>
      <trkpt lat="44.45148" lon="1.0057">
        <ele>131</ele>
        <time>2012-04-01T06:13:37Z</time>
      </trkpt>
      <trkpt lat="44.45145" lon="1.00571">
        <ele>131</ele>
        <time>2012-04-01T06:13:37Z</time>
      </trkpt>
      <trkpt lat="44.45143" lon="1.00573">
        <ele>131</ele>
        <time>2012-04-01T06:13:38Z</time>
      </trkpt>
      <trkpt lat="44.4514" lon="1.00574">
        <ele>131</ele>
        <time>2012-04-01T06:13:39Z</time>
      </trkpt>
      <trkpt lat="44.45138" lon="1.00576">
        <ele>131</ele>
        <time>2012-04-01T06:13:40Z</time>
      </trkpt>
      <trkpt lat="44.45135" lon="1.00577">
        <ele>131</ele>
        <time>2012-04-01T06:13:42Z</time>
      </trkpt>
      <trkpt lat="44.45133" lon="1.00579">
        <ele>131</ele>
        <time>2012-04-01T06:13:42Z</time>
      </trkpt>
      <trkpt lat="44.45131" lon="1.00581">
        <ele>131</ele>
        <time>2012-04-01T06:13:43Z</time>
      </trkpt>
      <trkpt lat="44.45129" lon="1.00582">
        <ele>131</ele>
        <time>2012-04-01T06:13:44Z</time>
      </trkpt>
      <trkpt lat="44.45127" lon="1.00583">
        <ele>131</ele>
        <time>2012-04-01T06:13:45Z</time>
      </trkpt>
      <trkpt lat="44.45125" lon="1.00585">
        <ele>132</ele>
        <time>2012-04-01T06:13:47Z</time>
      </trkpt>
      <trkpt lat="44.45123" lon="1.00586">
        <ele>132</ele>
        <time>2012-04-01T06:13:47Z</time>
      </trkpt>
      <trkpt lat="44.45121" lon="1.00587">
        <ele>132</ele>
        <time>2012-04-01T06:13:48Z</time>
      </trkpt>
      <trkpt lat="44.45119" lon="1.00588">
        <ele>132</ele>
        <time>2012-04-01T06:13:49Z</time>
      </trkpt>
      <trkpt lat="44.45116" lon="1.00589">
        <ele>132</ele>
        <time>2012-04-01T06:13:50Z</time>
      </trkpt>
      <trkpt lat="44.45114" lon="1.0059">
        <ele>132</ele>
        <time>2012-04-01T06:13:52Z</time>
      </trkpt>
      <trkpt lat="44.45112" lon="1.00591">
        <ele>132</ele>
        <time>2012-04-01T06:13:52Z</time>
      </trkpt>
      <trkpt lat="44.4511" lon="1.00592">
        <ele>132</ele>
        <time>2012-04-01T06:13:53Z</time>
      </trkpt>
      <trkpt lat="44.45107" lon="1.00593">
        <ele>132</ele>
        <time>2012-04-01T06:13:54Z</time>
      </trkpt>
      <trkpt lat="44.45105" lon="1.00594">
        <ele>132</ele>
        <time>2012-04-01T06:13:55Z</time>
      </trkpt>
      <trkpt lat="44.45102" lon="1.00595">
        <ele>132</ele>
        <time>2012-04-01T06:13:56Z</time>
      </trkpt>
      <trkpt lat="44.45099" lon="1.00597">
        <ele>132</ele>
        <time>2012-04-01T06:13:57Z</time>
      </trkpt>
      <trkpt lat="44.45097" lon="1.00598">
        <ele>132</ele>
        <time>2012-04-01T06:13:58Z</time>
      </trkpt>
      <trkpt lat="44.45094" lon="1.006">
        <ele>132</ele>
        <time>2012-04-01T06:13:59Z</time>
      </trkpt>
      <trkpt lat="44.45092" lon="1.00601">
        <ele>132</ele>
        <time>2012-04-01T06:14:00Z</time>
      </trkpt>
      <trkpt lat="44.45089" lon="1.00602">
        <ele>132</ele>
        <time>2012-04-01T06:14:01Z</time>
      </trkpt>
      <trkpt lat="44.45087" lon="1.00604">
        <ele>132</ele>
        <time>2012-04-01T06:14:02Z</time>
      </trkpt>
      <trkpt lat="44.45084" lon="1.00606">
        <ele>132</ele>
        <time>2012-04-01T06:14:03Z</time>
      </trkpt>
      <trkpt lat="44.45082" lon="1.00607">
        <ele>132</ele>
        <time>2012-04-01T06:14:04Z</time>
      </trkpt>
      <trkpt lat="44.45079" lon="1.00608">
        <ele>132</ele>
        <time>2012-04-01T06:14:05Z</time>
      </trkpt>
      <trkpt lat="44.45077" lon="1.0061">
        <ele>132</ele>
        <time>2012-04-01T06:14:06Z</time>
      </trkpt>
      <trkpt lat="44.45075" lon="1.00612">
        <ele>132</ele>
        <time>2012-04-01T06:14:07Z</time>
      </trkpt>
      <trkpt lat="44.45073" lon="1.00613">
        <ele>132</ele>
        <time>2012-04-01T06:14:08Z</time>
      </trkpt>
      <trkpt lat="44.45071" lon="1.00615">
        <ele>132</ele>
        <time>2012-04-01T06:14:09Z</time>
      </trkpt>
      <trkpt lat="44.45068" lon="1.00616">
        <ele>132</ele>
        <time>2012-04-01T06:14:10Z</time>
      </trkpt>
      <trkpt lat="44.45066" lon="1.00617">
        <ele>132</ele>
        <time>2012-04-01T06:14:11Z</time>
      </trkpt>
      <trkpt lat="44.45064" lon="1.00618">
        <ele>132</ele>
        <time>2012-04-01T06:14:12Z</time>
      </trkpt>
      <trkpt lat="44.45061" lon="1.00619">
        <ele>132</ele>
        <time>2012-04-01T06:14:13Z</time>
      </trkpt>
      <trkpt lat="44.4506" lon="1.0062">
        <ele>132</ele>
        <time>2012-04-01T06:14:14Z</time>
      </trkpt>
      <trkpt lat="44.45058" lon="1.00621">
        <ele>132</ele>
        <time>2012-04-01T06:14:15Z</time>
      </trkpt>
      <trkpt lat="44.45055" lon="1.00621">
        <ele>132</ele>
        <time>2012-04-01T06:14:16Z</time>
      </trkpt>
      <trkpt lat="44.45053" lon="1.00622">
        <ele>132</ele>
        <time>2012-04-01T06:14:17Z</time>
      </trkpt>
      <trkpt lat="44.45051" lon="1.00623">
        <ele>132</ele>
        <time>2012-04-01T06:14:18Z</time>
      </trkpt>
      <trkpt lat="44.45049" lon="1.00625">
        <ele>132</ele>
        <time>2012-04-01T06:14:19Z</time>
      </trkpt>
      <trkpt lat="44.45047" lon="1.00626">
        <ele>132</ele>
        <time>2012-04-01T06:14:20Z</time>
      </trkpt>
      <trkpt lat="44.45045" lon="1.00627">
        <ele>132</ele>
        <time>2012-04-01T06:14:21Z</time>
      </trkpt>
      <trkpt lat="44.45044" lon="1.00628">
        <ele>132</ele>
        <time>2012-04-01T06:14:22Z</time>
      </trkpt>
      <trkpt lat="44.45042" lon="1.00628">
        <ele>132</ele>
        <time>2012-04-01T06:14:23Z</time>
      </trkpt>
      <trkpt lat="44.4504" lon="1.00629">
        <ele>132</ele>
        <time>2012-04-01T06:14:24Z</time>
      </trkpt>
      <trkpt lat="44.45039" lon="1.00631">
        <ele>132</ele>
        <time>2012-04-01T06:14:25Z</time>
      </trkpt>
      <trkpt lat="44.45037" lon="1.00633">
        <ele>132</ele>
        <time>2012-04-01T06:14:26Z</time>
      </trkpt>
      <trkpt lat="44.45036" lon="1.00636">
        <ele>132</ele>
        <time>2012-04-01T06:14:27Z</time>
      </trkpt>
      <trkpt lat="44.45034" lon="1.00639">
        <ele>132</ele>
        <time>2012-04-01T06:14:28Z</time>
      </trkpt>
      <trkpt lat="44.45033" lon="1.00642">
        <ele>132</ele>
        <time>2012-04-01T06:14:29Z</time>
      </trkpt>
      <trkpt lat="44.45033" lon="1.00644">
        <ele>132</ele>
        <time>2012-04-01T06:14:30Z</time>
      </trkpt>
      <trkpt lat="44.45034" lon="1.00647">
        <ele>132</ele>
        <time>2012-04-01T06:14:31Z</time>
      </trkpt>
      <trkpt lat="44.45035" lon="1.00648">
        <ele>132</ele>
        <time>2012-04-01T06:14:32Z</time>
      </trkpt>
      <trkpt lat="44.45036" lon="1.0065">
        <ele>132</ele>
        <time>2012-04-01T06:14:33Z</time>
      </trkpt>
      <trkpt lat="44.45037" lon="1.00652">
        <ele>132</ele>
        <time>2012-04-01T06:14:34Z</time>
      </trkpt>
      <trkpt lat="44.45038" lon="1.00654">
        <ele>132</ele>
        <time>2012-04-01T06:14:35Z</time>
      </trkpt>
      <trkpt lat="44.45039" lon="1.00657">
        <ele>132</ele>
        <time>2012-04-01T06:14:36Z</time>
      </trkpt>
      <trkpt lat="44.4504" lon="1.0066">
        <ele>132</ele>
        <time>2012-04-01T06:14:37Z</time>
      </trkpt>
      <trkpt lat="44.45039" lon="1.00662">
        <ele>132</ele>
        <time>2012-04-01T06:14:38Z</time>
      </trkpt>
      <trkpt lat="44.45038" lon="1.00664">
        <ele>133</ele>
        <time>2012-04-01T06:14:39Z</time>
      </trkpt>
      <trkpt lat="44.45037" lon="1.00666">
        <ele>134</ele>
        <time>2012-04-01T06:14:40Z</time>
      </trkpt>
      <trkpt lat="44.45036" lon="1.00668">
        <ele>134</ele>
        <time>2012-04-01T06:14:41Z</time>
      </trkpt>
      <trkpt lat="44.45035" lon="1.0067">
        <ele>135</ele>
        <time>2012-04-01T06:14:42Z</time>
      </trkpt>
      <trkpt lat="44.45033" lon="1.00672">
        <ele>136</ele>
        <time>2012-04-01T06:14:43Z</time>
      </trkpt>
      <trkpt lat="44.45032" lon="1.00674">
        <ele>137</ele>
        <time>2012-04-01T06:14:44Z</time>
      </trkpt>
      <trkpt lat="44.45031" lon="1.00677">
        <ele>137</ele>
        <time>2012-04-01T06:14:45Z</time>
      </trkpt>
      <trkpt lat="44.45029" lon="1.00678">
        <ele>137</ele>
        <time>2012-04-01T06:14:46Z</time>
      </trkpt>
      <trkpt lat="44.45028" lon="1.0068">
        <ele>137</ele>
        <time>2012-04-01T06:14:47Z</time>
      </trkpt>
      <trkpt lat="44.45027" lon="1.00683">
        <ele>137</ele>
        <time>2012-04-01T06:14:48Z</time>
      </trkpt>
      <trkpt lat="44.45026" lon="1.00685">
        <ele>137</ele>
        <time>2012-04-01T06:14:49Z</time>
      </trkpt>
      <trkpt lat="44.45025" lon="1.00687">
        <ele>137</ele>
        <time>2012-04-01T06:14:50Z</time>
      </trkpt>
      <trkpt lat="44.45023" lon="1.0069">
        <ele>137</ele>
        <time>2012-04-01T06:14:51Z</time>
      </trkpt>
      <trkpt lat="44.45021" lon="1.00692">
        <ele>137</ele>
        <time>2012-04-01T06:14:52Z</time>
      </trkpt>
      <trkpt lat="44.4502" lon="1.00694">
        <ele>137</ele>
        <time>2012-04-01T06:14:53Z</time>
      </trkpt>
      <trkpt lat="44.45019" lon="1.00695">
        <ele>138</ele>
        <time>2012-04-01T06:14:54Z</time>
      </trkpt>
      <trkpt lat="44.45017" lon="1.00697">
        <ele>138</ele>
        <time>2012-04-01T06:14:55Z</time>
      </trkpt>
      <trkpt lat="44.45015" lon="1.00699">
        <ele>138</ele>
        <time>2012-04-01T06:14:56Z</time>
      </trkpt>
      <trkpt lat="44.45014" lon="1.007">
        <ele>139</ele>
        <time>2012-04-01T06:14:57Z</time>
      </trkpt>
      <trkpt lat="44.45012" lon="1.00702">
        <ele>139</ele>
        <time>2012-04-01T06:14:58Z</time>
      </trkpt>
      <trkpt lat="44.4501" lon="1.00704">
        <ele>140</ele>
        <time>2012-04-01T06:14:59Z</time>
      </trkpt>
      <trkpt lat="44.45008" lon="1.00706">
        <ele>141</ele>
        <time>2012-04-01T06:15:00Z</time>
      </trkpt>
      <trkpt lat="44.45007" lon="1.00707">
        <ele>142</ele>
        <time>2012-04-01T06:15:01Z</time>
      </trkpt>
      <trkpt lat="44.45005" lon="1.00709">
        <ele>143</ele>
        <time>2012-04-01T06:15:02Z</time>
      </trkpt>
      <trkpt lat="44.45003" lon="1.0071">
        <ele>144</ele>
        <time>2012-04-01T06:15:03Z</time>
      </trkpt>
      <trkpt lat="44.45002" lon="1.00712">
        <ele>145</ele>
        <time>2012-04-01T06:15:04Z</time>
      </trkpt>
      <trkpt lat="44.45001" lon="1.00713">
        <ele>146</ele>
        <time>2012-04-01T06:15:05Z</time>
      </trkpt>
      <trkpt lat="44.44999" lon="1.00715">
        <ele>147</ele>
        <time>2012-04-01T06:15:06Z</time>
      </trkpt>
      <trkpt lat="44.44997" lon="1.00717">
        <ele>147</ele>
        <time>2012-04-01T06:15:07Z</time>
      </trkpt>
      <trkpt lat="44.44996" lon="1.00719">
        <ele>147</ele>
        <time>2012-04-01T06:15:08Z</time>
      </trkpt>
      <trkpt lat="44.44995" lon="1.00722">
        <ele>147</ele>
        <time>2012-04-01T06:15:09Z</time>
      </trkpt>
      <trkpt lat="44.44994" lon="1.00725">
        <ele>148</ele>
        <time>2012-04-01T06:15:10Z</time>
      </trkpt>
      <trkpt lat="44.44992" lon="1.00728">
        <ele>148</ele>
        <time>2012-04-01T06:15:11Z</time>
      </trkpt>
      <trkpt lat="44.44991" lon="1.00731">
        <ele>148</ele>
        <time>2012-04-01T06:15:12Z</time>
      </trkpt>
      <trkpt lat="44.4499" lon="1.00734">
        <ele>149</ele>
        <time>2012-04-01T06:15:13Z</time>
      </trkpt>
      <trkpt lat="44.44989" lon="1.00736">
        <ele>149</ele>
        <time>2012-04-01T06:15:14Z</time>
      </trkpt>
      <trkpt lat="44.44988" lon="1.00738">
        <ele>149</ele>
        <time>2012-04-01T06:15:15Z</time>
      </trkpt>
      <trkpt lat="44.44987" lon="1.0074">
        <ele>149</ele>
        <time>2012-04-01T06:15:16Z</time>
      </trkpt>
      <trkpt lat="44.44985" lon="1.00743">
        <ele>149</ele>
        <time>2012-04-01T06:15:17Z</time>
      </trkpt>
      <trkpt lat="44.44984" lon="1.00745">
        <ele>149</ele>
        <time>2012-04-01T06:15:18Z</time>
      </trkpt>
      <trkpt lat="44.44983" lon="1.00747">
        <ele>149</ele>
        <time>2012-04-01T06:15:19Z</time>
      </trkpt>
      <trkpt lat="44.44981" lon="1.00749">
        <ele>150</ele>
        <time>2012-04-01T06:15:20Z</time>
      </trkpt>
      <trkpt lat="44.44979" lon="1.00751">
        <ele>150</ele>
        <time>2012-04-01T06:15:21Z</time>
      </trkpt>
      <trkpt lat="44.44978" lon="1.00752">
        <ele>151</ele>
        <time>2012-04-01T06:15:22Z</time>
      </trkpt>
      <trkpt lat="44.44977" lon="1.00754">
        <ele>152</ele>
        <time>2012-04-01T06:15:23Z</time>
      </trkpt>
      <trkpt lat="44.44976" lon="1.00756">
        <ele>152</ele>
        <time>2012-04-01T06:15:24Z</time>
      </trkpt>
      <trkpt lat="44.44975" lon="1.00758">
        <ele>152</ele>
        <time>2012-04-01T06:15:25Z</time>
      </trkpt>
      <trkpt lat="44.44974" lon="1.0076">
        <ele>152</ele>
        <time>2012-04-01T06:15:26Z</time>
      </trkpt>
      <trkpt lat="44.44973" lon="1.00762">
        <ele>152</ele>
        <time>2012-04-01T06:15:27Z</time>
      </trkpt>
      <trkpt lat="44.44971" lon="1.00763">
        <ele>152</ele>
        <time>2012-04-01T06:15:28Z</time>
      </trkpt>
      <trkpt lat="44.4497" lon="1.00766">
        <ele>152</ele>
        <time>2012-04-01T06:15:29Z</time>
      </trkpt>
      <trkpt lat="44.44968" lon="1.00768">
        <ele>152</ele>
        <time>2012-04-01T06:15:30Z</time>
      </trkpt>
      <trkpt lat="44.44967" lon="1.00769">
        <ele>153</ele>
        <time>2012-04-01T06:15:31Z</time>
      </trkpt>
      <trkpt lat="44.44966" lon="1.00771">
        <ele>154</ele>
        <time>2012-04-01T06:15:32Z</time>
      </trkpt>
      <trkpt lat="44.44965" lon="1.00774">
        <ele>154</ele>
        <time>2012-04-01T06:15:33Z</time>
      </trkpt>
      <trkpt lat="44.44963" lon="1.00776">
        <ele>155</ele>
        <time>2012-04-01T06:15:34Z</time>
      </trkpt>
      <trkpt lat="44.44962" lon="1.00778">
        <ele>156</ele>
        <time>2012-04-01T06:15:35Z</time>
      </trkpt>
      <trkpt lat="44.44961" lon="1.0078">
        <ele>156</ele>
        <time>2012-04-01T06:15:36Z</time>
      </trkpt>
      <trkpt lat="44.44959" lon="1.00781">
        <ele>157</ele>
        <time>2012-04-01T06:15:37Z</time>
      </trkpt>
      <trkpt lat="44.44958" lon="1.00783">
        <ele>157</ele>
        <time>2012-04-01T06:15:38Z</time>
      </trkpt>
      <trkpt lat="44.44957" lon="1.00785">
        <ele>157</ele>
        <time>2012-04-01T06:15:39Z</time>
      </trkpt>
      <trkpt lat="44.44955" lon="1.00787">
        <ele>157</ele>
        <time>2012-04-01T06:15:40Z</time>
      </trkpt>
      <trkpt lat="44.44954" lon="1.00788">
        <ele>157</ele>
        <time>2012-04-01T06:15:41Z</time>
      </trkpt>
      <trkpt lat="44.44953" lon="1.0079">
        <ele>158</ele>
        <time>2012-04-01T06:15:42Z</time>
      </trkpt>
      <trkpt lat="44.44952" lon="1.00792">
        <ele>158</ele>
        <time>2012-04-01T06:15:43Z</time>
      </trkpt>
      <trkpt lat="44.44949" lon="1.00793">
        <ele>158</ele>
        <time>2012-04-01T06:15:44Z</time>
      </trkpt>
      <trkpt lat="44.44948" lon="1.00795">
        <ele>159</ele>
        <time>2012-04-01T06:15:45Z</time>
      </trkpt>
      <trkpt lat="44.44946" lon="1.00796">
        <ele>160</ele>
        <time>2012-04-01T06:15:46Z</time>
      </trkpt>
      <trkpt lat="44.44944" lon="1.00798">
        <ele>160</ele>
        <time>2012-04-01T06:15:47Z</time>
      </trkpt>
      <trkpt lat="44.44943" lon="1.008">
        <ele>161</ele>
        <time>2012-04-01T06:15:48Z</time>
      </trkpt>
      <trkpt lat="44.44941" lon="1.00801">
        <ele>161</ele>
        <time>2012-04-01T06:15:49Z</time>
      </trkpt>
      <trkpt lat="44.4494" lon="1.00803">
        <ele>162</ele>
        <time>2012-04-01T06:15:50Z</time>
      </trkpt>
      <trkpt lat="44.44938" lon="1.00804">
        <ele>162</ele>
        <time>2012-04-01T06:15:51Z</time>
      </trkpt>
      <trkpt lat="44.44936" lon="1.00806">
        <ele>163</ele>
        <time>2012-04-01T06:15:52Z</time>
      </trkpt>
      <trkpt lat="44.44935" lon="1.00808">
        <ele>163</ele>
        <time>2012-04-01T06:15:53Z</time>
      </trkpt>
      <trkpt lat="44.44933" lon="1.0081">
        <ele>164</ele>
        <time>2012-04-01T06:15:54Z</time>
      </trkpt>
      <trkpt lat="44.44932" lon="1.00812">
        <ele>164</ele>
        <time>2012-04-01T06:15:55Z</time>
      </trkpt>
      <trkpt lat="44.44931" lon="1.00814">
        <ele>165</ele>
        <time>2012-04-01T06:15:56Z</time>
      </trkpt>
      <trkpt lat="44.4493" lon="1.00815">
        <ele>165</ele>
        <time>2012-04-01T06:15:57Z</time>
      </trkpt>
      <trkpt lat="44.44928" lon="1.00817">
        <ele>165</ele>
        <time>2012-04-01T06:15:58Z</time>
      </trkpt>
      <trkpt lat="44.44927" lon="1.00819">
        <ele>165</ele>
        <time>2012-04-01T06:15:59Z</time>
      </trkpt>
      <trkpt lat="44.44926" lon="1.00821">
        <ele>165</ele>
        <time>2012-04-01T06:16:00Z</time>
      </trkpt>
      <trkpt lat="44.44924" lon="1.00823">
        <ele>165</ele>
        <time>2012-04-01T06:16:01Z</time>
      </trkpt>
      <trkpt lat="44.44923" lon="1.00824">
        <ele>165</ele>
        <time>2012-04-01T06:16:02Z</time>
      </trkpt>
      <trkpt lat="44.44922" lon="1.00827">
        <ele>165</ele>
        <time>2012-04-01T06:16:03Z</time>
      </trkpt>
      <trkpt lat="44.4492" lon="1.00829">
        <ele>166</ele>
        <time>2012-04-01T06:16:04Z</time>
      </trkpt>
      <trkpt lat="44.44919" lon="1.0083">
        <ele>166</ele>
        <time>2012-04-01T06:16:05Z</time>
      </trkpt>
      <trkpt lat="44.44917" lon="1.00831">
        <ele>166</ele>
        <time>2012-04-01T06:16:06Z</time>
      </trkpt>
      <trkpt lat="44.44916" lon="1.00832">
        <ele>166</ele>
        <time>2012-04-01T06:16:07Z</time>
      </trkpt>
      <trkpt lat="44.44914" lon="1.00832">
        <ele>166</ele>
        <time>2012-04-01T06:16:08Z</time>
      </trkpt>
      <trkpt lat="44.44913" lon="1.00833">
        <ele>167</ele>
        <time>2012-04-01T06:16:09Z</time>
      </trkpt>
      <trkpt lat="44.44911" lon="1.00833">
        <ele>167</ele>
        <time>2012-04-01T06:16:10Z</time>
      </trkpt>
      <trkpt lat="44.4491" lon="1.00835">
        <ele>168</ele>
        <time>2012-04-01T06:16:11Z</time>
      </trkpt>
      <trkpt lat="44.44909" lon="1.00838">
        <ele>168</ele>
        <time>2012-04-01T06:16:12Z</time>
      </trkpt>
      <trkpt lat="44.44908" lon="1.0084">
        <ele>169</ele>
        <time>2012-04-01T06:16:13Z</time>
      </trkpt>
      <trkpt lat="44.44907" lon="1.00843">
        <ele>169</ele>
        <time>2012-04-01T06:16:14Z</time>
      </trkpt>
      <trkpt lat="44.44905" lon="1.00845">
        <ele>170</ele>
        <time>2012-04-01T06:16:15Z</time>
      </trkpt>
      <trkpt lat="44.44904" lon="1.00847">
        <ele>170</ele>
        <time>2012-04-01T06:16:16Z</time>
      </trkpt>
      <trkpt lat="44.44904" lon="1.0085">
        <ele>170</ele>
        <time>2012-04-01T06:16:17Z</time>
      </trkpt>
      <trkpt lat="44.44904" lon="1.00854">
        <ele>171</ele>
        <time>2012-04-01T06:16:18Z</time>
      </trkpt>
      <trkpt lat="44.44903" lon="1.00857">
        <ele>171</ele>
        <time>2012-04-01T06:16:19Z</time>
      </trkpt>
      <trkpt lat="44.44902" lon="1.00859">
        <ele>172</ele>
        <time>2012-04-01T06:16:20Z</time>
      </trkpt>
      <trkpt lat="44.44903" lon="1.00863">
        <ele>172</ele>
        <time>2012-04-01T06:16:21Z</time>
      </trkpt>
      <trkpt lat="44.44903" lon="1.00865">
        <ele>172</ele>
        <time>2012-04-01T06:16:22Z</time>
      </trkpt>
      <trkpt lat="44.44903" lon="1.00867">
        <ele>172</ele>
        <time>2012-04-01T06:16:23Z</time>
      </trkpt>
      <trkpt lat="44.44902" lon="1.00869">
        <ele>172</ele>
        <time>2012-04-01T06:16:24Z</time>
      </trkpt>
      <trkpt lat="44.44902" lon="1.00871">
        <ele>172</ele>
        <time>2012-04-01T06:16:25Z</time>
      </trkpt>
      <trkpt lat="44.44901" lon="1.00874">
        <ele>172</ele>
        <time>2012-04-01T06:16:27Z</time>
      </trkpt>
      <trkpt lat="44.449" lon="1.00876">
        <ele>172</ele>
        <time>2012-04-01T06:16:28Z</time>
      </trkpt>
      <trkpt lat="44.44899" lon="1.00878">
        <ele>172</ele>
        <time>2012-04-01T06:16:29Z</time>
      </trkpt>
      <trkpt lat="44.44898" lon="1.0088">
        <ele>172</ele>
        <time>2012-04-01T06:16:30Z</time>
      </trkpt>
      <trkpt lat="44.44898" lon="1.00882">
        <ele>172</ele>
        <time>2012-04-01T06:16:31Z</time>
      </trkpt>
      <trkpt lat="44.44896" lon="1.00885">
        <ele>172</ele>
        <time>2012-04-01T06:16:33Z</time>
      </trkpt>
      <trkpt lat="44.44895" lon="1.00887">
        <ele>172</ele>
        <time>2012-04-01T06:16:34Z</time>
      </trkpt>
      <trkpt lat="44.44894" lon="1.00889">
        <ele>172</ele>
        <time>2012-04-01T06:16:35Z</time>
      </trkpt>
      <trkpt lat="44.44894" lon="1.00891">
        <ele>172</ele>
        <time>2012-04-01T06:16:36Z</time>
      </trkpt>
      <trkpt lat="44.44893" lon="1.00893">
        <ele>172</ele>
        <time>2012-04-01T06:16:37Z</time>
      </trkpt>
      <trkpt lat="44.44892" lon="1.00895">
        <ele>172</ele>
        <time>2012-04-01T06:16:38Z</time>
      </trkpt>
      <trkpt lat="44.44891" lon="1.00897">
        <ele>172</ele>
        <time>2012-04-01T06:16:39Z</time>
      </trkpt>
      <trkpt lat="44.4489" lon="1.009">
        <ele>172</ele>
        <time>2012-04-01T06:16:40Z</time>
      </trkpt>
      <trkpt lat="44.44889" lon="1.00902">
        <ele>172</ele>
        <time>2012-04-01T06:16:41Z</time>
      </trkpt>
      <trkpt lat="44.44888" lon="1.00904">
        <ele>172</ele>
        <time>2012-04-01T06:16:42Z</time>
      </trkpt>
      <trkpt lat="44.44887" lon="1.00906">
        <ele>172</ele>
        <time>2012-04-01T06:16:43Z</time>
      </trkpt>
      <trkpt lat="44.44886" lon="1.00908">
        <ele>172</ele>
        <time>2012-04-01T06:16:44Z</time>
      </trkpt>
      <trkpt lat="44.44885" lon="1.0091">
        <ele>172</ele>
        <time>2012-04-01T06:16:45Z</time>
      </trkpt>
      <trkpt lat="44.44884" lon="1.00913">
        <ele>172</ele>
        <time>2012-04-01T06:16:46Z</time>
      </trkpt>
      <trkpt lat="44.44884" lon="1.00915">
        <ele>172</ele>
        <time>2012-04-01T06:16:47Z</time>
      </trkpt>
      <trkpt lat="44.44883" lon="1.00916">
        <ele>172</ele>
        <time>2012-04-01T06:16:48Z</time>
      </trkpt>
      <trkpt lat="44.44883" lon="1.00918">
        <ele>172</ele>
        <time>2012-04-01T06:16:49Z</time>
      </trkpt>
      <trkpt lat="44.44882" lon="1.00921">
        <ele>172</ele>
        <time>2012-04-01T06:16:50Z</time>
      </trkpt>
      <trkpt lat="44.44881" lon="1.00923">
        <ele>172</ele>
        <time>2012-04-01T06:16:51Z</time>
      </trkpt>
      <trkpt lat="44.44881" lon="1.00925">
        <ele>172</ele>
        <time>2012-04-01T06:16:52Z</time>
      </trkpt>
      <trkpt lat="44.44881" lon="1.00927">
        <ele>172</ele>
        <time>2012-04-01T06:16:53Z</time>
      </trkpt>
      <trkpt lat="44.4488" lon="1.00929">
        <ele>172</ele>
        <time>2012-04-01T06:16:54Z</time>
      </trkpt>
      <trkpt lat="44.44879" lon="1.00931">
        <ele>172</ele>
        <time>2012-04-01T06:16:55Z</time>
      </trkpt>
      <trkpt lat="44.44878" lon="1.00933">
        <ele>172</ele>
        <time>2012-04-01T06:16:56Z</time>
      </trkpt>
      <trkpt lat="44.44877" lon="1.00935">
        <ele>172</ele>
        <time>2012-04-01T06:16:57Z</time>
      </trkpt>
      <trkpt lat="44.44876" lon="1.00936">
        <ele>172</ele>
        <time>2012-04-01T06:16:58Z</time>
      </trkpt>
      <trkpt lat="44.44875" lon="1.00938">
        <ele>172</ele>
        <time>2012-04-01T06:16:59Z</time>
      </trkpt>
      <trkpt lat="44.44875" lon="1.00939">
        <ele>172</ele>
        <time>2012-04-01T06:17:00Z</time>
      </trkpt>
      <trkpt lat="44.44874" lon="1.00941">
        <ele>172</ele>
        <time>2012-04-01T06:17:01Z</time>
      </trkpt>
      <trkpt lat="44.44873" lon="1.00943">
        <ele>172</ele>
        <time>2012-04-01T06:17:02Z</time>
      </trkpt>
      <trkpt lat="44.44872" lon="1.00944">
        <ele>172</ele>
        <time>2012-04-01T06:17:03Z</time>
      </trkpt>
      <trkpt lat="44.44871" lon="1.00946">
        <ele>172</ele>
        <time>2012-04-01T06:17:04Z</time>
      </trkpt>
      <trkpt lat="44.4487" lon="1.00949">
        <ele>172</ele>
        <time>2012-04-01T06:17:05Z</time>
      </trkpt>
      <trkpt lat="44.44868" lon="1.0095">
        <ele>172</ele>
        <time>2012-04-01T06:17:06Z</time>
      </trkpt>
      <trkpt lat="44.44867" lon="1.00952">
        <ele>173</ele>
        <time>2012-04-01T06:17:07Z</time>
      </trkpt>
      <trkpt lat="44.44866" lon="1.00955">
        <ele>173</ele>
        <time>2012-04-01T06:17:09Z</time>
      </trkpt>
      <trkpt lat="44.44865" lon="1.00956">
        <ele>173</ele>
        <time>2012-04-01T06:17:10Z</time>
      </trkpt>
      <trkpt lat="44.44863" lon="1.00958">
        <ele>173</ele>
        <time>2012-04-01T06:17:11Z</time>
      </trkpt>
      <trkpt lat="44.44863" lon="1.0096">
        <ele>173</ele>
        <time>2012-04-01T06:17:12Z</time>
      </trkpt>
      <trkpt lat="44.44862" lon="1.00961">
        <ele>173</ele>
        <time>2012-04-01T06:17:13Z</time>
      </trkpt>
      <trkpt lat="44.44861" lon="1.00963">
        <ele>173</ele>
        <time>2012-04-01T06:17:14Z</time>
      </trkpt>
      <trkpt lat="44.4486" lon="1.00964">
        <ele>173</ele>
        <time>2012-04-01T06:17:15Z</time>
      </trkpt>
      <trkpt lat="44.44859" lon="1.00966">
        <ele>173</ele>
        <time>2012-04-01T06:17:16Z</time>
      </trkpt>
      <trkpt lat="44.44859" lon="1.00968">
        <ele>173</ele>
        <time>2012-04-01T06:17:17Z</time>
      </trkpt>
      <trkpt lat="44.44858" lon="1.0097">
        <ele>174</ele>
        <time>2012-04-01T06:17:18Z</time>
      </trkpt>
      <trkpt lat="44.44857" lon="1.00971">
        <ele>174</ele>
        <time>2012-04-01T06:17:19Z</time>
      </trkpt>
      <trkpt lat="44.44856" lon="1.00973">
        <ele>174</ele>
        <time>2012-04-01T06:17:20Z</time>
      </trkpt>
      <trkpt lat="44.44854" lon="1.00974">
        <ele>175</ele>
        <time>2012-04-01T06:17:21Z</time>
      </trkpt>
      <trkpt lat="44.44853" lon="1.00977">
        <ele>175</ele>
        <time>2012-04-01T06:17:23Z</time>
      </trkpt>
      <trkpt lat="44.44852" lon="1.00978">
        <ele>176</ele>
        <time>2012-04-01T06:17:24Z</time>
      </trkpt>
      <trkpt lat="44.44851" lon="1.00981">
        <ele>176</ele>
        <time>2012-04-01T06:17:26Z</time>
      </trkpt>
      <trkpt lat="44.44849" lon="1.00982">
        <ele>176</ele>
        <time>2012-04-01T06:17:27Z</time>
      </trkpt>
      <trkpt lat="44.44848" lon="1.00983">
        <ele>177</ele>
        <time>2012-04-01T06:17:28Z</time>
      </trkpt>
      <trkpt lat="44.44846" lon="1.00985">
        <ele>178</ele>
        <time>2012-04-01T06:17:30Z</time>
      </trkpt>
      <trkpt lat="44.44844" lon="1.00986">
        <ele>178</ele>
        <time>2012-04-01T06:17:31Z</time>
      </trkpt>
      <trkpt lat="44.44843" lon="1.00987">
        <ele>179</ele>
        <time>2012-04-01T06:17:32Z</time>
      </trkpt>
      <trkpt lat="44.44842" lon="1.00988">
        <ele>180</ele>
        <time>2012-04-01T06:17:33Z</time>
      </trkpt>
      <trkpt lat="44.4484" lon="1.00989">
        <ele>181</ele>
        <time>2012-04-01T06:17:34Z</time>
      </trkpt>
      <trkpt lat="44.44839" lon="1.0099">
        <ele>182</ele>
        <time>2012-04-01T06:17:35Z</time>
      </trkpt>
      <trkpt lat="44.44837" lon="1.00993">
        <ele>183</ele>
        <time>2012-04-01T06:17:37Z</time>
      </trkpt>
      <trkpt lat="44.44836" lon="1.00995">
        <ele>183</ele>
        <time>2012-04-01T06:17:38Z</time>
      </trkpt>
      <trkpt lat="44.44836" lon="1.00997">
        <ele>184</ele>
        <time>2012-04-01T06:17:39Z</time>
      </trkpt>
      <trkpt lat="44.44835" lon="1.00999">
        <ele>184</ele>
        <time>2012-04-01T06:17:40Z</time>
      </trkpt>
      <trkpt lat="44.44834" lon="1.01">
        <ele>185</ele>
        <time>2012-04-01T06:17:41Z</time>
      </trkpt>
      <trkpt lat="44.44832" lon="1.01001">
        <ele>185</ele>
        <time>2012-04-01T06:17:42Z</time>
      </trkpt>
      <trkpt lat="44.44832" lon="1.01003">
        <ele>186</ele>
        <time>2012-04-01T06:17:43Z</time>
      </trkpt>
      <trkpt lat="44.4483" lon="1.01006">
        <ele>187</ele>
        <time>2012-04-01T06:17:45Z</time>
      </trkpt>
      <trkpt lat="44.44828" lon="1.01008">
        <ele>187</ele>
        <time>2012-04-01T06:17:46Z</time>
      </trkpt>
      <trkpt lat="44.44827" lon="1.0101">
        <ele>188</ele>
        <time>2012-04-01T06:17:47Z</time>
      </trkpt>
      <trkpt lat="44.44826" lon="1.01012">
        <ele>188</ele>
        <time>2012-04-01T06:17:48Z</time>
      </trkpt>
      <trkpt lat="44.44824" lon="1.01013">
        <ele>189</ele>
        <time>2012-04-01T06:17:49Z</time>
      </trkpt>
      <trkpt lat="44.44822" lon="1.01015">
        <ele>190</ele>
        <time>2012-04-01T06:17:51Z</time>
      </trkpt>
      <trkpt lat="44.44821" lon="1.01017">
        <ele>190</ele>
        <time>2012-04-01T06:17:52Z</time>
      </trkpt>
      <trkpt lat="44.4482" lon="1.01019">
        <ele>190</ele>
        <time>2012-04-01T06:17:53Z</time>
      </trkpt>
      <trkpt lat="44.44818" lon="1.0102">
        <ele>190</ele>
        <time>2012-04-01T06:17:54Z</time>
      </trkpt>
      <trkpt lat="44.44817" lon="1.01023">
        <ele>190</ele>
        <time>2012-04-01T06:17:55Z</time>
      </trkpt>
      <trkpt lat="44.44815" lon="1.01024">
        <ele>190</ele>
        <time>2012-04-01T06:17:56Z</time>
      </trkpt>
      <trkpt lat="44.44813" lon="1.01026">
        <ele>191</ele>
        <time>2012-04-01T06:17:57Z</time>
      </trkpt>
      <trkpt lat="44.44812" lon="1.01027">
        <ele>191</ele>
        <time>2012-04-01T06:17:58Z</time>
      </trkpt>
      <trkpt lat="44.4481" lon="1.01028">
        <ele>192</ele>
        <time>2012-04-01T06:17:59Z</time>
      </trkpt>
      <trkpt lat="44.44809" lon="1.01029">
        <ele>192</ele>
        <time>2012-04-01T06:18:00Z</time>
      </trkpt>
      <trkpt lat="44.44807" lon="1.0103">
        <ele>192</ele>
        <time>2012-04-01T06:18:01Z</time>
      </trkpt>
      <trkpt lat="44.44805" lon="1.01031">
        <ele>193</ele>
        <time>2012-04-01T06:18:02Z</time>
      </trkpt>
      <trkpt lat="44.44803" lon="1.01033">
        <ele>193</ele>
        <time>2012-04-01T06:18:03Z</time>
      </trkpt>
      <trkpt lat="44.44801" lon="1.01034">
        <ele>194</ele>
        <time>2012-04-01T06:18:04Z</time>
      </trkpt>
      <trkpt lat="44.44799" lon="1.01035">
        <ele>195</ele>
        <time>2012-04-01T06:18:05Z</time>
      </trkpt>
      <trkpt lat="44.44798" lon="1.01036">
        <ele>195</ele>
        <time>2012-04-01T06:18:06Z</time>
      </trkpt>
      <trkpt lat="44.44796" lon="1.01037">
        <ele>196</ele>
        <time>2012-04-01T06:18:07Z</time>
      </trkpt>
      <trkpt lat="44.44794" lon="1.01038">
        <ele>196</ele>
        <time>2012-04-01T06:18:08Z</time>
      </trkpt>
      <trkpt lat="44.44792" lon="1.01039">
        <ele>197</ele>
        <time>2012-04-01T06:18:09Z</time>
      </trkpt>
      <trkpt lat="44.4479" lon="1.0104">
        <ele>197</ele>
        <time>2012-04-01T06:18:10Z</time>
      </trkpt>
      <trkpt lat="44.44788" lon="1.01041">
        <ele>197</ele>
        <time>2012-04-01T06:18:11Z</time>
      </trkpt>
      <trkpt lat="44.44786" lon="1.01042">
        <ele>197</ele>
        <time>2012-04-01T06:18:12Z</time>
      </trkpt>
      <trkpt lat="44.44783" lon="1.01043">
        <ele>198</ele>
        <time>2012-04-01T06:18:13Z</time>
      </trkpt>
      <trkpt lat="44.44781" lon="1.01043">
        <ele>198</ele>
        <time>2012-04-01T06:18:14Z</time>
      </trkpt>
      <trkpt lat="44.44779" lon="1.01044">
        <ele>198</ele>
        <time>2012-04-01T06:18:15Z</time>
      </trkpt>
      <trkpt lat="44.44777" lon="1.01044">
        <ele>198</ele>
        <time>2012-04-01T06:18:16Z</time>
      </trkpt>
      <trkpt lat="44.44775" lon="1.01045">
        <ele>198</ele>
        <time>2012-04-01T06:18:17Z</time>
      </trkpt>
      <trkpt lat="44.44773" lon="1.01045">
        <ele>198</ele>
        <time>2012-04-01T06:18:18Z</time>
      </trkpt>
      <trkpt lat="44.44771" lon="1.01046">
        <ele>198</ele>
        <time>2012-04-01T06:18:19Z</time>
      </trkpt>
      <trkpt lat="44.44769" lon="1.01047">
        <ele>198</ele>
        <time>2012-04-01T06:18:20Z</time>
      </trkpt>
      <trkpt lat="44.44767" lon="1.01047">
        <ele>198</ele>
        <time>2012-04-01T06:18:21Z</time>
      </trkpt>
      <trkpt lat="44.44764" lon="1.01047">
        <ele>198</ele>
        <time>2012-04-01T06:18:22Z</time>
      </trkpt>
      <trkpt lat="44.44762" lon="1.01048">
        <ele>198</ele>
        <time>2012-04-01T06:18:23Z</time>
      </trkpt>
      <trkpt lat="44.4476" lon="1.01049">
        <ele>199</ele>
        <time>2012-04-01T06:18:24Z</time>
      </trkpt>
      <trkpt lat="44.44757" lon="1.0105">
        <ele>199</ele>
        <time>2012-04-01T06:18:25Z</time>
      </trkpt>
      <trkpt lat="44.44754" lon="1.01051">
        <ele>199</ele>
        <time>2012-04-01T06:18:26Z</time>
      </trkpt>
      <trkpt lat="44.44752" lon="1.01051">
        <ele>199</ele>
        <time>2012-04-01T06:18:27Z</time>
      </trkpt>
      <trkpt lat="44.44749" lon="1.01052">
        <ele>199</ele>
        <time>2012-04-01T06:18:28Z</time>
      </trkpt>
      <trkpt lat="44.44747" lon="1.01053">
        <ele>199</ele>
        <time>2012-04-01T06:18:29Z</time>
      </trkpt>
      <trkpt lat="44.44745" lon="1.01054">
        <ele>200</ele>
        <time>2012-04-01T06:18:30Z</time>
      </trkpt>
      <trkpt lat="44.44742" lon="1.01055">
        <ele>200</ele>
        <time>2012-04-01T06:18:31Z</time>
      </trkpt>
      <trkpt lat="44.44739" lon="1.01056">
        <ele>200</ele>
        <time>2012-04-01T06:18:32Z</time>
      </trkpt>
      <trkpt lat="44.44737" lon="1.01057">
        <ele>200</ele>
        <time>2012-04-01T06:18:33Z</time>
      </trkpt>
      <trkpt lat="44.44734" lon="1.01058">
        <ele>200</ele>
        <time>2012-04-01T06:18:34Z</time>
      </trkpt>
      <trkpt lat="44.44731" lon="1.01059">
        <ele>200</ele>
        <time>2012-04-01T06:18:35Z</time>
      </trkpt>
      <trkpt lat="44.44728" lon="1.0106">
        <ele>201</ele>
        <time>2012-04-01T06:18:36Z</time>
      </trkpt>
      <trkpt lat="44.44726" lon="1.01061">
        <ele>201</ele>
        <time>2012-04-01T06:18:37Z</time>
      </trkpt>
      <trkpt lat="44.44723" lon="1.01062">
        <ele>201</ele>
        <time>2012-04-01T06:18:38Z</time>
      </trkpt>
      <trkpt lat="44.4472" lon="1.01063">
        <ele>201</ele>
        <time>2012-04-01T06:18:39Z</time>
      </trkpt>
      <trkpt lat="44.44717" lon="1.01064">
        <ele>201</ele>
        <time>2012-04-01T06:18:40Z</time>
      </trkpt>
      <trkpt lat="44.44715" lon="1.01065">
        <ele>201</ele>
        <time>2012-04-01T06:18:41Z</time>
      </trkpt>
      <trkpt lat="44.44713" lon="1.01065">
        <ele>201</ele>
        <time>2012-04-01T06:18:42Z</time>
      </trkpt>
      <trkpt lat="44.4471" lon="1.01064">
        <ele>202</ele>
        <time>2012-04-01T06:18:43Z</time>
      </trkpt>
      <trkpt lat="44.44707" lon="1.01064">
        <ele>202</ele>
        <time>2012-04-01T06:18:44Z</time>
      </trkpt>
      <trkpt lat="44.44705" lon="1.01064">
        <ele>203</ele>
        <time>2012-04-01T06:18:45Z</time>
      </trkpt>
      <trkpt lat="44.44702" lon="1.01064">
        <ele>203</ele>
        <time>2012-04-01T06:18:46Z</time>
      </trkpt>
      <trkpt lat="44.447" lon="1.01064">
        <ele>204</ele>
        <time>2012-04-01T06:18:47Z</time>
      </trkpt>
      <trkpt lat="44.44698" lon="1.01064">
        <ele>205</ele>
        <time>2012-04-01T06:18:48Z</time>
      </trkpt>
      <trkpt lat="44.44695" lon="1.01064">
        <ele>205</ele>
        <time>2012-04-01T06:18:49Z</time>
      </trkpt>
      <trkpt lat="44.44693" lon="1.01065">
        <ele>206</ele>
        <time>2012-04-01T06:18:50Z</time>
      </trkpt>
      <trkpt lat="44.4469" lon="1.01067">
        <ele>206</ele>
        <time>2012-04-01T06:18:51Z</time>
      </trkpt>
      <trkpt lat="44.44686" lon="1.01068">
        <ele>207</ele>
        <time>2012-04-01T06:18:52Z</time>
      </trkpt>
      <trkpt lat="44.44683" lon="1.01069">
        <ele>207</ele>
        <time>2012-04-01T06:18:53Z</time>
      </trkpt>
      <trkpt lat="44.44681" lon="1.01071">
        <ele>207</ele>
        <time>2012-04-01T06:18:54Z</time>
      </trkpt>
      <trkpt lat="44.44678" lon="1.01072">
        <ele>207</ele>
        <time>2012-04-01T06:18:55Z</time>
      </trkpt>
      <trkpt lat="44.44676" lon="1.01072">
        <ele>208</ele>
        <time>2012-04-01T06:18:56Z</time>
      </trkpt>
      <trkpt lat="44.44674" lon="1.01073">
        <ele>208</ele>
        <time>2012-04-01T06:18:57Z</time>
      </trkpt>
      <trkpt lat="44.44672" lon="1.01074">
        <ele>209</ele>
        <time>2012-04-01T06:18:58Z</time>
      </trkpt>
      <trkpt lat="44.44669" lon="1.01075">
        <ele>209</ele>
        <time>2012-04-01T06:18:59Z</time>
      </trkpt>
      <trkpt lat="44.44667" lon="1.01075">
        <ele>209</ele>
        <time>2012-04-01T06:19:00Z</time>
      </trkpt>
      <trkpt lat="44.44664" lon="1.01076">
        <ele>209</ele>
        <time>2012-04-01T06:19:01Z</time>
      </trkpt>
      <trkpt lat="44.44662" lon="1.01077">
        <ele>210</ele>
        <time>2012-04-01T06:19:02Z</time>
      </trkpt>
      <trkpt lat="44.44661" lon="1.01078">
        <ele>210</ele>
        <time>2012-04-01T06:19:03Z</time>
      </trkpt>
      <trkpt lat="44.44659" lon="1.01079">
        <ele>210</ele>
        <time>2012-04-01T06:19:04Z</time>
      </trkpt>
      <trkpt lat="44.44656" lon="1.01079">
        <ele>210</ele>
        <time>2012-04-01T06:19:05Z</time>
      </trkpt>
      <trkpt lat="44.44654" lon="1.01079">
        <ele>210</ele>
        <time>2012-04-01T06:19:06Z</time>
      </trkpt>
      <trkpt lat="44.44653" lon="1.01079">
        <ele>210</ele>
        <time>2012-04-01T06:19:07Z</time>
      </trkpt>
      <trkpt lat="44.44651" lon="1.01079">
        <ele>210</ele>
        <time>2012-04-01T06:19:08Z</time>
      </trkpt>
      <trkpt lat="44.44649" lon="1.0108">
        <ele>210</ele>
        <time>2012-04-01T06:19:09Z</time>
      </trkpt>
      <trkpt lat="44.44647" lon="1.0108">
        <ele>211</ele>
        <time>2012-04-01T06:19:10Z</time>
      </trkpt>
      <trkpt lat="44.44645" lon="1.0108">
        <ele>211</ele>
        <time>2012-04-01T06:19:11Z</time>
      </trkpt>
      <trkpt lat="44.44643" lon="1.01081">
        <ele>211</ele>
        <time>2012-04-01T06:19:12Z</time>
      </trkpt>
      <trkpt lat="44.44641" lon="1.01082">
        <ele>211</ele>
        <time>2012-04-01T06:19:13Z</time>
      </trkpt>
      <trkpt lat="44.44638" lon="1.01083">
        <ele>211</ele>
        <time>2012-04-01T06:19:14Z</time>
      </trkpt>
      <trkpt lat="44.44637" lon="1.01084">
        <ele>211</ele>
        <time>2012-04-01T06:19:15Z</time>
      </trkpt>
      <trkpt lat="44.44635" lon="1.01084">
        <ele>211</ele>
        <time>2012-04-01T06:19:16Z</time>
      </trkpt>
      <trkpt lat="44.44632" lon="1.01085">
        <ele>211</ele>
        <time>2012-04-01T06:19:17Z</time>
      </trkpt>
      <trkpt lat="44.4463" lon="1.01086">
        <ele>211</ele>
        <time>2012-04-01T06:19:18Z</time>
      </trkpt>
      <trkpt lat="44.44627" lon="1.01087">
        <ele>211</ele>
        <time>2012-04-01T06:19:19Z</time>
      </trkpt>
      <trkpt lat="44.44625" lon="1.01087">
        <ele>211</ele>
        <time>2012-04-01T06:19:20Z</time>
      </trkpt>
      <trkpt lat="44.44623" lon="1.01089">
        <ele>211</ele>
        <time>2012-04-01T06:19:21Z</time>
      </trkpt>
      <trkpt lat="44.44621" lon="1.0109">
        <ele>211</ele>
        <time>2012-04-01T06:19:22Z</time>
      </trkpt>
      <trkpt lat="44.44618" lon="1.01091">
        <ele>211</ele>
        <time>2012-04-01T06:19:23Z</time>
      </trkpt>
      <trkpt lat="44.44616" lon="1.01093">
        <ele>211</ele>
        <time>2012-04-01T06:19:24Z</time>
      </trkpt>
      <trkpt lat="44.44613" lon="1.01094">
        <ele>211</ele>
        <time>2012-04-01T06:19:25Z</time>
      </trkpt>
      <trkpt lat="44.4461" lon="1.01096">
        <ele>211</ele>
        <time>2012-04-01T06:19:26Z</time>
      </trkpt>
      <trkpt lat="44.44607" lon="1.01098">
        <ele>211</ele>
        <time>2012-04-01T06:19:27Z</time>
      </trkpt>
      <trkpt lat="44.44604" lon="1.011">
        <ele>211</ele>
        <time>2012-04-01T06:19:28Z</time>
      </trkpt>
      <trkpt lat="44.44601" lon="1.01101">
        <ele>211</ele>
        <time>2012-04-01T06:19:29Z</time>
      </trkpt>
      <trkpt lat="44.44598" lon="1.01104">
        <ele>211</ele>
        <time>2012-04-01T06:19:30Z</time>
      </trkpt>
      <trkpt lat="44.44595" lon="1.01106">
        <ele>211</ele>
        <time>2012-04-01T06:19:31Z</time>
      </trkpt>
      <trkpt lat="44.44592" lon="1.01108">
        <ele>211</ele>
        <time>2012-04-01T06:19:32Z</time>
      </trkpt>
      <trkpt lat="44.44589" lon="1.0111">
        <ele>211</ele>
        <time>2012-04-01T06:19:33Z</time>
      </trkpt>
      <trkpt lat="44.44586" lon="1.01111">
        <ele>211</ele>
        <time>2012-04-01T06:19:34Z</time>
      </trkpt>
      <trkpt lat="44.44583" lon="1.01113">
        <ele>211</ele>
        <time>2012-04-01T06:19:35Z</time>
      </trkpt>
      <trkpt lat="44.4458" lon="1.01114">
        <ele>211</ele>
        <time>2012-04-01T06:19:36Z</time>
      </trkpt>
      <trkpt lat="44.44578" lon="1.01116">
        <ele>211</ele>
        <time>2012-04-01T06:19:37Z</time>
      </trkpt>
      <trkpt lat="44.44575" lon="1.01117">
        <ele>211</ele>
        <time>2012-04-01T06:19:38Z</time>
      </trkpt>
      <trkpt lat="44.44573" lon="1.01119">
        <ele>211</ele>
        <time>2012-04-01T06:19:39Z</time>
      </trkpt>
      <trkpt lat="44.44572" lon="1.0112">
        <ele>211</ele>
        <time>2012-04-01T06:19:40Z</time>
      </trkpt>
      <trkpt lat="44.4457" lon="1.01122">
        <ele>211</ele>
        <time>2012-04-01T06:19:41Z</time>
      </trkpt>
      <trkpt lat="44.44568" lon="1.01123">
        <ele>211</ele>
        <time>2012-04-01T06:19:42Z</time>
      </trkpt>
      <trkpt lat="44.44566" lon="1.01126">
        <ele>211</ele>
        <time>2012-04-01T06:19:43Z</time>
      </trkpt>
      <trkpt lat="44.44564" lon="1.01128">
        <ele>211</ele>
        <time>2012-04-01T06:19:44Z</time>
      </trkpt>
      <trkpt lat="44.44561" lon="1.01129">
        <ele>211</ele>
        <time>2012-04-01T06:19:45Z</time>
      </trkpt>
      <trkpt lat="44.44559" lon="1.01131">
        <ele>211</ele>
        <time>2012-04-01T06:19:46Z</time>
      </trkpt>
      <trkpt lat="44.44556" lon="1.01133">
        <ele>211</ele>
        <time>2012-04-01T06:19:47Z</time>
      </trkpt>
      <trkpt lat="44.44553" lon="1.01134">
        <ele>211</ele>
        <time>2012-04-01T06:19:48Z</time>
      </trkpt>
      <trkpt lat="44.4455" lon="1.01136">
        <ele>211</ele>
        <time>2012-04-01T06:19:49Z</time>
      </trkpt>
      <trkpt lat="44.44547" lon="1.01137">
        <ele>211</ele>
        <time>2012-04-01T06:19:50Z</time>
      </trkpt>
      <trkpt lat="44.44544" lon="1.0114">
        <ele>211</ele>
        <time>2012-04-01T06:19:51Z</time>
      </trkpt>
      <trkpt lat="44.44541" lon="1.01143">
        <ele>211</ele>
        <time>2012-04-01T06:19:52Z</time>
      </trkpt>
      <trkpt lat="44.44538" lon="1.01145">
        <ele>211</ele>
        <time>2012-04-01T06:19:53Z</time>
      </trkpt>
      <trkpt lat="44.44535" lon="1.01148">
        <ele>211</ele>
        <time>2012-04-01T06:19:54Z</time>
      </trkpt>
      <trkpt lat="44.44532" lon="1.01152">
        <ele>211</ele>
        <time>2012-04-01T06:19:55Z</time>
      </trkpt>
      <trkpt lat="44.44529" lon="1.01155">
        <ele>211</ele>
        <time>2012-04-01T06:19:56Z</time>
      </trkpt>
      <trkpt lat="44.44526" lon="1.01158">
        <ele>211</ele>
        <time>2012-04-01T06:19:57Z</time>
      </trkpt>
      <trkpt lat="44.44523" lon="1.01161">
        <ele>211</ele>
        <time>2012-04-01T06:19:58Z</time>
      </trkpt>
      <trkpt lat="44.44521" lon="1.01164">
        <ele>211</ele>
        <time>2012-04-01T06:19:59Z</time>
      </trkpt>
      <trkpt lat="44.44518" lon="1.01167">
        <ele>211</ele>
        <time>2012-04-01T06:20:00Z</time>
      </trkpt>
      <trkpt lat="44.44514" lon="1.01171">
        <ele>211</ele>
        <time>2012-04-01T06:20:01Z</time>
      </trkpt>
      <trkpt lat="44.44511" lon="1.01174">
        <ele>211</ele>
        <time>2012-04-01T06:20:02Z</time>
      </trkpt>
      <trkpt lat="44.44508" lon="1.01177">
        <ele>211</ele>
        <time>2012-04-01T06:20:03Z</time>
      </trkpt>
      <trkpt lat="44.44505" lon="1.0118">
        <ele>211</ele>
        <time>2012-04-01T06:20:04Z</time>
      </trkpt>
      <trkpt lat="44.44502" lon="1.01184">
        <ele>211</ele>
        <time>2012-04-01T06:20:05Z</time>
      </trkpt>
      <trkpt lat="44.44499" lon="1.01189">
        <ele>211</ele>
        <time>2012-04-01T06:20:06Z</time>
      </trkpt>
      <trkpt lat="44.44496" lon="1.01193">
        <ele>211</ele>
        <time>2012-04-01T06:20:07Z</time>
      </trkpt>
      <trkpt lat="44.44493" lon="1.01197">
        <ele>211</ele>
        <time>2012-04-01T06:20:08Z</time>
      </trkpt>
      <trkpt lat="44.4449" lon="1.01201">
        <ele>211</ele>
        <time>2012-04-01T06:20:09Z</time>
      </trkpt>
      <trkpt lat="44.44486" lon="1.01205">
        <ele>211</ele>
        <time>2012-04-01T06:20:10Z</time>
      </trkpt>
      <trkpt lat="44.44482" lon="1.01206">
        <ele>211</ele>
        <time>2012-04-01T06:20:11Z</time>
      </trkpt>
      <trkpt lat="44.44479" lon="1.01205">
        <ele>211</ele>
        <time>2012-04-01T06:20:13Z</time>
      </trkpt>
      <trkpt lat="44.44476" lon="1.01202">
        <ele>211</ele>
        <time>2012-04-01T06:20:13Z</time>
      </trkpt>
      <trkpt lat="44.44473" lon="1.01198">
        <ele>211</ele>
        <time>2012-04-01T06:20:14Z</time>
      </trkpt>
      <trkpt lat="44.44471" lon="1.01194">
        <ele>211</ele>
        <time>2012-04-01T06:20:15Z</time>
      </trkpt>
      <trkpt lat="44.44469" lon="1.01189">
        <ele>212</ele>
        <time>2012-04-01T06:20:16Z</time>
      </trkpt>
      <trkpt lat="44.44466" lon="1.01184">
        <ele>212</ele>
        <time>2012-04-01T06:20:17Z</time>
      </trkpt>
      <trkpt lat="44.44463" lon="1.01179">
        <ele>212</ele>
        <time>2012-04-01T06:20:18Z</time>
      </trkpt>
      <trkpt lat="44.4446" lon="1.01174">
        <ele>212</ele>
        <time>2012-04-01T06:20:19Z</time>
      </trkpt>
      <trkpt lat="44.44457" lon="1.01169">
        <ele>212</ele>
        <time>2012-04-01T06:20:20Z</time>
      </trkpt>
      <trkpt lat="44.44454" lon="1.01164">
        <ele>212</ele>
        <time>2012-04-01T06:20:21Z</time>
      </trkpt>
      <trkpt lat="44.44451" lon="1.01159">
        <ele>212</ele>
        <time>2012-04-01T06:20:22Z</time>
      </trkpt>
      <trkpt lat="44.44448" lon="1.01153">
        <ele>212</ele>
        <time>2012-04-01T06:20:23Z</time>
      </trkpt>
      <trkpt lat="44.44446" lon="1.01148">
        <ele>212</ele>
        <time>2012-04-01T06:20:24Z</time>
      </trkpt>
      <trkpt lat="44.44443" lon="1.01143">
        <ele>212</ele>
        <time>2012-04-01T06:20:25Z</time>
      </trkpt>
      <trkpt lat="44.4444" lon="1.01138">
        <ele>212</ele>
        <time>2012-04-01T06:20:26Z</time>
      </trkpt>
      <trkpt lat="44.44437" lon="1.01134">
        <ele>212</ele>
        <time>2012-04-01T06:20:27Z</time>
      </trkpt>
      <trkpt lat="44.44433" lon="1.01128">
        <ele>212</ele>
        <time>2012-04-01T06:20:28Z</time>
      </trkpt>
      <trkpt lat="44.4443" lon="1.01122">
        <ele>212</ele>
        <time>2012-04-01T06:20:29Z</time>
      </trkpt>
      <trkpt lat="44.44426" lon="1.01118">
        <ele>212</ele>
        <time>2012-04-01T06:20:30Z</time>
      </trkpt>
      <trkpt lat="44.44423" lon="1.01113">
        <ele>212</ele>
        <time>2012-04-01T06:20:31Z</time>
      </trkpt>
      <trkpt lat="44.44419" lon="1.01108">
        <ele>212</ele>
        <time>2012-04-01T06:20:32Z</time>
      </trkpt>
      <trkpt lat="44.44415" lon="1.01104">
        <ele>212</ele>
        <time>2012-04-01T06:20:33Z</time>
      </trkpt>
      <trkpt lat="44.44411" lon="1.01099">
        <ele>212</ele>
        <time>2012-04-01T06:20:34Z</time>
      </trkpt>
      <trkpt lat="44.44406" lon="1.01094">
        <ele>212</ele>
        <time>2012-04-01T06:20:35Z</time>
      </trkpt>
      <trkpt lat="44.44401" lon="1.0109">
        <ele>212</ele>
        <time>2012-04-01T06:20:36Z</time>
      </trkpt>
      <trkpt lat="44.44396" lon="1.01086">
        <ele>212</ele>
        <time>2012-04-01T06:20:37Z</time>
      </trkpt>
      <trkpt lat="44.44392" lon="1.01081">
        <ele>212</ele>
        <time>2012-04-01T06:20:38Z</time>
      </trkpt>
      <trkpt lat="44.44387" lon="1.01076">
        <ele>212</ele>
        <time>2012-04-01T06:20:39Z</time>
      </trkpt>
      <trkpt lat="44.44382" lon="1.01072">
        <ele>212</ele>
        <time>2012-04-01T06:20:40Z</time>
      </trkpt>
      <trkpt lat="44.44378" lon="1.01067">
        <ele>212</ele>
        <time>2012-04-01T06:20:41Z</time>
      </trkpt>
      <trkpt lat="44.44374" lon="1.01063">
        <ele>212</ele>
        <time>2012-04-01T06:20:42Z</time>
      </trkpt>
      <trkpt lat="44.4437" lon="1.0106">
        <ele>212</ele>
        <time>2012-04-01T06:20:43Z</time>
      </trkpt>
      <trkpt lat="44.44366" lon="1.01057">
        <ele>212</ele>
        <time>2012-04-01T06:20:44Z</time>
      </trkpt>
      <trkpt lat="44.44361" lon="1.01055">
        <ele>212</ele>
        <time>2012-04-01T06:20:45Z</time>
      </trkpt>
      <trkpt lat="44.44356" lon="1.01052">
        <ele>212</ele>
        <time>2012-04-01T06:20:46Z</time>
      </trkpt>
      <trkpt lat="44.44351" lon="1.0105">
        <ele>212</ele>
        <time>2012-04-01T06:20:47Z</time>
      </trkpt>
      <trkpt lat="44.44345" lon="1.01049">
        <ele>212</ele>
        <time>2012-04-01T06:20:48Z</time>
      </trkpt>
      <trkpt lat="44.4434" lon="1.01047">
        <ele>212</ele>
        <time>2012-04-01T06:20:49Z</time>
      </trkpt>
      <trkpt lat="44.44335" lon="1.01046">
        <ele>212</ele>
        <time>2012-04-01T06:20:50Z</time>
      </trkpt>
      <trkpt lat="44.44331" lon="1.01044">
        <ele>212</ele>
        <time>2012-04-01T06:20:51Z</time>
      </trkpt>
      <trkpt lat="44.44326" lon="1.01042">
        <ele>212</ele>
        <time>2012-04-01T06:20:52Z</time>
      </trkpt>
      <trkpt lat="44.44323" lon="1.0104">
        <ele>212</ele>
        <time>2012-04-01T06:20:53Z</time>
      </trkpt>
      <trkpt lat="44.44321" lon="1.01037">
        <ele>212</ele>
        <time>2012-04-01T06:20:54Z</time>
      </trkpt>
      <trkpt lat="44.44321" lon="1.01032">
        <ele>212</ele>
        <time>2012-04-01T06:20:55Z</time>
      </trkpt>
      <trkpt lat="44.44323" lon="1.01026">
        <ele>212</ele>
        <time>2012-04-01T06:20:56Z</time>
      </trkpt>
      <trkpt lat="44.44325" lon="1.01022">
        <ele>212</ele>
        <time>2012-04-01T06:20:57Z</time>
      </trkpt>
      <trkpt lat="44.44327" lon="1.01017">
        <ele>213</ele>
        <time>2012-04-01T06:20:58Z</time>
      </trkpt>
      <trkpt lat="44.44329" lon="1.01012">
        <ele>213</ele>
        <time>2012-04-01T06:20:59Z</time>
      </trkpt>
      <trkpt lat="44.44332" lon="1.01007">
        <ele>213</ele>
        <time>2012-04-01T06:21:00Z</time>
      </trkpt>
      <trkpt lat="44.44334" lon="1.01001">
        <ele>213</ele>
        <time>2012-04-01T06:21:01Z</time>
      </trkpt>
      <trkpt lat="44.44337" lon="1.00994">
        <ele>213</ele>
        <time>2012-04-01T06:21:02Z</time>
      </trkpt>
      <trkpt lat="44.44339" lon="1.00987">
        <ele>213</ele>
        <time>2012-04-01T06:21:03Z</time>
      </trkpt>
      <trkpt lat="44.44342" lon="1.0098">
        <ele>213</ele>
        <time>2012-04-01T06:21:04Z</time>
      </trkpt>
      <trkpt lat="44.44345" lon="1.00973">
        <ele>213</ele>
        <time>2012-04-01T06:21:05Z</time>
      </trkpt>
      <trkpt lat="44.44348" lon="1.00966">
        <ele>213</ele>
        <time>2012-04-01T06:21:06Z</time>
      </trkpt>
      <trkpt lat="44.44351" lon="1.00959">
        <ele>213</ele>
        <time>2012-04-01T06:21:07Z</time>
      </trkpt>
      <trkpt lat="44.44354" lon="1.00951">
        <ele>213</ele>
        <time>2012-04-01T06:21:08Z</time>
      </trkpt>
      <trkpt lat="44.44357" lon="1.00944">
        <ele>213</ele>
        <time>2012-04-01T06:21:09Z</time>
      </trkpt>
      <trkpt lat="44.4436" lon="1.00936">
        <ele>213</ele>
        <time>2012-04-01T06:21:10Z</time>
      </trkpt>
      <trkpt lat="44.44363" lon="1.00929">
        <ele>213</ele>
        <time>2012-04-01T06:21:11Z</time>
      </trkpt>
      <trkpt lat="44.44365" lon="1.00922">
        <ele>213</ele>
        <time>2012-04-01T06:21:12Z</time>
      </trkpt>
      <trkpt lat="44.44368" lon="1.00916">
        <ele>213</ele>
        <time>2012-04-01T06:21:13Z</time>
      </trkpt>
      <trkpt lat="44.44371" lon="1.00909">
        <ele>213</ele>
        <time>2012-04-01T06:21:14Z</time>
      </trkpt>
      <trkpt lat="44.44374" lon="1.00901">
        <ele>213</ele>
        <time>2012-04-01T06:21:15Z</time>
      </trkpt>
      <trkpt lat="44.44375" lon="1.00893">
        <ele>212</ele>
        <time>2012-04-01T06:21:16Z</time>
      </trkpt>
      <trkpt lat="44.44375" lon="1.00884">
        <ele>211</ele>
        <time>2012-04-01T06:21:17Z</time>
      </trkpt>
      <trkpt lat="44.44375" lon="1.00874">
        <ele>210</ele>
        <time>2012-04-01T06:21:18Z</time>
      </trkpt>
      <trkpt lat="44.44376" lon="1.00866">
        <ele>210</ele>
        <time>2012-04-01T06:21:19Z</time>
      </trkpt>
      <trkpt lat="44.44376" lon="1.00858">
        <ele>209</ele>
        <time>2012-04-01T06:21:20Z</time>
      </trkpt>
      <trkpt lat="44.44374" lon="1.00852">
        <ele>208</ele>
        <time>2012-04-01T06:21:21Z</time>
      </trkpt>
      <trkpt lat="44.4437" lon="1.00849">
        <ele>207</ele>
        <time>2012-04-01T06:21:22Z</time>
      </trkpt>
      <trkpt lat="44.44364" lon="1.00847">
        <ele>206</ele>
        <time>2012-04-01T06:21:23Z</time>
      </trkpt>
      <trkpt lat="44.44358" lon="1.00846">
        <ele>205</ele>
        <time>2012-04-01T06:21:24Z</time>
      </trkpt>
      <trkpt lat="44.44353" lon="1.00844">
        <ele>204</ele>
        <time>2012-04-01T06:21:25Z</time>
      </trkpt>
      <trkpt lat="44.44349" lon="1.0084">
        <ele>203</ele>
        <time>2012-04-01T06:21:26Z</time>
      </trkpt>
      <trkpt lat="44.44345" lon="1.00836">
        <ele>203</ele>
        <time>2012-04-01T06:21:27Z</time>
      </trkpt>
      <trkpt lat="44.44342" lon="1.00832">
        <ele>203</ele>
        <time>2012-04-01T06:21:28Z</time>
      </trkpt>
      <trkpt lat="44.44337" lon="1.00829">
        <ele>203</ele>
        <time>2012-04-01T06:21:29Z</time>
      </trkpt>
      <trkpt lat="44.44331" lon="1.00827">
        <ele>203</ele>
        <time>2012-04-01T06:21:30Z</time>
      </trkpt>
      <trkpt lat="44.44326" lon="1.00826">
        <ele>203</ele>
        <time>2012-04-01T06:21:31Z</time>
      </trkpt>
      <trkpt lat="44.4432" lon="1.00824">
        <ele>203</ele>
        <time>2012-04-01T06:21:32Z</time>
      </trkpt>
      <trkpt lat="44.44313" lon="1.00822">
        <ele>203</ele>
        <time>2012-04-01T06:21:33Z</time>
      </trkpt>
      <trkpt lat="44.44307" lon="1.00821">
        <ele>203</ele>
        <time>2012-04-01T06:21:34Z</time>
      </trkpt>
      <trkpt lat="44.44301" lon="1.00819">
        <ele>203</ele>
        <time>2012-04-01T06:21:35Z</time>
      </trkpt>
      <trkpt lat="44.44294" lon="1.00817">
        <ele>203</ele>
        <time>2012-04-01T06:21:36Z</time>
      </trkpt>
      <trkpt lat="44.44289" lon="1.00815">
        <ele>203</ele>
        <time>2012-04-01T06:21:37Z</time>
      </trkpt>
      <trkpt lat="44.44283" lon="1.00814">
        <ele>202</ele>
        <time>2012-04-01T06:21:38Z</time>
      </trkpt>
      <trkpt lat="44.44278" lon="1.00813">
        <ele>202</ele>
        <time>2012-04-01T06:21:39Z</time>
      </trkpt>
      <trkpt lat="44.44273" lon="1.00811">
        <ele>202</ele>
        <time>2012-04-01T06:21:40Z</time>
      </trkpt>
      <trkpt lat="44.44269" lon="1.00807">
        <ele>202</ele>
        <time>2012-04-01T06:21:41Z</time>
      </trkpt>
      <trkpt lat="44.44267" lon="1.00803">
        <ele>201</ele>
        <time>2012-04-01T06:21:42Z</time>
      </trkpt>
      <trkpt lat="44.44265" lon="1.00797">
        <ele>201</ele>
        <time>2012-04-01T06:21:43Z</time>
      </trkpt>
      <trkpt lat="44.44264" lon="1.0079">
        <ele>200</ele>
        <time>2012-04-01T06:21:44Z</time>
      </trkpt>
      <trkpt lat="44.44265" lon="1.00782">
        <ele>200</ele>
        <time>2012-04-01T06:21:45Z</time>
      </trkpt>
      <trkpt lat="44.44266" lon="1.00773">
        <ele>199</ele>
        <time>2012-04-01T06:21:46Z</time>
      </trkpt>
      <trkpt lat="44.44267" lon="1.00764">
        <ele>199</ele>
        <time>2012-04-01T06:21:47Z</time>
      </trkpt>
      <trkpt lat="44.44268" lon="1.00755">
        <ele>198</ele>
        <time>2012-04-01T06:21:48Z</time>
      </trkpt>
      <trkpt lat="44.44268" lon="1.00746">
        <ele>198</ele>
        <time>2012-04-01T06:21:49Z</time>
      </trkpt>
      <trkpt lat="44.44267" lon="1.00738">
        <ele>197</ele>
        <time>2012-04-01T06:21:50Z</time>
      </trkpt>
      <trkpt lat="44.44265" lon="1.00731">
        <ele>197</ele>
        <time>2012-04-01T06:21:51Z</time>
      </trkpt>
      <trkpt lat="44.44261" lon="1.00724">
        <ele>196</ele>
        <time>2012-04-01T06:21:52Z</time>
      </trkpt>
      <trkpt lat="44.44258" lon="1.00719">
        <ele>196</ele>
        <time>2012-04-01T06:21:53Z</time>
      </trkpt>
      <trkpt lat="44.44255" lon="1.00714">
        <ele>195</ele>
        <time>2012-04-01T06:21:54Z</time>
      </trkpt>
      <trkpt lat="44.44251" lon="1.00711">
        <ele>194</ele>
        <time>2012-04-01T06:21:55Z</time>
      </trkpt>
      <trkpt lat="44.44248" lon="1.00707">
        <ele>194</ele>
        <time>2012-04-01T06:21:56Z</time>
      </trkpt>
      <trkpt lat="44.44246" lon="1.00701">
        <ele>193</ele>
        <time>2012-04-01T06:21:57Z</time>
      </trkpt>
      <trkpt lat="44.44244" lon="1.00695">
        <ele>192</ele>
        <time>2012-04-01T06:21:58Z</time>
      </trkpt>
      <trkpt lat="44.44243" lon="1.00688">
        <ele>192</ele>
        <time>2012-04-01T06:21:59Z</time>
      </trkpt>
      <trkpt lat="44.44241" lon="1.0068">
        <ele>191</ele>
        <time>2012-04-01T06:22:00Z</time>
      </trkpt>
      <trkpt lat="44.4424" lon="1.00671">
        <ele>190</ele>
        <time>2012-04-01T06:22:01Z</time>
      </trkpt>
      <trkpt lat="44.4424" lon="1.00663">
        <ele>189</ele>
        <time>2012-04-01T06:22:02Z</time>
      </trkpt>
      <trkpt lat="44.4424" lon="1.00655">
        <ele>189</ele>
        <time>2012-04-01T06:22:03Z</time>
      </trkpt>
      <trkpt lat="44.4424" lon="1.00646">
        <ele>188</ele>
        <time>2012-04-01T06:22:04Z</time>
      </trkpt>
      <trkpt lat="44.44241" lon="1.00637">
        <ele>187</ele>
        <time>2012-04-01T06:22:05Z</time>
      </trkpt>
      <trkpt lat="44.44243" lon="1.00627">
        <ele>186</ele>
        <time>2012-04-01T06:22:06Z</time>
      </trkpt>
      <trkpt lat="44.44245" lon="1.00619">
        <ele>185</ele>
        <time>2012-04-01T06:22:07Z</time>
      </trkpt>
      <trkpt lat="44.44248" lon="1.0061">
        <ele>184</ele>
        <time>2012-04-01T06:22:08Z</time>
      </trkpt>
      <trkpt lat="44.44251" lon="1.00601">
        <ele>183</ele>
        <time>2012-04-01T06:22:09Z</time>
      </trkpt>
      <trkpt lat="44.44255" lon="1.00594">
        <ele>183</ele>
        <time>2012-04-01T06:22:10Z</time>
      </trkpt>
      <trkpt lat="44.4426" lon="1.00587">
        <ele>182</ele>
        <time>2012-04-01T06:22:11Z</time>
      </trkpt>
      <trkpt lat="44.44265" lon="1.00581">
        <ele>181</ele>
        <time>2012-04-01T06:22:12Z</time>
      </trkpt>
      <trkpt lat="44.4427" lon="1.00576">
        <ele>180</ele>
        <time>2012-04-01T06:22:13Z</time>
      </trkpt>
      <trkpt lat="44.44275" lon="1.00573">
        <ele>179</ele>
        <time>2012-04-01T06:22:14Z</time>
      </trkpt>
      <trkpt lat="44.44281" lon="1.00571">
        <ele>178</ele>
        <time>2012-04-01T06:22:15Z</time>
      </trkpt>
      <trkpt lat="44.44287" lon="1.00572">
        <ele>178</ele>
        <time>2012-04-01T06:22:16Z</time>
      </trkpt>
      <trkpt lat="44.44293" lon="1.00574">
        <ele>177</ele>
        <time>2012-04-01T06:22:17Z</time>
      </trkpt>
      <trkpt lat="44.44299" lon="1.00578">
        <ele>176</ele>
        <time>2012-04-01T06:22:18Z</time>
      </trkpt>
      <trkpt lat="44.44304" lon="1.00584">
        <ele>176</ele>
        <time>2012-04-01T06:22:19Z</time>
      </trkpt>
      <trkpt lat="44.44308" lon="1.0059">
        <ele>175</ele>
        <time>2012-04-01T06:22:20Z</time>
      </trkpt>
      <trkpt lat="44.44312" lon="1.00596">
        <ele>174</ele>
        <time>2012-04-01T06:22:21Z</time>
      </trkpt>
      <trkpt lat="44.44316" lon="1.00601">
        <ele>174</ele>
        <time>2012-04-01T06:22:22Z</time>
      </trkpt>
      <trkpt lat="44.44321" lon="1.00604">
        <ele>173</ele>
        <time>2012-04-01T06:22:23Z</time>
      </trkpt>
      <trkpt lat="44.44325" lon="1.00604">
        <ele>172</ele>
        <time>2012-04-01T06:22:24Z</time>
      </trkpt>
      <trkpt lat="44.4433" lon="1.00601">
        <ele>172</ele>
        <time>2012-04-01T06:22:25Z</time>
      </trkpt>
      <trkpt lat="44.44332" lon="1.00597">
        <ele>171</ele>
        <time>2012-04-01T06:22:26Z</time>
      </trkpt>
      <trkpt lat="44.44334" lon="1.00591">
        <ele>170</ele>
        <time>2012-04-01T06:22:27Z</time>
      </trkpt>
      <trkpt lat="44.44333" lon="1.00584">
        <ele>169</ele>
        <time>2012-04-01T06:22:28Z</time>
      </trkpt>
      <trkpt lat="44.44332" lon="1.00576">
        <ele>168</ele>
        <time>2012-04-01T06:22:29Z</time>
      </trkpt>
      <trkpt lat="44.44331" lon="1.00566">
        <ele>167</ele>
        <time>2012-04-01T06:22:30Z</time>
      </trkpt>
      <trkpt lat="44.4433" lon="1.00556">
        <ele>166</ele>
        <time>2012-04-01T06:22:31Z</time>
      </trkpt>
      <trkpt lat="44.44331" lon="1.00546">
        <ele>165</ele>
        <time>2012-04-01T06:22:32Z</time>
      </trkpt>
      <trkpt lat="44.4433" lon="1.00536">
        <ele>164</ele>
        <time>2012-04-01T06:22:33Z</time>
      </trkpt>
      <trkpt lat="44.44328" lon="1.00526">
        <ele>163</ele>
        <time>2012-04-01T06:22:34Z</time>
      </trkpt>
      <trkpt lat="44.44325" lon="1.00517">
        <ele>162</ele>
        <time>2012-04-01T06:22:35Z</time>
      </trkpt>
      <trkpt lat="44.44322" lon="1.00507">
        <ele>161</ele>
        <time>2012-04-01T06:22:36Z</time>
      </trkpt>
      <trkpt lat="44.44319" lon="1.00498">
        <ele>160</ele>
        <time>2012-04-01T06:22:37Z</time>
      </trkpt>
      <trkpt lat="44.44314" lon="1.0049">
        <ele>159</ele>
        <time>2012-04-01T06:22:38Z</time>
      </trkpt>
      <trkpt lat="44.4431" lon="1.00482">
        <ele>158</ele>
        <time>2012-04-01T06:22:39Z</time>
      </trkpt>
      <trkpt lat="44.44304" lon="1.00475">
        <ele>157</ele>
        <time>2012-04-01T06:22:40Z</time>
      </trkpt>
      <trkpt lat="44.44297" lon="1.00468">
        <ele>156</ele>
        <time>2012-04-01T06:22:41Z</time>
      </trkpt>
      <trkpt lat="44.44291" lon="1.00462">
        <ele>155</ele>
        <time>2012-04-01T06:22:42Z</time>
      </trkpt>
      <trkpt lat="44.44284" lon="1.00455">
        <ele>154</ele>
        <time>2012-04-01T06:22:43Z</time>
      </trkpt>
      <trkpt lat="44.44276" lon="1.0045">
        <ele>153</ele>
        <time>2012-04-01T06:22:44Z</time>
      </trkpt>
      <trkpt lat="44.44268" lon="1.00445">
        <ele>152</ele>
        <time>2012-04-01T06:22:45Z</time>
      </trkpt>
      <trkpt lat="44.4426" lon="1.0044">
        <ele>152</ele>
        <time>2012-04-01T06:22:46Z</time>
      </trkpt>
      <trkpt lat="44.44252" lon="1.00436">
        <ele>152</ele>
        <time>2012-04-01T06:22:47Z</time>
      </trkpt>
      <trkpt lat="44.44244" lon="1.0043">
        <ele>152</ele>
        <time>2012-04-01T06:22:48Z</time>
      </trkpt>
      <trkpt lat="44.44235" lon="1.00425">
        <ele>152</ele>
        <time>2012-04-01T06:22:49Z</time>
      </trkpt>
      <trkpt lat="44.44226" lon="1.00419">
        <ele>152</ele>
        <time>2012-04-01T06:22:50Z</time>
      </trkpt>
      <trkpt lat="44.44217" lon="1.00414">
        <ele>152</ele>
        <time>2012-04-01T06:22:51Z</time>
      </trkpt>
      <trkpt lat="44.4421" lon="1.00409">
        <ele>152</ele>
        <time>2012-04-01T06:22:52Z</time>
      </trkpt>
      <trkpt lat="44.44201" lon="1.00404">
        <ele>151</ele>
        <time>2012-04-01T06:22:53Z</time>
      </trkpt>
      <trkpt lat="44.44193" lon="1.00399">
        <ele>150</ele>
        <time>2012-04-01T06:22:54Z</time>
      </trkpt>
      <trkpt lat="44.44185" lon="1.00393">
        <ele>149</ele>
        <time>2012-04-01T06:22:55Z</time>
      </trkpt>
      <trkpt lat="44.44178" lon="1.00388">
        <ele>149</ele>
        <time>2012-04-01T06:22:56Z</time>
      </trkpt>
      <trkpt lat="44.4417" lon="1.00385">
        <ele>148</ele>
        <time>2012-04-01T06:22:57Z</time>
      </trkpt>
      <trkpt lat="44.44162" lon="1.00384">
        <ele>147</ele>
        <time>2012-04-01T06:22:58Z</time>
      </trkpt>
      <trkpt lat="44.44155" lon="1.00384">
        <ele>146</ele>
        <time>2012-04-01T06:22:59Z</time>
      </trkpt>
      <trkpt lat="44.44148" lon="1.00387">
        <ele>146</ele>
        <time>2012-04-01T06:23:00Z</time>
      </trkpt>
      <trkpt lat="44.4414" lon="1.00388">
        <ele>146</ele>
        <time>2012-04-01T06:23:01Z</time>
      </trkpt>
      <trkpt lat="44.44132" lon="1.00389">
        <ele>146</ele>
        <time>2012-04-01T06:23:02Z</time>
      </trkpt>
      <trkpt lat="44.44125" lon="1.00391">
        <ele>146</ele>
        <time>2012-04-01T06:23:03Z</time>
      </trkpt>
      <trkpt lat="44.44116" lon="1.00391">
        <ele>146</ele>
        <time>2012-04-01T06:23:04Z</time>
      </trkpt>
      <trkpt lat="44.44107" lon="1.00391">
        <ele>146</ele>
        <time>2012-04-01T06:23:05Z</time>
      </trkpt>
      <trkpt lat="44.44098" lon="1.00391">
        <ele>146</ele>
        <time>2012-04-01T06:23:06Z</time>
      </trkpt>
      <trkpt lat="44.44089" lon="1.0039">
        <ele>145</ele>
        <time>2012-04-01T06:23:07Z</time>
      </trkpt>
      <trkpt lat="44.4408" lon="1.00388">
        <ele>145</ele>
        <time>2012-04-01T06:23:08Z</time>
      </trkpt>
      <trkpt lat="44.44072" lon="1.00386">
        <ele>144</ele>
        <time>2012-04-01T06:23:09Z</time>
      </trkpt>
      <trkpt lat="44.44064" lon="1.00383">
        <ele>144</ele>
        <time>2012-04-01T06:23:10Z</time>
      </trkpt>
      <trkpt lat="44.44056" lon="1.00379">
        <ele>143</ele>
        <time>2012-04-01T06:23:11Z</time>
      </trkpt>
      <trkpt lat="44.44048" lon="1.00374">
        <ele>143</ele>
        <time>2012-04-01T06:23:12Z</time>
      </trkpt>
      <trkpt lat="44.44041" lon="1.00368">
        <ele>142</ele>
        <time>2012-04-01T06:23:13Z</time>
      </trkpt>
      <trkpt lat="44.44034" lon="1.00362">
        <ele>141</ele>
        <time>2012-04-01T06:23:14Z</time>
      </trkpt>
      <trkpt lat="44.44026" lon="1.00355">
        <ele>140</ele>
        <time>2012-04-01T06:23:15Z</time>
      </trkpt>
      <trkpt lat="44.4402" lon="1.00349">
        <ele>139</ele>
        <time>2012-04-01T06:23:16Z</time>
      </trkpt>
      <trkpt lat="44.44015" lon="1.00344">
        <ele>138</ele>
        <time>2012-04-01T06:23:17Z</time>
      </trkpt>
      <trkpt lat="44.44011" lon="1.00338">
        <ele>137</ele>
        <time>2012-04-01T06:23:18Z</time>
      </trkpt>
      <trkpt lat="44.44006" lon="1.00332">
        <ele>136</ele>
        <time>2012-04-01T06:23:19Z</time>
      </trkpt>
      <trkpt lat="44.44001" lon="1.00325">
        <ele>135</ele>
        <time>2012-04-01T06:23:20Z</time>
      </trkpt>
      <trkpt lat="44.43994" lon="1.00318">
        <ele>133</ele>
        <time>2012-04-01T06:23:21Z</time>
      </trkpt>
      <trkpt lat="44.43989" lon="1.00311">
        <ele>131</ele>
        <time>2012-04-01T06:23:22Z</time>
      </trkpt>
      <trkpt lat="44.43983" lon="1.00303">
        <ele>130</ele>
        <time>2012-04-01T06:23:23Z</time>
      </trkpt>
      <trkpt lat="44.43977" lon="1.00296">
        <ele>129</ele>
        <time>2012-04-01T06:23:24Z</time>
      </trkpt>
      <trkpt lat="44.43972" lon="1.00288">
        <ele>128</ele>
        <time>2012-04-01T06:23:25Z</time>
      </trkpt>
      <trkpt lat="44.43968" lon="1.00279">
        <ele>127</ele>
        <time>2012-04-01T06:23:26Z</time>
      </trkpt>
      <trkpt lat="44.43963" lon="1.0027">
        <ele>126</ele>
        <time>2012-04-01T06:23:27Z</time>
      </trkpt>
      <trkpt lat="44.43958" lon="1.00261">
        <ele>126</ele>
        <time>2012-04-01T06:23:28Z</time>
      </trkpt>
      <trkpt lat="44.43953" lon="1.00251">
        <ele>126</ele>
        <time>2012-04-01T06:23:29Z</time>
      </trkpt>
      <trkpt lat="44.43949" lon="1.00241">
        <ele>126</ele>
        <time>2012-04-01T06:23:30Z</time>
      </trkpt>
      <trkpt lat="44.43945" lon="1.00231">
        <ele>126</ele>
        <time>2012-04-01T06:23:31Z</time>
      </trkpt>
      <trkpt lat="44.43941" lon="1.0022">
        <ele>126</ele>
        <time>2012-04-01T06:23:32Z</time>
      </trkpt>
      <trkpt lat="44.43938" lon="1.00208">
        <ele>126</ele>
        <time>2012-04-01T06:23:33Z</time>
      </trkpt>
      <trkpt lat="44.43935" lon="1.00197">
        <ele>126</ele>
        <time>2012-04-01T06:23:34Z</time>
      </trkpt>
      <trkpt lat="44.43932" lon="1.00186">
        <ele>126</ele>
        <time>2012-04-01T06:23:35Z</time>
      </trkpt>
      <trkpt lat="44.43928" lon="1.00175">
        <ele>126</ele>
        <time>2012-04-01T06:23:36Z</time>
      </trkpt>
      <trkpt lat="44.43923" lon="1.00164">
        <ele>126</ele>
        <time>2012-04-01T06:23:37Z</time>
      </trkpt>
      <trkpt lat="44.43918" lon="1.00154">
        <ele>126</ele>
        <time>2012-04-01T06:23:38Z</time>
      </trkpt>
      <trkpt lat="44.43915" lon="1.00143">
        <ele>126</ele>
        <time>2012-04-01T06:23:39Z</time>
      </trkpt>
      <trkpt lat="44.43912" lon="1.00131">
        <ele>126</ele>
        <time>2012-04-01T06:23:40Z</time>
      </trkpt>
      <trkpt lat="44.43909" lon="1.00119">
        <ele>126</ele>
        <time>2012-04-01T06:23:41Z</time>
      </trkpt>
      <trkpt lat="44.43906" lon="1.00107">
        <ele>126</ele>
        <time>2012-04-01T06:23:42Z</time>
      </trkpt>
      <trkpt lat="44.43903" lon="1.00096">
        <ele>126</ele>
        <time>2012-04-01T06:23:43Z</time>
      </trkpt>
      <trkpt lat="44.43902" lon="1.00086">
        <ele>125</ele>
        <time>2012-04-01T06:23:44Z</time>
      </trkpt>
      <trkpt lat="44.43903" lon="1.00075">
        <ele>124</ele>
        <time>2012-04-01T06:23:45Z</time>
      </trkpt>
      <trkpt lat="44.43905" lon="1.00062">
        <ele>123</ele>
        <time>2012-04-01T06:23:46Z</time>
      </trkpt>
      <trkpt lat="44.43905" lon="1.00049">
        <ele>122</ele>
        <time>2012-04-01T06:23:47Z</time>
      </trkpt>
      <trkpt lat="44.43907" lon="1.00036">
        <ele>121</ele>
        <time>2012-04-01T06:23:48Z</time>
      </trkpt>
      <trkpt lat="44.43907" lon="1.00023">
        <ele>120</ele>
        <time>2012-04-01T06:23:49Z</time>
      </trkpt>
      <trkpt lat="44.43908" lon="1.00009">
        <ele>119</ele>
        <time>2012-04-01T06:23:50Z</time>
      </trkpt>
      <trkpt lat="44.43908" lon="0.99996">
        <ele>118</ele>
        <time>2012-04-01T06:23:51Z</time>
      </trkpt>
      <trkpt lat="44.43908" lon="0.99984">
        <ele>117</ele>
        <time>2012-04-01T06:23:52Z</time>
      </trkpt>
      <trkpt lat="44.43907" lon="0.99973">
        <ele>116</ele>
        <time>2012-04-01T06:23:53Z</time>
      </trkpt>
      <trkpt lat="44.43905" lon="0.99964">
        <ele>114</ele>
        <time>2012-04-01T06:23:54Z</time>
      </trkpt>
      <trkpt lat="44.43902" lon="0.99957">
        <ele>113</ele>
        <time>2012-04-01T06:23:55Z</time>
      </trkpt>
      <trkpt lat="44.43899" lon="0.99951">
        <ele>112</ele>
        <time>2012-04-01T06:23:56Z</time>
      </trkpt>
      <trkpt lat="44.43896" lon="0.99946">
        <ele>111</ele>
        <time>2012-04-01T06:23:57Z</time>
      </trkpt>
      <trkpt lat="44.43892" lon="0.99943">
        <ele>110</ele>
        <time>2012-04-01T06:23:58Z</time>
      </trkpt>
      <trkpt lat="44.43888" lon="0.99941">
        <ele>109</ele>
        <time>2012-04-01T06:23:59Z</time>
      </trkpt>
      <trkpt lat="44.43885" lon="0.99942">
        <ele>108</ele>
        <time>2012-04-01T06:24:00Z</time>
      </trkpt>
      <trkpt lat="44.43882" lon="0.99945">
        <ele>107</ele>
        <time>2012-04-01T06:24:01Z</time>
      </trkpt>
      <trkpt lat="44.43879" lon="0.99949">
        <ele>107</ele>
        <time>2012-04-01T06:24:02Z</time>
      </trkpt>
      <trkpt lat="44.43876" lon="0.99955">
        <ele>107</ele>
        <time>2012-04-01T06:24:03Z</time>
      </trkpt>
      <trkpt lat="44.43874" lon="0.99959">
        <ele>107</ele>
        <time>2012-04-01T06:24:04Z</time>
      </trkpt>
      <trkpt lat="44.43871" lon="0.99963">
        <ele>107</ele>
        <time>2012-04-01T06:24:05Z</time>
      </trkpt>
      <trkpt lat="44.43868" lon="0.99967">
        <ele>107</ele>
        <time>2012-04-01T06:24:06Z</time>
      </trkpt>
      <trkpt lat="44.43864" lon="0.99972">
        <ele>107</ele>
        <time>2012-04-01T06:24:07Z</time>
      </trkpt>
      <trkpt lat="44.43861" lon="0.99976">
        <ele>107</ele>
        <time>2012-04-01T06:24:08Z</time>
      </trkpt>
      <trkpt lat="44.43858" lon="0.99981">
        <ele>107</ele>
        <time>2012-04-01T06:24:09Z</time>
      </trkpt>
      <trkpt lat="44.43855" lon="0.99985">
        <ele>107</ele>
        <time>2012-04-01T06:24:10Z</time>
      </trkpt>
      <trkpt lat="44.43853" lon="0.99989">
        <ele>108</ele>
        <time>2012-04-01T06:24:11Z</time>
      </trkpt>
      <trkpt lat="44.4385" lon="0.99993">
        <ele>109</ele>
        <time>2012-04-01T06:24:12Z</time>
      </trkpt>
      <trkpt lat="44.43847" lon="0.99997">
        <ele>110</ele>
        <time>2012-04-01T06:24:13Z</time>
      </trkpt>
      <trkpt lat="44.43844" lon="1.00002">
        <ele>111</ele>
        <time>2012-04-01T06:24:14Z</time>
      </trkpt>
      <trkpt lat="44.43841" lon="1.00006">
        <ele>111</ele>
        <time>2012-04-01T06:24:15Z</time>
      </trkpt>
      <trkpt lat="44.43838" lon="1.0001">
        <ele>112</ele>
        <time>2012-04-01T06:24:16Z</time>
      </trkpt>
      <trkpt lat="44.43835" lon="1.00015">
        <ele>113</ele>
        <time>2012-04-01T06:24:17Z</time>
      </trkpt>
      <trkpt lat="44.43832" lon="1.0002">
        <ele>114</ele>
        <time>2012-04-01T06:24:18Z</time>
      </trkpt>
      <trkpt lat="44.4383" lon="1.00025">
        <ele>115</ele>
        <time>2012-04-01T06:24:19Z</time>
      </trkpt>
      <trkpt lat="44.43827" lon="1.0003">
        <ele>115</ele>
        <time>2012-04-01T06:24:20Z</time>
      </trkpt>
      <trkpt lat="44.43824" lon="1.00035">
        <ele>116</ele>
        <time>2012-04-01T06:24:21Z</time>
      </trkpt>
      <trkpt lat="44.43822" lon="1.00041">
        <ele>117</ele>
        <time>2012-04-01T06:24:22Z</time>
      </trkpt>
      <trkpt lat="44.43819" lon="1.00047">
        <ele>118</ele>
        <time>2012-04-01T06:24:23Z</time>
      </trkpt>
      <trkpt lat="44.43817" lon="1.00052">
        <ele>119</ele>
        <time>2012-04-01T06:24:24Z</time>
      </trkpt>
      <trkpt lat="44.43814" lon="1.00058">
        <ele>119</ele>
        <time>2012-04-01T06:24:25Z</time>
      </trkpt>
      <trkpt lat="44.43811" lon="1.00063">
        <ele>120</ele>
        <time>2012-04-01T06:24:26Z</time>
      </trkpt>
      <trkpt lat="44.43809" lon="1.00069">
        <ele>121</ele>
        <time>2012-04-01T06:24:27Z</time>
      </trkpt>
      <trkpt lat="44.43806" lon="1.00075">
        <ele>122</ele>
        <time>2012-04-01T06:24:28Z</time>
      </trkpt>
      <trkpt lat="44.43803" lon="1.00081">
        <ele>123</ele>
        <time>2012-04-01T06:24:29Z</time>
      </trkpt>
      <trkpt lat="44.43801" lon="1.00087">
        <ele>123</ele>
        <time>2012-04-01T06:24:30Z</time>
      </trkpt>
      <trkpt lat="44.43798" lon="1.00093">
        <ele>124</ele>
        <time>2012-04-01T06:24:31Z</time>
      </trkpt>
      <trkpt lat="44.43796" lon="1.00099">
        <ele>125</ele>
        <time>2012-04-01T06:24:32Z</time>
      </trkpt>
      <trkpt lat="44.43793" lon="1.00105">
        <ele>125</ele>
        <time>2012-04-01T06:24:33Z</time>
      </trkpt>
      <trkpt lat="44.43791" lon="1.0011">
        <ele>126</ele>
        <time>2012-04-01T06:24:34Z</time>
      </trkpt>
      <trkpt lat="44.43788" lon="1.00116">
        <ele>126</ele>
        <time>2012-04-01T06:24:35Z</time>
      </trkpt>
      <trkpt lat="44.43786" lon="1.00121">
        <ele>126</ele>
        <time>2012-04-01T06:24:36Z</time>
      </trkpt>
      <trkpt lat="44.43783" lon="1.00126">
        <ele>127</ele>
        <time>2012-04-01T06:24:37Z</time>
      </trkpt>
      <trkpt lat="44.43781" lon="1.00131">
        <ele>127</ele>
        <time>2012-04-01T06:24:38Z</time>
      </trkpt>
      <trkpt lat="44.43778" lon="1.00136">
        <ele>127</ele>
        <time>2012-04-01T06:24:39Z</time>
      </trkpt>
      <trkpt lat="44.43775" lon="1.00142">
        <ele>127</ele>
        <time>2012-04-01T06:24:40Z</time>
      </trkpt>
      <trkpt lat="44.43772" lon="1.00147">
        <ele>127</ele>
        <time>2012-04-01T06:24:41Z</time>
      </trkpt>
      <trkpt lat="44.4377" lon="1.00151">
        <ele>127</ele>
        <time>2012-04-01T06:24:42Z</time>
      </trkpt>
      <trkpt lat="44.43767" lon="1.00156">
        <ele>127</ele>
        <time>2012-04-01T06:24:43Z</time>
      </trkpt>
      <trkpt lat="44.43764" lon="1.00161">
        <ele>127</ele>
        <time>2012-04-01T06:24:44Z</time>
      </trkpt>
      <trkpt lat="44.43761" lon="1.00164">
        <ele>127</ele>
        <time>2012-04-01T06:24:45Z</time>
      </trkpt>
      <trkpt lat="44.43758" lon="1.00167">
        <ele>127</ele>
        <time>2012-04-01T06:24:46Z</time>
      </trkpt>
      <trkpt lat="44.43754" lon="1.0017">
        <ele>127</ele>
        <time>2012-04-01T06:24:47Z</time>
      </trkpt>
      <trkpt lat="44.43751" lon="1.00173">
        <ele>127</ele>
        <time>2012-04-01T06:24:48Z</time>
      </trkpt>
      <trkpt lat="44.43747" lon="1.00174">
        <ele>127</ele>
        <time>2012-04-01T06:24:49Z</time>
      </trkpt>
      <trkpt lat="44.43744" lon="1.00177">
        <ele>127</ele>
        <time>2012-04-01T06:24:50Z</time>
      </trkpt>
      <trkpt lat="44.4374" lon="1.00178">
        <ele>127</ele>
        <time>2012-04-01T06:24:51Z</time>
      </trkpt>
      <trkpt lat="44.43737" lon="1.00179">
        <ele>127</ele>
        <time>2012-04-01T06:24:52Z</time>
      </trkpt>
      <trkpt lat="44.43732" lon="1.00176">
        <ele>127</ele>
        <time>2012-04-01T06:24:53Z</time>
      </trkpt>
      <trkpt lat="44.43728" lon="1.00173">
        <ele>127</ele>
        <time>2012-04-01T06:24:54Z</time>
      </trkpt>
      <trkpt lat="44.43725" lon="1.00168">
        <ele>127</ele>
        <time>2012-04-01T06:24:55Z</time>
      </trkpt>
      <trkpt lat="44.43722" lon="1.00163">
        <ele>127</ele>
        <time>2012-04-01T06:24:56Z</time>
      </trkpt>
      <trkpt lat="44.43718" lon="1.00158">
        <ele>128</ele>
        <time>2012-04-01T06:24:57Z</time>
      </trkpt>
      <trkpt lat="44.43715" lon="1.00154">
        <ele>129</ele>
        <time>2012-04-01T06:24:58Z</time>
      </trkpt>
      <trkpt lat="44.43712" lon="1.00152">
        <ele>130</ele>
        <time>2012-04-01T06:24:59Z</time>
      </trkpt>
      <trkpt lat="44.43709" lon="1.0015">
        <ele>130</ele>
        <time>2012-04-01T06:25:00Z</time>
      </trkpt>
      <trkpt lat="44.43707" lon="1.00149">
        <ele>130</ele>
        <time>2012-04-01T06:25:01Z</time>
      </trkpt>
      <trkpt lat="44.43704" lon="1.00148">
        <ele>130</ele>
        <time>2012-04-01T06:25:02Z</time>
      </trkpt>
      <trkpt lat="44.43701" lon="1.00147">
        <ele>130</ele>
        <time>2012-04-01T06:25:03Z</time>
      </trkpt>
      <trkpt lat="44.43698" lon="1.00145">
        <ele>130</ele>
        <time>2012-04-01T06:25:04Z</time>
      </trkpt>
      <trkpt lat="44.43697" lon="1.00144">
        <ele>130</ele>
        <time>2012-04-01T06:25:05Z</time>
      </trkpt>
      <trkpt lat="44.43694" lon="1.00142">
        <ele>130</ele>
        <time>2012-04-01T06:25:06Z</time>
      </trkpt>
      <trkpt lat="44.43692" lon="1.00141">
        <ele>130</ele>
        <time>2012-04-01T06:25:07Z</time>
      </trkpt>
      <trkpt lat="44.43689" lon="1.0014">
        <ele>130</ele>
        <time>2012-04-01T06:25:08Z</time>
      </trkpt>
      <trkpt lat="44.43687" lon="1.00139">
        <ele>130</ele>
        <time>2012-04-01T06:25:09Z</time>
      </trkpt>
      <trkpt lat="44.43684" lon="1.00137">
        <ele>130</ele>
        <time>2012-04-01T06:25:10Z</time>
      </trkpt>
      <trkpt lat="44.43681" lon="1.00137">
        <ele>130</ele>
        <time>2012-04-01T06:25:11Z</time>
      </trkpt>
      <trkpt lat="44.43679" lon="1.00136">
        <ele>129</ele>
        <time>2012-04-01T06:25:12Z</time>
      </trkpt>
      <trkpt lat="44.43677" lon="1.00135">
        <ele>129</ele>
        <time>2012-04-01T06:25:13Z</time>
      </trkpt>
      <trkpt lat="44.43675" lon="1.00133">
        <ele>129</ele>
        <time>2012-04-01T06:25:14Z</time>
      </trkpt>
      <trkpt lat="44.43673" lon="1.00132">
        <ele>128</ele>
        <time>2012-04-01T06:25:15Z</time>
      </trkpt>
      <trkpt lat="44.43671" lon="1.00131">
        <ele>128</ele>
        <time>2012-04-01T06:25:16Z</time>
      </trkpt>
      <trkpt lat="44.43668" lon="1.00129">
        <ele>128</ele>
        <time>2012-04-01T06:25:17Z</time>
      </trkpt>
      <trkpt lat="44.43665" lon="1.00129">
        <ele>128</ele>
        <time>2012-04-01T06:25:18Z</time>
      </trkpt>
      <trkpt lat="44.43663" lon="1.00129">
        <ele>128</ele>
        <time>2012-04-01T06:25:19Z</time>
      </trkpt>
      <trkpt lat="44.43661" lon="1.00129">
        <ele>128</ele>
        <time>2012-04-01T06:25:20Z</time>
      </trkpt>
      <trkpt lat="44.4366" lon="1.00128">
        <ele>128</ele>
        <time>2012-04-01T06:25:21Z</time>
      </trkpt>
      <trkpt lat="44.43659" lon="1.00127">
        <ele>128</ele>
        <time>2012-04-01T06:25:22Z</time>
      </trkpt>
      <trkpt lat="44.43656" lon="1.00127">
        <ele>128</ele>
        <time>2012-04-01T06:25:23Z</time>
      </trkpt>
      <trkpt lat="44.43653" lon="1.00126">
        <ele>128</ele>
        <time>2012-04-01T06:25:24Z</time>
      </trkpt>
      <trkpt lat="44.43651" lon="1.00126">
        <ele>128</ele>
        <time>2012-04-01T06:25:25Z</time>
      </trkpt>
      <trkpt lat="44.43649" lon="1.00128">
        <ele>127</ele>
        <time>2012-04-01T06:25:26Z</time>
      </trkpt>
      <trkpt lat="44.43646" lon="1.0013">
        <ele>127</ele>
        <time>2012-04-01T06:25:27Z</time>
      </trkpt>
      <trkpt lat="44.43643" lon="1.00131">
        <ele>127</ele>
        <time>2012-04-01T06:25:28Z</time>
      </trkpt>
      <trkpt lat="44.4364" lon="1.00133">
        <ele>127</ele>
        <time>2012-04-01T06:25:29Z</time>
      </trkpt>
      <trkpt lat="44.43637" lon="1.00134">
        <ele>127</ele>
        <time>2012-04-01T06:25:30Z</time>
      </trkpt>
      <trkpt lat="44.43635" lon="1.00135">
        <ele>127</ele>
        <time>2012-04-01T06:25:31Z</time>
      </trkpt>
      <trkpt lat="44.43633" lon="1.00135">
        <ele>127</ele>
        <time>2012-04-01T06:25:32Z</time>
      </trkpt>
      <trkpt lat="44.43631" lon="1.00136">
        <ele>127</ele>
        <time>2012-04-01T06:25:33Z</time>
      </trkpt>
      <trkpt lat="44.43629" lon="1.00136">
        <ele>127</ele>
        <time>2012-04-01T06:25:34Z</time>
      </trkpt>
      <trkpt lat="44.43626" lon="1.00137">
        <ele>127</ele>
        <time>2012-04-01T06:25:35Z</time>
      </trkpt>
      <trkpt lat="44.43624" lon="1.00137">
        <ele>127</ele>
        <time>2012-04-01T06:25:36Z</time>
      </trkpt>
      <trkpt lat="44.43622" lon="1.00138">
        <ele>127</ele>
        <time>2012-04-01T06:25:37Z</time>
      </trkpt>
      <trkpt lat="44.4362" lon="1.00138">
        <ele>127</ele>
        <time>2012-04-01T06:25:38Z</time>
      </trkpt>
      <trkpt lat="44.43617" lon="1.00139">
        <ele>127</ele>
        <time>2012-04-01T06:25:39Z</time>
      </trkpt>
      <trkpt lat="44.43615" lon="1.0014">
        <ele>127</ele>
        <time>2012-04-01T06:25:40Z</time>
      </trkpt>
      <trkpt lat="44.43612" lon="1.00141">
        <ele>127</ele>
        <time>2012-04-01T06:25:41Z</time>
      </trkpt>
      <trkpt lat="44.4361" lon="1.00142">
        <ele>127</ele>
        <time>2012-04-01T06:25:42Z</time>
      </trkpt>
      <trkpt lat="44.43607" lon="1.00144">
        <ele>127</ele>
        <time>2012-04-01T06:25:43Z</time>
      </trkpt>
      <trkpt lat="44.43605" lon="1.00145">
        <ele>127</ele>
        <time>2012-04-01T06:25:44Z</time>
      </trkpt>
      <trkpt lat="44.43603" lon="1.00147">
        <ele>127</ele>
        <time>2012-04-01T06:25:45Z</time>
      </trkpt>
      <trkpt lat="44.43601" lon="1.00148">
        <ele>127</ele>
        <time>2012-04-01T06:25:46Z</time>
      </trkpt>
      <trkpt lat="44.43599" lon="1.0015">
        <ele>127</ele>
        <time>2012-04-01T06:25:47Z</time>
      </trkpt>
      <trkpt lat="44.43596" lon="1.00151">
        <ele>127</ele>
        <time>2012-04-01T06:25:48Z</time>
      </trkpt>
      <trkpt lat="44.43594" lon="1.00151">
        <ele>127</ele>
        <time>2012-04-01T06:25:49Z</time>
      </trkpt>
      <trkpt lat="44.43592" lon="1.00152">
        <ele>127</ele>
        <time>2012-04-01T06:25:50Z</time>
      </trkpt>
      <trkpt lat="44.4359" lon="1.00152">
        <ele>127</ele>
        <time>2012-04-01T06:25:51Z</time>
      </trkpt>
      <trkpt lat="44.43588" lon="1.00151">
        <ele>127</ele>
        <time>2012-04-01T06:25:52Z</time>
      </trkpt>
      <trkpt lat="44.43586" lon="1.0015">
        <ele>127</ele>
        <time>2012-04-01T06:25:53Z</time>
      </trkpt>
      <trkpt lat="44.43584" lon="1.00149">
        <ele>127</ele>
        <time>2012-04-01T06:25:54Z</time>
      </trkpt>
      <trkpt lat="44.43583" lon="1.00148">
        <ele>127</ele>
        <time>2012-04-01T06:25:55Z</time>
      </trkpt>
      <trkpt lat="44.43581" lon="1.00147">
        <ele>127</ele>
        <time>2012-04-01T06:25:56Z</time>
      </trkpt>
      <trkpt lat="44.4358" lon="1.00146">
        <ele>127</ele>
        <time>2012-04-01T06:25:57Z</time>
      </trkpt>
      <trkpt lat="44.43578" lon="1.00145">
        <ele>127</ele>
        <time>2012-04-01T06:25:58Z</time>
      </trkpt>
      <trkpt lat="44.43576" lon="1.00144">
        <ele>127</ele>
        <time>2012-04-01T06:25:59Z</time>
      </trkpt>
      <trkpt lat="44.43574" lon="1.00143">
        <ele>127</ele>
        <time>2012-04-01T06:26:00Z</time>
      </trkpt>
      <trkpt lat="44.43572" lon="1.00142">
        <ele>127</ele>
        <time>2012-04-01T06:26:01Z</time>
      </trkpt>
      <trkpt lat="44.4357" lon="1.00141">
        <ele>127</ele>
        <time>2012-04-01T06:26:02Z</time>
      </trkpt>
      <trkpt lat="44.43567" lon="1.0014">
        <ele>127</ele>
        <time>2012-04-01T06:26:03Z</time>
      </trkpt>
      <trkpt lat="44.43565" lon="1.00139">
        <ele>127</ele>
        <time>2012-04-01T06:26:04Z</time>
      </trkpt>
      <trkpt lat="44.43563" lon="1.00138">
        <ele>127</ele>
        <time>2012-04-01T06:26:05Z</time>
      </trkpt>
      <trkpt lat="44.43562" lon="1.00138">
        <ele>127</ele>
        <time>2012-04-01T06:26:06Z</time>
      </trkpt>
      <trkpt lat="44.4356" lon="1.00138">
        <ele>127</ele>
        <time>2012-04-01T06:26:07Z</time>
      </trkpt>
      <trkpt lat="44.43558" lon="1.00138">
        <ele>127</ele>
        <time>2012-04-01T06:26:08Z</time>
      </trkpt>
      <trkpt lat="44.43557" lon="1.00139">
        <ele>127</ele>
        <time>2012-04-01T06:26:09Z</time>
      </trkpt>
      <trkpt lat="44.43555" lon="1.0014">
        <ele>127</ele>
        <time>2012-04-01T06:26:10Z</time>
      </trkpt>
      <trkpt lat="44.43554" lon="1.00141">
        <ele>127</ele>
        <time>2012-04-01T06:26:11Z</time>
      </trkpt>
      <trkpt lat="44.43551" lon="1.00142">
        <ele>127</ele>
        <time>2012-04-01T06:26:13Z</time>
      </trkpt>
      <trkpt lat="44.43549" lon="1.00143">
        <ele>127</ele>
        <time>2012-04-01T06:26:14Z</time>
      </trkpt>
      <trkpt lat="44.43548" lon="1.00143">
        <ele>127</ele>
        <time>2012-04-01T06:26:15Z</time>
      </trkpt>
      <trkpt lat="44.43547" lon="1.00144">
        <ele>127</ele>
        <time>2012-04-01T06:26:16Z</time>
      </trkpt>
      <trkpt lat="44.43545" lon="1.00144">
        <ele>127</ele>
        <time>2012-04-01T06:26:17Z</time>
      </trkpt>
      <trkpt lat="44.43544" lon="1.00144">
        <ele>127</ele>
        <time>2012-04-01T06:26:18Z</time>
      </trkpt>
      <trkpt lat="44.43542" lon="1.00143">
        <ele>127</ele>
        <time>2012-04-01T06:26:19Z</time>
      </trkpt>
      <trkpt lat="44.4354" lon="1.00144">
        <ele>127</ele>
        <time>2012-04-01T06:26:21Z</time>
      </trkpt>
      <trkpt lat="44.43539" lon="1.00144">
        <ele>127</ele>
        <time>2012-04-01T06:26:22Z</time>
      </trkpt>
      <trkpt lat="44.43537" lon="1.00144">
        <ele>127</ele>
        <time>2012-04-01T06:26:23Z</time>
      </trkpt>
      <trkpt lat="44.43536" lon="1.00145">
        <ele>127</ele>
        <time>2012-04-01T06:26:24Z</time>
      </trkpt>
      <trkpt lat="44.43534" lon="1.00145">
        <ele>127</ele>
        <time>2012-04-01T06:26:25Z</time>
      </trkpt>
      <trkpt lat="44.43533" lon="1.00145">
        <ele>127</ele>
        <time>2012-04-01T06:26:26Z</time>
      </trkpt>
      <trkpt lat="44.43531" lon="1.00145">
        <ele>127</ele>
        <time>2012-04-01T06:26:27Z</time>
      </trkpt>
      <trkpt lat="44.4353" lon="1.00145">
        <ele>127</ele>
        <time>2012-04-01T06:26:28Z</time>
      </trkpt>
      <trkpt lat="44.43528" lon="1.00146">
        <ele>127</ele>
        <time>2012-04-01T06:26:29Z</time>
      </trkpt>
      <trkpt lat="44.43527" lon="1.00146">
        <ele>127</ele>
        <time>2012-04-01T06:26:30Z</time>
      </trkpt>
      <trkpt lat="44.43526" lon="1.00146">
        <ele>127</ele>
        <time>2012-04-01T06:26:31Z</time>
      </trkpt>
      <trkpt lat="44.43524" lon="1.00147">
        <ele>127</ele>
        <time>2012-04-01T06:26:32Z</time>
      </trkpt>
      <trkpt lat="44.43523" lon="1.00147">
        <ele>127</ele>
        <time>2012-04-01T06:26:33Z</time>
      </trkpt>
      <trkpt lat="44.43521" lon="1.00148">
        <ele>127</ele>
        <time>2012-04-01T06:26:34Z</time>
      </trkpt>
      <trkpt lat="44.4352" lon="1.00148">
        <ele>127</ele>
        <time>2012-04-01T06:26:35Z</time>
      </trkpt>
      <trkpt lat="44.43518" lon="1.00148">
        <ele>127</ele>
        <time>2012-04-01T06:26:36Z</time>
      </trkpt>
      <trkpt lat="44.43516" lon="1.00148">
        <ele>127</ele>
        <time>2012-04-01T06:26:37Z</time>
      </trkpt>
      <trkpt lat="44.43515" lon="1.00148">
        <ele>127</ele>
        <time>2012-04-01T06:26:38Z</time>
      </trkpt>
      <trkpt lat="44.43513" lon="1.00148">
        <ele>127</ele>
        <time>2012-04-01T06:26:39Z</time>
      </trkpt>
      <trkpt lat="44.43512" lon="1.00148">
        <ele>127</ele>
        <time>2012-04-01T06:26:40Z</time>
      </trkpt>
      <trkpt lat="44.4351" lon="1.00147">
        <ele>128</ele>
        <time>2012-04-01T06:26:41Z</time>
      </trkpt>
      <trkpt lat="44.43508" lon="1.00147">
        <ele>129</ele>
        <time>2012-04-01T06:26:42Z</time>
      </trkpt>
      <trkpt lat="44.43507" lon="1.00147">
        <ele>130</ele>
        <time>2012-04-01T06:26:43Z</time>
      </trkpt>
      <trkpt lat="44.43505" lon="1.00147">
        <ele>131</ele>
        <time>2012-04-01T06:26:44Z</time>
      </trkpt>
      <trkpt lat="44.43503" lon="1.00147">
        <ele>132</ele>
        <time>2012-04-01T06:26:45Z</time>
      </trkpt>
      <trkpt lat="44.43502" lon="1.00147">
        <ele>132</ele>
        <time>2012-04-01T06:26:46Z</time>
      </trkpt>
      <trkpt lat="44.435" lon="1.00148">
        <ele>132</ele>
        <time>2012-04-01T06:26:47Z</time>
      </trkpt>
      <trkpt lat="44.43498" lon="1.00148">
        <ele>132</ele>
        <time>2012-04-01T06:26:48Z</time>
      </trkpt>
      <trkpt lat="44.43497" lon="1.00148">
        <ele>133</ele>
        <time>2012-04-01T06:26:49Z</time>
      </trkpt>
      <trkpt lat="44.43495" lon="1.00149">
        <ele>133</ele>
        <time>2012-04-01T06:26:50Z</time>
      </trkpt>
      <trkpt lat="44.43494" lon="1.0015">
        <ele>133</ele>
        <time>2012-04-01T06:26:51Z</time>
      </trkpt>
      <trkpt lat="44.43492" lon="1.0015">
        <ele>133</ele>
        <time>2012-04-01T06:26:52Z</time>
      </trkpt>
      <trkpt lat="44.43491" lon="1.0015">
        <ele>133</ele>
        <time>2012-04-01T06:26:53Z</time>
      </trkpt>
      <trkpt lat="44.43489" lon="1.00151">
        <ele>133</ele>
        <time>2012-04-01T06:26:54Z</time>
      </trkpt>
      <trkpt lat="44.43487" lon="1.00151">
        <ele>133</ele>
        <time>2012-04-01T06:26:56Z</time>
      </trkpt>
      <trkpt lat="44.43486" lon="1.00151">
        <ele>134</ele>
        <time>2012-04-01T06:26:57Z</time>
      </trkpt>
      <trkpt lat="44.43484" lon="1.00152">
        <ele>135</ele>
        <time>2012-04-01T06:26:58Z</time>
      </trkpt>
      <trkpt lat="44.43483" lon="1.00152">
        <ele>135</ele>
        <time>2012-04-01T06:26:59Z</time>
      </trkpt>
      <trkpt lat="44.43481" lon="1.00152">
        <ele>136</ele>
        <time>2012-04-01T06:27:00Z</time>
      </trkpt>
      <trkpt lat="44.43479" lon="1.00153">
        <ele>136</ele>
        <time>2012-04-01T06:27:01Z</time>
      </trkpt>
      <trkpt lat="44.43478" lon="1.00153">
        <ele>136</ele>
        <time>2012-04-01T06:27:02Z</time>
      </trkpt>
      <trkpt lat="44.43476" lon="1.00154">
        <ele>136</ele>
        <time>2012-04-01T06:27:03Z</time>
      </trkpt>
      <trkpt lat="44.43475" lon="1.00154">
        <ele>136</ele>
        <time>2012-04-01T06:27:04Z</time>
      </trkpt>
      <trkpt lat="44.43473" lon="1.00154">
        <ele>136</ele>
        <time>2012-04-01T06:27:05Z</time>
      </trkpt>
      <trkpt lat="44.43472" lon="1.00154">
        <ele>136</ele>
        <time>2012-04-01T06:27:06Z</time>
      </trkpt>
      <trkpt lat="44.4347" lon="1.00154">
        <ele>136</ele>
        <time>2012-04-01T06:27:07Z</time>
      </trkpt>
      <trkpt lat="44.43469" lon="1.00155">
        <ele>136</ele>
        <time>2012-04-01T06:27:08Z</time>
      </trkpt>
      <trkpt lat="44.43467" lon="1.00155">
        <ele>136</ele>
        <time>2012-04-01T06:27:09Z</time>
      </trkpt>
      <trkpt lat="44.43466" lon="1.00155">
        <ele>136</ele>
        <time>2012-04-01T06:27:10Z</time>
      </trkpt>
      <trkpt lat="44.43464" lon="1.00155">
        <ele>136</ele>
        <time>2012-04-01T06:27:11Z</time>
      </trkpt>
      <trkpt lat="44.43463" lon="1.00155">
        <ele>136</ele>
        <time>2012-04-01T06:27:12Z</time>
      </trkpt>
      <trkpt lat="44.43462" lon="1.00155">
        <ele>136</ele>
        <time>2012-04-01T06:27:13Z</time>
      </trkpt>
      <trkpt lat="44.4346" lon="1.00155">
        <ele>136</ele>
        <time>2012-04-01T06:27:14Z</time>
      </trkpt>
      <trkpt lat="44.43459" lon="1.00156">
        <ele>136</ele>
        <time>2012-04-01T06:27:15Z</time>
      </trkpt>
      <trkpt lat="44.43457" lon="1.00156">
        <ele>136</ele>
        <time>2012-04-01T06:27:16Z</time>
      </trkpt>
      <trkpt lat="44.43456" lon="1.00156">
        <ele>136</ele>
        <time>2012-04-01T06:27:17Z</time>
      </trkpt>
      <trkpt lat="44.43454" lon="1.00156">
        <ele>136</ele>
        <time>2012-04-01T06:27:18Z</time>
      </trkpt>
      <trkpt lat="44.43453" lon="1.00157">
        <ele>136</ele>
        <time>2012-04-01T06:27:19Z</time>
      </trkpt>
      <trkpt lat="44.43451" lon="1.00157">
        <ele>136</ele>
        <time>2012-04-01T06:27:20Z</time>
      </trkpt>
      <trkpt lat="44.4345" lon="1.00157">
        <ele>136</ele>
        <time>2012-04-01T06:27:21Z</time>
      </trkpt>
      <trkpt lat="44.43449" lon="1.00158">
        <ele>136</ele>
        <time>2012-04-01T06:27:22Z</time>
      </trkpt>
      <trkpt lat="44.43447" lon="1.00158">
        <ele>136</ele>
        <time>2012-04-01T06:27:23Z</time>
      </trkpt>
      <trkpt lat="44.43446" lon="1.00159">
        <ele>136</ele>
        <time>2012-04-01T06:27:24Z</time>
      </trkpt>
      <trkpt lat="44.43444" lon="1.00159">
        <ele>136</ele>
        <time>2012-04-01T06:27:25Z</time>
      </trkpt>
      <trkpt lat="44.43443" lon="1.00159">
        <ele>136</ele>
        <time>2012-04-01T06:27:26Z</time>
      </trkpt>
      <trkpt lat="44.43441" lon="1.0016">
        <ele>136</ele>
        <time>2012-04-01T06:27:27Z</time>
      </trkpt>
      <trkpt lat="44.4344" lon="1.0016">
        <ele>136</ele>
        <time>2012-04-01T06:27:28Z</time>
      </trkpt>
      <trkpt lat="44.43438" lon="1.00161">
        <ele>136</ele>
        <time>2012-04-01T06:27:29Z</time>
      </trkpt>
      <trkpt lat="44.43437" lon="1.00161">
        <ele>136</ele>
        <time>2012-04-01T06:27:30Z</time>
      </trkpt>
      <trkpt lat="44.43436" lon="1.00161">
        <ele>136</ele>
        <time>2012-04-01T06:27:31Z</time>
      </trkpt>
      <trkpt lat="44.43435" lon="1.00162">
        <ele>136</ele>
        <time>2012-04-01T06:27:32Z</time>
      </trkpt>
      <trkpt lat="44.43433" lon="1.00162">
        <ele>136</ele>
        <time>2012-04-01T06:27:33Z</time>
      </trkpt>
      <trkpt lat="44.43432" lon="1.00162">
        <ele>136</ele>
        <time>2012-04-01T06:27:34Z</time>
      </trkpt>
      <trkpt lat="44.4343" lon="1.00161">
        <ele>136</ele>
        <time>2012-04-01T06:27:35Z</time>
      </trkpt>
      <trkpt lat="44.43428" lon="1.00161">
        <ele>136</ele>
        <time>2012-04-01T06:27:36Z</time>
      </trkpt>
      <trkpt lat="44.43427" lon="1.00161">
        <ele>136</ele>
        <time>2012-04-01T06:27:37Z</time>
      </trkpt>
      <trkpt lat="44.43424" lon="1.00161">
        <ele>137</ele>
        <time>2012-04-01T06:27:39Z</time>
      </trkpt>
      <trkpt lat="44.43422" lon="1.00161">
        <ele>138</ele>
        <time>2012-04-01T06:27:40Z</time>
      </trkpt>
      <trkpt lat="44.4342" lon="1.0016">
        <ele>139</ele>
        <time>2012-04-01T06:27:42Z</time>
      </trkpt>
      <trkpt lat="44.43418" lon="1.00161">
        <ele>140</ele>
        <time>2012-04-01T06:27:43Z</time>
      </trkpt>
      <trkpt lat="44.43415" lon="1.00162">
        <ele>142</ele>
        <time>2012-04-01T06:27:45Z</time>
      </trkpt>
      <trkpt lat="44.43414" lon="1.00162">
        <ele>143</ele>
        <time>2012-04-01T06:27:46Z</time>
      </trkpt>
      <trkpt lat="44.43413" lon="1.00163">
        <ele>144</ele>
        <time>2012-04-01T06:27:47Z</time>
      </trkpt>
      <trkpt lat="44.43412" lon="1.00163">
        <ele>145</ele>
        <time>2012-04-01T06:27:48Z</time>
      </trkpt>
      <trkpt lat="44.4341" lon="1.00163">
        <ele>145</ele>
        <time>2012-04-01T06:27:49Z</time>
      </trkpt>
      <trkpt lat="44.43409" lon="1.00163">
        <ele>145</ele>
        <time>2012-04-01T06:27:50Z</time>
      </trkpt>
      <trkpt lat="44.43407" lon="1.00164">
        <ele>146</ele>
        <time>2012-04-01T06:27:51Z</time>
      </trkpt>
      <trkpt lat="44.43406" lon="1.00165">
        <ele>146</ele>
        <time>2012-04-01T06:27:52Z</time>
      </trkpt>
      <trkpt lat="44.43404" lon="1.00165">
        <ele>146</ele>
        <time>2012-04-01T06:27:53Z</time>
      </trkpt>
      <trkpt lat="44.43403" lon="1.00165">
        <ele>147</ele>
        <time>2012-04-01T06:27:54Z</time>
      </trkpt>
      <trkpt lat="44.43401" lon="1.00166">
        <ele>147</ele>
        <time>2012-04-01T06:27:55Z</time>
      </trkpt>
      <trkpt lat="44.434" lon="1.00166">
        <ele>148</ele>
        <time>2012-04-01T06:27:56Z</time>
      </trkpt>
      <trkpt lat="44.43399" lon="1.00167">
        <ele>148</ele>
        <time>2012-04-01T06:27:57Z</time>
      </trkpt>
      <trkpt lat="44.43397" lon="1.00168">
        <ele>148</ele>
        <time>2012-04-01T06:27:59Z</time>
      </trkpt>
      <trkpt lat="44.43396" lon="1.00169">
        <ele>148</ele>
        <time>2012-04-01T06:28:00Z</time>
      </trkpt>
      <trkpt lat="44.43394" lon="1.0017">
        <ele>148</ele>
        <time>2012-04-01T06:28:01Z</time>
      </trkpt>
      <trkpt lat="44.43393" lon="1.0017">
        <ele>148</ele>
        <time>2012-04-01T06:28:02Z</time>
      </trkpt>
      <trkpt lat="44.43392" lon="1.0017">
        <ele>149</ele>
        <time>2012-04-01T06:28:03Z</time>
      </trkpt>
      <trkpt lat="44.4339" lon="1.0017">
        <ele>149</ele>
        <time>2012-04-01T06:28:04Z</time>
      </trkpt>
      <trkpt lat="44.43389" lon="1.00171">
        <ele>149</ele>
        <time>2012-04-01T06:28:05Z</time>
      </trkpt>
      <trkpt lat="44.43387" lon="1.00172">
        <ele>149</ele>
        <time>2012-04-01T06:28:06Z</time>
      </trkpt>
      <trkpt lat="44.43386" lon="1.00173">
        <ele>149</ele>
        <time>2012-04-01T06:28:07Z</time>
      </trkpt>
      <trkpt lat="44.43385" lon="1.00174">
        <ele>149</ele>
        <time>2012-04-01T06:28:08Z</time>
      </trkpt>
      <trkpt lat="44.43383" lon="1.00175">
        <ele>150</ele>
        <time>2012-04-01T06:28:09Z</time>
      </trkpt>
      <trkpt lat="44.43381" lon="1.00176">
        <ele>150</ele>
        <time>2012-04-01T06:28:10Z</time>
      </trkpt>
      <trkpt lat="44.43379" lon="1.00177">
        <ele>150</ele>
        <time>2012-04-01T06:28:11Z</time>
      </trkpt>
      <trkpt lat="44.43377" lon="1.00177">
        <ele>150</ele>
        <time>2012-04-01T06:28:12Z</time>
      </trkpt>
      <trkpt lat="44.43375" lon="1.00177">
        <ele>150</ele>
        <time>2012-04-01T06:28:13Z</time>
      </trkpt>
      <trkpt lat="44.43373" lon="1.00178">
        <ele>151</ele>
        <time>2012-04-01T06:28:14Z</time>
      </trkpt>
      <trkpt lat="44.43371" lon="1.00178">
        <ele>151</ele>
        <time>2012-04-01T06:28:15Z</time>
      </trkpt>
      <trkpt lat="44.4337" lon="1.00179">
        <ele>151</ele>
        <time>2012-04-01T06:28:16Z</time>
      </trkpt>
      <trkpt lat="44.43369" lon="1.0018">
        <ele>152</ele>
        <time>2012-04-01T06:28:17Z</time>
      </trkpt>
      <trkpt lat="44.43366" lon="1.00181">
        <ele>152</ele>
        <time>2012-04-01T06:28:19Z</time>
      </trkpt>
      <trkpt lat="44.43365" lon="1.00181">
        <ele>152</ele>
        <time>2012-04-01T06:28:20Z</time>
      </trkpt>
      <trkpt lat="44.43364" lon="1.00181">
        <ele>153</ele>
        <time>2012-04-01T06:28:21Z</time>
      </trkpt>
      <trkpt lat="44.43362" lon="1.00182">
        <ele>153</ele>
        <time>2012-04-01T06:28:22Z</time>
      </trkpt>
      <trkpt lat="44.4336" lon="1.00182">
        <ele>153</ele>
        <time>2012-04-01T06:28:23Z</time>
      </trkpt>
      <trkpt lat="44.43358" lon="1.00183">
        <ele>153</ele>
        <time>2012-04-01T06:28:24Z</time>
      </trkpt>
      <trkpt lat="44.43356" lon="1.00184">
        <ele>153</ele>
        <time>2012-04-01T06:28:25Z</time>
      </trkpt>
      <trkpt lat="44.43354" lon="1.00185">
        <ele>153</ele>
        <time>2012-04-01T06:28:26Z</time>
      </trkpt>
      <trkpt lat="44.43352" lon="1.00185">
        <ele>153</ele>
        <time>2012-04-01T06:28:27Z</time>
      </trkpt>
      <trkpt lat="44.43351" lon="1.00187">
        <ele>154</ele>
        <time>2012-04-01T06:28:28Z</time>
      </trkpt>
      <trkpt lat="44.43349" lon="1.00187">
        <ele>155</ele>
        <time>2012-04-01T06:28:29Z</time>
      </trkpt>
      <trkpt lat="44.43347" lon="1.00188">
        <ele>155</ele>
        <time>2012-04-01T06:28:30Z</time>
      </trkpt>
      <trkpt lat="44.43346" lon="1.00189">
        <ele>156</ele>
        <time>2012-04-01T06:28:31Z</time>
      </trkpt>
      <trkpt lat="44.43344" lon="1.0019">
        <ele>156</ele>
        <time>2012-04-01T06:28:32Z</time>
      </trkpt>
      <trkpt lat="44.43342" lon="1.0019">
        <ele>156</ele>
        <time>2012-04-01T06:28:33Z</time>
      </trkpt>
      <trkpt lat="44.4334" lon="1.00191">
        <ele>157</ele>
        <time>2012-04-01T06:28:34Z</time>
      </trkpt>
      <trkpt lat="44.43338" lon="1.00193">
        <ele>157</ele>
        <time>2012-04-01T06:28:35Z</time>
      </trkpt>
      <trkpt lat="44.43336" lon="1.00194">
        <ele>158</ele>
        <time>2012-04-01T06:28:36Z</time>
      </trkpt>
      <trkpt lat="44.43334" lon="1.00196">
        <ele>158</ele>
        <time>2012-04-01T06:28:37Z</time>
      </trkpt>
      <trkpt lat="44.43333" lon="1.00197">
        <ele>158</ele>
        <time>2012-04-01T06:28:38Z</time>
      </trkpt>
      <trkpt lat="44.4333" lon="1.00198">
        <ele>159</ele>
        <time>2012-04-01T06:28:39Z</time>
      </trkpt>
      <trkpt lat="44.43328" lon="1.002">
        <ele>159</ele>
        <time>2012-04-01T06:28:40Z</time>
      </trkpt>
      <trkpt lat="44.43327" lon="1.00201">
        <ele>160</ele>
        <time>2012-04-01T06:28:41Z</time>
      </trkpt>
      <trkpt lat="44.43325" lon="1.00203">
        <ele>160</ele>
        <time>2012-04-01T06:28:42Z</time>
      </trkpt>
      <trkpt lat="44.43323" lon="1.00204">
        <ele>161</ele>
        <time>2012-04-01T06:28:43Z</time>
      </trkpt>
      <trkpt lat="44.43321" lon="1.00206">
        <ele>161</ele>
        <time>2012-04-01T06:28:44Z</time>
      </trkpt>
      <trkpt lat="44.43319" lon="1.00207">
        <ele>161</ele>
        <time>2012-04-01T06:28:45Z</time>
      </trkpt>
      <trkpt lat="44.43317" lon="1.00208">
        <ele>162</ele>
        <time>2012-04-01T06:28:46Z</time>
      </trkpt>
      <trkpt lat="44.43315" lon="1.0021">
        <ele>162</ele>
        <time>2012-04-01T06:28:47Z</time>
      </trkpt>
      <trkpt lat="44.43313" lon="1.00211">
        <ele>163</ele>
        <time>2012-04-01T06:28:48Z</time>
      </trkpt>
      <trkpt lat="44.43311" lon="1.00213">
        <ele>163</ele>
        <time>2012-04-01T06:28:49Z</time>
      </trkpt>
      <trkpt lat="44.43309" lon="1.00213">
        <ele>164</ele>
        <time>2012-04-01T06:28:50Z</time>
      </trkpt>
      <trkpt lat="44.43308" lon="1.00214">
        <ele>165</ele>
        <time>2012-04-01T06:28:51Z</time>
      </trkpt>
      <trkpt lat="44.43306" lon="1.00216">
        <ele>165</ele>
        <time>2012-04-01T06:28:52Z</time>
      </trkpt>
      <trkpt lat="44.43304" lon="1.00217">
        <ele>165</ele>
        <time>2012-04-01T06:28:53Z</time>
      </trkpt>
      <trkpt lat="44.43302" lon="1.00219">
        <ele>166</ele>
        <time>2012-04-01T06:28:54Z</time>
      </trkpt>
      <trkpt lat="44.433" lon="1.00221">
        <ele>166</ele>
        <time>2012-04-01T06:28:55Z</time>
      </trkpt>
      <trkpt lat="44.43298" lon="1.00222">
        <ele>166</ele>
        <time>2012-04-01T06:28:56Z</time>
      </trkpt>
      <trkpt lat="44.43296" lon="1.00223">
        <ele>166</ele>
        <time>2012-04-01T06:28:57Z</time>
      </trkpt>
      <trkpt lat="44.43295" lon="1.00225">
        <ele>166</ele>
        <time>2012-04-01T06:28:58Z</time>
      </trkpt>
      <trkpt lat="44.43293" lon="1.00226">
        <ele>166</ele>
        <time>2012-04-01T06:28:59Z</time>
      </trkpt>
      <trkpt lat="44.43291" lon="1.00226">
        <ele>166</ele>
        <time>2012-04-01T06:29:00Z</time>
      </trkpt>
      <trkpt lat="44.43289" lon="1.00227">
        <ele>166</ele>
        <time>2012-04-01T06:29:01Z</time>
      </trkpt>
      <trkpt lat="44.43287" lon="1.00228">
        <ele>166</ele>
        <time>2012-04-01T06:29:02Z</time>
      </trkpt>
      <trkpt lat="44.43285" lon="1.00229">
        <ele>166</ele>
        <time>2012-04-01T06:29:03Z</time>
      </trkpt>
      <trkpt lat="44.43283" lon="1.00231">
        <ele>167</ele>
        <time>2012-04-01T06:29:04Z</time>
      </trkpt>
      <trkpt lat="44.43281" lon="1.00232">
        <ele>167</ele>
        <time>2012-04-01T06:29:05Z</time>
      </trkpt>
      <trkpt lat="44.43279" lon="1.00233">
        <ele>168</ele>
        <time>2012-04-01T06:29:06Z</time>
      </trkpt>
      <trkpt lat="44.43276" lon="1.00235">
        <ele>168</ele>
        <time>2012-04-01T06:29:07Z</time>
      </trkpt>
      <trkpt lat="44.43274" lon="1.00236">
        <ele>169</ele>
        <time>2012-04-01T06:29:08Z</time>
      </trkpt>
      <trkpt lat="44.43272" lon="1.00238">
        <ele>169</ele>
        <time>2012-04-01T06:29:09Z</time>
      </trkpt>
      <trkpt lat="44.4327" lon="1.0024">
        <ele>170</ele>
        <time>2012-04-01T06:29:10Z</time>
      </trkpt>
      <trkpt lat="44.43269" lon="1.00242">
        <ele>170</ele>
        <time>2012-04-01T06:29:11Z</time>
      </trkpt>
      <trkpt lat="44.43267" lon="1.00244">
        <ele>170</ele>
        <time>2012-04-01T06:29:12Z</time>
      </trkpt>
      <trkpt lat="44.43265" lon="1.00245">
        <ele>171</ele>
        <time>2012-04-01T06:29:13Z</time>
      </trkpt>
      <trkpt lat="44.43264" lon="1.00246">
        <ele>171</ele>
        <time>2012-04-01T06:29:14Z</time>
      </trkpt>
      <trkpt lat="44.43262" lon="1.00247">
        <ele>171</ele>
        <time>2012-04-01T06:29:15Z</time>
      </trkpt>
      <trkpt lat="44.43259" lon="1.00249">
        <ele>171</ele>
        <time>2012-04-01T06:29:16Z</time>
      </trkpt>
      <trkpt lat="44.43257" lon="1.00251">
        <ele>172</ele>
        <time>2012-04-01T06:29:17Z</time>
      </trkpt>
      <trkpt lat="44.43255" lon="1.00253">
        <ele>172</ele>
        <time>2012-04-01T06:29:18Z</time>
      </trkpt>
      <trkpt lat="44.43253" lon="1.00254">
        <ele>172</ele>
        <time>2012-04-01T06:29:19Z</time>
      </trkpt>
      <trkpt lat="44.43251" lon="1.00257">
        <ele>172</ele>
        <time>2012-04-01T06:29:20Z</time>
      </trkpt>
      <trkpt lat="44.43249" lon="1.00257">
        <ele>172</ele>
        <time>2012-04-01T06:29:21Z</time>
      </trkpt>
      <trkpt lat="44.43247" lon="1.00258">
        <ele>172</ele>
        <time>2012-04-01T06:29:22Z</time>
      </trkpt>
      <trkpt lat="44.43245" lon="1.00259">
        <ele>172</ele>
        <time>2012-04-01T06:29:23Z</time>
      </trkpt>
      <trkpt lat="44.43243" lon="1.00261">
        <ele>173</ele>
        <time>2012-04-01T06:29:24Z</time>
      </trkpt>
      <trkpt lat="44.43241" lon="1.00262">
        <ele>173</ele>
        <time>2012-04-01T06:29:25Z</time>
      </trkpt>
      <trkpt lat="44.4324" lon="1.00263">
        <ele>173</ele>
        <time>2012-04-01T06:29:26Z</time>
      </trkpt>
      <trkpt lat="44.43238" lon="1.00265">
        <ele>173</ele>
        <time>2012-04-01T06:29:27Z</time>
      </trkpt>
      <trkpt lat="44.43236" lon="1.00266">
        <ele>173</ele>
        <time>2012-04-01T06:29:28Z</time>
      </trkpt>
      <trkpt lat="44.43235" lon="1.00268">
        <ele>173</ele>
        <time>2012-04-01T06:29:29Z</time>
      </trkpt>
      <trkpt lat="44.43233" lon="1.0027">
        <ele>173</ele>
        <time>2012-04-01T06:29:30Z</time>
      </trkpt>
      <trkpt lat="44.43231" lon="1.00271">
        <ele>173</ele>
        <time>2012-04-01T06:29:31Z</time>
      </trkpt>
      <trkpt lat="44.4323" lon="1.00273">
        <ele>173</ele>
        <time>2012-04-01T06:29:32Z</time>
      </trkpt>
      <trkpt lat="44.43228" lon="1.00274">
        <ele>173</ele>
        <time>2012-04-01T06:29:33Z</time>
      </trkpt>
      <trkpt lat="44.43225" lon="1.00276">
        <ele>173</ele>
        <time>2012-04-01T06:29:34Z</time>
      </trkpt>
      <trkpt lat="44.43224" lon="1.00277">
        <ele>173</ele>
        <time>2012-04-01T06:29:35Z</time>
      </trkpt>
      <trkpt lat="44.43221" lon="1.00279">
        <ele>173</ele>
        <time>2012-04-01T06:29:36Z</time>
      </trkpt>
      <trkpt lat="44.43219" lon="1.0028">
        <ele>173</ele>
        <time>2012-04-01T06:29:37Z</time>
      </trkpt>
      <trkpt lat="44.43217" lon="1.00282">
        <ele>173</ele>
        <time>2012-04-01T06:29:38Z</time>
      </trkpt>
      <trkpt lat="44.43215" lon="1.00284">
        <ele>173</ele>
        <time>2012-04-01T06:29:39Z</time>
      </trkpt>
      <trkpt lat="44.43213" lon="1.00285">
        <ele>173</ele>
        <time>2012-04-01T06:29:40Z</time>
      </trkpt>
      <trkpt lat="44.43211" lon="1.00287">
        <ele>173</ele>
        <time>2012-04-01T06:29:41Z</time>
      </trkpt>
      <trkpt lat="44.43209" lon="1.00289">
        <ele>174</ele>
        <time>2012-04-01T06:29:42Z</time>
      </trkpt>
      <trkpt lat="44.43207" lon="1.0029">
        <ele>174</ele>
        <time>2012-04-01T06:29:43Z</time>
      </trkpt>
      <trkpt lat="44.43205" lon="1.00292">
        <ele>175</ele>
        <time>2012-04-01T06:29:44Z</time>
      </trkpt>
      <trkpt lat="44.43203" lon="1.00293">
        <ele>175</ele>
        <time>2012-04-01T06:29:45Z</time>
      </trkpt>
      <trkpt lat="44.43201" lon="1.00295">
        <ele>176</ele>
        <time>2012-04-01T06:29:46Z</time>
      </trkpt>
      <trkpt lat="44.43199" lon="1.00296">
        <ele>176</ele>
        <time>2012-04-01T06:29:47Z</time>
      </trkpt>
      <trkpt lat="44.43197" lon="1.00297">
        <ele>176</ele>
        <time>2012-04-01T06:29:48Z</time>
      </trkpt>
      <trkpt lat="44.43195" lon="1.00299">
        <ele>176</ele>
        <time>2012-04-01T06:29:49Z</time>
      </trkpt>
      <trkpt lat="44.43193" lon="1.00301">
        <ele>177</ele>
        <time>2012-04-01T06:29:50Z</time>
      </trkpt>
      <trkpt lat="44.4319" lon="1.00302">
        <ele>177</ele>
        <time>2012-04-01T06:29:51Z</time>
      </trkpt>
      <trkpt lat="44.43188" lon="1.00304">
        <ele>177</ele>
        <time>2012-04-01T06:29:52Z</time>
      </trkpt>
      <trkpt lat="44.43186" lon="1.00306">
        <ele>177</ele>
        <time>2012-04-01T06:29:53Z</time>
      </trkpt>
      <trkpt lat="44.43184" lon="1.00308">
        <ele>177</ele>
        <time>2012-04-01T06:29:54Z</time>
      </trkpt>
      <trkpt lat="44.43182" lon="1.00309">
        <ele>178</ele>
        <time>2012-04-01T06:29:55Z</time>
      </trkpt>
      <trkpt lat="44.4318" lon="1.0031">
        <ele>178</ele>
        <time>2012-04-01T06:29:56Z</time>
      </trkpt>
      <trkpt lat="44.43178" lon="1.00311">
        <ele>178</ele>
        <time>2012-04-01T06:29:57Z</time>
      </trkpt>
      <trkpt lat="44.43176" lon="1.00313">
        <ele>178</ele>
        <time>2012-04-01T06:29:58Z</time>
      </trkpt>
      <trkpt lat="44.43174" lon="1.00315">
        <ele>178</ele>
        <time>2012-04-01T06:29:59Z</time>
      </trkpt>
      <trkpt lat="44.43173" lon="1.00317">
        <ele>178</ele>
        <time>2012-04-01T06:30:00Z</time>
      </trkpt>
      <trkpt lat="44.43171" lon="1.00317">
        <ele>178</ele>
        <time>2012-04-01T06:30:01Z</time>
      </trkpt>
      <trkpt lat="44.4317" lon="1.00318">
        <ele>178</ele>
        <time>2012-04-01T06:30:02Z</time>
      </trkpt>
      <trkpt lat="44.43168" lon="1.0032">
        <ele>178</ele>
        <time>2012-04-01T06:30:03Z</time>
      </trkpt>
      <trkpt lat="44.43166" lon="1.00322">
        <ele>178</ele>
        <time>2012-04-01T06:30:04Z</time>
      </trkpt>
      <trkpt lat="44.43164" lon="1.00324">
        <ele>178</ele>
        <time>2012-04-01T06:30:05Z</time>
      </trkpt>
      <trkpt lat="44.43162" lon="1.00326">
        <ele>178</ele>
        <time>2012-04-01T06:30:06Z</time>
      </trkpt>
      <trkpt lat="44.4316" lon="1.00328">
        <ele>178</ele>
        <time>2012-04-01T06:30:07Z</time>
      </trkpt>
      <trkpt lat="44.43158" lon="1.00331">
        <ele>177</ele>
        <time>2012-04-01T06:30:08Z</time>
      </trkpt>
      <trkpt lat="44.43156" lon="1.00333">
        <ele>177</ele>
        <time>2012-04-01T06:30:09Z</time>
      </trkpt>
      <trkpt lat="44.43153" lon="1.00336">
        <ele>177</ele>
        <time>2012-04-01T06:30:10Z</time>
      </trkpt>
      <trkpt lat="44.43151" lon="1.00337">
        <ele>177</ele>
        <time>2012-04-01T06:30:11Z</time>
      </trkpt>
      <trkpt lat="44.43149" lon="1.00339">
        <ele>177</ele>
        <time>2012-04-01T06:30:12Z</time>
      </trkpt>
      <trkpt lat="44.43147" lon="1.00341">
        <ele>177</ele>
        <time>2012-04-01T06:30:13Z</time>
      </trkpt>
      <trkpt lat="44.43145" lon="1.00343">
        <ele>177</ele>
        <time>2012-04-01T06:30:14Z</time>
      </trkpt>
      <trkpt lat="44.43143" lon="1.00345">
        <ele>177</ele>
        <time>2012-04-01T06:30:15Z</time>
      </trkpt>
      <trkpt lat="44.4314" lon="1.00347">
        <ele>177</ele>
        <time>2012-04-01T06:30:16Z</time>
      </trkpt>
      <trkpt lat="44.43138" lon="1.00349">
        <ele>177</ele>
        <time>2012-04-01T06:30:17Z</time>
      </trkpt>
      <trkpt lat="44.43136" lon="1.00351">
        <ele>177</ele>
        <time>2012-04-01T06:30:18Z</time>
      </trkpt>
      <trkpt lat="44.43134" lon="1.00353">
        <ele>177</ele>
        <time>2012-04-01T06:30:19Z</time>
      </trkpt>
      <trkpt lat="44.43131" lon="1.00355">
        <ele>177</ele>
        <time>2012-04-01T06:30:20Z</time>
      </trkpt>
      <trkpt lat="44.43129" lon="1.00356">
        <ele>177</ele>
        <time>2012-04-01T06:30:21Z</time>
      </trkpt>
      <trkpt lat="44.43127" lon="1.00359">
        <ele>178</ele>
        <time>2012-04-01T06:30:22Z</time>
      </trkpt>
      <trkpt lat="44.43124" lon="1.00362">
        <ele>179</ele>
        <time>2012-04-01T06:30:23Z</time>
      </trkpt>
      <trkpt lat="44.43122" lon="1.00364">
        <ele>179</ele>
        <time>2012-04-01T06:30:24Z</time>
      </trkpt>
      <trkpt lat="44.43121" lon="1.00365">
        <ele>180</ele>
        <time>2012-04-01T06:30:25Z</time>
      </trkpt>
      <trkpt lat="44.43118" lon="1.00368">
        <ele>181</ele>
        <time>2012-04-01T06:30:26Z</time>
      </trkpt>
      <trkpt lat="44.43116" lon="1.0037">
        <ele>181</ele>
        <time>2012-04-01T06:30:27Z</time>
      </trkpt>
      <trkpt lat="44.43114" lon="1.00371">
        <ele>182</ele>
        <time>2012-04-01T06:30:28Z</time>
      </trkpt>
      <trkpt lat="44.43112" lon="1.00372">
        <ele>182</ele>
        <time>2012-04-01T06:30:29Z</time>
      </trkpt>
      <trkpt lat="44.4311" lon="1.00373">
        <ele>182</ele>
        <time>2012-04-01T06:30:30Z</time>
      </trkpt>
      <trkpt lat="44.43108" lon="1.00375">
        <ele>182</ele>
        <time>2012-04-01T06:30:31Z</time>
      </trkpt>
      <trkpt lat="44.43106" lon="1.00377">
        <ele>182</ele>
        <time>2012-04-01T06:30:32Z</time>
      </trkpt>
      <trkpt lat="44.43103" lon="1.00379">
        <ele>183</ele>
        <time>2012-04-01T06:30:33Z</time>
      </trkpt>
      <trkpt lat="44.43102" lon="1.00381">
        <ele>183</ele>
        <time>2012-04-01T06:30:34Z</time>
      </trkpt>
      <trkpt lat="44.431" lon="1.00383">
        <ele>183</ele>
        <time>2012-04-01T06:30:35Z</time>
      </trkpt>
      <trkpt lat="44.43097" lon="1.00384">
        <ele>184</ele>
        <time>2012-04-01T06:30:36Z</time>
      </trkpt>
      <trkpt lat="44.43095" lon="1.00386">
        <ele>184</ele>
        <time>2012-04-01T06:30:37Z</time>
      </trkpt>
      <trkpt lat="44.43093" lon="1.00387">
        <ele>184</ele>
        <time>2012-04-01T06:30:38Z</time>
      </trkpt>
      <trkpt lat="44.43091" lon="1.00388">
        <ele>184</ele>
        <time>2012-04-01T06:30:39Z</time>
      </trkpt>
      <trkpt lat="44.43089" lon="1.00389">
        <ele>184</ele>
        <time>2012-04-01T06:30:40Z</time>
      </trkpt>
      <trkpt lat="44.43087" lon="1.00391">
        <ele>184</ele>
        <time>2012-04-01T06:30:41Z</time>
      </trkpt>
      <trkpt lat="44.43084" lon="1.00393">
        <ele>184</ele>
        <time>2012-04-01T06:30:42Z</time>
      </trkpt>
      <trkpt lat="44.43082" lon="1.00395">
        <ele>185</ele>
        <time>2012-04-01T06:30:43Z</time>
      </trkpt>
      <trkpt lat="44.4308" lon="1.00396">
        <ele>185</ele>
        <time>2012-04-01T06:30:44Z</time>
      </trkpt>
      <trkpt lat="44.43078" lon="1.00397">
        <ele>185</ele>
        <time>2012-04-01T06:30:45Z</time>
      </trkpt>
      <trkpt lat="44.43076" lon="1.00399">
        <ele>185</ele>
        <time>2012-04-01T06:30:46Z</time>
      </trkpt>
      <trkpt lat="44.43074" lon="1.004">
        <ele>185</ele>
        <time>2012-04-01T06:30:47Z</time>
      </trkpt>
      <trkpt lat="44.43072" lon="1.00402">
        <ele>185</ele>
        <time>2012-04-01T06:30:48Z</time>
      </trkpt>
      <trkpt lat="44.4307" lon="1.00405">
        <ele>185</ele>
        <time>2012-04-01T06:30:49Z</time>
      </trkpt>
      <trkpt lat="44.43068" lon="1.00406">
        <ele>185</ele>
        <time>2012-04-01T06:30:50Z</time>
      </trkpt>
      <trkpt lat="44.43065" lon="1.00408">
        <ele>185</ele>
        <time>2012-04-01T06:30:51Z</time>
      </trkpt>
      <trkpt lat="44.43063" lon="1.00409">
        <ele>186</ele>
        <time>2012-04-01T06:30:52Z</time>
      </trkpt>
      <trkpt lat="44.43061" lon="1.00409">
        <ele>187</ele>
        <time>2012-04-01T06:30:53Z</time>
      </trkpt>
      <trkpt lat="44.43059" lon="1.0041">
        <ele>187</ele>
        <time>2012-04-01T06:30:54Z</time>
      </trkpt>
      <trkpt lat="44.43057" lon="1.00412">
        <ele>188</ele>
        <time>2012-04-01T06:30:55Z</time>
      </trkpt>
      <trkpt lat="44.43055" lon="1.00413">
        <ele>188</ele>
        <time>2012-04-01T06:30:56Z</time>
      </trkpt>
      <trkpt lat="44.43053" lon="1.00415">
        <ele>188</ele>
        <time>2012-04-01T06:30:57Z</time>
      </trkpt>
      <trkpt lat="44.43051" lon="1.00416">
        <ele>188</ele>
        <time>2012-04-01T06:30:58Z</time>
      </trkpt>
      <trkpt lat="44.43049" lon="1.00418">
        <ele>188</ele>
        <time>2012-04-01T06:30:59Z</time>
      </trkpt>
      <trkpt lat="44.43047" lon="1.0042">
        <ele>188</ele>
        <time>2012-04-01T06:31:00Z</time>
      </trkpt>
      <trkpt lat="44.43045" lon="1.00422">
        <ele>188</ele>
        <time>2012-04-01T06:31:01Z</time>
      </trkpt>
      <trkpt lat="44.43043" lon="1.00422">
        <ele>188</ele>
        <time>2012-04-01T06:31:02Z</time>
      </trkpt>
      <trkpt lat="44.43041" lon="1.00424">
        <ele>188</ele>
        <time>2012-04-01T06:31:03Z</time>
      </trkpt>
      <trkpt lat="44.43039" lon="1.00425">
        <ele>188</ele>
        <time>2012-04-01T06:31:04Z</time>
      </trkpt>
      <trkpt lat="44.43037" lon="1.00426">
        <ele>188</ele>
        <time>2012-04-01T06:31:05Z</time>
      </trkpt>
      <trkpt lat="44.43035" lon="1.00428">
        <ele>188</ele>
        <time>2012-04-01T06:31:06Z</time>
      </trkpt>
      <trkpt lat="44.43032" lon="1.0043">
        <ele>188</ele>
        <time>2012-04-01T06:31:07Z</time>
      </trkpt>
      <trkpt lat="44.43029" lon="1.00433">
        <ele>188</ele>
        <time>2012-04-01T06:31:08Z</time>
      </trkpt>
      <trkpt lat="44.43026" lon="1.00436">
        <ele>188</ele>
        <time>2012-04-01T06:31:09Z</time>
      </trkpt>
      <trkpt lat="44.43024" lon="1.00438">
        <ele>188</ele>
        <time>2012-04-01T06:31:10Z</time>
      </trkpt>
      <trkpt lat="44.43021" lon="1.00441">
        <ele>188</ele>
        <time>2012-04-01T06:31:11Z</time>
      </trkpt>
      <trkpt lat="44.43018" lon="1.00444">
        <ele>189</ele>
        <time>2012-04-01T06:31:12Z</time>
      </trkpt>
      <trkpt lat="44.43015" lon="1.00447">
        <ele>190</ele>
        <time>2012-04-01T06:31:13Z</time>
      </trkpt>
      <trkpt lat="44.43013" lon="1.00449">
        <ele>190</ele>
        <time>2012-04-01T06:31:14Z</time>
      </trkpt>
      <trkpt lat="44.43011" lon="1.00452">
        <ele>190</ele>
        <time>2012-04-01T06:31:15Z</time>
      </trkpt>
      <trkpt lat="44.43008" lon="1.00455">
        <ele>190</ele>
        <time>2012-04-01T06:31:16Z</time>
      </trkpt>
      <trkpt lat="44.43006" lon="1.00457">
        <ele>190</ele>
        <time>2012-04-01T06:31:17Z</time>
      </trkpt>
      <trkpt lat="44.43003" lon="1.0046">
        <ele>190</ele>
        <time>2012-04-01T06:31:18Z</time>
      </trkpt>
      <trkpt lat="44.43002" lon="1.00463">
        <ele>190</ele>
        <time>2012-04-01T06:31:19Z</time>
      </trkpt>
      <trkpt lat="44.42999" lon="1.00466">
        <ele>190</ele>
        <time>2012-04-01T06:31:20Z</time>
      </trkpt>
      <trkpt lat="44.42997" lon="1.00469">
        <ele>190</ele>
        <time>2012-04-01T06:31:21Z</time>
      </trkpt>
      <trkpt lat="44.42995" lon="1.00471">
        <ele>191</ele>
        <time>2012-04-01T06:31:22Z</time>
      </trkpt>
      <trkpt lat="44.42993" lon="1.00474">
        <ele>191</ele>
        <time>2012-04-01T06:31:23Z</time>
      </trkpt>
      <trkpt lat="44.42991" lon="1.00476">
        <ele>192</ele>
        <time>2012-04-01T06:31:24Z</time>
      </trkpt>
      <trkpt lat="44.42989" lon="1.0048">
        <ele>192</ele>
        <time>2012-04-01T06:31:25Z</time>
      </trkpt>
      <trkpt lat="44.42987" lon="1.00483">
        <ele>193</ele>
        <time>2012-04-01T06:31:26Z</time>
      </trkpt>
      <trkpt lat="44.42984" lon="1.00486">
        <ele>194</ele>
        <time>2012-04-01T06:31:27Z</time>
      </trkpt>
      <trkpt lat="44.42982" lon="1.00489">
        <ele>195</ele>
        <time>2012-04-01T06:31:28Z</time>
      </trkpt>
      <trkpt lat="44.4298" lon="1.00491">
        <ele>196</ele>
        <time>2012-04-01T06:31:29Z</time>
      </trkpt>
      <trkpt lat="44.42978" lon="1.00493">
        <ele>197</ele>
        <time>2012-04-01T06:31:30Z</time>
      </trkpt>
      <trkpt lat="44.42976" lon="1.00495">
        <ele>198</ele>
        <time>2012-04-01T06:31:31Z</time>
      </trkpt>
      <trkpt lat="44.42974" lon="1.00498">
        <ele>199</ele>
        <time>2012-04-01T06:31:32Z</time>
      </trkpt>
      <trkpt lat="44.42972" lon="1.005">
        <ele>200</ele>
        <time>2012-04-01T06:31:33Z</time>
      </trkpt>
      <trkpt lat="44.4297" lon="1.00502">
        <ele>201</ele>
        <time>2012-04-01T06:31:34Z</time>
      </trkpt>
      <trkpt lat="44.42968" lon="1.00504">
        <ele>201</ele>
        <time>2012-04-01T06:31:35Z</time>
      </trkpt>
      <trkpt lat="44.42966" lon="1.00506">
        <ele>201</ele>
        <time>2012-04-01T06:31:36Z</time>
      </trkpt>
      <trkpt lat="44.42964" lon="1.0051">
        <ele>201</ele>
        <time>2012-04-01T06:31:37Z</time>
      </trkpt>
      <trkpt lat="44.42962" lon="1.00513">
        <ele>201</ele>
        <time>2012-04-01T06:31:38Z</time>
      </trkpt>
      <trkpt lat="44.42959" lon="1.00518">
        <ele>201</ele>
        <time>2012-04-01T06:31:39Z</time>
      </trkpt>
      <trkpt lat="44.42957" lon="1.00521">
        <ele>202</ele>
        <time>2012-04-01T06:31:40Z</time>
      </trkpt>
      <trkpt lat="44.42954" lon="1.00525">
        <ele>202</ele>
        <time>2012-04-01T06:31:41Z</time>
      </trkpt>
      <trkpt lat="44.42952" lon="1.00529">
        <ele>203</ele>
        <time>2012-04-01T06:31:42Z</time>
      </trkpt>
      <trkpt lat="44.42949" lon="1.00532">
        <ele>204</ele>
        <time>2012-04-01T06:31:43Z</time>
      </trkpt>
      <trkpt lat="44.42946" lon="1.00537">
        <ele>205</ele>
        <time>2012-04-01T06:31:44Z</time>
      </trkpt>
      <trkpt lat="44.42943" lon="1.00541">
        <ele>205</ele>
        <time>2012-04-01T06:31:45Z</time>
      </trkpt>
      <trkpt lat="44.42941" lon="1.00545">
        <ele>206</ele>
        <time>2012-04-01T06:31:46Z</time>
      </trkpt>
      <trkpt lat="44.42939" lon="1.00548">
        <ele>207</ele>
        <time>2012-04-01T06:31:47Z</time>
      </trkpt>
      <trkpt lat="44.42936" lon="1.00551">
        <ele>208</ele>
        <time>2012-04-01T06:31:48Z</time>
      </trkpt>
      <trkpt lat="44.42933" lon="1.00553">
        <ele>208</ele>
        <time>2012-04-01T06:31:49Z</time>
      </trkpt>
      <trkpt lat="44.42929" lon="1.00551">
        <ele>209</ele>
        <time>2012-04-01T06:31:50Z</time>
      </trkpt>
      <trkpt lat="44.42926" lon="1.0055">
        <ele>210</ele>
        <time>2012-04-01T06:31:51Z</time>
      </trkpt>
      <trkpt lat="44.42922" lon="1.00549">
        <ele>210</ele>
        <time>2012-04-01T06:31:52Z</time>
      </trkpt>
      <trkpt lat="44.42918" lon="1.00546">
        <ele>210</ele>
        <time>2012-04-01T06:31:53Z</time>
      </trkpt>
      <trkpt lat="44.42915" lon="1.00543">
        <ele>210</ele>
        <time>2012-04-01T06:31:54Z</time>
      </trkpt>
      <trkpt lat="44.42911" lon="1.0054">
        <ele>210</ele>
        <time>2012-04-01T06:31:55Z</time>
      </trkpt>
      <trkpt lat="44.42907" lon="1.00537">
        <ele>210</ele>
        <time>2012-04-01T06:31:56Z</time>
      </trkpt>
      <trkpt lat="44.42903" lon="1.00534">
        <ele>210</ele>
        <time>2012-04-01T06:31:57Z</time>
      </trkpt>
      <trkpt lat="44.42898" lon="1.00531">
        <ele>210</ele>
        <time>2012-04-01T06:31:58Z</time>
      </trkpt>
      <trkpt lat="44.42894" lon="1.00529">
        <ele>210</ele>
        <time>2012-04-01T06:31:59Z</time>
      </trkpt>
      <trkpt lat="44.42891" lon="1.00527">
        <ele>210</ele>
        <time>2012-04-01T06:32:00Z</time>
      </trkpt>
      <trkpt lat="44.42886" lon="1.00526">
        <ele>210</ele>
        <time>2012-04-01T06:32:01Z</time>
      </trkpt>
      <trkpt lat="44.42882" lon="1.00525">
        <ele>210</ele>
        <time>2012-04-01T06:32:02Z</time>
      </trkpt>
      <trkpt lat="44.42879" lon="1.00528">
        <ele>210</ele>
        <time>2012-04-01T06:32:03Z</time>
      </trkpt>
      <trkpt lat="44.42876" lon="1.00533">
        <ele>210</ele>
        <time>2012-04-01T06:32:04Z</time>
      </trkpt>
      <trkpt lat="44.42873" lon="1.00538">
        <ele>209</ele>
        <time>2012-04-01T06:32:05Z</time>
      </trkpt>
      <trkpt lat="44.4287" lon="1.00542">
        <ele>209</ele>
        <time>2012-04-01T06:32:06Z</time>
      </trkpt>
      <trkpt lat="44.42867" lon="1.00547">
        <ele>209</ele>
        <time>2012-04-01T06:32:07Z</time>
      </trkpt>
      <trkpt lat="44.42864" lon="1.00552">
        <ele>209</ele>
        <time>2012-04-01T06:32:08Z</time>
      </trkpt>
      <trkpt lat="44.4286" lon="1.00556">
        <ele>209</ele>
        <time>2012-04-01T06:32:09Z</time>
      </trkpt>
      <trkpt lat="44.42858" lon="1.00561">
        <ele>209</ele>
        <time>2012-04-01T06:32:10Z</time>
      </trkpt>
      <trkpt lat="44.42855" lon="1.00565">
        <ele>209</ele>
        <time>2012-04-01T06:32:11Z</time>
      </trkpt>
      <trkpt lat="44.42852" lon="1.00568">
        <ele>209</ele>
        <time>2012-04-01T06:32:12Z</time>
      </trkpt>
      <trkpt lat="44.42849" lon="1.00573">
        <ele>209</ele>
        <time>2012-04-01T06:32:13Z</time>
      </trkpt>
      <trkpt lat="44.42846" lon="1.00579">
        <ele>209</ele>
        <time>2012-04-01T06:32:14Z</time>
      </trkpt>
      <trkpt lat="44.42843" lon="1.00582">
        <ele>209</ele>
        <time>2012-04-01T06:32:15Z</time>
      </trkpt>
      <trkpt lat="44.4284" lon="1.00585">
        <ele>209</ele>
        <time>2012-04-01T06:32:16Z</time>
      </trkpt>
      <trkpt lat="44.42837" lon="1.00589">
        <ele>209</ele>
        <time>2012-04-01T06:32:17Z</time>
      </trkpt>
      <trkpt lat="44.42833" lon="1.00594">
        <ele>209</ele>
        <time>2012-04-01T06:32:18Z</time>
      </trkpt>
      <trkpt lat="44.4283" lon="1.00599">
        <ele>209</ele>
        <time>2012-04-01T06:32:19Z</time>
      </trkpt>
      <trkpt lat="44.42826" lon="1.00603">
        <ele>209</ele>
        <time>2012-04-01T06:32:20Z</time>
      </trkpt>
      <trkpt lat="44.42823" lon="1.00609">
        <ele>209</ele>
        <time>2012-04-01T06:32:21Z</time>
      </trkpt>
      <trkpt lat="44.42819" lon="1.00613">
        <ele>209</ele>
        <time>2012-04-01T06:32:22Z</time>
      </trkpt>
      <trkpt lat="44.42815" lon="1.00619">
        <ele>210</ele>
        <time>2012-04-01T06:32:23Z</time>
      </trkpt>
      <trkpt lat="44.4281" lon="1.00624">
        <ele>211</ele>
        <time>2012-04-01T06:32:24Z</time>
      </trkpt>
      <trkpt lat="44.42806" lon="1.00629">
        <ele>212</ele>
        <time>2012-04-01T06:32:25Z</time>
      </trkpt>
      <trkpt lat="44.42803" lon="1.00631">
        <ele>213</ele>
        <time>2012-04-01T06:32:26Z</time>
      </trkpt>
      <trkpt lat="44.42801" lon="1.00633">
        <ele>214</ele>
        <time>2012-04-01T06:32:27Z</time>
      </trkpt>
      <trkpt lat="44.42798" lon="1.00635">
        <ele>214</ele>
        <time>2012-04-01T06:32:28Z</time>
      </trkpt>
      <trkpt lat="44.42796" lon="1.00636">
        <ele>214</ele>
        <time>2012-04-01T06:32:29Z</time>
      </trkpt>
      <trkpt lat="44.42794" lon="1.00639">
        <ele>214</ele>
        <time>2012-04-01T06:32:30Z</time>
      </trkpt>
      <trkpt lat="44.42792" lon="1.00642">
        <ele>214</ele>
        <time>2012-04-01T06:32:31Z</time>
      </trkpt>
      <trkpt lat="44.42792" lon="1.00646">
        <ele>214</ele>
        <time>2012-04-01T06:32:32Z</time>
      </trkpt>
      <trkpt lat="44.42792" lon="1.0065">
        <ele>214</ele>
        <time>2012-04-01T06:32:33Z</time>
      </trkpt>
      <trkpt lat="44.42793" lon="1.00656">
        <ele>214</ele>
        <time>2012-04-01T06:32:34Z</time>
      </trkpt>
      <trkpt lat="44.42792" lon="1.00662">
        <ele>214</ele>
        <time>2012-04-01T06:32:35Z</time>
      </trkpt>
      <trkpt lat="44.42793" lon="1.00669">
        <ele>214</ele>
        <time>2012-04-01T06:32:36Z</time>
      </trkpt>
      <trkpt lat="44.42794" lon="1.00677">
        <ele>214</ele>
        <time>2012-04-01T06:32:37Z</time>
      </trkpt>
      <trkpt lat="44.42795" lon="1.00686">
        <ele>214</ele>
        <time>2012-04-01T06:32:38Z</time>
      </trkpt>
      <trkpt lat="44.42796" lon="1.00695">
        <ele>214</ele>
        <time>2012-04-01T06:32:39Z</time>
      </trkpt>
      <trkpt lat="44.42797" lon="1.00705">
        <ele>213</ele>
        <time>2012-04-01T06:32:40Z</time>
      </trkpt>
      <trkpt lat="44.42799" lon="1.00716">
        <ele>213</ele>
        <time>2012-04-01T06:32:41Z</time>
      </trkpt>
      <trkpt lat="44.428" lon="1.00727">
        <ele>212</ele>
        <time>2012-04-01T06:32:42Z</time>
      </trkpt>
      <trkpt lat="44.42801" lon="1.00739">
        <ele>212</ele>
        <time>2012-04-01T06:32:43Z</time>
      </trkpt>
      <trkpt lat="44.42802" lon="1.00751">
        <ele>212</ele>
        <time>2012-04-01T06:32:44Z</time>
      </trkpt>
      <trkpt lat="44.42803" lon="1.00765">
        <ele>211</ele>
        <time>2012-04-01T06:32:45Z</time>
      </trkpt>
      <trkpt lat="44.42804" lon="1.00779">
        <ele>211</ele>
        <time>2012-04-01T06:32:46Z</time>
      </trkpt>
      <trkpt lat="44.42805" lon="1.00792">
        <ele>210</ele>
        <time>2012-04-01T06:32:47Z</time>
      </trkpt>
      <trkpt lat="44.42805" lon="1.00805">
        <ele>209</ele>
        <time>2012-04-01T06:32:48Z</time>
      </trkpt>
      <trkpt lat="44.42807" lon="1.00819">
        <ele>208</ele>
        <time>2012-04-01T06:32:49Z</time>
      </trkpt>
      <trkpt lat="44.42807" lon="1.00833">
        <ele>207</ele>
        <time>2012-04-01T06:32:50Z</time>
      </trkpt>
      <trkpt lat="44.42808" lon="1.00847">
        <ele>207</ele>
        <time>2012-04-01T06:32:51Z</time>
      </trkpt>
      <trkpt lat="44.42809" lon="1.00862">
        <ele>207</ele>
        <time>2012-04-01T06:32:52Z</time>
      </trkpt>
      <trkpt lat="44.4281" lon="1.00876">
        <ele>206</ele>
        <time>2012-04-01T06:32:53Z</time>
      </trkpt>
      <trkpt lat="44.4281" lon="1.0089">
        <ele>206</ele>
        <time>2012-04-01T06:32:54Z</time>
      </trkpt>
      <trkpt lat="44.42811" lon="1.00904">
        <ele>206</ele>
        <time>2012-04-01T06:32:55Z</time>
      </trkpt>
      <trkpt lat="44.42811" lon="1.00917">
        <ele>206</ele>
        <time>2012-04-01T06:32:56Z</time>
      </trkpt>
      <trkpt lat="44.42812" lon="1.00929">
        <ele>206</ele>
        <time>2012-04-01T06:32:57Z</time>
      </trkpt>
      <trkpt lat="44.42812" lon="1.0094">
        <ele>206</ele>
        <time>2012-04-01T06:32:58Z</time>
      </trkpt>
      <trkpt lat="44.42813" lon="1.00951">
        <ele>206</ele>
        <time>2012-04-01T06:32:59Z</time>
      </trkpt>
      <trkpt lat="44.42814" lon="1.00961">
        <ele>206</ele>
        <time>2012-04-01T06:33:00Z</time>
      </trkpt>
      <trkpt lat="44.42814" lon="1.0097">
        <ele>206</ele>
        <time>2012-04-01T06:33:01Z</time>
      </trkpt>
      <trkpt lat="44.42813" lon="1.00977">
        <ele>206</ele>
        <time>2012-04-01T06:33:02Z</time>
      </trkpt>
      <trkpt lat="44.42811" lon="1.00984">
        <ele>206</ele>
        <time>2012-04-01T06:33:03Z</time>
      </trkpt>
      <trkpt lat="44.42808" lon="1.00988">
        <ele>206</ele>
        <time>2012-04-01T06:33:04Z</time>
      </trkpt>
      <trkpt lat="44.42804" lon="1.00991">
        <ele>206</ele>
        <time>2012-04-01T06:33:05Z</time>
      </trkpt>
      <trkpt lat="44.428" lon="1.00994">
        <ele>206</ele>
        <time>2012-04-01T06:33:06Z</time>
      </trkpt>
      <trkpt lat="44.42795" lon="1.00997">
        <ele>206</ele>
        <time>2012-04-01T06:33:07Z</time>
      </trkpt>
      <trkpt lat="44.4279" lon="1.01002">
        <ele>206</ele>
        <time>2012-04-01T06:33:08Z</time>
      </trkpt>
      <trkpt lat="44.42786" lon="1.01006">
        <ele>206</ele>
        <time>2012-04-01T06:33:09Z</time>
      </trkpt>
      <trkpt lat="44.42781" lon="1.01011">
        <ele>206</ele>
        <time>2012-04-01T06:33:10Z</time>
      </trkpt>
      <trkpt lat="44.42775" lon="1.01015">
        <ele>206</ele>
        <time>2012-04-01T06:33:11Z</time>
      </trkpt>
      <trkpt lat="44.42771" lon="1.0102">
        <ele>206</ele>
        <time>2012-04-01T06:33:12Z</time>
      </trkpt>
      <trkpt lat="44.42766" lon="1.01025">
        <ele>206</ele>
        <time>2012-04-01T06:33:13Z</time>
      </trkpt>
      <trkpt lat="44.42761" lon="1.0103">
        <ele>206</ele>
        <time>2012-04-01T06:33:14Z</time>
      </trkpt>
      <trkpt lat="44.42757" lon="1.01034">
        <ele>205</ele>
        <time>2012-04-01T06:33:15Z</time>
      </trkpt>
      <trkpt lat="44.42752" lon="1.01039">
        <ele>204</ele>
        <time>2012-04-01T06:33:16Z</time>
      </trkpt>
      <trkpt lat="44.42748" lon="1.01042">
        <ele>203</ele>
        <time>2012-04-01T06:33:17Z</time>
      </trkpt>
      <trkpt lat="44.42743" lon="1.01047">
        <ele>202</ele>
        <time>2012-04-01T06:33:18Z</time>
      </trkpt>
      <trkpt lat="44.42738" lon="1.0105">
        <ele>202</ele>
        <time>2012-04-01T06:33:19Z</time>
      </trkpt>
      <trkpt lat="44.42733" lon="1.01052">
        <ele>202</ele>
        <time>2012-04-01T06:33:20Z</time>
      </trkpt>
      <trkpt lat="44.42727" lon="1.01051">
        <ele>202</ele>
        <time>2012-04-01T06:33:21Z</time>
      </trkpt>
      <trkpt lat="44.42721" lon="1.01047">
        <ele>202</ele>
        <time>2012-04-01T06:33:22Z</time>
      </trkpt>
      <trkpt lat="44.42716" lon="1.01041">
        <ele>201</ele>
        <time>2012-04-01T06:33:23Z</time>
      </trkpt>
      <trkpt lat="44.42711" lon="1.01034">
        <ele>201</ele>
        <time>2012-04-01T06:33:24Z</time>
      </trkpt>
      <trkpt lat="44.42706" lon="1.01028">
        <ele>200</ele>
        <time>2012-04-01T06:33:25Z</time>
      </trkpt>
      <trkpt lat="44.42701" lon="1.01022">
        <ele>200</ele>
        <time>2012-04-01T06:33:26Z</time>
      </trkpt>
      <trkpt lat="44.42696" lon="1.01017">
        <ele>199</ele>
        <time>2012-04-01T06:33:27Z</time>
      </trkpt>
      <trkpt lat="44.42691" lon="1.01015">
        <ele>198</ele>
        <time>2012-04-01T06:33:28Z</time>
      </trkpt>
      <trkpt lat="44.42685" lon="1.01015">
        <ele>197</ele>
        <time>2012-04-01T06:33:29Z</time>
      </trkpt>
      <trkpt lat="44.42679" lon="1.01018">
        <ele>196</ele>
        <time>2012-04-01T06:33:30Z</time>
      </trkpt>
      <trkpt lat="44.42673" lon="1.01021">
        <ele>195</ele>
        <time>2012-04-01T06:33:31Z</time>
      </trkpt>
      <trkpt lat="44.42666" lon="1.01025">
        <ele>194</ele>
        <time>2012-04-01T06:33:32Z</time>
      </trkpt>
      <trkpt lat="44.42659" lon="1.01029">
        <ele>194</ele>
        <time>2012-04-01T06:33:33Z</time>
      </trkpt>
      <trkpt lat="44.42652" lon="1.01032">
        <ele>194</ele>
        <time>2012-04-01T06:33:34Z</time>
      </trkpt>
      <trkpt lat="44.42645" lon="1.01036">
        <ele>193</ele>
        <time>2012-04-01T06:33:35Z</time>
      </trkpt>
      <trkpt lat="44.42638" lon="1.01041">
        <ele>193</ele>
        <time>2012-04-01T06:33:36Z</time>
      </trkpt>
      <trkpt lat="44.42631" lon="1.01046">
        <ele>192</ele>
        <time>2012-04-01T06:33:37Z</time>
      </trkpt>
      <trkpt lat="44.42624" lon="1.0105">
        <ele>191</ele>
        <time>2012-04-01T06:33:38Z</time>
      </trkpt>
      <trkpt lat="44.42617" lon="1.01056">
        <ele>191</ele>
        <time>2012-04-01T06:33:39Z</time>
      </trkpt>
      <trkpt lat="44.4261" lon="1.01061">
        <ele>190</ele>
        <time>2012-04-01T06:33:40Z</time>
      </trkpt>
      <trkpt lat="44.42602" lon="1.01065">
        <ele>189</ele>
        <time>2012-04-01T06:33:41Z</time>
      </trkpt>
      <trkpt lat="44.42594" lon="1.01069">
        <ele>189</ele>
        <time>2012-04-01T06:33:42Z</time>
      </trkpt>
      <trkpt lat="44.42586" lon="1.01071">
        <ele>188</ele>
        <time>2012-04-01T06:33:43Z</time>
      </trkpt>
      <trkpt lat="44.42578" lon="1.01072">
        <ele>188</ele>
        <time>2012-04-01T06:33:44Z</time>
      </trkpt>
      <trkpt lat="44.4257" lon="1.01071">
        <ele>188</ele>
        <time>2012-04-01T06:33:45Z</time>
      </trkpt>
      <trkpt lat="44.42563" lon="1.0107">
        <ele>188</ele>
        <time>2012-04-01T06:33:46Z</time>
      </trkpt>
      <trkpt lat="44.42556" lon="1.01069">
        <ele>188</ele>
        <time>2012-04-01T06:33:47Z</time>
      </trkpt>
      <trkpt lat="44.42548" lon="1.01069">
        <ele>188</ele>
        <time>2012-04-01T06:33:48Z</time>
      </trkpt>
      <trkpt lat="44.42541" lon="1.01069">
        <ele>188</ele>
        <time>2012-04-01T06:33:49Z</time>
      </trkpt>
      <trkpt lat="44.42534" lon="1.01071">
        <ele>188</ele>
        <time>2012-04-01T06:33:50Z</time>
      </trkpt>
      <trkpt lat="44.42526" lon="1.01073">
        <ele>188</ele>
        <time>2012-04-01T06:33:51Z</time>
      </trkpt>
      <trkpt lat="44.42519" lon="1.01076">
        <ele>188</ele>
        <time>2012-04-01T06:33:52Z</time>
      </trkpt>
      <trkpt lat="44.42511" lon="1.0108">
        <ele>188</ele>
        <time>2012-04-01T06:33:53Z</time>
      </trkpt>
      <trkpt lat="44.42504" lon="1.01084">
        <ele>188</ele>
        <time>2012-04-01T06:33:54Z</time>
      </trkpt>
      <trkpt lat="44.42497" lon="1.01089">
        <ele>188</ele>
        <time>2012-04-01T06:33:55Z</time>
      </trkpt>
      <trkpt lat="44.4249" lon="1.01094">
        <ele>188</ele>
        <time>2012-04-01T06:33:56Z</time>
      </trkpt>
      <trkpt lat="44.42484" lon="1.01099">
        <ele>188</ele>
        <time>2012-04-01T06:33:57Z</time>
      </trkpt>
      <trkpt lat="44.42477" lon="1.01105">
        <ele>188</ele>
        <time>2012-04-01T06:33:58Z</time>
      </trkpt>
      <trkpt lat="44.4247" lon="1.01111">
        <ele>188</ele>
        <time>2012-04-01T06:33:59Z</time>
      </trkpt>
      <trkpt lat="44.42464" lon="1.01118">
        <ele>188</ele>
        <time>2012-04-01T06:34:00Z</time>
      </trkpt>
      <trkpt lat="44.42457" lon="1.01124">
        <ele>187</ele>
        <time>2012-04-01T06:34:01Z</time>
      </trkpt>
      <trkpt lat="44.4245" lon="1.01131">
        <ele>187</ele>
        <time>2012-04-01T06:34:02Z</time>
      </trkpt>
      <trkpt lat="44.42445" lon="1.01137">
        <ele>186</ele>
        <time>2012-04-01T06:34:03Z</time>
      </trkpt>
      <trkpt lat="44.42438" lon="1.01144">
        <ele>186</ele>
        <time>2012-04-01T06:34:04Z</time>
      </trkpt>
      <trkpt lat="44.42433" lon="1.01149">
        <ele>185</ele>
        <time>2012-04-01T06:34:05Z</time>
      </trkpt>
      <trkpt lat="44.42428" lon="1.01153">
        <ele>184</ele>
        <time>2012-04-01T06:34:06Z</time>
      </trkpt>
      <trkpt lat="44.42423" lon="1.01157">
        <ele>183</ele>
        <time>2012-04-01T06:34:07Z</time>
      </trkpt>
      <trkpt lat="44.42418" lon="1.01162">
        <ele>182</ele>
        <time>2012-04-01T06:34:08Z</time>
      </trkpt>
      <trkpt lat="44.42413" lon="1.01168">
        <ele>181</ele>
        <time>2012-04-01T06:34:09Z</time>
      </trkpt>
      <trkpt lat="44.42409" lon="1.01174">
        <ele>180</ele>
        <time>2012-04-01T06:34:10Z</time>
      </trkpt>
      <trkpt lat="44.42406" lon="1.01182">
        <ele>179</ele>
        <time>2012-04-01T06:34:11Z</time>
      </trkpt>
      <trkpt lat="44.42403" lon="1.01189">
        <ele>178</ele>
        <time>2012-04-01T06:34:12Z</time>
      </trkpt>
      <trkpt lat="44.42398" lon="1.01197">
        <ele>177</ele>
        <time>2012-04-01T06:34:13Z</time>
      </trkpt>
      <trkpt lat="44.42393" lon="1.01203">
        <ele>177</ele>
        <time>2012-04-01T06:34:14Z</time>
      </trkpt>
      <trkpt lat="44.42387" lon="1.01207">
        <ele>176</ele>
        <time>2012-04-01T06:34:15Z</time>
      </trkpt>
      <trkpt lat="44.4238" lon="1.01213">
        <ele>176</ele>
        <time>2012-04-01T06:34:16Z</time>
      </trkpt>
      <trkpt lat="44.42374" lon="1.0122">
        <ele>176</ele>
        <time>2012-04-01T06:34:17Z</time>
      </trkpt>
      <trkpt lat="44.42367" lon="1.01227">
        <ele>176</ele>
        <time>2012-04-01T06:34:18Z</time>
      </trkpt>
      <trkpt lat="44.42361" lon="1.01234">
        <ele>176</ele>
        <time>2012-04-01T06:34:19Z</time>
      </trkpt>
      <trkpt lat="44.42355" lon="1.0124">
        <ele>176</ele>
        <time>2012-04-01T06:34:20Z</time>
      </trkpt>
      <trkpt lat="44.4235" lon="1.01246">
        <ele>176</ele>
        <time>2012-04-01T06:34:21Z</time>
      </trkpt>
      <trkpt lat="44.42345" lon="1.01251">
        <ele>176</ele>
        <time>2012-04-01T06:34:22Z</time>
      </trkpt>
      <trkpt lat="44.42342" lon="1.01256">
        <ele>176</ele>
        <time>2012-04-01T06:34:23Z</time>
      </trkpt>
      <trkpt lat="44.42339" lon="1.01261">
        <ele>176</ele>
        <time>2012-04-01T06:34:24Z</time>
      </trkpt>
      <trkpt lat="44.42337" lon="1.01267">
        <ele>176</ele>
        <time>2012-04-01T06:34:25Z</time>
      </trkpt>
      <trkpt lat="44.42334" lon="1.01272">
        <ele>176</ele>
        <time>2012-04-01T06:34:26Z</time>
      </trkpt>
      <trkpt lat="44.42331" lon="1.01276">
        <ele>176</ele>
        <time>2012-04-01T06:34:27Z</time>
      </trkpt>
      <trkpt lat="44.42328" lon="1.01277">
        <ele>176</ele>
        <time>2012-04-01T06:34:28Z</time>
      </trkpt>
      <trkpt lat="44.42326" lon="1.01276">
        <ele>176</ele>
        <time>2012-04-01T06:34:29Z</time>
      </trkpt>
      <trkpt lat="44.42324" lon="1.01274">
        <ele>176</ele>
        <time>2012-04-01T06:34:30Z</time>
      </trkpt>
      <trkpt lat="44.42322" lon="1.01272">
        <ele>176</ele>
        <time>2012-04-01T06:34:31Z</time>
      </trkpt>
      <trkpt lat="44.4232" lon="1.0127">
        <ele>177</ele>
        <time>2012-04-01T06:34:32Z</time>
      </trkpt>
      <trkpt lat="44.42318" lon="1.01269">
        <ele>178</ele>
        <time>2012-04-01T06:34:33Z</time>
      </trkpt>
      <trkpt lat="44.42315" lon="1.01267">
        <ele>179</ele>
        <time>2012-04-01T06:34:34Z</time>
      </trkpt>
      <trkpt lat="44.42313" lon="1.01265">
        <ele>180</ele>
        <time>2012-04-01T06:34:35Z</time>
      </trkpt>
      <trkpt lat="44.4231" lon="1.01263">
        <ele>181</ele>
        <time>2012-04-01T06:34:36Z</time>
      </trkpt>
      <trkpt lat="44.42308" lon="1.01261">
        <ele>182</ele>
        <time>2012-04-01T06:34:37Z</time>
      </trkpt>
      <trkpt lat="44.42305" lon="1.01259">
        <ele>183</ele>
        <time>2012-04-01T06:34:38Z</time>
      </trkpt>
      <trkpt lat="44.42302" lon="1.01257">
        <ele>184</ele>
        <time>2012-04-01T06:34:39Z</time>
      </trkpt>
      <trkpt lat="44.42299" lon="1.01254">
        <ele>185</ele>
        <time>2012-04-01T06:34:40Z</time>
      </trkpt>
      <trkpt lat="44.42296" lon="1.01252">
        <ele>186</ele>
        <time>2012-04-01T06:34:41Z</time>
      </trkpt>
      <trkpt lat="44.42293" lon="1.01251">
        <ele>187</ele>
        <time>2012-04-01T06:34:42Z</time>
      </trkpt>
      <trkpt lat="44.4229" lon="1.01249">
        <ele>188</ele>
        <time>2012-04-01T06:34:43Z</time>
      </trkpt>
      <trkpt lat="44.42288" lon="1.01247">
        <ele>189</ele>
        <time>2012-04-01T06:34:44Z</time>
      </trkpt>
      <trkpt lat="44.42285" lon="1.01245">
        <ele>190</ele>
        <time>2012-04-01T06:34:45Z</time>
      </trkpt>
      <trkpt lat="44.42283" lon="1.01244">
        <ele>191</ele>
        <time>2012-04-01T06:34:46Z</time>
      </trkpt>
      <trkpt lat="44.4228" lon="1.01242">
        <ele>192</ele>
        <time>2012-04-01T06:34:47Z</time>
      </trkpt>
      <trkpt lat="44.42278" lon="1.01241">
        <ele>193</ele>
        <time>2012-04-01T06:34:48Z</time>
      </trkpt>
      <trkpt lat="44.42275" lon="1.01239">
        <ele>194</ele>
        <time>2012-04-01T06:34:49Z</time>
      </trkpt>
      <trkpt lat="44.42273" lon="1.01238">
        <ele>195</ele>
        <time>2012-04-01T06:34:50Z</time>
      </trkpt>
      <trkpt lat="44.42271" lon="1.01236">
        <ele>196</ele>
        <time>2012-04-01T06:34:51Z</time>
      </trkpt>
      <trkpt lat="44.42268" lon="1.01234">
        <ele>197</ele>
        <time>2012-04-01T06:34:52Z</time>
      </trkpt>
      <trkpt lat="44.42266" lon="1.01233">
        <ele>198</ele>
        <time>2012-04-01T06:34:53Z</time>
      </trkpt>
      <trkpt lat="44.42264" lon="1.01231">
        <ele>199</ele>
        <time>2012-04-01T06:34:54Z</time>
      </trkpt>
      <trkpt lat="44.42262" lon="1.0123">
        <ele>200</ele>
        <time>2012-04-01T06:34:55Z</time>
      </trkpt>
      <trkpt lat="44.4226" lon="1.01229">
        <ele>201</ele>
        <time>2012-04-01T06:34:56Z</time>
      </trkpt>
      <trkpt lat="44.42257" lon="1.01228">
        <ele>201</ele>
        <time>2012-04-01T06:34:57Z</time>
      </trkpt>
      <trkpt lat="44.42255" lon="1.01227">
        <ele>202</ele>
        <time>2012-04-01T06:34:58Z</time>
      </trkpt>
      <trkpt lat="44.42253" lon="1.01227">
        <ele>202</ele>
        <time>2012-04-01T06:34:59Z</time>
      </trkpt>
      <trkpt lat="44.42251" lon="1.01226">
        <ele>202</ele>
        <time>2012-04-01T06:35:00Z</time>
      </trkpt>
      <trkpt lat="44.42249" lon="1.01225">
        <ele>203</ele>
        <time>2012-04-01T06:35:01Z</time>
      </trkpt>
      <trkpt lat="44.42247" lon="1.01226">
        <ele>203</ele>
        <time>2012-04-01T06:35:02Z</time>
      </trkpt>
      <trkpt lat="44.42245" lon="1.01228">
        <ele>203</ele>
        <time>2012-04-01T06:35:03Z</time>
      </trkpt>
      <trkpt lat="44.42244" lon="1.01231">
        <ele>203</ele>
        <time>2012-04-01T06:35:04Z</time>
      </trkpt>
      <trkpt lat="44.42244" lon="1.01234">
        <ele>203</ele>
        <time>2012-04-01T06:35:05Z</time>
      </trkpt>
      <trkpt lat="44.42244" lon="1.01237">
        <ele>203</ele>
        <time>2012-04-01T06:35:06Z</time>
      </trkpt>
      <trkpt lat="44.42245" lon="1.0124">
        <ele>203</ele>
        <time>2012-04-01T06:35:07Z</time>
      </trkpt>
      <trkpt lat="44.42247" lon="1.01243">
        <ele>203</ele>
        <time>2012-04-01T06:35:08Z</time>
      </trkpt>
      <trkpt lat="44.42248" lon="1.01246">
        <ele>203</ele>
        <time>2012-04-01T06:35:09Z</time>
      </trkpt>
      <trkpt lat="44.42249" lon="1.0125">
        <ele>203</ele>
        <time>2012-04-01T06:35:10Z</time>
      </trkpt>
      <trkpt lat="44.4225" lon="1.01253">
        <ele>203</ele>
        <time>2012-04-01T06:35:11Z</time>
      </trkpt>
      <trkpt lat="44.42251" lon="1.01258">
        <ele>203</ele>
        <time>2012-04-01T06:35:12Z</time>
      </trkpt>
      <trkpt lat="44.42252" lon="1.01262">
        <ele>203</ele>
        <time>2012-04-01T06:35:13Z</time>
      </trkpt>
      <trkpt lat="44.42253" lon="1.01266">
        <ele>203</ele>
        <time>2012-04-01T06:35:14Z</time>
      </trkpt>
      <trkpt lat="44.42255" lon="1.01271">
        <ele>203</ele>
        <time>2012-04-01T06:35:15Z</time>
      </trkpt>
      <trkpt lat="44.42255" lon="1.01276">
        <ele>203</ele>
        <time>2012-04-01T06:35:16Z</time>
      </trkpt>
      <trkpt lat="44.42256" lon="1.01281">
        <ele>203</ele>
        <time>2012-04-01T06:35:17Z</time>
      </trkpt>
      <trkpt lat="44.42258" lon="1.01287">
        <ele>203</ele>
        <time>2012-04-01T06:35:18Z</time>
      </trkpt>
      <trkpt lat="44.42259" lon="1.01293">
        <ele>203</ele>
        <time>2012-04-01T06:35:19Z</time>
      </trkpt>
      <trkpt lat="44.4226" lon="1.013">
        <ele>203</ele>
        <time>2012-04-01T06:35:20Z</time>
      </trkpt>
      <trkpt lat="44.42262" lon="1.01306">
        <ele>203</ele>
        <time>2012-04-01T06:35:21Z</time>
      </trkpt>
      <trkpt lat="44.42264" lon="1.01312">
        <ele>203</ele>
        <time>2012-04-01T06:35:22Z</time>
      </trkpt>
      <trkpt lat="44.42266" lon="1.0132">
        <ele>203</ele>
        <time>2012-04-01T06:35:23Z</time>
      </trkpt>
      <trkpt lat="44.42268" lon="1.01328">
        <ele>203</ele>
        <time>2012-04-01T06:35:24Z</time>
      </trkpt>
      <trkpt lat="44.4227" lon="1.01336">
        <ele>203</ele>
        <time>2012-04-01T06:35:25Z</time>
      </trkpt>
      <trkpt lat="44.42272" lon="1.01344">
        <ele>203</ele>
        <time>2012-04-01T06:35:26Z</time>
      </trkpt>
      <trkpt lat="44.42274" lon="1.01352">
        <ele>203</ele>
        <time>2012-04-01T06:35:27Z</time>
      </trkpt>
      <trkpt lat="44.42276" lon="1.0136">
        <ele>202</ele>
        <time>2012-04-01T06:35:28Z</time>
      </trkpt>
      <trkpt lat="44.42278" lon="1.01368">
        <ele>202</ele>
        <time>2012-04-01T06:35:29Z</time>
      </trkpt>
      <trkpt lat="44.4228" lon="1.01376">
        <ele>202</ele>
        <time>2012-04-01T06:35:30Z</time>
      </trkpt>
      <trkpt lat="44.42282" lon="1.01383">
        <ele>202</ele>
        <time>2012-04-01T06:35:31Z</time>
      </trkpt>
      <trkpt lat="44.42283" lon="1.0139">
        <ele>202</ele>
        <time>2012-04-01T06:35:32Z</time>
      </trkpt>
      <trkpt lat="44.42285" lon="1.01397">
        <ele>201</ele>
        <time>2012-04-01T06:35:33Z</time>
      </trkpt>
      <trkpt lat="44.42286" lon="1.01403">
        <ele>201</ele>
        <time>2012-04-01T06:35:34Z</time>
      </trkpt>
      <trkpt lat="44.42287" lon="1.01409">
        <ele>201</ele>
        <time>2012-04-01T06:35:35Z</time>
      </trkpt>
      <trkpt lat="44.42288" lon="1.01416">
        <ele>200</ele>
        <time>2012-04-01T06:35:36Z</time>
      </trkpt>
      <trkpt lat="44.42289" lon="1.01423">
        <ele>200</ele>
        <time>2012-04-01T06:35:37Z</time>
      </trkpt>
      <trkpt lat="44.42289" lon="1.01429">
        <ele>200</ele>
        <time>2012-04-01T06:35:38Z</time>
      </trkpt>
      <trkpt lat="44.42291" lon="1.01437">
        <ele>199</ele>
        <time>2012-04-01T06:35:39Z</time>
      </trkpt>
      <trkpt lat="44.42292" lon="1.01444">
        <ele>199</ele>
        <time>2012-04-01T06:35:40Z</time>
      </trkpt>
      <trkpt lat="44.42293" lon="1.01452">
        <ele>199</ele>
        <time>2012-04-01T06:35:41Z</time>
      </trkpt>
      <trkpt lat="44.42294" lon="1.0146">
        <ele>199</ele>
        <time>2012-04-01T06:35:42Z</time>
      </trkpt>
      <trkpt lat="44.42295" lon="1.01468">
        <ele>198</ele>
        <time>2012-04-01T06:35:43Z</time>
      </trkpt>
      <trkpt lat="44.42295" lon="1.01477">
        <ele>198</ele>
        <time>2012-04-01T06:35:44Z</time>
      </trkpt>
      <trkpt lat="44.42296" lon="1.01485">
        <ele>198</ele>
        <time>2012-04-01T06:35:45Z</time>
      </trkpt>
      <trkpt lat="44.42297" lon="1.01493">
        <ele>198</ele>
        <time>2012-04-01T06:35:46Z</time>
      </trkpt>
      <trkpt lat="44.42297" lon="1.01501">
        <ele>197</ele>
        <time>2012-04-01T06:35:47Z</time>
      </trkpt>
      <trkpt lat="44.42299" lon="1.01509">
        <ele>197</ele>
        <time>2012-04-01T06:35:48Z</time>
      </trkpt>
      <trkpt lat="44.42302" lon="1.01516">
        <ele>197</ele>
        <time>2012-04-01T06:35:49Z</time>
      </trkpt>
      <trkpt lat="44.42306" lon="1.01522">
        <ele>196</ele>
        <time>2012-04-01T06:35:50Z</time>
      </trkpt>
      <trkpt lat="44.4231" lon="1.01528">
        <ele>195</ele>
        <time>2012-04-01T06:35:51Z</time>
      </trkpt>
      <trkpt lat="44.42314" lon="1.01534">
        <ele>194</ele>
        <time>2012-04-01T06:35:52Z</time>
      </trkpt>
      <trkpt lat="44.42318" lon="1.01541">
        <ele>193</ele>
        <time>2012-04-01T06:35:53Z</time>
      </trkpt>
      <trkpt lat="44.42322" lon="1.01547">
        <ele>192</ele>
        <time>2012-04-01T06:35:54Z</time>
      </trkpt>
      <trkpt lat="44.42326" lon="1.01554">
        <ele>191</ele>
        <time>2012-04-01T06:35:55Z</time>
      </trkpt>
      <trkpt lat="44.4233" lon="1.0156">
        <ele>191</ele>
        <time>2012-04-01T06:35:56Z</time>
      </trkpt>
      <trkpt lat="44.42334" lon="1.01567">
        <ele>190</ele>
        <time>2012-04-01T06:35:57Z</time>
      </trkpt>
      <trkpt lat="44.42338" lon="1.01573">
        <ele>189</ele>
        <time>2012-04-01T06:35:58Z</time>
      </trkpt>
      <trkpt lat="44.42342" lon="1.01579">
        <ele>189</ele>
        <time>2012-04-01T06:35:59Z</time>
      </trkpt>
      <trkpt lat="44.42346" lon="1.01585">
        <ele>189</ele>
        <time>2012-04-01T06:36:00Z</time>
      </trkpt>
      <trkpt lat="44.4235" lon="1.01592">
        <ele>189</ele>
        <time>2012-04-01T06:36:01Z</time>
      </trkpt>
      <trkpt lat="44.42354" lon="1.01598">
        <ele>188</ele>
        <time>2012-04-01T06:36:02Z</time>
      </trkpt>
      <trkpt lat="44.42358" lon="1.01604">
        <ele>188</ele>
        <time>2012-04-01T06:36:03Z</time>
      </trkpt>
      <trkpt lat="44.42361" lon="1.0161">
        <ele>188</ele>
        <time>2012-04-01T06:36:04Z</time>
      </trkpt>
      <trkpt lat="44.42365" lon="1.01616">
        <ele>188</ele>
        <time>2012-04-01T06:36:05Z</time>
      </trkpt>
      <trkpt lat="44.42369" lon="1.01622">
        <ele>187</ele>
        <time>2012-04-01T06:36:06Z</time>
      </trkpt>
      <trkpt lat="44.42374" lon="1.01628">
        <ele>187</ele>
        <time>2012-04-01T06:36:07Z</time>
      </trkpt>
      <trkpt lat="44.42378" lon="1.01635">
        <ele>187</ele>
        <time>2012-04-01T06:36:08Z</time>
      </trkpt>
      <trkpt lat="44.42382" lon="1.01641">
        <ele>187</ele>
        <time>2012-04-01T06:36:09Z</time>
      </trkpt>
      <trkpt lat="44.42387" lon="1.01647">
        <ele>187</ele>
        <time>2012-04-01T06:36:10Z</time>
      </trkpt>
      <trkpt lat="44.42391" lon="1.01654">
        <ele>186</ele>
        <time>2012-04-01T06:36:11Z</time>
      </trkpt>
      <trkpt lat="44.42396" lon="1.0166">
        <ele>186</ele>
        <time>2012-04-01T06:36:12Z</time>
      </trkpt>
      <trkpt lat="44.424" lon="1.01666">
        <ele>186</ele>
        <time>2012-04-01T06:36:13Z</time>
      </trkpt>
      <trkpt lat="44.42405" lon="1.01672">
        <ele>186</ele>
        <time>2012-04-01T06:36:14Z</time>
      </trkpt>
      <trkpt lat="44.42409" lon="1.01678">
        <ele>186</ele>
        <time>2012-04-01T06:36:15Z</time>
      </trkpt>
      <trkpt lat="44.42413" lon="1.01684">
        <ele>186</ele>
        <time>2012-04-01T06:36:16Z</time>
      </trkpt>
      <trkpt lat="44.42418" lon="1.0169">
        <ele>186</ele>
        <time>2012-04-01T06:36:17Z</time>
      </trkpt>
      <trkpt lat="44.42422" lon="1.01696">
        <ele>186</ele>
        <time>2012-04-01T06:36:18Z</time>
      </trkpt>
      <trkpt lat="44.42426" lon="1.01701">
        <ele>186</ele>
        <time>2012-04-01T06:36:19Z</time>
      </trkpt>
      <trkpt lat="44.42431" lon="1.01707">
        <ele>186</ele>
        <time>2012-04-01T06:36:20Z</time>
      </trkpt>
      <trkpt lat="44.42435" lon="1.01713">
        <ele>186</ele>
        <time>2012-04-01T06:36:21Z</time>
      </trkpt>
      <trkpt lat="44.4244" lon="1.01718">
        <ele>186</ele>
        <time>2012-04-01T06:36:22Z</time>
      </trkpt>
      <trkpt lat="44.42445" lon="1.01724">
        <ele>186</ele>
        <time>2012-04-01T06:36:23Z</time>
      </trkpt>
      <trkpt lat="44.4245" lon="1.0173">
        <ele>186</ele>
        <time>2012-04-01T06:36:24Z</time>
      </trkpt>
      <trkpt lat="44.42454" lon="1.01736">
        <ele>185</ele>
        <time>2012-04-01T06:36:25Z</time>
      </trkpt>
      <trkpt lat="44.42458" lon="1.01742">
        <ele>185</ele>
        <time>2012-04-01T06:36:26Z</time>
      </trkpt>
      <trkpt lat="44.42463" lon="1.01749">
        <ele>185</ele>
        <time>2012-04-01T06:36:27Z</time>
      </trkpt>
      <trkpt lat="44.42468" lon="1.01755">
        <ele>185</ele>
        <time>2012-04-01T06:36:28Z</time>
      </trkpt>
      <trkpt lat="44.42474" lon="1.01761">
        <ele>185</ele>
        <time>2012-04-01T06:36:29Z</time>
      </trkpt>
      <trkpt lat="44.42479" lon="1.01767">
        <ele>185</ele>
        <time>2012-04-01T06:36:30Z</time>
      </trkpt>
      <trkpt lat="44.42485" lon="1.01772">
        <ele>185</ele>
        <time>2012-04-01T06:36:31Z</time>
      </trkpt>
      <trkpt lat="44.42492" lon="1.01776">
        <ele>185</ele>
        <time>2012-04-01T06:36:32Z</time>
      </trkpt>
      <trkpt lat="44.42498" lon="1.0178">
        <ele>185</ele>
        <time>2012-04-01T06:36:33Z</time>
      </trkpt>
      <trkpt lat="44.42504" lon="1.01784">
        <ele>185</ele>
        <time>2012-04-01T06:36:34Z</time>
      </trkpt>
      <trkpt lat="44.42511" lon="1.01788">
        <ele>185</ele>
        <time>2012-04-01T06:36:35Z</time>
      </trkpt>
      <trkpt lat="44.42517" lon="1.01792">
        <ele>185</ele>
        <time>2012-04-01T06:36:36Z</time>
      </trkpt>
      <trkpt lat="44.42523" lon="1.01795">
        <ele>185</ele>
        <time>2012-04-01T06:36:37Z</time>
      </trkpt>
      <trkpt lat="44.4253" lon="1.01799">
        <ele>185</ele>
        <time>2012-04-01T06:36:38Z</time>
      </trkpt>
      <trkpt lat="44.42536" lon="1.01803">
        <ele>185</ele>
        <time>2012-04-01T06:36:39Z</time>
      </trkpt>
      <trkpt lat="44.42542" lon="1.01807">
        <ele>185</ele>
        <time>2012-04-01T06:36:40Z</time>
      </trkpt>
      <trkpt lat="44.42548" lon="1.0181">
        <ele>185</ele>
        <time>2012-04-01T06:36:41Z</time>
      </trkpt>
      <trkpt lat="44.42554" lon="1.01814">
        <ele>185</ele>
        <time>2012-04-01T06:36:42Z</time>
      </trkpt>
      <trkpt lat="44.42561" lon="1.01818">
        <ele>185</ele>
        <time>2012-04-01T06:36:43Z</time>
      </trkpt>
      <trkpt lat="44.42567" lon="1.01821">
        <ele>185</ele>
        <time>2012-04-01T06:36:44Z</time>
      </trkpt>
      <trkpt lat="44.42573" lon="1.01825">
        <ele>185</ele>
        <time>2012-04-01T06:36:45Z</time>
      </trkpt>
      <trkpt lat="44.42579" lon="1.01828">
        <ele>185</ele>
        <time>2012-04-01T06:36:46Z</time>
      </trkpt>
      <trkpt lat="44.42585" lon="1.01832">
        <ele>185</ele>
        <time>2012-04-01T06:36:47Z</time>
      </trkpt>
      <trkpt lat="44.42591" lon="1.01836">
        <ele>185</ele>
        <time>2012-04-01T06:36:48Z</time>
      </trkpt>
      <trkpt lat="44.42596" lon="1.0184">
        <ele>185</ele>
        <time>2012-04-01T06:36:49Z</time>
      </trkpt>
      <trkpt lat="44.42602" lon="1.01844">
        <ele>185</ele>
        <time>2012-04-01T06:36:50Z</time>
      </trkpt>
      <trkpt lat="44.42607" lon="1.01847">
        <ele>185</ele>
        <time>2012-04-01T06:36:51Z</time>
      </trkpt>
      <trkpt lat="44.42611" lon="1.0185">
        <ele>185</ele>
        <time>2012-04-01T06:36:52Z</time>
      </trkpt>
      <trkpt lat="44.42613" lon="1.01854">
        <ele>185</ele>
        <time>2012-04-01T06:36:53Z</time>
      </trkpt>
      <trkpt lat="44.42614" lon="1.01858">
        <ele>185</ele>
        <time>2012-04-01T06:36:54Z</time>
      </trkpt>
      <trkpt lat="44.42613" lon="1.01862">
        <ele>185</ele>
        <time>2012-04-01T06:36:55Z</time>
      </trkpt>
      <trkpt lat="44.42612" lon="1.01866">
        <ele>185</ele>
        <time>2012-04-01T06:36:56Z</time>
      </trkpt>
      <trkpt lat="44.42611" lon="1.01869">
        <ele>185</ele>
        <time>2012-04-01T06:36:57Z</time>
      </trkpt>
      <trkpt lat="44.42609" lon="1.01874">
        <ele>185</ele>
        <time>2012-04-01T06:36:58Z</time>
      </trkpt>
      <trkpt lat="44.42607" lon="1.01878">
        <ele>185</ele>
        <time>2012-04-01T06:36:59Z</time>
      </trkpt>
      <trkpt lat="44.42604" lon="1.01882">
        <ele>185</ele>
        <time>2012-04-01T06:37:00Z</time>
      </trkpt>
      <trkpt lat="44.42602" lon="1.01886">
        <ele>185</ele>
        <time>2012-04-01T06:37:01Z</time>
      </trkpt>
      <trkpt lat="44.42599" lon="1.0189">
        <ele>185</ele>
        <time>2012-04-01T06:37:02Z</time>
      </trkpt>
      <trkpt lat="44.42597" lon="1.01895">
        <ele>185</ele>
        <time>2012-04-01T06:37:03Z</time>
      </trkpt>
      <trkpt lat="44.42594" lon="1.019">
        <ele>185</ele>
        <time>2012-04-01T06:37:04Z</time>
      </trkpt>
      <trkpt lat="44.4259" lon="1.01907">
        <ele>185</ele>
        <time>2012-04-01T06:37:05Z</time>
      </trkpt>
      <trkpt lat="44.42587" lon="1.01912">
        <ele>185</ele>
        <time>2012-04-01T06:37:06Z</time>
      </trkpt>
      <trkpt lat="44.42583" lon="1.01918">
        <ele>185</ele>
        <time>2012-04-01T06:37:07Z</time>
      </trkpt>
      <trkpt lat="44.4258" lon="1.01924">
        <ele>185</ele>
        <time>2012-04-01T06:37:08Z</time>
      </trkpt>
      <trkpt lat="44.42577" lon="1.01929">
        <ele>185</ele>
        <time>2012-04-01T06:37:09Z</time>
      </trkpt>
      <trkpt lat="44.42574" lon="1.01933">
        <ele>185</ele>
        <time>2012-04-01T06:37:10Z</time>
      </trkpt>
      <trkpt lat="44.42571" lon="1.01938">
        <ele>185</ele>
        <time>2012-04-01T06:37:11Z</time>
      </trkpt>
      <trkpt lat="44.42569" lon="1.01942">
        <ele>185</ele>
        <time>2012-04-01T06:37:12Z</time>
      </trkpt>
      <trkpt lat="44.42566" lon="1.01946">
        <ele>185</ele>
        <time>2012-04-01T06:37:13Z</time>
      </trkpt>
      <trkpt lat="44.42563" lon="1.01951">
        <ele>185</ele>
        <time>2012-04-01T06:37:14Z</time>
      </trkpt>
      <trkpt lat="44.4256" lon="1.01955">
        <ele>185</ele>
        <time>2012-04-01T06:37:15Z</time>
      </trkpt>
      <trkpt lat="44.42558" lon="1.0196">
        <ele>185</ele>
        <time>2012-04-01T06:37:16Z</time>
      </trkpt>
      <trkpt lat="44.42556" lon="1.01966">
        <ele>185</ele>
        <time>2012-04-01T06:37:17Z</time>
      </trkpt>
      <trkpt lat="44.42556" lon="1.01971">
        <ele>185</ele>
        <time>2012-04-01T06:37:18Z</time>
      </trkpt>
      <trkpt lat="44.42556" lon="1.01977">
        <ele>185</ele>
        <time>2012-04-01T06:37:19Z</time>
      </trkpt>
      <trkpt lat="44.42556" lon="1.01982">
        <ele>185</ele>
        <time>2012-04-01T06:37:20Z</time>
      </trkpt>
      <trkpt lat="44.42556" lon="1.01987">
        <ele>185</ele>
        <time>2012-04-01T06:37:21Z</time>
      </trkpt>
      <trkpt lat="44.42558" lon="1.01992">
        <ele>185</ele>
        <time>2012-04-01T06:37:22Z</time>
      </trkpt>
      <trkpt lat="44.42559" lon="1.01997">
        <ele>185</ele>
        <time>2012-04-01T06:37:23Z</time>
      </trkpt>
      <trkpt lat="44.42562" lon="1.02002">
        <ele>185</ele>
        <time>2012-04-01T06:37:24Z</time>
      </trkpt>
      <trkpt lat="44.42564" lon="1.02006">
        <ele>185</ele>
        <time>2012-04-01T06:37:25Z</time>
      </trkpt>
      <trkpt lat="44.42566" lon="1.02011">
        <ele>186</ele>
        <time>2012-04-01T06:37:26Z</time>
      </trkpt>
      <trkpt lat="44.42567" lon="1.02016">
        <ele>186</ele>
        <time>2012-04-01T06:37:27Z</time>
      </trkpt>
      <trkpt lat="44.42569" lon="1.0202">
        <ele>187</ele>
        <time>2012-04-01T06:37:28Z</time>
      </trkpt>
      <trkpt lat="44.4257" lon="1.02024">
        <ele>187</ele>
        <time>2012-04-01T06:37:29Z</time>
      </trkpt>
      <trkpt lat="44.4257" lon="1.02029">
        <ele>187</ele>
        <time>2012-04-01T06:37:30Z</time>
      </trkpt>
      <trkpt lat="44.4257" lon="1.02033">
        <ele>188</ele>
        <time>2012-04-01T06:37:31Z</time>
      </trkpt>
      <trkpt lat="44.4257" lon="1.02038">
        <ele>188</ele>
        <time>2012-04-01T06:37:32Z</time>
      </trkpt>
      <trkpt lat="44.4257" lon="1.02042">
        <ele>188</ele>
        <time>2012-04-01T06:37:33Z</time>
      </trkpt>
      <trkpt lat="44.42569" lon="1.02045">
        <ele>188</ele>
        <time>2012-04-01T06:37:34Z</time>
      </trkpt>
      <trkpt lat="44.42569" lon="1.02049">
        <ele>188</ele>
        <time>2012-04-01T06:37:35Z</time>
      </trkpt>
      <trkpt lat="44.42568" lon="1.02052">
        <ele>188</ele>
        <time>2012-04-01T06:37:36Z</time>
      </trkpt>
      <trkpt lat="44.42567" lon="1.02056">
        <ele>188</ele>
        <time>2012-04-01T06:37:37Z</time>
      </trkpt>
      <trkpt lat="44.42566" lon="1.0206">
        <ele>188</ele>
        <time>2012-04-01T06:37:38Z</time>
      </trkpt>
      <trkpt lat="44.42565" lon="1.02063">
        <ele>188</ele>
        <time>2012-04-01T06:37:39Z</time>
      </trkpt>
      <trkpt lat="44.42564" lon="1.02066">
        <ele>189</ele>
        <time>2012-04-01T06:37:40Z</time>
      </trkpt>
      <trkpt lat="44.42562" lon="1.02068">
        <ele>190</ele>
        <time>2012-04-01T06:37:41Z</time>
      </trkpt>
      <trkpt lat="44.42561" lon="1.0207">
        <ele>190</ele>
        <time>2012-04-01T06:37:42Z</time>
      </trkpt>
      <trkpt lat="44.4256" lon="1.02071">
        <ele>191</ele>
        <time>2012-04-01T06:37:43Z</time>
      </trkpt>
      <trkpt lat="44.42558" lon="1.02073">
        <ele>193</ele>
        <time>2012-04-01T06:37:45Z</time>
      </trkpt>
      <trkpt lat="44.42556" lon="1.02073">
        <ele>195</ele>
        <time>2012-04-01T06:37:49Z</time>
      </trkpt>
      <trkpt lat="44.42555" lon="1.02074">
        <ele>195</ele>
        <time>2012-04-01T06:37:51Z</time>
      </trkpt>
      <trkpt lat="44.42555" lon="1.02072">
        <ele>196</ele>
        <time>2012-04-01T06:37:54Z</time>
      </trkpt>
      <trkpt lat="44.42555" lon="1.0207">
        <ele>196</ele>
        <time>2012-04-01T06:37:57Z</time>
      </trkpt>
      <trkpt lat="44.42554" lon="1.02069">
        <ele>198</ele>
        <time>2012-04-01T06:38:02Z</time>
      </trkpt>
      <trkpt lat="44.42553" lon="1.02068">
        <ele>202</ele>
        <time>2012-04-01T06:38:09Z</time>
      </trkpt>
      <trkpt lat="44.42552" lon="1.02067">
        <ele>204</ele>
        <time>2012-04-01T06:38:14Z</time>
      </trkpt>
      <trkpt lat="44.42551" lon="1.02067">
        <ele>211</ele>
        <time>2012-04-01T06:38:42Z</time>
      </trkpt>
      <trkpt lat="44.4255" lon="1.02067">
        <ele>218</ele>
        <time>2012-04-01T06:39:46Z</time>
      </trkpt>
      <trkpt lat="44.42548" lon="1.02068">
        <ele>221</ele>
        <time>2012-04-01T06:40:52Z</time>
      </trkpt>
      <trkpt lat="44.42547" lon="1.02068">
        <ele>221</ele>
        <time>2012-04-01T06:41:02Z</time>
      </trkpt>
      <trkpt lat="44.42546" lon="1.02067">
        <ele>221</ele>
        <time>2012-04-01T06:41:11Z</time>
      </trkpt>
      <trkpt lat="44.42545" lon="1.02067">
        <ele>220</ele>
        <time>2012-04-01T06:41:53Z</time>
      </trkpt>
      <trkpt lat="44.42544" lon="1.02067">
        <ele>220</ele>
        <time>2012-04-01T06:42:17Z</time>
      </trkpt>
      <trkpt lat="44.42545" lon="1.02067">
        <ele>219</ele>
        <time>2012-04-01T06:42:49Z</time>
      </trkpt>
      <trkpt lat="44.42546" lon="1.02068">
        <ele>220</ele>
        <time>2012-04-01T06:43:06Z</time>
      </trkpt>
      <trkpt lat="44.42547" lon="1.02069">
        <ele>223</ele>
        <time>2012-04-01T06:43:22Z</time>
      </trkpt>
      <trkpt lat="44.42548" lon="1.0207">
        <ele>223</ele>
        <time>2012-04-01T06:43:34Z</time>
      </trkpt>
      <trkpt lat="44.42547" lon="1.02069">
        <ele>235</ele>
        <time>2012-04-01T06:44:21Z</time>
      </trkpt>
      <trkpt lat="44.42546" lon="1.02068">
        <ele>235</ele>
        <time>2012-04-01T06:44:25Z</time>
      </trkpt>
      <trkpt lat="44.42545" lon="1.02067">
        <ele>230</ele>
        <time>2012-04-01T06:44:50Z</time>
      </trkpt>
      <trkpt lat="44.42543" lon="1.02067">
        <ele>228</ele>
        <time>2012-04-01T06:45:22Z</time>
      </trkpt>
      <trkpt lat="44.42545" lon="1.02068">
        <ele>235</ele>
        <time>2012-04-01T06:45:58Z</time>
      </trkpt>
      <trkpt lat="44.42546" lon="1.02069">
        <ele>235</ele>
        <time>2012-04-01T06:46:02Z</time>
      </trkpt>
      <trkpt lat="44.42548" lon="1.0207">
        <ele>233</ele>
        <time>2012-04-01T06:46:06Z</time>
      </trkpt>
      <trkpt lat="44.42548" lon="1.02072">
        <ele>232</ele>
        <time>2012-04-01T06:46:08Z</time>
      </trkpt>
      <trkpt lat="44.42548" lon="1.02073">
        <ele>231</ele>
        <time>2012-04-01T06:46:11Z</time>
      </trkpt>
      <trkpt lat="44.42549" lon="1.02075">
        <ele>229</ele>
        <time>2012-04-01T06:46:15Z</time>
      </trkpt>
      <trkpt lat="44.4255" lon="1.02077">
        <ele>228</ele>
        <time>2012-04-01T06:46:20Z</time>
      </trkpt>
      <trkpt lat="44.4255" lon="1.02078">
        <ele>226</ele>
        <time>2012-04-01T06:46:24Z</time>
      </trkpt>
      <trkpt lat="44.42551" lon="1.0208">
        <ele>223</ele>
        <time>2012-04-01T06:46:28Z</time>
      </trkpt>
      <trkpt lat="44.42553" lon="1.0208">
        <ele>214</ele>
        <time>2012-04-01T06:46:50Z</time>
      </trkpt>
      <trkpt lat="44.42553" lon="1.02078">
        <ele>200</ele>
        <time>2012-04-01T06:47:29Z</time>
      </trkpt>
      <trkpt lat="44.42554" lon="1.02076">
        <ele>200</ele>
        <time>2012-04-01T06:47:31Z</time>
      </trkpt>
      <trkpt lat="44.42554" lon="1.02075">
        <ele>200</ele>
        <time>2012-04-01T06:47:42Z</time>
      </trkpt>
      <trkpt lat="44.42554" lon="1.02073">
        <ele>199</ele>
        <time>2012-04-01T06:47:50Z</time>
      </trkpt>
      <trkpt lat="44.42553" lon="1.02075">
        <ele>199</ele>
        <time>2012-04-01T06:47:54Z</time>
      </trkpt>
      <trkpt lat="44.42554" lon="1.02074">
        <ele>199</ele>
        <time>2012-04-01T06:48:02Z</time>
      </trkpt>
      <trkpt lat="44.42556" lon="1.02075">
        <ele>199</ele>
        <time>2012-04-01T06:48:08Z</time>
      </trkpt>
      <trkpt lat="44.42556" lon="1.02076">
        <ele>199</ele>
        <time>2012-04-01T06:48:16Z</time>
      </trkpt>
      <trkpt lat="44.42555" lon="1.02078">
        <ele>199</ele>
        <time>2012-04-01T06:48:21Z</time>
      </trkpt>
      <trkpt lat="44.42554" lon="1.02079">
        <ele>199</ele>
        <time>2012-04-01T06:48:23Z</time>
      </trkpt>
      <trkpt lat="44.42554" lon="1.02081">
        <ele>199</ele>
        <time>2012-04-01T06:48:25Z</time>
      </trkpt>
      <trkpt lat="44.42555" lon="1.0208">
        <ele>196</ele>
        <time>2012-04-01T06:48:44Z</time>
      </trkpt>
      <trkpt lat="44.42556" lon="1.0208">
        <ele>192</ele>
        <time>2012-04-01T06:49:18Z</time>
      </trkpt>
      <trkpt lat="44.42555" lon="1.02078">
        <ele>193</ele>
        <time>2012-04-01T06:49:23Z</time>
      </trkpt>
      <trkpt lat="44.42554" lon="1.02077">
        <ele>195</ele>
        <time>2012-04-01T06:49:25Z</time>
      </trkpt>
      <trkpt lat="44.42554" lon="1.02079">
        <ele>198</ele>
        <time>2012-04-01T06:49:28Z</time>
      </trkpt>
      <trkpt lat="44.42554" lon="1.02081">
        <ele>198</ele>
        <time>2012-04-01T06:49:32Z</time>
      </trkpt>
      <trkpt lat="44.42553" lon="1.02082">
        <ele>197</ele>
        <time>2012-04-01T06:49:38Z</time>
      </trkpt>
      <trkpt lat="44.42554" lon="1.0208">
        <ele>194</ele>
        <time>2012-04-01T06:49:46Z</time>
      </trkpt>
      <trkpt lat="44.42554" lon="1.02078">
        <ele>193</ele>
        <time>2012-04-01T06:49:51Z</time>
      </trkpt>
      <trkpt lat="44.42555" lon="1.02077">
        <ele>193</ele>
        <time>2012-04-01T06:50:01Z</time>
      </trkpt>
      <trkpt lat="44.42557" lon="1.02077">
        <ele>193</ele>
        <time>2012-04-01T06:50:06Z</time>
      </trkpt>
      <trkpt lat="44.42555" lon="1.02076">
        <ele>194</ele>
        <time>2012-04-01T06:50:16Z</time>
      </trkpt>
      <trkpt lat="44.42553" lon="1.02078">
        <ele>194</ele>
        <time>2012-04-01T06:50:17Z</time>
      </trkpt>
      <trkpt lat="44.42552" lon="1.02079">
        <ele>195</ele>
        <time>2012-04-01T06:50:18Z</time>
      </trkpt>
      <trkpt lat="44.4255" lon="1.0208">
        <ele>195</ele>
        <time>2012-04-01T06:50:19Z</time>
      </trkpt>
      <trkpt lat="44.42547" lon="1.02081">
        <ele>195</ele>
        <time>2012-04-01T06:50:20Z</time>
      </trkpt>
      <trkpt lat="44.42544" lon="1.02081">
        <ele>195</ele>
        <time>2012-04-01T06:50:21Z</time>
      </trkpt>
      <trkpt lat="44.4254" lon="1.0208">
        <ele>195</ele>
        <time>2012-04-01T06:50:22Z</time>
      </trkpt>
      <trkpt lat="44.42537" lon="1.02078">
        <ele>195</ele>
        <time>2012-04-01T06:50:23Z</time>
      </trkpt>
      <trkpt lat="44.42533" lon="1.02074">
        <ele>195</ele>
        <time>2012-04-01T06:50:24Z</time>
      </trkpt>
      <trkpt lat="44.42529" lon="1.02069">
        <ele>195</ele>
        <time>2012-04-01T06:50:25Z</time>
      </trkpt>
      <trkpt lat="44.42525" lon="1.02064">
        <ele>196</ele>
        <time>2012-04-01T06:50:26Z</time>
      </trkpt>
      <trkpt lat="44.42521" lon="1.02058">
        <ele>196</ele>
        <time>2012-04-01T06:50:27Z</time>
      </trkpt>
      <trkpt lat="44.42516" lon="1.02051">
        <ele>196</ele>
        <time>2012-04-01T06:50:28Z</time>
      </trkpt>
      <trkpt lat="44.42511" lon="1.02045">
        <ele>196</ele>
        <time>2012-04-01T06:50:29Z</time>
      </trkpt>
      <trkpt lat="44.42507" lon="1.02039">
        <ele>196</ele>
        <time>2012-04-01T06:50:30Z</time>
      </trkpt>
      <trkpt lat="44.42503" lon="1.02034">
        <ele>196</ele>
        <time>2012-04-01T06:50:31Z</time>
      </trkpt>
      <trkpt lat="44.425" lon="1.0203">
        <ele>196</ele>
        <time>2012-04-01T06:50:32Z</time>
      </trkpt>
      <trkpt lat="44.42497" lon="1.02028">
        <ele>196</ele>
        <time>2012-04-01T06:50:33Z</time>
      </trkpt>
      <trkpt lat="44.42493" lon="1.02027">
        <ele>196</ele>
        <time>2012-04-01T06:50:34Z</time>
      </trkpt>
      <trkpt lat="44.4249" lon="1.02028">
        <ele>196</ele>
        <time>2012-04-01T06:50:35Z</time>
      </trkpt>
      <trkpt lat="44.42486" lon="1.02031">
        <ele>196</ele>
        <time>2012-04-01T06:50:36Z</time>
      </trkpt>
      <trkpt lat="44.42483" lon="1.02033">
        <ele>196</ele>
        <time>2012-04-01T06:50:37Z</time>
      </trkpt>
      <trkpt lat="44.42479" lon="1.02036">
        <ele>196</ele>
        <time>2012-04-01T06:50:38Z</time>
      </trkpt>
      <trkpt lat="44.42475" lon="1.02039">
        <ele>196</ele>
        <time>2012-04-01T06:50:39Z</time>
      </trkpt>
      <trkpt lat="44.42471" lon="1.02041">
        <ele>196</ele>
        <time>2012-04-01T06:50:40Z</time>
      </trkpt>
      <trkpt lat="44.42467" lon="1.02043">
        <ele>196</ele>
        <time>2012-04-01T06:50:41Z</time>
      </trkpt>
      <trkpt lat="44.42463" lon="1.02045">
        <ele>196</ele>
        <time>2012-04-01T06:50:42Z</time>
      </trkpt>
      <trkpt lat="44.42459" lon="1.02047">
        <ele>196</ele>
        <time>2012-04-01T06:50:43Z</time>
      </trkpt>
      <trkpt lat="44.42455" lon="1.02048">
        <ele>196</ele>
        <time>2012-04-01T06:50:44Z</time>
      </trkpt>
      <trkpt lat="44.4245" lon="1.02049">
        <ele>196</ele>
        <time>2012-04-01T06:50:45Z</time>
      </trkpt>
      <trkpt lat="44.42444" lon="1.0205">
        <ele>196</ele>
        <time>2012-04-01T06:50:46Z</time>
      </trkpt>
      <trkpt lat="44.4244" lon="1.0205">
        <ele>196</ele>
        <time>2012-04-01T06:50:47Z</time>
      </trkpt>
      <trkpt lat="44.42435" lon="1.0205">
        <ele>196</ele>
        <time>2012-04-01T06:50:48Z</time>
      </trkpt>
      <trkpt lat="44.4243" lon="1.0205">
        <ele>196</ele>
        <time>2012-04-01T06:50:49Z</time>
      </trkpt>
      <trkpt lat="44.42426" lon="1.0205">
        <ele>196</ele>
        <time>2012-04-01T06:50:50Z</time>
      </trkpt>
      <trkpt lat="44.42421" lon="1.0205">
        <ele>196</ele>
        <time>2012-04-01T06:50:51Z</time>
      </trkpt>
      <trkpt lat="44.42417" lon="1.02051">
        <ele>196</ele>
        <time>2012-04-01T06:50:52Z</time>
      </trkpt>
      <trkpt lat="44.42412" lon="1.02052">
        <ele>196</ele>
        <time>2012-04-01T06:50:53Z</time>
      </trkpt>
      <trkpt lat="44.42408" lon="1.02053">
        <ele>196</ele>
        <time>2012-04-01T06:50:54Z</time>
      </trkpt>
      <trkpt lat="44.42403" lon="1.02055">
        <ele>196</ele>
        <time>2012-04-01T06:50:55Z</time>
      </trkpt>
      <trkpt lat="44.42399" lon="1.02057">
        <ele>196</ele>
        <time>2012-04-01T06:50:56Z</time>
      </trkpt>
      <trkpt lat="44.42395" lon="1.0206">
        <ele>196</ele>
        <time>2012-04-01T06:50:57Z</time>
      </trkpt>
      <trkpt lat="44.42391" lon="1.02063">
        <ele>195</ele>
        <time>2012-04-01T06:50:58Z</time>
      </trkpt>
      <trkpt lat="44.42387" lon="1.02066">
        <ele>195</ele>
        <time>2012-04-01T06:50:59Z</time>
      </trkpt>
      <trkpt lat="44.42383" lon="1.02069">
        <ele>195</ele>
        <time>2012-04-01T06:51:00Z</time>
      </trkpt>
      <trkpt lat="44.42379" lon="1.02072">
        <ele>195</ele>
        <time>2012-04-01T06:51:01Z</time>
      </trkpt>
      <trkpt lat="44.42375" lon="1.02076">
        <ele>195</ele>
        <time>2012-04-01T06:51:02Z</time>
      </trkpt>
      <trkpt lat="44.42371" lon="1.02079">
        <ele>195</ele>
        <time>2012-04-01T06:51:03Z</time>
      </trkpt>
      <trkpt lat="44.42368" lon="1.02083">
        <ele>194</ele>
        <time>2012-04-01T06:51:04Z</time>
      </trkpt>
      <trkpt lat="44.42364" lon="1.02087">
        <ele>194</ele>
        <time>2012-04-01T06:51:05Z</time>
      </trkpt>
      <trkpt lat="44.4236" lon="1.02091">
        <ele>194</ele>
        <time>2012-04-01T06:51:06Z</time>
      </trkpt>
      <trkpt lat="44.42357" lon="1.02094">
        <ele>194</ele>
        <time>2012-04-01T06:51:07Z</time>
      </trkpt>
      <trkpt lat="44.42353" lon="1.02098">
        <ele>194</ele>
        <time>2012-04-01T06:51:08Z</time>
      </trkpt>
      <trkpt lat="44.4235" lon="1.02102">
        <ele>193</ele>
        <time>2012-04-01T06:51:09Z</time>
      </trkpt>
      <trkpt lat="44.42346" lon="1.02107">
        <ele>193</ele>
        <time>2012-04-01T06:51:10Z</time>
      </trkpt>
      <trkpt lat="44.42342" lon="1.02111">
        <ele>193</ele>
        <time>2012-04-01T06:51:11Z</time>
      </trkpt>
      <trkpt lat="44.42339" lon="1.02116">
        <ele>193</ele>
        <time>2012-04-01T06:51:12Z</time>
      </trkpt>
      <trkpt lat="44.42336" lon="1.0212">
        <ele>193</ele>
        <time>2012-04-01T06:51:13Z</time>
      </trkpt>
      <trkpt lat="44.42332" lon="1.02125">
        <ele>192</ele>
        <time>2012-04-01T06:51:14Z</time>
      </trkpt>
      <trkpt lat="44.42329" lon="1.0213">
        <ele>192</ele>
        <time>2012-04-01T06:51:15Z</time>
      </trkpt>
      <trkpt lat="44.42325" lon="1.02135">
        <ele>192</ele>
        <time>2012-04-01T06:51:16Z</time>
      </trkpt>
      <trkpt lat="44.42322" lon="1.0214">
        <ele>192</ele>
        <time>2012-04-01T06:51:17Z</time>
      </trkpt>
      <trkpt lat="44.42319" lon="1.02146">
        <ele>191</ele>
        <time>2012-04-01T06:51:18Z</time>
      </trkpt>
      <trkpt lat="44.42316" lon="1.0215">
        <ele>191</ele>
        <time>2012-04-01T06:51:19Z</time>
      </trkpt>
      <trkpt lat="44.42313" lon="1.02155">
        <ele>191</ele>
        <time>2012-04-01T06:51:20Z</time>
      </trkpt>
      <trkpt lat="44.42309" lon="1.02161">
        <ele>191</ele>
        <time>2012-04-01T06:51:21Z</time>
      </trkpt>
      <trkpt lat="44.42307" lon="1.02165">
        <ele>191</ele>
        <time>2012-04-01T06:51:22Z</time>
      </trkpt>
      <trkpt lat="44.42304" lon="1.0217">
        <ele>191</ele>
        <time>2012-04-01T06:51:23Z</time>
      </trkpt>
      <trkpt lat="44.42302" lon="1.02174">
        <ele>191</ele>
        <time>2012-04-01T06:51:24Z</time>
      </trkpt>
      <trkpt lat="44.42299" lon="1.02179">
        <ele>191</ele>
        <time>2012-04-01T06:51:25Z</time>
      </trkpt>
      <trkpt lat="44.42296" lon="1.02184">
        <ele>191</ele>
        <time>2012-04-01T06:51:26Z</time>
      </trkpt>
      <trkpt lat="44.42294" lon="1.02188">
        <ele>191</ele>
        <time>2012-04-01T06:51:27Z</time>
      </trkpt>
      <trkpt lat="44.42291" lon="1.02193">
        <ele>191</ele>
        <time>2012-04-01T06:51:28Z</time>
      </trkpt>
      <trkpt lat="44.42288" lon="1.02197">
        <ele>191</ele>
        <time>2012-04-01T06:51:29Z</time>
      </trkpt>
      <trkpt lat="44.42285" lon="1.02201">
        <ele>191</ele>
        <time>2012-04-01T06:51:30Z</time>
      </trkpt>
      <trkpt lat="44.42282" lon="1.02206">
        <ele>191</ele>
        <time>2012-04-01T06:51:31Z</time>
      </trkpt>
      <trkpt lat="44.42279" lon="1.02209">
        <ele>191</ele>
        <time>2012-04-01T06:51:32Z</time>
      </trkpt>
      <trkpt lat="44.42277" lon="1.02214">
        <ele>191</ele>
        <time>2012-04-01T06:51:33Z</time>
      </trkpt>
      <trkpt lat="44.42274" lon="1.02218">
        <ele>191</ele>
        <time>2012-04-01T06:51:34Z</time>
      </trkpt>
      <trkpt lat="44.42271" lon="1.02222">
        <ele>191</ele>
        <time>2012-04-01T06:51:35Z</time>
      </trkpt>
      <trkpt lat="44.42268" lon="1.02226">
        <ele>191</ele>
        <time>2012-04-01T06:51:36Z</time>
      </trkpt>
      <trkpt lat="44.42265" lon="1.0223">
        <ele>191</ele>
        <time>2012-04-01T06:51:37Z</time>
      </trkpt>
      <trkpt lat="44.42263" lon="1.02234">
        <ele>191</ele>
        <time>2012-04-01T06:51:38Z</time>
      </trkpt>
      <trkpt lat="44.4226" lon="1.02237">
        <ele>191</ele>
        <time>2012-04-01T06:51:39Z</time>
      </trkpt>
      <trkpt lat="44.42257" lon="1.02242">
        <ele>191</ele>
        <time>2012-04-01T06:51:40Z</time>
      </trkpt>
      <trkpt lat="44.42255" lon="1.02246">
        <ele>191</ele>
        <time>2012-04-01T06:51:41Z</time>
      </trkpt>
      <trkpt lat="44.42252" lon="1.02251">
        <ele>191</ele>
        <time>2012-04-01T06:51:42Z</time>
      </trkpt>
      <trkpt lat="44.42249" lon="1.02255">
        <ele>191</ele>
        <time>2012-04-01T06:51:43Z</time>
      </trkpt>
      <trkpt lat="44.42246" lon="1.02259">
        <ele>191</ele>
        <time>2012-04-01T06:51:44Z</time>
      </trkpt>
      <trkpt lat="44.42243" lon="1.02263">
        <ele>191</ele>
        <time>2012-04-01T06:51:45Z</time>
      </trkpt>
      <trkpt lat="44.42241" lon="1.02268">
        <ele>191</ele>
        <time>2012-04-01T06:51:46Z</time>
      </trkpt>
      <trkpt lat="44.42238" lon="1.02273">
        <ele>192</ele>
        <time>2012-04-01T06:51:47Z</time>
      </trkpt>
      <trkpt lat="44.42236" lon="1.02278">
        <ele>192</ele>
        <time>2012-04-01T06:51:48Z</time>
      </trkpt>
      <trkpt lat="44.42233" lon="1.02283">
        <ele>192</ele>
        <time>2012-04-01T06:51:49Z</time>
      </trkpt>
      <trkpt lat="44.42231" lon="1.02287">
        <ele>193</ele>
        <time>2012-04-01T06:51:50Z</time>
      </trkpt>
      <trkpt lat="44.42229" lon="1.02292">
        <ele>193</ele>
        <time>2012-04-01T06:51:51Z</time>
      </trkpt>
      <trkpt lat="44.42227" lon="1.02296">
        <ele>193</ele>
        <time>2012-04-01T06:51:52Z</time>
      </trkpt>
      <trkpt lat="44.42225" lon="1.02302">
        <ele>193</ele>
        <time>2012-04-01T06:51:53Z</time>
      </trkpt>
      <trkpt lat="44.42222" lon="1.02307">
        <ele>193</ele>
        <time>2012-04-01T06:51:54Z</time>
      </trkpt>
      <trkpt lat="44.4222" lon="1.02312">
        <ele>193</ele>
        <time>2012-04-01T06:51:55Z</time>
      </trkpt>
      <trkpt lat="44.42218" lon="1.02318">
        <ele>193</ele>
        <time>2012-04-01T06:51:56Z</time>
      </trkpt>
      <trkpt lat="44.42217" lon="1.02324">
        <ele>193</ele>
        <time>2012-04-01T06:51:57Z</time>
      </trkpt>
      <trkpt lat="44.42215" lon="1.0233">
        <ele>193</ele>
        <time>2012-04-01T06:51:58Z</time>
      </trkpt>
      <trkpt lat="44.42214" lon="1.02336">
        <ele>193</ele>
        <time>2012-04-01T06:51:59Z</time>
      </trkpt>
      <trkpt lat="44.42213" lon="1.02341">
        <ele>193</ele>
        <time>2012-04-01T06:52:00Z</time>
      </trkpt>
      <trkpt lat="44.42211" lon="1.02347">
        <ele>193</ele>
        <time>2012-04-01T06:52:01Z</time>
      </trkpt>
      <trkpt lat="44.42209" lon="1.02352">
        <ele>193</ele>
        <time>2012-04-01T06:52:02Z</time>
      </trkpt>
      <trkpt lat="44.42208" lon="1.02358">
        <ele>193</ele>
        <time>2012-04-01T06:52:03Z</time>
      </trkpt>
      <trkpt lat="44.42207" lon="1.02364">
        <ele>193</ele>
        <time>2012-04-01T06:52:04Z</time>
      </trkpt>
      <trkpt lat="44.42205" lon="1.02369">
        <ele>193</ele>
        <time>2012-04-01T06:52:05Z</time>
      </trkpt>
      <trkpt lat="44.42204" lon="1.02375">
        <ele>193</ele>
        <time>2012-04-01T06:52:06Z</time>
      </trkpt>
      <trkpt lat="44.42202" lon="1.0238">
        <ele>193</ele>
        <time>2012-04-01T06:52:07Z</time>
      </trkpt>
      <trkpt lat="44.422" lon="1.02385">
        <ele>193</ele>
        <time>2012-04-01T06:52:08Z</time>
      </trkpt>
      <trkpt lat="44.42197" lon="1.02391">
        <ele>193</ele>
        <time>2012-04-01T06:52:09Z</time>
      </trkpt>
      <trkpt lat="44.42194" lon="1.02395">
        <ele>193</ele>
        <time>2012-04-01T06:52:10Z</time>
      </trkpt>
      <trkpt lat="44.42189" lon="1.02398">
        <ele>193</ele>
        <time>2012-04-01T06:52:11Z</time>
      </trkpt>
      <trkpt lat="44.42185" lon="1.02399">
        <ele>193</ele>
        <time>2012-04-01T06:52:12Z</time>
      </trkpt>
      <trkpt lat="44.4218" lon="1.02398">
        <ele>193</ele>
        <time>2012-04-01T06:52:13Z</time>
      </trkpt>
      <trkpt lat="44.42175" lon="1.02397">
        <ele>193</ele>
        <time>2012-04-01T06:52:14Z</time>
      </trkpt>
      <trkpt lat="44.4217" lon="1.02396">
        <ele>193</ele>
        <time>2012-04-01T06:52:15Z</time>
      </trkpt>
      <trkpt lat="44.42166" lon="1.02394">
        <ele>193</ele>
        <time>2012-04-01T06:52:16Z</time>
      </trkpt>
      <trkpt lat="44.42161" lon="1.02393">
        <ele>193</ele>
        <time>2012-04-01T06:52:17Z</time>
      </trkpt>
      <trkpt lat="44.42156" lon="1.02391">
        <ele>193</ele>
        <time>2012-04-01T06:52:18Z</time>
      </trkpt>
      <trkpt lat="44.42152" lon="1.0239">
        <ele>194</ele>
        <time>2012-04-01T06:52:19Z</time>
      </trkpt>
      <trkpt lat="44.42147" lon="1.02388">
        <ele>194</ele>
        <time>2012-04-01T06:52:20Z</time>
      </trkpt>
      <trkpt lat="44.42142" lon="1.02386">
        <ele>195</ele>
        <time>2012-04-01T06:52:21Z</time>
      </trkpt>
      <trkpt lat="44.42138" lon="1.02385">
        <ele>195</ele>
        <time>2012-04-01T06:52:22Z</time>
      </trkpt>
      <trkpt lat="44.42133" lon="1.02383">
        <ele>195</ele>
        <time>2012-04-01T06:52:23Z</time>
      </trkpt>
      <trkpt lat="44.42128" lon="1.02382">
        <ele>196</ele>
        <time>2012-04-01T06:52:24Z</time>
      </trkpt>
      <trkpt lat="44.42124" lon="1.02381">
        <ele>196</ele>
        <time>2012-04-01T06:52:25Z</time>
      </trkpt>
      <trkpt lat="44.42119" lon="1.02379">
        <ele>196</ele>
        <time>2012-04-01T06:52:26Z</time>
      </trkpt>
      <trkpt lat="44.42115" lon="1.02379">
        <ele>197</ele>
        <time>2012-04-01T06:52:27Z</time>
      </trkpt>
      <trkpt lat="44.4211" lon="1.02379">
        <ele>197</ele>
        <time>2012-04-01T06:52:28Z</time>
      </trkpt>
      <trkpt lat="44.42105" lon="1.02381">
        <ele>197</ele>
        <time>2012-04-01T06:52:29Z</time>
      </trkpt>
      <trkpt lat="44.42101" lon="1.02383">
        <ele>198</ele>
        <time>2012-04-01T06:52:30Z</time>
      </trkpt>
      <trkpt lat="44.42098" lon="1.02386">
        <ele>198</ele>
        <time>2012-04-01T06:52:31Z</time>
      </trkpt>
      <trkpt lat="44.42095" lon="1.02391">
        <ele>198</ele>
        <time>2012-04-01T06:52:32Z</time>
      </trkpt>
      <trkpt lat="44.42092" lon="1.02395">
        <ele>198</ele>
        <time>2012-04-01T06:52:33Z</time>
      </trkpt>
      <trkpt lat="44.4209" lon="1.024">
        <ele>198</ele>
        <time>2012-04-01T06:52:34Z</time>
      </trkpt>
      <trkpt lat="44.42087" lon="1.02404">
        <ele>199</ele>
        <time>2012-04-01T06:52:35Z</time>
      </trkpt>
      <trkpt lat="44.42085" lon="1.02409">
        <ele>199</ele>
        <time>2012-04-01T06:52:36Z</time>
      </trkpt>
      <trkpt lat="44.42083" lon="1.02415">
        <ele>200</ele>
        <time>2012-04-01T06:52:37Z</time>
      </trkpt>
      <trkpt lat="44.42081" lon="1.0242">
        <ele>200</ele>
        <time>2012-04-01T06:52:38Z</time>
      </trkpt>
      <trkpt lat="44.42079" lon="1.02425">
        <ele>200</ele>
        <time>2012-04-01T06:52:39Z</time>
      </trkpt>
      <trkpt lat="44.42077" lon="1.0243">
        <ele>201</ele>
        <time>2012-04-01T06:52:40Z</time>
      </trkpt>
      <trkpt lat="44.42075" lon="1.02434">
        <ele>201</ele>
        <time>2012-04-01T06:52:41Z</time>
      </trkpt>
      <trkpt lat="44.42073" lon="1.02439">
        <ele>201</ele>
        <time>2012-04-01T06:52:42Z</time>
      </trkpt>
      <trkpt lat="44.4207" lon="1.02443">
        <ele>201</ele>
        <time>2012-04-01T06:52:43Z</time>
      </trkpt>
      <trkpt lat="44.42068" lon="1.02447">
        <ele>201</ele>
        <time>2012-04-01T06:52:44Z</time>
      </trkpt>
      <trkpt lat="44.42066" lon="1.02452">
        <ele>202</ele>
        <time>2012-04-01T06:52:45Z</time>
      </trkpt>
      <trkpt lat="44.42064" lon="1.02456">
        <ele>202</ele>
        <time>2012-04-01T06:52:46Z</time>
      </trkpt>
      <trkpt lat="44.42062" lon="1.0246">
        <ele>202</ele>
        <time>2012-04-01T06:52:47Z</time>
      </trkpt>
      <trkpt lat="44.4206" lon="1.02463">
        <ele>202</ele>
        <time>2012-04-01T06:52:48Z</time>
      </trkpt>
      <trkpt lat="44.42058" lon="1.02465">
        <ele>202</ele>
        <time>2012-04-01T06:52:49Z</time>
      </trkpt>
      <trkpt lat="44.42056" lon="1.02467">
        <ele>202</ele>
        <time>2012-04-01T06:52:50Z</time>
      </trkpt>
      <trkpt lat="44.42054" lon="1.02468">
        <ele>202</ele>
        <time>2012-04-01T06:52:51Z</time>
      </trkpt>
      <trkpt lat="44.42052" lon="1.02468">
        <ele>202</ele>
        <time>2012-04-01T06:52:52Z</time>
      </trkpt>
      <trkpt lat="44.42049" lon="1.02467">
        <ele>202</ele>
        <time>2012-04-01T06:52:53Z</time>
      </trkpt>
      <trkpt lat="44.42046" lon="1.02464">
        <ele>202</ele>
        <time>2012-04-01T06:52:54Z</time>
      </trkpt>
      <trkpt lat="44.42044" lon="1.02461">
        <ele>202</ele>
        <time>2012-04-01T06:52:55Z</time>
      </trkpt>
      <trkpt lat="44.42041" lon="1.02457">
        <ele>202</ele>
        <time>2012-04-01T06:52:56Z</time>
      </trkpt>
      <trkpt lat="44.42038" lon="1.02452">
        <ele>202</ele>
        <time>2012-04-01T06:52:57Z</time>
      </trkpt>
      <trkpt lat="44.42035" lon="1.02446">
        <ele>202</ele>
        <time>2012-04-01T06:52:58Z</time>
      </trkpt>
      <trkpt lat="44.42031" lon="1.0244">
        <ele>202</ele>
        <time>2012-04-01T06:52:59Z</time>
      </trkpt>
      <trkpt lat="44.42027" lon="1.02434">
        <ele>202</ele>
        <time>2012-04-01T06:53:00Z</time>
      </trkpt>
      <trkpt lat="44.42022" lon="1.02427">
        <ele>202</ele>
        <time>2012-04-01T06:53:01Z</time>
      </trkpt>
      <trkpt lat="44.42018" lon="1.0242">
        <ele>202</ele>
        <time>2012-04-01T06:53:02Z</time>
      </trkpt>
      <trkpt lat="44.42013" lon="1.02413">
        <ele>202</ele>
        <time>2012-04-01T06:53:03Z</time>
      </trkpt>
      <trkpt lat="44.42008" lon="1.02405">
        <ele>202</ele>
        <time>2012-04-01T06:53:04Z</time>
      </trkpt>
      <trkpt lat="44.42003" lon="1.02397">
        <ele>202</ele>
        <time>2012-04-01T06:53:05Z</time>
      </trkpt>
      <trkpt lat="44.41998" lon="1.02389">
        <ele>202</ele>
        <time>2012-04-01T06:53:06Z</time>
      </trkpt>
      <trkpt lat="44.41991" lon="1.02381">
        <ele>202</ele>
        <time>2012-04-01T06:53:07Z</time>
      </trkpt>
      <trkpt lat="44.41985" lon="1.02372">
        <ele>202</ele>
        <time>2012-04-01T06:53:08Z</time>
      </trkpt>
      <trkpt lat="44.41979" lon="1.02363">
        <ele>201</ele>
        <time>2012-04-01T06:53:09Z</time>
      </trkpt>
      <trkpt lat="44.41974" lon="1.02354">
        <ele>201</ele>
        <time>2012-04-01T06:53:10Z</time>
      </trkpt>
      <trkpt lat="44.41969" lon="1.02346">
        <ele>200</ele>
        <time>2012-04-01T06:53:11Z</time>
      </trkpt>
      <trkpt lat="44.41964" lon="1.02338">
        <ele>200</ele>
        <time>2012-04-01T06:53:12Z</time>
      </trkpt>
      <trkpt lat="44.41959" lon="1.0233">
        <ele>199</ele>
        <time>2012-04-01T06:53:13Z</time>
      </trkpt>
      <trkpt lat="44.41954" lon="1.02322">
        <ele>198</ele>
        <time>2012-04-01T06:53:14Z</time>
      </trkpt>
      <trkpt lat="44.41949" lon="1.02315">
        <ele>198</ele>
        <time>2012-04-01T06:53:15Z</time>
      </trkpt>
      <trkpt lat="44.41945" lon="1.02307">
        <ele>197</ele>
        <time>2012-04-01T06:53:16Z</time>
      </trkpt>
      <trkpt lat="44.4194" lon="1.02299">
        <ele>196</ele>
        <time>2012-04-01T06:53:17Z</time>
      </trkpt>
      <trkpt lat="44.41935" lon="1.02291">
        <ele>196</ele>
        <time>2012-04-01T06:53:18Z</time>
      </trkpt>
      <trkpt lat="44.41929" lon="1.02282">
        <ele>195</ele>
        <time>2012-04-01T06:53:19Z</time>
      </trkpt>
      <trkpt lat="44.41923" lon="1.02273">
        <ele>195</ele>
        <time>2012-04-01T06:53:20Z</time>
      </trkpt>
      <trkpt lat="44.41918" lon="1.02265">
        <ele>195</ele>
        <time>2012-04-01T06:53:21Z</time>
      </trkpt>
      <trkpt lat="44.41912" lon="1.02256">
        <ele>195</ele>
        <time>2012-04-01T06:53:22Z</time>
      </trkpt>
      <trkpt lat="44.41906" lon="1.02247">
        <ele>195</ele>
        <time>2012-04-01T06:53:23Z</time>
      </trkpt>
      <trkpt lat="44.419" lon="1.02238">
        <ele>194</ele>
        <time>2012-04-01T06:53:24Z</time>
      </trkpt>
      <trkpt lat="44.41893" lon="1.02228">
        <ele>194</ele>
        <time>2012-04-01T06:53:25Z</time>
      </trkpt>
      <trkpt lat="44.41887" lon="1.02218">
        <ele>194</ele>
        <time>2012-04-01T06:53:26Z</time>
      </trkpt>
      <trkpt lat="44.41881" lon="1.02209">
        <ele>194</ele>
        <time>2012-04-01T06:53:27Z</time>
      </trkpt>
      <trkpt lat="44.41875" lon="1.02199">
        <ele>193</ele>
        <time>2012-04-01T06:53:28Z</time>
      </trkpt>
      <trkpt lat="44.4187" lon="1.0219">
        <ele>193</ele>
        <time>2012-04-01T06:53:29Z</time>
      </trkpt>
      <trkpt lat="44.41864" lon="1.02181">
        <ele>192</ele>
        <time>2012-04-01T06:53:30Z</time>
      </trkpt>
      <trkpt lat="44.41859" lon="1.02173">
        <ele>191</ele>
        <time>2012-04-01T06:53:31Z</time>
      </trkpt>
      <trkpt lat="44.41853" lon="1.02164">
        <ele>191</ele>
        <time>2012-04-01T06:53:32Z</time>
      </trkpt>
      <trkpt lat="44.41848" lon="1.02156">
        <ele>190</ele>
        <time>2012-04-01T06:53:33Z</time>
      </trkpt>
      <trkpt lat="44.41843" lon="1.02147">
        <ele>189</ele>
        <time>2012-04-01T06:53:34Z</time>
      </trkpt>
      <trkpt lat="44.41838" lon="1.02139">
        <ele>189</ele>
        <time>2012-04-01T06:53:35Z</time>
      </trkpt>
      <trkpt lat="44.41833" lon="1.02131">
        <ele>188</ele>
        <time>2012-04-01T06:53:36Z</time>
      </trkpt>
      <trkpt lat="44.41829" lon="1.02123">
        <ele>188</ele>
        <time>2012-04-01T06:53:37Z</time>
      </trkpt>
      <trkpt lat="44.41824" lon="1.02114">
        <ele>188</ele>
        <time>2012-04-01T06:53:38Z</time>
      </trkpt>
      <trkpt lat="44.4182" lon="1.02106">
        <ele>188</ele>
        <time>2012-04-01T06:53:39Z</time>
      </trkpt>
      <trkpt lat="44.41817" lon="1.02097">
        <ele>187</ele>
        <time>2012-04-01T06:53:40Z</time>
      </trkpt>
      <trkpt lat="44.41814" lon="1.02087">
        <ele>187</ele>
        <time>2012-04-01T06:53:41Z</time>
      </trkpt>
      <trkpt lat="44.41808" lon="1.02078">
        <ele>187</ele>
        <time>2012-04-01T06:53:42Z</time>
      </trkpt>
      <trkpt lat="44.41805" lon="1.02068">
        <ele>187</ele>
        <time>2012-04-01T06:53:43Z</time>
      </trkpt>
      <trkpt lat="44.418" lon="1.02058">
        <ele>186</ele>
        <time>2012-04-01T06:53:44Z</time>
      </trkpt>
      <trkpt lat="44.41795" lon="1.0205">
        <ele>186</ele>
        <time>2012-04-01T06:53:45Z</time>
      </trkpt>
      <trkpt lat="44.4179" lon="1.02044">
        <ele>185</ele>
        <time>2012-04-01T06:53:46Z</time>
      </trkpt>
      <trkpt lat="44.41786" lon="1.0204">
        <ele>184</ele>
        <time>2012-04-01T06:53:47Z</time>
      </trkpt>
      <trkpt lat="44.41781" lon="1.02036">
        <ele>184</ele>
        <time>2012-04-01T06:53:48Z</time>
      </trkpt>
      <trkpt lat="44.41777" lon="1.02033">
        <ele>183</ele>
        <time>2012-04-01T06:53:49Z</time>
      </trkpt>
      <trkpt lat="44.41772" lon="1.02029">
        <ele>182</ele>
        <time>2012-04-01T06:53:50Z</time>
      </trkpt>
      <trkpt lat="44.41768" lon="1.02025">
        <ele>181</ele>
        <time>2012-04-01T06:53:51Z</time>
      </trkpt>
      <trkpt lat="44.41763" lon="1.0202">
        <ele>181</ele>
        <time>2012-04-01T06:53:52Z</time>
      </trkpt>
      <trkpt lat="44.41759" lon="1.02015">
        <ele>181</ele>
        <time>2012-04-01T06:53:53Z</time>
      </trkpt>
      <trkpt lat="44.41756" lon="1.02008">
        <ele>180</ele>
        <time>2012-04-01T06:53:54Z</time>
      </trkpt>
      <trkpt lat="44.41752" lon="1.02002">
        <ele>180</ele>
        <time>2012-04-01T06:53:55Z</time>
      </trkpt>
      <trkpt lat="44.4175" lon="1.01995">
        <ele>180</ele>
        <time>2012-04-01T06:53:56Z</time>
      </trkpt>
      <trkpt lat="44.41747" lon="1.01987">
        <ele>179</ele>
        <time>2012-04-01T06:53:57Z</time>
      </trkpt>
      <trkpt lat="44.41745" lon="1.01979">
        <ele>179</ele>
        <time>2012-04-01T06:53:58Z</time>
      </trkpt>
      <trkpt lat="44.41742" lon="1.01971">
        <ele>179</ele>
        <time>2012-04-01T06:53:59Z</time>
      </trkpt>
      <trkpt lat="44.4174" lon="1.01965">
        <ele>179</ele>
        <time>2012-04-01T06:54:00Z</time>
      </trkpt>
      <trkpt lat="44.41739" lon="1.01961">
        <ele>179</ele>
        <time>2012-04-01T06:54:01Z</time>
      </trkpt>
      <trkpt lat="44.41739" lon="1.01959">
        <ele>179</ele>
        <time>2012-04-01T06:54:02Z</time>
      </trkpt>
      <trkpt lat="44.4174" lon="1.01956">
        <ele>179</ele>
        <time>2012-04-01T06:54:03Z</time>
      </trkpt>
      <trkpt lat="44.4174" lon="1.01952">
        <ele>179</ele>
        <time>2012-04-01T06:54:04Z</time>
      </trkpt>
      <trkpt lat="44.4174" lon="1.01949">
        <ele>179</ele>
        <time>2012-04-01T06:54:05Z</time>
      </trkpt>
      <trkpt lat="44.41739" lon="1.01945">
        <ele>179</ele>
        <time>2012-04-01T06:54:06Z</time>
      </trkpt>
      <trkpt lat="44.41736" lon="1.01941">
        <ele>179</ele>
        <time>2012-04-01T06:54:07Z</time>
      </trkpt>
      <trkpt lat="44.41734" lon="1.01936">
        <ele>179</ele>
        <time>2012-04-01T06:54:08Z</time>
      </trkpt>
      <trkpt lat="44.41732" lon="1.01931">
        <ele>179</ele>
        <time>2012-04-01T06:54:09Z</time>
      </trkpt>
      <trkpt lat="44.41729" lon="1.01926">
        <ele>179</ele>
        <time>2012-04-01T06:54:10Z</time>
      </trkpt>
      <trkpt lat="44.41726" lon="1.0192">
        <ele>179</ele>
        <time>2012-04-01T06:54:11Z</time>
      </trkpt>
      <trkpt lat="44.41723" lon="1.01914">
        <ele>178</ele>
        <time>2012-04-01T06:54:12Z</time>
      </trkpt>
      <trkpt lat="44.4172" lon="1.01907">
        <ele>177</ele>
        <time>2012-04-01T06:54:13Z</time>
      </trkpt>
      <trkpt lat="44.41717" lon="1.01899">
        <ele>177</ele>
        <time>2012-04-01T06:54:14Z</time>
      </trkpt>
      <trkpt lat="44.41713" lon="1.01891">
        <ele>177</ele>
        <time>2012-04-01T06:54:15Z</time>
      </trkpt>
      <trkpt lat="44.41709" lon="1.01882">
        <ele>176</ele>
        <time>2012-04-01T06:54:16Z</time>
      </trkpt>
      <trkpt lat="44.41706" lon="1.01873">
        <ele>176</ele>
        <time>2012-04-01T06:54:17Z</time>
      </trkpt>
      <trkpt lat="44.41703" lon="1.01864">
        <ele>176</ele>
        <time>2012-04-01T06:54:18Z</time>
      </trkpt>
      <trkpt lat="44.41699" lon="1.01857">
        <ele>175</ele>
        <time>2012-04-01T06:54:19Z</time>
      </trkpt>
      <trkpt lat="44.41696" lon="1.0185">
        <ele>175</ele>
        <time>2012-04-01T06:54:20Z</time>
      </trkpt>
      <trkpt lat="44.41694" lon="1.01845">
        <ele>175</ele>
        <time>2012-04-01T06:54:21Z</time>
      </trkpt>
      <trkpt lat="44.41692" lon="1.0184">
        <ele>174</ele>
        <time>2012-04-01T06:54:22Z</time>
      </trkpt>
      <trkpt lat="44.41691" lon="1.01837">
        <ele>173</ele>
        <time>2012-04-01T06:54:23Z</time>
      </trkpt>
      <trkpt lat="44.4169" lon="1.01836">
        <ele>173</ele>
        <time>2012-04-01T06:54:24Z</time>
      </trkpt>
      <trkpt lat="44.4169" lon="1.01833">
        <ele>172</ele>
        <time>2012-04-01T06:54:26Z</time>
      </trkpt>
      <trkpt lat="44.4169" lon="1.01831">
        <ele>172</ele>
        <time>2012-04-01T06:54:29Z</time>
      </trkpt>
      <trkpt lat="44.41691" lon="1.01833">
        <ele>172</ele>
        <time>2012-04-01T06:54:35Z</time>
      </trkpt>
      <trkpt lat="44.41692" lon="1.01834">
        <ele>172</ele>
        <time>2012-04-01T06:54:37Z</time>
      </trkpt>
      <trkpt lat="44.41693" lon="1.01835">
        <ele>171</ele>
        <time>2012-04-01T06:54:39Z</time>
      </trkpt>
      <trkpt lat="44.41695" lon="1.01836">
        <ele>171</ele>
        <time>2012-04-01T06:54:44Z</time>
      </trkpt>
      <trkpt lat="44.41696" lon="1.01836">
        <ele>171</ele>
        <time>2012-04-01T06:54:51Z</time>
      </trkpt>
      <trkpt lat="44.41697" lon="1.01837">
        <ele>179</ele>
        <time>2012-04-01T06:55:08Z</time>
      </trkpt>
      <trkpt lat="44.41698" lon="1.01835">
        <ele>181</ele>
        <time>2012-04-01T06:55:22Z</time>
      </trkpt>
      <trkpt lat="44.417" lon="1.01835">
        <ele>184</ele>
        <time>2012-04-01T06:55:49Z</time>
      </trkpt>
      <trkpt lat="44.41701" lon="1.01834">
        <ele>185</ele>
        <time>2012-04-01T06:55:56Z</time>
      </trkpt>
      <trkpt lat="44.41698" lon="1.01832">
        <ele>186</ele>
        <time>2012-04-01T06:56:12Z</time>
      </trkpt>
      <trkpt lat="44.41697" lon="1.0183">
        <ele>186</ele>
        <time>2012-04-01T06:56:14Z</time>
      </trkpt>
      <trkpt lat="44.41697" lon="1.01828">
        <ele>185</ele>
        <time>2012-04-01T06:56:16Z</time>
      </trkpt>
      <trkpt lat="44.41697" lon="1.01826">
        <ele>184</ele>
        <time>2012-04-01T06:56:18Z</time>
      </trkpt>
      <trkpt lat="44.41696" lon="1.01825">
        <ele>183</ele>
        <time>2012-04-01T06:56:20Z</time>
      </trkpt>
      <trkpt lat="44.41694" lon="1.01824">
        <ele>179</ele>
        <time>2012-04-01T06:56:27Z</time>
      </trkpt>
      <trkpt lat="44.41692" lon="1.01825">
        <ele>179</ele>
        <time>2012-04-01T06:56:28Z</time>
      </trkpt>
      <trkpt lat="44.41691" lon="1.01825">
        <ele>178</ele>
        <time>2012-04-01T06:56:29Z</time>
      </trkpt>
      <trkpt lat="44.4169" lon="1.01826">
        <ele>177</ele>
        <time>2012-04-01T06:56:30Z</time>
      </trkpt>
      <trkpt lat="44.41687" lon="1.01827">
        <ele>177</ele>
        <time>2012-04-01T06:56:31Z</time>
      </trkpt>
      <trkpt lat="44.41685" lon="1.01827">
        <ele>176</ele>
        <time>2012-04-01T06:56:32Z</time>
      </trkpt>
      <trkpt lat="44.41683" lon="1.01828">
        <ele>176</ele>
        <time>2012-04-01T06:56:33Z</time>
      </trkpt>
      <trkpt lat="44.4168" lon="1.01829">
        <ele>175</ele>
        <time>2012-04-01T06:56:34Z</time>
      </trkpt>
      <trkpt lat="44.41677" lon="1.0183">
        <ele>174</ele>
        <time>2012-04-01T06:56:35Z</time>
      </trkpt>
      <trkpt lat="44.41673" lon="1.01831">
        <ele>173</ele>
        <time>2012-04-01T06:56:36Z</time>
      </trkpt>
      <trkpt lat="44.41669" lon="1.01833">
        <ele>172</ele>
        <time>2012-04-01T06:56:37Z</time>
      </trkpt>
      <trkpt lat="44.41665" lon="1.01834">
        <ele>171</ele>
        <time>2012-04-01T06:56:38Z</time>
      </trkpt>
      <trkpt lat="44.41661" lon="1.01835">
        <ele>170</ele>
        <time>2012-04-01T06:56:39Z</time>
      </trkpt>
      <trkpt lat="44.41656" lon="1.01835">
        <ele>169</ele>
        <time>2012-04-01T06:56:40Z</time>
      </trkpt>
      <trkpt lat="44.41651" lon="1.01834">
        <ele>168</ele>
        <time>2012-04-01T06:56:41Z</time>
      </trkpt>
      <trkpt lat="44.41646" lon="1.01833">
        <ele>168</ele>
        <time>2012-04-01T06:56:42Z</time>
      </trkpt>
      <trkpt lat="44.41642" lon="1.01831">
        <ele>168</ele>
        <time>2012-04-01T06:56:43Z</time>
      </trkpt>
      <trkpt lat="44.41637" lon="1.0183">
        <ele>167</ele>
        <time>2012-04-01T06:56:44Z</time>
      </trkpt>
      <trkpt lat="44.41633" lon="1.01828">
        <ele>167</ele>
        <time>2012-04-01T06:56:45Z</time>
      </trkpt>
      <trkpt lat="44.41628" lon="1.01826">
        <ele>167</ele>
        <time>2012-04-01T06:56:46Z</time>
      </trkpt>
      <trkpt lat="44.41623" lon="1.01825">
        <ele>167</ele>
        <time>2012-04-01T06:56:47Z</time>
      </trkpt>
      <trkpt lat="44.41617" lon="1.01823">
        <ele>166</ele>
        <time>2012-04-01T06:56:48Z</time>
      </trkpt>
      <trkpt lat="44.41613" lon="1.01821">
        <ele>166</ele>
        <time>2012-04-01T06:56:49Z</time>
      </trkpt>
      <trkpt lat="44.41609" lon="1.01818">
        <ele>166</ele>
        <time>2012-04-01T06:56:50Z</time>
      </trkpt>
      <trkpt lat="44.41605" lon="1.01816">
        <ele>166</ele>
        <time>2012-04-01T06:56:51Z</time>
      </trkpt>
      <trkpt lat="44.416" lon="1.01815">
        <ele>165</ele>
        <time>2012-04-01T06:56:52Z</time>
      </trkpt>
      <trkpt lat="44.41595" lon="1.01814">
        <ele>165</ele>
        <time>2012-04-01T06:56:53Z</time>
      </trkpt>
      <trkpt lat="44.4159" lon="1.01813">
        <ele>164</ele>
        <time>2012-04-01T06:56:54Z</time>
      </trkpt>
      <trkpt lat="44.41585" lon="1.01812">
        <ele>163</ele>
        <time>2012-04-01T06:56:55Z</time>
      </trkpt>
      <trkpt lat="44.4158" lon="1.01812">
        <ele>163</ele>
        <time>2012-04-01T06:56:56Z</time>
      </trkpt>
      <trkpt lat="44.41575" lon="1.01811">
        <ele>163</ele>
        <time>2012-04-01T06:56:57Z</time>
      </trkpt>
      <trkpt lat="44.41569" lon="1.0181">
        <ele>162</ele>
        <time>2012-04-01T06:56:58Z</time>
      </trkpt>
      <trkpt lat="44.41563" lon="1.0181">
        <ele>162</ele>
        <time>2012-04-01T06:56:59Z</time>
      </trkpt>
      <trkpt lat="44.41558" lon="1.01809">
        <ele>162</ele>
        <time>2012-04-01T06:57:00Z</time>
      </trkpt>
      <trkpt lat="44.41552" lon="1.01806">
        <ele>162</ele>
        <time>2012-04-01T06:57:01Z</time>
      </trkpt>
      <trkpt lat="44.41548" lon="1.01804">
        <ele>162</ele>
        <time>2012-04-01T06:57:02Z</time>
      </trkpt>
      <trkpt lat="44.41543" lon="1.01802">
        <ele>162</ele>
        <time>2012-04-01T06:57:03Z</time>
      </trkpt>
      <trkpt lat="44.41537" lon="1.01798">
        <ele>162</ele>
        <time>2012-04-01T06:57:04Z</time>
      </trkpt>
      <trkpt lat="44.41531" lon="1.01795">
        <ele>162</ele>
        <time>2012-04-01T06:57:05Z</time>
      </trkpt>
      <trkpt lat="44.41525" lon="1.01792">
        <ele>162</ele>
        <time>2012-04-01T06:57:06Z</time>
      </trkpt>
      <trkpt lat="44.4152" lon="1.0179">
        <ele>162</ele>
        <time>2012-04-01T06:57:07Z</time>
      </trkpt>
      <trkpt lat="44.41516" lon="1.01787">
        <ele>162</ele>
        <time>2012-04-01T06:57:08Z</time>
      </trkpt>
      <trkpt lat="44.41512" lon="1.01785">
        <ele>162</ele>
        <time>2012-04-01T06:57:09Z</time>
      </trkpt>
      <trkpt lat="44.41507" lon="1.01783">
        <ele>162</ele>
        <time>2012-04-01T06:57:10Z</time>
      </trkpt>
      <trkpt lat="44.41503" lon="1.01781">
        <ele>162</ele>
        <time>2012-04-01T06:57:11Z</time>
      </trkpt>
      <trkpt lat="44.41498" lon="1.01778">
        <ele>161</ele>
        <time>2012-04-01T06:57:12Z</time>
      </trkpt>
      <trkpt lat="44.41494" lon="1.01774">
        <ele>161</ele>
        <time>2012-04-01T06:57:13Z</time>
      </trkpt>
      <trkpt lat="44.4149" lon="1.01768">
        <ele>160</ele>
        <time>2012-04-01T06:57:14Z</time>
      </trkpt>
      <trkpt lat="44.41486" lon="1.01762">
        <ele>159</ele>
        <time>2012-04-01T06:57:15Z</time>
      </trkpt>
      <trkpt lat="44.41483" lon="1.01755">
        <ele>158</ele>
        <time>2012-04-01T06:57:16Z</time>
      </trkpt>
      <trkpt lat="44.41479" lon="1.01748">
        <ele>157</ele>
        <time>2012-04-01T06:57:17Z</time>
      </trkpt>
      <trkpt lat="44.41476" lon="1.01741">
        <ele>157</ele>
        <time>2012-04-01T06:57:18Z</time>
      </trkpt>
      <trkpt lat="44.41472" lon="1.01734">
        <ele>156</ele>
        <time>2012-04-01T06:57:19Z</time>
      </trkpt>
      <trkpt lat="44.41469" lon="1.01728">
        <ele>155</ele>
        <time>2012-04-01T06:57:20Z</time>
      </trkpt>
      <trkpt lat="44.41466" lon="1.01724">
        <ele>154</ele>
        <time>2012-04-01T06:57:21Z</time>
      </trkpt>
      <trkpt lat="44.41463" lon="1.0172">
        <ele>153</ele>
        <time>2012-04-01T06:57:22Z</time>
      </trkpt>
      <trkpt lat="44.4146" lon="1.01717">
        <ele>152</ele>
        <time>2012-04-01T06:57:23Z</time>
      </trkpt>
      <trkpt lat="44.41456" lon="1.01715">
        <ele>151</ele>
        <time>2012-04-01T06:57:24Z</time>
      </trkpt>
      <trkpt lat="44.41453" lon="1.01715">
        <ele>150</ele>
        <time>2012-04-01T06:57:25Z</time>
      </trkpt>
      <trkpt lat="44.4145" lon="1.01717">
        <ele>149</ele>
        <time>2012-04-01T06:57:26Z</time>
      </trkpt>
      <trkpt lat="44.41448" lon="1.01723">
        <ele>148</ele>
        <time>2012-04-01T06:57:27Z</time>
      </trkpt>
      <trkpt lat="44.41446" lon="1.01727">
        <ele>147</ele>
        <time>2012-04-01T06:57:28Z</time>
      </trkpt>
      <trkpt lat="44.41444" lon="1.01733">
        <ele>146</ele>
        <time>2012-04-01T06:57:29Z</time>
      </trkpt>
      <trkpt lat="44.41445" lon="1.0174">
        <ele>144</ele>
        <time>2012-04-01T06:57:30Z</time>
      </trkpt>
      <trkpt lat="44.41446" lon="1.01748">
        <ele>143</ele>
        <time>2012-04-01T06:57:31Z</time>
      </trkpt>
      <trkpt lat="44.41446" lon="1.01753">
        <ele>142</ele>
        <time>2012-04-01T06:57:32Z</time>
      </trkpt>
      <trkpt lat="44.41444" lon="1.01759">
        <ele>141</ele>
        <time>2012-04-01T06:57:33Z</time>
      </trkpt>
      <trkpt lat="44.41442" lon="1.01763">
        <ele>140</ele>
        <time>2012-04-01T06:57:34Z</time>
      </trkpt>
      <trkpt lat="44.41439" lon="1.01764">
        <ele>139</ele>
        <time>2012-04-01T06:57:35Z</time>
      </trkpt>
      <trkpt lat="44.41433" lon="1.01763">
        <ele>138</ele>
        <time>2012-04-01T06:57:36Z</time>
      </trkpt>
      <trkpt lat="44.41426" lon="1.01761">
        <ele>137</ele>
        <time>2012-04-01T06:57:37Z</time>
      </trkpt>
      <trkpt lat="44.4142" lon="1.0176">
        <ele>136</ele>
        <time>2012-04-01T06:57:38Z</time>
      </trkpt>
      <trkpt lat="44.41414" lon="1.01757">
        <ele>136</ele>
        <time>2012-04-01T06:57:39Z</time>
      </trkpt>
      <trkpt lat="44.41409" lon="1.01754">
        <ele>136</ele>
        <time>2012-04-01T06:57:40Z</time>
      </trkpt>
      <trkpt lat="44.41404" lon="1.01751">
        <ele>136</ele>
        <time>2012-04-01T06:57:41Z</time>
      </trkpt>
      <trkpt lat="44.41399" lon="1.01748">
        <ele>136</ele>
        <time>2012-04-01T06:57:42Z</time>
      </trkpt>
      <trkpt lat="44.41396" lon="1.01744">
        <ele>136</ele>
        <time>2012-04-01T06:57:43Z</time>
      </trkpt>
      <trkpt lat="44.41392" lon="1.0174">
        <ele>136</ele>
        <time>2012-04-01T06:57:44Z</time>
      </trkpt>
      <trkpt lat="44.4139" lon="1.01737">
        <ele>136</ele>
        <time>2012-04-01T06:57:45Z</time>
      </trkpt>
      <trkpt lat="44.41387" lon="1.01734">
        <ele>136</ele>
        <time>2012-04-01T06:57:46Z</time>
      </trkpt>
      <trkpt lat="44.41383" lon="1.01733">
        <ele>136</ele>
        <time>2012-04-01T06:57:47Z</time>
      </trkpt>
      <trkpt lat="44.4138" lon="1.01732">
        <ele>136</ele>
        <time>2012-04-01T06:57:48Z</time>
      </trkpt>
      <trkpt lat="44.41377" lon="1.01732">
        <ele>136</ele>
        <time>2012-04-01T06:57:49Z</time>
      </trkpt>
      <trkpt lat="44.41375" lon="1.01732">
        <ele>136</ele>
        <time>2012-04-01T06:57:50Z</time>
      </trkpt>
      <trkpt lat="44.41372" lon="1.01732">
        <ele>136</ele>
        <time>2012-04-01T06:57:51Z</time>
      </trkpt>
      <trkpt lat="44.41369" lon="1.01732">
        <ele>136</ele>
        <time>2012-04-01T06:57:52Z</time>
      </trkpt>
      <trkpt lat="44.41365" lon="1.01732">
        <ele>136</ele>
        <time>2012-04-01T06:57:53Z</time>
      </trkpt>
      <trkpt lat="44.41362" lon="1.01732">
        <ele>136</ele>
        <time>2012-04-01T06:57:54Z</time>
      </trkpt>
      <trkpt lat="44.41358" lon="1.01732">
        <ele>136</ele>
        <time>2012-04-01T06:57:55Z</time>
      </trkpt>
      <trkpt lat="44.41354" lon="1.01731">
        <ele>136</ele>
        <time>2012-04-01T06:57:56Z</time>
      </trkpt>
      <trkpt lat="44.41349" lon="1.0173">
        <ele>136</ele>
        <time>2012-04-01T06:57:57Z</time>
      </trkpt>
      <trkpt lat="44.41344" lon="1.01728">
        <ele>137</ele>
        <time>2012-04-01T06:57:58Z</time>
      </trkpt>
      <trkpt lat="44.41339" lon="1.01726">
        <ele>137</ele>
        <time>2012-04-01T06:57:59Z</time>
      </trkpt>
      <trkpt lat="44.41334" lon="1.01723">
        <ele>138</ele>
        <time>2012-04-01T06:58:00Z</time>
      </trkpt>
      <trkpt lat="44.41329" lon="1.0172">
        <ele>139</ele>
        <time>2012-04-01T06:58:01Z</time>
      </trkpt>
      <trkpt lat="44.41323" lon="1.01718">
        <ele>139</ele>
        <time>2012-04-01T06:58:02Z</time>
      </trkpt>
      <trkpt lat="44.41318" lon="1.01714">
        <ele>140</ele>
        <time>2012-04-01T06:58:03Z</time>
      </trkpt>
      <trkpt lat="44.41312" lon="1.0171">
        <ele>140</ele>
        <time>2012-04-01T06:58:04Z</time>
      </trkpt>
      <trkpt lat="44.41307" lon="1.01706">
        <ele>141</ele>
        <time>2012-04-01T06:58:05Z</time>
      </trkpt>
      <trkpt lat="44.41302" lon="1.01702">
        <ele>141</ele>
        <time>2012-04-01T06:58:06Z</time>
      </trkpt>
      <trkpt lat="44.41298" lon="1.01697">
        <ele>142</ele>
        <time>2012-04-01T06:58:07Z</time>
      </trkpt>
      <trkpt lat="44.41295" lon="1.0169">
        <ele>142</ele>
        <time>2012-04-01T06:58:08Z</time>
      </trkpt>
      <trkpt lat="44.41292" lon="1.01684">
        <ele>142</ele>
        <time>2012-04-01T06:58:09Z</time>
      </trkpt>
      <trkpt lat="44.41289" lon="1.01676">
        <ele>143</ele>
        <time>2012-04-01T06:58:10Z</time>
      </trkpt>
      <trkpt lat="44.41287" lon="1.01667">
        <ele>143</ele>
        <time>2012-04-01T06:58:11Z</time>
      </trkpt>
      <trkpt lat="44.41284" lon="1.01659">
        <ele>143</ele>
        <time>2012-04-01T06:58:12Z</time>
      </trkpt>
      <trkpt lat="44.41282" lon="1.01653">
        <ele>144</ele>
        <time>2012-04-01T06:58:13Z</time>
      </trkpt>
      <trkpt lat="44.4128" lon="1.01646">
        <ele>144</ele>
        <time>2012-04-01T06:58:14Z</time>
      </trkpt>
      <trkpt lat="44.41277" lon="1.01637">
        <ele>145</ele>
        <time>2012-04-01T06:58:15Z</time>
      </trkpt>
      <trkpt lat="44.41273" lon="1.0163">
        <ele>146</ele>
        <time>2012-04-01T06:58:16Z</time>
      </trkpt>
      <trkpt lat="44.41269" lon="1.01626">
        <ele>147</ele>
        <time>2012-04-01T06:58:17Z</time>
      </trkpt>
      <trkpt lat="44.41264" lon="1.01623">
        <ele>147</ele>
        <time>2012-04-01T06:58:18Z</time>
      </trkpt>
      <trkpt lat="44.4126" lon="1.01621">
        <ele>147</ele>
        <time>2012-04-01T06:58:19Z</time>
      </trkpt>
      <trkpt lat="44.41254" lon="1.01619">
        <ele>147</ele>
        <time>2012-04-01T06:58:20Z</time>
      </trkpt>
      <trkpt lat="44.41249" lon="1.01617">
        <ele>147</ele>
        <time>2012-04-01T06:58:21Z</time>
      </trkpt>
      <trkpt lat="44.41245" lon="1.01614">
        <ele>147</ele>
        <time>2012-04-01T06:58:22Z</time>
      </trkpt>
      <trkpt lat="44.41241" lon="1.01609">
        <ele>147</ele>
        <time>2012-04-01T06:58:23Z</time>
      </trkpt>
      <trkpt lat="44.41239" lon="1.01603">
        <ele>147</ele>
        <time>2012-04-01T06:58:24Z</time>
      </trkpt>
      <trkpt lat="44.41236" lon="1.01597">
        <ele>147</ele>
        <time>2012-04-01T06:58:25Z</time>
      </trkpt>
      <trkpt lat="44.41234" lon="1.0159">
        <ele>147</ele>
        <time>2012-04-01T06:58:26Z</time>
      </trkpt>
      <trkpt lat="44.41232" lon="1.01583">
        <ele>147</ele>
        <time>2012-04-01T06:58:27Z</time>
      </trkpt>
      <trkpt lat="44.4123" lon="1.01576">
        <ele>147</ele>
        <time>2012-04-01T06:58:28Z</time>
      </trkpt>
      <trkpt lat="44.41228" lon="1.01569">
        <ele>147</ele>
        <time>2012-04-01T06:58:29Z</time>
      </trkpt>
      <trkpt lat="44.41227" lon="1.01562">
        <ele>147</ele>
        <time>2012-04-01T06:58:30Z</time>
      </trkpt>
      <trkpt lat="44.41225" lon="1.01554">
        <ele>147</ele>
        <time>2012-04-01T06:58:31Z</time>
      </trkpt>
      <trkpt lat="44.41223" lon="1.01547">
        <ele>147</ele>
        <time>2012-04-01T06:58:32Z</time>
      </trkpt>
      <trkpt lat="44.4122" lon="1.0154">
        <ele>147</ele>
        <time>2012-04-01T06:58:33Z</time>
      </trkpt>
      <trkpt lat="44.41217" lon="1.01532">
        <ele>147</ele>
        <time>2012-04-01T06:58:34Z</time>
      </trkpt>
      <trkpt lat="44.41216" lon="1.01525">
        <ele>147</ele>
        <time>2012-04-01T06:58:35Z</time>
      </trkpt>
      <trkpt lat="44.41215" lon="1.01517">
        <ele>147</ele>
        <time>2012-04-01T06:58:36Z</time>
      </trkpt>
      <trkpt lat="44.41214" lon="1.01509">
        <ele>147</ele>
        <time>2012-04-01T06:58:37Z</time>
      </trkpt>
      <trkpt lat="44.41214" lon="1.01502">
        <ele>147</ele>
        <time>2012-04-01T06:58:38Z</time>
      </trkpt>
      <trkpt lat="44.41214" lon="1.01494">
        <ele>147</ele>
        <time>2012-04-01T06:58:39Z</time>
      </trkpt>
      <trkpt lat="44.41214" lon="1.01487">
        <ele>148</ele>
        <time>2012-04-01T06:58:40Z</time>
      </trkpt>
      <trkpt lat="44.41214" lon="1.01479">
        <ele>149</ele>
        <time>2012-04-01T06:58:41Z</time>
      </trkpt>
      <trkpt lat="44.41214" lon="1.01472">
        <ele>150</ele>
        <time>2012-04-01T06:58:42Z</time>
      </trkpt>
      <trkpt lat="44.41214" lon="1.01464">
        <ele>151</ele>
        <time>2012-04-01T06:58:43Z</time>
      </trkpt>
      <trkpt lat="44.41215" lon="1.01456">
        <ele>152</ele>
        <time>2012-04-01T06:58:44Z</time>
      </trkpt>
      <trkpt lat="44.41216" lon="1.01448">
        <ele>152</ele>
        <time>2012-04-01T06:58:45Z</time>
      </trkpt>
      <trkpt lat="44.41217" lon="1.0144">
        <ele>153</ele>
        <time>2012-04-01T06:58:46Z</time>
      </trkpt>
      <trkpt lat="44.41217" lon="1.01432">
        <ele>154</ele>
        <time>2012-04-01T06:58:47Z</time>
      </trkpt>
      <trkpt lat="44.41218" lon="1.01424">
        <ele>154</ele>
        <time>2012-04-01T06:58:48Z</time>
      </trkpt>
      <trkpt lat="44.41219" lon="1.01415">
        <ele>154</ele>
        <time>2012-04-01T06:58:49Z</time>
      </trkpt>
      <trkpt lat="44.41221" lon="1.01406">
        <ele>154</ele>
        <time>2012-04-01T06:58:50Z</time>
      </trkpt>
      <trkpt lat="44.41222" lon="1.01398">
        <ele>155</ele>
        <time>2012-04-01T06:58:51Z</time>
      </trkpt>
      <trkpt lat="44.41223" lon="1.01389">
        <ele>155</ele>
        <time>2012-04-01T06:58:52Z</time>
      </trkpt>
      <trkpt lat="44.41224" lon="1.01382">
        <ele>155</ele>
        <time>2012-04-01T06:58:53Z</time>
      </trkpt>
      <trkpt lat="44.41225" lon="1.01374">
        <ele>155</ele>
        <time>2012-04-01T06:58:54Z</time>
      </trkpt>
      <trkpt lat="44.41227" lon="1.01365">
        <ele>155</ele>
        <time>2012-04-01T06:58:55Z</time>
      </trkpt>
      <trkpt lat="44.41228" lon="1.01358">
        <ele>155</ele>
        <time>2012-04-01T06:58:56Z</time>
      </trkpt>
      <trkpt lat="44.4123" lon="1.01351">
        <ele>155</ele>
        <time>2012-04-01T06:58:57Z</time>
      </trkpt>
      <trkpt lat="44.41232" lon="1.01344">
        <ele>155</ele>
        <time>2012-04-01T06:58:58Z</time>
      </trkpt>
      <trkpt lat="44.41234" lon="1.01337">
        <ele>155</ele>
        <time>2012-04-01T06:58:59Z</time>
      </trkpt>
      <trkpt lat="44.41234" lon="1.0133">
        <ele>155</ele>
        <time>2012-04-01T06:59:00Z</time>
      </trkpt>
      <trkpt lat="44.41233" lon="1.01322">
        <ele>155</ele>
        <time>2012-04-01T06:59:01Z</time>
      </trkpt>
      <trkpt lat="44.41232" lon="1.01316">
        <ele>154</ele>
        <time>2012-04-01T06:59:02Z</time>
      </trkpt>
      <trkpt lat="44.4123" lon="1.0131">
        <ele>153</ele>
        <time>2012-04-01T06:59:03Z</time>
      </trkpt>
      <trkpt lat="44.41227" lon="1.01305">
        <ele>153</ele>
        <time>2012-04-01T06:59:04Z</time>
      </trkpt>
      <trkpt lat="44.41225" lon="1.01299">
        <ele>152</ele>
        <time>2012-04-01T06:59:05Z</time>
      </trkpt>
      <trkpt lat="44.41222" lon="1.01293">
        <ele>152</ele>
        <time>2012-04-01T06:59:06Z</time>
      </trkpt>
      <trkpt lat="44.4122" lon="1.01288">
        <ele>152</ele>
        <time>2012-04-01T06:59:07Z</time>
      </trkpt>
      <trkpt lat="44.41217" lon="1.01282">
        <ele>151</ele>
        <time>2012-04-01T06:59:08Z</time>
      </trkpt>
      <trkpt lat="44.41215" lon="1.01277">
        <ele>151</ele>
        <time>2012-04-01T06:59:09Z</time>
      </trkpt>
      <trkpt lat="44.41212" lon="1.01271">
        <ele>151</ele>
        <time>2012-04-01T06:59:10Z</time>
      </trkpt>
      <trkpt lat="44.41209" lon="1.01267">
        <ele>151</ele>
        <time>2012-04-01T06:59:11Z</time>
      </trkpt>
      <trkpt lat="44.41207" lon="1.01262">
        <ele>151</ele>
        <time>2012-04-01T06:59:12Z</time>
      </trkpt>
      <trkpt lat="44.41203" lon="1.01257">
        <ele>151</ele>
        <time>2012-04-01T06:59:13Z</time>
      </trkpt>
      <trkpt lat="44.412" lon="1.01251">
        <ele>151</ele>
        <time>2012-04-01T06:59:14Z</time>
      </trkpt>
      <trkpt lat="44.41196" lon="1.01247">
        <ele>150</ele>
        <time>2012-04-01T06:59:15Z</time>
      </trkpt>
      <trkpt lat="44.41192" lon="1.01242">
        <ele>149</ele>
        <time>2012-04-01T06:59:16Z</time>
      </trkpt>
      <trkpt lat="44.41188" lon="1.01237">
        <ele>148</ele>
        <time>2012-04-01T06:59:17Z</time>
      </trkpt>
      <trkpt lat="44.41182" lon="1.01235">
        <ele>148</ele>
        <time>2012-04-01T06:59:18Z</time>
      </trkpt>
      <trkpt lat="44.41177" lon="1.01233">
        <ele>147</ele>
        <time>2012-04-01T06:59:19Z</time>
      </trkpt>
      <trkpt lat="44.41172" lon="1.01231">
        <ele>146</ele>
        <time>2012-04-01T06:59:20Z</time>
      </trkpt>
      <trkpt lat="44.41165" lon="1.01229">
        <ele>146</ele>
        <time>2012-04-01T06:59:21Z</time>
      </trkpt>
      <trkpt lat="44.41159" lon="1.01229">
        <ele>146</ele>
        <time>2012-04-01T06:59:22Z</time>
      </trkpt>
      <trkpt lat="44.41153" lon="1.0123">
        <ele>146</ele>
        <time>2012-04-01T06:59:23Z</time>
      </trkpt>
      <trkpt lat="44.41145" lon="1.01231">
        <ele>146</ele>
        <time>2012-04-01T06:59:24Z</time>
      </trkpt>
      <trkpt lat="44.4114" lon="1.01233">
        <ele>146</ele>
        <time>2012-04-01T06:59:25Z</time>
      </trkpt>
      <trkpt lat="44.41133" lon="1.01235">
        <ele>145</ele>
        <time>2012-04-01T06:59:26Z</time>
      </trkpt>
      <trkpt lat="44.41128" lon="1.01238">
        <ele>145</ele>
        <time>2012-04-01T06:59:27Z</time>
      </trkpt>
      <trkpt lat="44.41124" lon="1.01243">
        <ele>144</ele>
        <time>2012-04-01T06:59:28Z</time>
      </trkpt>
      <trkpt lat="44.41119" lon="1.01249">
        <ele>143</ele>
        <time>2012-04-01T06:59:29Z</time>
      </trkpt>
      <trkpt lat="44.41115" lon="1.01255">
        <ele>142</ele>
        <time>2012-04-01T06:59:30Z</time>
      </trkpt>
      <trkpt lat="44.4111" lon="1.01261">
        <ele>141</ele>
        <time>2012-04-01T06:59:31Z</time>
      </trkpt>
      <trkpt lat="44.41106" lon="1.01267">
        <ele>140</ele>
        <time>2012-04-01T06:59:32Z</time>
      </trkpt>
      <trkpt lat="44.41101" lon="1.01272">
        <ele>139</ele>
        <time>2012-04-01T06:59:33Z</time>
      </trkpt>
      <trkpt lat="44.41097" lon="1.01275">
        <ele>138</ele>
        <time>2012-04-01T06:59:34Z</time>
      </trkpt>
      <trkpt lat="44.41092" lon="1.01278">
        <ele>137</ele>
        <time>2012-04-01T06:59:35Z</time>
      </trkpt>
      <trkpt lat="44.41087" lon="1.01279">
        <ele>136</ele>
        <time>2012-04-01T06:59:36Z</time>
      </trkpt>
      <trkpt lat="44.41082" lon="1.0128">
        <ele>136</ele>
        <time>2012-04-01T06:59:37Z</time>
      </trkpt>
      <trkpt lat="44.41076" lon="1.0128">
        <ele>136</ele>
        <time>2012-04-01T06:59:38Z</time>
      </trkpt>
      <trkpt lat="44.41071" lon="1.0128">
        <ele>136</ele>
        <time>2012-04-01T06:59:39Z</time>
      </trkpt>
      <trkpt lat="44.41066" lon="1.0128">
        <ele>136</ele>
        <time>2012-04-01T06:59:40Z</time>
      </trkpt>
      <trkpt lat="44.41061" lon="1.0128">
        <ele>136</ele>
        <time>2012-04-01T06:59:41Z</time>
      </trkpt>
      <trkpt lat="44.41057" lon="1.01281">
        <ele>136</ele>
        <time>2012-04-01T06:59:42Z</time>
      </trkpt>
      <trkpt lat="44.41051" lon="1.01281">
        <ele>136</ele>
        <time>2012-04-01T06:59:43Z</time>
      </trkpt>
      <trkpt lat="44.41046" lon="1.0128">
        <ele>136</ele>
        <time>2012-04-01T06:59:44Z</time>
      </trkpt>
      <trkpt lat="44.41041" lon="1.0128">
        <ele>136</ele>
        <time>2012-04-01T06:59:45Z</time>
      </trkpt>
      <trkpt lat="44.41035" lon="1.01279">
        <ele>136</ele>
        <time>2012-04-01T06:59:46Z</time>
      </trkpt>
      <trkpt lat="44.41029" lon="1.01279">
        <ele>136</ele>
        <time>2012-04-01T06:59:47Z</time>
      </trkpt>
      <trkpt lat="44.41024" lon="1.01278">
        <ele>136</ele>
        <time>2012-04-01T06:59:48Z</time>
      </trkpt>
      <trkpt lat="44.41019" lon="1.01277">
        <ele>136</ele>
        <time>2012-04-01T06:59:49Z</time>
      </trkpt>
      <trkpt lat="44.41014" lon="1.01275">
        <ele>136</ele>
        <time>2012-04-01T06:59:50Z</time>
      </trkpt>
      <trkpt lat="44.4101" lon="1.01274">
        <ele>136</ele>
        <time>2012-04-01T06:59:51Z</time>
      </trkpt>
      <trkpt lat="44.41005" lon="1.01272">
        <ele>136</ele>
        <time>2012-04-01T06:59:52Z</time>
      </trkpt>
      <trkpt lat="44.41" lon="1.01271">
        <ele>136</ele>
        <time>2012-04-01T06:59:53Z</time>
      </trkpt>
      <trkpt lat="44.40995" lon="1.0127">
        <ele>136</ele>
        <time>2012-04-01T06:59:54Z</time>
      </trkpt>
      <trkpt lat="44.4099" lon="1.01269">
        <ele>136</ele>
        <time>2012-04-01T06:59:55Z</time>
      </trkpt>
      <trkpt lat="44.40985" lon="1.01267">
        <ele>136</ele>
        <time>2012-04-01T06:59:56Z</time>
      </trkpt>
      <trkpt lat="44.4098" lon="1.01265">
        <ele>136</ele>
        <time>2012-04-01T06:59:57Z</time>
      </trkpt>
      <trkpt lat="44.40975" lon="1.01264">
        <ele>136</ele>
        <time>2012-04-01T06:59:58Z</time>
      </trkpt>
      <trkpt lat="44.4097" lon="1.01263">
        <ele>136</ele>
        <time>2012-04-01T06:59:59Z</time>
      </trkpt>
      <trkpt lat="44.40965" lon="1.01262">
        <ele>136</ele>
        <time>2012-04-01T07:00:00Z</time>
      </trkpt>
      <trkpt lat="44.4096" lon="1.01262">
        <ele>136</ele>
        <time>2012-04-01T07:00:01Z</time>
      </trkpt>
      <trkpt lat="44.40955" lon="1.01262">
        <ele>136</ele>
        <time>2012-04-01T07:00:02Z</time>
      </trkpt>
      <trkpt lat="44.4095" lon="1.01262">
        <ele>136</ele>
        <time>2012-04-01T07:00:03Z</time>
      </trkpt>
      <trkpt lat="44.40945" lon="1.01262">
        <ele>136</ele>
        <time>2012-04-01T07:00:04Z</time>
      </trkpt>
      <trkpt lat="44.4094" lon="1.01262">
        <ele>136</ele>
        <time>2012-04-01T07:00:05Z</time>
      </trkpt>
      <trkpt lat="44.40934" lon="1.01262">
        <ele>136</ele>
        <time>2012-04-01T07:00:06Z</time>
      </trkpt>
      <trkpt lat="44.40929" lon="1.01262">
        <ele>136</ele>
        <time>2012-04-01T07:00:07Z</time>
      </trkpt>
      <trkpt lat="44.40924" lon="1.01262">
        <ele>136</ele>
        <time>2012-04-01T07:00:08Z</time>
      </trkpt>
      <trkpt lat="44.40918" lon="1.01262">
        <ele>136</ele>
        <time>2012-04-01T07:00:09Z</time>
      </trkpt>
      <trkpt lat="44.40912" lon="1.01262">
        <ele>136</ele>
        <time>2012-04-01T07:00:10Z</time>
      </trkpt>
      <trkpt lat="44.40906" lon="1.01262">
        <ele>136</ele>
        <time>2012-04-01T07:00:11Z</time>
      </trkpt>
      <trkpt lat="44.409" lon="1.01261">
        <ele>136</ele>
        <time>2012-04-01T07:00:12Z</time>
      </trkpt>
      <trkpt lat="44.40895" lon="1.0126">
        <ele>136</ele>
        <time>2012-04-01T07:00:13Z</time>
      </trkpt>
      <trkpt lat="44.4089" lon="1.0126">
        <ele>136</ele>
        <time>2012-04-01T07:00:14Z</time>
      </trkpt>
      <trkpt lat="44.40885" lon="1.01259">
        <ele>136</ele>
        <time>2012-04-01T07:00:15Z</time>
      </trkpt>
      <trkpt lat="44.40878" lon="1.01258">
        <ele>136</ele>
        <time>2012-04-01T07:00:16Z</time>
      </trkpt>
      <trkpt lat="44.40872" lon="1.01258">
        <ele>136</ele>
        <time>2012-04-01T07:00:17Z</time>
      </trkpt>
      <trkpt lat="44.40866" lon="1.01257">
        <ele>136</ele>
        <time>2012-04-01T07:00:18Z</time>
      </trkpt>
      <trkpt lat="44.4086" lon="1.01257">
        <ele>136</ele>
        <time>2012-04-01T07:00:19Z</time>
      </trkpt>
      <trkpt lat="44.40855" lon="1.01257">
        <ele>136</ele>
        <time>2012-04-01T07:00:20Z</time>
      </trkpt>
      <trkpt lat="44.4085" lon="1.01257">
        <ele>136</ele>
        <time>2012-04-01T07:00:21Z</time>
      </trkpt>
      <trkpt lat="44.40845" lon="1.01256">
        <ele>136</ele>
        <time>2012-04-01T07:00:22Z</time>
      </trkpt>
      <trkpt lat="44.4084" lon="1.01256">
        <ele>136</ele>
        <time>2012-04-01T07:00:23Z</time>
      </trkpt>
      <trkpt lat="44.40836" lon="1.01256">
        <ele>136</ele>
        <time>2012-04-01T07:00:24Z</time>
      </trkpt>
      <trkpt lat="44.40831" lon="1.01255">
        <ele>136</ele>
        <time>2012-04-01T07:00:25Z</time>
      </trkpt>
      <trkpt lat="44.40827" lon="1.01255">
        <ele>136</ele>
        <time>2012-04-01T07:00:26Z</time>
      </trkpt>
      <trkpt lat="44.40822" lon="1.01254">
        <ele>136</ele>
        <time>2012-04-01T07:00:27Z</time>
      </trkpt>
      <trkpt lat="44.40816" lon="1.01253">
        <ele>136</ele>
        <time>2012-04-01T07:00:28Z</time>
      </trkpt>
      <trkpt lat="44.4081" lon="1.01252">
        <ele>136</ele>
        <time>2012-04-01T07:00:29Z</time>
      </trkpt>
      <trkpt lat="44.40804" lon="1.0125">
        <ele>136</ele>
        <time>2012-04-01T07:00:30Z</time>
      </trkpt>
      <trkpt lat="44.40799" lon="1.01249">
        <ele>136</ele>
        <time>2012-04-01T07:00:31Z</time>
      </trkpt>
      <trkpt lat="44.40793" lon="1.01247">
        <ele>136</ele>
        <time>2012-04-01T07:00:32Z</time>
      </trkpt>
      <trkpt lat="44.40787" lon="1.01246">
        <ele>136</ele>
        <time>2012-04-01T07:00:33Z</time>
      </trkpt>
      <trkpt lat="44.40781" lon="1.01244">
        <ele>136</ele>
        <time>2012-04-01T07:00:34Z</time>
      </trkpt>
      <trkpt lat="44.40776" lon="1.01242">
        <ele>136</ele>
        <time>2012-04-01T07:00:35Z</time>
      </trkpt>
      <trkpt lat="44.4077" lon="1.01241">
        <ele>136</ele>
        <time>2012-04-01T07:00:36Z</time>
      </trkpt>
      <trkpt lat="44.40764" lon="1.01239">
        <ele>136</ele>
        <time>2012-04-01T07:00:37Z</time>
      </trkpt>
      <trkpt lat="44.40759" lon="1.01238">
        <ele>136</ele>
        <time>2012-04-01T07:00:38Z</time>
      </trkpt>
      <trkpt lat="44.40755" lon="1.01238">
        <ele>136</ele>
        <time>2012-04-01T07:00:39Z</time>
      </trkpt>
      <trkpt lat="44.40751" lon="1.01241">
        <ele>136</ele>
        <time>2012-04-01T07:00:40Z</time>
      </trkpt>
      <trkpt lat="44.40749" lon="1.01245">
        <ele>136</ele>
        <time>2012-04-01T07:00:41Z</time>
      </trkpt>
      <trkpt lat="44.40748" lon="1.0125">
        <ele>136</ele>
        <time>2012-04-01T07:00:42Z</time>
      </trkpt>
      <trkpt lat="44.40748" lon="1.01257">
        <ele>136</ele>
        <time>2012-04-01T07:00:43Z</time>
      </trkpt>
      <trkpt lat="44.40749" lon="1.01264">
        <ele>136</ele>
        <time>2012-04-01T07:00:44Z</time>
      </trkpt>
      <trkpt lat="44.40751" lon="1.01271">
        <ele>136</ele>
        <time>2012-04-01T07:00:45Z</time>
      </trkpt>
      <trkpt lat="44.40752" lon="1.01279">
        <ele>136</ele>
        <time>2012-04-01T07:00:46Z</time>
      </trkpt>
      <trkpt lat="44.40754" lon="1.01287">
        <ele>136</ele>
        <time>2012-04-01T07:00:47Z</time>
      </trkpt>
      <trkpt lat="44.40755" lon="1.01295">
        <ele>136</ele>
        <time>2012-04-01T07:00:48Z</time>
      </trkpt>
      <trkpt lat="44.40757" lon="1.01302">
        <ele>136</ele>
        <time>2012-04-01T07:00:49Z</time>
      </trkpt>
      <trkpt lat="44.40758" lon="1.0131">
        <ele>136</ele>
        <time>2012-04-01T07:00:50Z</time>
      </trkpt>
      <trkpt lat="44.40759" lon="1.01318">
        <ele>136</ele>
        <time>2012-04-01T07:00:51Z</time>
      </trkpt>
      <trkpt lat="44.4076" lon="1.01326">
        <ele>136</ele>
        <time>2012-04-01T07:00:52Z</time>
      </trkpt>
      <trkpt lat="44.40762" lon="1.01334">
        <ele>136</ele>
        <time>2012-04-01T07:00:53Z</time>
      </trkpt>
      <trkpt lat="44.40763" lon="1.01342">
        <ele>136</ele>
        <time>2012-04-01T07:00:54Z</time>
      </trkpt>
      <trkpt lat="44.40764" lon="1.0135">
        <ele>136</ele>
        <time>2012-04-01T07:00:55Z</time>
      </trkpt>
      <trkpt lat="44.40765" lon="1.01357">
        <ele>136</ele>
        <time>2012-04-01T07:00:56Z</time>
      </trkpt>
      <trkpt lat="44.40767" lon="1.01365">
        <ele>136</ele>
        <time>2012-04-01T07:00:57Z</time>
      </trkpt>
      <trkpt lat="44.40768" lon="1.01372">
        <ele>136</ele>
        <time>2012-04-01T07:00:58Z</time>
      </trkpt>
      <trkpt lat="44.40769" lon="1.01379">
        <ele>136</ele>
        <time>2012-04-01T07:00:59Z</time>
      </trkpt>
      <trkpt lat="44.4077" lon="1.01386">
        <ele>136</ele>
        <time>2012-04-01T07:01:00Z</time>
      </trkpt>
      <trkpt lat="44.40771" lon="1.01393">
        <ele>136</ele>
        <time>2012-04-01T07:01:01Z</time>
      </trkpt>
      <trkpt lat="44.40772" lon="1.01401">
        <ele>136</ele>
        <time>2012-04-01T07:01:02Z</time>
      </trkpt>
      <trkpt lat="44.40773" lon="1.01407">
        <ele>136</ele>
        <time>2012-04-01T07:01:03Z</time>
      </trkpt>
      <trkpt lat="44.40775" lon="1.01414">
        <ele>136</ele>
        <time>2012-04-01T07:01:04Z</time>
      </trkpt>
      <trkpt lat="44.40775" lon="1.01419">
        <ele>136</ele>
        <time>2012-04-01T07:01:05Z</time>
      </trkpt>
      <trkpt lat="44.40775" lon="1.01425">
        <ele>136</ele>
        <time>2012-04-01T07:01:06Z</time>
      </trkpt>
      <trkpt lat="44.40775" lon="1.0143">
        <ele>136</ele>
        <time>2012-04-01T07:01:07Z</time>
      </trkpt>
      <trkpt lat="44.40775" lon="1.01435">
        <ele>136</ele>
        <time>2012-04-01T07:01:08Z</time>
      </trkpt>
      <trkpt lat="44.40775" lon="1.01439">
        <ele>136</ele>
        <time>2012-04-01T07:01:09Z</time>
      </trkpt>
      <trkpt lat="44.40776" lon="1.01443">
        <ele>136</ele>
        <time>2012-04-01T07:01:10Z</time>
      </trkpt>
      <trkpt lat="44.40777" lon="1.01447">
        <ele>137</ele>
        <time>2012-04-01T07:01:11Z</time>
      </trkpt>
      <trkpt lat="44.40778" lon="1.01452">
        <ele>137</ele>
        <time>2012-04-01T07:01:12Z</time>
      </trkpt>
      <trkpt lat="44.4078" lon="1.01456">
        <ele>138</ele>
        <time>2012-04-01T07:01:13Z</time>
      </trkpt>
      <trkpt lat="44.40781" lon="1.0146">
        <ele>138</ele>
        <time>2012-04-01T07:01:14Z</time>
      </trkpt>
      <trkpt lat="44.40782" lon="1.01464">
        <ele>139</ele>
        <time>2012-04-01T07:01:15Z</time>
      </trkpt>
      <trkpt lat="44.40783" lon="1.01469">
        <ele>140</ele>
        <time>2012-04-01T07:01:16Z</time>
      </trkpt>
      <trkpt lat="44.40784" lon="1.01473">
        <ele>140</ele>
        <time>2012-04-01T07:01:17Z</time>
      </trkpt>
      <trkpt lat="44.40785" lon="1.01478">
        <ele>141</ele>
        <time>2012-04-01T07:01:18Z</time>
      </trkpt>
      <trkpt lat="44.40786" lon="1.01482">
        <ele>142</ele>
        <time>2012-04-01T07:01:19Z</time>
      </trkpt>
      <trkpt lat="44.40788" lon="1.01486">
        <ele>142</ele>
        <time>2012-04-01T07:01:20Z</time>
      </trkpt>
      <trkpt lat="44.4079" lon="1.0149">
        <ele>143</ele>
        <time>2012-04-01T07:01:22Z</time>
      </trkpt>
      <trkpt lat="44.40792" lon="1.01494">
        <ele>143</ele>
        <time>2012-04-01T07:01:22Z</time>
      </trkpt>
      <trkpt lat="44.40794" lon="1.01499">
        <ele>144</ele>
        <time>2012-04-01T07:01:23Z</time>
      </trkpt>
      <trkpt lat="44.40796" lon="1.01504">
        <ele>144</ele>
        <time>2012-04-01T07:01:24Z</time>
      </trkpt>
      <trkpt lat="44.40797" lon="1.01508">
        <ele>145</ele>
        <time>2012-04-01T07:01:25Z</time>
      </trkpt>
      <trkpt lat="44.40799" lon="1.01512">
        <ele>145</ele>
        <time>2012-04-01T07:01:26Z</time>
      </trkpt>
      <trkpt lat="44.40801" lon="1.01516">
        <ele>145</ele>
        <time>2012-04-01T07:01:27Z</time>
      </trkpt>
      <trkpt lat="44.40802" lon="1.01521">
        <ele>145</ele>
        <time>2012-04-01T07:01:28Z</time>
      </trkpt>
      <trkpt lat="44.40805" lon="1.01524">
        <ele>146</ele>
        <time>2012-04-01T07:01:29Z</time>
      </trkpt>
      <trkpt lat="44.40807" lon="1.01529">
        <ele>146</ele>
        <time>2012-04-01T07:01:30Z</time>
      </trkpt>
      <trkpt lat="44.40809" lon="1.01532">
        <ele>146</ele>
        <time>2012-04-01T07:01:31Z</time>
      </trkpt>
      <trkpt lat="44.40811" lon="1.01535">
        <ele>146</ele>
        <time>2012-04-01T07:01:32Z</time>
      </trkpt>
      <trkpt lat="44.40813" lon="1.01539">
        <ele>147</ele>
        <time>2012-04-01T07:01:33Z</time>
      </trkpt>
      <trkpt lat="44.40814" lon="1.01543">
        <ele>147</ele>
        <time>2012-04-01T07:01:34Z</time>
      </trkpt>
      <trkpt lat="44.40816" lon="1.01547">
        <ele>147</ele>
        <time>2012-04-01T07:01:35Z</time>
      </trkpt>
      <trkpt lat="44.40818" lon="1.0155">
        <ele>148</ele>
        <time>2012-04-01T07:01:36Z</time>
      </trkpt>
      <trkpt lat="44.4082" lon="1.01554">
        <ele>148</ele>
        <time>2012-04-01T07:01:37Z</time>
      </trkpt>
      <trkpt lat="44.40822" lon="1.01558">
        <ele>148</ele>
        <time>2012-04-01T07:01:38Z</time>
      </trkpt>
      <trkpt lat="44.40825" lon="1.01561">
        <ele>149</ele>
        <time>2012-04-01T07:01:39Z</time>
      </trkpt>
      <trkpt lat="44.40827" lon="1.01565">
        <ele>149</ele>
        <time>2012-04-01T07:01:40Z</time>
      </trkpt>
      <trkpt lat="44.4083" lon="1.01569">
        <ele>150</ele>
        <time>2012-04-01T07:01:41Z</time>
      </trkpt>
      <trkpt lat="44.40832" lon="1.01573">
        <ele>150</ele>
        <time>2012-04-01T07:01:42Z</time>
      </trkpt>
      <trkpt lat="44.40834" lon="1.01576">
        <ele>150</ele>
        <time>2012-04-01T07:01:43Z</time>
      </trkpt>
      <trkpt lat="44.40837" lon="1.0158">
        <ele>151</ele>
        <time>2012-04-01T07:01:44Z</time>
      </trkpt>
      <trkpt lat="44.40839" lon="1.01584">
        <ele>151</ele>
        <time>2012-04-01T07:01:45Z</time>
      </trkpt>
      <trkpt lat="44.40842" lon="1.01587">
        <ele>151</ele>
        <time>2012-04-01T07:01:46Z</time>
      </trkpt>
      <trkpt lat="44.40844" lon="1.0159">
        <ele>151</ele>
        <time>2012-04-01T07:01:47Z</time>
      </trkpt>
      <trkpt lat="44.40846" lon="1.01593">
        <ele>151</ele>
        <time>2012-04-01T07:01:48Z</time>
      </trkpt>
      <trkpt lat="44.40848" lon="1.01597">
        <ele>151</ele>
        <time>2012-04-01T07:01:49Z</time>
      </trkpt>
      <trkpt lat="44.4085" lon="1.016">
        <ele>151</ele>
        <time>2012-04-01T07:01:50Z</time>
      </trkpt>
      <trkpt lat="44.40852" lon="1.01603">
        <ele>151</ele>
        <time>2012-04-01T07:01:51Z</time>
      </trkpt>
      <trkpt lat="44.40854" lon="1.01606">
        <ele>151</ele>
        <time>2012-04-01T07:01:52Z</time>
      </trkpt>
      <trkpt lat="44.40857" lon="1.0161">
        <ele>151</ele>
        <time>2012-04-01T07:01:53Z</time>
      </trkpt>
      <trkpt lat="44.40859" lon="1.01613">
        <ele>152</ele>
        <time>2012-04-01T07:01:54Z</time>
      </trkpt>
      <trkpt lat="44.40861" lon="1.01616">
        <ele>152</ele>
        <time>2012-04-01T07:01:55Z</time>
      </trkpt>
      <trkpt lat="44.40863" lon="1.01619">
        <ele>152</ele>
        <time>2012-04-01T07:01:56Z</time>
      </trkpt>
      <trkpt lat="44.40865" lon="1.01622">
        <ele>152</ele>
        <time>2012-04-01T07:01:57Z</time>
      </trkpt>
      <trkpt lat="44.40868" lon="1.01626">
        <ele>152</ele>
        <time>2012-04-01T07:01:58Z</time>
      </trkpt>
      <trkpt lat="44.4087" lon="1.01629">
        <ele>152</ele>
        <time>2012-04-01T07:01:59Z</time>
      </trkpt>
      <trkpt lat="44.40873" lon="1.01632">
        <ele>152</ele>
        <time>2012-04-01T07:02:00Z</time>
      </trkpt>
      <trkpt lat="44.40875" lon="1.01635">
        <ele>153</ele>
        <time>2012-04-01T07:02:01Z</time>
      </trkpt>
      <trkpt lat="44.40877" lon="1.01638">
        <ele>153</ele>
        <time>2012-04-01T07:02:02Z</time>
      </trkpt>
      <trkpt lat="44.4088" lon="1.01641">
        <ele>154</ele>
        <time>2012-04-01T07:02:03Z</time>
      </trkpt>
      <trkpt lat="44.40882" lon="1.01644">
        <ele>154</ele>
        <time>2012-04-01T07:02:04Z</time>
      </trkpt>
      <trkpt lat="44.40885" lon="1.01646">
        <ele>154</ele>
        <time>2012-04-01T07:02:05Z</time>
      </trkpt>
      <trkpt lat="44.40887" lon="1.01649">
        <ele>154</ele>
        <time>2012-04-01T07:02:06Z</time>
      </trkpt>
      <trkpt lat="44.40889" lon="1.01652">
        <ele>154</ele>
        <time>2012-04-01T07:02:07Z</time>
      </trkpt>
      <trkpt lat="44.40892" lon="1.01654">
        <ele>154</ele>
        <time>2012-04-01T07:02:08Z</time>
      </trkpt>
      <trkpt lat="44.40894" lon="1.01656">
        <ele>154</ele>
        <time>2012-04-01T07:02:09Z</time>
      </trkpt>
      <trkpt lat="44.40897" lon="1.01658">
        <ele>154</ele>
        <time>2012-04-01T07:02:10Z</time>
      </trkpt>
      <trkpt lat="44.40899" lon="1.0166">
        <ele>154</ele>
        <time>2012-04-01T07:02:11Z</time>
      </trkpt>
      <trkpt lat="44.40901" lon="1.01661">
        <ele>154</ele>
        <time>2012-04-01T07:02:12Z</time>
      </trkpt>
      <trkpt lat="44.40903" lon="1.01663">
        <ele>154</ele>
        <time>2012-04-01T07:02:13Z</time>
      </trkpt>
      <trkpt lat="44.40905" lon="1.01665">
        <ele>154</ele>
        <time>2012-04-01T07:02:14Z</time>
      </trkpt>
      <trkpt lat="44.40907" lon="1.01666">
        <ele>154</ele>
        <time>2012-04-01T07:02:15Z</time>
      </trkpt>
      <trkpt lat="44.4091" lon="1.01668">
        <ele>154</ele>
        <time>2012-04-01T07:02:16Z</time>
      </trkpt>
      <trkpt lat="44.40912" lon="1.01669">
        <ele>154</ele>
        <time>2012-04-01T07:02:17Z</time>
      </trkpt>
      <trkpt lat="44.40914" lon="1.01671">
        <ele>154</ele>
        <time>2012-04-01T07:02:18Z</time>
      </trkpt>
      <trkpt lat="44.40917" lon="1.01673">
        <ele>154</ele>
        <time>2012-04-01T07:02:19Z</time>
      </trkpt>
      <trkpt lat="44.40919" lon="1.01674">
        <ele>154</ele>
        <time>2012-04-01T07:02:20Z</time>
      </trkpt>
      <trkpt lat="44.40922" lon="1.01675">
        <ele>154</ele>
        <time>2012-04-01T07:02:21Z</time>
      </trkpt>
      <trkpt lat="44.40924" lon="1.01676">
        <ele>154</ele>
        <time>2012-04-01T07:02:22Z</time>
      </trkpt>
      <trkpt lat="44.40927" lon="1.01677">
        <ele>154</ele>
        <time>2012-04-01T07:02:23Z</time>
      </trkpt>
      <trkpt lat="44.4093" lon="1.01678">
        <ele>154</ele>
        <time>2012-04-01T07:02:24Z</time>
      </trkpt>
      <trkpt lat="44.40932" lon="1.0168">
        <ele>154</ele>
        <time>2012-04-01T07:02:25Z</time>
      </trkpt>
      <trkpt lat="44.40934" lon="1.01681">
        <ele>154</ele>
        <time>2012-04-01T07:02:26Z</time>
      </trkpt>
      <trkpt lat="44.40935" lon="1.01681">
        <ele>154</ele>
        <time>2012-04-01T07:02:27Z</time>
      </trkpt>
      <trkpt lat="44.40937" lon="1.01682">
        <ele>154</ele>
        <time>2012-04-01T07:02:28Z</time>
      </trkpt>
      <trkpt lat="44.40938" lon="1.01682">
        <ele>154</ele>
        <time>2012-04-01T07:02:29Z</time>
      </trkpt>
      <trkpt lat="44.4094" lon="1.01682">
        <ele>154</ele>
        <time>2012-04-01T07:02:30Z</time>
      </trkpt>
      <trkpt lat="44.40942" lon="1.01682">
        <ele>154</ele>
        <time>2012-04-01T07:02:31Z</time>
      </trkpt>
      <trkpt lat="44.40944" lon="1.01683">
        <ele>154</ele>
        <time>2012-04-01T07:02:32Z</time>
      </trkpt>
      <trkpt lat="44.40946" lon="1.01683">
        <ele>154</ele>
        <time>2012-04-01T07:02:33Z</time>
      </trkpt>
      <trkpt lat="44.40947" lon="1.01684">
        <ele>154</ele>
        <time>2012-04-01T07:02:34Z</time>
      </trkpt>
      <trkpt lat="44.40949" lon="1.01684">
        <ele>154</ele>
        <time>2012-04-01T07:02:35Z</time>
      </trkpt>
      <trkpt lat="44.40952" lon="1.01686">
        <ele>154</ele>
        <time>2012-04-01T07:02:36Z</time>
      </trkpt>
      <trkpt lat="44.40954" lon="1.01689">
        <ele>154</ele>
        <time>2012-04-01T07:02:37Z</time>
      </trkpt>
      <trkpt lat="44.40957" lon="1.01692">
        <ele>154</ele>
        <time>2012-04-01T07:02:38Z</time>
      </trkpt>
      <trkpt lat="44.4096" lon="1.01696">
        <ele>154</ele>
        <time>2012-04-01T07:02:39Z</time>
      </trkpt>
      <trkpt lat="44.40963" lon="1.017">
        <ele>154</ele>
        <time>2012-04-01T07:02:40Z</time>
      </trkpt>
      <trkpt lat="44.40968" lon="1.01705">
        <ele>154</ele>
        <time>2012-04-01T07:02:41Z</time>
      </trkpt>
      <trkpt lat="44.40972" lon="1.0171">
        <ele>154</ele>
        <time>2012-04-01T07:02:42Z</time>
      </trkpt>
      <trkpt lat="44.40977" lon="1.01716">
        <ele>154</ele>
        <time>2012-04-01T07:02:43Z</time>
      </trkpt>
      <trkpt lat="44.40983" lon="1.0172">
        <ele>154</ele>
        <time>2012-04-01T07:02:44Z</time>
      </trkpt>
      <trkpt lat="44.40989" lon="1.01725">
        <ele>154</ele>
        <time>2012-04-01T07:02:45Z</time>
      </trkpt>
      <trkpt lat="44.40994" lon="1.01729">
        <ele>155</ele>
        <time>2012-04-01T07:02:46Z</time>
      </trkpt>
      <trkpt lat="44.40999" lon="1.01733">
        <ele>156</ele>
        <time>2012-04-01T07:02:47Z</time>
      </trkpt>
      <trkpt lat="44.41003" lon="1.01737">
        <ele>157</ele>
        <time>2012-04-01T07:02:48Z</time>
      </trkpt>
      <trkpt lat="44.41008" lon="1.01741">
        <ele>158</ele>
        <time>2012-04-01T07:02:49Z</time>
      </trkpt>
      <trkpt lat="44.41013" lon="1.01744">
        <ele>158</ele>
        <time>2012-04-01T07:02:50Z</time>
      </trkpt>
      <trkpt lat="44.41018" lon="1.01748">
        <ele>159</ele>
        <time>2012-04-01T07:02:51Z</time>
      </trkpt>
      <trkpt lat="44.41022" lon="1.0175">
        <ele>159</ele>
        <time>2012-04-01T07:02:52Z</time>
      </trkpt>
      <trkpt lat="44.41028" lon="1.01752">
        <ele>160</ele>
        <time>2012-04-01T07:02:53Z</time>
      </trkpt>
      <trkpt lat="44.41033" lon="1.01753">
        <ele>161</ele>
        <time>2012-04-01T07:02:54Z</time>
      </trkpt>
      <trkpt lat="44.41037" lon="1.01754">
        <ele>161</ele>
        <time>2012-04-01T07:02:55Z</time>
      </trkpt>
      <trkpt lat="44.41042" lon="1.01755">
        <ele>161</ele>
        <time>2012-04-01T07:02:56Z</time>
      </trkpt>
      <trkpt lat="44.41046" lon="1.01755">
        <ele>161</ele>
        <time>2012-04-01T07:02:57Z</time>
      </trkpt>
      <trkpt lat="44.41051" lon="1.01757">
        <ele>161</ele>
        <time>2012-04-01T07:02:58Z</time>
      </trkpt>
      <trkpt lat="44.41055" lon="1.01758">
        <ele>161</ele>
        <time>2012-04-01T07:02:59Z</time>
      </trkpt>
      <trkpt lat="44.41059" lon="1.0176">
        <ele>161</ele>
        <time>2012-04-01T07:03:00Z</time>
      </trkpt>
      <trkpt lat="44.41064" lon="1.01763">
        <ele>161</ele>
        <time>2012-04-01T07:03:01Z</time>
      </trkpt>
      <trkpt lat="44.41068" lon="1.01765">
        <ele>161</ele>
        <time>2012-04-01T07:03:02Z</time>
      </trkpt>
      <trkpt lat="44.41072" lon="1.01767">
        <ele>161</ele>
        <time>2012-04-01T07:03:03Z</time>
      </trkpt>
      <trkpt lat="44.41077" lon="1.01769">
        <ele>161</ele>
        <time>2012-04-01T07:03:04Z</time>
      </trkpt>
      <trkpt lat="44.41081" lon="1.0177">
        <ele>161</ele>
        <time>2012-04-01T07:03:05Z</time>
      </trkpt>
      <trkpt lat="44.41085" lon="1.01773">
        <ele>161</ele>
        <time>2012-04-01T07:03:06Z</time>
      </trkpt>
      <trkpt lat="44.41088" lon="1.01775">
        <ele>161</ele>
        <time>2012-04-01T07:03:07Z</time>
      </trkpt>
      <trkpt lat="44.41093" lon="1.01778">
        <ele>161</ele>
        <time>2012-04-01T07:03:08Z</time>
      </trkpt>
      <trkpt lat="44.41096" lon="1.01781">
        <ele>161</ele>
        <time>2012-04-01T07:03:09Z</time>
      </trkpt>
      <trkpt lat="44.411" lon="1.01785">
        <ele>161</ele>
        <time>2012-04-01T07:03:10Z</time>
      </trkpt>
      <trkpt lat="44.41103" lon="1.01788">
        <ele>161</ele>
        <time>2012-04-01T07:03:11Z</time>
      </trkpt>
      <trkpt lat="44.41107" lon="1.01792">
        <ele>161</ele>
        <time>2012-04-01T07:03:12Z</time>
      </trkpt>
      <trkpt lat="44.4111" lon="1.01796">
        <ele>161</ele>
        <time>2012-04-01T07:03:13Z</time>
      </trkpt>
      <trkpt lat="44.41114" lon="1.01799">
        <ele>161</ele>
        <time>2012-04-01T07:03:14Z</time>
      </trkpt>
      <trkpt lat="44.41117" lon="1.01803">
        <ele>161</ele>
        <time>2012-04-01T07:03:15Z</time>
      </trkpt>
      <trkpt lat="44.4112" lon="1.01806">
        <ele>160</ele>
        <time>2012-04-01T07:03:16Z</time>
      </trkpt>
      <trkpt lat="44.41122" lon="1.0181">
        <ele>159</ele>
        <time>2012-04-01T07:03:17Z</time>
      </trkpt>
      <trkpt lat="44.41125" lon="1.01813">
        <ele>158</ele>
        <time>2012-04-01T07:03:18Z</time>
      </trkpt>
      <trkpt lat="44.41127" lon="1.01817">
        <ele>157</ele>
        <time>2012-04-01T07:03:19Z</time>
      </trkpt>
      <trkpt lat="44.4113" lon="1.01821">
        <ele>156</ele>
        <time>2012-04-01T07:03:20Z</time>
      </trkpt>
      <trkpt lat="44.41132" lon="1.01823">
        <ele>155</ele>
        <time>2012-04-01T07:03:21Z</time>
      </trkpt>
      <trkpt lat="44.41135" lon="1.01826">
        <ele>154</ele>
        <time>2012-04-01T07:03:22Z</time>
      </trkpt>
      <trkpt lat="44.41139" lon="1.01829">
        <ele>154</ele>
        <time>2012-04-01T07:03:23Z</time>
      </trkpt>
      <trkpt lat="44.41143" lon="1.01831">
        <ele>154</ele>
        <time>2012-04-01T07:03:24Z</time>
      </trkpt>
      <trkpt lat="44.41145" lon="1.01834">
        <ele>154</ele>
        <time>2012-04-01T07:03:25Z</time>
      </trkpt>
      <trkpt lat="44.41148" lon="1.01836">
        <ele>154</ele>
        <time>2012-04-01T07:03:26Z</time>
      </trkpt>
      <trkpt lat="44.41152" lon="1.01837">
        <ele>154</ele>
        <time>2012-04-01T07:03:27Z</time>
      </trkpt>
      <trkpt lat="44.41155" lon="1.01838">
        <ele>154</ele>
        <time>2012-04-01T07:03:28Z</time>
      </trkpt>
      <trkpt lat="44.41159" lon="1.01839">
        <ele>154</ele>
        <time>2012-04-01T07:03:29Z</time>
      </trkpt>
      <trkpt lat="44.41162" lon="1.0184">
        <ele>154</ele>
        <time>2012-04-01T07:03:30Z</time>
      </trkpt>
      <trkpt lat="44.41165" lon="1.01841">
        <ele>154</ele>
        <time>2012-04-01T07:03:31Z</time>
      </trkpt>
      <trkpt lat="44.41169" lon="1.01841">
        <ele>154</ele>
        <time>2012-04-01T07:03:32Z</time>
      </trkpt>
      <trkpt lat="44.41172" lon="1.01842">
        <ele>154</ele>
        <time>2012-04-01T07:03:33Z</time>
      </trkpt>
      <trkpt lat="44.41174" lon="1.01843">
        <ele>154</ele>
        <time>2012-04-01T07:03:34Z</time>
      </trkpt>
      <trkpt lat="44.41177" lon="1.01845">
        <ele>154</ele>
        <time>2012-04-01T07:03:35Z</time>
      </trkpt>
      <trkpt lat="44.4118" lon="1.01846">
        <ele>154</ele>
        <time>2012-04-01T07:03:36Z</time>
      </trkpt>
      <trkpt lat="44.41184" lon="1.01848">
        <ele>154</ele>
        <time>2012-04-01T07:03:37Z</time>
      </trkpt>
      <trkpt lat="44.41187" lon="1.0185">
        <ele>154</ele>
        <time>2012-04-01T07:03:38Z</time>
      </trkpt>
      <trkpt lat="44.41191" lon="1.01854">
        <ele>154</ele>
        <time>2012-04-01T07:03:39Z</time>
      </trkpt>
      <trkpt lat="44.41195" lon="1.01857">
        <ele>154</ele>
        <time>2012-04-01T07:03:40Z</time>
      </trkpt>
      <trkpt lat="44.41198" lon="1.0186">
        <ele>154</ele>
        <time>2012-04-01T07:03:41Z</time>
      </trkpt>
      <trkpt lat="44.41202" lon="1.01863">
        <ele>155</ele>
        <time>2012-04-01T07:03:42Z</time>
      </trkpt>
      <trkpt lat="44.41206" lon="1.01867">
        <ele>156</ele>
        <time>2012-04-01T07:03:43Z</time>
      </trkpt>
      <trkpt lat="44.41209" lon="1.0187">
        <ele>157</ele>
        <time>2012-04-01T07:03:44Z</time>
      </trkpt>
      <trkpt lat="44.41213" lon="1.01873">
        <ele>158</ele>
        <time>2012-04-01T07:03:45Z</time>
      </trkpt>
      <trkpt lat="44.41217" lon="1.01875">
        <ele>159</ele>
        <time>2012-04-01T07:03:46Z</time>
      </trkpt>
      <trkpt lat="44.41221" lon="1.01877">
        <ele>160</ele>
        <time>2012-04-01T07:03:47Z</time>
      </trkpt>
      <trkpt lat="44.41224" lon="1.01879">
        <ele>161</ele>
        <time>2012-04-01T07:03:48Z</time>
      </trkpt>
      <trkpt lat="44.41228" lon="1.01881">
        <ele>161</ele>
        <time>2012-04-01T07:03:49Z</time>
      </trkpt>
      <trkpt lat="44.41232" lon="1.01882">
        <ele>161</ele>
        <time>2012-04-01T07:03:50Z</time>
      </trkpt>
      <trkpt lat="44.41236" lon="1.01882">
        <ele>161</ele>
        <time>2012-04-01T07:03:51Z</time>
      </trkpt>
      <trkpt lat="44.4124" lon="1.01882">
        <ele>161</ele>
        <time>2012-04-01T07:03:52Z</time>
      </trkpt>
      <trkpt lat="44.41243" lon="1.01883">
        <ele>161</ele>
        <time>2012-04-01T07:03:53Z</time>
      </trkpt>
      <trkpt lat="44.41246" lon="1.01884">
        <ele>161</ele>
        <time>2012-04-01T07:03:54Z</time>
      </trkpt>
      <trkpt lat="44.41251" lon="1.01886">
        <ele>161</ele>
        <time>2012-04-01T07:03:55Z</time>
      </trkpt>
      <trkpt lat="44.41254" lon="1.01887">
        <ele>161</ele>
        <time>2012-04-01T07:03:56Z</time>
      </trkpt>
      <trkpt lat="44.41257" lon="1.01889">
        <ele>161</ele>
        <time>2012-04-01T07:03:57Z</time>
      </trkpt>
      <trkpt lat="44.41262" lon="1.01892">
        <ele>161</ele>
        <time>2012-04-01T07:03:58Z</time>
      </trkpt>
      <trkpt lat="44.41266" lon="1.01894">
        <ele>161</ele>
        <time>2012-04-01T07:03:59Z</time>
      </trkpt>
      <trkpt lat="44.4127" lon="1.01896">
        <ele>161</ele>
        <time>2012-04-01T07:04:00Z</time>
      </trkpt>
      <trkpt lat="44.41275" lon="1.01897">
        <ele>161</ele>
        <time>2012-04-01T07:04:01Z</time>
      </trkpt>
      <trkpt lat="44.41279" lon="1.01899">
        <ele>161</ele>
        <time>2012-04-01T07:04:02Z</time>
      </trkpt>
      <trkpt lat="44.41284" lon="1.019">
        <ele>161</ele>
        <time>2012-04-01T07:04:03Z</time>
      </trkpt>
      <trkpt lat="44.41289" lon="1.019">
        <ele>161</ele>
        <time>2012-04-01T07:04:04Z</time>
      </trkpt>
      <trkpt lat="44.41294" lon="1.01901">
        <ele>161</ele>
        <time>2012-04-01T07:04:05Z</time>
      </trkpt>
      <trkpt lat="44.413" lon="1.01901">
        <ele>161</ele>
        <time>2012-04-01T07:04:06Z</time>
      </trkpt>
      <trkpt lat="44.41305" lon="1.01902">
        <ele>161</ele>
        <time>2012-04-01T07:04:07Z</time>
      </trkpt>
      <trkpt lat="44.41311" lon="1.01902">
        <ele>161</ele>
        <time>2012-04-01T07:04:08Z</time>
      </trkpt>
      <trkpt lat="44.41317" lon="1.01902">
        <ele>161</ele>
        <time>2012-04-01T07:04:09Z</time>
      </trkpt>
      <trkpt lat="44.41323" lon="1.01902">
        <ele>161</ele>
        <time>2012-04-01T07:04:10Z</time>
      </trkpt>
      <trkpt lat="44.4133" lon="1.01902">
        <ele>161</ele>
        <time>2012-04-01T07:04:11Z</time>
      </trkpt>
      <trkpt lat="44.41336" lon="1.01904">
        <ele>161</ele>
        <time>2012-04-01T07:04:12Z</time>
      </trkpt>
      <trkpt lat="44.41341" lon="1.01907">
        <ele>161</ele>
        <time>2012-04-01T07:04:13Z</time>
      </trkpt>
      <trkpt lat="44.41345" lon="1.01909">
        <ele>161</ele>
        <time>2012-04-01T07:04:14Z</time>
      </trkpt>
      <trkpt lat="44.41349" lon="1.01912">
        <ele>160</ele>
        <time>2012-04-01T07:04:15Z</time>
      </trkpt>
      <trkpt lat="44.41352" lon="1.01914">
        <ele>160</ele>
        <time>2012-04-01T07:04:16Z</time>
      </trkpt>
      <trkpt lat="44.41356" lon="1.01917">
        <ele>160</ele>
        <time>2012-04-01T07:04:17Z</time>
      </trkpt>
      <trkpt lat="44.41359" lon="1.01919">
        <ele>160</ele>
        <time>2012-04-01T07:04:18Z</time>
      </trkpt>
      <trkpt lat="44.41362" lon="1.01921">
        <ele>160</ele>
        <time>2012-04-01T07:04:19Z</time>
      </trkpt>
      <trkpt lat="44.41364" lon="1.01924">
        <ele>160</ele>
        <time>2012-04-01T07:04:20Z</time>
      </trkpt>
      <trkpt lat="44.41365" lon="1.01926">
        <ele>160</ele>
        <time>2012-04-01T07:04:21Z</time>
      </trkpt>
      <trkpt lat="44.41367" lon="1.0193">
        <ele>160</ele>
        <time>2012-04-01T07:04:22Z</time>
      </trkpt>
      <trkpt lat="44.41367" lon="1.01935">
        <ele>160</ele>
        <time>2012-04-01T07:04:23Z</time>
      </trkpt>
      <trkpt lat="44.41367" lon="1.01939">
        <ele>160</ele>
        <time>2012-04-01T07:04:24Z</time>
      </trkpt>
      <trkpt lat="44.41366" lon="1.01945">
        <ele>160</ele>
        <time>2012-04-01T07:04:25Z</time>
      </trkpt>
      <trkpt lat="44.41366" lon="1.01952">
        <ele>160</ele>
        <time>2012-04-01T07:04:26Z</time>
      </trkpt>
      <trkpt lat="44.41365" lon="1.01958">
        <ele>160</ele>
        <time>2012-04-01T07:04:27Z</time>
      </trkpt>
      <trkpt lat="44.41363" lon="1.01965">
        <ele>160</ele>
        <time>2012-04-01T07:04:28Z</time>
      </trkpt>
      <trkpt lat="44.41362" lon="1.01973">
        <ele>160</ele>
        <time>2012-04-01T07:04:29Z</time>
      </trkpt>
      <trkpt lat="44.41359" lon="1.01982">
        <ele>160</ele>
        <time>2012-04-01T07:04:30Z</time>
      </trkpt>
      <trkpt lat="44.41355" lon="1.01993">
        <ele>160</ele>
        <time>2012-04-01T07:04:31Z</time>
      </trkpt>
      <trkpt lat="44.41352" lon="1.02002">
        <ele>159</ele>
        <time>2012-04-01T07:04:32Z</time>
      </trkpt>
      <trkpt lat="44.4135" lon="1.02011">
        <ele>158</ele>
        <time>2012-04-01T07:04:33Z</time>
      </trkpt>
      <trkpt lat="44.41346" lon="1.0202">
        <ele>157</ele>
        <time>2012-04-01T07:04:34Z</time>
      </trkpt>
      <trkpt lat="44.41342" lon="1.02027">
        <ele>156</ele>
        <time>2012-04-01T07:04:35Z</time>
      </trkpt>
      <trkpt lat="44.41338" lon="1.02035">
        <ele>155</ele>
        <time>2012-04-01T07:04:36Z</time>
      </trkpt>
      <trkpt lat="44.41333" lon="1.02042">
        <ele>154</ele>
        <time>2012-04-01T07:04:37Z</time>
      </trkpt>
      <trkpt lat="44.41328" lon="1.02051">
        <ele>153</ele>
        <time>2012-04-01T07:04:38Z</time>
      </trkpt>
      <trkpt lat="44.41324" lon="1.0206">
        <ele>152</ele>
        <time>2012-04-01T07:04:39Z</time>
      </trkpt>
      <trkpt lat="44.41319" lon="1.02068">
        <ele>152</ele>
        <time>2012-04-01T07:04:40Z</time>
      </trkpt>
      <trkpt lat="44.41315" lon="1.02075">
        <ele>152</ele>
        <time>2012-04-01T07:04:41Z</time>
      </trkpt>
      <trkpt lat="44.41311" lon="1.02083">
        <ele>152</ele>
        <time>2012-04-01T07:04:42Z</time>
      </trkpt>
      <trkpt lat="44.41308" lon="1.0209">
        <ele>152</ele>
        <time>2012-04-01T07:04:43Z</time>
      </trkpt>
      <trkpt lat="44.41308" lon="1.02096">
        <ele>152</ele>
        <time>2012-04-01T07:04:44Z</time>
      </trkpt>
      <trkpt lat="44.41309" lon="1.02106">
        <ele>152</ele>
        <time>2012-04-01T07:04:45Z</time>
      </trkpt>
      <trkpt lat="44.4131" lon="1.02115">
        <ele>152</ele>
        <time>2012-04-01T07:04:46Z</time>
      </trkpt>
      <trkpt lat="44.41311" lon="1.02125">
        <ele>152</ele>
        <time>2012-04-01T07:04:47Z</time>
      </trkpt>
      <trkpt lat="44.41312" lon="1.02134">
        <ele>152</ele>
        <time>2012-04-01T07:04:48Z</time>
      </trkpt>
      <trkpt lat="44.41312" lon="1.02142">
        <ele>152</ele>
        <time>2012-04-01T07:04:49Z</time>
      </trkpt>
      <trkpt lat="44.41313" lon="1.02151">
        <ele>152</ele>
        <time>2012-04-01T07:04:50Z</time>
      </trkpt>
      <trkpt lat="44.41313" lon="1.02158">
        <ele>152</ele>
        <time>2012-04-01T07:04:51Z</time>
      </trkpt>
      <trkpt lat="44.41313" lon="1.02166">
        <ele>152</ele>
        <time>2012-04-01T07:04:52Z</time>
      </trkpt>
      <trkpt lat="44.41313" lon="1.02173">
        <ele>152</ele>
        <time>2012-04-01T07:04:53Z</time>
      </trkpt>
      <trkpt lat="44.41311" lon="1.02179">
        <ele>152</ele>
        <time>2012-04-01T07:04:54Z</time>
      </trkpt>
      <trkpt lat="44.4131" lon="1.02186">
        <ele>152</ele>
        <time>2012-04-01T07:04:55Z</time>
      </trkpt>
      <trkpt lat="44.41307" lon="1.02191">
        <ele>152</ele>
        <time>2012-04-01T07:04:56Z</time>
      </trkpt>
      <trkpt lat="44.41305" lon="1.02196">
        <ele>152</ele>
        <time>2012-04-01T07:04:57Z</time>
      </trkpt>
      <trkpt lat="44.41302" lon="1.022">
        <ele>152</ele>
        <time>2012-04-01T07:04:58Z</time>
      </trkpt>
      <trkpt lat="44.41299" lon="1.02204">
        <ele>152</ele>
        <time>2012-04-01T07:04:59Z</time>
      </trkpt>
      <trkpt lat="44.41298" lon="1.02207">
        <ele>152</ele>
        <time>2012-04-01T07:05:00Z</time>
      </trkpt>
      <trkpt lat="44.41296" lon="1.02209">
        <ele>152</ele>
        <time>2012-04-01T07:05:01Z</time>
      </trkpt>
      <trkpt lat="44.41294" lon="1.02212">
        <ele>152</ele>
        <time>2012-04-01T07:05:02Z</time>
      </trkpt>
      <trkpt lat="44.41293" lon="1.02213">
        <ele>152</ele>
        <time>2012-04-01T07:05:03Z</time>
      </trkpt>
      <trkpt lat="44.41292" lon="1.02215">
        <ele>152</ele>
        <time>2012-04-01T07:05:05Z</time>
      </trkpt>
      <trkpt lat="44.41291" lon="1.02216">
        <ele>152</ele>
        <time>2012-04-01T07:05:07Z</time>
      </trkpt>
      <trkpt lat="44.4129" lon="1.02216">
        <ele>152</ele>
        <time>2012-04-01T07:05:12Z</time>
      </trkpt>
      <trkpt lat="44.4129" lon="1.02215">
        <ele>152</ele>
        <time>2012-04-01T07:05:18Z</time>
      </trkpt>
      <trkpt lat="44.41288" lon="1.02216">
        <ele>156</ele>
        <time>2012-04-01T07:05:31Z</time>
      </trkpt>
      <trkpt lat="44.41286" lon="1.02215">
        <ele>157</ele>
        <time>2012-04-01T07:05:33Z</time>
      </trkpt>
      <trkpt lat="44.41285" lon="1.02214">
        <ele>157</ele>
        <time>2012-04-01T07:05:35Z</time>
      </trkpt>
      <trkpt lat="44.41283" lon="1.02213">
        <ele>160</ele>
        <time>2012-04-01T07:05:40Z</time>
      </trkpt>
      <trkpt lat="44.41282" lon="1.02213">
        <ele>161</ele>
        <time>2012-04-01T07:05:42Z</time>
      </trkpt>
      <trkpt lat="44.4128" lon="1.02212">
        <ele>162</ele>
        <time>2012-04-01T07:05:44Z</time>
      </trkpt>
      <trkpt lat="44.41279" lon="1.02213">
        <ele>164</ele>
        <time>2012-04-01T07:05:46Z</time>
      </trkpt>
      <trkpt lat="44.41277" lon="1.02211">
        <ele>167</ele>
        <time>2012-04-01T07:05:49Z</time>
      </trkpt>
      <trkpt lat="44.41276" lon="1.0221">
        <ele>167</ele>
        <time>2012-04-01T07:05:54Z</time>
      </trkpt>
      <trkpt lat="44.41275" lon="1.02209">
        <ele>167</ele>
        <time>2012-04-01T07:05:59Z</time>
      </trkpt>
      <trkpt lat="44.41275" lon="1.02208">
        <ele>174</ele>
        <time>2012-04-01T07:06:10Z</time>
      </trkpt>
      <trkpt lat="44.41275" lon="1.02209">
        <ele>176</ele>
        <time>2012-04-01T07:06:18Z</time>
      </trkpt>
      <trkpt lat="44.41275" lon="1.02211">
        <ele>175</ele>
        <time>2012-04-01T07:06:22Z</time>
      </trkpt>
      <trkpt lat="44.41276" lon="1.02212">
        <ele>171</ele>
        <time>2012-04-01T07:06:26Z</time>
      </trkpt>
      <trkpt lat="44.41277" lon="1.02213">
        <ele>165</ele>
        <time>2012-04-01T07:06:32Z</time>
      </trkpt>
      <trkpt lat="44.41279" lon="1.02214">
        <ele>160</ele>
        <time>2012-04-01T07:06:39Z</time>
      </trkpt>
      <trkpt lat="44.41279" lon="1.02216">
        <ele>158</ele>
        <time>2012-04-01T07:06:54Z</time>
      </trkpt>
      <trkpt lat="44.4128" lon="1.02217">
        <ele>158</ele>
        <time>2012-04-01T07:07:05Z</time>
      </trkpt>
      <trkpt lat="44.41281" lon="1.02219">
        <ele>158</ele>
        <time>2012-04-01T07:07:11Z</time>
      </trkpt>
      <trkpt lat="44.4128" lon="1.02222">
        <ele>158</ele>
        <time>2012-04-01T07:07:13Z</time>
      </trkpt>
      <trkpt lat="44.41279" lon="1.02224">
        <ele>158</ele>
        <time>2012-04-01T07:07:14Z</time>
      </trkpt>
      <trkpt lat="44.41277" lon="1.02227">
        <ele>158</ele>
        <time>2012-04-01T07:07:15Z</time>
      </trkpt>
      <trkpt lat="44.41275" lon="1.02232">
        <ele>158</ele>
        <time>2012-04-01T07:07:16Z</time>
      </trkpt>
      <trkpt lat="44.41273" lon="1.02236">
        <ele>158</ele>
        <time>2012-04-01T07:07:17Z</time>
      </trkpt>
      <trkpt lat="44.41271" lon="1.0224">
        <ele>158</ele>
        <time>2012-04-01T07:07:18Z</time>
      </trkpt>
      <trkpt lat="44.41269" lon="1.02243">
        <ele>157</ele>
        <time>2012-04-01T07:07:19Z</time>
      </trkpt>
      <trkpt lat="44.41268" lon="1.02247">
        <ele>157</ele>
        <time>2012-04-01T07:07:20Z</time>
      </trkpt>
      <trkpt lat="44.41266" lon="1.0225">
        <ele>157</ele>
        <time>2012-04-01T07:07:21Z</time>
      </trkpt>
      <trkpt lat="44.41264" lon="1.02253">
        <ele>157</ele>
        <time>2012-04-01T07:07:22Z</time>
      </trkpt>
      <trkpt lat="44.41264" lon="1.02256">
        <ele>157</ele>
        <time>2012-04-01T07:07:23Z</time>
      </trkpt>
      <trkpt lat="44.41262" lon="1.02259">
        <ele>157</ele>
        <time>2012-04-01T07:07:24Z</time>
      </trkpt>
      <trkpt lat="44.41261" lon="1.02263">
        <ele>157</ele>
        <time>2012-04-01T07:07:25Z</time>
      </trkpt>
      <trkpt lat="44.41259" lon="1.02267">
        <ele>157</ele>
        <time>2012-04-01T07:07:26Z</time>
      </trkpt>
      <trkpt lat="44.41257" lon="1.02271">
        <ele>157</ele>
        <time>2012-04-01T07:07:27Z</time>
      </trkpt>
      <trkpt lat="44.41256" lon="1.02275">
        <ele>157</ele>
        <time>2012-04-01T07:07:28Z</time>
      </trkpt>
      <trkpt lat="44.41254" lon="1.02278">
        <ele>157</ele>
        <time>2012-04-01T07:07:29Z</time>
      </trkpt>
      <trkpt lat="44.41252" lon="1.02282">
        <ele>157</ele>
        <time>2012-04-01T07:07:30Z</time>
      </trkpt>
      <trkpt lat="44.4125" lon="1.02287">
        <ele>157</ele>
        <time>2012-04-01T07:07:31Z</time>
      </trkpt>
      <trkpt lat="44.41248" lon="1.02292">
        <ele>157</ele>
        <time>2012-04-01T07:07:32Z</time>
      </trkpt>
      <trkpt lat="44.41246" lon="1.02297">
        <ele>157</ele>
        <time>2012-04-01T07:07:33Z</time>
      </trkpt>
      <trkpt lat="44.41244" lon="1.02302">
        <ele>157</ele>
        <time>2012-04-01T07:07:34Z</time>
      </trkpt>
      <trkpt lat="44.41242" lon="1.02306">
        <ele>157</ele>
        <time>2012-04-01T07:07:35Z</time>
      </trkpt>
      <trkpt lat="44.41241" lon="1.0231">
        <ele>157</ele>
        <time>2012-04-01T07:07:36Z</time>
      </trkpt>
      <trkpt lat="44.4124" lon="1.02313">
        <ele>157</ele>
        <time>2012-04-01T07:07:37Z</time>
      </trkpt>
      <trkpt lat="44.41239" lon="1.02317">
        <ele>157</ele>
        <time>2012-04-01T07:07:38Z</time>
      </trkpt>
      <trkpt lat="44.41239" lon="1.02321">
        <ele>157</ele>
        <time>2012-04-01T07:07:39Z</time>
      </trkpt>
      <trkpt lat="44.41238" lon="1.02324">
        <ele>157</ele>
        <time>2012-04-01T07:07:40Z</time>
      </trkpt>
      <trkpt lat="44.41237" lon="1.02328">
        <ele>157</ele>
        <time>2012-04-01T07:07:41Z</time>
      </trkpt>
      <trkpt lat="44.41236" lon="1.02331">
        <ele>157</ele>
        <time>2012-04-01T07:07:42Z</time>
      </trkpt>
      <trkpt lat="44.41236" lon="1.02334">
        <ele>157</ele>
        <time>2012-04-01T07:07:43Z</time>
      </trkpt>
      <trkpt lat="44.41236" lon="1.02336">
        <ele>157</ele>
        <time>2012-04-01T07:07:44Z</time>
      </trkpt>
      <trkpt lat="44.41235" lon="1.02338">
        <ele>157</ele>
        <time>2012-04-01T07:07:46Z</time>
      </trkpt>
      <trkpt lat="44.41233" lon="1.0234">
        <ele>158</ele>
        <time>2012-04-01T07:07:48Z</time>
      </trkpt>
      <trkpt lat="44.41233" lon="1.02342">
        <ele>159</ele>
        <time>2012-04-01T07:07:49Z</time>
      </trkpt>
      <trkpt lat="44.41233" lon="1.02344">
        <ele>159</ele>
        <time>2012-04-01T07:07:50Z</time>
      </trkpt>
      <trkpt lat="44.41233" lon="1.02346">
        <ele>160</ele>
        <time>2012-04-01T07:07:51Z</time>
      </trkpt>
      <trkpt lat="44.41233" lon="1.02348">
        <ele>161</ele>
        <time>2012-04-01T07:07:52Z</time>
      </trkpt>
      <trkpt lat="44.41234" lon="1.0235">
        <ele>161</ele>
        <time>2012-04-01T07:07:53Z</time>
      </trkpt>
      <trkpt lat="44.41236" lon="1.02351">
        <ele>161</ele>
        <time>2012-04-01T07:07:55Z</time>
      </trkpt>
      <trkpt lat="44.41238" lon="1.0235">
        <ele>161</ele>
        <time>2012-04-01T07:07:57Z</time>
      </trkpt>
      <trkpt lat="44.4124" lon="1.02349">
        <ele>162</ele>
        <time>2012-04-01T07:07:58Z</time>
      </trkpt>
      <trkpt lat="44.41241" lon="1.02348">
        <ele>162</ele>
        <time>2012-04-01T07:07:59Z</time>
      </trkpt>
      <trkpt lat="44.41243" lon="1.02347">
        <ele>163</ele>
        <time>2012-04-01T07:08:00Z</time>
      </trkpt>
      <trkpt lat="44.41244" lon="1.02346">
        <ele>163</ele>
        <time>2012-04-01T07:08:02Z</time>
      </trkpt>
      <trkpt lat="44.41246" lon="1.02346">
        <ele>163</ele>
        <time>2012-04-01T07:08:03Z</time>
      </trkpt>
      <trkpt lat="44.41247" lon="1.02346">
        <ele>164</ele>
        <time>2012-04-01T07:08:04Z</time>
      </trkpt>
      <trkpt lat="44.41248" lon="1.02346">
        <ele>164</ele>
        <time>2012-04-01T07:08:05Z</time>
      </trkpt>
      <trkpt lat="44.41251" lon="1.02346">
        <ele>164</ele>
        <time>2012-04-01T07:08:06Z</time>
      </trkpt>
      <trkpt lat="44.41253" lon="1.02345">
        <ele>164</ele>
        <time>2012-04-01T07:08:07Z</time>
      </trkpt>
      <trkpt lat="44.41254" lon="1.02345">
        <ele>165</ele>
        <time>2012-04-01T07:08:08Z</time>
      </trkpt>
      <trkpt lat="44.41255" lon="1.02345">
        <ele>165</ele>
        <time>2012-04-01T07:08:09Z</time>
      </trkpt>
      <trkpt lat="44.41256" lon="1.02344">
        <ele>166</ele>
        <time>2012-04-01T07:08:10Z</time>
      </trkpt>
      <trkpt lat="44.41259" lon="1.02343">
        <ele>168</ele>
        <time>2012-04-01T07:08:12Z</time>
      </trkpt>
      <trkpt lat="44.4126" lon="1.02343">
        <ele>170</ele>
        <time>2012-04-01T07:08:14Z</time>
      </trkpt>
      <trkpt lat="44.41262" lon="1.02342">
        <ele>170</ele>
        <time>2012-04-01T07:08:15Z</time>
      </trkpt>
      <trkpt lat="44.41263" lon="1.02341">
        <ele>171</ele>
        <time>2012-04-01T07:08:16Z</time>
      </trkpt>
      <trkpt lat="44.41264" lon="1.0234">
        <ele>171</ele>
        <time>2012-04-01T07:08:17Z</time>
      </trkpt>
      <trkpt lat="44.41266" lon="1.0234">
        <ele>171</ele>
        <time>2012-04-01T07:08:19Z</time>
      </trkpt>
      <trkpt lat="44.41267" lon="1.0234">
        <ele>171</ele>
        <time>2012-04-01T07:08:20Z</time>
      </trkpt>
      <trkpt lat="44.41269" lon="1.02339">
        <ele>171</ele>
        <time>2012-04-01T07:08:21Z</time>
      </trkpt>
      <trkpt lat="44.4127" lon="1.02339">
        <ele>172</ele>
        <time>2012-04-01T07:08:22Z</time>
      </trkpt>
      <trkpt lat="44.41272" lon="1.02339">
        <ele>173</ele>
        <time>2012-04-01T07:08:24Z</time>
      </trkpt>
      <trkpt lat="44.41274" lon="1.02337">
        <ele>173</ele>
        <time>2012-04-01T07:08:25Z</time>
      </trkpt>
      <trkpt lat="44.41275" lon="1.02337">
        <ele>173</ele>
        <time>2012-04-01T07:08:26Z</time>
      </trkpt>
      <trkpt lat="44.41277" lon="1.02337">
        <ele>174</ele>
        <time>2012-04-01T07:08:27Z</time>
      </trkpt>
      <trkpt lat="44.41278" lon="1.02337">
        <ele>174</ele>
        <time>2012-04-01T07:08:28Z</time>
      </trkpt>
      <trkpt lat="44.4128" lon="1.02336">
        <ele>175</ele>
        <time>2012-04-01T07:08:29Z</time>
      </trkpt>
      <trkpt lat="44.41281" lon="1.02336">
        <ele>175</ele>
        <time>2012-04-01T07:08:30Z</time>
      </trkpt>
      <trkpt lat="44.41282" lon="1.02335">
        <ele>176</ele>
        <time>2012-04-01T07:08:31Z</time>
      </trkpt>
      <trkpt lat="44.41284" lon="1.02335">
        <ele>177</ele>
        <time>2012-04-01T07:08:32Z</time>
      </trkpt>
      <trkpt lat="44.41285" lon="1.02334">
        <ele>177</ele>
        <time>2012-04-01T07:08:34Z</time>
      </trkpt>
      <trkpt lat="44.41288" lon="1.02333">
        <ele>178</ele>
        <time>2012-04-01T07:08:36Z</time>
      </trkpt>
      <trkpt lat="44.41289" lon="1.02333">
        <ele>178</ele>
        <time>2012-04-01T07:08:37Z</time>
      </trkpt>
      <trkpt lat="44.41291" lon="1.02334">
        <ele>178</ele>
        <time>2012-04-01T07:08:38Z</time>
      </trkpt>
      <trkpt lat="44.41292" lon="1.02335">
        <ele>179</ele>
        <time>2012-04-01T07:08:39Z</time>
      </trkpt>
      <trkpt lat="44.41293" lon="1.02336">
        <ele>180</ele>
        <time>2012-04-01T07:08:40Z</time>
      </trkpt>
      <trkpt lat="44.41295" lon="1.02336">
        <ele>180</ele>
        <time>2012-04-01T07:08:41Z</time>
      </trkpt>
      <trkpt lat="44.41296" lon="1.02336">
        <ele>180</ele>
        <time>2012-04-01T07:08:42Z</time>
      </trkpt>
      <trkpt lat="44.41298" lon="1.02336">
        <ele>181</ele>
        <time>2012-04-01T07:08:43Z</time>
      </trkpt>
      <trkpt lat="44.41299" lon="1.02337">
        <ele>181</ele>
        <time>2012-04-01T07:08:44Z</time>
      </trkpt>
      <trkpt lat="44.413" lon="1.02338">
        <ele>181</ele>
        <time>2012-04-01T07:08:45Z</time>
      </trkpt>
      <trkpt lat="44.41301" lon="1.02338">
        <ele>182</ele>
        <time>2012-04-01T07:08:46Z</time>
      </trkpt>
      <trkpt lat="44.41303" lon="1.0234">
        <ele>182</ele>
        <time>2012-04-01T07:08:48Z</time>
      </trkpt>
      <trkpt lat="44.41304" lon="1.02341">
        <ele>182</ele>
        <time>2012-04-01T07:08:49Z</time>
      </trkpt>
      <trkpt lat="44.41306" lon="1.02341">
        <ele>182</ele>
        <time>2012-04-01T07:08:50Z</time>
      </trkpt>
      <trkpt lat="44.41308" lon="1.02342">
        <ele>182</ele>
        <time>2012-04-01T07:08:51Z</time>
      </trkpt>
      <trkpt lat="44.4131" lon="1.02342">
        <ele>182</ele>
        <time>2012-04-01T07:08:52Z</time>
      </trkpt>
      <trkpt lat="44.41311" lon="1.02343">
        <ele>182</ele>
        <time>2012-04-01T07:08:53Z</time>
      </trkpt>
      <trkpt lat="44.41313" lon="1.02345">
        <ele>182</ele>
        <time>2012-04-01T07:08:54Z</time>
      </trkpt>
      <trkpt lat="44.41315" lon="1.02346">
        <ele>182</ele>
        <time>2012-04-01T07:08:55Z</time>
      </trkpt>
      <trkpt lat="44.41316" lon="1.02347">
        <ele>182</ele>
        <time>2012-04-01T07:08:56Z</time>
      </trkpt>
      <trkpt lat="44.41318" lon="1.02347">
        <ele>182</ele>
        <time>2012-04-01T07:08:57Z</time>
      </trkpt>
      <trkpt lat="44.4132" lon="1.02347">
        <ele>182</ele>
        <time>2012-04-01T07:08:58Z</time>
      </trkpt>
      <trkpt lat="44.41322" lon="1.02347">
        <ele>182</ele>
        <time>2012-04-01T07:08:59Z</time>
      </trkpt>
      <trkpt lat="44.41324" lon="1.02347">
        <ele>182</ele>
        <time>2012-04-01T07:09:00Z</time>
      </trkpt>
      <trkpt lat="44.41326" lon="1.02348">
        <ele>182</ele>
        <time>2012-04-01T07:09:01Z</time>
      </trkpt>
      <trkpt lat="44.41328" lon="1.02348">
        <ele>182</ele>
        <time>2012-04-01T07:09:02Z</time>
      </trkpt>
      <trkpt lat="44.4133" lon="1.02349">
        <ele>182</ele>
        <time>2012-04-01T07:09:03Z</time>
      </trkpt>
      <trkpt lat="44.41332" lon="1.0235">
        <ele>182</ele>
        <time>2012-04-01T07:09:04Z</time>
      </trkpt>
      <trkpt lat="44.41333" lon="1.0235">
        <ele>182</ele>
        <time>2012-04-01T07:09:05Z</time>
      </trkpt>
      <trkpt lat="44.41335" lon="1.0235">
        <ele>182</ele>
        <time>2012-04-01T07:09:06Z</time>
      </trkpt>
      <trkpt lat="44.41337" lon="1.02351">
        <ele>182</ele>
        <time>2012-04-01T07:09:07Z</time>
      </trkpt>
      <trkpt lat="44.41338" lon="1.02352">
        <ele>182</ele>
        <time>2012-04-01T07:09:08Z</time>
      </trkpt>
      <trkpt lat="44.4134" lon="1.02353">
        <ele>182</ele>
        <time>2012-04-01T07:09:09Z</time>
      </trkpt>
      <trkpt lat="44.41341" lon="1.02354">
        <ele>182</ele>
        <time>2012-04-01T07:09:10Z</time>
      </trkpt>
      <trkpt lat="44.41343" lon="1.02354">
        <ele>182</ele>
        <time>2012-04-01T07:09:11Z</time>
      </trkpt>
      <trkpt lat="44.41345" lon="1.02355">
        <ele>182</ele>
        <time>2012-04-01T07:09:12Z</time>
      </trkpt>
      <trkpt lat="44.41346" lon="1.02356">
        <ele>182</ele>
        <time>2012-04-01T07:09:13Z</time>
      </trkpt>
      <trkpt lat="44.41348" lon="1.02357">
        <ele>182</ele>
        <time>2012-04-01T07:09:14Z</time>
      </trkpt>
      <trkpt lat="44.41349" lon="1.02358">
        <ele>182</ele>
        <time>2012-04-01T07:09:15Z</time>
      </trkpt>
      <trkpt lat="44.41351" lon="1.02359">
        <ele>182</ele>
        <time>2012-04-01T07:09:16Z</time>
      </trkpt>
      <trkpt lat="44.41352" lon="1.0236">
        <ele>182</ele>
        <time>2012-04-01T07:09:17Z</time>
      </trkpt>
      <trkpt lat="44.41354" lon="1.0236">
        <ele>182</ele>
        <time>2012-04-01T07:09:18Z</time>
      </trkpt>
      <trkpt lat="44.41356" lon="1.02361">
        <ele>182</ele>
        <time>2012-04-01T07:09:19Z</time>
      </trkpt>
      <trkpt lat="44.41358" lon="1.02362">
        <ele>182</ele>
        <time>2012-04-01T07:09:20Z</time>
      </trkpt>
      <trkpt lat="44.41359" lon="1.02362">
        <ele>182</ele>
        <time>2012-04-01T07:09:21Z</time>
      </trkpt>
      <trkpt lat="44.41361" lon="1.02363">
        <ele>182</ele>
        <time>2012-04-01T07:09:22Z</time>
      </trkpt>
      <trkpt lat="44.41363" lon="1.02363">
        <ele>182</ele>
        <time>2012-04-01T07:09:23Z</time>
      </trkpt>
      <trkpt lat="44.41365" lon="1.02364">
        <ele>182</ele>
        <time>2012-04-01T07:09:24Z</time>
      </trkpt>
      <trkpt lat="44.41367" lon="1.02365">
        <ele>182</ele>
        <time>2012-04-01T07:09:25Z</time>
      </trkpt>
      <trkpt lat="44.4137" lon="1.02366">
        <ele>182</ele>
        <time>2012-04-01T07:09:26Z</time>
      </trkpt>
      <trkpt lat="44.41372" lon="1.02366">
        <ele>182</ele>
        <time>2012-04-01T07:09:27Z</time>
      </trkpt>
      <trkpt lat="44.41374" lon="1.02367">
        <ele>182</ele>
        <time>2012-04-01T07:09:28Z</time>
      </trkpt>
      <trkpt lat="44.41376" lon="1.02368">
        <ele>182</ele>
        <time>2012-04-01T07:09:29Z</time>
      </trkpt>
      <trkpt lat="44.41378" lon="1.02367">
        <ele>182</ele>
        <time>2012-04-01T07:09:30Z</time>
      </trkpt>
      <trkpt lat="44.4138" lon="1.02368">
        <ele>182</ele>
        <time>2012-04-01T07:09:31Z</time>
      </trkpt>
      <trkpt lat="44.41382" lon="1.02369">
        <ele>182</ele>
        <time>2012-04-01T07:09:32Z</time>
      </trkpt>
      <trkpt lat="44.41384" lon="1.0237">
        <ele>182</ele>
        <time>2012-04-01T07:09:33Z</time>
      </trkpt>
      <trkpt lat="44.41386" lon="1.02371">
        <ele>182</ele>
        <time>2012-04-01T07:09:34Z</time>
      </trkpt>
      <trkpt lat="44.41388" lon="1.02371">
        <ele>182</ele>
        <time>2012-04-01T07:09:35Z</time>
      </trkpt>
      <trkpt lat="44.4139" lon="1.02373">
        <ele>182</ele>
        <time>2012-04-01T07:09:36Z</time>
      </trkpt>
      <trkpt lat="44.41391" lon="1.02375">
        <ele>182</ele>
        <time>2012-04-01T07:09:37Z</time>
      </trkpt>
      <trkpt lat="44.41393" lon="1.02376">
        <ele>182</ele>
        <time>2012-04-01T07:09:38Z</time>
      </trkpt>
      <trkpt lat="44.41394" lon="1.02379">
        <ele>182</ele>
        <time>2012-04-01T07:09:39Z</time>
      </trkpt>
      <trkpt lat="44.41396" lon="1.02382">
        <ele>182</ele>
        <time>2012-04-01T07:09:40Z</time>
      </trkpt>
      <trkpt lat="44.41397" lon="1.02384">
        <ele>182</ele>
        <time>2012-04-01T07:09:41Z</time>
      </trkpt>
      <trkpt lat="44.41398" lon="1.02387">
        <ele>182</ele>
        <time>2012-04-01T07:09:42Z</time>
      </trkpt>
      <trkpt lat="44.41399" lon="1.02389">
        <ele>182</ele>
        <time>2012-04-01T07:09:43Z</time>
      </trkpt>
      <trkpt lat="44.414" lon="1.02391">
        <ele>182</ele>
        <time>2012-04-01T07:09:44Z</time>
      </trkpt>
      <trkpt lat="44.41401" lon="1.02392">
        <ele>182</ele>
        <time>2012-04-01T07:09:45Z</time>
      </trkpt>
      <trkpt lat="44.41402" lon="1.02394">
        <ele>182</ele>
        <time>2012-04-01T07:09:46Z</time>
      </trkpt>
      <trkpt lat="44.41404" lon="1.02397">
        <ele>182</ele>
        <time>2012-04-01T07:09:47Z</time>
      </trkpt>
      <trkpt lat="44.41406" lon="1.02399">
        <ele>182</ele>
        <time>2012-04-01T07:09:48Z</time>
      </trkpt>
      <trkpt lat="44.41407" lon="1.02401">
        <ele>182</ele>
        <time>2012-04-01T07:09:49Z</time>
      </trkpt>
      <trkpt lat="44.41408" lon="1.02403">
        <ele>182</ele>
        <time>2012-04-01T07:09:50Z</time>
      </trkpt>
      <trkpt lat="44.4141" lon="1.02406">
        <ele>182</ele>
        <time>2012-04-01T07:09:51Z</time>
      </trkpt>
      <trkpt lat="44.41412" lon="1.02408">
        <ele>183</ele>
        <time>2012-04-01T07:09:52Z</time>
      </trkpt>
      <trkpt lat="44.41413" lon="1.0241">
        <ele>184</ele>
        <time>2012-04-01T07:09:53Z</time>
      </trkpt>
      <trkpt lat="44.41414" lon="1.02412">
        <ele>185</ele>
        <time>2012-04-01T07:09:54Z</time>
      </trkpt>
      <trkpt lat="44.41415" lon="1.02415">
        <ele>186</ele>
        <time>2012-04-01T07:09:55Z</time>
      </trkpt>
      <trkpt lat="44.41416" lon="1.02417">
        <ele>187</ele>
        <time>2012-04-01T07:09:56Z</time>
      </trkpt>
      <trkpt lat="44.41417" lon="1.0242">
        <ele>187</ele>
        <time>2012-04-01T07:09:57Z</time>
      </trkpt>
      <trkpt lat="44.41419" lon="1.02422">
        <ele>188</ele>
        <time>2012-04-01T07:09:58Z</time>
      </trkpt>
      <trkpt lat="44.4142" lon="1.02424">
        <ele>189</ele>
        <time>2012-04-01T07:09:59Z</time>
      </trkpt>
      <trkpt lat="44.41421" lon="1.02426">
        <ele>190</ele>
        <time>2012-04-01T07:10:00Z</time>
      </trkpt>
      <trkpt lat="44.41422" lon="1.02428">
        <ele>191</ele>
        <time>2012-04-01T07:10:01Z</time>
      </trkpt>
      <trkpt lat="44.41423" lon="1.0243">
        <ele>192</ele>
        <time>2012-04-01T07:10:02Z</time>
      </trkpt>
      <trkpt lat="44.41424" lon="1.02433">
        <ele>192</ele>
        <time>2012-04-01T07:10:03Z</time>
      </trkpt>
      <trkpt lat="44.41426" lon="1.02435">
        <ele>192</ele>
        <time>2012-04-01T07:10:04Z</time>
      </trkpt>
      <trkpt lat="44.41427" lon="1.02438">
        <ele>192</ele>
        <time>2012-04-01T07:10:05Z</time>
      </trkpt>
      <trkpt lat="44.41428" lon="1.0244">
        <ele>192</ele>
        <time>2012-04-01T07:10:06Z</time>
      </trkpt>
      <trkpt lat="44.4143" lon="1.02443">
        <ele>192</ele>
        <time>2012-04-01T07:10:07Z</time>
      </trkpt>
      <trkpt lat="44.41431" lon="1.02445">
        <ele>192</ele>
        <time>2012-04-01T07:10:08Z</time>
      </trkpt>
      <trkpt lat="44.41432" lon="1.02448">
        <ele>192</ele>
        <time>2012-04-01T07:10:09Z</time>
      </trkpt>
      <trkpt lat="44.41434" lon="1.02451">
        <ele>192</ele>
        <time>2012-04-01T07:10:10Z</time>
      </trkpt>
      <trkpt lat="44.41435" lon="1.02453">
        <ele>192</ele>
        <time>2012-04-01T07:10:11Z</time>
      </trkpt>
      <trkpt lat="44.41436" lon="1.02456">
        <ele>192</ele>
        <time>2012-04-01T07:10:12Z</time>
      </trkpt>
      <trkpt lat="44.41437" lon="1.02459">
        <ele>192</ele>
        <time>2012-04-01T07:10:13Z</time>
      </trkpt>
      <trkpt lat="44.4144" lon="1.02462">
        <ele>192</ele>
        <time>2012-04-01T07:10:14Z</time>
      </trkpt>
      <trkpt lat="44.41441" lon="1.02465">
        <ele>192</ele>
        <time>2012-04-01T07:10:15Z</time>
      </trkpt>
      <trkpt lat="44.41443" lon="1.02468">
        <ele>192</ele>
        <time>2012-04-01T07:10:16Z</time>
      </trkpt>
      <trkpt lat="44.41444" lon="1.0247">
        <ele>193</ele>
        <time>2012-04-01T07:10:17Z</time>
      </trkpt>
      <trkpt lat="44.41446" lon="1.02472">
        <ele>194</ele>
        <time>2012-04-01T07:10:18Z</time>
      </trkpt>
      <trkpt lat="44.41447" lon="1.02475">
        <ele>195</ele>
        <time>2012-04-01T07:10:19Z</time>
      </trkpt>
      <trkpt lat="44.41449" lon="1.02478">
        <ele>196</ele>
        <time>2012-04-01T07:10:20Z</time>
      </trkpt>
      <trkpt lat="44.4145" lon="1.0248">
        <ele>196</ele>
        <time>2012-04-01T07:10:21Z</time>
      </trkpt>
      <trkpt lat="44.41452" lon="1.02483">
        <ele>196</ele>
        <time>2012-04-01T07:10:22Z</time>
      </trkpt>
      <trkpt lat="44.41452" lon="1.02485">
        <ele>196</ele>
        <time>2012-04-01T07:10:23Z</time>
      </trkpt>
      <trkpt lat="44.41454" lon="1.02488">
        <ele>196</ele>
        <time>2012-04-01T07:10:24Z</time>
      </trkpt>
      <trkpt lat="44.41455" lon="1.0249">
        <ele>196</ele>
        <time>2012-04-01T07:10:25Z</time>
      </trkpt>
      <trkpt lat="44.41457" lon="1.02494">
        <ele>196</ele>
        <time>2012-04-01T07:10:26Z</time>
      </trkpt>
      <trkpt lat="44.41458" lon="1.02497">
        <ele>196</ele>
        <time>2012-04-01T07:10:27Z</time>
      </trkpt>
      <trkpt lat="44.4146" lon="1.02499">
        <ele>196</ele>
        <time>2012-04-01T07:10:28Z</time>
      </trkpt>
      <trkpt lat="44.41462" lon="1.02502">
        <ele>196</ele>
        <time>2012-04-01T07:10:29Z</time>
      </trkpt>
      <trkpt lat="44.41463" lon="1.02505">
        <ele>196</ele>
        <time>2012-04-01T07:10:30Z</time>
      </trkpt>
      <trkpt lat="44.41465" lon="1.02508">
        <ele>196</ele>
        <time>2012-04-01T07:10:31Z</time>
      </trkpt>
      <trkpt lat="44.41467" lon="1.0251">
        <ele>196</ele>
        <time>2012-04-01T07:10:32Z</time>
      </trkpt>
      <trkpt lat="44.41468" lon="1.02512">
        <ele>196</ele>
        <time>2012-04-01T07:10:33Z</time>
      </trkpt>
      <trkpt lat="44.41471" lon="1.02515">
        <ele>196</ele>
        <time>2012-04-01T07:10:34Z</time>
      </trkpt>
      <trkpt lat="44.41473" lon="1.02518">
        <ele>196</ele>
        <time>2012-04-01T07:10:35Z</time>
      </trkpt>
      <trkpt lat="44.41475" lon="1.0252">
        <ele>196</ele>
        <time>2012-04-01T07:10:36Z</time>
      </trkpt>
      <trkpt lat="44.41476" lon="1.02523">
        <ele>196</ele>
        <time>2012-04-01T07:10:37Z</time>
      </trkpt>
      <trkpt lat="44.41478" lon="1.02526">
        <ele>196</ele>
        <time>2012-04-01T07:10:38Z</time>
      </trkpt>
      <trkpt lat="44.41479" lon="1.02529">
        <ele>196</ele>
        <time>2012-04-01T07:10:39Z</time>
      </trkpt>
      <trkpt lat="44.41481" lon="1.02532">
        <ele>196</ele>
        <time>2012-04-01T07:10:40Z</time>
      </trkpt>
      <trkpt lat="44.41482" lon="1.02535">
        <ele>196</ele>
        <time>2012-04-01T07:10:41Z</time>
      </trkpt>
      <trkpt lat="44.41484" lon="1.02537">
        <ele>196</ele>
        <time>2012-04-01T07:10:42Z</time>
      </trkpt>
      <trkpt lat="44.41485" lon="1.0254">
        <ele>196</ele>
        <time>2012-04-01T07:10:43Z</time>
      </trkpt>
      <trkpt lat="44.41487" lon="1.02543">
        <ele>196</ele>
        <time>2012-04-01T07:10:44Z</time>
      </trkpt>
      <trkpt lat="44.41488" lon="1.02545">
        <ele>196</ele>
        <time>2012-04-01T07:10:45Z</time>
      </trkpt>
      <trkpt lat="44.4149" lon="1.02548">
        <ele>196</ele>
        <time>2012-04-01T07:10:46Z</time>
      </trkpt>
      <trkpt lat="44.41492" lon="1.02551">
        <ele>196</ele>
        <time>2012-04-01T07:10:47Z</time>
      </trkpt>
      <trkpt lat="44.41494" lon="1.02554">
        <ele>196</ele>
        <time>2012-04-01T07:10:48Z</time>
      </trkpt>
      <trkpt lat="44.41496" lon="1.02556">
        <ele>196</ele>
        <time>2012-04-01T07:10:49Z</time>
      </trkpt>
      <trkpt lat="44.41497" lon="1.02558">
        <ele>196</ele>
        <time>2012-04-01T07:10:50Z</time>
      </trkpt>
      <trkpt lat="44.41499" lon="1.02561">
        <ele>196</ele>
        <time>2012-04-01T07:10:51Z</time>
      </trkpt>
      <trkpt lat="44.41501" lon="1.02563">
        <ele>196</ele>
        <time>2012-04-01T07:10:52Z</time>
      </trkpt>
      <trkpt lat="44.41502" lon="1.02567">
        <ele>196</ele>
        <time>2012-04-01T07:10:53Z</time>
      </trkpt>
      <trkpt lat="44.41504" lon="1.0257">
        <ele>196</ele>
        <time>2012-04-01T07:10:54Z</time>
      </trkpt>
      <trkpt lat="44.41505" lon="1.02573">
        <ele>197</ele>
        <time>2012-04-01T07:10:55Z</time>
      </trkpt>
      <trkpt lat="44.41507" lon="1.02576">
        <ele>198</ele>
        <time>2012-04-01T07:10:56Z</time>
      </trkpt>
      <trkpt lat="44.41508" lon="1.02579">
        <ele>199</ele>
        <time>2012-04-01T07:10:57Z</time>
      </trkpt>
      <trkpt lat="44.41508" lon="1.02581">
        <ele>200</ele>
        <time>2012-04-01T07:10:58Z</time>
      </trkpt>
      <trkpt lat="44.4151" lon="1.02584">
        <ele>201</ele>
        <time>2012-04-01T07:10:59Z</time>
      </trkpt>
      <trkpt lat="44.41511" lon="1.02586">
        <ele>201</ele>
        <time>2012-04-01T07:11:00Z</time>
      </trkpt>
      <trkpt lat="44.41512" lon="1.02589">
        <ele>201</ele>
        <time>2012-04-01T07:11:01Z</time>
      </trkpt>
      <trkpt lat="44.41513" lon="1.02592">
        <ele>202</ele>
        <time>2012-04-01T07:11:02Z</time>
      </trkpt>
      <trkpt lat="44.41513" lon="1.02595">
        <ele>202</ele>
        <time>2012-04-01T07:11:03Z</time>
      </trkpt>
      <trkpt lat="44.41515" lon="1.02599">
        <ele>202</ele>
        <time>2012-04-01T07:11:04Z</time>
      </trkpt>
      <trkpt lat="44.41516" lon="1.02602">
        <ele>202</ele>
        <time>2012-04-01T07:11:05Z</time>
      </trkpt>
      <trkpt lat="44.41516" lon="1.02604">
        <ele>202</ele>
        <time>2012-04-01T07:11:06Z</time>
      </trkpt>
      <trkpt lat="44.41517" lon="1.02607">
        <ele>202</ele>
        <time>2012-04-01T07:11:07Z</time>
      </trkpt>
      <trkpt lat="44.41518" lon="1.0261">
        <ele>203</ele>
        <time>2012-04-01T07:11:08Z</time>
      </trkpt>
      <trkpt lat="44.4152" lon="1.02613">
        <ele>203</ele>
        <time>2012-04-01T07:11:09Z</time>
      </trkpt>
      <trkpt lat="44.41521" lon="1.02616">
        <ele>203</ele>
        <time>2012-04-01T07:11:10Z</time>
      </trkpt>
      <trkpt lat="44.41522" lon="1.02619">
        <ele>203</ele>
        <time>2012-04-01T07:11:11Z</time>
      </trkpt>
      <trkpt lat="44.41523" lon="1.02621">
        <ele>203</ele>
        <time>2012-04-01T07:11:12Z</time>
      </trkpt>
      <trkpt lat="44.41525" lon="1.02624">
        <ele>203</ele>
        <time>2012-04-01T07:11:13Z</time>
      </trkpt>
      <trkpt lat="44.41527" lon="1.02627">
        <ele>203</ele>
        <time>2012-04-01T07:11:14Z</time>
      </trkpt>
      <trkpt lat="44.41529" lon="1.02629">
        <ele>203</ele>
        <time>2012-04-01T07:11:15Z</time>
      </trkpt>
      <trkpt lat="44.41531" lon="1.02631">
        <ele>203</ele>
        <time>2012-04-01T07:11:16Z</time>
      </trkpt>
      <trkpt lat="44.41533" lon="1.02633">
        <ele>203</ele>
        <time>2012-04-01T07:11:17Z</time>
      </trkpt>
      <trkpt lat="44.41534" lon="1.02635">
        <ele>203</ele>
        <time>2012-04-01T07:11:18Z</time>
      </trkpt>
      <trkpt lat="44.41536" lon="1.02637">
        <ele>203</ele>
        <time>2012-04-01T07:11:19Z</time>
      </trkpt>
      <trkpt lat="44.41538" lon="1.02639">
        <ele>203</ele>
        <time>2012-04-01T07:11:20Z</time>
      </trkpt>
      <trkpt lat="44.4154" lon="1.0264">
        <ele>203</ele>
        <time>2012-04-01T07:11:21Z</time>
      </trkpt>
      <trkpt lat="44.41542" lon="1.02642">
        <ele>203</ele>
        <time>2012-04-01T07:11:22Z</time>
      </trkpt>
      <trkpt lat="44.41544" lon="1.02644">
        <ele>203</ele>
        <time>2012-04-01T07:11:23Z</time>
      </trkpt>
      <trkpt lat="44.41546" lon="1.02646">
        <ele>203</ele>
        <time>2012-04-01T07:11:24Z</time>
      </trkpt>
      <trkpt lat="44.41548" lon="1.02648">
        <ele>203</ele>
        <time>2012-04-01T07:11:25Z</time>
      </trkpt>
      <trkpt lat="44.4155" lon="1.0265">
        <ele>203</ele>
        <time>2012-04-01T07:11:26Z</time>
      </trkpt>
      <trkpt lat="44.41553" lon="1.02652">
        <ele>203</ele>
        <time>2012-04-01T07:11:27Z</time>
      </trkpt>
      <trkpt lat="44.41555" lon="1.02654">
        <ele>203</ele>
        <time>2012-04-01T07:11:28Z</time>
      </trkpt>
      <trkpt lat="44.41557" lon="1.02655">
        <ele>203</ele>
        <time>2012-04-01T07:11:29Z</time>
      </trkpt>
      <trkpt lat="44.4156" lon="1.02657">
        <ele>203</ele>
        <time>2012-04-01T07:11:30Z</time>
      </trkpt>
      <trkpt lat="44.41562" lon="1.02658">
        <ele>203</ele>
        <time>2012-04-01T07:11:31Z</time>
      </trkpt>
      <trkpt lat="44.41564" lon="1.02659">
        <ele>203</ele>
        <time>2012-04-01T07:11:32Z</time>
      </trkpt>
      <trkpt lat="44.41566" lon="1.02661">
        <ele>203</ele>
        <time>2012-04-01T07:11:33Z</time>
      </trkpt>
      <trkpt lat="44.41568" lon="1.02662">
        <ele>203</ele>
        <time>2012-04-01T07:11:34Z</time>
      </trkpt>
      <trkpt lat="44.41571" lon="1.02664">
        <ele>203</ele>
        <time>2012-04-01T07:11:35Z</time>
      </trkpt>
      <trkpt lat="44.41573" lon="1.02666">
        <ele>203</ele>
        <time>2012-04-01T07:11:36Z</time>
      </trkpt>
      <trkpt lat="44.41576" lon="1.02668">
        <ele>203</ele>
        <time>2012-04-01T07:11:37Z</time>
      </trkpt>
      <trkpt lat="44.41578" lon="1.0267">
        <ele>203</ele>
        <time>2012-04-01T07:11:38Z</time>
      </trkpt>
      <trkpt lat="44.41581" lon="1.02672">
        <ele>203</ele>
        <time>2012-04-01T07:11:39Z</time>
      </trkpt>
      <trkpt lat="44.41583" lon="1.02674">
        <ele>203</ele>
        <time>2012-04-01T07:11:40Z</time>
      </trkpt>
      <trkpt lat="44.41585" lon="1.02676">
        <ele>203</ele>
        <time>2012-04-01T07:11:41Z</time>
      </trkpt>
      <trkpt lat="44.41587" lon="1.02679">
        <ele>203</ele>
        <time>2012-04-01T07:11:42Z</time>
      </trkpt>
      <trkpt lat="44.4159" lon="1.02682">
        <ele>203</ele>
        <time>2012-04-01T07:11:43Z</time>
      </trkpt>
      <trkpt lat="44.41591" lon="1.02685">
        <ele>203</ele>
        <time>2012-04-01T07:11:44Z</time>
      </trkpt>
      <trkpt lat="44.41593" lon="1.02689">
        <ele>203</ele>
        <time>2012-04-01T07:11:45Z</time>
      </trkpt>
      <trkpt lat="44.41594" lon="1.02691">
        <ele>203</ele>
        <time>2012-04-01T07:11:46Z</time>
      </trkpt>
      <trkpt lat="44.41596" lon="1.02694">
        <ele>203</ele>
        <time>2012-04-01T07:11:47Z</time>
      </trkpt>
      <trkpt lat="44.41597" lon="1.02698">
        <ele>203</ele>
        <time>2012-04-01T07:11:48Z</time>
      </trkpt>
      <trkpt lat="44.41599" lon="1.02701">
        <ele>203</ele>
        <time>2012-04-01T07:11:49Z</time>
      </trkpt>
      <trkpt lat="44.416" lon="1.02705">
        <ele>204</ele>
        <time>2012-04-01T07:11:50Z</time>
      </trkpt>
      <trkpt lat="44.41602" lon="1.02708">
        <ele>204</ele>
        <time>2012-04-01T07:11:51Z</time>
      </trkpt>
      <trkpt lat="44.41605" lon="1.02711">
        <ele>204</ele>
        <time>2012-04-01T07:11:52Z</time>
      </trkpt>
      <trkpt lat="44.41607" lon="1.02715">
        <ele>204</ele>
        <time>2012-04-01T07:11:53Z</time>
      </trkpt>
      <trkpt lat="44.41608" lon="1.02718">
        <ele>204</ele>
        <time>2012-04-01T07:11:54Z</time>
      </trkpt>
      <trkpt lat="44.4161" lon="1.02722">
        <ele>204</ele>
        <time>2012-04-01T07:11:55Z</time>
      </trkpt>
      <trkpt lat="44.41612" lon="1.02725">
        <ele>204</ele>
        <time>2012-04-01T07:11:56Z</time>
      </trkpt>
      <trkpt lat="44.41614" lon="1.02728">
        <ele>204</ele>
        <time>2012-04-01T07:11:57Z</time>
      </trkpt>
      <trkpt lat="44.41616" lon="1.02732">
        <ele>204</ele>
        <time>2012-04-01T07:11:58Z</time>
      </trkpt>
      <trkpt lat="44.41618" lon="1.02735">
        <ele>204</ele>
        <time>2012-04-01T07:11:59Z</time>
      </trkpt>
      <trkpt lat="44.41619" lon="1.02739">
        <ele>204</ele>
        <time>2012-04-01T07:12:00Z</time>
      </trkpt>
      <trkpt lat="44.41622" lon="1.02742">
        <ele>204</ele>
        <time>2012-04-01T07:12:01Z</time>
      </trkpt>
      <trkpt lat="44.41624" lon="1.02745">
        <ele>204</ele>
        <time>2012-04-01T07:12:02Z</time>
      </trkpt>
      <trkpt lat="44.41625" lon="1.02749">
        <ele>204</ele>
        <time>2012-04-01T07:12:03Z</time>
      </trkpt>
      <trkpt lat="44.41627" lon="1.02752">
        <ele>204</ele>
        <time>2012-04-01T07:12:04Z</time>
      </trkpt>
      <trkpt lat="44.41628" lon="1.02755">
        <ele>204</ele>
        <time>2012-04-01T07:12:05Z</time>
      </trkpt>
      <trkpt lat="44.4163" lon="1.02758">
        <ele>204</ele>
        <time>2012-04-01T07:12:06Z</time>
      </trkpt>
      <trkpt lat="44.41633" lon="1.02761">
        <ele>204</ele>
        <time>2012-04-01T07:12:07Z</time>
      </trkpt>
      <trkpt lat="44.41635" lon="1.02763">
        <ele>204</ele>
        <time>2012-04-01T07:12:08Z</time>
      </trkpt>
      <trkpt lat="44.41637" lon="1.02765">
        <ele>204</ele>
        <time>2012-04-01T07:12:09Z</time>
      </trkpt>
      <trkpt lat="44.41638" lon="1.02767">
        <ele>204</ele>
        <time>2012-04-01T07:12:10Z</time>
      </trkpt>
      <trkpt lat="44.4164" lon="1.02769">
        <ele>204</ele>
        <time>2012-04-01T07:12:11Z</time>
      </trkpt>
      <trkpt lat="44.41641" lon="1.02771">
        <ele>204</ele>
        <time>2012-04-01T07:12:12Z</time>
      </trkpt>
      <trkpt lat="44.41643" lon="1.02773">
        <ele>204</ele>
        <time>2012-04-01T07:12:13Z</time>
      </trkpt>
      <trkpt lat="44.41645" lon="1.02776">
        <ele>205</ele>
        <time>2012-04-01T07:12:14Z</time>
      </trkpt>
      <trkpt lat="44.41647" lon="1.02779">
        <ele>205</ele>
        <time>2012-04-01T07:12:15Z</time>
      </trkpt>
      <trkpt lat="44.41648" lon="1.02781">
        <ele>205</ele>
        <time>2012-04-01T07:12:16Z</time>
      </trkpt>
      <trkpt lat="44.4165" lon="1.02785">
        <ele>205</ele>
        <time>2012-04-01T07:12:17Z</time>
      </trkpt>
      <trkpt lat="44.41653" lon="1.02788">
        <ele>205</ele>
        <time>2012-04-01T07:12:18Z</time>
      </trkpt>
      <trkpt lat="44.41655" lon="1.02791">
        <ele>205</ele>
        <time>2012-04-01T07:12:19Z</time>
      </trkpt>
      <trkpt lat="44.41657" lon="1.02794">
        <ele>205</ele>
        <time>2012-04-01T07:12:20Z</time>
      </trkpt>
      <trkpt lat="44.41658" lon="1.02798">
        <ele>205</ele>
        <time>2012-04-01T07:12:21Z</time>
      </trkpt>
      <trkpt lat="44.41661" lon="1.02801">
        <ele>205</ele>
        <time>2012-04-01T07:12:22Z</time>
      </trkpt>
      <trkpt lat="44.41663" lon="1.02804">
        <ele>205</ele>
        <time>2012-04-01T07:12:23Z</time>
      </trkpt>
      <trkpt lat="44.41665" lon="1.02808">
        <ele>205</ele>
        <time>2012-04-01T07:12:24Z</time>
      </trkpt>
      <trkpt lat="44.41668" lon="1.0281">
        <ele>205</ele>
        <time>2012-04-01T07:12:25Z</time>
      </trkpt>
      <trkpt lat="44.4167" lon="1.02813">
        <ele>205</ele>
        <time>2012-04-01T07:12:26Z</time>
      </trkpt>
      <trkpt lat="44.41672" lon="1.02815">
        <ele>205</ele>
        <time>2012-04-01T07:12:27Z</time>
      </trkpt>
      <trkpt lat="44.41674" lon="1.02818">
        <ele>205</ele>
        <time>2012-04-01T07:12:28Z</time>
      </trkpt>
      <trkpt lat="44.41676" lon="1.02821">
        <ele>205</ele>
        <time>2012-04-01T07:12:29Z</time>
      </trkpt>
      <trkpt lat="44.41678" lon="1.02823">
        <ele>205</ele>
        <time>2012-04-01T07:12:30Z</time>
      </trkpt>
      <trkpt lat="44.4168" lon="1.02826">
        <ele>205</ele>
        <time>2012-04-01T07:12:31Z</time>
      </trkpt>
      <trkpt lat="44.41682" lon="1.0283">
        <ele>205</ele>
        <time>2012-04-01T07:12:32Z</time>
      </trkpt>
      <trkpt lat="44.41684" lon="1.02833">
        <ele>205</ele>
        <time>2012-04-01T07:12:33Z</time>
      </trkpt>
      <trkpt lat="44.41686" lon="1.02836">
        <ele>205</ele>
        <time>2012-04-01T07:12:34Z</time>
      </trkpt>
      <trkpt lat="44.41688" lon="1.0284">
        <ele>205</ele>
        <time>2012-04-01T07:12:35Z</time>
      </trkpt>
      <trkpt lat="44.41691" lon="1.02843">
        <ele>205</ele>
        <time>2012-04-01T07:12:36Z</time>
      </trkpt>
      <trkpt lat="44.41693" lon="1.02846">
        <ele>205</ele>
        <time>2012-04-01T07:12:37Z</time>
      </trkpt>
      <trkpt lat="44.41696" lon="1.02849">
        <ele>205</ele>
        <time>2012-04-01T07:12:38Z</time>
      </trkpt>
      <trkpt lat="44.41698" lon="1.02852">
        <ele>205</ele>
        <time>2012-04-01T07:12:39Z</time>
      </trkpt>
      <trkpt lat="44.417" lon="1.02856">
        <ele>205</ele>
        <time>2012-04-01T07:12:40Z</time>
      </trkpt>
      <trkpt lat="44.41703" lon="1.0286">
        <ele>205</ele>
        <time>2012-04-01T07:12:41Z</time>
      </trkpt>
      <trkpt lat="44.41705" lon="1.02864">
        <ele>205</ele>
        <time>2012-04-01T07:12:42Z</time>
      </trkpt>
      <trkpt lat="44.41708" lon="1.02868">
        <ele>205</ele>
        <time>2012-04-01T07:12:43Z</time>
      </trkpt>
      <trkpt lat="44.41711" lon="1.02872">
        <ele>205</ele>
        <time>2012-04-01T07:12:44Z</time>
      </trkpt>
      <trkpt lat="44.41714" lon="1.02875">
        <ele>205</ele>
        <time>2012-04-01T07:12:45Z</time>
      </trkpt>
      <trkpt lat="44.41717" lon="1.02879">
        <ele>205</ele>
        <time>2012-04-01T07:12:46Z</time>
      </trkpt>
      <trkpt lat="44.4172" lon="1.02883">
        <ele>205</ele>
        <time>2012-04-01T07:12:47Z</time>
      </trkpt>
      <trkpt lat="44.41723" lon="1.02887">
        <ele>205</ele>
        <time>2012-04-01T07:12:48Z</time>
      </trkpt>
      <trkpt lat="44.41727" lon="1.02892">
        <ele>205</ele>
        <time>2012-04-01T07:12:49Z</time>
      </trkpt>
      <trkpt lat="44.41731" lon="1.02897">
        <ele>205</ele>
        <time>2012-04-01T07:12:50Z</time>
      </trkpt>
      <trkpt lat="44.41734" lon="1.02902">
        <ele>205</ele>
        <time>2012-04-01T07:12:51Z</time>
      </trkpt>
      <trkpt lat="44.41738" lon="1.02907">
        <ele>205</ele>
        <time>2012-04-01T07:12:52Z</time>
      </trkpt>
      <trkpt lat="44.41742" lon="1.02912">
        <ele>205</ele>
        <time>2012-04-01T07:12:53Z</time>
      </trkpt>
      <trkpt lat="44.41745" lon="1.02917">
        <ele>205</ele>
        <time>2012-04-01T07:12:54Z</time>
      </trkpt>
      <trkpt lat="44.41748" lon="1.02922">
        <ele>205</ele>
        <time>2012-04-01T07:12:55Z</time>
      </trkpt>
      <trkpt lat="44.41751" lon="1.02928">
        <ele>205</ele>
        <time>2012-04-01T07:12:56Z</time>
      </trkpt>
      <trkpt lat="44.41754" lon="1.02934">
        <ele>205</ele>
        <time>2012-04-01T07:12:57Z</time>
      </trkpt>
      <trkpt lat="44.41757" lon="1.02939">
        <ele>205</ele>
        <time>2012-04-01T07:12:58Z</time>
      </trkpt>
      <trkpt lat="44.41761" lon="1.02945">
        <ele>205</ele>
        <time>2012-04-01T07:12:59Z</time>
      </trkpt>
      <trkpt lat="44.41764" lon="1.0295">
        <ele>205</ele>
        <time>2012-04-01T07:13:00Z</time>
      </trkpt>
      <trkpt lat="44.41767" lon="1.02955">
        <ele>205</ele>
        <time>2012-04-01T07:13:01Z</time>
      </trkpt>
      <trkpt lat="44.41769" lon="1.0296">
        <ele>205</ele>
        <time>2012-04-01T07:13:02Z</time>
      </trkpt>
      <trkpt lat="44.41772" lon="1.02965">
        <ele>205</ele>
        <time>2012-04-01T07:13:03Z</time>
      </trkpt>
      <trkpt lat="44.41775" lon="1.02971">
        <ele>205</ele>
        <time>2012-04-01T07:13:04Z</time>
      </trkpt>
      <trkpt lat="44.41777" lon="1.02976">
        <ele>205</ele>
        <time>2012-04-01T07:13:05Z</time>
      </trkpt>
      <trkpt lat="44.4178" lon="1.0298">
        <ele>205</ele>
        <time>2012-04-01T07:13:06Z</time>
      </trkpt>
      <trkpt lat="44.41783" lon="1.02984">
        <ele>205</ele>
        <time>2012-04-01T07:13:07Z</time>
      </trkpt>
      <trkpt lat="44.41786" lon="1.02989">
        <ele>205</ele>
        <time>2012-04-01T07:13:08Z</time>
      </trkpt>
      <trkpt lat="44.41788" lon="1.02993">
        <ele>205</ele>
        <time>2012-04-01T07:13:09Z</time>
      </trkpt>
      <trkpt lat="44.4179" lon="1.02998">
        <ele>205</ele>
        <time>2012-04-01T07:13:10Z</time>
      </trkpt>
      <trkpt lat="44.41793" lon="1.03002">
        <ele>204</ele>
        <time>2012-04-01T07:13:11Z</time>
      </trkpt>
      <trkpt lat="44.41795" lon="1.03006">
        <ele>204</ele>
        <time>2012-04-01T07:13:12Z</time>
      </trkpt>
      <trkpt lat="44.41798" lon="1.0301">
        <ele>204</ele>
        <time>2012-04-01T07:13:13Z</time>
      </trkpt>
      <trkpt lat="44.418" lon="1.03014">
        <ele>203</ele>
        <time>2012-04-01T07:13:14Z</time>
      </trkpt>
      <trkpt lat="44.41802" lon="1.03018">
        <ele>203</ele>
        <time>2012-04-01T07:13:15Z</time>
      </trkpt>
      <trkpt lat="44.41805" lon="1.03022">
        <ele>203</ele>
        <time>2012-04-01T07:13:16Z</time>
      </trkpt>
      <trkpt lat="44.41807" lon="1.03027">
        <ele>202</ele>
        <time>2012-04-01T07:13:17Z</time>
      </trkpt>
      <trkpt lat="44.41809" lon="1.03031">
        <ele>202</ele>
        <time>2012-04-01T07:13:18Z</time>
      </trkpt>
      <trkpt lat="44.41811" lon="1.03035">
        <ele>202</ele>
        <time>2012-04-01T07:13:19Z</time>
      </trkpt>
      <trkpt lat="44.41812" lon="1.03039">
        <ele>201</ele>
        <time>2012-04-01T07:13:20Z</time>
      </trkpt>
      <trkpt lat="44.41814" lon="1.03043">
        <ele>201</ele>
        <time>2012-04-01T07:13:21Z</time>
      </trkpt>
      <trkpt lat="44.41816" lon="1.03048">
        <ele>201</ele>
        <time>2012-04-01T07:13:22Z</time>
      </trkpt>
      <trkpt lat="44.41819" lon="1.03053">
        <ele>201</ele>
        <time>2012-04-01T07:13:23Z</time>
      </trkpt>
      <trkpt lat="44.41821" lon="1.03057">
        <ele>201</ele>
        <time>2012-04-01T07:13:24Z</time>
      </trkpt>
      <trkpt lat="44.41823" lon="1.03062">
        <ele>201</ele>
        <time>2012-04-01T07:13:25Z</time>
      </trkpt>
      <trkpt lat="44.41826" lon="1.03067">
        <ele>202</ele>
        <time>2012-04-01T07:13:26Z</time>
      </trkpt>
      <trkpt lat="44.41828" lon="1.03072">
        <ele>203</ele>
        <time>2012-04-01T07:13:27Z</time>
      </trkpt>
      <trkpt lat="44.4183" lon="1.03078">
        <ele>204</ele>
        <time>2012-04-01T07:13:28Z</time>
      </trkpt>
      <trkpt lat="44.41832" lon="1.03083">
        <ele>205</ele>
        <time>2012-04-01T07:13:29Z</time>
      </trkpt>
      <trkpt lat="44.41835" lon="1.03088">
        <ele>206</ele>
        <time>2012-04-01T07:13:30Z</time>
      </trkpt>
      <trkpt lat="44.41837" lon="1.03094">
        <ele>207</ele>
        <time>2012-04-01T07:13:31Z</time>
      </trkpt>
      <trkpt lat="44.4184" lon="1.031">
        <ele>208</ele>
        <time>2012-04-01T07:13:32Z</time>
      </trkpt>
      <trkpt lat="44.41843" lon="1.03106">
        <ele>209</ele>
        <time>2012-04-01T07:13:33Z</time>
      </trkpt>
      <trkpt lat="44.41846" lon="1.03113">
        <ele>210</ele>
        <time>2012-04-01T07:13:34Z</time>
      </trkpt>
      <trkpt lat="44.41849" lon="1.0312">
        <ele>211</ele>
        <time>2012-04-01T07:13:35Z</time>
      </trkpt>
      <trkpt lat="44.41852" lon="1.03127">
        <ele>212</ele>
        <time>2012-04-01T07:13:36Z</time>
      </trkpt>
      <trkpt lat="44.41854" lon="1.03134">
        <ele>213</ele>
        <time>2012-04-01T07:13:37Z</time>
      </trkpt>
      <trkpt lat="44.41856" lon="1.0314">
        <ele>214</ele>
        <time>2012-04-01T07:13:38Z</time>
      </trkpt>
      <trkpt lat="44.41858" lon="1.03148">
        <ele>215</ele>
        <time>2012-04-01T07:13:39Z</time>
      </trkpt>
      <trkpt lat="44.4186" lon="1.03155">
        <ele>216</ele>
        <time>2012-04-01T07:13:40Z</time>
      </trkpt>
      <trkpt lat="44.41861" lon="1.03161">
        <ele>217</ele>
        <time>2012-04-01T07:13:41Z</time>
      </trkpt>
      <trkpt lat="44.41862" lon="1.03164">
        <ele>217</ele>
        <time>2012-04-01T07:13:42Z</time>
      </trkpt>
      <trkpt lat="44.41862" lon="1.03168">
        <ele>217</ele>
        <time>2012-04-01T07:13:43Z</time>
      </trkpt>
      <trkpt lat="44.41862" lon="1.03171">
        <ele>217</ele>
        <time>2012-04-01T07:13:44Z</time>
      </trkpt>
      <trkpt lat="44.41861" lon="1.03174">
        <ele>217</ele>
        <time>2012-04-01T07:13:45Z</time>
      </trkpt>
      <trkpt lat="44.41856" lon="1.03177">
        <ele>217</ele>
        <time>2012-04-01T07:13:46Z</time>
      </trkpt>
      <trkpt lat="44.41851" lon="1.0318">
        <ele>217</ele>
        <time>2012-04-01T07:13:47Z</time>
      </trkpt>
      <trkpt lat="44.41845" lon="1.03182">
        <ele>217</ele>
        <time>2012-04-01T07:13:48Z</time>
      </trkpt>
      <trkpt lat="44.41838" lon="1.03183">
        <ele>217</ele>
        <time>2012-04-01T07:13:49Z</time>
      </trkpt>
      <trkpt lat="44.41829" lon="1.03184">
        <ele>216</ele>
        <time>2012-04-01T07:13:50Z</time>
      </trkpt>
      <trkpt lat="44.41821" lon="1.03186">
        <ele>215</ele>
        <time>2012-04-01T07:13:51Z</time>
      </trkpt>
      <trkpt lat="44.41813" lon="1.03188">
        <ele>214</ele>
        <time>2012-04-01T07:13:52Z</time>
      </trkpt>
      <trkpt lat="44.41807" lon="1.0319">
        <ele>213</ele>
        <time>2012-04-01T07:13:53Z</time>
      </trkpt>
      <trkpt lat="44.418" lon="1.03191">
        <ele>212</ele>
        <time>2012-04-01T07:13:54Z</time>
      </trkpt>
      <trkpt lat="44.41793" lon="1.0319">
        <ele>211</ele>
        <time>2012-04-01T07:13:55Z</time>
      </trkpt>
      <trkpt lat="44.41786" lon="1.0319">
        <ele>210</ele>
        <time>2012-04-01T07:13:56Z</time>
      </trkpt>
      <trkpt lat="44.41779" lon="1.0319">
        <ele>209</ele>
        <time>2012-04-01T07:13:57Z</time>
      </trkpt>
      <trkpt lat="44.41772" lon="1.03189">
        <ele>208</ele>
        <time>2012-04-01T07:13:58Z</time>
      </trkpt>
      <trkpt lat="44.41766" lon="1.03187">
        <ele>207</ele>
        <time>2012-04-01T07:13:59Z</time>
      </trkpt>
      <trkpt lat="44.4176" lon="1.03184">
        <ele>206</ele>
        <time>2012-04-01T07:14:00Z</time>
      </trkpt>
      <trkpt lat="44.41754" lon="1.03181">
        <ele>205</ele>
        <time>2012-04-01T07:14:01Z</time>
      </trkpt>
      <trkpt lat="44.41749" lon="1.03179">
        <ele>204</ele>
        <time>2012-04-01T07:14:02Z</time>
      </trkpt>
      <trkpt lat="44.41743" lon="1.03177">
        <ele>203</ele>
        <time>2012-04-01T07:14:03Z</time>
      </trkpt>
      <trkpt lat="44.41736" lon="1.03175">
        <ele>202</ele>
        <time>2012-04-01T07:14:04Z</time>
      </trkpt>
      <trkpt lat="44.41729" lon="1.03173">
        <ele>201</ele>
        <time>2012-04-01T07:14:05Z</time>
      </trkpt>
      <trkpt lat="44.41721" lon="1.03172">
        <ele>200</ele>
        <time>2012-04-01T07:14:06Z</time>
      </trkpt>
      <trkpt lat="44.41713" lon="1.03172">
        <ele>199</ele>
        <time>2012-04-01T07:14:07Z</time>
      </trkpt>
      <trkpt lat="44.41704" lon="1.03173">
        <ele>198</ele>
        <time>2012-04-01T07:14:08Z</time>
      </trkpt>
      <trkpt lat="44.41697" lon="1.03173">
        <ele>197</ele>
        <time>2012-04-01T07:14:09Z</time>
      </trkpt>
      <trkpt lat="44.4169" lon="1.03174">
        <ele>196</ele>
        <time>2012-04-01T07:14:10Z</time>
      </trkpt>
      <trkpt lat="44.41685" lon="1.03175">
        <ele>194</ele>
        <time>2012-04-01T07:14:11Z</time>
      </trkpt>
      <trkpt lat="44.4168" lon="1.03176">
        <ele>193</ele>
        <time>2012-04-01T07:14:12Z</time>
      </trkpt>
      <trkpt lat="44.41676" lon="1.03176">
        <ele>191</ele>
        <time>2012-04-01T07:14:13Z</time>
      </trkpt>
      <trkpt lat="44.41673" lon="1.03177">
        <ele>190</ele>
        <time>2012-04-01T07:14:14Z</time>
      </trkpt>
      <trkpt lat="44.41671" lon="1.03179">
        <ele>189</ele>
        <time>2012-04-01T07:14:15Z</time>
      </trkpt>
      <trkpt lat="44.4167" lon="1.03181">
        <ele>188</ele>
        <time>2012-04-01T07:14:16Z</time>
      </trkpt>
      <trkpt lat="44.41669" lon="1.03184">
        <ele>187</ele>
        <time>2012-04-01T07:14:17Z</time>
      </trkpt>
      <trkpt lat="44.41669" lon="1.03186">
        <ele>186</ele>
        <time>2012-04-01T07:14:18Z</time>
      </trkpt>
      <trkpt lat="44.41667" lon="1.03188">
        <ele>185</ele>
        <time>2012-04-01T07:14:19Z</time>
      </trkpt>
      <trkpt lat="44.41666" lon="1.03194">
        <ele>184</ele>
        <time>2012-04-01T07:14:20Z</time>
      </trkpt>
      <trkpt lat="44.41665" lon="1.032">
        <ele>183</ele>
        <time>2012-04-01T07:14:21Z</time>
      </trkpt>
      <trkpt lat="44.41664" lon="1.03208">
        <ele>182</ele>
        <time>2012-04-01T07:14:22Z</time>
      </trkpt>
      <trkpt lat="44.41663" lon="1.03215">
        <ele>181</ele>
        <time>2012-04-01T07:14:23Z</time>
      </trkpt>
      <trkpt lat="44.41662" lon="1.03224">
        <ele>180</ele>
        <time>2012-04-01T07:14:24Z</time>
      </trkpt>
      <trkpt lat="44.41661" lon="1.03234">
        <ele>179</ele>
        <time>2012-04-01T07:14:25Z</time>
      </trkpt>
      <trkpt lat="44.41661" lon="1.03244">
        <ele>179</ele>
        <time>2012-04-01T07:14:26Z</time>
      </trkpt>
      <trkpt lat="44.41661" lon="1.03253">
        <ele>179</ele>
        <time>2012-04-01T07:14:27Z</time>
      </trkpt>
      <trkpt lat="44.41657" lon="1.03264">
        <ele>179</ele>
        <time>2012-04-01T07:14:28Z</time>
      </trkpt>
      <trkpt lat="44.41655" lon="1.03273">
        <ele>179</ele>
        <time>2012-04-01T07:14:29Z</time>
      </trkpt>
      <trkpt lat="44.41651" lon="1.03281">
        <ele>179</ele>
        <time>2012-04-01T07:14:30Z</time>
      </trkpt>
      <trkpt lat="44.41648" lon="1.03289">
        <ele>179</ele>
        <time>2012-04-01T07:14:31Z</time>
      </trkpt>
      <trkpt lat="44.41644" lon="1.03298">
        <ele>178</ele>
        <time>2012-04-01T07:14:32Z</time>
      </trkpt>
      <trkpt lat="44.41639" lon="1.03307">
        <ele>177</ele>
        <time>2012-04-01T07:14:33Z</time>
      </trkpt>
      <trkpt lat="44.41634" lon="1.03318">
        <ele>176</ele>
        <time>2012-04-01T07:14:34Z</time>
      </trkpt>
      <trkpt lat="44.41629" lon="1.0333">
        <ele>175</ele>
        <time>2012-04-01T07:14:35Z</time>
      </trkpt>
      <trkpt lat="44.41623" lon="1.0334">
        <ele>174</ele>
        <time>2012-04-01T07:14:36Z</time>
      </trkpt>
      <trkpt lat="44.41619" lon="1.03349">
        <ele>173</ele>
        <time>2012-04-01T07:14:37Z</time>
      </trkpt>
      <trkpt lat="44.41614" lon="1.03358">
        <ele>172</ele>
        <time>2012-04-01T07:14:38Z</time>
      </trkpt>
      <trkpt lat="44.4161" lon="1.03365">
        <ele>171</ele>
        <time>2012-04-01T07:14:39Z</time>
      </trkpt>
      <trkpt lat="44.41606" lon="1.03372">
        <ele>170</ele>
        <time>2012-04-01T07:14:40Z</time>
      </trkpt>
      <trkpt lat="44.41602" lon="1.03378">
        <ele>169</ele>
        <time>2012-04-01T07:14:41Z</time>
      </trkpt>
      <trkpt lat="44.41597" lon="1.03384">
        <ele>168</ele>
        <time>2012-04-01T07:14:42Z</time>
      </trkpt>
      <trkpt lat="44.41593" lon="1.03389">
        <ele>167</ele>
        <time>2012-04-01T07:14:43Z</time>
      </trkpt>
      <trkpt lat="44.41589" lon="1.03393">
        <ele>166</ele>
        <time>2012-04-01T07:14:44Z</time>
      </trkpt>
      <trkpt lat="44.41586" lon="1.03399">
        <ele>165</ele>
        <time>2012-04-01T07:14:45Z</time>
      </trkpt>
      <trkpt lat="44.41582" lon="1.03404">
        <ele>164</ele>
        <time>2012-04-01T07:14:46Z</time>
      </trkpt>
      <trkpt lat="44.41578" lon="1.0341">
        <ele>163</ele>
        <time>2012-04-01T07:14:47Z</time>
      </trkpt>
      <trkpt lat="44.41574" lon="1.03415">
        <ele>162</ele>
        <time>2012-04-01T07:14:48Z</time>
      </trkpt>
      <trkpt lat="44.41571" lon="1.03422">
        <ele>161</ele>
        <time>2012-04-01T07:14:49Z</time>
      </trkpt>
      <trkpt lat="44.41568" lon="1.0343">
        <ele>160</ele>
        <time>2012-04-01T07:14:50Z</time>
      </trkpt>
      <trkpt lat="44.41566" lon="1.03437">
        <ele>159</ele>
        <time>2012-04-01T07:14:51Z</time>
      </trkpt>
      <trkpt lat="44.41564" lon="1.03444">
        <ele>158</ele>
        <time>2012-04-01T07:14:52Z</time>
      </trkpt>
      <trkpt lat="44.4156" lon="1.03451">
        <ele>158</ele>
        <time>2012-04-01T07:14:53Z</time>
      </trkpt>
      <trkpt lat="44.41556" lon="1.03456">
        <ele>158</ele>
        <time>2012-04-01T07:14:54Z</time>
      </trkpt>
      <trkpt lat="44.41551" lon="1.03459">
        <ele>158</ele>
        <time>2012-04-01T07:14:55Z</time>
      </trkpt>
      <trkpt lat="44.41546" lon="1.03462">
        <ele>158</ele>
        <time>2012-04-01T07:14:56Z</time>
      </trkpt>
      <trkpt lat="44.41539" lon="1.03462">
        <ele>158</ele>
        <time>2012-04-01T07:14:57Z</time>
      </trkpt>
      <trkpt lat="44.41534" lon="1.03462">
        <ele>158</ele>
        <time>2012-04-01T07:14:58Z</time>
      </trkpt>
      <trkpt lat="44.41529" lon="1.03462">
        <ele>158</ele>
        <time>2012-04-01T07:14:59Z</time>
      </trkpt>
      <trkpt lat="44.41526" lon="1.03461">
        <ele>158</ele>
        <time>2012-04-01T07:15:00Z</time>
      </trkpt>
      <trkpt lat="44.41522" lon="1.0346">
        <ele>158</ele>
        <time>2012-04-01T07:15:01Z</time>
      </trkpt>
      <trkpt lat="44.41518" lon="1.03459">
        <ele>158</ele>
        <time>2012-04-01T07:15:02Z</time>
      </trkpt>
      <trkpt lat="44.41513" lon="1.03459">
        <ele>158</ele>
        <time>2012-04-01T07:15:03Z</time>
      </trkpt>
      <trkpt lat="44.41509" lon="1.03458">
        <ele>158</ele>
        <time>2012-04-01T07:15:04Z</time>
      </trkpt>
      <trkpt lat="44.41505" lon="1.03458">
        <ele>158</ele>
        <time>2012-04-01T07:15:05Z</time>
      </trkpt>
      <trkpt lat="44.41501" lon="1.03458">
        <ele>158</ele>
        <time>2012-04-01T07:15:06Z</time>
      </trkpt>
      <trkpt lat="44.41497" lon="1.03459">
        <ele>158</ele>
        <time>2012-04-01T07:15:07Z</time>
      </trkpt>
      <trkpt lat="44.41493" lon="1.0346">
        <ele>158</ele>
        <time>2012-04-01T07:15:08Z</time>
      </trkpt>
      <trkpt lat="44.4149" lon="1.03461">
        <ele>158</ele>
        <time>2012-04-01T07:15:09Z</time>
      </trkpt>
      <trkpt lat="44.41486" lon="1.03461">
        <ele>158</ele>
        <time>2012-04-01T07:15:10Z</time>
      </trkpt>
      <trkpt lat="44.41482" lon="1.03462">
        <ele>158</ele>
        <time>2012-04-01T07:15:11Z</time>
      </trkpt>
      <trkpt lat="44.41478" lon="1.03461">
        <ele>158</ele>
        <time>2012-04-01T07:15:12Z</time>
      </trkpt>
      <trkpt lat="44.41474" lon="1.03461">
        <ele>158</ele>
        <time>2012-04-01T07:15:13Z</time>
      </trkpt>
      <trkpt lat="44.4147" lon="1.03461">
        <ele>158</ele>
        <time>2012-04-01T07:15:14Z</time>
      </trkpt>
      <trkpt lat="44.41467" lon="1.03462">
        <ele>158</ele>
        <time>2012-04-01T07:15:15Z</time>
      </trkpt>
      <trkpt lat="44.41462" lon="1.03462">
        <ele>158</ele>
        <time>2012-04-01T07:15:16Z</time>
      </trkpt>
      <trkpt lat="44.41459" lon="1.03464">
        <ele>158</ele>
        <time>2012-04-01T07:15:17Z</time>
      </trkpt>
      <trkpt lat="44.41455" lon="1.03466">
        <ele>158</ele>
        <time>2012-04-01T07:15:18Z</time>
      </trkpt>
      <trkpt lat="44.41452" lon="1.03469">
        <ele>158</ele>
        <time>2012-04-01T07:15:19Z</time>
      </trkpt>
      <trkpt lat="44.41449" lon="1.03473">
        <ele>158</ele>
        <time>2012-04-01T07:15:20Z</time>
      </trkpt>
      <trkpt lat="44.41447" lon="1.03476">
        <ele>158</ele>
        <time>2012-04-01T07:15:21Z</time>
      </trkpt>
      <trkpt lat="44.41444" lon="1.03479">
        <ele>158</ele>
        <time>2012-04-01T07:15:22Z</time>
      </trkpt>
      <trkpt lat="44.41442" lon="1.03482">
        <ele>158</ele>
        <time>2012-04-01T07:15:23Z</time>
      </trkpt>
      <trkpt lat="44.41441" lon="1.03485">
        <ele>158</ele>
        <time>2012-04-01T07:15:24Z</time>
      </trkpt>
      <trkpt lat="44.41438" lon="1.03487">
        <ele>158</ele>
        <time>2012-04-01T07:15:25Z</time>
      </trkpt>
      <trkpt lat="44.41436" lon="1.03489">
        <ele>158</ele>
        <time>2012-04-01T07:15:26Z</time>
      </trkpt>
      <trkpt lat="44.41434" lon="1.03491">
        <ele>158</ele>
        <time>2012-04-01T07:15:27Z</time>
      </trkpt>
      <trkpt lat="44.41431" lon="1.03492">
        <ele>159</ele>
        <time>2012-04-01T07:15:28Z</time>
      </trkpt>
      <trkpt lat="44.41429" lon="1.03494">
        <ele>159</ele>
        <time>2012-04-01T07:15:29Z</time>
      </trkpt>
      <trkpt lat="44.41427" lon="1.03495">
        <ele>160</ele>
        <time>2012-04-01T07:15:30Z</time>
      </trkpt>
      <trkpt lat="44.41424" lon="1.03496">
        <ele>161</ele>
        <time>2012-04-01T07:15:31Z</time>
      </trkpt>
      <trkpt lat="44.41422" lon="1.03498">
        <ele>161</ele>
        <time>2012-04-01T07:15:32Z</time>
      </trkpt>
      <trkpt lat="44.41419" lon="1.03499">
        <ele>162</ele>
        <time>2012-04-01T07:15:33Z</time>
      </trkpt>
      <trkpt lat="44.41417" lon="1.035">
        <ele>162</ele>
        <time>2012-04-01T07:15:34Z</time>
      </trkpt>
      <trkpt lat="44.41414" lon="1.03501">
        <ele>162</ele>
        <time>2012-04-01T07:15:35Z</time>
      </trkpt>
      <trkpt lat="44.41411" lon="1.03504">
        <ele>163</ele>
        <time>2012-04-01T07:15:36Z</time>
      </trkpt>
      <trkpt lat="44.41408" lon="1.03505">
        <ele>163</ele>
        <time>2012-04-01T07:15:37Z</time>
      </trkpt>
      <trkpt lat="44.41405" lon="1.03506">
        <ele>164</ele>
        <time>2012-04-01T07:15:38Z</time>
      </trkpt>
      <trkpt lat="44.41402" lon="1.03508">
        <ele>164</ele>
        <time>2012-04-01T07:15:39Z</time>
      </trkpt>
      <trkpt lat="44.414" lon="1.0351">
        <ele>165</ele>
        <time>2012-04-01T07:15:40Z</time>
      </trkpt>
      <trkpt lat="44.41397" lon="1.03512">
        <ele>165</ele>
        <time>2012-04-01T07:15:41Z</time>
      </trkpt>
      <trkpt lat="44.41394" lon="1.03514">
        <ele>165</ele>
        <time>2012-04-01T07:15:42Z</time>
      </trkpt>
      <trkpt lat="44.41392" lon="1.03516">
        <ele>165</ele>
        <time>2012-04-01T07:15:43Z</time>
      </trkpt>
      <trkpt lat="44.41389" lon="1.03517">
        <ele>165</ele>
        <time>2012-04-01T07:15:44Z</time>
      </trkpt>
      <trkpt lat="44.41387" lon="1.03519">
        <ele>165</ele>
        <time>2012-04-01T07:15:45Z</time>
      </trkpt>
      <trkpt lat="44.41384" lon="1.03521">
        <ele>165</ele>
        <time>2012-04-01T07:15:46Z</time>
      </trkpt>
      <trkpt lat="44.41382" lon="1.03522">
        <ele>165</ele>
        <time>2012-04-01T07:15:47Z</time>
      </trkpt>
      <trkpt lat="44.41379" lon="1.03523">
        <ele>165</ele>
        <time>2012-04-01T07:15:48Z</time>
      </trkpt>
      <trkpt lat="44.41376" lon="1.03525">
        <ele>165</ele>
        <time>2012-04-01T07:15:49Z</time>
      </trkpt>
      <trkpt lat="44.41373" lon="1.03525">
        <ele>165</ele>
        <time>2012-04-01T07:15:50Z</time>
      </trkpt>
      <trkpt lat="44.41371" lon="1.03526">
        <ele>166</ele>
        <time>2012-04-01T07:15:51Z</time>
      </trkpt>
      <trkpt lat="44.4137" lon="1.03527">
        <ele>166</ele>
        <time>2012-04-01T07:15:52Z</time>
      </trkpt>
      <trkpt lat="44.41368" lon="1.03527">
        <ele>167</ele>
        <time>2012-04-01T07:15:53Z</time>
      </trkpt>
      <trkpt lat="44.41367" lon="1.03528">
        <ele>167</ele>
        <time>2012-04-01T07:15:54Z</time>
      </trkpt>
      <trkpt lat="44.41365" lon="1.03529">
        <ele>167</ele>
        <time>2012-04-01T07:15:55Z</time>
      </trkpt>
      <trkpt lat="44.41364" lon="1.03531">
        <ele>168</ele>
        <time>2012-04-01T07:15:56Z</time>
      </trkpt>
      <trkpt lat="44.41362" lon="1.03533">
        <ele>168</ele>
        <time>2012-04-01T07:15:58Z</time>
      </trkpt>
      <trkpt lat="44.4136" lon="1.03534">
        <ele>169</ele>
        <time>2012-04-01T07:15:59Z</time>
      </trkpt>
      <trkpt lat="44.41358" lon="1.03537">
        <ele>169</ele>
        <time>2012-04-01T07:16:01Z</time>
      </trkpt>
      <trkpt lat="44.41356" lon="1.03539">
        <ele>169</ele>
        <time>2012-04-01T07:16:02Z</time>
      </trkpt>
      <trkpt lat="44.41355" lon="1.0354">
        <ele>169</ele>
        <time>2012-04-01T07:16:03Z</time>
      </trkpt>
      <trkpt lat="44.41353" lon="1.03541">
        <ele>169</ele>
        <time>2012-04-01T07:16:04Z</time>
      </trkpt>
      <trkpt lat="44.41352" lon="1.03541">
        <ele>169</ele>
        <time>2012-04-01T07:16:05Z</time>
      </trkpt>
      <trkpt lat="44.4135" lon="1.03541">
        <ele>169</ele>
        <time>2012-04-01T07:16:06Z</time>
      </trkpt>
      <trkpt lat="44.41348" lon="1.03542">
        <ele>170</ele>
        <time>2012-04-01T07:16:08Z</time>
      </trkpt>
      <trkpt lat="44.41346" lon="1.03543">
        <ele>171</ele>
        <time>2012-04-01T07:16:09Z</time>
      </trkpt>
      <trkpt lat="44.41345" lon="1.03543">
        <ele>172</ele>
        <time>2012-04-01T07:16:10Z</time>
      </trkpt>
      <trkpt lat="44.41344" lon="1.03543">
        <ele>172</ele>
        <time>2012-04-01T07:16:11Z</time>
      </trkpt>
      <trkpt lat="44.41342" lon="1.03544">
        <ele>173</ele>
        <time>2012-04-01T07:16:12Z</time>
      </trkpt>
      <trkpt lat="44.4134" lon="1.03544">
        <ele>174</ele>
        <time>2012-04-01T07:16:14Z</time>
      </trkpt>
      <trkpt lat="44.41338" lon="1.03544">
        <ele>174</ele>
        <time>2012-04-01T07:16:15Z</time>
      </trkpt>
      <trkpt lat="44.41337" lon="1.03545">
        <ele>174</ele>
        <time>2012-04-01T07:16:16Z</time>
      </trkpt>
      <trkpt lat="44.41336" lon="1.03547">
        <ele>174</ele>
        <time>2012-04-01T07:16:18Z</time>
      </trkpt>
      <trkpt lat="44.41334" lon="1.03548">
        <ele>174</ele>
        <time>2012-04-01T07:16:19Z</time>
      </trkpt>
      <trkpt lat="44.41333" lon="1.03548">
        <ele>175</ele>
        <time>2012-04-01T07:16:20Z</time>
      </trkpt>
      <trkpt lat="44.41331" lon="1.03549">
        <ele>175</ele>
        <time>2012-04-01T07:16:21Z</time>
      </trkpt>
      <trkpt lat="44.4133" lon="1.03549">
        <ele>175</ele>
        <time>2012-04-01T07:16:22Z</time>
      </trkpt>
      <trkpt lat="44.41329" lon="1.03549">
        <ele>176</ele>
        <time>2012-04-01T07:16:23Z</time>
      </trkpt>
      <trkpt lat="44.41328" lon="1.0355">
        <ele>176</ele>
        <time>2012-04-01T07:16:24Z</time>
      </trkpt>
      <trkpt lat="44.41326" lon="1.0355">
        <ele>176</ele>
        <time>2012-04-01T07:16:26Z</time>
      </trkpt>
      <trkpt lat="44.41324" lon="1.03551">
        <ele>176</ele>
        <time>2012-04-01T07:16:27Z</time>
      </trkpt>
      <trkpt lat="44.41323" lon="1.03552">
        <ele>176</ele>
        <time>2012-04-01T07:16:28Z</time>
      </trkpt>
      <trkpt lat="44.41322" lon="1.03553">
        <ele>176</ele>
        <time>2012-04-01T07:16:29Z</time>
      </trkpt>
      <trkpt lat="44.4132" lon="1.03554">
        <ele>176</ele>
        <time>2012-04-01T07:16:30Z</time>
      </trkpt>
      <trkpt lat="44.41319" lon="1.03554">
        <ele>176</ele>
        <time>2012-04-01T07:16:31Z</time>
      </trkpt>
      <trkpt lat="44.41317" lon="1.03555">
        <ele>176</ele>
        <time>2012-04-01T07:16:33Z</time>
      </trkpt>
      <trkpt lat="44.41315" lon="1.03557">
        <ele>176</ele>
        <time>2012-04-01T07:16:34Z</time>
      </trkpt>
      <trkpt lat="44.41314" lon="1.03558">
        <ele>176</ele>
        <time>2012-04-01T07:16:35Z</time>
      </trkpt>
      <trkpt lat="44.41312" lon="1.03558">
        <ele>176</ele>
        <time>2012-04-01T07:16:36Z</time>
      </trkpt>
      <trkpt lat="44.4131" lon="1.03559">
        <ele>176</ele>
        <time>2012-04-01T07:16:37Z</time>
      </trkpt>
      <trkpt lat="44.41309" lon="1.0356">
        <ele>177</ele>
        <time>2012-04-01T07:16:38Z</time>
      </trkpt>
      <trkpt lat="44.41306" lon="1.03561">
        <ele>177</ele>
        <time>2012-04-01T07:16:40Z</time>
      </trkpt>
      <trkpt lat="44.41305" lon="1.03561">
        <ele>178</ele>
        <time>2012-04-01T07:16:41Z</time>
      </trkpt>
      <trkpt lat="44.41302" lon="1.03562">
        <ele>179</ele>
        <time>2012-04-01T07:16:42Z</time>
      </trkpt>
      <trkpt lat="44.41301" lon="1.03562">
        <ele>179</ele>
        <time>2012-04-01T07:16:43Z</time>
      </trkpt>
      <trkpt lat="44.41299" lon="1.03563">
        <ele>180</ele>
        <time>2012-04-01T07:16:44Z</time>
      </trkpt>
      <trkpt lat="44.41298" lon="1.03563">
        <ele>181</ele>
        <time>2012-04-01T07:16:45Z</time>
      </trkpt>
      <trkpt lat="44.41296" lon="1.03563">
        <ele>181</ele>
        <time>2012-04-01T07:16:46Z</time>
      </trkpt>
      <trkpt lat="44.41295" lon="1.03564">
        <ele>181</ele>
        <time>2012-04-01T07:16:47Z</time>
      </trkpt>
      <trkpt lat="44.41294" lon="1.03565">
        <ele>181</ele>
        <time>2012-04-01T07:16:48Z</time>
      </trkpt>
      <trkpt lat="44.41293" lon="1.03565">
        <ele>181</ele>
        <time>2012-04-01T07:16:49Z</time>
      </trkpt>
      <trkpt lat="44.41291" lon="1.03566">
        <ele>181</ele>
        <time>2012-04-01T07:16:50Z</time>
      </trkpt>
      <trkpt lat="44.4129" lon="1.03566">
        <ele>181</ele>
        <time>2012-04-01T07:16:51Z</time>
      </trkpt>
      <trkpt lat="44.41288" lon="1.03567">
        <ele>181</ele>
        <time>2012-04-01T07:16:52Z</time>
      </trkpt>
      <trkpt lat="44.41286" lon="1.03568">
        <ele>181</ele>
        <time>2012-04-01T07:16:54Z</time>
      </trkpt>
      <trkpt lat="44.41285" lon="1.03571">
        <ele>181</ele>
        <time>2012-04-01T07:16:56Z</time>
      </trkpt>
      <trkpt lat="44.41285" lon="1.03573">
        <ele>181</ele>
        <time>2012-04-01T07:16:57Z</time>
      </trkpt>
      <trkpt lat="44.41283" lon="1.03574">
        <ele>181</ele>
        <time>2012-04-01T07:16:58Z</time>
      </trkpt>
      <trkpt lat="44.41282" lon="1.03574">
        <ele>181</ele>
        <time>2012-04-01T07:16:59Z</time>
      </trkpt>
      <trkpt lat="44.4128" lon="1.03576">
        <ele>181</ele>
        <time>2012-04-01T07:17:01Z</time>
      </trkpt>
      <trkpt lat="44.41279" lon="1.03576">
        <ele>181</ele>
        <time>2012-04-01T07:17:02Z</time>
      </trkpt>
      <trkpt lat="44.41278" lon="1.03577">
        <ele>181</ele>
        <time>2012-04-01T07:17:03Z</time>
      </trkpt>
      <trkpt lat="44.41275" lon="1.03578">
        <ele>182</ele>
        <time>2012-04-01T07:17:05Z</time>
      </trkpt>
      <trkpt lat="44.41274" lon="1.03579">
        <ele>182</ele>
        <time>2012-04-01T07:17:06Z</time>
      </trkpt>
      <trkpt lat="44.41273" lon="1.0358">
        <ele>183</ele>
        <time>2012-04-01T07:17:07Z</time>
      </trkpt>
      <trkpt lat="44.41272" lon="1.03581">
        <ele>183</ele>
        <time>2012-04-01T07:17:08Z</time>
      </trkpt>
      <trkpt lat="44.41269" lon="1.03583">
        <ele>184</ele>
        <time>2012-04-01T07:17:10Z</time>
      </trkpt>
      <trkpt lat="44.41268" lon="1.03584">
        <ele>185</ele>
        <time>2012-04-01T07:17:11Z</time>
      </trkpt>
      <trkpt lat="44.41266" lon="1.03585">
        <ele>185</ele>
        <time>2012-04-01T07:17:13Z</time>
      </trkpt>
      <trkpt lat="44.41264" lon="1.03585">
        <ele>185</ele>
        <time>2012-04-01T07:17:15Z</time>
      </trkpt>
      <trkpt lat="44.41262" lon="1.03585">
        <ele>185</ele>
        <time>2012-04-01T07:17:17Z</time>
      </trkpt>
      <trkpt lat="44.41259" lon="1.03586">
        <ele>185</ele>
        <time>2012-04-01T07:17:19Z</time>
      </trkpt>
      <trkpt lat="44.41257" lon="1.03587">
        <ele>185</ele>
        <time>2012-04-01T07:17:21Z</time>
      </trkpt>
      <trkpt lat="44.41255" lon="1.03587">
        <ele>185</ele>
        <time>2012-04-01T07:17:22Z</time>
      </trkpt>
      <trkpt lat="44.41254" lon="1.03588">
        <ele>185</ele>
        <time>2012-04-01T07:17:23Z</time>
      </trkpt>
      <trkpt lat="44.41252" lon="1.03588">
        <ele>186</ele>
        <time>2012-04-01T07:17:25Z</time>
      </trkpt>
      <trkpt lat="44.41251" lon="1.03589">
        <ele>186</ele>
        <time>2012-04-01T07:17:29Z</time>
      </trkpt>
      <trkpt lat="44.41249" lon="1.03588">
        <ele>188</ele>
        <time>2012-04-01T07:17:34Z</time>
      </trkpt>
      <trkpt lat="44.41248" lon="1.03587">
        <ele>190</ele>
        <time>2012-04-01T07:17:40Z</time>
      </trkpt>
      <trkpt lat="44.41247" lon="1.03586">
        <ele>194</ele>
        <time>2012-04-01T07:17:49Z</time>
      </trkpt>
      <trkpt lat="44.41246" lon="1.03587">
        <ele>197</ele>
        <time>2012-04-01T07:17:56Z</time>
      </trkpt>
      <trkpt lat="44.41246" lon="1.03589">
        <ele>200</ele>
        <time>2012-04-01T07:18:09Z</time>
      </trkpt>
      <trkpt lat="44.41248" lon="1.0359">
        <ele>203</ele>
        <time>2012-04-01T07:18:18Z</time>
      </trkpt>
      <trkpt lat="44.41246" lon="1.0359">
        <ele>205</ele>
        <time>2012-04-01T07:18:30Z</time>
      </trkpt>
      <trkpt lat="44.41245" lon="1.0359">
        <ele>205</ele>
        <time>2012-04-01T07:18:37Z</time>
      </trkpt>
      <trkpt lat="44.41244" lon="1.0359">
        <ele>202</ele>
        <time>2012-04-01T07:18:56Z</time>
      </trkpt>
      <trkpt lat="44.41243" lon="1.03588">
        <ele>202</ele>
        <time>2012-04-01T07:19:02Z</time>
      </trkpt>
      <trkpt lat="44.41243" lon="1.0359">
        <ele>202</ele>
        <time>2012-04-01T07:19:23Z</time>
      </trkpt>
      <trkpt lat="44.41241" lon="1.03591">
        <ele>202</ele>
        <time>2012-04-01T07:19:25Z</time>
      </trkpt>
      <trkpt lat="44.4124" lon="1.03592">
        <ele>201</ele>
        <time>2012-04-01T07:19:26Z</time>
      </trkpt>
      <trkpt lat="44.41238" lon="1.03593">
        <ele>201</ele>
        <time>2012-04-01T07:19:27Z</time>
      </trkpt>
      <trkpt lat="44.41236" lon="1.03594">
        <ele>201</ele>
        <time>2012-04-01T07:19:28Z</time>
      </trkpt>
      <trkpt lat="44.41235" lon="1.03595">
        <ele>200</ele>
        <time>2012-04-01T07:19:29Z</time>
      </trkpt>
      <trkpt lat="44.41233" lon="1.03596">
        <ele>200</ele>
        <time>2012-04-01T07:19:30Z</time>
      </trkpt>
      <trkpt lat="44.41231" lon="1.03596">
        <ele>200</ele>
        <time>2012-04-01T07:19:31Z</time>
      </trkpt>
      <trkpt lat="44.41229" lon="1.03597">
        <ele>200</ele>
        <time>2012-04-01T07:19:32Z</time>
      </trkpt>
      <trkpt lat="44.41227" lon="1.03598">
        <ele>199</ele>
        <time>2012-04-01T07:19:33Z</time>
      </trkpt>
      <trkpt lat="44.41225" lon="1.036">
        <ele>199</ele>
        <time>2012-04-01T07:19:34Z</time>
      </trkpt>
      <trkpt lat="44.41222" lon="1.03601">
        <ele>199</ele>
        <time>2012-04-01T07:19:35Z</time>
      </trkpt>
      <trkpt lat="44.4122" lon="1.03602">
        <ele>198</ele>
        <time>2012-04-01T07:19:36Z</time>
      </trkpt>
      <trkpt lat="44.41217" lon="1.03603">
        <ele>198</ele>
        <time>2012-04-01T07:19:37Z</time>
      </trkpt>
      <trkpt lat="44.41214" lon="1.03605">
        <ele>198</ele>
        <time>2012-04-01T07:19:38Z</time>
      </trkpt>
      <trkpt lat="44.41211" lon="1.03606">
        <ele>197</ele>
        <time>2012-04-01T07:19:39Z</time>
      </trkpt>
      <trkpt lat="44.41208" lon="1.03608">
        <ele>197</ele>
        <time>2012-04-01T07:19:40Z</time>
      </trkpt>
      <trkpt lat="44.41205" lon="1.03609">
        <ele>197</ele>
        <time>2012-04-01T07:19:41Z</time>
      </trkpt>
      <trkpt lat="44.41201" lon="1.03611">
        <ele>197</ele>
        <time>2012-04-01T07:19:42Z</time>
      </trkpt>
      <trkpt lat="44.41198" lon="1.03613">
        <ele>196</ele>
        <time>2012-04-01T07:19:43Z</time>
      </trkpt>
      <trkpt lat="44.41195" lon="1.03616">
        <ele>196</ele>
        <time>2012-04-01T07:19:44Z</time>
      </trkpt>
      <trkpt lat="44.41192" lon="1.03619">
        <ele>196</ele>
        <time>2012-04-01T07:19:45Z</time>
      </trkpt>
      <trkpt lat="44.41189" lon="1.03622">
        <ele>195</ele>
        <time>2012-04-01T07:19:46Z</time>
      </trkpt>
      <trkpt lat="44.41186" lon="1.03626">
        <ele>195</ele>
        <time>2012-04-01T07:19:47Z</time>
      </trkpt>
      <trkpt lat="44.41183" lon="1.0363">
        <ele>194</ele>
        <time>2012-04-01T07:19:48Z</time>
      </trkpt>
      <trkpt lat="44.4118" lon="1.03634">
        <ele>193</ele>
        <time>2012-04-01T07:19:49Z</time>
      </trkpt>
      <trkpt lat="44.41177" lon="1.03637">
        <ele>193</ele>
        <time>2012-04-01T07:19:50Z</time>
      </trkpt>
      <trkpt lat="44.41174" lon="1.0364">
        <ele>192</ele>
        <time>2012-04-01T07:19:51Z</time>
      </trkpt>
      <trkpt lat="44.4117" lon="1.03644">
        <ele>192</ele>
        <time>2012-04-01T07:19:52Z</time>
      </trkpt>
      <trkpt lat="44.41167" lon="1.03647">
        <ele>191</ele>
        <time>2012-04-01T07:19:53Z</time>
      </trkpt>
      <trkpt lat="44.41164" lon="1.03649">
        <ele>191</ele>
        <time>2012-04-01T07:19:54Z</time>
      </trkpt>
      <trkpt lat="44.4116" lon="1.03652">
        <ele>190</ele>
        <time>2012-04-01T07:19:55Z</time>
      </trkpt>
      <trkpt lat="44.41157" lon="1.03655">
        <ele>190</ele>
        <time>2012-04-01T07:19:56Z</time>
      </trkpt>
      <trkpt lat="44.41154" lon="1.03657">
        <ele>190</ele>
        <time>2012-04-01T07:19:57Z</time>
      </trkpt>
      <trkpt lat="44.41151" lon="1.03659">
        <ele>189</ele>
        <time>2012-04-01T07:19:58Z</time>
      </trkpt>
      <trkpt lat="44.41148" lon="1.0366">
        <ele>189</ele>
        <time>2012-04-01T07:19:59Z</time>
      </trkpt>
      <trkpt lat="44.41144" lon="1.03661">
        <ele>189</ele>
        <time>2012-04-01T07:20:00Z</time>
      </trkpt>
      <trkpt lat="44.4114" lon="1.03662">
        <ele>189</ele>
        <time>2012-04-01T07:20:01Z</time>
      </trkpt>
      <trkpt lat="44.41135" lon="1.03662">
        <ele>189</ele>
        <time>2012-04-01T07:20:02Z</time>
      </trkpt>
      <trkpt lat="44.41129" lon="1.03662">
        <ele>189</ele>
        <time>2012-04-01T07:20:03Z</time>
      </trkpt>
      <trkpt lat="44.41122" lon="1.03662">
        <ele>189</ele>
        <time>2012-04-01T07:20:04Z</time>
      </trkpt>
      <trkpt lat="44.41116" lon="1.03663">
        <ele>189</ele>
        <time>2012-04-01T07:20:05Z</time>
      </trkpt>
      <trkpt lat="44.41109" lon="1.03664">
        <ele>189</ele>
        <time>2012-04-01T07:20:06Z</time>
      </trkpt>
      <trkpt lat="44.41103" lon="1.03665">
        <ele>189</ele>
        <time>2012-04-01T07:20:07Z</time>
      </trkpt>
      <trkpt lat="44.41097" lon="1.03667">
        <ele>189</ele>
        <time>2012-04-01T07:20:08Z</time>
      </trkpt>
      <trkpt lat="44.4109" lon="1.03669">
        <ele>189</ele>
        <time>2012-04-01T07:20:09Z</time>
      </trkpt>
      <trkpt lat="44.41084" lon="1.03671">
        <ele>188</ele>
        <time>2012-04-01T07:20:10Z</time>
      </trkpt>
      <trkpt lat="44.41077" lon="1.03672">
        <ele>188</ele>
        <time>2012-04-01T07:20:11Z</time>
      </trkpt>
      <trkpt lat="44.41071" lon="1.03674">
        <ele>188</ele>
        <time>2012-04-01T07:20:12Z</time>
      </trkpt>
      <trkpt lat="44.41065" lon="1.03675">
        <ele>187</ele>
        <time>2012-04-01T07:20:13Z</time>
      </trkpt>
      <trkpt lat="44.41059" lon="1.03677">
        <ele>187</ele>
        <time>2012-04-01T07:20:14Z</time>
      </trkpt>
      <trkpt lat="44.41054" lon="1.03679">
        <ele>186</ele>
        <time>2012-04-01T07:20:15Z</time>
      </trkpt>
      <trkpt lat="44.41049" lon="1.03682">
        <ele>185</ele>
        <time>2012-04-01T07:20:16Z</time>
      </trkpt>
      <trkpt lat="44.41043" lon="1.03687">
        <ele>184</ele>
        <time>2012-04-01T07:20:17Z</time>
      </trkpt>
      <trkpt lat="44.41038" lon="1.03691">
        <ele>184</ele>
        <time>2012-04-01T07:20:18Z</time>
      </trkpt>
      <trkpt lat="44.4103" lon="1.03696">
        <ele>183</ele>
        <time>2012-04-01T07:20:19Z</time>
      </trkpt>
      <trkpt lat="44.41022" lon="1.03701">
        <ele>182</ele>
        <time>2012-04-01T07:20:20Z</time>
      </trkpt>
      <trkpt lat="44.41013" lon="1.03706">
        <ele>181</ele>
        <time>2012-04-01T07:20:21Z</time>
      </trkpt>
      <trkpt lat="44.41005" lon="1.03711">
        <ele>180</ele>
        <time>2012-04-01T07:20:22Z</time>
      </trkpt>
      <trkpt lat="44.40999" lon="1.03717">
        <ele>179</ele>
        <time>2012-04-01T07:20:23Z</time>
      </trkpt>
      <trkpt lat="44.40992" lon="1.03723">
        <ele>178</ele>
        <time>2012-04-01T07:20:24Z</time>
      </trkpt>
      <trkpt lat="44.40988" lon="1.03728">
        <ele>177</ele>
        <time>2012-04-01T07:20:25Z</time>
      </trkpt>
      <trkpt lat="44.40983" lon="1.03733">
        <ele>177</ele>
        <time>2012-04-01T07:20:26Z</time>
      </trkpt>
      <trkpt lat="44.40977" lon="1.03738">
        <ele>177</ele>
        <time>2012-04-01T07:20:27Z</time>
      </trkpt>
      <trkpt lat="44.40973" lon="1.03739">
        <ele>177</ele>
        <time>2012-04-01T07:20:28Z</time>
      </trkpt>
      <trkpt lat="44.4097" lon="1.03735">
        <ele>177</ele>
        <time>2012-04-01T07:20:29Z</time>
      </trkpt>
      <trkpt lat="44.40967" lon="1.0373">
        <ele>177</ele>
        <time>2012-04-01T07:20:30Z</time>
      </trkpt>
      <trkpt lat="44.40964" lon="1.03726">
        <ele>177</ele>
        <time>2012-04-01T07:20:31Z</time>
      </trkpt>
      <trkpt lat="44.40962" lon="1.03722">
        <ele>177</ele>
        <time>2012-04-01T07:20:32Z</time>
      </trkpt>
      <trkpt lat="44.4096" lon="1.03718">
        <ele>177</ele>
        <time>2012-04-01T07:20:33Z</time>
      </trkpt>
      <trkpt lat="44.40958" lon="1.03714">
        <ele>177</ele>
        <time>2012-04-01T07:20:34Z</time>
      </trkpt>
      <trkpt lat="44.40957" lon="1.0371">
        <ele>176</ele>
        <time>2012-04-01T07:20:35Z</time>
      </trkpt>
      <trkpt lat="44.40956" lon="1.03706">
        <ele>176</ele>
        <time>2012-04-01T07:20:36Z</time>
      </trkpt>
      <trkpt lat="44.40954" lon="1.03703">
        <ele>176</ele>
        <time>2012-04-01T07:20:37Z</time>
      </trkpt>
      <trkpt lat="44.40952" lon="1.037">
        <ele>176</ele>
        <time>2012-04-01T07:20:38Z</time>
      </trkpt>
      <trkpt lat="44.4095" lon="1.03696">
        <ele>176</ele>
        <time>2012-04-01T07:20:39Z</time>
      </trkpt>
      <trkpt lat="44.40949" lon="1.03693">
        <ele>176</ele>
        <time>2012-04-01T07:20:40Z</time>
      </trkpt>
      <trkpt lat="44.40948" lon="1.0369">
        <ele>176</ele>
        <time>2012-04-01T07:20:41Z</time>
      </trkpt>
      <trkpt lat="44.40946" lon="1.03687">
        <ele>176</ele>
        <time>2012-04-01T07:20:42Z</time>
      </trkpt>
      <trkpt lat="44.40945" lon="1.03684">
        <ele>176</ele>
        <time>2012-04-01T07:20:43Z</time>
      </trkpt>
      <trkpt lat="44.40945" lon="1.03682">
        <ele>176</ele>
        <time>2012-04-01T07:20:44Z</time>
      </trkpt>
      <trkpt lat="44.40944" lon="1.03679">
        <ele>176</ele>
        <time>2012-04-01T07:20:45Z</time>
      </trkpt>
      <trkpt lat="44.40943" lon="1.03676">
        <ele>176</ele>
        <time>2012-04-01T07:20:46Z</time>
      </trkpt>
      <trkpt lat="44.40942" lon="1.03673">
        <ele>176</ele>
        <time>2012-04-01T07:20:47Z</time>
      </trkpt>
      <trkpt lat="44.4094" lon="1.0367">
        <ele>176</ele>
        <time>2012-04-01T07:20:48Z</time>
      </trkpt>
      <trkpt lat="44.40938" lon="1.03667">
        <ele>176</ele>
        <time>2012-04-01T07:20:49Z</time>
      </trkpt>
      <trkpt lat="44.40937" lon="1.03664">
        <ele>177</ele>
        <time>2012-04-01T07:20:50Z</time>
      </trkpt>
      <trkpt lat="44.40936" lon="1.03661">
        <ele>177</ele>
        <time>2012-04-01T07:20:51Z</time>
      </trkpt>
      <trkpt lat="44.40934" lon="1.03657">
        <ele>177</ele>
        <time>2012-04-01T07:20:52Z</time>
      </trkpt>
      <trkpt lat="44.40933" lon="1.03654">
        <ele>178</ele>
        <time>2012-04-01T07:20:53Z</time>
      </trkpt>
      <trkpt lat="44.40931" lon="1.03651">
        <ele>179</ele>
        <time>2012-04-01T07:20:54Z</time>
      </trkpt>
      <trkpt lat="44.40929" lon="1.03647">
        <ele>179</ele>
        <time>2012-04-01T07:20:55Z</time>
      </trkpt>
      <trkpt lat="44.40927" lon="1.03644">
        <ele>180</ele>
        <time>2012-04-01T07:20:56Z</time>
      </trkpt>
      <trkpt lat="44.40925" lon="1.0364">
        <ele>180</ele>
        <time>2012-04-01T07:20:57Z</time>
      </trkpt>
      <trkpt lat="44.40924" lon="1.03636">
        <ele>181</ele>
        <time>2012-04-01T07:20:58Z</time>
      </trkpt>
      <trkpt lat="44.40922" lon="1.03633">
        <ele>181</ele>
        <time>2012-04-01T07:20:59Z</time>
      </trkpt>
      <trkpt lat="44.40921" lon="1.0363">
        <ele>182</ele>
        <time>2012-04-01T07:21:00Z</time>
      </trkpt>
      <trkpt lat="44.40919" lon="1.03626">
        <ele>182</ele>
        <time>2012-04-01T07:21:01Z</time>
      </trkpt>
      <trkpt lat="44.40918" lon="1.03624">
        <ele>183</ele>
        <time>2012-04-01T07:21:02Z</time>
      </trkpt>
      <trkpt lat="44.40917" lon="1.03622">
        <ele>184</ele>
        <time>2012-04-01T07:21:03Z</time>
      </trkpt>
      <trkpt lat="44.40916" lon="1.0362">
        <ele>185</ele>
        <time>2012-04-01T07:21:05Z</time>
      </trkpt>
      <trkpt lat="44.40914" lon="1.03619">
        <ele>186</ele>
        <time>2012-04-01T07:21:07Z</time>
      </trkpt>
      <trkpt lat="44.40913" lon="1.03619">
        <ele>186</ele>
        <time>2012-04-01T07:21:08Z</time>
      </trkpt>
      <trkpt lat="44.40911" lon="1.03619">
        <ele>187</ele>
        <time>2012-04-01T07:21:09Z</time>
      </trkpt>
      <trkpt lat="44.40908" lon="1.03618">
        <ele>187</ele>
        <time>2012-04-01T07:21:10Z</time>
      </trkpt>
      <trkpt lat="44.40905" lon="1.03618">
        <ele>187</ele>
        <time>2012-04-01T07:21:11Z</time>
      </trkpt>
      <trkpt lat="44.40903" lon="1.03616">
        <ele>187</ele>
        <time>2012-04-01T07:21:12Z</time>
      </trkpt>
      <trkpt lat="44.40901" lon="1.03615">
        <ele>187</ele>
        <time>2012-04-01T07:21:13Z</time>
      </trkpt>
      <trkpt lat="44.40899" lon="1.03613">
        <ele>187</ele>
        <time>2012-04-01T07:21:14Z</time>
      </trkpt>
      <trkpt lat="44.40897" lon="1.03611">
        <ele>187</ele>
        <time>2012-04-01T07:21:15Z</time>
      </trkpt>
      <trkpt lat="44.40896" lon="1.03609">
        <ele>187</ele>
        <time>2012-04-01T07:21:16Z</time>
      </trkpt>
      <trkpt lat="44.40894" lon="1.03607">
        <ele>187</ele>
        <time>2012-04-01T07:21:17Z</time>
      </trkpt>
      <trkpt lat="44.40892" lon="1.03606">
        <ele>187</ele>
        <time>2012-04-01T07:21:18Z</time>
      </trkpt>
      <trkpt lat="44.4089" lon="1.03604">
        <ele>187</ele>
        <time>2012-04-01T07:21:19Z</time>
      </trkpt>
      <trkpt lat="44.40888" lon="1.03602">
        <ele>187</ele>
        <time>2012-04-01T07:21:20Z</time>
      </trkpt>
      <trkpt lat="44.40886" lon="1.03599">
        <ele>187</ele>
        <time>2012-04-01T07:21:21Z</time>
      </trkpt>
      <trkpt lat="44.40883" lon="1.03596">
        <ele>187</ele>
        <time>2012-04-01T07:21:22Z</time>
      </trkpt>
      <trkpt lat="44.4088" lon="1.03594">
        <ele>187</ele>
        <time>2012-04-01T07:21:23Z</time>
      </trkpt>
      <trkpt lat="44.40877" lon="1.03591">
        <ele>187</ele>
        <time>2012-04-01T07:21:24Z</time>
      </trkpt>
      <trkpt lat="44.40875" lon="1.03588">
        <ele>187</ele>
        <time>2012-04-01T07:21:25Z</time>
      </trkpt>
      <trkpt lat="44.40872" lon="1.03586">
        <ele>187</ele>
        <time>2012-04-01T07:21:26Z</time>
      </trkpt>
      <trkpt lat="44.4087" lon="1.03585">
        <ele>187</ele>
        <time>2012-04-01T07:21:27Z</time>
      </trkpt>
      <trkpt lat="44.40867" lon="1.03583">
        <ele>188</ele>
        <time>2012-04-01T07:21:28Z</time>
      </trkpt>
      <trkpt lat="44.40865" lon="1.0358">
        <ele>188</ele>
        <time>2012-04-01T07:21:29Z</time>
      </trkpt>
      <trkpt lat="44.40863" lon="1.03578">
        <ele>188</ele>
        <time>2012-04-01T07:21:30Z</time>
      </trkpt>
      <trkpt lat="44.40861" lon="1.03576">
        <ele>188</ele>
        <time>2012-04-01T07:21:31Z</time>
      </trkpt>
      <trkpt lat="44.40858" lon="1.03574">
        <ele>188</ele>
        <time>2012-04-01T07:21:32Z</time>
      </trkpt>
      <trkpt lat="44.40855" lon="1.03572">
        <ele>189</ele>
        <time>2012-04-01T07:21:33Z</time>
      </trkpt>
      <trkpt lat="44.40853" lon="1.0357">
        <ele>189</ele>
        <time>2012-04-01T07:21:34Z</time>
      </trkpt>
      <trkpt lat="44.4085" lon="1.03568">
        <ele>189</ele>
        <time>2012-04-01T07:21:35Z</time>
      </trkpt>
      <trkpt lat="44.40848" lon="1.03567">
        <ele>189</ele>
        <time>2012-04-01T07:21:36Z</time>
      </trkpt>
      <trkpt lat="44.40845" lon="1.03565">
        <ele>189</ele>
        <time>2012-04-01T07:21:37Z</time>
      </trkpt>
      <trkpt lat="44.40843" lon="1.03563">
        <ele>189</ele>
        <time>2012-04-01T07:21:38Z</time>
      </trkpt>
      <trkpt lat="44.40841" lon="1.03562">
        <ele>189</ele>
        <time>2012-04-01T07:21:39Z</time>
      </trkpt>
      <trkpt lat="44.40839" lon="1.0356">
        <ele>189</ele>
        <time>2012-04-01T07:21:40Z</time>
      </trkpt>
      <trkpt lat="44.40837" lon="1.03559">
        <ele>189</ele>
        <time>2012-04-01T07:21:41Z</time>
      </trkpt>
      <trkpt lat="44.40835" lon="1.03558">
        <ele>189</ele>
        <time>2012-04-01T07:21:42Z</time>
      </trkpt>
      <trkpt lat="44.40832" lon="1.03556">
        <ele>189</ele>
        <time>2012-04-01T07:21:43Z</time>
      </trkpt>
      <trkpt lat="44.4083" lon="1.03554">
        <ele>189</ele>
        <time>2012-04-01T07:21:44Z</time>
      </trkpt>
      <trkpt lat="44.40828" lon="1.03552">
        <ele>189</ele>
        <time>2012-04-01T07:21:45Z</time>
      </trkpt>
      <trkpt lat="44.40825" lon="1.0355">
        <ele>189</ele>
        <time>2012-04-01T07:21:46Z</time>
      </trkpt>
      <trkpt lat="44.40822" lon="1.03548">
        <ele>189</ele>
        <time>2012-04-01T07:21:47Z</time>
      </trkpt>
      <trkpt lat="44.40819" lon="1.03546">
        <ele>189</ele>
        <time>2012-04-01T07:21:48Z</time>
      </trkpt>
      <trkpt lat="44.40815" lon="1.03545">
        <ele>189</ele>
        <time>2012-04-01T07:21:49Z</time>
      </trkpt>
      <trkpt lat="44.40811" lon="1.03543">
        <ele>189</ele>
        <time>2012-04-01T07:21:50Z</time>
      </trkpt>
      <trkpt lat="44.40807" lon="1.03542">
        <ele>188</ele>
        <time>2012-04-01T07:21:51Z</time>
      </trkpt>
      <trkpt lat="44.40802" lon="1.0354">
        <ele>188</ele>
        <time>2012-04-01T07:21:52Z</time>
      </trkpt>
      <trkpt lat="44.40798" lon="1.03537">
        <ele>187</ele>
        <time>2012-04-01T07:21:53Z</time>
      </trkpt>
      <trkpt lat="44.40794" lon="1.03534">
        <ele>187</ele>
        <time>2012-04-01T07:21:54Z</time>
      </trkpt>
      <trkpt lat="44.40789" lon="1.03532">
        <ele>186</ele>
        <time>2012-04-01T07:21:55Z</time>
      </trkpt>
      <trkpt lat="44.40785" lon="1.03529">
        <ele>185</ele>
        <time>2012-04-01T07:21:56Z</time>
      </trkpt>
      <trkpt lat="44.40781" lon="1.03527">
        <ele>185</ele>
        <time>2012-04-01T07:21:57Z</time>
      </trkpt>
      <trkpt lat="44.40777" lon="1.03525">
        <ele>184</ele>
        <time>2012-04-01T07:21:58Z</time>
      </trkpt>
      <trkpt lat="44.40773" lon="1.03522">
        <ele>184</ele>
        <time>2012-04-01T07:21:59Z</time>
      </trkpt>
      <trkpt lat="44.4077" lon="1.03519">
        <ele>183</ele>
        <time>2012-04-01T07:22:00Z</time>
      </trkpt>
      <trkpt lat="44.40766" lon="1.03517">
        <ele>183</ele>
        <time>2012-04-01T07:22:01Z</time>
      </trkpt>
      <trkpt lat="44.40763" lon="1.03514">
        <ele>183</ele>
        <time>2012-04-01T07:22:02Z</time>
      </trkpt>
      <trkpt lat="44.40759" lon="1.03512">
        <ele>183</ele>
        <time>2012-04-01T07:22:03Z</time>
      </trkpt>
      <trkpt lat="44.40756" lon="1.0351">
        <ele>183</ele>
        <time>2012-04-01T07:22:04Z</time>
      </trkpt>
      <trkpt lat="44.40752" lon="1.03508">
        <ele>183</ele>
        <time>2012-04-01T07:22:05Z</time>
      </trkpt>
      <trkpt lat="44.40749" lon="1.03506">
        <ele>183</ele>
        <time>2012-04-01T07:22:06Z</time>
      </trkpt>
      <trkpt lat="44.40746" lon="1.03504">
        <ele>182</ele>
        <time>2012-04-01T07:22:07Z</time>
      </trkpt>
      <trkpt lat="44.40743" lon="1.03502">
        <ele>182</ele>
        <time>2012-04-01T07:22:08Z</time>
      </trkpt>
      <trkpt lat="44.4074" lon="1.035">
        <ele>182</ele>
        <time>2012-04-01T07:22:09Z</time>
      </trkpt>
      <trkpt lat="44.40737" lon="1.03499">
        <ele>182</ele>
        <time>2012-04-01T07:22:10Z</time>
      </trkpt>
      <trkpt lat="44.40735" lon="1.03497">
        <ele>182</ele>
        <time>2012-04-01T07:22:11Z</time>
      </trkpt>
      <trkpt lat="44.40733" lon="1.03496">
        <ele>182</ele>
        <time>2012-04-01T07:22:12Z</time>
      </trkpt>
      <trkpt lat="44.40731" lon="1.03495">
        <ele>182</ele>
        <time>2012-04-01T07:22:13Z</time>
      </trkpt>
      <trkpt lat="44.40729" lon="1.03495">
        <ele>182</ele>
        <time>2012-04-01T07:22:14Z</time>
      </trkpt>
      <trkpt lat="44.40727" lon="1.03495">
        <ele>182</ele>
        <time>2012-04-01T07:22:15Z</time>
      </trkpt>
      <trkpt lat="44.40726" lon="1.03497">
        <ele>182</ele>
        <time>2012-04-01T07:22:16Z</time>
      </trkpt>
      <trkpt lat="44.40726" lon="1.03499">
        <ele>182</ele>
        <time>2012-04-01T07:22:17Z</time>
      </trkpt>
      <trkpt lat="44.40726" lon="1.03501">
        <ele>182</ele>
        <time>2012-04-01T07:22:18Z</time>
      </trkpt>
      <trkpt lat="44.40726" lon="1.03504">
        <ele>182</ele>
        <time>2012-04-01T07:22:19Z</time>
      </trkpt>
      <trkpt lat="44.40726" lon="1.03506">
        <ele>182</ele>
        <time>2012-04-01T07:22:20Z</time>
      </trkpt>
      <trkpt lat="44.40727" lon="1.03509">
        <ele>182</ele>
        <time>2012-04-01T07:22:21Z</time>
      </trkpt>
      <trkpt lat="44.40727" lon="1.03512">
        <ele>182</ele>
        <time>2012-04-01T07:22:22Z</time>
      </trkpt>
      <trkpt lat="44.40727" lon="1.03515">
        <ele>182</ele>
        <time>2012-04-01T07:22:23Z</time>
      </trkpt>
      <trkpt lat="44.40727" lon="1.03518">
        <ele>182</ele>
        <time>2012-04-01T07:22:24Z</time>
      </trkpt>
      <trkpt lat="44.40727" lon="1.03521">
        <ele>182</ele>
        <time>2012-04-01T07:22:25Z</time>
      </trkpt>
      <trkpt lat="44.40727" lon="1.03525">
        <ele>182</ele>
        <time>2012-04-01T07:22:26Z</time>
      </trkpt>
      <trkpt lat="44.40728" lon="1.03528">
        <ele>182</ele>
        <time>2012-04-01T07:22:27Z</time>
      </trkpt>
      <trkpt lat="44.40728" lon="1.03532">
        <ele>182</ele>
        <time>2012-04-01T07:22:28Z</time>
      </trkpt>
      <trkpt lat="44.40728" lon="1.03535">
        <ele>182</ele>
        <time>2012-04-01T07:22:29Z</time>
      </trkpt>
      <trkpt lat="44.40728" lon="1.03538">
        <ele>182</ele>
        <time>2012-04-01T07:22:30Z</time>
      </trkpt>
      <trkpt lat="44.40727" lon="1.03541">
        <ele>182</ele>
        <time>2012-04-01T07:22:31Z</time>
      </trkpt>
      <trkpt lat="44.40727" lon="1.03544">
        <ele>182</ele>
        <time>2012-04-01T07:22:32Z</time>
      </trkpt>
      <trkpt lat="44.40727" lon="1.03547">
        <ele>182</ele>
        <time>2012-04-01T07:22:33Z</time>
      </trkpt>
      <trkpt lat="44.40727" lon="1.03551">
        <ele>182</ele>
        <time>2012-04-01T07:22:34Z</time>
      </trkpt>
      <trkpt lat="44.40727" lon="1.03554">
        <ele>182</ele>
        <time>2012-04-01T07:22:35Z</time>
      </trkpt>
      <trkpt lat="44.40727" lon="1.03558">
        <ele>182</ele>
        <time>2012-04-01T07:22:36Z</time>
      </trkpt>
      <trkpt lat="44.40727" lon="1.03562">
        <ele>182</ele>
        <time>2012-04-01T07:22:37Z</time>
      </trkpt>
      <trkpt lat="44.40727" lon="1.03566">
        <ele>182</ele>
        <time>2012-04-01T07:22:38Z</time>
      </trkpt>
      <trkpt lat="44.40727" lon="1.03569">
        <ele>182</ele>
        <time>2012-04-01T07:22:39Z</time>
      </trkpt>
      <trkpt lat="44.40727" lon="1.03574">
        <ele>182</ele>
        <time>2012-04-01T07:22:40Z</time>
      </trkpt>
      <trkpt lat="44.40727" lon="1.03578">
        <ele>182</ele>
        <time>2012-04-01T07:22:41Z</time>
      </trkpt>
      <trkpt lat="44.40728" lon="1.03582">
        <ele>182</ele>
        <time>2012-04-01T07:22:42Z</time>
      </trkpt>
      <trkpt lat="44.40728" lon="1.03587">
        <ele>182</ele>
        <time>2012-04-01T07:22:43Z</time>
      </trkpt>
      <trkpt lat="44.40728" lon="1.03591">
        <ele>182</ele>
        <time>2012-04-01T07:22:44Z</time>
      </trkpt>
      <trkpt lat="44.40729" lon="1.03595">
        <ele>182</ele>
        <time>2012-04-01T07:22:45Z</time>
      </trkpt>
      <trkpt lat="44.40729" lon="1.03599">
        <ele>182</ele>
        <time>2012-04-01T07:22:46Z</time>
      </trkpt>
      <trkpt lat="44.4073" lon="1.03603">
        <ele>182</ele>
        <time>2012-04-01T07:22:47Z</time>
      </trkpt>
      <trkpt lat="44.4073" lon="1.03606">
        <ele>182</ele>
        <time>2012-04-01T07:22:48Z</time>
      </trkpt>
      <trkpt lat="44.4073" lon="1.03611">
        <ele>182</ele>
        <time>2012-04-01T07:22:49Z</time>
      </trkpt>
      <trkpt lat="44.40731" lon="1.03615">
        <ele>182</ele>
        <time>2012-04-01T07:22:50Z</time>
      </trkpt>
      <trkpt lat="44.40731" lon="1.0362">
        <ele>182</ele>
        <time>2012-04-01T07:22:51Z</time>
      </trkpt>
      <trkpt lat="44.40731" lon="1.03625">
        <ele>182</ele>
        <time>2012-04-01T07:22:52Z</time>
      </trkpt>
      <trkpt lat="44.40732" lon="1.0363">
        <ele>182</ele>
        <time>2012-04-01T07:22:53Z</time>
      </trkpt>
      <trkpt lat="44.40732" lon="1.03636">
        <ele>182</ele>
        <time>2012-04-01T07:22:54Z</time>
      </trkpt>
      <trkpt lat="44.40732" lon="1.03641">
        <ele>182</ele>
        <time>2012-04-01T07:22:55Z</time>
      </trkpt>
      <trkpt lat="44.40733" lon="1.03647">
        <ele>182</ele>
        <time>2012-04-01T07:22:56Z</time>
      </trkpt>
      <trkpt lat="44.40733" lon="1.03653">
        <ele>182</ele>
        <time>2012-04-01T07:22:57Z</time>
      </trkpt>
      <trkpt lat="44.40733" lon="1.03658">
        <ele>182</ele>
        <time>2012-04-01T07:22:58Z</time>
      </trkpt>
      <trkpt lat="44.40733" lon="1.03664">
        <ele>182</ele>
        <time>2012-04-01T07:22:59Z</time>
      </trkpt>
      <trkpt lat="44.40734" lon="1.0367">
        <ele>182</ele>
        <time>2012-04-01T07:23:00Z</time>
      </trkpt>
      <trkpt lat="44.40734" lon="1.03676">
        <ele>183</ele>
        <time>2012-04-01T07:23:01Z</time>
      </trkpt>
      <trkpt lat="44.40734" lon="1.03682">
        <ele>183</ele>
        <time>2012-04-01T07:23:02Z</time>
      </trkpt>
      <trkpt lat="44.40734" lon="1.03688">
        <ele>183</ele>
        <time>2012-04-01T07:23:03Z</time>
      </trkpt>
      <trkpt lat="44.40734" lon="1.03694">
        <ele>183</ele>
        <time>2012-04-01T07:23:04Z</time>
      </trkpt>
      <trkpt lat="44.40734" lon="1.03699">
        <ele>184</ele>
        <time>2012-04-01T07:23:05Z</time>
      </trkpt>
      <trkpt lat="44.40735" lon="1.03705">
        <ele>184</ele>
        <time>2012-04-01T07:23:06Z</time>
      </trkpt>
      <trkpt lat="44.40735" lon="1.03711">
        <ele>184</ele>
        <time>2012-04-01T07:23:07Z</time>
      </trkpt>
      <trkpt lat="44.40735" lon="1.03717">
        <ele>184</ele>
        <time>2012-04-01T07:23:08Z</time>
      </trkpt>
      <trkpt lat="44.40735" lon="1.03722">
        <ele>185</ele>
        <time>2012-04-01T07:23:09Z</time>
      </trkpt>
      <trkpt lat="44.40735" lon="1.03728">
        <ele>185</ele>
        <time>2012-04-01T07:23:10Z</time>
      </trkpt>
      <trkpt lat="44.40736" lon="1.03734">
        <ele>185</ele>
        <time>2012-04-01T07:23:11Z</time>
      </trkpt>
      <trkpt lat="44.40736" lon="1.03739">
        <ele>186</ele>
        <time>2012-04-01T07:23:12Z</time>
      </trkpt>
      <trkpt lat="44.40736" lon="1.03745">
        <ele>186</ele>
        <time>2012-04-01T07:23:13Z</time>
      </trkpt>
      <trkpt lat="44.40736" lon="1.03751">
        <ele>186</ele>
        <time>2012-04-01T07:23:14Z</time>
      </trkpt>
      <trkpt lat="44.40736" lon="1.03756">
        <ele>186</ele>
        <time>2012-04-01T07:23:15Z</time>
      </trkpt>
      <trkpt lat="44.40736" lon="1.03762">
        <ele>187</ele>
        <time>2012-04-01T07:23:16Z</time>
      </trkpt>
      <trkpt lat="44.40737" lon="1.03767">
        <ele>187</ele>
        <time>2012-04-01T07:23:17Z</time>
      </trkpt>
      <trkpt lat="44.40737" lon="1.03773">
        <ele>187</ele>
        <time>2012-04-01T07:23:18Z</time>
      </trkpt>
      <trkpt lat="44.40736" lon="1.03778">
        <ele>187</ele>
        <time>2012-04-01T07:23:19Z</time>
      </trkpt>
      <trkpt lat="44.40736" lon="1.03784">
        <ele>187</ele>
        <time>2012-04-01T07:23:20Z</time>
      </trkpt>
      <trkpt lat="44.40736" lon="1.0379">
        <ele>187</ele>
        <time>2012-04-01T07:23:21Z</time>
      </trkpt>
      <trkpt lat="44.40736" lon="1.03796">
        <ele>187</ele>
        <time>2012-04-01T07:23:22Z</time>
      </trkpt>
      <trkpt lat="44.40737" lon="1.03802">
        <ele>187</ele>
        <time>2012-04-01T07:23:23Z</time>
      </trkpt>
      <trkpt lat="44.40737" lon="1.03807">
        <ele>187</ele>
        <time>2012-04-01T07:23:24Z</time>
      </trkpt>
      <trkpt lat="44.40737" lon="1.03814">
        <ele>187</ele>
        <time>2012-04-01T07:23:25Z</time>
      </trkpt>
      <trkpt lat="44.40737" lon="1.0382">
        <ele>187</ele>
        <time>2012-04-01T07:23:26Z</time>
      </trkpt>
      <trkpt lat="44.40737" lon="1.03828">
        <ele>187</ele>
        <time>2012-04-01T07:23:27Z</time>
      </trkpt>
      <trkpt lat="44.40736" lon="1.03836">
        <ele>187</ele>
        <time>2012-04-01T07:23:28Z</time>
      </trkpt>
      <trkpt lat="44.40736" lon="1.03845">
        <ele>187</ele>
        <time>2012-04-01T07:23:29Z</time>
      </trkpt>
      <trkpt lat="44.40736" lon="1.03855">
        <ele>187</ele>
        <time>2012-04-01T07:23:30Z</time>
      </trkpt>
      <trkpt lat="44.40735" lon="1.03865">
        <ele>187</ele>
        <time>2012-04-01T07:23:31Z</time>
      </trkpt>
      <trkpt lat="44.40734" lon="1.03876">
        <ele>187</ele>
        <time>2012-04-01T07:23:32Z</time>
      </trkpt>
      <trkpt lat="44.40734" lon="1.03886">
        <ele>187</ele>
        <time>2012-04-01T07:23:33Z</time>
      </trkpt>
      <trkpt lat="44.40733" lon="1.03896">
        <ele>187</ele>
        <time>2012-04-01T07:23:34Z</time>
      </trkpt>
      <trkpt lat="44.40733" lon="1.03905">
        <ele>187</ele>
        <time>2012-04-01T07:23:35Z</time>
      </trkpt>
      <trkpt lat="44.40733" lon="1.03914">
        <ele>187</ele>
        <time>2012-04-01T07:23:36Z</time>
      </trkpt>
      <trkpt lat="44.40733" lon="1.03923">
        <ele>187</ele>
        <time>2012-04-01T07:23:37Z</time>
      </trkpt>
      <trkpt lat="44.40733" lon="1.03932">
        <ele>187</ele>
        <time>2012-04-01T07:23:38Z</time>
      </trkpt>
      <trkpt lat="44.40734" lon="1.0394">
        <ele>187</ele>
        <time>2012-04-01T07:23:39Z</time>
      </trkpt>
      <trkpt lat="44.40735" lon="1.03948">
        <ele>187</ele>
        <time>2012-04-01T07:23:40Z</time>
      </trkpt>
      <trkpt lat="44.40737" lon="1.03956">
        <ele>187</ele>
        <time>2012-04-01T07:23:41Z</time>
      </trkpt>
      <trkpt lat="44.40739" lon="1.03963">
        <ele>187</ele>
        <time>2012-04-01T07:23:42Z</time>
      </trkpt>
      <trkpt lat="44.40742" lon="1.0397">
        <ele>187</ele>
        <time>2012-04-01T07:23:43Z</time>
      </trkpt>
      <trkpt lat="44.40744" lon="1.03977">
        <ele>187</ele>
        <time>2012-04-01T07:23:44Z</time>
      </trkpt>
      <trkpt lat="44.40747" lon="1.03984">
        <ele>187</ele>
        <time>2012-04-01T07:23:45Z</time>
      </trkpt>
      <trkpt lat="44.40749" lon="1.03991">
        <ele>187</ele>
        <time>2012-04-01T07:23:46Z</time>
      </trkpt>
      <trkpt lat="44.40751" lon="1.03997">
        <ele>187</ele>
        <time>2012-04-01T07:23:47Z</time>
      </trkpt>
      <trkpt lat="44.40752" lon="1.04004">
        <ele>187</ele>
        <time>2012-04-01T07:23:48Z</time>
      </trkpt>
      <trkpt lat="44.40754" lon="1.0401">
        <ele>187</ele>
        <time>2012-04-01T07:23:49Z</time>
      </trkpt>
      <trkpt lat="44.40756" lon="1.04017">
        <ele>187</ele>
        <time>2012-04-01T07:23:50Z</time>
      </trkpt>
      <trkpt lat="44.40757" lon="1.04023">
        <ele>187</ele>
        <time>2012-04-01T07:23:51Z</time>
      </trkpt>
      <trkpt lat="44.40759" lon="1.04029">
        <ele>187</ele>
        <time>2012-04-01T07:23:52Z</time>
      </trkpt>
      <trkpt lat="44.40762" lon="1.04035">
        <ele>187</ele>
        <time>2012-04-01T07:23:53Z</time>
      </trkpt>
      <trkpt lat="44.40764" lon="1.04041">
        <ele>187</ele>
        <time>2012-04-01T07:23:54Z</time>
      </trkpt>
      <trkpt lat="44.40766" lon="1.04047">
        <ele>188</ele>
        <time>2012-04-01T07:23:55Z</time>
      </trkpt>
      <trkpt lat="44.40768" lon="1.04052">
        <ele>189</ele>
        <time>2012-04-01T07:23:56Z</time>
      </trkpt>
      <trkpt lat="44.40769" lon="1.04058">
        <ele>189</ele>
        <time>2012-04-01T07:23:57Z</time>
      </trkpt>
      <trkpt lat="44.40771" lon="1.04063">
        <ele>190</ele>
        <time>2012-04-01T07:23:58Z</time>
      </trkpt>
      <trkpt lat="44.40773" lon="1.04068">
        <ele>191</ele>
        <time>2012-04-01T07:23:59Z</time>
      </trkpt>
      <trkpt lat="44.40775" lon="1.04073">
        <ele>192</ele>
        <time>2012-04-01T07:24:00Z</time>
      </trkpt>
      <trkpt lat="44.40777" lon="1.04078">
        <ele>192</ele>
        <time>2012-04-01T07:24:01Z</time>
      </trkpt>
      <trkpt lat="44.40779" lon="1.04084">
        <ele>193</ele>
        <time>2012-04-01T07:24:02Z</time>
      </trkpt>
      <trkpt lat="44.4078" lon="1.04089">
        <ele>193</ele>
        <time>2012-04-01T07:24:03Z</time>
      </trkpt>
      <trkpt lat="44.40781" lon="1.04094">
        <ele>194</ele>
        <time>2012-04-01T07:24:04Z</time>
      </trkpt>
      <trkpt lat="44.40783" lon="1.04099">
        <ele>194</ele>
        <time>2012-04-01T07:24:05Z</time>
      </trkpt>
      <trkpt lat="44.40784" lon="1.04104">
        <ele>194</ele>
        <time>2012-04-01T07:24:06Z</time>
      </trkpt>
      <trkpt lat="44.40785" lon="1.0411">
        <ele>194</ele>
        <time>2012-04-01T07:24:07Z</time>
      </trkpt>
      <trkpt lat="44.40787" lon="1.04114">
        <ele>194</ele>
        <time>2012-04-01T07:24:08Z</time>
      </trkpt>
      <trkpt lat="44.40788" lon="1.0412">
        <ele>194</ele>
        <time>2012-04-01T07:24:09Z</time>
      </trkpt>
      <trkpt lat="44.4079" lon="1.04125">
        <ele>194</ele>
        <time>2012-04-01T07:24:10Z</time>
      </trkpt>
      <trkpt lat="44.40791" lon="1.0413">
        <ele>195</ele>
        <time>2012-04-01T07:24:11Z</time>
      </trkpt>
      <trkpt lat="44.40793" lon="1.04136">
        <ele>195</ele>
        <time>2012-04-01T07:24:12Z</time>
      </trkpt>
      <trkpt lat="44.40794" lon="1.04141">
        <ele>196</ele>
        <time>2012-04-01T07:24:13Z</time>
      </trkpt>
      <trkpt lat="44.40796" lon="1.04146">
        <ele>196</ele>
        <time>2012-04-01T07:24:14Z</time>
      </trkpt>
      <trkpt lat="44.40797" lon="1.04151">
        <ele>197</ele>
        <time>2012-04-01T07:24:15Z</time>
      </trkpt>
      <trkpt lat="44.40799" lon="1.04156">
        <ele>198</ele>
        <time>2012-04-01T07:24:16Z</time>
      </trkpt>
      <trkpt lat="44.40801" lon="1.04161">
        <ele>198</ele>
        <time>2012-04-01T07:24:17Z</time>
      </trkpt>
      <trkpt lat="44.40803" lon="1.04166">
        <ele>199</ele>
        <time>2012-04-01T07:24:18Z</time>
      </trkpt>
      <trkpt lat="44.40805" lon="1.04172">
        <ele>199</ele>
        <time>2012-04-01T07:24:19Z</time>
      </trkpt>
      <trkpt lat="44.40806" lon="1.04176">
        <ele>200</ele>
        <time>2012-04-01T07:24:20Z</time>
      </trkpt>
      <trkpt lat="44.40808" lon="1.04182">
        <ele>200</ele>
        <time>2012-04-01T07:24:21Z</time>
      </trkpt>
      <trkpt lat="44.4081" lon="1.04187">
        <ele>200</ele>
        <time>2012-04-01T07:24:22Z</time>
      </trkpt>
      <trkpt lat="44.40812" lon="1.04192">
        <ele>201</ele>
        <time>2012-04-01T07:24:23Z</time>
      </trkpt>
      <trkpt lat="44.40813" lon="1.04198">
        <ele>201</ele>
        <time>2012-04-01T07:24:24Z</time>
      </trkpt>
      <trkpt lat="44.40815" lon="1.04203">
        <ele>202</ele>
        <time>2012-04-01T07:24:25Z</time>
      </trkpt>
      <trkpt lat="44.40816" lon="1.04208">
        <ele>202</ele>
        <time>2012-04-01T07:24:26Z</time>
      </trkpt>
      <trkpt lat="44.40818" lon="1.04212">
        <ele>202</ele>
        <time>2012-04-01T07:24:27Z</time>
      </trkpt>
      <trkpt lat="44.4082" lon="1.04217">
        <ele>203</ele>
        <time>2012-04-01T07:24:28Z</time>
      </trkpt>
      <trkpt lat="44.40821" lon="1.04222">
        <ele>203</ele>
        <time>2012-04-01T07:24:29Z</time>
      </trkpt>
      <trkpt lat="44.40823" lon="1.04227">
        <ele>203</ele>
        <time>2012-04-01T07:24:30Z</time>
      </trkpt>
      <trkpt lat="44.40825" lon="1.04231">
        <ele>203</ele>
        <time>2012-04-01T07:24:31Z</time>
      </trkpt>
      <trkpt lat="44.40826" lon="1.04235">
        <ele>204</ele>
        <time>2012-04-01T07:24:32Z</time>
      </trkpt>
      <trkpt lat="44.40828" lon="1.0424">
        <ele>204</ele>
        <time>2012-04-01T07:24:33Z</time>
      </trkpt>
      <trkpt lat="44.4083" lon="1.04245">
        <ele>204</ele>
        <time>2012-04-01T07:24:34Z</time>
      </trkpt>
      <trkpt lat="44.40832" lon="1.0425">
        <ele>204</ele>
        <time>2012-04-01T07:24:35Z</time>
      </trkpt>
      <trkpt lat="44.40833" lon="1.04255">
        <ele>204</ele>
        <time>2012-04-01T07:24:36Z</time>
      </trkpt>
      <trkpt lat="44.40835" lon="1.04261">
        <ele>204</ele>
        <time>2012-04-01T07:24:37Z</time>
      </trkpt>
      <trkpt lat="44.40836" lon="1.04265">
        <ele>204</ele>
        <time>2012-04-01T07:24:38Z</time>
      </trkpt>
      <trkpt lat="44.40837" lon="1.04269">
        <ele>204</ele>
        <time>2012-04-01T07:24:39Z</time>
      </trkpt>
      <trkpt lat="44.40839" lon="1.04273">
        <ele>204</ele>
        <time>2012-04-01T07:24:40Z</time>
      </trkpt>
      <trkpt lat="44.40839" lon="1.04277">
        <ele>204</ele>
        <time>2012-04-01T07:24:41Z</time>
      </trkpt>
      <trkpt lat="44.40839" lon="1.04281">
        <ele>204</ele>
        <time>2012-04-01T07:24:42Z</time>
      </trkpt>
      <trkpt lat="44.40837" lon="1.04285">
        <ele>204</ele>
        <time>2012-04-01T07:24:43Z</time>
      </trkpt>
      <trkpt lat="44.40836" lon="1.04289">
        <ele>204</ele>
        <time>2012-04-01T07:24:44Z</time>
      </trkpt>
      <trkpt lat="44.40834" lon="1.04291">
        <ele>204</ele>
        <time>2012-04-01T07:24:45Z</time>
      </trkpt>
      <trkpt lat="44.40833" lon="1.04294">
        <ele>204</ele>
        <time>2012-04-01T07:24:46Z</time>
      </trkpt>
      <trkpt lat="44.40832" lon="1.04296">
        <ele>204</ele>
        <time>2012-04-01T07:24:47Z</time>
      </trkpt>
      <trkpt lat="44.40831" lon="1.04297">
        <ele>204</ele>
        <time>2012-04-01T07:24:48Z</time>
      </trkpt>
      <trkpt lat="44.4083" lon="1.04299">
        <ele>204</ele>
        <time>2012-04-01T07:24:49Z</time>
      </trkpt>
      <trkpt lat="44.40828" lon="1.04301">
        <ele>204</ele>
        <time>2012-04-01T07:24:50Z</time>
      </trkpt>
      <trkpt lat="44.40827" lon="1.04303">
        <ele>204</ele>
        <time>2012-04-01T07:24:51Z</time>
      </trkpt>
      <trkpt lat="44.40825" lon="1.04304">
        <ele>204</ele>
        <time>2012-04-01T07:24:52Z</time>
      </trkpt>
      <trkpt lat="44.40823" lon="1.04305">
        <ele>205</ele>
        <time>2012-04-01T07:24:53Z</time>
      </trkpt>
      <trkpt lat="44.40822" lon="1.04306">
        <ele>205</ele>
        <time>2012-04-01T07:24:54Z</time>
      </trkpt>
      <trkpt lat="44.4082" lon="1.04308">
        <ele>206</ele>
        <time>2012-04-01T07:24:55Z</time>
      </trkpt>
      <trkpt lat="44.40818" lon="1.04309">
        <ele>206</ele>
        <time>2012-04-01T07:24:56Z</time>
      </trkpt>
      <trkpt lat="44.40817" lon="1.0431">
        <ele>207</ele>
        <time>2012-04-01T07:24:57Z</time>
      </trkpt>
      <trkpt lat="44.40815" lon="1.04312">
        <ele>207</ele>
        <time>2012-04-01T07:24:58Z</time>
      </trkpt>
      <trkpt lat="44.40813" lon="1.04313">
        <ele>208</ele>
        <time>2012-04-01T07:24:59Z</time>
      </trkpt>
      <trkpt lat="44.40812" lon="1.04315">
        <ele>209</ele>
        <time>2012-04-01T07:25:00Z</time>
      </trkpt>
      <trkpt lat="44.4081" lon="1.04316">
        <ele>209</ele>
        <time>2012-04-01T07:25:01Z</time>
      </trkpt>
      <trkpt lat="44.40808" lon="1.04318">
        <ele>210</ele>
        <time>2012-04-01T07:25:02Z</time>
      </trkpt>
      <trkpt lat="44.40807" lon="1.04319">
        <ele>210</ele>
        <time>2012-04-01T07:25:03Z</time>
      </trkpt>
      <trkpt lat="44.40805" lon="1.04321">
        <ele>210</ele>
        <time>2012-04-01T07:25:04Z</time>
      </trkpt>
      <trkpt lat="44.40802" lon="1.04323">
        <ele>210</ele>
        <time>2012-04-01T07:25:05Z</time>
      </trkpt>
      <trkpt lat="44.408" lon="1.04325">
        <ele>211</ele>
        <time>2012-04-01T07:25:06Z</time>
      </trkpt>
      <trkpt lat="44.40798" lon="1.04327">
        <ele>211</ele>
        <time>2012-04-01T07:25:07Z</time>
      </trkpt>
      <trkpt lat="44.40796" lon="1.04329">
        <ele>211</ele>
        <time>2012-04-01T07:25:08Z</time>
      </trkpt>
      <trkpt lat="44.40793" lon="1.04331">
        <ele>211</ele>
        <time>2012-04-01T07:25:09Z</time>
      </trkpt>
      <trkpt lat="44.40791" lon="1.04333">
        <ele>211</ele>
        <time>2012-04-01T07:25:10Z</time>
      </trkpt>
      <trkpt lat="44.40788" lon="1.04335">
        <ele>211</ele>
        <time>2012-04-01T07:25:11Z</time>
      </trkpt>
      <trkpt lat="44.40786" lon="1.04337">
        <ele>211</ele>
        <time>2012-04-01T07:25:12Z</time>
      </trkpt>
      <trkpt lat="44.40784" lon="1.04339">
        <ele>211</ele>
        <time>2012-04-01T07:25:13Z</time>
      </trkpt>
      <trkpt lat="44.40781" lon="1.04341">
        <ele>211</ele>
        <time>2012-04-01T07:25:14Z</time>
      </trkpt>
      <trkpt lat="44.40779" lon="1.04343">
        <ele>211</ele>
        <time>2012-04-01T07:25:15Z</time>
      </trkpt>
      <trkpt lat="44.40777" lon="1.04346">
        <ele>211</ele>
        <time>2012-04-01T07:25:16Z</time>
      </trkpt>
      <trkpt lat="44.40774" lon="1.04348">
        <ele>211</ele>
        <time>2012-04-01T07:25:17Z</time>
      </trkpt>
      <trkpt lat="44.40771" lon="1.0435">
        <ele>211</ele>
        <time>2012-04-01T07:25:18Z</time>
      </trkpt>
      <trkpt lat="44.40769" lon="1.04353">
        <ele>211</ele>
        <time>2012-04-01T07:25:19Z</time>
      </trkpt>
      <trkpt lat="44.40766" lon="1.04355">
        <ele>211</ele>
        <time>2012-04-01T07:25:20Z</time>
      </trkpt>
      <trkpt lat="44.40763" lon="1.04357">
        <ele>211</ele>
        <time>2012-04-01T07:25:21Z</time>
      </trkpt>
      <trkpt lat="44.40761" lon="1.0436">
        <ele>211</ele>
        <time>2012-04-01T07:25:22Z</time>
      </trkpt>
      <trkpt lat="44.40758" lon="1.04362">
        <ele>211</ele>
        <time>2012-04-01T07:25:23Z</time>
      </trkpt>
      <trkpt lat="44.40755" lon="1.04364">
        <ele>211</ele>
        <time>2012-04-01T07:25:24Z</time>
      </trkpt>
      <trkpt lat="44.40752" lon="1.04366">
        <ele>211</ele>
        <time>2012-04-01T07:25:25Z</time>
      </trkpt>
      <trkpt lat="44.4075" lon="1.04368">
        <ele>211</ele>
        <time>2012-04-01T07:25:26Z</time>
      </trkpt>
      <trkpt lat="44.40747" lon="1.0437">
        <ele>211</ele>
        <time>2012-04-01T07:25:27Z</time>
      </trkpt>
      <trkpt lat="44.40744" lon="1.04372">
        <ele>211</ele>
        <time>2012-04-01T07:25:28Z</time>
      </trkpt>
      <trkpt lat="44.40741" lon="1.04374">
        <ele>211</ele>
        <time>2012-04-01T07:25:29Z</time>
      </trkpt>
      <trkpt lat="44.40738" lon="1.04377">
        <ele>211</ele>
        <time>2012-04-01T07:25:30Z</time>
      </trkpt>
      <trkpt lat="44.40735" lon="1.04379">
        <ele>211</ele>
        <time>2012-04-01T07:25:31Z</time>
      </trkpt>
      <trkpt lat="44.40732" lon="1.04381">
        <ele>211</ele>
        <time>2012-04-01T07:25:32Z</time>
      </trkpt>
      <trkpt lat="44.40729" lon="1.04384">
        <ele>211</ele>
        <time>2012-04-01T07:25:33Z</time>
      </trkpt>
      <trkpt lat="44.40726" lon="1.04386">
        <ele>211</ele>
        <time>2012-04-01T07:25:34Z</time>
      </trkpt>
      <trkpt lat="44.40723" lon="1.04388">
        <ele>211</ele>
        <time>2012-04-01T07:25:35Z</time>
      </trkpt>
      <trkpt lat="44.4072" lon="1.0439">
        <ele>211</ele>
        <time>2012-04-01T07:25:36Z</time>
      </trkpt>
      <trkpt lat="44.40717" lon="1.04393">
        <ele>211</ele>
        <time>2012-04-01T07:25:37Z</time>
      </trkpt>
      <trkpt lat="44.40715" lon="1.04395">
        <ele>211</ele>
        <time>2012-04-01T07:25:38Z</time>
      </trkpt>
      <trkpt lat="44.40712" lon="1.04398">
        <ele>211</ele>
        <time>2012-04-01T07:25:39Z</time>
      </trkpt>
      <trkpt lat="44.40709" lon="1.044">
        <ele>211</ele>
        <time>2012-04-01T07:25:40Z</time>
      </trkpt>
      <trkpt lat="44.40706" lon="1.04402">
        <ele>211</ele>
        <time>2012-04-01T07:25:41Z</time>
      </trkpt>
      <trkpt lat="44.40703" lon="1.04405">
        <ele>211</ele>
        <time>2012-04-01T07:25:42Z</time>
      </trkpt>
      <trkpt lat="44.407" lon="1.04407">
        <ele>211</ele>
        <time>2012-04-01T07:25:43Z</time>
      </trkpt>
      <trkpt lat="44.40697" lon="1.04409">
        <ele>211</ele>
        <time>2012-04-01T07:25:44Z</time>
      </trkpt>
      <trkpt lat="44.40694" lon="1.04412">
        <ele>211</ele>
        <time>2012-04-01T07:25:45Z</time>
      </trkpt>
      <trkpt lat="44.40691" lon="1.04414">
        <ele>211</ele>
        <time>2012-04-01T07:25:46Z</time>
      </trkpt>
      <trkpt lat="44.40688" lon="1.04416">
        <ele>211</ele>
        <time>2012-04-01T07:25:47Z</time>
      </trkpt>
      <trkpt lat="44.40685" lon="1.04419">
        <ele>211</ele>
        <time>2012-04-01T07:25:48Z</time>
      </trkpt>
      <trkpt lat="44.40681" lon="1.04421">
        <ele>211</ele>
        <time>2012-04-01T07:25:49Z</time>
      </trkpt>
      <trkpt lat="44.40678" lon="1.04424">
        <ele>211</ele>
        <time>2012-04-01T07:25:50Z</time>
      </trkpt>
      <trkpt lat="44.40674" lon="1.04427">
        <ele>211</ele>
        <time>2012-04-01T07:25:51Z</time>
      </trkpt>
      <trkpt lat="44.40671" lon="1.04431">
        <ele>211</ele>
        <time>2012-04-01T07:25:52Z</time>
      </trkpt>
      <trkpt lat="44.40668" lon="1.04435">
        <ele>211</ele>
        <time>2012-04-01T07:25:53Z</time>
      </trkpt>
      <trkpt lat="44.40666" lon="1.0444">
        <ele>211</ele>
        <time>2012-04-01T07:25:54Z</time>
      </trkpt>
      <trkpt lat="44.40664" lon="1.04444">
        <ele>211</ele>
        <time>2012-04-01T07:25:55Z</time>
      </trkpt>
      <trkpt lat="44.40661" lon="1.04449">
        <ele>211</ele>
        <time>2012-04-01T07:25:56Z</time>
      </trkpt>
      <trkpt lat="44.40659" lon="1.04454">
        <ele>211</ele>
        <time>2012-04-01T07:25:57Z</time>
      </trkpt>
      <trkpt lat="44.40657" lon="1.04459">
        <ele>211</ele>
        <time>2012-04-01T07:25:58Z</time>
      </trkpt>
      <trkpt lat="44.40656" lon="1.04464">
        <ele>211</ele>
        <time>2012-04-01T07:25:59Z</time>
      </trkpt>
      <trkpt lat="44.40654" lon="1.0447">
        <ele>211</ele>
        <time>2012-04-01T07:26:00Z</time>
      </trkpt>
      <trkpt lat="44.40653" lon="1.04474">
        <ele>211</ele>
        <time>2012-04-01T07:26:01Z</time>
      </trkpt>
      <trkpt lat="44.40652" lon="1.04479">
        <ele>212</ele>
        <time>2012-04-01T07:26:02Z</time>
      </trkpt>
      <trkpt lat="44.40651" lon="1.04483">
        <ele>212</ele>
        <time>2012-04-01T07:26:03Z</time>
      </trkpt>
      <trkpt lat="44.40649" lon="1.04488">
        <ele>212</ele>
        <time>2012-04-01T07:26:04Z</time>
      </trkpt>
      <trkpt lat="44.40648" lon="1.04493">
        <ele>213</ele>
        <time>2012-04-01T07:26:05Z</time>
      </trkpt>
      <trkpt lat="44.40646" lon="1.04499">
        <ele>213</ele>
        <time>2012-04-01T07:26:06Z</time>
      </trkpt>
      <trkpt lat="44.40644" lon="1.04505">
        <ele>213</ele>
        <time>2012-04-01T07:26:07Z</time>
      </trkpt>
      <trkpt lat="44.40641" lon="1.04511">
        <ele>213</ele>
        <time>2012-04-01T07:26:08Z</time>
      </trkpt>
      <trkpt lat="44.40639" lon="1.04516">
        <ele>214</ele>
        <time>2012-04-01T07:26:09Z</time>
      </trkpt>
      <trkpt lat="44.40638" lon="1.04522">
        <ele>214</ele>
        <time>2012-04-01T07:26:10Z</time>
      </trkpt>
      <trkpt lat="44.40638" lon="1.04528">
        <ele>214</ele>
        <time>2012-04-01T07:26:11Z</time>
      </trkpt>
      <trkpt lat="44.40639" lon="1.04535">
        <ele>214</ele>
        <time>2012-04-01T07:26:12Z</time>
      </trkpt>
      <trkpt lat="44.4064" lon="1.04543">
        <ele>214</ele>
        <time>2012-04-01T07:26:13Z</time>
      </trkpt>
      <trkpt lat="44.40641" lon="1.04551">
        <ele>214</ele>
        <time>2012-04-01T07:26:14Z</time>
      </trkpt>
      <trkpt lat="44.40643" lon="1.04559">
        <ele>214</ele>
        <time>2012-04-01T07:26:15Z</time>
      </trkpt>
      <trkpt lat="44.40644" lon="1.04567">
        <ele>214</ele>
        <time>2012-04-01T07:26:16Z</time>
      </trkpt>
      <trkpt lat="44.40646" lon="1.04576">
        <ele>214</ele>
        <time>2012-04-01T07:26:17Z</time>
      </trkpt>
      <trkpt lat="44.40648" lon="1.04584">
        <ele>214</ele>
        <time>2012-04-01T07:26:18Z</time>
      </trkpt>
      <trkpt lat="44.4065" lon="1.04593">
        <ele>214</ele>
        <time>2012-04-01T07:26:19Z</time>
      </trkpt>
      <trkpt lat="44.40652" lon="1.04601">
        <ele>214</ele>
        <time>2012-04-01T07:26:20Z</time>
      </trkpt>
      <trkpt lat="44.40654" lon="1.0461">
        <ele>214</ele>
        <time>2012-04-01T07:26:21Z</time>
      </trkpt>
      <trkpt lat="44.40657" lon="1.04618">
        <ele>214</ele>
        <time>2012-04-01T07:26:22Z</time>
      </trkpt>
      <trkpt lat="44.40659" lon="1.04625">
        <ele>214</ele>
        <time>2012-04-01T07:26:23Z</time>
      </trkpt>
      <trkpt lat="44.40661" lon="1.04633">
        <ele>214</ele>
        <time>2012-04-01T07:26:24Z</time>
      </trkpt>
      <trkpt lat="44.40663" lon="1.0464">
        <ele>214</ele>
        <time>2012-04-01T07:26:25Z</time>
      </trkpt>
      <trkpt lat="44.40665" lon="1.04647">
        <ele>214</ele>
        <time>2012-04-01T07:26:26Z</time>
      </trkpt>
      <trkpt lat="44.40667" lon="1.04654">
        <ele>214</ele>
        <time>2012-04-01T07:26:27Z</time>
      </trkpt>
      <trkpt lat="44.40669" lon="1.04661">
        <ele>214</ele>
        <time>2012-04-01T07:26:28Z</time>
      </trkpt>
      <trkpt lat="44.40671" lon="1.04668">
        <ele>214</ele>
        <time>2012-04-01T07:26:29Z</time>
      </trkpt>
      <trkpt lat="44.40672" lon="1.04674">
        <ele>214</ele>
        <time>2012-04-01T07:26:30Z</time>
      </trkpt>
      <trkpt lat="44.40674" lon="1.04681">
        <ele>214</ele>
        <time>2012-04-01T07:26:31Z</time>
      </trkpt>
      <trkpt lat="44.40675" lon="1.04687">
        <ele>214</ele>
        <time>2012-04-01T07:26:32Z</time>
      </trkpt>
      <trkpt lat="44.40676" lon="1.04693">
        <ele>214</ele>
        <time>2012-04-01T07:26:33Z</time>
      </trkpt>
      <trkpt lat="44.40676" lon="1.047">
        <ele>214</ele>
        <time>2012-04-01T07:26:34Z</time>
      </trkpt>
      <trkpt lat="44.40675" lon="1.04707">
        <ele>214</ele>
        <time>2012-04-01T07:26:35Z</time>
      </trkpt>
      <trkpt lat="44.40672" lon="1.04712">
        <ele>214</ele>
        <time>2012-04-01T07:26:36Z</time>
      </trkpt>
      <trkpt lat="44.40668" lon="1.04718">
        <ele>214</ele>
        <time>2012-04-01T07:26:37Z</time>
      </trkpt>
      <trkpt lat="44.40665" lon="1.04724">
        <ele>214</ele>
        <time>2012-04-01T07:26:38Z</time>
      </trkpt>
      <trkpt lat="44.40661" lon="1.0473">
        <ele>214</ele>
        <time>2012-04-01T07:26:39Z</time>
      </trkpt>
      <trkpt lat="44.40657" lon="1.04737">
        <ele>214</ele>
        <time>2012-04-01T07:26:40Z</time>
      </trkpt>
      <trkpt lat="44.40655" lon="1.04745">
        <ele>214</ele>
        <time>2012-04-01T07:26:41Z</time>
      </trkpt>
      <trkpt lat="44.40655" lon="1.04753">
        <ele>214</ele>
        <time>2012-04-01T07:26:42Z</time>
      </trkpt>
      <trkpt lat="44.40655" lon="1.04761">
        <ele>214</ele>
        <time>2012-04-01T07:26:43Z</time>
      </trkpt>
      <trkpt lat="44.40656" lon="1.04769">
        <ele>214</ele>
        <time>2012-04-01T07:26:44Z</time>
      </trkpt>
      <trkpt lat="44.40658" lon="1.04777">
        <ele>214</ele>
        <time>2012-04-01T07:26:45Z</time>
      </trkpt>
      <trkpt lat="44.40659" lon="1.04786">
        <ele>213</ele>
        <time>2012-04-01T07:26:46Z</time>
      </trkpt>
      <trkpt lat="44.40661" lon="1.04794">
        <ele>213</ele>
        <time>2012-04-01T07:26:47Z</time>
      </trkpt>
      <trkpt lat="44.40663" lon="1.04801">
        <ele>213</ele>
        <time>2012-04-01T07:26:48Z</time>
      </trkpt>
      <trkpt lat="44.40664" lon="1.04808">
        <ele>213</ele>
        <time>2012-04-01T07:26:49Z</time>
      </trkpt>
      <trkpt lat="44.40667" lon="1.04817">
        <ele>213</ele>
        <time>2012-04-01T07:26:50Z</time>
      </trkpt>
      <trkpt lat="44.40668" lon="1.04824">
        <ele>212</ele>
        <time>2012-04-01T07:26:51Z</time>
      </trkpt>
      <trkpt lat="44.40669" lon="1.04831">
        <ele>212</ele>
        <time>2012-04-01T07:26:52Z</time>
      </trkpt>
      <trkpt lat="44.4067" lon="1.04839">
        <ele>212</ele>
        <time>2012-04-01T07:26:53Z</time>
      </trkpt>
      <trkpt lat="44.40672" lon="1.04846">
        <ele>211</ele>
        <time>2012-04-01T07:26:54Z</time>
      </trkpt>
      <trkpt lat="44.40673" lon="1.04853">
        <ele>211</ele>
        <time>2012-04-01T07:26:55Z</time>
      </trkpt>
      <trkpt lat="44.40675" lon="1.0486">
        <ele>210</ele>
        <time>2012-04-01T07:26:56Z</time>
      </trkpt>
      <trkpt lat="44.40676" lon="1.04868">
        <ele>210</ele>
        <time>2012-04-01T07:26:57Z</time>
      </trkpt>
      <trkpt lat="44.40678" lon="1.04875">
        <ele>210</ele>
        <time>2012-04-01T07:26:58Z</time>
      </trkpt>
      <trkpt lat="44.4068" lon="1.04882">
        <ele>210</ele>
        <time>2012-04-01T07:26:59Z</time>
      </trkpt>
      <trkpt lat="44.40681" lon="1.04889">
        <ele>210</ele>
        <time>2012-04-01T07:27:00Z</time>
      </trkpt>
      <trkpt lat="44.40683" lon="1.04895">
        <ele>210</ele>
        <time>2012-04-01T07:27:01Z</time>
      </trkpt>
      <trkpt lat="44.40684" lon="1.04901">
        <ele>210</ele>
        <time>2012-04-01T07:27:02Z</time>
      </trkpt>
      <trkpt lat="44.40685" lon="1.04906">
        <ele>210</ele>
        <time>2012-04-01T07:27:03Z</time>
      </trkpt>
      <trkpt lat="44.40686" lon="1.04911">
        <ele>210</ele>
        <time>2012-04-01T07:27:04Z</time>
      </trkpt>
      <trkpt lat="44.40687" lon="1.04916">
        <ele>210</ele>
        <time>2012-04-01T07:27:05Z</time>
      </trkpt>
      <trkpt lat="44.40688" lon="1.0492">
        <ele>210</ele>
        <time>2012-04-01T07:27:06Z</time>
      </trkpt>
      <trkpt lat="44.40691" lon="1.04923">
        <ele>210</ele>
        <time>2012-04-01T07:27:07Z</time>
      </trkpt>
      <trkpt lat="44.40693" lon="1.04926">
        <ele>210</ele>
        <time>2012-04-01T07:27:08Z</time>
      </trkpt>
      <trkpt lat="44.40696" lon="1.04928">
        <ele>210</ele>
        <time>2012-04-01T07:27:09Z</time>
      </trkpt>
      <trkpt lat="44.40699" lon="1.04929">
        <ele>210</ele>
        <time>2012-04-01T07:27:10Z</time>
      </trkpt>
      <trkpt lat="44.40702" lon="1.04931">
        <ele>210</ele>
        <time>2012-04-01T07:27:11Z</time>
      </trkpt>
      <trkpt lat="44.40705" lon="1.04932">
        <ele>210</ele>
        <time>2012-04-01T07:27:12Z</time>
      </trkpt>
      <trkpt lat="44.40709" lon="1.04934">
        <ele>210</ele>
        <time>2012-04-01T07:27:13Z</time>
      </trkpt>
      <trkpt lat="44.40712" lon="1.04936">
        <ele>210</ele>
        <time>2012-04-01T07:27:14Z</time>
      </trkpt>
      <trkpt lat="44.40715" lon="1.04938">
        <ele>210</ele>
        <time>2012-04-01T07:27:15Z</time>
      </trkpt>
      <trkpt lat="44.40718" lon="1.04941">
        <ele>210</ele>
        <time>2012-04-01T07:27:16Z</time>
      </trkpt>
      <trkpt lat="44.40721" lon="1.04945">
        <ele>210</ele>
        <time>2012-04-01T07:27:17Z</time>
      </trkpt>
      <trkpt lat="44.40723" lon="1.04948">
        <ele>211</ele>
        <time>2012-04-01T07:27:18Z</time>
      </trkpt>
      <trkpt lat="44.40725" lon="1.04953">
        <ele>211</ele>
        <time>2012-04-01T07:27:19Z</time>
      </trkpt>
      <trkpt lat="44.40727" lon="1.04957">
        <ele>211</ele>
        <time>2012-04-01T07:27:20Z</time>
      </trkpt>
      <trkpt lat="44.40729" lon="1.04961">
        <ele>212</ele>
        <time>2012-04-01T07:27:21Z</time>
      </trkpt>
      <trkpt lat="44.4073" lon="1.04965">
        <ele>212</ele>
        <time>2012-04-01T07:27:22Z</time>
      </trkpt>
      <trkpt lat="44.40732" lon="1.0497">
        <ele>212</ele>
        <time>2012-04-01T07:27:23Z</time>
      </trkpt>
      <trkpt lat="44.40733" lon="1.04974">
        <ele>213</ele>
        <time>2012-04-01T07:27:24Z</time>
      </trkpt>
      <trkpt lat="44.40735" lon="1.04978">
        <ele>213</ele>
        <time>2012-04-01T07:27:25Z</time>
      </trkpt>
      <trkpt lat="44.40736" lon="1.04983">
        <ele>213</ele>
        <time>2012-04-01T07:27:26Z</time>
      </trkpt>
      <trkpt lat="44.40737" lon="1.04987">
        <ele>213</ele>
        <time>2012-04-01T07:27:27Z</time>
      </trkpt>
      <trkpt lat="44.40738" lon="1.0499">
        <ele>214</ele>
        <time>2012-04-01T07:27:28Z</time>
      </trkpt>
      <trkpt lat="44.40739" lon="1.04995">
        <ele>214</ele>
        <time>2012-04-01T07:27:29Z</time>
      </trkpt>
      <trkpt lat="44.4074" lon="1.04998">
        <ele>214</ele>
        <time>2012-04-01T07:27:30Z</time>
      </trkpt>
      <trkpt lat="44.40741" lon="1.05002">
        <ele>214</ele>
        <time>2012-04-01T07:27:31Z</time>
      </trkpt>
      <trkpt lat="44.40742" lon="1.05006">
        <ele>214</ele>
        <time>2012-04-01T07:27:32Z</time>
      </trkpt>
      <trkpt lat="44.40742" lon="1.0501">
        <ele>214</ele>
        <time>2012-04-01T07:27:33Z</time>
      </trkpt>
      <trkpt lat="44.40741" lon="1.05014">
        <ele>214</ele>
        <time>2012-04-01T07:27:34Z</time>
      </trkpt>
      <trkpt lat="44.40741" lon="1.05018">
        <ele>214</ele>
        <time>2012-04-01T07:27:35Z</time>
      </trkpt>
      <trkpt lat="44.4074" lon="1.05022">
        <ele>214</ele>
        <time>2012-04-01T07:27:36Z</time>
      </trkpt>
      <trkpt lat="44.40739" lon="1.05026">
        <ele>214</ele>
        <time>2012-04-01T07:27:37Z</time>
      </trkpt>
      <trkpt lat="44.40737" lon="1.0503">
        <ele>214</ele>
        <time>2012-04-01T07:27:38Z</time>
      </trkpt>
      <trkpt lat="44.40736" lon="1.05034">
        <ele>214</ele>
        <time>2012-04-01T07:27:39Z</time>
      </trkpt>
      <trkpt lat="44.40735" lon="1.05038">
        <ele>214</ele>
        <time>2012-04-01T07:27:40Z</time>
      </trkpt>
      <trkpt lat="44.40733" lon="1.05041">
        <ele>214</ele>
        <time>2012-04-01T07:27:41Z</time>
      </trkpt>
      <trkpt lat="44.40732" lon="1.05044">
        <ele>215</ele>
        <time>2012-04-01T07:27:42Z</time>
      </trkpt>
      <trkpt lat="44.40731" lon="1.05047">
        <ele>215</ele>
        <time>2012-04-01T07:27:43Z</time>
      </trkpt>
      <trkpt lat="44.4073" lon="1.05049">
        <ele>215</ele>
        <time>2012-04-01T07:27:44Z</time>
      </trkpt>
      <trkpt lat="44.40729" lon="1.05052">
        <ele>216</ele>
        <time>2012-04-01T07:27:45Z</time>
      </trkpt>
      <trkpt lat="44.40728" lon="1.05054">
        <ele>216</ele>
        <time>2012-04-01T07:27:46Z</time>
      </trkpt>
      <trkpt lat="44.40726" lon="1.05057">
        <ele>216</ele>
        <time>2012-04-01T07:27:47Z</time>
      </trkpt>
      <trkpt lat="44.40725" lon="1.0506">
        <ele>216</ele>
        <time>2012-04-01T07:27:48Z</time>
      </trkpt>
      <trkpt lat="44.40723" lon="1.05064">
        <ele>217</ele>
        <time>2012-04-01T07:27:49Z</time>
      </trkpt>
      <trkpt lat="44.40722" lon="1.05068">
        <ele>217</ele>
        <time>2012-04-01T07:27:50Z</time>
      </trkpt>
      <trkpt lat="44.4072" lon="1.05071">
        <ele>217</ele>
        <time>2012-04-01T07:27:51Z</time>
      </trkpt>
      <trkpt lat="44.40719" lon="1.05075">
        <ele>217</ele>
        <time>2012-04-01T07:27:52Z</time>
      </trkpt>
      <trkpt lat="44.40718" lon="1.05078">
        <ele>217</ele>
        <time>2012-04-01T07:27:53Z</time>
      </trkpt>
      <trkpt lat="44.40717" lon="1.05082">
        <ele>218</ele>
        <time>2012-04-01T07:27:54Z</time>
      </trkpt>
      <trkpt lat="44.40715" lon="1.05086">
        <ele>218</ele>
        <time>2012-04-01T07:27:55Z</time>
      </trkpt>
      <trkpt lat="44.40714" lon="1.05089">
        <ele>218</ele>
        <time>2012-04-01T07:27:56Z</time>
      </trkpt>
      <trkpt lat="44.40713" lon="1.05093">
        <ele>218</ele>
        <time>2012-04-01T07:27:57Z</time>
      </trkpt>
      <trkpt lat="44.40712" lon="1.05097">
        <ele>218</ele>
        <time>2012-04-01T07:27:58Z</time>
      </trkpt>
      <trkpt lat="44.4071" lon="1.05102">
        <ele>218</ele>
        <time>2012-04-01T07:27:59Z</time>
      </trkpt>
      <trkpt lat="44.40709" lon="1.05107">
        <ele>218</ele>
        <time>2012-04-01T07:28:00Z</time>
      </trkpt>
      <trkpt lat="44.40707" lon="1.05113">
        <ele>218</ele>
        <time>2012-04-01T07:28:01Z</time>
      </trkpt>
      <trkpt lat="44.40706" lon="1.0512">
        <ele>218</ele>
        <time>2012-04-01T07:28:02Z</time>
      </trkpt>
      <trkpt lat="44.40704" lon="1.05127">
        <ele>218</ele>
        <time>2012-04-01T07:28:03Z</time>
      </trkpt>
      <trkpt lat="44.40702" lon="1.05134">
        <ele>218</ele>
        <time>2012-04-01T07:28:04Z</time>
      </trkpt>
      <trkpt lat="44.407" lon="1.05141">
        <ele>218</ele>
        <time>2012-04-01T07:28:05Z</time>
      </trkpt>
      <trkpt lat="44.40697" lon="1.05147">
        <ele>218</ele>
        <time>2012-04-01T07:28:06Z</time>
      </trkpt>
      <trkpt lat="44.40694" lon="1.05154">
        <ele>218</ele>
        <time>2012-04-01T07:28:07Z</time>
      </trkpt>
      <trkpt lat="44.4069" lon="1.05159">
        <ele>218</ele>
        <time>2012-04-01T07:28:08Z</time>
      </trkpt>
      <trkpt lat="44.40686" lon="1.05165">
        <ele>218</ele>
        <time>2012-04-01T07:28:09Z</time>
      </trkpt>
      <trkpt lat="44.40681" lon="1.05169">
        <ele>218</ele>
        <time>2012-04-01T07:28:10Z</time>
      </trkpt>
      <trkpt lat="44.40677" lon="1.05173">
        <ele>218</ele>
        <time>2012-04-01T07:28:11Z</time>
      </trkpt>
      <trkpt lat="44.40672" lon="1.05176">
        <ele>218</ele>
        <time>2012-04-01T07:28:12Z</time>
      </trkpt>
      <trkpt lat="44.40668" lon="1.05179">
        <ele>218</ele>
        <time>2012-04-01T07:28:13Z</time>
      </trkpt>
      <trkpt lat="44.40664" lon="1.05182">
        <ele>218</ele>
        <time>2012-04-01T07:28:14Z</time>
      </trkpt>
      <trkpt lat="44.40659" lon="1.05185">
        <ele>218</ele>
        <time>2012-04-01T07:28:15Z</time>
      </trkpt>
      <trkpt lat="44.40656" lon="1.05188">
        <ele>218</ele>
        <time>2012-04-01T07:28:16Z</time>
      </trkpt>
      <trkpt lat="44.40653" lon="1.05191">
        <ele>218</ele>
        <time>2012-04-01T07:28:17Z</time>
      </trkpt>
      <trkpt lat="44.40651" lon="1.05196">
        <ele>218</ele>
        <time>2012-04-01T07:28:18Z</time>
      </trkpt>
      <trkpt lat="44.40651" lon="1.05202">
        <ele>218</ele>
        <time>2012-04-01T07:28:19Z</time>
      </trkpt>
      <trkpt lat="44.40652" lon="1.0521">
        <ele>218</ele>
        <time>2012-04-01T07:28:20Z</time>
      </trkpt>
      <trkpt lat="44.40653" lon="1.05219">
        <ele>218</ele>
        <time>2012-04-01T07:28:21Z</time>
      </trkpt>
      <trkpt lat="44.40654" lon="1.05228">
        <ele>218</ele>
        <time>2012-04-01T07:28:22Z</time>
      </trkpt>
      <trkpt lat="44.40654" lon="1.05237">
        <ele>218</ele>
        <time>2012-04-01T07:28:23Z</time>
      </trkpt>
      <trkpt lat="44.40655" lon="1.05247">
        <ele>217</ele>
        <time>2012-04-01T07:28:24Z</time>
      </trkpt>
      <trkpt lat="44.40655" lon="1.05257">
        <ele>216</ele>
        <time>2012-04-01T07:28:25Z</time>
      </trkpt>
      <trkpt lat="44.40656" lon="1.05267">
        <ele>215</ele>
        <time>2012-04-01T07:28:26Z</time>
      </trkpt>
      <trkpt lat="44.40657" lon="1.05278">
        <ele>214</ele>
        <time>2012-04-01T07:28:27Z</time>
      </trkpt>
      <trkpt lat="44.40657" lon="1.05289">
        <ele>213</ele>
        <time>2012-04-01T07:28:28Z</time>
      </trkpt>
      <trkpt lat="44.40658" lon="1.05299">
        <ele>212</ele>
        <time>2012-04-01T07:28:29Z</time>
      </trkpt>
      <trkpt lat="44.40659" lon="1.05309">
        <ele>211</ele>
        <time>2012-04-01T07:28:30Z</time>
      </trkpt>
      <trkpt lat="44.4066" lon="1.05318">
        <ele>210</ele>
        <time>2012-04-01T07:28:31Z</time>
      </trkpt>
      <trkpt lat="44.40661" lon="1.05326">
        <ele>210</ele>
        <time>2012-04-01T07:28:32Z</time>
      </trkpt>
      <trkpt lat="44.40661" lon="1.05333">
        <ele>209</ele>
        <time>2012-04-01T07:28:33Z</time>
      </trkpt>
      <trkpt lat="44.40662" lon="1.05339">
        <ele>209</ele>
        <time>2012-04-01T07:28:34Z</time>
      </trkpt>
      <trkpt lat="44.40662" lon="1.05343">
        <ele>209</ele>
        <time>2012-04-01T07:28:35Z</time>
      </trkpt>
      <trkpt lat="44.40663" lon="1.05347">
        <ele>209</ele>
        <time>2012-04-01T07:28:36Z</time>
      </trkpt>
      <trkpt lat="44.40665" lon="1.0535">
        <ele>209</ele>
        <time>2012-04-01T07:28:37Z</time>
      </trkpt>
      <trkpt lat="44.40668" lon="1.05351">
        <ele>208</ele>
        <time>2012-04-01T07:28:38Z</time>
      </trkpt>
      <trkpt lat="44.4067" lon="1.05353">
        <ele>208</ele>
        <time>2012-04-01T07:28:39Z</time>
      </trkpt>
      <trkpt lat="44.40673" lon="1.05355">
        <ele>208</ele>
        <time>2012-04-01T07:28:40Z</time>
      </trkpt>
      <trkpt lat="44.40674" lon="1.05359">
        <ele>207</ele>
        <time>2012-04-01T07:28:41Z</time>
      </trkpt>
      <trkpt lat="44.40675" lon="1.05363">
        <ele>207</ele>
        <time>2012-04-01T07:28:42Z</time>
      </trkpt>
      <trkpt lat="44.40676" lon="1.05368">
        <ele>207</ele>
        <time>2012-04-01T07:28:43Z</time>
      </trkpt>
      <trkpt lat="44.40676" lon="1.05374">
        <ele>207</ele>
        <time>2012-04-01T07:28:44Z</time>
      </trkpt>
      <trkpt lat="44.40677" lon="1.05379">
        <ele>207</ele>
        <time>2012-04-01T07:28:45Z</time>
      </trkpt>
      <trkpt lat="44.40677" lon="1.05385">
        <ele>207</ele>
        <time>2012-04-01T07:28:46Z</time>
      </trkpt>
      <trkpt lat="44.40678" lon="1.05391">
        <ele>207</ele>
        <time>2012-04-01T07:28:47Z</time>
      </trkpt>
      <trkpt lat="44.40678" lon="1.05397">
        <ele>207</ele>
        <time>2012-04-01T07:28:48Z</time>
      </trkpt>
      <trkpt lat="44.40679" lon="1.05405">
        <ele>207</ele>
        <time>2012-04-01T07:28:49Z</time>
      </trkpt>
      <trkpt lat="44.4068" lon="1.05412">
        <ele>207</ele>
        <time>2012-04-01T07:28:50Z</time>
      </trkpt>
      <trkpt lat="44.4068" lon="1.0542">
        <ele>207</ele>
        <time>2012-04-01T07:28:51Z</time>
      </trkpt>
      <trkpt lat="44.40679" lon="1.05428">
        <ele>207</ele>
        <time>2012-04-01T07:28:52Z</time>
      </trkpt>
      <trkpt lat="44.40677" lon="1.05435">
        <ele>207</ele>
        <time>2012-04-01T07:28:53Z</time>
      </trkpt>
      <trkpt lat="44.40676" lon="1.05442">
        <ele>207</ele>
        <time>2012-04-01T07:28:54Z</time>
      </trkpt>
      <trkpt lat="44.40675" lon="1.05448">
        <ele>207</ele>
        <time>2012-04-01T07:28:55Z</time>
      </trkpt>
      <trkpt lat="44.40673" lon="1.05454">
        <ele>207</ele>
        <time>2012-04-01T07:28:56Z</time>
      </trkpt>
      <trkpt lat="44.40673" lon="1.05458">
        <ele>207</ele>
        <time>2012-04-01T07:28:57Z</time>
      </trkpt>
      <trkpt lat="44.40675" lon="1.05463">
        <ele>207</ele>
        <time>2012-04-01T07:28:58Z</time>
      </trkpt>
      <trkpt lat="44.40677" lon="1.05467">
        <ele>206</ele>
        <time>2012-04-01T07:28:59Z</time>
      </trkpt>
      <trkpt lat="44.4068" lon="1.0547">
        <ele>206</ele>
        <time>2012-04-01T07:29:00Z</time>
      </trkpt>
      <trkpt lat="44.40684" lon="1.05472">
        <ele>206</ele>
        <time>2012-04-01T07:29:01Z</time>
      </trkpt>
      <trkpt lat="44.40688" lon="1.05472">
        <ele>206</ele>
        <time>2012-04-01T07:29:02Z</time>
      </trkpt>
      <trkpt lat="44.40691" lon="1.05471">
        <ele>206</ele>
        <time>2012-04-01T07:29:03Z</time>
      </trkpt>
      <trkpt lat="44.40694" lon="1.05469">
        <ele>206</ele>
        <time>2012-04-01T07:29:04Z</time>
      </trkpt>
      <trkpt lat="44.40698" lon="1.05467">
        <ele>206</ele>
        <time>2012-04-01T07:29:05Z</time>
      </trkpt>
      <trkpt lat="44.40701" lon="1.05466">
        <ele>206</ele>
        <time>2012-04-01T07:29:06Z</time>
      </trkpt>
      <trkpt lat="44.40704" lon="1.05464">
        <ele>206</ele>
        <time>2012-04-01T07:29:07Z</time>
      </trkpt>
      <trkpt lat="44.40708" lon="1.05463">
        <ele>205</ele>
        <time>2012-04-01T07:29:08Z</time>
      </trkpt>
      <trkpt lat="44.40711" lon="1.05462">
        <ele>205</ele>
        <time>2012-04-01T07:29:09Z</time>
      </trkpt>
      <trkpt lat="44.40715" lon="1.05461">
        <ele>205</ele>
        <time>2012-04-01T07:29:10Z</time>
      </trkpt>
      <trkpt lat="44.40718" lon="1.0546">
        <ele>205</ele>
        <time>2012-04-01T07:29:11Z</time>
      </trkpt>
      <trkpt lat="44.4072" lon="1.05462">
        <ele>205</ele>
        <time>2012-04-01T07:29:12Z</time>
      </trkpt>
      <trkpt lat="44.40722" lon="1.05466">
        <ele>205</ele>
        <time>2012-04-01T07:29:13Z</time>
      </trkpt>
      <trkpt lat="44.40723" lon="1.05471">
        <ele>205</ele>
        <time>2012-04-01T07:29:14Z</time>
      </trkpt>
      <trkpt lat="44.40723" lon="1.05476">
        <ele>205</ele>
        <time>2012-04-01T07:29:15Z</time>
      </trkpt>
      <trkpt lat="44.40723" lon="1.05482">
        <ele>205</ele>
        <time>2012-04-01T07:29:16Z</time>
      </trkpt>
      <trkpt lat="44.40723" lon="1.05487">
        <ele>205</ele>
        <time>2012-04-01T07:29:17Z</time>
      </trkpt>
      <trkpt lat="44.40723" lon="1.05492">
        <ele>205</ele>
        <time>2012-04-01T07:29:18Z</time>
      </trkpt>
      <trkpt lat="44.40724" lon="1.05497">
        <ele>205</ele>
        <time>2012-04-01T07:29:19Z</time>
      </trkpt>
      <trkpt lat="44.40725" lon="1.05501">
        <ele>205</ele>
        <time>2012-04-01T07:29:20Z</time>
      </trkpt>
      <trkpt lat="44.40725" lon="1.05506">
        <ele>205</ele>
        <time>2012-04-01T07:29:21Z</time>
      </trkpt>
      <trkpt lat="44.40726" lon="1.05511">
        <ele>205</ele>
        <time>2012-04-01T07:29:22Z</time>
      </trkpt>
      <trkpt lat="44.40726" lon="1.05516">
        <ele>205</ele>
        <time>2012-04-01T07:29:23Z</time>
      </trkpt>
      <trkpt lat="44.40726" lon="1.0552">
        <ele>205</ele>
        <time>2012-04-01T07:29:24Z</time>
      </trkpt>
      <trkpt lat="44.40727" lon="1.05524">
        <ele>205</ele>
        <time>2012-04-01T07:29:25Z</time>
      </trkpt>
      <trkpt lat="44.40727" lon="1.05528">
        <ele>205</ele>
        <time>2012-04-01T07:29:26Z</time>
      </trkpt>
      <trkpt lat="44.40728" lon="1.05532">
        <ele>205</ele>
        <time>2012-04-01T07:29:27Z</time>
      </trkpt>
      <trkpt lat="44.40728" lon="1.05536">
        <ele>205</ele>
        <time>2012-04-01T07:29:28Z</time>
      </trkpt>
      <trkpt lat="44.40728" lon="1.0554">
        <ele>205</ele>
        <time>2012-04-01T07:29:29Z</time>
      </trkpt>
      <trkpt lat="44.40729" lon="1.05544">
        <ele>205</ele>
        <time>2012-04-01T07:29:30Z</time>
      </trkpt>
      <trkpt lat="44.4073" lon="1.05547">
        <ele>205</ele>
        <time>2012-04-01T07:29:31Z</time>
      </trkpt>
      <trkpt lat="44.4073" lon="1.05551">
        <ele>205</ele>
        <time>2012-04-01T07:29:32Z</time>
      </trkpt>
      <trkpt lat="44.4073" lon="1.05554">
        <ele>206</ele>
        <time>2012-04-01T07:29:33Z</time>
      </trkpt>
      <trkpt lat="44.4073" lon="1.05557">
        <ele>206</ele>
        <time>2012-04-01T07:29:34Z</time>
      </trkpt>
      <trkpt lat="44.4073" lon="1.0556">
        <ele>207</ele>
        <time>2012-04-01T07:29:35Z</time>
      </trkpt>
      <trkpt lat="44.4073" lon="1.05562">
        <ele>207</ele>
        <time>2012-04-01T07:29:36Z</time>
      </trkpt>
      <trkpt lat="44.4073" lon="1.05565">
        <ele>207</ele>
        <time>2012-04-01T07:29:37Z</time>
      </trkpt>
      <trkpt lat="44.4073" lon="1.05568">
        <ele>208</ele>
        <time>2012-04-01T07:29:38Z</time>
      </trkpt>
      <trkpt lat="44.40731" lon="1.0557">
        <ele>209</ele>
        <time>2012-04-01T07:29:39Z</time>
      </trkpt>
      <trkpt lat="44.40731" lon="1.05572">
        <ele>209</ele>
        <time>2012-04-01T07:29:40Z</time>
      </trkpt>
      <trkpt lat="44.40731" lon="1.05575">
        <ele>210</ele>
        <time>2012-04-01T07:29:41Z</time>
      </trkpt>
      <trkpt lat="44.40731" lon="1.05577">
        <ele>210</ele>
        <time>2012-04-01T07:29:42Z</time>
      </trkpt>
      <trkpt lat="44.40731" lon="1.05579">
        <ele>211</ele>
        <time>2012-04-01T07:29:43Z</time>
      </trkpt>
      <trkpt lat="44.40732" lon="1.05581">
        <ele>211</ele>
        <time>2012-04-01T07:29:44Z</time>
      </trkpt>
      <trkpt lat="44.40732" lon="1.05583">
        <ele>212</ele>
        <time>2012-04-01T07:29:45Z</time>
      </trkpt>
      <trkpt lat="44.40732" lon="1.05585">
        <ele>212</ele>
        <time>2012-04-01T07:29:46Z</time>
      </trkpt>
      <trkpt lat="44.40731" lon="1.05587">
        <ele>213</ele>
        <time>2012-04-01T07:29:47Z</time>
      </trkpt>
      <trkpt lat="44.40731" lon="1.05589">
        <ele>213</ele>
        <time>2012-04-01T07:29:48Z</time>
      </trkpt>
      <trkpt lat="44.40732" lon="1.05591">
        <ele>213</ele>
        <time>2012-04-01T07:29:49Z</time>
      </trkpt>
      <trkpt lat="44.40732" lon="1.05593">
        <ele>214</ele>
        <time>2012-04-01T07:29:50Z</time>
      </trkpt>
      <trkpt lat="44.40732" lon="1.05595">
        <ele>214</ele>
        <time>2012-04-01T07:29:51Z</time>
      </trkpt>
      <trkpt lat="44.40732" lon="1.05597">
        <ele>215</ele>
        <time>2012-04-01T07:29:52Z</time>
      </trkpt>
      <trkpt lat="44.40733" lon="1.05599">
        <ele>215</ele>
        <time>2012-04-01T07:29:53Z</time>
      </trkpt>
      <trkpt lat="44.40733" lon="1.05601">
        <ele>215</ele>
        <time>2012-04-01T07:29:54Z</time>
      </trkpt>
      <trkpt lat="44.40733" lon="1.05603">
        <ele>216</ele>
        <time>2012-04-01T07:29:55Z</time>
      </trkpt>
      <trkpt lat="44.40733" lon="1.05605">
        <ele>216</ele>
        <time>2012-04-01T07:29:56Z</time>
      </trkpt>
      <trkpt lat="44.40733" lon="1.05607">
        <ele>216</ele>
        <time>2012-04-01T07:29:57Z</time>
      </trkpt>
      <trkpt lat="44.40733" lon="1.05609">
        <ele>216</ele>
        <time>2012-04-01T07:29:58Z</time>
      </trkpt>
      <trkpt lat="44.40733" lon="1.05611">
        <ele>216</ele>
        <time>2012-04-01T07:29:59Z</time>
      </trkpt>
      <trkpt lat="44.40734" lon="1.05613">
        <ele>217</ele>
        <time>2012-04-01T07:30:00Z</time>
      </trkpt>
      <trkpt lat="44.40734" lon="1.05615">
        <ele>217</ele>
        <time>2012-04-01T07:30:01Z</time>
      </trkpt>
      <trkpt lat="44.40734" lon="1.05617">
        <ele>217</ele>
        <time>2012-04-01T07:30:02Z</time>
      </trkpt>
      <trkpt lat="44.40734" lon="1.0562">
        <ele>217</ele>
        <time>2012-04-01T07:30:03Z</time>
      </trkpt>
      <trkpt lat="44.40734" lon="1.05622">
        <ele>217</ele>
        <time>2012-04-01T07:30:04Z</time>
      </trkpt>
      <trkpt lat="44.40734" lon="1.05624">
        <ele>217</ele>
        <time>2012-04-01T07:30:05Z</time>
      </trkpt>
      <trkpt lat="44.40734" lon="1.05626">
        <ele>217</ele>
        <time>2012-04-01T07:30:06Z</time>
      </trkpt>
      <trkpt lat="44.40734" lon="1.05629">
        <ele>217</ele>
        <time>2012-04-01T07:30:07Z</time>
      </trkpt>
      <trkpt lat="44.40734" lon="1.05631">
        <ele>217</ele>
        <time>2012-04-01T07:30:08Z</time>
      </trkpt>
      <trkpt lat="44.40734" lon="1.05633">
        <ele>217</ele>
        <time>2012-04-01T07:30:09Z</time>
      </trkpt>
      <trkpt lat="44.40735" lon="1.05635">
        <ele>217</ele>
        <time>2012-04-01T07:30:10Z</time>
      </trkpt>
      <trkpt lat="44.40735" lon="1.05638">
        <ele>218</ele>
        <time>2012-04-01T07:30:11Z</time>
      </trkpt>
      <trkpt lat="44.40735" lon="1.0564">
        <ele>218</ele>
        <time>2012-04-01T07:30:12Z</time>
      </trkpt>
      <trkpt lat="44.40734" lon="1.05642">
        <ele>218</ele>
        <time>2012-04-01T07:30:13Z</time>
      </trkpt>
      <trkpt lat="44.40734" lon="1.05645">
        <ele>218</ele>
        <time>2012-04-01T07:30:14Z</time>
      </trkpt>
      <trkpt lat="44.40734" lon="1.05647">
        <ele>218</ele>
        <time>2012-04-01T07:30:15Z</time>
      </trkpt>
      <trkpt lat="44.40734" lon="1.05649">
        <ele>218</ele>
        <time>2012-04-01T07:30:16Z</time>
      </trkpt>
      <trkpt lat="44.40734" lon="1.05652">
        <ele>218</ele>
        <time>2012-04-01T07:30:17Z</time>
      </trkpt>
      <trkpt lat="44.40734" lon="1.05654">
        <ele>218</ele>
        <time>2012-04-01T07:30:18Z</time>
      </trkpt>
      <trkpt lat="44.40735" lon="1.05657">
        <ele>218</ele>
        <time>2012-04-01T07:30:19Z</time>
      </trkpt>
      <trkpt lat="44.40735" lon="1.05659">
        <ele>219</ele>
        <time>2012-04-01T07:30:20Z</time>
      </trkpt>
      <trkpt lat="44.40735" lon="1.05662">
        <ele>219</ele>
        <time>2012-04-01T07:30:21Z</time>
      </trkpt>
      <trkpt lat="44.40736" lon="1.05665">
        <ele>219</ele>
        <time>2012-04-01T07:30:22Z</time>
      </trkpt>
      <trkpt lat="44.40736" lon="1.05667">
        <ele>219</ele>
        <time>2012-04-01T07:30:23Z</time>
      </trkpt>
      <trkpt lat="44.40737" lon="1.05669">
        <ele>219</ele>
        <time>2012-04-01T07:30:24Z</time>
      </trkpt>
      <trkpt lat="44.40738" lon="1.05671">
        <ele>219</ele>
        <time>2012-04-01T07:30:25Z</time>
      </trkpt>
      <trkpt lat="44.40739" lon="1.05673">
        <ele>220</ele>
        <time>2012-04-01T07:30:26Z</time>
      </trkpt>
      <trkpt lat="44.40741" lon="1.05673">
        <ele>220</ele>
        <time>2012-04-01T07:30:27Z</time>
      </trkpt>
      <trkpt lat="44.40743" lon="1.05673">
        <ele>221</ele>
        <time>2012-04-01T07:30:28Z</time>
      </trkpt>
      <trkpt lat="44.40745" lon="1.05673">
        <ele>221</ele>
        <time>2012-04-01T07:30:29Z</time>
      </trkpt>
      <trkpt lat="44.40748" lon="1.05673">
        <ele>221</ele>
        <time>2012-04-01T07:30:30Z</time>
      </trkpt>
      <trkpt lat="44.40751" lon="1.05672">
        <ele>222</ele>
        <time>2012-04-01T07:30:31Z</time>
      </trkpt>
      <trkpt lat="44.40753" lon="1.05672">
        <ele>222</ele>
        <time>2012-04-01T07:30:32Z</time>
      </trkpt>
      <trkpt lat="44.40756" lon="1.05672">
        <ele>222</ele>
        <time>2012-04-01T07:30:33Z</time>
      </trkpt>
      <trkpt lat="44.40758" lon="1.05672">
        <ele>222</ele>
        <time>2012-04-01T07:30:34Z</time>
      </trkpt>
      <trkpt lat="44.40761" lon="1.05672">
        <ele>222</ele>
        <time>2012-04-01T07:30:35Z</time>
      </trkpt>
      <trkpt lat="44.40764" lon="1.05672">
        <ele>222</ele>
        <time>2012-04-01T07:30:36Z</time>
      </trkpt>
      <trkpt lat="44.40767" lon="1.05672">
        <ele>222</ele>
        <time>2012-04-01T07:30:37Z</time>
      </trkpt>
      <trkpt lat="44.4077" lon="1.05672">
        <ele>222</ele>
        <time>2012-04-01T07:30:38Z</time>
      </trkpt>
      <trkpt lat="44.40773" lon="1.05672">
        <ele>222</ele>
        <time>2012-04-01T07:30:39Z</time>
      </trkpt>
      <trkpt lat="44.40776" lon="1.05672">
        <ele>222</ele>
        <time>2012-04-01T07:30:40Z</time>
      </trkpt>
      <trkpt lat="44.4078" lon="1.05672">
        <ele>222</ele>
        <time>2012-04-01T07:30:41Z</time>
      </trkpt>
      <trkpt lat="44.40783" lon="1.05672">
        <ele>222</ele>
        <time>2012-04-01T07:30:42Z</time>
      </trkpt>
      <trkpt lat="44.40787" lon="1.05672">
        <ele>222</ele>
        <time>2012-04-01T07:30:43Z</time>
      </trkpt>
      <trkpt lat="44.40791" lon="1.05672">
        <ele>222</ele>
        <time>2012-04-01T07:30:44Z</time>
      </trkpt>
      <trkpt lat="44.40794" lon="1.05672">
        <ele>222</ele>
        <time>2012-04-01T07:30:45Z</time>
      </trkpt>
      <trkpt lat="44.40798" lon="1.05672">
        <ele>222</ele>
        <time>2012-04-01T07:30:46Z</time>
      </trkpt>
      <trkpt lat="44.40801" lon="1.05671">
        <ele>222</ele>
        <time>2012-04-01T07:30:47Z</time>
      </trkpt>
      <trkpt lat="44.40805" lon="1.0567">
        <ele>222</ele>
        <time>2012-04-01T07:30:48Z</time>
      </trkpt>
      <trkpt lat="44.40808" lon="1.0567">
        <ele>222</ele>
        <time>2012-04-01T07:30:49Z</time>
      </trkpt>
      <trkpt lat="44.40812" lon="1.05669">
        <ele>222</ele>
        <time>2012-04-01T07:30:50Z</time>
      </trkpt>
      <trkpt lat="44.40815" lon="1.05669">
        <ele>222</ele>
        <time>2012-04-01T07:30:51Z</time>
      </trkpt>
      <trkpt lat="44.40818" lon="1.05668">
        <ele>222</ele>
        <time>2012-04-01T07:30:52Z</time>
      </trkpt>
      <trkpt lat="44.40821" lon="1.05668">
        <ele>222</ele>
        <time>2012-04-01T07:30:53Z</time>
      </trkpt>
      <trkpt lat="44.40824" lon="1.05667">
        <ele>222</ele>
        <time>2012-04-01T07:30:54Z</time>
      </trkpt>
      <trkpt lat="44.40827" lon="1.05666">
        <ele>222</ele>
        <time>2012-04-01T07:30:55Z</time>
      </trkpt>
      <trkpt lat="44.4083" lon="1.05665">
        <ele>222</ele>
        <time>2012-04-01T07:30:56Z</time>
      </trkpt>
      <trkpt lat="44.40834" lon="1.05664">
        <ele>222</ele>
        <time>2012-04-01T07:30:57Z</time>
      </trkpt>
      <trkpt lat="44.40837" lon="1.05663">
        <ele>222</ele>
        <time>2012-04-01T07:30:58Z</time>
      </trkpt>
      <trkpt lat="44.4084" lon="1.05663">
        <ele>222</ele>
        <time>2012-04-01T07:30:59Z</time>
      </trkpt>
      <trkpt lat="44.40843" lon="1.05663">
        <ele>222</ele>
        <time>2012-04-01T07:31:00Z</time>
      </trkpt>
      <trkpt lat="44.40846" lon="1.05662">
        <ele>222</ele>
        <time>2012-04-01T07:31:01Z</time>
      </trkpt>
      <trkpt lat="44.40849" lon="1.05662">
        <ele>222</ele>
        <time>2012-04-01T07:31:02Z</time>
      </trkpt>
      <trkpt lat="44.40852" lon="1.05662">
        <ele>222</ele>
        <time>2012-04-01T07:31:03Z</time>
      </trkpt>
      <trkpt lat="44.40856" lon="1.05661">
        <ele>222</ele>
        <time>2012-04-01T07:31:04Z</time>
      </trkpt>
      <trkpt lat="44.40859" lon="1.0566">
        <ele>222</ele>
        <time>2012-04-01T07:31:05Z</time>
      </trkpt>
      <trkpt lat="44.40863" lon="1.0566">
        <ele>222</ele>
        <time>2012-04-01T07:31:06Z</time>
      </trkpt>
      <trkpt lat="44.40866" lon="1.05659">
        <ele>222</ele>
        <time>2012-04-01T07:31:07Z</time>
      </trkpt>
      <trkpt lat="44.4087" lon="1.05659">
        <ele>222</ele>
        <time>2012-04-01T07:31:08Z</time>
      </trkpt>
      <trkpt lat="44.40873" lon="1.05659">
        <ele>222</ele>
        <time>2012-04-01T07:31:09Z</time>
      </trkpt>
      <trkpt lat="44.40877" lon="1.05658">
        <ele>222</ele>
        <time>2012-04-01T07:31:10Z</time>
      </trkpt>
      <trkpt lat="44.4088" lon="1.05656">
        <ele>222</ele>
        <time>2012-04-01T07:31:11Z</time>
      </trkpt>
      <trkpt lat="44.40882" lon="1.05654">
        <ele>222</ele>
        <time>2012-04-01T07:31:12Z</time>
      </trkpt>
      <trkpt lat="44.40884" lon="1.0565">
        <ele>221</ele>
        <time>2012-04-01T07:31:13Z</time>
      </trkpt>
      <trkpt lat="44.40886" lon="1.05646">
        <ele>221</ele>
        <time>2012-04-01T07:31:14Z</time>
      </trkpt>
      <trkpt lat="44.40886" lon="1.0564">
        <ele>221</ele>
        <time>2012-04-01T07:31:15Z</time>
      </trkpt>
      <trkpt lat="44.40886" lon="1.05635">
        <ele>221</ele>
        <time>2012-04-01T07:31:16Z</time>
      </trkpt>
      <trkpt lat="44.40886" lon="1.0563">
        <ele>220</ele>
        <time>2012-04-01T07:31:17Z</time>
      </trkpt>
      <trkpt lat="44.40887" lon="1.05625">
        <ele>220</ele>
        <time>2012-04-01T07:31:18Z</time>
      </trkpt>
      <trkpt lat="44.40889" lon="1.05621">
        <ele>220</ele>
        <time>2012-04-01T07:31:19Z</time>
      </trkpt>
      <trkpt lat="44.40892" lon="1.05617">
        <ele>219</ele>
        <time>2012-04-01T07:31:20Z</time>
      </trkpt>
      <trkpt lat="44.40897" lon="1.05615">
        <ele>219</ele>
        <time>2012-04-01T07:31:21Z</time>
      </trkpt>
      <trkpt lat="44.40902" lon="1.05612">
        <ele>218</ele>
        <time>2012-04-01T07:31:22Z</time>
      </trkpt>
      <trkpt lat="44.40908" lon="1.05611">
        <ele>218</ele>
        <time>2012-04-01T07:31:23Z</time>
      </trkpt>
      <trkpt lat="44.40915" lon="1.05611">
        <ele>217</ele>
        <time>2012-04-01T07:31:24Z</time>
      </trkpt>
      <trkpt lat="44.40922" lon="1.05613">
        <ele>216</ele>
        <time>2012-04-01T07:31:25Z</time>
      </trkpt>
      <trkpt lat="44.40929" lon="1.05613">
        <ele>215</ele>
        <time>2012-04-01T07:31:26Z</time>
      </trkpt>
      <trkpt lat="44.40936" lon="1.05613">
        <ele>215</ele>
        <time>2012-04-01T07:31:27Z</time>
      </trkpt>
      <trkpt lat="44.40944" lon="1.05611">
        <ele>214</ele>
        <time>2012-04-01T07:31:28Z</time>
      </trkpt>
      <trkpt lat="44.4095" lon="1.05607">
        <ele>213</ele>
        <time>2012-04-01T07:31:29Z</time>
      </trkpt>
      <trkpt lat="44.40957" lon="1.05602">
        <ele>212</ele>
        <time>2012-04-01T07:31:30Z</time>
      </trkpt>
      <trkpt lat="44.40964" lon="1.05595">
        <ele>211</ele>
        <time>2012-04-01T07:31:31Z</time>
      </trkpt>
      <trkpt lat="44.40971" lon="1.05588">
        <ele>210</ele>
        <time>2012-04-01T07:31:32Z</time>
      </trkpt>
      <trkpt lat="44.4098" lon="1.05583">
        <ele>210</ele>
        <time>2012-04-01T07:31:33Z</time>
      </trkpt>
      <trkpt lat="44.40988" lon="1.05578">
        <ele>209</ele>
        <time>2012-04-01T07:31:34Z</time>
      </trkpt>
      <trkpt lat="44.40997" lon="1.05573">
        <ele>208</ele>
        <time>2012-04-01T07:31:35Z</time>
      </trkpt>
      <trkpt lat="44.41004" lon="1.05568">
        <ele>208</ele>
        <time>2012-04-01T07:31:36Z</time>
      </trkpt>
      <trkpt lat="44.41011" lon="1.05562">
        <ele>207</ele>
        <time>2012-04-01T07:31:37Z</time>
      </trkpt>
      <trkpt lat="44.41019" lon="1.05555">
        <ele>207</ele>
        <time>2012-04-01T07:31:38Z</time>
      </trkpt>
      <trkpt lat="44.41026" lon="1.05548">
        <ele>207</ele>
        <time>2012-04-01T07:31:39Z</time>
      </trkpt>
      <trkpt lat="44.41033" lon="1.05542">
        <ele>207</ele>
        <time>2012-04-01T07:31:40Z</time>
      </trkpt>
      <trkpt lat="44.4104" lon="1.05536">
        <ele>207</ele>
        <time>2012-04-01T07:31:41Z</time>
      </trkpt>
      <trkpt lat="44.41048" lon="1.05531">
        <ele>206</ele>
        <time>2012-04-01T07:31:42Z</time>
      </trkpt>
      <trkpt lat="44.41057" lon="1.05526">
        <ele>206</ele>
        <time>2012-04-01T07:31:43Z</time>
      </trkpt>
      <trkpt lat="44.41065" lon="1.05521">
        <ele>206</ele>
        <time>2012-04-01T07:31:44Z</time>
      </trkpt>
      <trkpt lat="44.41073" lon="1.05517">
        <ele>206</ele>
        <time>2012-04-01T07:31:45Z</time>
      </trkpt>
      <trkpt lat="44.41081" lon="1.05512">
        <ele>206</ele>
        <time>2012-04-01T07:31:46Z</time>
      </trkpt>
      <trkpt lat="44.41089" lon="1.05508">
        <ele>205</ele>
        <time>2012-04-01T07:31:47Z</time>
      </trkpt>
      <trkpt lat="44.41096" lon="1.05504">
        <ele>205</ele>
        <time>2012-04-01T07:31:48Z</time>
      </trkpt>
      <trkpt lat="44.41104" lon="1.055">
        <ele>205</ele>
        <time>2012-04-01T07:31:49Z</time>
      </trkpt>
      <trkpt lat="44.41111" lon="1.05496">
        <ele>205</ele>
        <time>2012-04-01T07:31:50Z</time>
      </trkpt>
      <trkpt lat="44.41119" lon="1.05493">
        <ele>205</ele>
        <time>2012-04-01T07:31:51Z</time>
      </trkpt>
      <trkpt lat="44.41127" lon="1.0549">
        <ele>205</ele>
        <time>2012-04-01T07:31:52Z</time>
      </trkpt>
      <trkpt lat="44.41134" lon="1.05488">
        <ele>205</ele>
        <time>2012-04-01T07:31:53Z</time>
      </trkpt>
      <trkpt lat="44.41141" lon="1.05486">
        <ele>205</ele>
        <time>2012-04-01T07:31:54Z</time>
      </trkpt>
      <trkpt lat="44.41148" lon="1.05484">
        <ele>205</ele>
        <time>2012-04-01T07:31:55Z</time>
      </trkpt>
      <trkpt lat="44.41156" lon="1.05482">
        <ele>205</ele>
        <time>2012-04-01T07:31:56Z</time>
      </trkpt>
      <trkpt lat="44.41163" lon="1.05481">
        <ele>205</ele>
        <time>2012-04-01T07:31:57Z</time>
      </trkpt>
      <trkpt lat="44.41171" lon="1.0548">
        <ele>205</ele>
        <time>2012-04-01T07:31:58Z</time>
      </trkpt>
      <trkpt lat="44.41178" lon="1.05478">
        <ele>205</ele>
        <time>2012-04-01T07:31:59Z</time>
      </trkpt>
      <trkpt lat="44.41185" lon="1.05476">
        <ele>205</ele>
        <time>2012-04-01T07:32:00Z</time>
      </trkpt>
      <trkpt lat="44.41193" lon="1.05475">
        <ele>205</ele>
        <time>2012-04-01T07:32:01Z</time>
      </trkpt>
      <trkpt lat="44.412" lon="1.05473">
        <ele>205</ele>
        <time>2012-04-01T07:32:02Z</time>
      </trkpt>
      <trkpt lat="44.41206" lon="1.05471">
        <ele>205</ele>
        <time>2012-04-01T07:32:03Z</time>
      </trkpt>
      <trkpt lat="44.41213" lon="1.0547">
        <ele>205</ele>
        <time>2012-04-01T07:32:04Z</time>
      </trkpt>
      <trkpt lat="44.41218" lon="1.05468">
        <ele>205</ele>
        <time>2012-04-01T07:32:05Z</time>
      </trkpt>
      <trkpt lat="44.41222" lon="1.05467">
        <ele>205</ele>
        <time>2012-04-01T07:32:06Z</time>
      </trkpt>
      <trkpt lat="44.41225" lon="1.05466">
        <ele>205</ele>
        <time>2012-04-01T07:32:07Z</time>
      </trkpt>
      <trkpt lat="44.41228" lon="1.05463">
        <ele>205</ele>
        <time>2012-04-01T07:32:08Z</time>
      </trkpt>
      <trkpt lat="44.41229" lon="1.05459">
        <ele>205</ele>
        <time>2012-04-01T07:32:09Z</time>
      </trkpt>
      <trkpt lat="44.41229" lon="1.05455">
        <ele>205</ele>
        <time>2012-04-01T07:32:10Z</time>
      </trkpt>
      <trkpt lat="44.41228" lon="1.05451">
        <ele>205</ele>
        <time>2012-04-01T07:32:11Z</time>
      </trkpt>
      <trkpt lat="44.41227" lon="1.05446">
        <ele>205</ele>
        <time>2012-04-01T07:32:12Z</time>
      </trkpt>
      <trkpt lat="44.41225" lon="1.05442">
        <ele>205</ele>
        <time>2012-04-01T07:32:13Z</time>
      </trkpt>
      <trkpt lat="44.41224" lon="1.05438">
        <ele>205</ele>
        <time>2012-04-01T07:32:14Z</time>
      </trkpt>
      <trkpt lat="44.41222" lon="1.05434">
        <ele>205</ele>
        <time>2012-04-01T07:32:15Z</time>
      </trkpt>
      <trkpt lat="44.41219" lon="1.0543">
        <ele>205</ele>
        <time>2012-04-01T07:32:16Z</time>
      </trkpt>
      <trkpt lat="44.41217" lon="1.05426">
        <ele>205</ele>
        <time>2012-04-01T07:32:17Z</time>
      </trkpt>
      <trkpt lat="44.41214" lon="1.05423">
        <ele>205</ele>
        <time>2012-04-01T07:32:18Z</time>
      </trkpt>
      <trkpt lat="44.41211" lon="1.05419">
        <ele>205</ele>
        <time>2012-04-01T07:32:19Z</time>
      </trkpt>
      <trkpt lat="44.41207" lon="1.05417">
        <ele>205</ele>
        <time>2012-04-01T07:32:20Z</time>
      </trkpt>
      <trkpt lat="44.41204" lon="1.05414">
        <ele>205</ele>
        <time>2012-04-01T07:32:21Z</time>
      </trkpt>
      <trkpt lat="44.412" lon="1.05411">
        <ele>205</ele>
        <time>2012-04-01T07:32:22Z</time>
      </trkpt>
      <trkpt lat="44.41196" lon="1.05408">
        <ele>205</ele>
        <time>2012-04-01T07:32:23Z</time>
      </trkpt>
      <trkpt lat="44.41193" lon="1.05406">
        <ele>205</ele>
        <time>2012-04-01T07:32:24Z</time>
      </trkpt>
      <trkpt lat="44.41189" lon="1.05403">
        <ele>205</ele>
        <time>2012-04-01T07:32:25Z</time>
      </trkpt>
      <trkpt lat="44.41185" lon="1.05401">
        <ele>205</ele>
        <time>2012-04-01T07:32:26Z</time>
      </trkpt>
      <trkpt lat="44.41182" lon="1.05399">
        <ele>206</ele>
        <time>2012-04-01T07:32:27Z</time>
      </trkpt>
      <trkpt lat="44.41178" lon="1.05397">
        <ele>206</ele>
        <time>2012-04-01T07:32:28Z</time>
      </trkpt>
      <trkpt lat="44.41174" lon="1.05395">
        <ele>206</ele>
        <time>2012-04-01T07:32:29Z</time>
      </trkpt>
      <trkpt lat="44.41171" lon="1.05393">
        <ele>206</ele>
        <time>2012-04-01T07:32:30Z</time>
      </trkpt>
      <trkpt lat="44.41167" lon="1.05391">
        <ele>207</ele>
        <time>2012-04-01T07:32:31Z</time>
      </trkpt>
      <trkpt lat="44.41164" lon="1.05388">
        <ele>207</ele>
        <time>2012-04-01T07:32:32Z</time>
      </trkpt>
      <trkpt lat="44.4116" lon="1.05386">
        <ele>207</ele>
        <time>2012-04-01T07:32:33Z</time>
      </trkpt>
      <trkpt lat="44.41157" lon="1.05385">
        <ele>207</ele>
        <time>2012-04-01T07:32:34Z</time>
      </trkpt>
      <trkpt lat="44.41153" lon="1.05382">
        <ele>208</ele>
        <time>2012-04-01T07:32:35Z</time>
      </trkpt>
      <trkpt lat="44.4115" lon="1.0538">
        <ele>208</ele>
        <time>2012-04-01T07:32:36Z</time>
      </trkpt>
      <trkpt lat="44.41146" lon="1.05378">
        <ele>208</ele>
        <time>2012-04-01T07:32:37Z</time>
      </trkpt>
      <trkpt lat="44.41143" lon="1.05376">
        <ele>208</ele>
        <time>2012-04-01T07:32:38Z</time>
      </trkpt>
      <trkpt lat="44.41138" lon="1.05374">
        <ele>209</ele>
        <time>2012-04-01T07:32:39Z</time>
      </trkpt>
      <trkpt lat="44.41135" lon="1.05372">
        <ele>209</ele>
        <time>2012-04-01T07:32:40Z</time>
      </trkpt>
      <trkpt lat="44.41131" lon="1.05369">
        <ele>209</ele>
        <time>2012-04-01T07:32:41Z</time>
      </trkpt>
      <trkpt lat="44.41127" lon="1.05367">
        <ele>209</ele>
        <time>2012-04-01T07:32:42Z</time>
      </trkpt>
      <trkpt lat="44.41124" lon="1.05364">
        <ele>209</ele>
        <time>2012-04-01T07:32:43Z</time>
      </trkpt>
      <trkpt lat="44.41119" lon="1.05362">
        <ele>209</ele>
        <time>2012-04-01T07:32:44Z</time>
      </trkpt>
      <trkpt lat="44.41115" lon="1.05359">
        <ele>209</ele>
        <time>2012-04-01T07:32:45Z</time>
      </trkpt>
      <trkpt lat="44.41111" lon="1.05357">
        <ele>209</ele>
        <time>2012-04-01T07:32:46Z</time>
      </trkpt>
      <trkpt lat="44.41106" lon="1.05353">
        <ele>209</ele>
        <time>2012-04-01T07:32:47Z</time>
      </trkpt>
      <trkpt lat="44.41102" lon="1.0535">
        <ele>209</ele>
        <time>2012-04-01T07:32:48Z</time>
      </trkpt>
      <trkpt lat="44.41098" lon="1.05345">
        <ele>209</ele>
        <time>2012-04-01T07:32:49Z</time>
      </trkpt>
      <trkpt lat="44.41096" lon="1.05339">
        <ele>208</ele>
        <time>2012-04-01T07:32:50Z</time>
      </trkpt>
      <trkpt lat="44.41094" lon="1.05332">
        <ele>208</ele>
        <time>2012-04-01T07:32:51Z</time>
      </trkpt>
      <trkpt lat="44.41094" lon="1.05325">
        <ele>208</ele>
        <time>2012-04-01T07:32:52Z</time>
      </trkpt>
      <trkpt lat="44.41093" lon="1.05317">
        <ele>207</ele>
        <time>2012-04-01T07:32:53Z</time>
      </trkpt>
      <trkpt lat="44.41093" lon="1.05309">
        <ele>207</ele>
        <time>2012-04-01T07:32:54Z</time>
      </trkpt>
      <trkpt lat="44.41093" lon="1.05301">
        <ele>207</ele>
        <time>2012-04-01T07:32:55Z</time>
      </trkpt>
      <trkpt lat="44.41093" lon="1.05294">
        <ele>207</ele>
        <time>2012-04-01T07:32:56Z</time>
      </trkpt>
      <trkpt lat="44.41093" lon="1.05287">
        <ele>207</ele>
        <time>2012-04-01T07:32:57Z</time>
      </trkpt>
      <trkpt lat="44.41093" lon="1.0528">
        <ele>207</ele>
        <time>2012-04-01T07:32:58Z</time>
      </trkpt>
      <trkpt lat="44.41093" lon="1.05274">
        <ele>207</ele>
        <time>2012-04-01T07:32:59Z</time>
      </trkpt>
      <trkpt lat="44.41092" lon="1.05268">
        <ele>207</ele>
        <time>2012-04-01T07:33:00Z</time>
      </trkpt>
      <trkpt lat="44.41092" lon="1.05261">
        <ele>207</ele>
        <time>2012-04-01T07:33:01Z</time>
      </trkpt>
      <trkpt lat="44.41091" lon="1.05254">
        <ele>207</ele>
        <time>2012-04-01T07:33:02Z</time>
      </trkpt>
      <trkpt lat="44.41091" lon="1.05247">
        <ele>207</ele>
        <time>2012-04-01T07:33:03Z</time>
      </trkpt>
      <trkpt lat="44.41091" lon="1.0524">
        <ele>207</ele>
        <time>2012-04-01T07:33:04Z</time>
      </trkpt>
      <trkpt lat="44.4109" lon="1.05233">
        <ele>207</ele>
        <time>2012-04-01T07:33:05Z</time>
      </trkpt>
      <trkpt lat="44.4109" lon="1.05226">
        <ele>207</ele>
        <time>2012-04-01T07:33:06Z</time>
      </trkpt>
      <trkpt lat="44.41089" lon="1.05219">
        <ele>207</ele>
        <time>2012-04-01T07:33:07Z</time>
      </trkpt>
      <trkpt lat="44.41087" lon="1.05212">
        <ele>207</ele>
        <time>2012-04-01T07:33:08Z</time>
      </trkpt>
      <trkpt lat="44.41085" lon="1.05206">
        <ele>207</ele>
        <time>2012-04-01T07:33:09Z</time>
      </trkpt>
      <trkpt lat="44.41084" lon="1.05199">
        <ele>207</ele>
        <time>2012-04-01T07:33:10Z</time>
      </trkpt>
      <trkpt lat="44.41082" lon="1.05193">
        <ele>207</ele>
        <time>2012-04-01T07:33:11Z</time>
      </trkpt>
      <trkpt lat="44.41079" lon="1.05187">
        <ele>207</ele>
        <time>2012-04-01T07:33:12Z</time>
      </trkpt>
      <trkpt lat="44.41077" lon="1.05181">
        <ele>207</ele>
        <time>2012-04-01T07:33:13Z</time>
      </trkpt>
      <trkpt lat="44.41075" lon="1.05175">
        <ele>207</ele>
        <time>2012-04-01T07:33:14Z</time>
      </trkpt>
      <trkpt lat="44.41073" lon="1.0517">
        <ele>207</ele>
        <time>2012-04-01T07:33:15Z</time>
      </trkpt>
      <trkpt lat="44.41071" lon="1.05164">
        <ele>207</ele>
        <time>2012-04-01T07:33:16Z</time>
      </trkpt>
      <trkpt lat="44.41069" lon="1.05158">
        <ele>207</ele>
        <time>2012-04-01T07:33:17Z</time>
      </trkpt>
      <trkpt lat="44.41068" lon="1.05152">
        <ele>207</ele>
        <time>2012-04-01T07:33:18Z</time>
      </trkpt>
      <trkpt lat="44.41069" lon="1.05147">
        <ele>207</ele>
        <time>2012-04-01T07:33:19Z</time>
      </trkpt>
      <trkpt lat="44.41071" lon="1.0514">
        <ele>207</ele>
        <time>2012-04-01T07:33:20Z</time>
      </trkpt>
      <trkpt lat="44.41074" lon="1.05135">
        <ele>207</ele>
        <time>2012-04-01T07:33:21Z</time>
      </trkpt>
      <trkpt lat="44.41076" lon="1.0513">
        <ele>207</ele>
        <time>2012-04-01T07:33:22Z</time>
      </trkpt>
      <trkpt lat="44.41078" lon="1.05125">
        <ele>207</ele>
        <time>2012-04-01T07:33:23Z</time>
      </trkpt>
      <trkpt lat="44.41079" lon="1.05122">
        <ele>207</ele>
        <time>2012-04-01T07:33:24Z</time>
      </trkpt>
      <trkpt lat="44.41081" lon="1.05118">
        <ele>208</ele>
        <time>2012-04-01T07:33:25Z</time>
      </trkpt>
      <trkpt lat="44.41082" lon="1.05113">
        <ele>208</ele>
        <time>2012-04-01T07:33:26Z</time>
      </trkpt>
      <trkpt lat="44.41084" lon="1.05108">
        <ele>208</ele>
        <time>2012-04-01T07:33:27Z</time>
      </trkpt>
      <trkpt lat="44.41086" lon="1.05102">
        <ele>208</ele>
        <time>2012-04-01T07:33:28Z</time>
      </trkpt>
      <trkpt lat="44.41088" lon="1.05095">
        <ele>208</ele>
        <time>2012-04-01T07:33:29Z</time>
      </trkpt>
      <trkpt lat="44.4109" lon="1.05088">
        <ele>208</ele>
        <time>2012-04-01T07:33:30Z</time>
      </trkpt>
      <trkpt lat="44.41093" lon="1.05081">
        <ele>208</ele>
        <time>2012-04-01T07:33:31Z</time>
      </trkpt>
      <trkpt lat="44.41095" lon="1.05073">
        <ele>208</ele>
        <time>2012-04-01T07:33:32Z</time>
      </trkpt>
      <trkpt lat="44.41098" lon="1.05066">
        <ele>208</ele>
        <time>2012-04-01T07:33:33Z</time>
      </trkpt>
      <trkpt lat="44.41101" lon="1.05059">
        <ele>208</ele>
        <time>2012-04-01T07:33:34Z</time>
      </trkpt>
      <trkpt lat="44.41103" lon="1.05052">
        <ele>208</ele>
        <time>2012-04-01T07:33:35Z</time>
      </trkpt>
      <trkpt lat="44.41106" lon="1.05044">
        <ele>208</ele>
        <time>2012-04-01T07:33:36Z</time>
      </trkpt>
      <trkpt lat="44.4111" lon="1.05038">
        <ele>208</ele>
        <time>2012-04-01T07:33:37Z</time>
      </trkpt>
      <trkpt lat="44.41114" lon="1.05031">
        <ele>208</ele>
        <time>2012-04-01T07:33:38Z</time>
      </trkpt>
      <trkpt lat="44.41118" lon="1.05025">
        <ele>208</ele>
        <time>2012-04-01T07:33:39Z</time>
      </trkpt>
      <trkpt lat="44.41122" lon="1.0502">
        <ele>208</ele>
        <time>2012-04-01T07:33:40Z</time>
      </trkpt>
      <trkpt lat="44.41126" lon="1.05014">
        <ele>208</ele>
        <time>2012-04-01T07:33:41Z</time>
      </trkpt>
      <trkpt lat="44.4113" lon="1.05008">
        <ele>208</ele>
        <time>2012-04-01T07:33:42Z</time>
      </trkpt>
      <trkpt lat="44.41135" lon="1.05003">
        <ele>208</ele>
        <time>2012-04-01T07:33:43Z</time>
      </trkpt>
      <trkpt lat="44.4114" lon="1.04997">
        <ele>208</ele>
        <time>2012-04-01T07:33:44Z</time>
      </trkpt>
      <trkpt lat="44.41145" lon="1.04992">
        <ele>207</ele>
        <time>2012-04-01T07:33:45Z</time>
      </trkpt>
      <trkpt lat="44.41149" lon="1.04987">
        <ele>207</ele>
        <time>2012-04-01T07:33:46Z</time>
      </trkpt>
      <trkpt lat="44.41154" lon="1.04981">
        <ele>207</ele>
        <time>2012-04-01T07:33:47Z</time>
      </trkpt>
      <trkpt lat="44.41159" lon="1.04976">
        <ele>207</ele>
        <time>2012-04-01T07:33:48Z</time>
      </trkpt>
      <trkpt lat="44.41164" lon="1.04969">
        <ele>207</ele>
        <time>2012-04-01T07:33:49Z</time>
      </trkpt>
      <trkpt lat="44.41169" lon="1.04962">
        <ele>207</ele>
        <time>2012-04-01T07:33:50Z</time>
      </trkpt>
      <trkpt lat="44.41174" lon="1.04955">
        <ele>207</ele>
        <time>2012-04-01T07:33:51Z</time>
      </trkpt>
      <trkpt lat="44.4118" lon="1.04947">
        <ele>207</ele>
        <time>2012-04-01T07:33:52Z</time>
      </trkpt>
      <trkpt lat="44.41185" lon="1.04939">
        <ele>207</ele>
        <time>2012-04-01T07:33:53Z</time>
      </trkpt>
      <trkpt lat="44.41191" lon="1.04931">
        <ele>207</ele>
        <time>2012-04-01T07:33:54Z</time>
      </trkpt>
      <trkpt lat="44.41197" lon="1.04923">
        <ele>207</ele>
        <time>2012-04-01T07:33:55Z</time>
      </trkpt>
      <trkpt lat="44.41203" lon="1.04915">
        <ele>206</ele>
        <time>2012-04-01T07:33:56Z</time>
      </trkpt>
      <trkpt lat="44.41209" lon="1.04907">
        <ele>206</ele>
        <time>2012-04-01T07:33:57Z</time>
      </trkpt>
      <trkpt lat="44.41215" lon="1.04899">
        <ele>206</ele>
        <time>2012-04-01T07:33:58Z</time>
      </trkpt>
      <trkpt lat="44.4122" lon="1.04892">
        <ele>205</ele>
        <time>2012-04-01T07:33:59Z</time>
      </trkpt>
      <trkpt lat="44.41226" lon="1.04884">
        <ele>205</ele>
        <time>2012-04-01T07:34:00Z</time>
      </trkpt>
      <trkpt lat="44.41231" lon="1.04876">
        <ele>204</ele>
        <time>2012-04-01T07:34:01Z</time>
      </trkpt>
      <trkpt lat="44.41236" lon="1.04868">
        <ele>204</ele>
        <time>2012-04-01T07:34:02Z</time>
      </trkpt>
      <trkpt lat="44.41241" lon="1.04861">
        <ele>203</ele>
        <time>2012-04-01T07:34:03Z</time>
      </trkpt>
      <trkpt lat="44.41246" lon="1.04853">
        <ele>202</ele>
        <time>2012-04-01T07:34:04Z</time>
      </trkpt>
      <trkpt lat="44.41251" lon="1.04846">
        <ele>202</ele>
        <time>2012-04-01T07:34:05Z</time>
      </trkpt>
      <trkpt lat="44.41256" lon="1.04839">
        <ele>202</ele>
        <time>2012-04-01T07:34:06Z</time>
      </trkpt>
      <trkpt lat="44.4126" lon="1.04833">
        <ele>201</ele>
        <time>2012-04-01T07:34:07Z</time>
      </trkpt>
      <trkpt lat="44.41265" lon="1.04828">
        <ele>201</ele>
        <time>2012-04-01T07:34:08Z</time>
      </trkpt>
      <trkpt lat="44.4127" lon="1.04823">
        <ele>201</ele>
        <time>2012-04-01T07:34:09Z</time>
      </trkpt>
      <trkpt lat="44.41275" lon="1.04819">
        <ele>201</ele>
        <time>2012-04-01T07:34:10Z</time>
      </trkpt>
      <trkpt lat="44.4128" lon="1.04814">
        <ele>201</ele>
        <time>2012-04-01T07:34:11Z</time>
      </trkpt>
      <trkpt lat="44.41285" lon="1.04811">
        <ele>201</ele>
        <time>2012-04-01T07:34:12Z</time>
      </trkpt>
      <trkpt lat="44.4129" lon="1.04808">
        <ele>200</ele>
        <time>2012-04-01T07:34:13Z</time>
      </trkpt>
      <trkpt lat="44.41295" lon="1.04806">
        <ele>200</ele>
        <time>2012-04-01T07:34:14Z</time>
      </trkpt>
      <trkpt lat="44.41301" lon="1.04802">
        <ele>199</ele>
        <time>2012-04-01T07:34:15Z</time>
      </trkpt>
      <trkpt lat="44.41307" lon="1.04798">
        <ele>198</ele>
        <time>2012-04-01T07:34:16Z</time>
      </trkpt>
      <trkpt lat="44.41312" lon="1.04795">
        <ele>198</ele>
        <time>2012-04-01T07:34:17Z</time>
      </trkpt>
      <trkpt lat="44.41319" lon="1.04792">
        <ele>197</ele>
        <time>2012-04-01T07:34:18Z</time>
      </trkpt>
      <trkpt lat="44.41326" lon="1.0479">
        <ele>196</ele>
        <time>2012-04-01T07:34:19Z</time>
      </trkpt>
      <trkpt lat="44.41333" lon="1.04787">
        <ele>195</ele>
        <time>2012-04-01T07:34:20Z</time>
      </trkpt>
      <trkpt lat="44.41341" lon="1.04785">
        <ele>194</ele>
        <time>2012-04-01T07:34:21Z</time>
      </trkpt>
      <trkpt lat="44.4135" lon="1.04783">
        <ele>193</ele>
        <time>2012-04-01T07:34:22Z</time>
      </trkpt>
      <trkpt lat="44.41358" lon="1.04782">
        <ele>192</ele>
        <time>2012-04-01T07:34:23Z</time>
      </trkpt>
      <trkpt lat="44.41366" lon="1.04781">
        <ele>191</ele>
        <time>2012-04-01T07:34:24Z</time>
      </trkpt>
      <trkpt lat="44.41375" lon="1.0478">
        <ele>190</ele>
        <time>2012-04-01T07:34:25Z</time>
      </trkpt>
      <trkpt lat="44.41384" lon="1.04779">
        <ele>189</ele>
        <time>2012-04-01T07:34:26Z</time>
      </trkpt>
      <trkpt lat="44.41393" lon="1.04779">
        <ele>188</ele>
        <time>2012-04-01T07:34:27Z</time>
      </trkpt>
      <trkpt lat="44.41402" lon="1.04778">
        <ele>187</ele>
        <time>2012-04-01T07:34:28Z</time>
      </trkpt>
      <trkpt lat="44.4141" lon="1.04777">
        <ele>186</ele>
        <time>2012-04-01T07:34:29Z</time>
      </trkpt>
      <trkpt lat="44.41419" lon="1.04775">
        <ele>185</ele>
        <time>2012-04-01T07:34:30Z</time>
      </trkpt>
      <trkpt lat="44.41426" lon="1.04773">
        <ele>184</ele>
        <time>2012-04-01T07:34:31Z</time>
      </trkpt>
      <trkpt lat="44.41434" lon="1.0477">
        <ele>183</ele>
        <time>2012-04-01T07:34:32Z</time>
      </trkpt>
      <trkpt lat="44.41442" lon="1.04769">
        <ele>183</ele>
        <time>2012-04-01T07:34:33Z</time>
      </trkpt>
      <trkpt lat="44.41449" lon="1.04767">
        <ele>182</ele>
        <time>2012-04-01T07:34:34Z</time>
      </trkpt>
      <trkpt lat="44.41454" lon="1.04766">
        <ele>182</ele>
        <time>2012-04-01T07:34:35Z</time>
      </trkpt>
      <trkpt lat="44.41459" lon="1.04764">
        <ele>181</ele>
        <time>2012-04-01T07:34:36Z</time>
      </trkpt>
      <trkpt lat="44.41462" lon="1.04762">
        <ele>180</ele>
        <time>2012-04-01T07:34:37Z</time>
      </trkpt>
      <trkpt lat="44.41465" lon="1.0476">
        <ele>179</ele>
        <time>2012-04-01T07:34:38Z</time>
      </trkpt>
      <trkpt lat="44.41467" lon="1.04756">
        <ele>179</ele>
        <time>2012-04-01T07:34:39Z</time>
      </trkpt>
      <trkpt lat="44.41468" lon="1.04753">
        <ele>178</ele>
        <time>2012-04-01T07:34:40Z</time>
      </trkpt>
      <trkpt lat="44.41468" lon="1.04749">
        <ele>177</ele>
        <time>2012-04-01T07:34:41Z</time>
      </trkpt>
      <trkpt lat="44.41468" lon="1.04745">
        <ele>177</ele>
        <time>2012-04-01T07:34:42Z</time>
      </trkpt>
      <trkpt lat="44.41467" lon="1.04739">
        <ele>176</ele>
        <time>2012-04-01T07:34:43Z</time>
      </trkpt>
      <trkpt lat="44.41464" lon="1.04733">
        <ele>175</ele>
        <time>2012-04-01T07:34:44Z</time>
      </trkpt>
      <trkpt lat="44.4146" lon="1.04726">
        <ele>175</ele>
        <time>2012-04-01T07:34:45Z</time>
      </trkpt>
      <trkpt lat="44.41456" lon="1.04722">
        <ele>174</ele>
        <time>2012-04-01T07:34:46Z</time>
      </trkpt>
      <trkpt lat="44.41452" lon="1.04718">
        <ele>174</ele>
        <time>2012-04-01T07:34:47Z</time>
      </trkpt>
      <trkpt lat="44.41448" lon="1.04717">
        <ele>173</ele>
        <time>2012-04-01T07:34:48Z</time>
      </trkpt>
      <trkpt lat="44.41444" lon="1.04715">
        <ele>173</ele>
        <time>2012-04-01T07:34:49Z</time>
      </trkpt>
      <trkpt lat="44.4144" lon="1.04713">
        <ele>173</ele>
        <time>2012-04-01T07:34:50Z</time>
      </trkpt>
      <trkpt lat="44.41435" lon="1.04713">
        <ele>173</ele>
        <time>2012-04-01T07:34:51Z</time>
      </trkpt>
      <trkpt lat="44.41429" lon="1.04713">
        <ele>173</ele>
        <time>2012-04-01T07:34:52Z</time>
      </trkpt>
      <trkpt lat="44.41426" lon="1.0471">
        <ele>173</ele>
        <time>2012-04-01T07:34:53Z</time>
      </trkpt>
      <trkpt lat="44.41425" lon="1.04709">
        <ele>173</ele>
        <time>2012-04-01T07:34:54Z</time>
      </trkpt>
      <trkpt lat="44.41425" lon="1.04708">
        <ele>173</ele>
        <time>2012-04-01T07:34:55Z</time>
      </trkpt>
      <trkpt lat="44.41426" lon="1.04707">
        <ele>175</ele>
        <time>2012-04-01T07:34:57Z</time>
      </trkpt>
      <trkpt lat="44.41429" lon="1.04705">
        <ele>177</ele>
        <time>2012-04-01T07:34:59Z</time>
      </trkpt>
      <trkpt lat="44.4143" lon="1.04704">
        <ele>178</ele>
        <time>2012-04-01T07:35:00Z</time>
      </trkpt>
      <trkpt lat="44.41432" lon="1.04703">
        <ele>179</ele>
        <time>2012-04-01T07:35:02Z</time>
      </trkpt>
      <trkpt lat="44.41433" lon="1.04702">
        <ele>180</ele>
        <time>2012-04-01T07:35:03Z</time>
      </trkpt>
      <trkpt lat="44.41436" lon="1.047">
        <ele>180</ele>
        <time>2012-04-01T07:35:04Z</time>
      </trkpt>
      <trkpt lat="44.41438" lon="1.04699">
        <ele>181</ele>
        <time>2012-04-01T07:35:05Z</time>
      </trkpt>
      <trkpt lat="44.41439" lon="1.04698">
        <ele>182</ele>
        <time>2012-04-01T07:35:06Z</time>
      </trkpt>
      <trkpt lat="44.41442" lon="1.04696">
        <ele>184</ele>
        <time>2012-04-01T07:35:08Z</time>
      </trkpt>
      <trkpt lat="44.41443" lon="1.04695">
        <ele>185</ele>
        <time>2012-04-01T07:35:09Z</time>
      </trkpt>
      <trkpt lat="44.41444" lon="1.04694">
        <ele>185</ele>
        <time>2012-04-01T07:35:10Z</time>
      </trkpt>
      <trkpt lat="44.41446" lon="1.04694">
        <ele>186</ele>
        <time>2012-04-01T07:35:11Z</time>
      </trkpt>
      <trkpt lat="44.41447" lon="1.04693">
        <ele>186</ele>
        <time>2012-04-01T07:35:12Z</time>
      </trkpt>
      <trkpt lat="44.41448" lon="1.04693">
        <ele>186</ele>
        <time>2012-04-01T07:35:13Z</time>
      </trkpt>
      <trkpt lat="44.41449" lon="1.04693">
        <ele>187</ele>
        <time>2012-04-01T07:35:14Z</time>
      </trkpt>
      <trkpt lat="44.41451" lon="1.04692">
        <ele>187</ele>
        <time>2012-04-01T07:35:15Z</time>
      </trkpt>
      <trkpt lat="44.41452" lon="1.04691">
        <ele>187</ele>
        <time>2012-04-01T07:35:16Z</time>
      </trkpt>
      <trkpt lat="44.41454" lon="1.04691">
        <ele>187</ele>
        <time>2012-04-01T07:35:17Z</time>
      </trkpt>
      <trkpt lat="44.41455" lon="1.0469">
        <ele>187</ele>
        <time>2012-04-01T07:35:18Z</time>
      </trkpt>
      <trkpt lat="44.41457" lon="1.0469">
        <ele>187</ele>
        <time>2012-04-01T07:35:19Z</time>
      </trkpt>
      <trkpt lat="44.41459" lon="1.04689">
        <ele>187</ele>
        <time>2012-04-01T07:35:20Z</time>
      </trkpt>
      <trkpt lat="44.4146" lon="1.04688">
        <ele>187</ele>
        <time>2012-04-01T07:35:21Z</time>
      </trkpt>
      <trkpt lat="44.41462" lon="1.04687">
        <ele>187</ele>
        <time>2012-04-01T07:35:22Z</time>
      </trkpt>
      <trkpt lat="44.41463" lon="1.04686">
        <ele>187</ele>
        <time>2012-04-01T07:35:23Z</time>
      </trkpt>
      <trkpt lat="44.41465" lon="1.04685">
        <ele>187</ele>
        <time>2012-04-01T07:35:24Z</time>
      </trkpt>
      <trkpt lat="44.41466" lon="1.04684">
        <ele>187</ele>
        <time>2012-04-01T07:35:25Z</time>
      </trkpt>
      <trkpt lat="44.41468" lon="1.04683">
        <ele>187</ele>
        <time>2012-04-01T07:35:26Z</time>
      </trkpt>
      <trkpt lat="44.41469" lon="1.04682">
        <ele>187</ele>
        <time>2012-04-01T07:35:27Z</time>
      </trkpt>
      <trkpt lat="44.41471" lon="1.04681">
        <ele>187</ele>
        <time>2012-04-01T07:35:28Z</time>
      </trkpt>
      <trkpt lat="44.41472" lon="1.0468">
        <ele>187</ele>
        <time>2012-04-01T07:35:29Z</time>
      </trkpt>
      <trkpt lat="44.41473" lon="1.04679">
        <ele>187</ele>
        <time>2012-04-01T07:35:30Z</time>
      </trkpt>
      <trkpt lat="44.41475" lon="1.04678">
        <ele>187</ele>
        <time>2012-04-01T07:35:31Z</time>
      </trkpt>
      <trkpt lat="44.41476" lon="1.04676">
        <ele>187</ele>
        <time>2012-04-01T07:35:32Z</time>
      </trkpt>
      <trkpt lat="44.41478" lon="1.04675">
        <ele>187</ele>
        <time>2012-04-01T07:35:33Z</time>
      </trkpt>
      <trkpt lat="44.4148" lon="1.04675">
        <ele>187</ele>
        <time>2012-04-01T07:35:34Z</time>
      </trkpt>
      <trkpt lat="44.41482" lon="1.04674">
        <ele>187</ele>
        <time>2012-04-01T07:35:35Z</time>
      </trkpt>
      <trkpt lat="44.41484" lon="1.04673">
        <ele>187</ele>
        <time>2012-04-01T07:35:36Z</time>
      </trkpt>
      <trkpt lat="44.41485" lon="1.04672">
        <ele>187</ele>
        <time>2012-04-01T07:35:37Z</time>
      </trkpt>
      <trkpt lat="44.41488" lon="1.0467">
        <ele>187</ele>
        <time>2012-04-01T07:35:38Z</time>
      </trkpt>
      <trkpt lat="44.41489" lon="1.04669">
        <ele>187</ele>
        <time>2012-04-01T07:35:39Z</time>
      </trkpt>
      <trkpt lat="44.41492" lon="1.04668">
        <ele>187</ele>
        <time>2012-04-01T07:35:40Z</time>
      </trkpt>
      <trkpt lat="44.41494" lon="1.04666">
        <ele>187</ele>
        <time>2012-04-01T07:35:41Z</time>
      </trkpt>
      <trkpt lat="44.41497" lon="1.04665">
        <ele>187</ele>
        <time>2012-04-01T07:35:42Z</time>
      </trkpt>
      <trkpt lat="44.415" lon="1.04664">
        <ele>187</ele>
        <time>2012-04-01T07:35:43Z</time>
      </trkpt>
      <trkpt lat="44.41503" lon="1.04662">
        <ele>187</ele>
        <time>2012-04-01T07:35:44Z</time>
      </trkpt>
      <trkpt lat="44.41506" lon="1.04661">
        <ele>187</ele>
        <time>2012-04-01T07:35:45Z</time>
      </trkpt>
      <trkpt lat="44.4151" lon="1.0466">
        <ele>187</ele>
        <time>2012-04-01T07:35:46Z</time>
      </trkpt>
      <trkpt lat="44.41513" lon="1.0466">
        <ele>187</ele>
        <time>2012-04-01T07:35:47Z</time>
      </trkpt>
      <trkpt lat="44.41517" lon="1.04659">
        <ele>187</ele>
        <time>2012-04-01T07:35:48Z</time>
      </trkpt>
      <trkpt lat="44.4152" lon="1.04659">
        <ele>187</ele>
        <time>2012-04-01T07:35:49Z</time>
      </trkpt>
      <trkpt lat="44.41524" lon="1.04658">
        <ele>187</ele>
        <time>2012-04-01T07:35:50Z</time>
      </trkpt>
      <trkpt lat="44.41528" lon="1.04657">
        <ele>187</ele>
        <time>2012-04-01T07:35:51Z</time>
      </trkpt>
      <trkpt lat="44.41532" lon="1.04657">
        <ele>187</ele>
        <time>2012-04-01T07:35:52Z</time>
      </trkpt>
      <trkpt lat="44.41536" lon="1.04657">
        <ele>187</ele>
        <time>2012-04-01T07:35:53Z</time>
      </trkpt>
      <trkpt lat="44.4154" lon="1.04656">
        <ele>188</ele>
        <time>2012-04-01T07:35:54Z</time>
      </trkpt>
      <trkpt lat="44.41544" lon="1.04656">
        <ele>188</ele>
        <time>2012-04-01T07:35:55Z</time>
      </trkpt>
      <trkpt lat="44.41548" lon="1.04656">
        <ele>188</ele>
        <time>2012-04-01T07:35:56Z</time>
      </trkpt>
      <trkpt lat="44.41552" lon="1.04655">
        <ele>188</ele>
        <time>2012-04-01T07:35:57Z</time>
      </trkpt>
      <trkpt lat="44.41555" lon="1.04655">
        <ele>188</ele>
        <time>2012-04-01T07:35:58Z</time>
      </trkpt>
      <trkpt lat="44.41559" lon="1.04654">
        <ele>189</ele>
        <time>2012-04-01T07:35:59Z</time>
      </trkpt>
      <trkpt lat="44.41562" lon="1.04654">
        <ele>189</ele>
        <time>2012-04-01T07:36:00Z</time>
      </trkpt>
      <trkpt lat="44.41566" lon="1.04652">
        <ele>189</ele>
        <time>2012-04-01T07:36:01Z</time>
      </trkpt>
      <trkpt lat="44.41569" lon="1.04651">
        <ele>189</ele>
        <time>2012-04-01T07:36:02Z</time>
      </trkpt>
      <trkpt lat="44.41572" lon="1.04651">
        <ele>189</ele>
        <time>2012-04-01T07:36:03Z</time>
      </trkpt>
      <trkpt lat="44.41575" lon="1.0465">
        <ele>189</ele>
        <time>2012-04-01T07:36:04Z</time>
      </trkpt>
      <trkpt lat="44.41578" lon="1.04649">
        <ele>190</ele>
        <time>2012-04-01T07:36:05Z</time>
      </trkpt>
      <trkpt lat="44.41581" lon="1.04649">
        <ele>190</ele>
        <time>2012-04-01T07:36:06Z</time>
      </trkpt>
      <trkpt lat="44.41584" lon="1.04648">
        <ele>190</ele>
        <time>2012-04-01T07:36:07Z</time>
      </trkpt>
      <trkpt lat="44.41587" lon="1.04647">
        <ele>190</ele>
        <time>2012-04-01T07:36:08Z</time>
      </trkpt>
      <trkpt lat="44.41589" lon="1.04646">
        <ele>190</ele>
        <time>2012-04-01T07:36:09Z</time>
      </trkpt>
      <trkpt lat="44.41592" lon="1.04645">
        <ele>190</ele>
        <time>2012-04-01T07:36:10Z</time>
      </trkpt>
      <trkpt lat="44.41594" lon="1.04644">
        <ele>190</ele>
        <time>2012-04-01T07:36:11Z</time>
      </trkpt>
      <trkpt lat="44.41597" lon="1.04643">
        <ele>190</ele>
        <time>2012-04-01T07:36:12Z</time>
      </trkpt>
      <trkpt lat="44.41599" lon="1.04643">
        <ele>190</ele>
        <time>2012-04-01T07:36:13Z</time>
      </trkpt>
      <trkpt lat="44.41601" lon="1.04642">
        <ele>190</ele>
        <time>2012-04-01T07:36:14Z</time>
      </trkpt>
      <trkpt lat="44.41603" lon="1.04642">
        <ele>190</ele>
        <time>2012-04-01T07:36:15Z</time>
      </trkpt>
      <trkpt lat="44.41606" lon="1.04641">
        <ele>190</ele>
        <time>2012-04-01T07:36:16Z</time>
      </trkpt>
      <trkpt lat="44.41608" lon="1.04641">
        <ele>190</ele>
        <time>2012-04-01T07:36:17Z</time>
      </trkpt>
      <trkpt lat="44.41611" lon="1.04641">
        <ele>190</ele>
        <time>2012-04-01T07:36:18Z</time>
      </trkpt>
      <trkpt lat="44.41613" lon="1.0464">
        <ele>190</ele>
        <time>2012-04-01T07:36:19Z</time>
      </trkpt>
      <trkpt lat="44.41614" lon="1.0464">
        <ele>191</ele>
        <time>2012-04-01T07:36:20Z</time>
      </trkpt>
      <trkpt lat="44.41616" lon="1.04639">
        <ele>191</ele>
        <time>2012-04-01T07:36:21Z</time>
      </trkpt>
      <trkpt lat="44.41618" lon="1.04639">
        <ele>191</ele>
        <time>2012-04-01T07:36:22Z</time>
      </trkpt>
      <trkpt lat="44.41619" lon="1.04638">
        <ele>191</ele>
        <time>2012-04-01T07:36:23Z</time>
      </trkpt>
      <trkpt lat="44.41622" lon="1.04637">
        <ele>191</ele>
        <time>2012-04-01T07:36:24Z</time>
      </trkpt>
      <trkpt lat="44.41624" lon="1.04637">
        <ele>191</ele>
        <time>2012-04-01T07:36:25Z</time>
      </trkpt>
      <trkpt lat="44.41626" lon="1.04637">
        <ele>191</ele>
        <time>2012-04-01T07:36:26Z</time>
      </trkpt>
      <trkpt lat="44.41628" lon="1.04636">
        <ele>191</ele>
        <time>2012-04-01T07:36:27Z</time>
      </trkpt>
      <trkpt lat="44.4163" lon="1.04636">
        <ele>191</ele>
        <time>2012-04-01T07:36:28Z</time>
      </trkpt>
      <trkpt lat="44.41632" lon="1.04635">
        <ele>191</ele>
        <time>2012-04-01T07:36:29Z</time>
      </trkpt>
      <trkpt lat="44.41634" lon="1.04635">
        <ele>191</ele>
        <time>2012-04-01T07:36:30Z</time>
      </trkpt>
      <trkpt lat="44.41635" lon="1.04634">
        <ele>191</ele>
        <time>2012-04-01T07:36:31Z</time>
      </trkpt>
      <trkpt lat="44.41637" lon="1.04634">
        <ele>192</ele>
        <time>2012-04-01T07:36:32Z</time>
      </trkpt>
      <trkpt lat="44.41639" lon="1.04634">
        <ele>192</ele>
        <time>2012-04-01T07:36:33Z</time>
      </trkpt>
      <trkpt lat="44.41641" lon="1.04633">
        <ele>192</ele>
        <time>2012-04-01T07:36:34Z</time>
      </trkpt>
      <trkpt lat="44.41643" lon="1.04633">
        <ele>192</ele>
        <time>2012-04-01T07:36:35Z</time>
      </trkpt>
      <trkpt lat="44.41645" lon="1.04632">
        <ele>193</ele>
        <time>2012-04-01T07:36:36Z</time>
      </trkpt>
      <trkpt lat="44.41647" lon="1.04632">
        <ele>193</ele>
        <time>2012-04-01T07:36:37Z</time>
      </trkpt>
      <trkpt lat="44.41648" lon="1.04632">
        <ele>193</ele>
        <time>2012-04-01T07:36:38Z</time>
      </trkpt>
      <trkpt lat="44.4165" lon="1.04632">
        <ele>194</ele>
        <time>2012-04-01T07:36:39Z</time>
      </trkpt>
      <trkpt lat="44.41652" lon="1.04632">
        <ele>194</ele>
        <time>2012-04-01T07:36:40Z</time>
      </trkpt>
      <trkpt lat="44.41653" lon="1.04632">
        <ele>194</ele>
        <time>2012-04-01T07:36:41Z</time>
      </trkpt>
      <trkpt lat="44.41655" lon="1.04631">
        <ele>195</ele>
        <time>2012-04-01T07:36:42Z</time>
      </trkpt>
      <trkpt lat="44.41658" lon="1.0463">
        <ele>196</ele>
        <time>2012-04-01T07:36:43Z</time>
      </trkpt>
      <trkpt lat="44.4166" lon="1.04629">
        <ele>197</ele>
        <time>2012-04-01T07:36:44Z</time>
      </trkpt>
      <trkpt lat="44.41662" lon="1.04629">
        <ele>198</ele>
        <time>2012-04-01T07:36:45Z</time>
      </trkpt>
      <trkpt lat="44.41664" lon="1.04628">
        <ele>199</ele>
        <time>2012-04-01T07:36:46Z</time>
      </trkpt>
      <trkpt lat="44.41666" lon="1.04628">
        <ele>199</ele>
        <time>2012-04-01T07:36:47Z</time>
      </trkpt>
      <trkpt lat="44.41668" lon="1.04628">
        <ele>200</ele>
        <time>2012-04-01T07:36:48Z</time>
      </trkpt>
      <trkpt lat="44.4167" lon="1.04628">
        <ele>201</ele>
        <time>2012-04-01T07:36:49Z</time>
      </trkpt>
      <trkpt lat="44.41671" lon="1.04628">
        <ele>202</ele>
        <time>2012-04-01T07:36:50Z</time>
      </trkpt>
      <trkpt lat="44.41673" lon="1.04628">
        <ele>202</ele>
        <time>2012-04-01T07:36:51Z</time>
      </trkpt>
      <trkpt lat="44.41675" lon="1.04628">
        <ele>203</ele>
        <time>2012-04-01T07:36:52Z</time>
      </trkpt>
      <trkpt lat="44.41676" lon="1.04628">
        <ele>203</ele>
        <time>2012-04-01T07:36:53Z</time>
      </trkpt>
      <trkpt lat="44.41678" lon="1.04628">
        <ele>203</ele>
        <time>2012-04-01T07:36:54Z</time>
      </trkpt>
      <trkpt lat="44.41679" lon="1.04628">
        <ele>204</ele>
        <time>2012-04-01T07:36:55Z</time>
      </trkpt>
      <trkpt lat="44.41681" lon="1.04627">
        <ele>204</ele>
        <time>2012-04-01T07:36:56Z</time>
      </trkpt>
      <trkpt lat="44.41682" lon="1.04627">
        <ele>204</ele>
        <time>2012-04-01T07:36:57Z</time>
      </trkpt>
      <trkpt lat="44.41684" lon="1.04627">
        <ele>205</ele>
        <time>2012-04-01T07:36:58Z</time>
      </trkpt>
      <trkpt lat="44.41685" lon="1.04627">
        <ele>205</ele>
        <time>2012-04-01T07:36:59Z</time>
      </trkpt>
      <trkpt lat="44.41687" lon="1.04627">
        <ele>205</ele>
        <time>2012-04-01T07:37:00Z</time>
      </trkpt>
      <trkpt lat="44.41689" lon="1.04626">
        <ele>206</ele>
        <time>2012-04-01T07:37:01Z</time>
      </trkpt>
      <trkpt lat="44.4169" lon="1.04627">
        <ele>206</ele>
        <time>2012-04-01T07:37:02Z</time>
      </trkpt>
      <trkpt lat="44.41692" lon="1.04626">
        <ele>206</ele>
        <time>2012-04-01T07:37:03Z</time>
      </trkpt>
      <trkpt lat="44.41694" lon="1.04626">
        <ele>206</ele>
        <time>2012-04-01T07:37:04Z</time>
      </trkpt>
      <trkpt lat="44.41695" lon="1.04626">
        <ele>207</ele>
        <time>2012-04-01T07:37:05Z</time>
      </trkpt>
      <trkpt lat="44.41697" lon="1.04625">
        <ele>207</ele>
        <time>2012-04-01T07:37:06Z</time>
      </trkpt>
      <trkpt lat="44.417" lon="1.04624">
        <ele>207</ele>
        <time>2012-04-01T07:37:07Z</time>
      </trkpt>
      <trkpt lat="44.41702" lon="1.04623">
        <ele>207</ele>
        <time>2012-04-01T07:37:08Z</time>
      </trkpt>
      <trkpt lat="44.41703" lon="1.04623">
        <ele>208</ele>
        <time>2012-04-01T07:37:09Z</time>
      </trkpt>
      <trkpt lat="44.41705" lon="1.04623">
        <ele>208</ele>
        <time>2012-04-01T07:37:10Z</time>
      </trkpt>
      <trkpt lat="44.41706" lon="1.04623">
        <ele>208</ele>
        <time>2012-04-01T07:37:11Z</time>
      </trkpt>
      <trkpt lat="44.41708" lon="1.04623">
        <ele>208</ele>
        <time>2012-04-01T07:37:12Z</time>
      </trkpt>
      <trkpt lat="44.41709" lon="1.04622">
        <ele>209</ele>
        <time>2012-04-01T07:37:13Z</time>
      </trkpt>
      <trkpt lat="44.4171" lon="1.04622">
        <ele>209</ele>
        <time>2012-04-01T07:37:14Z</time>
      </trkpt>
      <trkpt lat="44.41712" lon="1.04622">
        <ele>209</ele>
        <time>2012-04-01T07:37:15Z</time>
      </trkpt>
      <trkpt lat="44.41713" lon="1.04622">
        <ele>210</ele>
        <time>2012-04-01T07:37:16Z</time>
      </trkpt>
      <trkpt lat="44.41715" lon="1.04621">
        <ele>210</ele>
        <time>2012-04-01T07:37:17Z</time>
      </trkpt>
      <trkpt lat="44.41717" lon="1.04621">
        <ele>210</ele>
        <time>2012-04-01T07:37:18Z</time>
      </trkpt>
      <trkpt lat="44.41718" lon="1.04621">
        <ele>210</ele>
        <time>2012-04-01T07:37:19Z</time>
      </trkpt>
      <trkpt lat="44.4172" lon="1.04621">
        <ele>211</ele>
        <time>2012-04-01T07:37:20Z</time>
      </trkpt>
      <trkpt lat="44.41722" lon="1.0462">
        <ele>211</ele>
        <time>2012-04-01T07:37:21Z</time>
      </trkpt>
      <trkpt lat="44.41724" lon="1.0462">
        <ele>211</ele>
        <time>2012-04-01T07:37:22Z</time>
      </trkpt>
      <trkpt lat="44.41726" lon="1.0462">
        <ele>211</ele>
        <time>2012-04-01T07:37:23Z</time>
      </trkpt>
      <trkpt lat="44.41727" lon="1.04619">
        <ele>211</ele>
        <time>2012-04-01T07:37:24Z</time>
      </trkpt>
      <trkpt lat="44.41729" lon="1.04619">
        <ele>211</ele>
        <time>2012-04-01T07:37:25Z</time>
      </trkpt>
      <trkpt lat="44.41731" lon="1.04619">
        <ele>211</ele>
        <time>2012-04-01T07:37:26Z</time>
      </trkpt>
      <trkpt lat="44.41733" lon="1.04619">
        <ele>212</ele>
        <time>2012-04-01T07:37:27Z</time>
      </trkpt>
      <trkpt lat="44.41735" lon="1.04619">
        <ele>212</ele>
        <time>2012-04-01T07:37:28Z</time>
      </trkpt>
      <trkpt lat="44.41737" lon="1.04618">
        <ele>212</ele>
        <time>2012-04-01T07:37:29Z</time>
      </trkpt>
      <trkpt lat="44.41739" lon="1.04618">
        <ele>213</ele>
        <time>2012-04-01T07:37:30Z</time>
      </trkpt>
      <trkpt lat="44.41742" lon="1.04617">
        <ele>213</ele>
        <time>2012-04-01T07:37:31Z</time>
      </trkpt>
      <trkpt lat="44.41744" lon="1.04617">
        <ele>214</ele>
        <time>2012-04-01T07:37:32Z</time>
      </trkpt>
      <trkpt lat="44.41746" lon="1.04618">
        <ele>215</ele>
        <time>2012-04-01T07:37:33Z</time>
      </trkpt>
      <trkpt lat="44.41748" lon="1.04618">
        <ele>215</ele>
        <time>2012-04-01T07:37:34Z</time>
      </trkpt>
      <trkpt lat="44.4175" lon="1.04618">
        <ele>216</ele>
        <time>2012-04-01T07:37:35Z</time>
      </trkpt>
      <trkpt lat="44.41752" lon="1.04618">
        <ele>216</ele>
        <time>2012-04-01T07:37:36Z</time>
      </trkpt>
      <trkpt lat="44.41754" lon="1.04618">
        <ele>216</ele>
        <time>2012-04-01T07:37:37Z</time>
      </trkpt>
      <trkpt lat="44.41756" lon="1.04617">
        <ele>217</ele>
        <time>2012-04-01T07:37:38Z</time>
      </trkpt>
      <trkpt lat="44.41757" lon="1.04617">
        <ele>217</ele>
        <time>2012-04-01T07:37:39Z</time>
      </trkpt>
      <trkpt lat="44.41759" lon="1.04616">
        <ele>217</ele>
        <time>2012-04-01T07:37:40Z</time>
      </trkpt>
      <trkpt lat="44.41761" lon="1.04616">
        <ele>217</ele>
        <time>2012-04-01T07:37:41Z</time>
      </trkpt>
      <trkpt lat="44.41763" lon="1.04615">
        <ele>217</ele>
        <time>2012-04-01T07:37:42Z</time>
      </trkpt>
      <trkpt lat="44.41764" lon="1.04615">
        <ele>217</ele>
        <time>2012-04-01T07:37:43Z</time>
      </trkpt>
      <trkpt lat="44.41766" lon="1.04614">
        <ele>217</ele>
        <time>2012-04-01T07:37:44Z</time>
      </trkpt>
      <trkpt lat="44.41768" lon="1.04614">
        <ele>218</ele>
        <time>2012-04-01T07:37:45Z</time>
      </trkpt>
      <trkpt lat="44.4177" lon="1.04613">
        <ele>218</ele>
        <time>2012-04-01T07:37:46Z</time>
      </trkpt>
      <trkpt lat="44.41772" lon="1.04613">
        <ele>218</ele>
        <time>2012-04-01T07:37:47Z</time>
      </trkpt>
      <trkpt lat="44.41774" lon="1.04613">
        <ele>218</ele>
        <time>2012-04-01T07:37:48Z</time>
      </trkpt>
      <trkpt lat="44.41776" lon="1.04613">
        <ele>219</ele>
        <time>2012-04-01T07:37:49Z</time>
      </trkpt>
      <trkpt lat="44.41778" lon="1.04613">
        <ele>219</ele>
        <time>2012-04-01T07:37:50Z</time>
      </trkpt>
      <trkpt lat="44.4178" lon="1.04613">
        <ele>219</ele>
        <time>2012-04-01T07:37:51Z</time>
      </trkpt>
      <trkpt lat="44.41782" lon="1.04613">
        <ele>219</ele>
        <time>2012-04-01T07:37:52Z</time>
      </trkpt>
      <trkpt lat="44.41784" lon="1.04613">
        <ele>219</ele>
        <time>2012-04-01T07:37:53Z</time>
      </trkpt>
      <trkpt lat="44.41786" lon="1.04612">
        <ele>219</ele>
        <time>2012-04-01T07:37:54Z</time>
      </trkpt>
      <trkpt lat="44.41788" lon="1.04612">
        <ele>220</ele>
        <time>2012-04-01T07:37:55Z</time>
      </trkpt>
      <trkpt lat="44.41789" lon="1.04612">
        <ele>220</ele>
        <time>2012-04-01T07:37:56Z</time>
      </trkpt>
      <trkpt lat="44.41791" lon="1.04612">
        <ele>220</ele>
        <time>2012-04-01T07:37:57Z</time>
      </trkpt>
      <trkpt lat="44.41793" lon="1.04611">
        <ele>220</ele>
        <time>2012-04-01T07:37:58Z</time>
      </trkpt>
      <trkpt lat="44.41795" lon="1.04611">
        <ele>221</ele>
        <time>2012-04-01T07:37:59Z</time>
      </trkpt>
      <trkpt lat="44.41796" lon="1.04611">
        <ele>221</ele>
        <time>2012-04-01T07:38:00Z</time>
      </trkpt>
      <trkpt lat="44.41798" lon="1.04611">
        <ele>221</ele>
        <time>2012-04-01T07:38:01Z</time>
      </trkpt>
      <trkpt lat="44.418" lon="1.04611">
        <ele>221</ele>
        <time>2012-04-01T07:38:02Z</time>
      </trkpt>
      <trkpt lat="44.41803" lon="1.04611">
        <ele>221</ele>
        <time>2012-04-01T07:38:03Z</time>
      </trkpt>
      <trkpt lat="44.41804" lon="1.04611">
        <ele>221</ele>
        <time>2012-04-01T07:38:04Z</time>
      </trkpt>
      <trkpt lat="44.41806" lon="1.04611">
        <ele>222</ele>
        <time>2012-04-01T07:38:05Z</time>
      </trkpt>
      <trkpt lat="44.41807" lon="1.0461">
        <ele>222</ele>
        <time>2012-04-01T07:38:06Z</time>
      </trkpt>
      <trkpt lat="44.41808" lon="1.0461">
        <ele>222</ele>
        <time>2012-04-01T07:38:07Z</time>
      </trkpt>
      <trkpt lat="44.41809" lon="1.0461">
        <ele>223</ele>
        <time>2012-04-01T07:38:08Z</time>
      </trkpt>
      <trkpt lat="44.41811" lon="1.0461">
        <ele>223</ele>
        <time>2012-04-01T07:38:09Z</time>
      </trkpt>
      <trkpt lat="44.41812" lon="1.0461">
        <ele>223</ele>
        <time>2012-04-01T07:38:10Z</time>
      </trkpt>
      <trkpt lat="44.41814" lon="1.0461">
        <ele>223</ele>
        <time>2012-04-01T07:38:11Z</time>
      </trkpt>
      <trkpt lat="44.41815" lon="1.0461">
        <ele>224</ele>
        <time>2012-04-01T07:38:12Z</time>
      </trkpt>
      <trkpt lat="44.41817" lon="1.04609">
        <ele>224</ele>
        <time>2012-04-01T07:38:13Z</time>
      </trkpt>
      <trkpt lat="44.41819" lon="1.04609">
        <ele>224</ele>
        <time>2012-04-01T07:38:14Z</time>
      </trkpt>
      <trkpt lat="44.4182" lon="1.04608">
        <ele>224</ele>
        <time>2012-04-01T07:38:15Z</time>
      </trkpt>
      <trkpt lat="44.41822" lon="1.0461">
        <ele>224</ele>
        <time>2012-04-01T07:38:22Z</time>
      </trkpt>
      <trkpt lat="44.41823" lon="1.04612">
        <ele>224</ele>
        <time>2012-04-01T07:38:27Z</time>
      </trkpt>
      <trkpt lat="44.41824" lon="1.04613">
        <ele>224</ele>
        <time>2012-04-01T07:38:32Z</time>
      </trkpt>
      <trkpt lat="44.41822" lon="1.04614">
        <ele>226</ele>
        <time>2012-04-01T07:38:40Z</time>
      </trkpt>
      <trkpt lat="44.41821" lon="1.04615">
        <ele>226</ele>
        <time>2012-04-01T07:38:42Z</time>
      </trkpt>
      <trkpt lat="44.41819" lon="1.04616">
        <ele>226</ele>
        <time>2012-04-01T07:38:45Z</time>
      </trkpt>
      <trkpt lat="44.41818" lon="1.04614">
        <ele>226</ele>
        <time>2012-04-01T07:38:48Z</time>
      </trkpt>
      <trkpt lat="44.41818" lon="1.04612">
        <ele>227</ele>
        <time>2012-04-01T07:38:51Z</time>
      </trkpt>
      <trkpt lat="44.41817" lon="1.04612">
        <ele>227</ele>
        <time>2012-04-01T07:38:55Z</time>
      </trkpt>
      <trkpt lat="44.41816" lon="1.0461">
        <ele>227</ele>
        <time>2012-04-01T07:39:03Z</time>
      </trkpt>
      <trkpt lat="44.41817" lon="1.04609">
        <ele>227</ele>
        <time>2012-04-01T07:39:22Z</time>
      </trkpt>
      <trkpt lat="44.41819" lon="1.04608">
        <ele>227</ele>
        <time>2012-04-01T07:39:26Z</time>
      </trkpt>
      <trkpt lat="44.4182" lon="1.04607">
        <ele>227</ele>
        <time>2012-04-01T07:39:37Z</time>
      </trkpt>
      <trkpt lat="44.41821" lon="1.04608">
        <ele>224</ele>
        <time>2012-04-01T07:39:41Z</time>
      </trkpt>
      <trkpt lat="44.41822" lon="1.04608">
        <ele>223</ele>
        <time>2012-04-01T07:39:43Z</time>
      </trkpt>
      <trkpt lat="44.41825" lon="1.04606">
        <ele>222</ele>
        <time>2012-04-01T07:39:45Z</time>
      </trkpt>
      <trkpt lat="44.41827" lon="1.04606">
        <ele>222</ele>
        <time>2012-04-01T07:39:46Z</time>
      </trkpt>
      <trkpt lat="44.41829" lon="1.04606">
        <ele>222</ele>
        <time>2012-04-01T07:39:47Z</time>
      </trkpt>
      <trkpt lat="44.4183" lon="1.04605">
        <ele>222</ele>
        <time>2012-04-01T07:39:48Z</time>
      </trkpt>
      <trkpt lat="44.41832" lon="1.04605">
        <ele>222</ele>
        <time>2012-04-01T07:39:49Z</time>
      </trkpt>
      <trkpt lat="44.41835" lon="1.04604">
        <ele>222</ele>
        <time>2012-04-01T07:39:50Z</time>
      </trkpt>
      <trkpt lat="44.41837" lon="1.04604">
        <ele>222</ele>
        <time>2012-04-01T07:39:51Z</time>
      </trkpt>
      <trkpt lat="44.41839" lon="1.04604">
        <ele>222</ele>
        <time>2012-04-01T07:39:52Z</time>
      </trkpt>
      <trkpt lat="44.41842" lon="1.04604">
        <ele>222</ele>
        <time>2012-04-01T07:39:53Z</time>
      </trkpt>
      <trkpt lat="44.41845" lon="1.04603">
        <ele>222</ele>
        <time>2012-04-01T07:39:54Z</time>
      </trkpt>
      <trkpt lat="44.41848" lon="1.04603">
        <ele>222</ele>
        <time>2012-04-01T07:39:55Z</time>
      </trkpt>
      <trkpt lat="44.41851" lon="1.04603">
        <ele>222</ele>
        <time>2012-04-01T07:39:56Z</time>
      </trkpt>
      <trkpt lat="44.41855" lon="1.04603">
        <ele>222</ele>
        <time>2012-04-01T07:39:57Z</time>
      </trkpt>
      <trkpt lat="44.41859" lon="1.04602">
        <ele>222</ele>
        <time>2012-04-01T07:39:58Z</time>
      </trkpt>
      <trkpt lat="44.41862" lon="1.04602">
        <ele>222</ele>
        <time>2012-04-01T07:39:59Z</time>
      </trkpt>
      <trkpt lat="44.41866" lon="1.04601">
        <ele>222</ele>
        <time>2012-04-01T07:40:00Z</time>
      </trkpt>
      <trkpt lat="44.41869" lon="1.04601">
        <ele>222</ele>
        <time>2012-04-01T07:40:01Z</time>
      </trkpt>
      <trkpt lat="44.41873" lon="1.04601">
        <ele>222</ele>
        <time>2012-04-01T07:40:02Z</time>
      </trkpt>
      <trkpt lat="44.41877" lon="1.04601">
        <ele>222</ele>
        <time>2012-04-01T07:40:03Z</time>
      </trkpt>
      <trkpt lat="44.4188" lon="1.04601">
        <ele>222</ele>
        <time>2012-04-01T07:40:04Z</time>
      </trkpt>
      <trkpt lat="44.41883" lon="1.04601">
        <ele>222</ele>
        <time>2012-04-01T07:40:05Z</time>
      </trkpt>
      <trkpt lat="44.41887" lon="1.04601">
        <ele>222</ele>
        <time>2012-04-01T07:40:06Z</time>
      </trkpt>
      <trkpt lat="44.4189" lon="1.04601">
        <ele>222</ele>
        <time>2012-04-01T07:40:07Z</time>
      </trkpt>
      <trkpt lat="44.41894" lon="1.04601">
        <ele>222</ele>
        <time>2012-04-01T07:40:08Z</time>
      </trkpt>
      <trkpt lat="44.41898" lon="1.04602">
        <ele>222</ele>
        <time>2012-04-01T07:40:09Z</time>
      </trkpt>
      <trkpt lat="44.41902" lon="1.04602">
        <ele>222</ele>
        <time>2012-04-01T07:40:10Z</time>
      </trkpt>
      <trkpt lat="44.41906" lon="1.04602">
        <ele>222</ele>
        <time>2012-04-01T07:40:11Z</time>
      </trkpt>
      <trkpt lat="44.4191" lon="1.04602">
        <ele>222</ele>
        <time>2012-04-01T07:40:12Z</time>
      </trkpt>
      <trkpt lat="44.41914" lon="1.04602">
        <ele>222</ele>
        <time>2012-04-01T07:40:13Z</time>
      </trkpt>
      <trkpt lat="44.41918" lon="1.04602">
        <ele>222</ele>
        <time>2012-04-01T07:40:14Z</time>
      </trkpt>
      <trkpt lat="44.41923" lon="1.04602">
        <ele>222</ele>
        <time>2012-04-01T07:40:15Z</time>
      </trkpt>
      <trkpt lat="44.41927" lon="1.04602">
        <ele>222</ele>
        <time>2012-04-01T07:40:16Z</time>
      </trkpt>
      <trkpt lat="44.41931" lon="1.04602">
        <ele>222</ele>
        <time>2012-04-01T07:40:17Z</time>
      </trkpt>
      <trkpt lat="44.41935" lon="1.04603">
        <ele>222</ele>
        <time>2012-04-01T07:40:18Z</time>
      </trkpt>
      <trkpt lat="44.4194" lon="1.04603">
        <ele>222</ele>
        <time>2012-04-01T07:40:19Z</time>
      </trkpt>
      <trkpt lat="44.41944" lon="1.04603">
        <ele>222</ele>
        <time>2012-04-01T07:40:20Z</time>
      </trkpt>
      <trkpt lat="44.41949" lon="1.04603">
        <ele>222</ele>
        <time>2012-04-01T07:40:21Z</time>
      </trkpt>
      <trkpt lat="44.41953" lon="1.04604">
        <ele>222</ele>
        <time>2012-04-01T07:40:22Z</time>
      </trkpt>
      <trkpt lat="44.41957" lon="1.04604">
        <ele>222</ele>
        <time>2012-04-01T07:40:23Z</time>
      </trkpt>
      <trkpt lat="44.41962" lon="1.04604">
        <ele>222</ele>
        <time>2012-04-01T07:40:24Z</time>
      </trkpt>
      <trkpt lat="44.41966" lon="1.04604">
        <ele>222</ele>
        <time>2012-04-01T07:40:25Z</time>
      </trkpt>
      <trkpt lat="44.4197" lon="1.04604">
        <ele>222</ele>
        <time>2012-04-01T07:40:26Z</time>
      </trkpt>
      <trkpt lat="44.41975" lon="1.04604">
        <ele>222</ele>
        <time>2012-04-01T07:40:27Z</time>
      </trkpt>
      <trkpt lat="44.4198" lon="1.04605">
        <ele>222</ele>
        <time>2012-04-01T07:40:28Z</time>
      </trkpt>
      <trkpt lat="44.41985" lon="1.04605">
        <ele>222</ele>
        <time>2012-04-01T07:40:29Z</time>
      </trkpt>
      <trkpt lat="44.4199" lon="1.04605">
        <ele>222</ele>
        <time>2012-04-01T07:40:30Z</time>
      </trkpt>
      <trkpt lat="44.41994" lon="1.04606">
        <ele>222</ele>
        <time>2012-04-01T07:40:31Z</time>
      </trkpt>
      <trkpt lat="44.41999" lon="1.04607">
        <ele>222</ele>
        <time>2012-04-01T07:40:32Z</time>
      </trkpt>
      <trkpt lat="44.42004" lon="1.04607">
        <ele>222</ele>
        <time>2012-04-01T07:40:33Z</time>
      </trkpt>
      <trkpt lat="44.42009" lon="1.04609">
        <ele>222</ele>
        <time>2012-04-01T07:40:34Z</time>
      </trkpt>
      <trkpt lat="44.42013" lon="1.0461">
        <ele>222</ele>
        <time>2012-04-01T07:40:35Z</time>
      </trkpt>
      <trkpt lat="44.42019" lon="1.04611">
        <ele>222</ele>
        <time>2012-04-01T07:40:36Z</time>
      </trkpt>
      <trkpt lat="44.42024" lon="1.04612">
        <ele>222</ele>
        <time>2012-04-01T07:40:37Z</time>
      </trkpt>
      <trkpt lat="44.4203" lon="1.04612">
        <ele>222</ele>
        <time>2012-04-01T07:40:38Z</time>
      </trkpt>
      <trkpt lat="44.42035" lon="1.04612">
        <ele>222</ele>
        <time>2012-04-01T07:40:39Z</time>
      </trkpt>
      <trkpt lat="44.42041" lon="1.04613">
        <ele>222</ele>
        <time>2012-04-01T07:40:40Z</time>
      </trkpt>
      <trkpt lat="44.42046" lon="1.04613">
        <ele>222</ele>
        <time>2012-04-01T07:40:41Z</time>
      </trkpt>
      <trkpt lat="44.42052" lon="1.04613">
        <ele>222</ele>
        <time>2012-04-01T07:40:42Z</time>
      </trkpt>
      <trkpt lat="44.42058" lon="1.04612">
        <ele>222</ele>
        <time>2012-04-01T07:40:43Z</time>
      </trkpt>
      <trkpt lat="44.42064" lon="1.04612">
        <ele>222</ele>
        <time>2012-04-01T07:40:44Z</time>
      </trkpt>
      <trkpt lat="44.4207" lon="1.04611">
        <ele>222</ele>
        <time>2012-04-01T07:40:45Z</time>
      </trkpt>
      <trkpt lat="44.42075" lon="1.0461">
        <ele>222</ele>
        <time>2012-04-01T07:40:46Z</time>
      </trkpt>
      <trkpt lat="44.42082" lon="1.04609">
        <ele>222</ele>
        <time>2012-04-01T07:40:47Z</time>
      </trkpt>
      <trkpt lat="44.42088" lon="1.04607">
        <ele>222</ele>
        <time>2012-04-01T07:40:48Z</time>
      </trkpt>
      <trkpt lat="44.42094" lon="1.04606">
        <ele>222</ele>
        <time>2012-04-01T07:40:49Z</time>
      </trkpt>
      <trkpt lat="44.421" lon="1.04604">
        <ele>222</ele>
        <time>2012-04-01T07:40:50Z</time>
      </trkpt>
      <trkpt lat="44.42107" lon="1.04603">
        <ele>222</ele>
        <time>2012-04-01T07:40:51Z</time>
      </trkpt>
      <trkpt lat="44.42113" lon="1.04601">
        <ele>222</ele>
        <time>2012-04-01T07:40:52Z</time>
      </trkpt>
      <trkpt lat="44.42119" lon="1.04599">
        <ele>222</ele>
        <time>2012-04-01T07:40:53Z</time>
      </trkpt>
      <trkpt lat="44.42125" lon="1.04598">
        <ele>222</ele>
        <time>2012-04-01T07:40:54Z</time>
      </trkpt>
      <trkpt lat="44.42131" lon="1.04597">
        <ele>222</ele>
        <time>2012-04-01T07:40:55Z</time>
      </trkpt>
      <trkpt lat="44.42137" lon="1.04597">
        <ele>222</ele>
        <time>2012-04-01T07:40:56Z</time>
      </trkpt>
      <trkpt lat="44.42143" lon="1.04595">
        <ele>222</ele>
        <time>2012-04-01T07:40:57Z</time>
      </trkpt>
      <trkpt lat="44.42149" lon="1.04594">
        <ele>222</ele>
        <time>2012-04-01T07:40:58Z</time>
      </trkpt>
      <trkpt lat="44.42155" lon="1.04592">
        <ele>222</ele>
        <time>2012-04-01T07:40:59Z</time>
      </trkpt>
      <trkpt lat="44.4216" lon="1.04589">
        <ele>222</ele>
        <time>2012-04-01T07:41:00Z</time>
      </trkpt>
      <trkpt lat="44.42166" lon="1.04586">
        <ele>222</ele>
        <time>2012-04-01T07:41:01Z</time>
      </trkpt>
      <trkpt lat="44.42171" lon="1.04582">
        <ele>222</ele>
        <time>2012-04-01T07:41:02Z</time>
      </trkpt>
      <trkpt lat="44.42177" lon="1.04578">
        <ele>222</ele>
        <time>2012-04-01T07:41:03Z</time>
      </trkpt>
      <trkpt lat="44.42183" lon="1.04575">
        <ele>222</ele>
        <time>2012-04-01T07:41:04Z</time>
      </trkpt>
      <trkpt lat="44.42189" lon="1.0457">
        <ele>222</ele>
        <time>2012-04-01T07:41:05Z</time>
      </trkpt>
      <trkpt lat="44.42195" lon="1.04567">
        <ele>222</ele>
        <time>2012-04-01T07:41:06Z</time>
      </trkpt>
      <trkpt lat="44.422" lon="1.04563">
        <ele>222</ele>
        <time>2012-04-01T07:41:07Z</time>
      </trkpt>
      <trkpt lat="44.42206" lon="1.0456">
        <ele>222</ele>
        <time>2012-04-01T07:41:08Z</time>
      </trkpt>
      <trkpt lat="44.42212" lon="1.04558">
        <ele>222</ele>
        <time>2012-04-01T07:41:09Z</time>
      </trkpt>
      <trkpt lat="44.42218" lon="1.04555">
        <ele>222</ele>
        <time>2012-04-01T07:41:10Z</time>
      </trkpt>
      <trkpt lat="44.42223" lon="1.04552">
        <ele>222</ele>
        <time>2012-04-01T07:41:11Z</time>
      </trkpt>
      <trkpt lat="44.42229" lon="1.0455">
        <ele>222</ele>
        <time>2012-04-01T07:41:12Z</time>
      </trkpt>
      <trkpt lat="44.42236" lon="1.04548">
        <ele>222</ele>
        <time>2012-04-01T07:41:13Z</time>
      </trkpt>
      <trkpt lat="44.42242" lon="1.04545">
        <ele>222</ele>
        <time>2012-04-01T07:41:14Z</time>
      </trkpt>
      <trkpt lat="44.42249" lon="1.04543">
        <ele>222</ele>
        <time>2012-04-01T07:41:15Z</time>
      </trkpt>
      <trkpt lat="44.42255" lon="1.04542">
        <ele>222</ele>
        <time>2012-04-01T07:41:16Z</time>
      </trkpt>
      <trkpt lat="44.42262" lon="1.04541">
        <ele>222</ele>
        <time>2012-04-01T07:41:17Z</time>
      </trkpt>
      <trkpt lat="44.42268" lon="1.04541">
        <ele>222</ele>
        <time>2012-04-01T07:41:18Z</time>
      </trkpt>
      <trkpt lat="44.42275" lon="1.0454">
        <ele>222</ele>
        <time>2012-04-01T07:41:19Z</time>
      </trkpt>
      <trkpt lat="44.42282" lon="1.04539">
        <ele>221</ele>
        <time>2012-04-01T07:41:20Z</time>
      </trkpt>
      <trkpt lat="44.42288" lon="1.04539">
        <ele>221</ele>
        <time>2012-04-01T07:41:21Z</time>
      </trkpt>
      <trkpt lat="44.42295" lon="1.04539">
        <ele>221</ele>
        <time>2012-04-01T07:41:22Z</time>
      </trkpt>
      <trkpt lat="44.42301" lon="1.0454">
        <ele>221</ele>
        <time>2012-04-01T07:41:23Z</time>
      </trkpt>
      <trkpt lat="44.42307" lon="1.0454">
        <ele>221</ele>
        <time>2012-04-01T07:41:24Z</time>
      </trkpt>
      <trkpt lat="44.42314" lon="1.04541">
        <ele>221</ele>
        <time>2012-04-01T07:41:25Z</time>
      </trkpt>
      <trkpt lat="44.4232" lon="1.04542">
        <ele>221</ele>
        <time>2012-04-01T07:41:26Z</time>
      </trkpt>
      <trkpt lat="44.42326" lon="1.04543">
        <ele>221</ele>
        <time>2012-04-01T07:41:27Z</time>
      </trkpt>
      <trkpt lat="44.42333" lon="1.04544">
        <ele>221</ele>
        <time>2012-04-01T07:41:28Z</time>
      </trkpt>
      <trkpt lat="44.4234" lon="1.04545">
        <ele>221</ele>
        <time>2012-04-01T07:41:29Z</time>
      </trkpt>
      <trkpt lat="44.42347" lon="1.04545">
        <ele>221</ele>
        <time>2012-04-01T07:41:30Z</time>
      </trkpt>
      <trkpt lat="44.42353" lon="1.04546">
        <ele>220</ele>
        <time>2012-04-01T07:41:31Z</time>
      </trkpt>
      <trkpt lat="44.4236" lon="1.04548">
        <ele>220</ele>
        <time>2012-04-01T07:41:32Z</time>
      </trkpt>
      <trkpt lat="44.42367" lon="1.04549">
        <ele>220</ele>
        <time>2012-04-01T07:41:33Z</time>
      </trkpt>
      <trkpt lat="44.42374" lon="1.04549">
        <ele>220</ele>
        <time>2012-04-01T07:41:34Z</time>
      </trkpt>
      <trkpt lat="44.42381" lon="1.0455">
        <ele>220</ele>
        <time>2012-04-01T07:41:35Z</time>
      </trkpt>
      <trkpt lat="44.42387" lon="1.04551">
        <ele>220</ele>
        <time>2012-04-01T07:41:36Z</time>
      </trkpt>
      <trkpt lat="44.42394" lon="1.04552">
        <ele>220</ele>
        <time>2012-04-01T07:41:37Z</time>
      </trkpt>
      <trkpt lat="44.42401" lon="1.04553">
        <ele>220</ele>
        <time>2012-04-01T07:41:38Z</time>
      </trkpt>
      <trkpt lat="44.42408" lon="1.04554">
        <ele>220</ele>
        <time>2012-04-01T07:41:39Z</time>
      </trkpt>
      <trkpt lat="44.42414" lon="1.04555">
        <ele>220</ele>
        <time>2012-04-01T07:41:40Z</time>
      </trkpt>
      <trkpt lat="44.42421" lon="1.04556">
        <ele>220</ele>
        <time>2012-04-01T07:41:41Z</time>
      </trkpt>
      <trkpt lat="44.42427" lon="1.04557">
        <ele>220</ele>
        <time>2012-04-01T07:41:42Z</time>
      </trkpt>
      <trkpt lat="44.42433" lon="1.04557">
        <ele>220</ele>
        <time>2012-04-01T07:41:43Z</time>
      </trkpt>
      <trkpt lat="44.42439" lon="1.04558">
        <ele>220</ele>
        <time>2012-04-01T07:41:44Z</time>
      </trkpt>
      <trkpt lat="44.42444" lon="1.04558">
        <ele>220</ele>
        <time>2012-04-01T07:41:45Z</time>
      </trkpt>
      <trkpt lat="44.42449" lon="1.04559">
        <ele>220</ele>
        <time>2012-04-01T07:41:46Z</time>
      </trkpt>
      <trkpt lat="44.42454" lon="1.04561">
        <ele>220</ele>
        <time>2012-04-01T07:41:47Z</time>
      </trkpt>
      <trkpt lat="44.42457" lon="1.04565">
        <ele>220</ele>
        <time>2012-04-01T07:41:48Z</time>
      </trkpt>
      <trkpt lat="44.4246" lon="1.04571">
        <ele>220</ele>
        <time>2012-04-01T07:41:49Z</time>
      </trkpt>
      <trkpt lat="44.42461" lon="1.04578">
        <ele>220</ele>
        <time>2012-04-01T07:41:50Z</time>
      </trkpt>
      <trkpt lat="44.42463" lon="1.04584">
        <ele>220</ele>
        <time>2012-04-01T07:41:51Z</time>
      </trkpt>
      <trkpt lat="44.42464" lon="1.04591">
        <ele>220</ele>
        <time>2012-04-01T07:41:52Z</time>
      </trkpt>
      <trkpt lat="44.42466" lon="1.04598">
        <ele>220</ele>
        <time>2012-04-01T07:41:53Z</time>
      </trkpt>
      <trkpt lat="44.42467" lon="1.04605">
        <ele>220</ele>
        <time>2012-04-01T07:41:54Z</time>
      </trkpt>
      <trkpt lat="44.42469" lon="1.04612">
        <ele>220</ele>
        <time>2012-04-01T07:41:55Z</time>
      </trkpt>
      <trkpt lat="44.42469" lon="1.0462">
        <ele>220</ele>
        <time>2012-04-01T07:41:56Z</time>
      </trkpt>
      <trkpt lat="44.42469" lon="1.04627">
        <ele>220</ele>
        <time>2012-04-01T07:41:57Z</time>
      </trkpt>
      <trkpt lat="44.42469" lon="1.04635">
        <ele>220</ele>
        <time>2012-04-01T07:41:58Z</time>
      </trkpt>
      <trkpt lat="44.42469" lon="1.04642">
        <ele>220</ele>
        <time>2012-04-01T07:41:59Z</time>
      </trkpt>
      <trkpt lat="44.42468" lon="1.0465">
        <ele>220</ele>
        <time>2012-04-01T07:42:00Z</time>
      </trkpt>
      <trkpt lat="44.42467" lon="1.04657">
        <ele>220</ele>
        <time>2012-04-01T07:42:01Z</time>
      </trkpt>
      <trkpt lat="44.42465" lon="1.04665">
        <ele>220</ele>
        <time>2012-04-01T07:42:02Z</time>
      </trkpt>
      <trkpt lat="44.42462" lon="1.04673">
        <ele>220</ele>
        <time>2012-04-01T07:42:03Z</time>
      </trkpt>
      <trkpt lat="44.4246" lon="1.04681">
        <ele>220</ele>
        <time>2012-04-01T07:42:04Z</time>
      </trkpt>
      <trkpt lat="44.42457" lon="1.04689">
        <ele>220</ele>
        <time>2012-04-01T07:42:05Z</time>
      </trkpt>
      <trkpt lat="44.42456" lon="1.04697">
        <ele>220</ele>
        <time>2012-04-01T07:42:06Z</time>
      </trkpt>
      <trkpt lat="44.42454" lon="1.04704">
        <ele>220</ele>
        <time>2012-04-01T07:42:07Z</time>
      </trkpt>
      <trkpt lat="44.42453" lon="1.04712">
        <ele>220</ele>
        <time>2012-04-01T07:42:08Z</time>
      </trkpt>
      <trkpt lat="44.42453" lon="1.0472">
        <ele>221</ele>
        <time>2012-04-01T07:42:09Z</time>
      </trkpt>
      <trkpt lat="44.42454" lon="1.04727">
        <ele>221</ele>
        <time>2012-04-01T07:42:10Z</time>
      </trkpt>
      <trkpt lat="44.42455" lon="1.04735">
        <ele>221</ele>
        <time>2012-04-01T07:42:11Z</time>
      </trkpt>
      <trkpt lat="44.42456" lon="1.04742">
        <ele>222</ele>
        <time>2012-04-01T07:42:12Z</time>
      </trkpt>
      <trkpt lat="44.42458" lon="1.04749">
        <ele>222</ele>
        <time>2012-04-01T07:42:13Z</time>
      </trkpt>
      <trkpt lat="44.42459" lon="1.04756">
        <ele>222</ele>
        <time>2012-04-01T07:42:14Z</time>
      </trkpt>
      <trkpt lat="44.42461" lon="1.04762">
        <ele>223</ele>
        <time>2012-04-01T07:42:15Z</time>
      </trkpt>
      <trkpt lat="44.42463" lon="1.04769">
        <ele>224</ele>
        <time>2012-04-01T07:42:16Z</time>
      </trkpt>
      <trkpt lat="44.42465" lon="1.04775">
        <ele>224</ele>
        <time>2012-04-01T07:42:17Z</time>
      </trkpt>
      <trkpt lat="44.42467" lon="1.04781">
        <ele>225</ele>
        <time>2012-04-01T07:42:18Z</time>
      </trkpt>
      <trkpt lat="44.42469" lon="1.04788">
        <ele>225</ele>
        <time>2012-04-01T07:42:19Z</time>
      </trkpt>
      <trkpt lat="44.42471" lon="1.04794">
        <ele>226</ele>
        <time>2012-04-01T07:42:20Z</time>
      </trkpt>
      <trkpt lat="44.42473" lon="1.048">
        <ele>226</ele>
        <time>2012-04-01T07:42:21Z</time>
      </trkpt>
      <trkpt lat="44.42475" lon="1.04807">
        <ele>227</ele>
        <time>2012-04-01T07:42:22Z</time>
      </trkpt>
      <trkpt lat="44.42476" lon="1.04813">
        <ele>227</ele>
        <time>2012-04-01T07:42:23Z</time>
      </trkpt>
      <trkpt lat="44.42478" lon="1.04819">
        <ele>228</ele>
        <time>2012-04-01T07:42:24Z</time>
      </trkpt>
      <trkpt lat="44.4248" lon="1.04824">
        <ele>228</ele>
        <time>2012-04-01T07:42:25Z</time>
      </trkpt>
      <trkpt lat="44.42482" lon="1.0483">
        <ele>228</ele>
        <time>2012-04-01T07:42:26Z</time>
      </trkpt>
      <trkpt lat="44.42484" lon="1.04836">
        <ele>229</ele>
        <time>2012-04-01T07:42:27Z</time>
      </trkpt>
      <trkpt lat="44.42485" lon="1.04842">
        <ele>229</ele>
        <time>2012-04-01T07:42:28Z</time>
      </trkpt>
      <trkpt lat="44.42487" lon="1.04849">
        <ele>229</ele>
        <time>2012-04-01T07:42:29Z</time>
      </trkpt>
      <trkpt lat="44.42489" lon="1.04854">
        <ele>230</ele>
        <time>2012-04-01T07:42:30Z</time>
      </trkpt>
      <trkpt lat="44.4249" lon="1.0486">
        <ele>230</ele>
        <time>2012-04-01T07:42:31Z</time>
      </trkpt>
      <trkpt lat="44.42492" lon="1.04866">
        <ele>230</ele>
        <time>2012-04-01T07:42:32Z</time>
      </trkpt>
      <trkpt lat="44.42494" lon="1.04871">
        <ele>230</ele>
        <time>2012-04-01T07:42:33Z</time>
      </trkpt>
      <trkpt lat="44.42495" lon="1.04877">
        <ele>231</ele>
        <time>2012-04-01T07:42:34Z</time>
      </trkpt>
      <trkpt lat="44.42497" lon="1.04882">
        <ele>231</ele>
        <time>2012-04-01T07:42:35Z</time>
      </trkpt>
      <trkpt lat="44.42498" lon="1.04888">
        <ele>231</ele>
        <time>2012-04-01T07:42:36Z</time>
      </trkpt>
      <trkpt lat="44.425" lon="1.04893">
        <ele>231</ele>
        <time>2012-04-01T07:42:37Z</time>
      </trkpt>
      <trkpt lat="44.42501" lon="1.04898">
        <ele>231</ele>
        <time>2012-04-01T07:42:38Z</time>
      </trkpt>
      <trkpt lat="44.42503" lon="1.04903">
        <ele>231</ele>
        <time>2012-04-01T07:42:39Z</time>
      </trkpt>
      <trkpt lat="44.42505" lon="1.04907">
        <ele>231</ele>
        <time>2012-04-01T07:42:40Z</time>
      </trkpt>
      <trkpt lat="44.42508" lon="1.0491">
        <ele>231</ele>
        <time>2012-04-01T07:42:41Z</time>
      </trkpt>
      <trkpt lat="44.42511" lon="1.04912">
        <ele>231</ele>
        <time>2012-04-01T07:42:42Z</time>
      </trkpt>
      <trkpt lat="44.42515" lon="1.04913">
        <ele>231</ele>
        <time>2012-04-01T07:42:43Z</time>
      </trkpt>
      <trkpt lat="44.4252" lon="1.04913">
        <ele>231</ele>
        <time>2012-04-01T07:42:44Z</time>
      </trkpt>
      <trkpt lat="44.42524" lon="1.04914">
        <ele>231</ele>
        <time>2012-04-01T07:42:45Z</time>
      </trkpt>
      <trkpt lat="44.42528" lon="1.04915">
        <ele>231</ele>
        <time>2012-04-01T07:42:46Z</time>
      </trkpt>
      <trkpt lat="44.42532" lon="1.04916">
        <ele>231</ele>
        <time>2012-04-01T07:42:47Z</time>
      </trkpt>
      <trkpt lat="44.42536" lon="1.04916">
        <ele>231</ele>
        <time>2012-04-01T07:42:48Z</time>
      </trkpt>
      <trkpt lat="44.4254" lon="1.04916">
        <ele>231</ele>
        <time>2012-04-01T07:42:49Z</time>
      </trkpt>
      <trkpt lat="44.42545" lon="1.04915">
        <ele>231</ele>
        <time>2012-04-01T07:42:50Z</time>
      </trkpt>
      <trkpt lat="44.42549" lon="1.04916">
        <ele>231</ele>
        <time>2012-04-01T07:42:51Z</time>
      </trkpt>
      <trkpt lat="44.42553" lon="1.04917">
        <ele>231</ele>
        <time>2012-04-01T07:42:52Z</time>
      </trkpt>
      <trkpt lat="44.42558" lon="1.04917">
        <ele>231</ele>
        <time>2012-04-01T07:42:53Z</time>
      </trkpt>
      <trkpt lat="44.42562" lon="1.04917">
        <ele>231</ele>
        <time>2012-04-01T07:42:54Z</time>
      </trkpt>
      <trkpt lat="44.42567" lon="1.04918">
        <ele>231</ele>
        <time>2012-04-01T07:42:55Z</time>
      </trkpt>
      <trkpt lat="44.42571" lon="1.04919">
        <ele>231</ele>
        <time>2012-04-01T07:42:56Z</time>
      </trkpt>
      <trkpt lat="44.42576" lon="1.0492">
        <ele>231</ele>
        <time>2012-04-01T07:42:57Z</time>
      </trkpt>
      <trkpt lat="44.42581" lon="1.04921">
        <ele>231</ele>
        <time>2012-04-01T07:42:58Z</time>
      </trkpt>
      <trkpt lat="44.42585" lon="1.04921">
        <ele>231</ele>
        <time>2012-04-01T07:42:59Z</time>
      </trkpt>
      <trkpt lat="44.4259" lon="1.04922">
        <ele>231</ele>
        <time>2012-04-01T07:43:00Z</time>
      </trkpt>
      <trkpt lat="44.42596" lon="1.04922">
        <ele>231</ele>
        <time>2012-04-01T07:43:01Z</time>
      </trkpt>
      <trkpt lat="44.42602" lon="1.04923">
        <ele>231</ele>
        <time>2012-04-01T07:43:02Z</time>
      </trkpt>
      <trkpt lat="44.42607" lon="1.04924">
        <ele>231</ele>
        <time>2012-04-01T07:43:03Z</time>
      </trkpt>
      <trkpt lat="44.42613" lon="1.04925">
        <ele>231</ele>
        <time>2012-04-01T07:43:04Z</time>
      </trkpt>
      <trkpt lat="44.42618" lon="1.04927">
        <ele>231</ele>
        <time>2012-04-01T07:43:05Z</time>
      </trkpt>
      <trkpt lat="44.42624" lon="1.04929">
        <ele>231</ele>
        <time>2012-04-01T07:43:06Z</time>
      </trkpt>
      <trkpt lat="44.42629" lon="1.0493">
        <ele>231</ele>
        <time>2012-04-01T07:43:07Z</time>
      </trkpt>
      <trkpt lat="44.42635" lon="1.04931">
        <ele>231</ele>
        <time>2012-04-01T07:43:08Z</time>
      </trkpt>
      <trkpt lat="44.42641" lon="1.04932">
        <ele>231</ele>
        <time>2012-04-01T07:43:09Z</time>
      </trkpt>
      <trkpt lat="44.42646" lon="1.04933">
        <ele>231</ele>
        <time>2012-04-01T07:43:10Z</time>
      </trkpt>
      <trkpt lat="44.42652" lon="1.04934">
        <ele>230</ele>
        <time>2012-04-01T07:43:11Z</time>
      </trkpt>
      <trkpt lat="44.42658" lon="1.04936">
        <ele>230</ele>
        <time>2012-04-01T07:43:12Z</time>
      </trkpt>
      <trkpt lat="44.42664" lon="1.04937">
        <ele>229</ele>
        <time>2012-04-01T07:43:13Z</time>
      </trkpt>
      <trkpt lat="44.4267" lon="1.04938">
        <ele>228</ele>
        <time>2012-04-01T07:43:14Z</time>
      </trkpt>
      <trkpt lat="44.42676" lon="1.04939">
        <ele>227</ele>
        <time>2012-04-01T07:43:15Z</time>
      </trkpt>
      <trkpt lat="44.42683" lon="1.04941">
        <ele>226</ele>
        <time>2012-04-01T07:43:16Z</time>
      </trkpt>
      <trkpt lat="44.42691" lon="1.04944">
        <ele>225</ele>
        <time>2012-04-01T07:43:17Z</time>
      </trkpt>
      <trkpt lat="44.42698" lon="1.04946">
        <ele>225</ele>
        <time>2012-04-01T07:43:18Z</time>
      </trkpt>
      <trkpt lat="44.42704" lon="1.04949">
        <ele>224</ele>
        <time>2012-04-01T07:43:19Z</time>
      </trkpt>
      <trkpt lat="44.42711" lon="1.04952">
        <ele>224</ele>
        <time>2012-04-01T07:43:20Z</time>
      </trkpt>
      <trkpt lat="44.42718" lon="1.04954">
        <ele>223</ele>
        <time>2012-04-01T07:43:21Z</time>
      </trkpt>
      <trkpt lat="44.42725" lon="1.04955">
        <ele>223</ele>
        <time>2012-04-01T07:43:22Z</time>
      </trkpt>
      <trkpt lat="44.42733" lon="1.04954">
        <ele>223</ele>
        <time>2012-04-01T07:43:23Z</time>
      </trkpt>
      <trkpt lat="44.4274" lon="1.04953">
        <ele>223</ele>
        <time>2012-04-01T07:43:24Z</time>
      </trkpt>
      <trkpt lat="44.42746" lon="1.04952">
        <ele>223</ele>
        <time>2012-04-01T07:43:25Z</time>
      </trkpt>
      <trkpt lat="44.42752" lon="1.04952">
        <ele>223</ele>
        <time>2012-04-01T07:43:26Z</time>
      </trkpt>
      <trkpt lat="44.42759" lon="1.04952">
        <ele>223</ele>
        <time>2012-04-01T07:43:27Z</time>
      </trkpt>
      <trkpt lat="44.42765" lon="1.0495">
        <ele>223</ele>
        <time>2012-04-01T07:43:28Z</time>
      </trkpt>
      <trkpt lat="44.42771" lon="1.0495">
        <ele>223</ele>
        <time>2012-04-01T07:43:29Z</time>
      </trkpt>
      <trkpt lat="44.42777" lon="1.04949">
        <ele>223</ele>
        <time>2012-04-01T07:43:30Z</time>
      </trkpt>
      <trkpt lat="44.42783" lon="1.04948">
        <ele>223</ele>
        <time>2012-04-01T07:43:31Z</time>
      </trkpt>
      <trkpt lat="44.42788" lon="1.04947">
        <ele>223</ele>
        <time>2012-04-01T07:43:32Z</time>
      </trkpt>
      <trkpt lat="44.42793" lon="1.04947">
        <ele>223</ele>
        <time>2012-04-01T07:43:33Z</time>
      </trkpt>
      <trkpt lat="44.42799" lon="1.04947">
        <ele>223</ele>
        <time>2012-04-01T07:43:34Z</time>
      </trkpt>
      <trkpt lat="44.42804" lon="1.04946">
        <ele>223</ele>
        <time>2012-04-01T07:43:35Z</time>
      </trkpt>
      <trkpt lat="44.42809" lon="1.04945">
        <ele>223</ele>
        <time>2012-04-01T07:43:36Z</time>
      </trkpt>
      <trkpt lat="44.42815" lon="1.04944">
        <ele>223</ele>
        <time>2012-04-01T07:43:37Z</time>
      </trkpt>
      <trkpt lat="44.42822" lon="1.04941">
        <ele>223</ele>
        <time>2012-04-01T07:43:38Z</time>
      </trkpt>
      <trkpt lat="44.42828" lon="1.04939">
        <ele>223</ele>
        <time>2012-04-01T07:43:39Z</time>
      </trkpt>
      <trkpt lat="44.42833" lon="1.04938">
        <ele>223</ele>
        <time>2012-04-01T07:43:40Z</time>
      </trkpt>
      <trkpt lat="44.4284" lon="1.04936">
        <ele>223</ele>
        <time>2012-04-01T07:43:41Z</time>
      </trkpt>
      <trkpt lat="44.42846" lon="1.04934">
        <ele>223</ele>
        <time>2012-04-01T07:43:42Z</time>
      </trkpt>
      <trkpt lat="44.42852" lon="1.04933">
        <ele>223</ele>
        <time>2012-04-01T07:43:43Z</time>
      </trkpt>
      <trkpt lat="44.42857" lon="1.04932">
        <ele>223</ele>
        <time>2012-04-01T07:43:44Z</time>
      </trkpt>
      <trkpt lat="44.42862" lon="1.0493">
        <ele>223</ele>
        <time>2012-04-01T07:43:45Z</time>
      </trkpt>
      <trkpt lat="44.42868" lon="1.04928">
        <ele>223</ele>
        <time>2012-04-01T07:43:46Z</time>
      </trkpt>
      <trkpt lat="44.42873" lon="1.04925">
        <ele>223</ele>
        <time>2012-04-01T07:43:47Z</time>
      </trkpt>
      <trkpt lat="44.42879" lon="1.04921">
        <ele>223</ele>
        <time>2012-04-01T07:43:48Z</time>
      </trkpt>
      <trkpt lat="44.42885" lon="1.04918">
        <ele>222</ele>
        <time>2012-04-01T07:43:49Z</time>
      </trkpt>
      <trkpt lat="44.4289" lon="1.04915">
        <ele>222</ele>
        <time>2012-04-01T07:43:50Z</time>
      </trkpt>
      <trkpt lat="44.42895" lon="1.04912">
        <ele>222</ele>
        <time>2012-04-01T07:43:51Z</time>
      </trkpt>
      <trkpt lat="44.429" lon="1.04909">
        <ele>221</ele>
        <time>2012-04-01T07:43:52Z</time>
      </trkpt>
      <trkpt lat="44.42905" lon="1.04906">
        <ele>221</ele>
        <time>2012-04-01T07:43:53Z</time>
      </trkpt>
      <trkpt lat="44.42909" lon="1.04903">
        <ele>220</ele>
        <time>2012-04-01T07:43:54Z</time>
      </trkpt>
      <trkpt lat="44.42914" lon="1.04898">
        <ele>220</ele>
        <time>2012-04-01T07:43:55Z</time>
      </trkpt>
      <trkpt lat="44.42919" lon="1.04894">
        <ele>220</ele>
        <time>2012-04-01T07:43:56Z</time>
      </trkpt>
      <trkpt lat="44.42923" lon="1.04891">
        <ele>220</ele>
        <time>2012-04-01T07:43:57Z</time>
      </trkpt>
      <trkpt lat="44.42928" lon="1.04887">
        <ele>220</ele>
        <time>2012-04-01T07:43:58Z</time>
      </trkpt>
      <trkpt lat="44.42934" lon="1.04884">
        <ele>219</ele>
        <time>2012-04-01T07:43:59Z</time>
      </trkpt>
      <trkpt lat="44.42939" lon="1.04879">
        <ele>219</ele>
        <time>2012-04-01T07:44:00Z</time>
      </trkpt>
      <trkpt lat="44.42944" lon="1.04873">
        <ele>219</ele>
        <time>2012-04-01T07:44:01Z</time>
      </trkpt>
      <trkpt lat="44.42949" lon="1.04867">
        <ele>218</ele>
        <time>2012-04-01T07:44:02Z</time>
      </trkpt>
      <trkpt lat="44.42954" lon="1.04861">
        <ele>218</ele>
        <time>2012-04-01T07:44:03Z</time>
      </trkpt>
      <trkpt lat="44.4296" lon="1.04854">
        <ele>218</ele>
        <time>2012-04-01T07:44:04Z</time>
      </trkpt>
      <trkpt lat="44.42965" lon="1.04847">
        <ele>218</ele>
        <time>2012-04-01T07:44:05Z</time>
      </trkpt>
      <trkpt lat="44.4297" lon="1.04839">
        <ele>218</ele>
        <time>2012-04-01T07:44:06Z</time>
      </trkpt>
      <trkpt lat="44.42974" lon="1.04833">
        <ele>217</ele>
        <time>2012-04-01T07:44:07Z</time>
      </trkpt>
      <trkpt lat="44.42979" lon="1.04826">
        <ele>217</ele>
        <time>2012-04-01T07:44:08Z</time>
      </trkpt>
      <trkpt lat="44.42983" lon="1.0482">
        <ele>217</ele>
        <time>2012-04-01T07:44:09Z</time>
      </trkpt>
      <trkpt lat="44.42987" lon="1.04814">
        <ele>217</ele>
        <time>2012-04-01T07:44:10Z</time>
      </trkpt>
      <trkpt lat="44.42992" lon="1.04807">
        <ele>217</ele>
        <time>2012-04-01T07:44:11Z</time>
      </trkpt>
      <trkpt lat="44.42997" lon="1.048">
        <ele>217</ele>
        <time>2012-04-01T07:44:12Z</time>
      </trkpt>
      <trkpt lat="44.43002" lon="1.04794">
        <ele>217</ele>
        <time>2012-04-01T07:44:13Z</time>
      </trkpt>
      <trkpt lat="44.43007" lon="1.04787">
        <ele>217</ele>
        <time>2012-04-01T07:44:14Z</time>
      </trkpt>
      <trkpt lat="44.43012" lon="1.04779">
        <ele>217</ele>
        <time>2012-04-01T07:44:15Z</time>
      </trkpt>
      <trkpt lat="44.43017" lon="1.04772">
        <ele>217</ele>
        <time>2012-04-01T07:44:16Z</time>
      </trkpt>
      <trkpt lat="44.43021" lon="1.04764">
        <ele>217</ele>
        <time>2012-04-01T07:44:17Z</time>
      </trkpt>
      <trkpt lat="44.43024" lon="1.04757">
        <ele>217</ele>
        <time>2012-04-01T07:44:18Z</time>
      </trkpt>
      <trkpt lat="44.43028" lon="1.0475">
        <ele>217</ele>
        <time>2012-04-01T07:44:19Z</time>
      </trkpt>
      <trkpt lat="44.43032" lon="1.04743">
        <ele>217</ele>
        <time>2012-04-01T07:44:20Z</time>
      </trkpt>
      <trkpt lat="44.43037" lon="1.04736">
        <ele>217</ele>
        <time>2012-04-01T07:44:21Z</time>
      </trkpt>
      <trkpt lat="44.43041" lon="1.04731">
        <ele>217</ele>
        <time>2012-04-01T07:44:22Z</time>
      </trkpt>
      <trkpt lat="44.43046" lon="1.04727">
        <ele>217</ele>
        <time>2012-04-01T07:44:23Z</time>
      </trkpt>
      <trkpt lat="44.43052" lon="1.04724">
        <ele>217</ele>
        <time>2012-04-01T07:44:24Z</time>
      </trkpt>
      <trkpt lat="44.43057" lon="1.04721">
        <ele>217</ele>
        <time>2012-04-01T07:44:25Z</time>
      </trkpt>
      <trkpt lat="44.43062" lon="1.04719">
        <ele>217</ele>
        <time>2012-04-01T07:44:26Z</time>
      </trkpt>
      <trkpt lat="44.43068" lon="1.04717">
        <ele>217</ele>
        <time>2012-04-01T07:44:27Z</time>
      </trkpt>
      <trkpt lat="44.43074" lon="1.04715">
        <ele>217</ele>
        <time>2012-04-01T07:44:28Z</time>
      </trkpt>
      <trkpt lat="44.43079" lon="1.04712">
        <ele>217</ele>
        <time>2012-04-01T07:44:29Z</time>
      </trkpt>
      <trkpt lat="44.43084" lon="1.0471">
        <ele>217</ele>
        <time>2012-04-01T07:44:30Z</time>
      </trkpt>
      <trkpt lat="44.43087" lon="1.04706">
        <ele>217</ele>
        <time>2012-04-01T07:44:31Z</time>
      </trkpt>
      <trkpt lat="44.4309" lon="1.04702">
        <ele>217</ele>
        <time>2012-04-01T07:44:32Z</time>
      </trkpt>
      <trkpt lat="44.43092" lon="1.04696">
        <ele>217</ele>
        <time>2012-04-01T07:44:33Z</time>
      </trkpt>
      <trkpt lat="44.43092" lon="1.04691">
        <ele>217</ele>
        <time>2012-04-01T07:44:34Z</time>
      </trkpt>
      <trkpt lat="44.43091" lon="1.04686">
        <ele>216</ele>
        <time>2012-04-01T07:44:35Z</time>
      </trkpt>
      <trkpt lat="44.43089" lon="1.04683">
        <ele>216</ele>
        <time>2012-04-01T07:44:36Z</time>
      </trkpt>
      <trkpt lat="44.43087" lon="1.04678">
        <ele>216</ele>
        <time>2012-04-01T07:44:37Z</time>
      </trkpt>
      <trkpt lat="44.43084" lon="1.04675">
        <ele>216</ele>
        <time>2012-04-01T07:44:38Z</time>
      </trkpt>
      <trkpt lat="44.43082" lon="1.04671">
        <ele>216</ele>
        <time>2012-04-01T07:44:39Z</time>
      </trkpt>
      <trkpt lat="44.43079" lon="1.04667">
        <ele>216</ele>
        <time>2012-04-01T07:44:40Z</time>
      </trkpt>
      <trkpt lat="44.43077" lon="1.04663">
        <ele>216</ele>
        <time>2012-04-01T07:44:41Z</time>
      </trkpt>
      <trkpt lat="44.43074" lon="1.04659">
        <ele>216</ele>
        <time>2012-04-01T07:44:42Z</time>
      </trkpt>
      <trkpt lat="44.43072" lon="1.04655">
        <ele>216</ele>
        <time>2012-04-01T07:44:43Z</time>
      </trkpt>
      <trkpt lat="44.43069" lon="1.04652">
        <ele>216</ele>
        <time>2012-04-01T07:44:44Z</time>
      </trkpt>
      <trkpt lat="44.43067" lon="1.04648">
        <ele>216</ele>
        <time>2012-04-01T07:44:45Z</time>
      </trkpt>
      <trkpt lat="44.43065" lon="1.04644">
        <ele>216</ele>
        <time>2012-04-01T07:44:46Z</time>
      </trkpt>
      <trkpt lat="44.43063" lon="1.0464">
        <ele>216</ele>
        <time>2012-04-01T07:44:47Z</time>
      </trkpt>
      <trkpt lat="44.43061" lon="1.04637">
        <ele>216</ele>
        <time>2012-04-01T07:44:48Z</time>
      </trkpt>
      <trkpt lat="44.43058" lon="1.04633">
        <ele>216</ele>
        <time>2012-04-01T07:44:49Z</time>
      </trkpt>
      <trkpt lat="44.43056" lon="1.0463">
        <ele>216</ele>
        <time>2012-04-01T07:44:50Z</time>
      </trkpt>
      <trkpt lat="44.43053" lon="1.04626">
        <ele>216</ele>
        <time>2012-04-01T07:44:51Z</time>
      </trkpt>
      <trkpt lat="44.43051" lon="1.04622">
        <ele>216</ele>
        <time>2012-04-01T07:44:52Z</time>
      </trkpt>
      <trkpt lat="44.4305" lon="1.04618">
        <ele>216</ele>
        <time>2012-04-01T07:44:53Z</time>
      </trkpt>
      <trkpt lat="44.43048" lon="1.04613">
        <ele>216</ele>
        <time>2012-04-01T07:44:54Z</time>
      </trkpt>
      <trkpt lat="44.43048" lon="1.04609">
        <ele>216</ele>
        <time>2012-04-01T07:44:55Z</time>
      </trkpt>
      <trkpt lat="44.43049" lon="1.04604">
        <ele>216</ele>
        <time>2012-04-01T07:44:56Z</time>
      </trkpt>
      <trkpt lat="44.43051" lon="1.04599">
        <ele>217</ele>
        <time>2012-04-01T07:44:57Z</time>
      </trkpt>
      <trkpt lat="44.43053" lon="1.04594">
        <ele>218</ele>
        <time>2012-04-01T07:44:58Z</time>
      </trkpt>
      <trkpt lat="44.43056" lon="1.04589">
        <ele>219</ele>
        <time>2012-04-01T07:44:59Z</time>
      </trkpt>
      <trkpt lat="44.43058" lon="1.04584">
        <ele>220</ele>
        <time>2012-04-01T07:45:00Z</time>
      </trkpt>
      <trkpt lat="44.4306" lon="1.04579">
        <ele>220</ele>
        <time>2012-04-01T07:45:01Z</time>
      </trkpt>
      <trkpt lat="44.43061" lon="1.04574">
        <ele>220</ele>
        <time>2012-04-01T07:45:02Z</time>
      </trkpt>
      <trkpt lat="44.43062" lon="1.04569">
        <ele>221</ele>
        <time>2012-04-01T07:45:03Z</time>
      </trkpt>
      <trkpt lat="44.43063" lon="1.04564">
        <ele>221</ele>
        <time>2012-04-01T07:45:04Z</time>
      </trkpt>
      <trkpt lat="44.43064" lon="1.04559">
        <ele>221</ele>
        <time>2012-04-01T07:45:05Z</time>
      </trkpt>
      <trkpt lat="44.43064" lon="1.04554">
        <ele>221</ele>
        <time>2012-04-01T07:45:06Z</time>
      </trkpt>
      <trkpt lat="44.43065" lon="1.04548">
        <ele>221</ele>
        <time>2012-04-01T07:45:07Z</time>
      </trkpt>
      <trkpt lat="44.43066" lon="1.04542">
        <ele>221</ele>
        <time>2012-04-01T07:45:08Z</time>
      </trkpt>
      <trkpt lat="44.43067" lon="1.04536">
        <ele>221</ele>
        <time>2012-04-01T07:45:09Z</time>
      </trkpt>
      <trkpt lat="44.43068" lon="1.0453">
        <ele>221</ele>
        <time>2012-04-01T07:45:10Z</time>
      </trkpt>
      <trkpt lat="44.4307" lon="1.04524">
        <ele>221</ele>
        <time>2012-04-01T07:45:11Z</time>
      </trkpt>
      <trkpt lat="44.43072" lon="1.04517">
        <ele>221</ele>
        <time>2012-04-01T07:45:12Z</time>
      </trkpt>
      <trkpt lat="44.43074" lon="1.04511">
        <ele>221</ele>
        <time>2012-04-01T07:45:13Z</time>
      </trkpt>
      <trkpt lat="44.43077" lon="1.04505">
        <ele>221</ele>
        <time>2012-04-01T07:45:14Z</time>
      </trkpt>
      <trkpt lat="44.4308" lon="1.04498">
        <ele>221</ele>
        <time>2012-04-01T07:45:15Z</time>
      </trkpt>
      <trkpt lat="44.43082" lon="1.04491">
        <ele>221</ele>
        <time>2012-04-01T07:45:16Z</time>
      </trkpt>
      <trkpt lat="44.43084" lon="1.04484">
        <ele>221</ele>
        <time>2012-04-01T07:45:17Z</time>
      </trkpt>
      <trkpt lat="44.43087" lon="1.04477">
        <ele>221</ele>
        <time>2012-04-01T07:45:18Z</time>
      </trkpt>
      <trkpt lat="44.4309" lon="1.0447">
        <ele>221</ele>
        <time>2012-04-01T07:45:19Z</time>
      </trkpt>
      <trkpt lat="44.43092" lon="1.04463">
        <ele>221</ele>
        <time>2012-04-01T07:45:20Z</time>
      </trkpt>
      <trkpt lat="44.43094" lon="1.04455">
        <ele>221</ele>
        <time>2012-04-01T07:45:21Z</time>
      </trkpt>
      <trkpt lat="44.43095" lon="1.04447">
        <ele>221</ele>
        <time>2012-04-01T07:45:22Z</time>
      </trkpt>
      <trkpt lat="44.43095" lon="1.0444">
        <ele>221</ele>
        <time>2012-04-01T07:45:23Z</time>
      </trkpt>
      <trkpt lat="44.43097" lon="1.04433">
        <ele>221</ele>
        <time>2012-04-01T07:45:24Z</time>
      </trkpt>
      <trkpt lat="44.43099" lon="1.04427">
        <ele>221</ele>
        <time>2012-04-01T07:45:25Z</time>
      </trkpt>
      <trkpt lat="44.43101" lon="1.04422">
        <ele>221</ele>
        <time>2012-04-01T07:45:26Z</time>
      </trkpt>
      <trkpt lat="44.43104" lon="1.04417">
        <ele>221</ele>
        <time>2012-04-01T07:45:27Z</time>
      </trkpt>
      <trkpt lat="44.43108" lon="1.04413">
        <ele>221</ele>
        <time>2012-04-01T07:45:28Z</time>
      </trkpt>
      <trkpt lat="44.43111" lon="1.04408">
        <ele>221</ele>
        <time>2012-04-01T07:45:29Z</time>
      </trkpt>
      <trkpt lat="44.43116" lon="1.04402">
        <ele>221</ele>
        <time>2012-04-01T07:45:30Z</time>
      </trkpt>
      <trkpt lat="44.4312" lon="1.04397">
        <ele>221</ele>
        <time>2012-04-01T07:45:31Z</time>
      </trkpt>
      <trkpt lat="44.43124" lon="1.04391">
        <ele>221</ele>
        <time>2012-04-01T07:45:32Z</time>
      </trkpt>
      <trkpt lat="44.43127" lon="1.04385">
        <ele>221</ele>
        <time>2012-04-01T07:45:33Z</time>
      </trkpt>
      <trkpt lat="44.43131" lon="1.04379">
        <ele>221</ele>
        <time>2012-04-01T07:45:34Z</time>
      </trkpt>
      <trkpt lat="44.43136" lon="1.04372">
        <ele>221</ele>
        <time>2012-04-01T07:45:35Z</time>
      </trkpt>
      <trkpt lat="44.43141" lon="1.04366">
        <ele>221</ele>
        <time>2012-04-01T07:45:36Z</time>
      </trkpt>
      <trkpt lat="44.43146" lon="1.0436">
        <ele>221</ele>
        <time>2012-04-01T07:45:37Z</time>
      </trkpt>
      <trkpt lat="44.4315" lon="1.04355">
        <ele>221</ele>
        <time>2012-04-01T07:45:38Z</time>
      </trkpt>
      <trkpt lat="44.43155" lon="1.04349">
        <ele>221</ele>
        <time>2012-04-01T07:45:39Z</time>
      </trkpt>
      <trkpt lat="44.4316" lon="1.04344">
        <ele>221</ele>
        <time>2012-04-01T07:45:40Z</time>
      </trkpt>
      <trkpt lat="44.43165" lon="1.04339">
        <ele>221</ele>
        <time>2012-04-01T07:45:41Z</time>
      </trkpt>
      <trkpt lat="44.43171" lon="1.04333">
        <ele>221</ele>
        <time>2012-04-01T07:45:42Z</time>
      </trkpt>
      <trkpt lat="44.43177" lon="1.04329">
        <ele>221</ele>
        <time>2012-04-01T07:45:43Z</time>
      </trkpt>
      <trkpt lat="44.43182" lon="1.04324">
        <ele>221</ele>
        <time>2012-04-01T07:45:44Z</time>
      </trkpt>
      <trkpt lat="44.43189" lon="1.0432">
        <ele>221</ele>
        <time>2012-04-01T07:45:45Z</time>
      </trkpt>
      <trkpt lat="44.43196" lon="1.04314">
        <ele>221</ele>
        <time>2012-04-01T07:45:46Z</time>
      </trkpt>
      <trkpt lat="44.43203" lon="1.04309">
        <ele>221</ele>
        <time>2012-04-01T07:45:47Z</time>
      </trkpt>
      <trkpt lat="44.4321" lon="1.04305">
        <ele>221</ele>
        <time>2012-04-01T07:45:48Z</time>
      </trkpt>
      <trkpt lat="44.43216" lon="1.043">
        <ele>221</ele>
        <time>2012-04-01T07:45:49Z</time>
      </trkpt>
      <trkpt lat="44.43222" lon="1.04295">
        <ele>221</ele>
        <time>2012-04-01T07:45:50Z</time>
      </trkpt>
      <trkpt lat="44.43228" lon="1.0429">
        <ele>221</ele>
        <time>2012-04-01T07:45:51Z</time>
      </trkpt>
      <trkpt lat="44.43234" lon="1.04286">
        <ele>220</ele>
        <time>2012-04-01T07:45:52Z</time>
      </trkpt>
      <trkpt lat="44.4324" lon="1.04282">
        <ele>220</ele>
        <time>2012-04-01T07:45:53Z</time>
      </trkpt>
      <trkpt lat="44.43245" lon="1.04277">
        <ele>220</ele>
        <time>2012-04-01T07:45:54Z</time>
      </trkpt>
      <trkpt lat="44.43251" lon="1.04272">
        <ele>219</ele>
        <time>2012-04-01T07:45:55Z</time>
      </trkpt>
      <trkpt lat="44.43257" lon="1.04267">
        <ele>219</ele>
        <time>2012-04-01T07:45:56Z</time>
      </trkpt>
      <trkpt lat="44.43263" lon="1.04262">
        <ele>219</ele>
        <time>2012-04-01T07:45:57Z</time>
      </trkpt>
      <trkpt lat="44.4327" lon="1.04257">
        <ele>218</ele>
        <time>2012-04-01T07:45:58Z</time>
      </trkpt>
      <trkpt lat="44.43276" lon="1.04252">
        <ele>218</ele>
        <time>2012-04-01T07:45:59Z</time>
      </trkpt>
      <trkpt lat="44.43282" lon="1.04246">
        <ele>218</ele>
        <time>2012-04-01T07:46:00Z</time>
      </trkpt>
      <trkpt lat="44.43287" lon="1.0424">
        <ele>217</ele>
        <time>2012-04-01T07:46:01Z</time>
      </trkpt>
      <trkpt lat="44.43293" lon="1.04233">
        <ele>217</ele>
        <time>2012-04-01T07:46:02Z</time>
      </trkpt>
      <trkpt lat="44.43297" lon="1.04225">
        <ele>216</ele>
        <time>2012-04-01T07:46:03Z</time>
      </trkpt>
      <trkpt lat="44.43301" lon="1.04216">
        <ele>215</ele>
        <time>2012-04-01T07:46:04Z</time>
      </trkpt>
      <trkpt lat="44.43304" lon="1.04207">
        <ele>215</ele>
        <time>2012-04-01T07:46:05Z</time>
      </trkpt>
      <trkpt lat="44.43305" lon="1.04198">
        <ele>214</ele>
        <time>2012-04-01T07:46:06Z</time>
      </trkpt>
      <trkpt lat="44.43306" lon="1.0419">
        <ele>214</ele>
        <time>2012-04-01T07:46:07Z</time>
      </trkpt>
      <trkpt lat="44.43306" lon="1.04181">
        <ele>214</ele>
        <time>2012-04-01T07:46:08Z</time>
      </trkpt>
      <trkpt lat="44.43307" lon="1.04172">
        <ele>213</ele>
        <time>2012-04-01T07:46:09Z</time>
      </trkpt>
      <trkpt lat="44.43309" lon="1.04164">
        <ele>213</ele>
        <time>2012-04-01T07:46:10Z</time>
      </trkpt>
      <trkpt lat="44.43315" lon="1.04156">
        <ele>213</ele>
        <time>2012-04-01T07:46:11Z</time>
      </trkpt>
      <trkpt lat="44.43324" lon="1.0415">
        <ele>212</ele>
        <time>2012-04-01T07:46:12Z</time>
      </trkpt>
      <trkpt lat="44.43332" lon="1.04144">
        <ele>211</ele>
        <time>2012-04-01T07:46:13Z</time>
      </trkpt>
      <trkpt lat="44.43341" lon="1.04138">
        <ele>211</ele>
        <time>2012-04-01T07:46:14Z</time>
      </trkpt>
      <trkpt lat="44.4335" lon="1.04132">
        <ele>210</ele>
        <time>2012-04-01T07:46:15Z</time>
      </trkpt>
      <trkpt lat="44.43359" lon="1.04127">
        <ele>209</ele>
        <time>2012-04-01T07:46:16Z</time>
      </trkpt>
      <trkpt lat="44.43367" lon="1.04122">
        <ele>208</ele>
        <time>2012-04-01T07:46:17Z</time>
      </trkpt>
      <trkpt lat="44.43376" lon="1.04116">
        <ele>208</ele>
        <time>2012-04-01T07:46:18Z</time>
      </trkpt>
      <trkpt lat="44.43384" lon="1.0411">
        <ele>208</ele>
        <time>2012-04-01T07:46:19Z</time>
      </trkpt>
      <trkpt lat="44.43392" lon="1.04104">
        <ele>208</ele>
        <time>2012-04-01T07:46:20Z</time>
      </trkpt>
      <trkpt lat="44.43399" lon="1.04099">
        <ele>208</ele>
        <time>2012-04-01T07:46:21Z</time>
      </trkpt>
      <trkpt lat="44.43404" lon="1.04095">
        <ele>208</ele>
        <time>2012-04-01T07:46:22Z</time>
      </trkpt>
      <trkpt lat="44.43409" lon="1.04092">
        <ele>208</ele>
        <time>2012-04-01T07:46:23Z</time>
      </trkpt>
      <trkpt lat="44.43413" lon="1.04089">
        <ele>208</ele>
        <time>2012-04-01T07:46:24Z</time>
      </trkpt>
      <trkpt lat="44.43417" lon="1.04088">
        <ele>208</ele>
        <time>2012-04-01T07:46:25Z</time>
      </trkpt>
      <trkpt lat="44.43421" lon="1.04089">
        <ele>208</ele>
        <time>2012-04-01T07:46:26Z</time>
      </trkpt>
      <trkpt lat="44.43423" lon="1.04092">
        <ele>208</ele>
        <time>2012-04-01T07:46:27Z</time>
      </trkpt>
      <trkpt lat="44.43425" lon="1.04095">
        <ele>208</ele>
        <time>2012-04-01T07:46:28Z</time>
      </trkpt>
      <trkpt lat="44.43427" lon="1.04099">
        <ele>208</ele>
        <time>2012-04-01T07:46:29Z</time>
      </trkpt>
      <trkpt lat="44.43428" lon="1.04103">
        <ele>208</ele>
        <time>2012-04-01T07:46:30Z</time>
      </trkpt>
      <trkpt lat="44.4343" lon="1.04107">
        <ele>208</ele>
        <time>2012-04-01T07:46:31Z</time>
      </trkpt>
      <trkpt lat="44.43432" lon="1.0411">
        <ele>208</ele>
        <time>2012-04-01T07:46:32Z</time>
      </trkpt>
      <trkpt lat="44.43434" lon="1.04114">
        <ele>208</ele>
        <time>2012-04-01T07:46:33Z</time>
      </trkpt>
      <trkpt lat="44.43437" lon="1.04118">
        <ele>208</ele>
        <time>2012-04-01T07:46:34Z</time>
      </trkpt>
      <trkpt lat="44.43439" lon="1.04121">
        <ele>208</ele>
        <time>2012-04-01T07:46:35Z</time>
      </trkpt>
      <trkpt lat="44.43441" lon="1.04125">
        <ele>208</ele>
        <time>2012-04-01T07:46:36Z</time>
      </trkpt>
      <trkpt lat="44.43443" lon="1.0413">
        <ele>208</ele>
        <time>2012-04-01T07:46:37Z</time>
      </trkpt>
      <trkpt lat="44.43445" lon="1.04134">
        <ele>208</ele>
        <time>2012-04-01T07:46:38Z</time>
      </trkpt>
      <trkpt lat="44.43447" lon="1.04138">
        <ele>208</ele>
        <time>2012-04-01T07:46:39Z</time>
      </trkpt>
      <trkpt lat="44.4345" lon="1.04142">
        <ele>208</ele>
        <time>2012-04-01T07:46:40Z</time>
      </trkpt>
      <trkpt lat="44.43453" lon="1.04146">
        <ele>208</ele>
        <time>2012-04-01T07:46:41Z</time>
      </trkpt>
      <trkpt lat="44.43456" lon="1.0415">
        <ele>208</ele>
        <time>2012-04-01T07:46:42Z</time>
      </trkpt>
      <trkpt lat="44.43459" lon="1.04154">
        <ele>208</ele>
        <time>2012-04-01T07:46:43Z</time>
      </trkpt>
      <trkpt lat="44.43462" lon="1.04157">
        <ele>208</ele>
        <time>2012-04-01T07:46:44Z</time>
      </trkpt>
      <trkpt lat="44.43465" lon="1.04161">
        <ele>208</ele>
        <time>2012-04-01T07:46:45Z</time>
      </trkpt>
      <trkpt lat="44.43468" lon="1.04165">
        <ele>208</ele>
        <time>2012-04-01T07:46:46Z</time>
      </trkpt>
      <trkpt lat="44.43471" lon="1.04169">
        <ele>208</ele>
        <time>2012-04-01T07:46:47Z</time>
      </trkpt>
      <trkpt lat="44.43474" lon="1.04172">
        <ele>208</ele>
        <time>2012-04-01T07:46:48Z</time>
      </trkpt>
      <trkpt lat="44.43476" lon="1.04176">
        <ele>208</ele>
        <time>2012-04-01T07:46:49Z</time>
      </trkpt>
      <trkpt lat="44.4348" lon="1.04181">
        <ele>208</ele>
        <time>2012-04-01T07:46:50Z</time>
      </trkpt>
      <trkpt lat="44.43483" lon="1.04185">
        <ele>208</ele>
        <time>2012-04-01T07:46:51Z</time>
      </trkpt>
      <trkpt lat="44.43486" lon="1.04189">
        <ele>208</ele>
        <time>2012-04-01T07:46:52Z</time>
      </trkpt>
      <trkpt lat="44.43489" lon="1.04193">
        <ele>208</ele>
        <time>2012-04-01T07:46:53Z</time>
      </trkpt>
      <trkpt lat="44.43492" lon="1.04198">
        <ele>208</ele>
        <time>2012-04-01T07:46:54Z</time>
      </trkpt>
      <trkpt lat="44.43495" lon="1.04202">
        <ele>208</ele>
        <time>2012-04-01T07:46:55Z</time>
      </trkpt>
      <trkpt lat="44.43499" lon="1.04207">
        <ele>209</ele>
        <time>2012-04-01T07:46:56Z</time>
      </trkpt>
      <trkpt lat="44.43502" lon="1.04211">
        <ele>209</ele>
        <time>2012-04-01T07:46:57Z</time>
      </trkpt>
      <trkpt lat="44.43505" lon="1.04216">
        <ele>209</ele>
        <time>2012-04-01T07:46:58Z</time>
      </trkpt>
      <trkpt lat="44.43509" lon="1.04221">
        <ele>209</ele>
        <time>2012-04-01T07:46:59Z</time>
      </trkpt>
      <trkpt lat="44.43512" lon="1.04226">
        <ele>210</ele>
        <time>2012-04-01T07:47:00Z</time>
      </trkpt>
      <trkpt lat="44.43516" lon="1.0423">
        <ele>210</ele>
        <time>2012-04-01T07:47:01Z</time>
      </trkpt>
      <trkpt lat="44.4352" lon="1.04235">
        <ele>210</ele>
        <time>2012-04-01T07:47:02Z</time>
      </trkpt>
      <trkpt lat="44.43523" lon="1.0424">
        <ele>210</ele>
        <time>2012-04-01T07:47:03Z</time>
      </trkpt>
      <trkpt lat="44.43527" lon="1.04244">
        <ele>211</ele>
        <time>2012-04-01T07:47:04Z</time>
      </trkpt>
      <trkpt lat="44.43532" lon="1.04249">
        <ele>211</ele>
        <time>2012-04-01T07:47:05Z</time>
      </trkpt>
      <trkpt lat="44.43536" lon="1.04253">
        <ele>211</ele>
        <time>2012-04-01T07:47:06Z</time>
      </trkpt>
      <trkpt lat="44.4354" lon="1.04256">
        <ele>212</ele>
        <time>2012-04-01T07:47:07Z</time>
      </trkpt>
      <trkpt lat="44.43545" lon="1.04259">
        <ele>212</ele>
        <time>2012-04-01T07:47:08Z</time>
      </trkpt>
      <trkpt lat="44.4355" lon="1.04261">
        <ele>212</ele>
        <time>2012-04-01T07:47:09Z</time>
      </trkpt>
      <trkpt lat="44.43555" lon="1.04263">
        <ele>212</ele>
        <time>2012-04-01T07:47:10Z</time>
      </trkpt>
      <trkpt lat="44.4356" lon="1.04265">
        <ele>213</ele>
        <time>2012-04-01T07:47:11Z</time>
      </trkpt>
      <trkpt lat="44.43565" lon="1.04268">
        <ele>213</ele>
        <time>2012-04-01T07:47:12Z</time>
      </trkpt>
      <trkpt lat="44.4357" lon="1.0427">
        <ele>214</ele>
        <time>2012-04-01T07:47:13Z</time>
      </trkpt>
      <trkpt lat="44.43575" lon="1.04272">
        <ele>214</ele>
        <time>2012-04-01T07:47:14Z</time>
      </trkpt>
      <trkpt lat="44.43579" lon="1.04274">
        <ele>215</ele>
        <time>2012-04-01T07:47:15Z</time>
      </trkpt>
      <trkpt lat="44.43584" lon="1.04276">
        <ele>215</ele>
        <time>2012-04-01T07:47:16Z</time>
      </trkpt>
      <trkpt lat="44.43589" lon="1.04279">
        <ele>216</ele>
        <time>2012-04-01T07:47:17Z</time>
      </trkpt>
      <trkpt lat="44.43594" lon="1.04281">
        <ele>216</ele>
        <time>2012-04-01T07:47:18Z</time>
      </trkpt>
      <trkpt lat="44.43598" lon="1.04284">
        <ele>217</ele>
        <time>2012-04-01T07:47:19Z</time>
      </trkpt>
      <trkpt lat="44.43602" lon="1.04287">
        <ele>217</ele>
        <time>2012-04-01T07:47:20Z</time>
      </trkpt>
      <trkpt lat="44.43607" lon="1.0429">
        <ele>217</ele>
        <time>2012-04-01T07:47:21Z</time>
      </trkpt>
      <trkpt lat="44.43611" lon="1.04293">
        <ele>218</ele>
        <time>2012-04-01T07:47:22Z</time>
      </trkpt>
      <trkpt lat="44.43615" lon="1.04297">
        <ele>218</ele>
        <time>2012-04-01T07:47:23Z</time>
      </trkpt>
      <trkpt lat="44.43619" lon="1.043">
        <ele>218</ele>
        <time>2012-04-01T07:47:24Z</time>
      </trkpt>
      <trkpt lat="44.43623" lon="1.04303">
        <ele>218</ele>
        <time>2012-04-01T07:47:25Z</time>
      </trkpt>
      <trkpt lat="44.43626" lon="1.04306">
        <ele>218</ele>
        <time>2012-04-01T07:47:26Z</time>
      </trkpt>
      <trkpt lat="44.4363" lon="1.04309">
        <ele>218</ele>
        <time>2012-04-01T07:47:27Z</time>
      </trkpt>
      <trkpt lat="44.43633" lon="1.04312">
        <ele>219</ele>
        <time>2012-04-01T07:47:28Z</time>
      </trkpt>
      <trkpt lat="44.43636" lon="1.04314">
        <ele>219</ele>
        <time>2012-04-01T07:47:29Z</time>
      </trkpt>
      <trkpt lat="44.4364" lon="1.04317">
        <ele>219</ele>
        <time>2012-04-01T07:47:30Z</time>
      </trkpt>
      <trkpt lat="44.43643" lon="1.04319">
        <ele>219</ele>
        <time>2012-04-01T07:47:31Z</time>
      </trkpt>
      <trkpt lat="44.43647" lon="1.04321">
        <ele>219</ele>
        <time>2012-04-01T07:47:32Z</time>
      </trkpt>
      <trkpt lat="44.4365" lon="1.04323">
        <ele>219</ele>
        <time>2012-04-01T07:47:33Z</time>
      </trkpt>
      <trkpt lat="44.43654" lon="1.04324">
        <ele>219</ele>
        <time>2012-04-01T07:47:34Z</time>
      </trkpt>
      <trkpt lat="44.43658" lon="1.04326">
        <ele>219</ele>
        <time>2012-04-01T07:47:35Z</time>
      </trkpt>
      <trkpt lat="44.43663" lon="1.04328">
        <ele>219</ele>
        <time>2012-04-01T07:47:36Z</time>
      </trkpt>
      <trkpt lat="44.43668" lon="1.0433">
        <ele>219</ele>
        <time>2012-04-01T07:47:37Z</time>
      </trkpt>
      <trkpt lat="44.43674" lon="1.04332">
        <ele>219</ele>
        <time>2012-04-01T07:47:38Z</time>
      </trkpt>
      <trkpt lat="44.4368" lon="1.04334">
        <ele>219</ele>
        <time>2012-04-01T07:47:39Z</time>
      </trkpt>
      <trkpt lat="44.43687" lon="1.04336">
        <ele>219</ele>
        <time>2012-04-01T07:47:40Z</time>
      </trkpt>
      <trkpt lat="44.43694" lon="1.04338">
        <ele>219</ele>
        <time>2012-04-01T07:47:41Z</time>
      </trkpt>
      <trkpt lat="44.43701" lon="1.04341">
        <ele>219</ele>
        <time>2012-04-01T07:47:42Z</time>
      </trkpt>
      <trkpt lat="44.43709" lon="1.04343">
        <ele>219</ele>
        <time>2012-04-01T07:47:43Z</time>
      </trkpt>
      <trkpt lat="44.43718" lon="1.04346">
        <ele>219</ele>
        <time>2012-04-01T07:47:44Z</time>
      </trkpt>
      <trkpt lat="44.43727" lon="1.04348">
        <ele>218</ele>
        <time>2012-04-01T07:47:45Z</time>
      </trkpt>
      <trkpt lat="44.43737" lon="1.04351">
        <ele>217</ele>
        <time>2012-04-01T07:47:46Z</time>
      </trkpt>
      <trkpt lat="44.43747" lon="1.04353">
        <ele>216</ele>
        <time>2012-04-01T07:47:47Z</time>
      </trkpt>
      <trkpt lat="44.43757" lon="1.04356">
        <ele>215</ele>
        <time>2012-04-01T07:47:48Z</time>
      </trkpt>
      <trkpt lat="44.43768" lon="1.04358">
        <ele>214</ele>
        <time>2012-04-01T07:47:49Z</time>
      </trkpt>
      <trkpt lat="44.43779" lon="1.0436">
        <ele>214</ele>
        <time>2012-04-01T07:47:50Z</time>
      </trkpt>
      <trkpt lat="44.4379" lon="1.04363">
        <ele>213</ele>
        <time>2012-04-01T07:47:51Z</time>
      </trkpt>
      <trkpt lat="44.438" lon="1.04366">
        <ele>212</ele>
        <time>2012-04-01T07:47:52Z</time>
      </trkpt>
      <trkpt lat="44.43812" lon="1.04367">
        <ele>211</ele>
        <time>2012-04-01T07:47:53Z</time>
      </trkpt>
      <trkpt lat="44.43823" lon="1.04368">
        <ele>210</ele>
        <time>2012-04-01T07:47:54Z</time>
      </trkpt>
      <trkpt lat="44.43834" lon="1.0437">
        <ele>209</ele>
        <time>2012-04-01T07:47:55Z</time>
      </trkpt>
      <trkpt lat="44.43845" lon="1.04373">
        <ele>208</ele>
        <time>2012-04-01T07:47:56Z</time>
      </trkpt>
      <trkpt lat="44.43855" lon="1.04377">
        <ele>207</ele>
        <time>2012-04-01T07:47:57Z</time>
      </trkpt>
      <trkpt lat="44.43866" lon="1.04382">
        <ele>206</ele>
        <time>2012-04-01T07:47:58Z</time>
      </trkpt>
      <trkpt lat="44.43876" lon="1.04387">
        <ele>205</ele>
        <time>2012-04-01T07:47:59Z</time>
      </trkpt>
      <trkpt lat="44.43886" lon="1.04392">
        <ele>204</ele>
        <time>2012-04-01T07:48:00Z</time>
      </trkpt>
      <trkpt lat="44.43896" lon="1.04397">
        <ele>204</ele>
        <time>2012-04-01T07:48:01Z</time>
      </trkpt>
      <trkpt lat="44.43906" lon="1.04403">
        <ele>204</ele>
        <time>2012-04-01T07:48:02Z</time>
      </trkpt>
      <trkpt lat="44.43915" lon="1.0441">
        <ele>204</ele>
        <time>2012-04-01T07:48:03Z</time>
      </trkpt>
      <trkpt lat="44.43924" lon="1.04417">
        <ele>204</ele>
        <time>2012-04-01T07:48:04Z</time>
      </trkpt>
      <trkpt lat="44.43931" lon="1.04425">
        <ele>204</ele>
        <time>2012-04-01T07:48:05Z</time>
      </trkpt>
      <trkpt lat="44.43938" lon="1.04432">
        <ele>204</ele>
        <time>2012-04-01T07:48:06Z</time>
      </trkpt>
      <trkpt lat="44.43944" lon="1.0444">
        <ele>204</ele>
        <time>2012-04-01T07:48:07Z</time>
      </trkpt>
      <trkpt lat="44.4395" lon="1.04447">
        <ele>204</ele>
        <time>2012-04-01T07:48:08Z</time>
      </trkpt>
      <trkpt lat="44.43954" lon="1.04454">
        <ele>204</ele>
        <time>2012-04-01T07:48:09Z</time>
      </trkpt>
      <trkpt lat="44.43959" lon="1.04461">
        <ele>204</ele>
        <time>2012-04-01T07:48:10Z</time>
      </trkpt>
      <trkpt lat="44.43964" lon="1.04467">
        <ele>204</ele>
        <time>2012-04-01T07:48:11Z</time>
      </trkpt>
      <trkpt lat="44.43968" lon="1.04474">
        <ele>204</ele>
        <time>2012-04-01T07:48:12Z</time>
      </trkpt>
      <trkpt lat="44.43972" lon="1.04481">
        <ele>204</ele>
        <time>2012-04-01T07:48:13Z</time>
      </trkpt>
      <trkpt lat="44.43975" lon="1.04488">
        <ele>204</ele>
        <time>2012-04-01T07:48:14Z</time>
      </trkpt>
      <trkpt lat="44.43978" lon="1.04495">
        <ele>204</ele>
        <time>2012-04-01T07:48:15Z</time>
      </trkpt>
      <trkpt lat="44.43981" lon="1.04503">
        <ele>204</ele>
        <time>2012-04-01T07:48:16Z</time>
      </trkpt>
      <trkpt lat="44.43983" lon="1.04511">
        <ele>204</ele>
        <time>2012-04-01T07:48:17Z</time>
      </trkpt>
      <trkpt lat="44.43985" lon="1.04521">
        <ele>204</ele>
        <time>2012-04-01T07:48:18Z</time>
      </trkpt>
      <trkpt lat="44.43988" lon="1.0453">
        <ele>204</ele>
        <time>2012-04-01T07:48:19Z</time>
      </trkpt>
      <trkpt lat="44.4399" lon="1.0454">
        <ele>204</ele>
        <time>2012-04-01T07:48:20Z</time>
      </trkpt>
      <trkpt lat="44.43992" lon="1.04549">
        <ele>204</ele>
        <time>2012-04-01T07:48:21Z</time>
      </trkpt>
      <trkpt lat="44.43995" lon="1.04558">
        <ele>204</ele>
        <time>2012-04-01T07:48:22Z</time>
      </trkpt>
      <trkpt lat="44.43996" lon="1.04567">
        <ele>204</ele>
        <time>2012-04-01T07:48:23Z</time>
      </trkpt>
      <trkpt lat="44.43998" lon="1.04576">
        <ele>204</ele>
        <time>2012-04-01T07:48:24Z</time>
      </trkpt>
      <trkpt lat="44.43999" lon="1.04584">
        <ele>204</ele>
        <time>2012-04-01T07:48:25Z</time>
      </trkpt>
      <trkpt lat="44.44001" lon="1.04591">
        <ele>204</ele>
        <time>2012-04-01T07:48:26Z</time>
      </trkpt>
      <trkpt lat="44.44003" lon="1.04598">
        <ele>204</ele>
        <time>2012-04-01T07:48:27Z</time>
      </trkpt>
      <trkpt lat="44.44005" lon="1.04605">
        <ele>204</ele>
        <time>2012-04-01T07:48:28Z</time>
      </trkpt>
      <trkpt lat="44.44008" lon="1.04611">
        <ele>204</ele>
        <time>2012-04-01T07:48:29Z</time>
      </trkpt>
      <trkpt lat="44.44012" lon="1.04614">
        <ele>204</ele>
        <time>2012-04-01T07:48:30Z</time>
      </trkpt>
      <trkpt lat="44.44017" lon="1.04615">
        <ele>204</ele>
        <time>2012-04-01T07:48:31Z</time>
      </trkpt>
      <trkpt lat="44.44022" lon="1.04613">
        <ele>204</ele>
        <time>2012-04-01T07:48:32Z</time>
      </trkpt>
      <trkpt lat="44.44027" lon="1.04611">
        <ele>204</ele>
        <time>2012-04-01T07:48:33Z</time>
      </trkpt>
      <trkpt lat="44.44032" lon="1.04607">
        <ele>204</ele>
        <time>2012-04-01T07:48:34Z</time>
      </trkpt>
      <trkpt lat="44.44037" lon="1.04604">
        <ele>204</ele>
        <time>2012-04-01T07:48:35Z</time>
      </trkpt>
      <trkpt lat="44.44042" lon="1.04601">
        <ele>204</ele>
        <time>2012-04-01T07:48:36Z</time>
      </trkpt>
      <trkpt lat="44.44048" lon="1.04597">
        <ele>204</ele>
        <time>2012-04-01T07:48:37Z</time>
      </trkpt>
      <trkpt lat="44.44053" lon="1.04594">
        <ele>204</ele>
        <time>2012-04-01T07:48:38Z</time>
      </trkpt>
      <trkpt lat="44.44058" lon="1.0459">
        <ele>204</ele>
        <time>2012-04-01T07:48:39Z</time>
      </trkpt>
      <trkpt lat="44.44063" lon="1.04587">
        <ele>204</ele>
        <time>2012-04-01T07:48:40Z</time>
      </trkpt>
      <trkpt lat="44.44069" lon="1.04584">
        <ele>204</ele>
        <time>2012-04-01T07:48:41Z</time>
      </trkpt>
      <trkpt lat="44.44073" lon="1.0458">
        <ele>204</ele>
        <time>2012-04-01T07:48:42Z</time>
      </trkpt>
      <trkpt lat="44.44078" lon="1.04576">
        <ele>204</ele>
        <time>2012-04-01T07:48:43Z</time>
      </trkpt>
      <trkpt lat="44.44083" lon="1.04573">
        <ele>204</ele>
        <time>2012-04-01T07:48:44Z</time>
      </trkpt>
      <trkpt lat="44.44087" lon="1.04572">
        <ele>204</ele>
        <time>2012-04-01T07:48:45Z</time>
      </trkpt>
      <trkpt lat="44.44091" lon="1.04573">
        <ele>204</ele>
        <time>2012-04-01T07:48:46Z</time>
      </trkpt>
      <trkpt lat="44.44094" lon="1.04577">
        <ele>204</ele>
        <time>2012-04-01T07:48:47Z</time>
      </trkpt>
      <trkpt lat="44.44096" lon="1.04583">
        <ele>204</ele>
        <time>2012-04-01T07:48:48Z</time>
      </trkpt>
      <trkpt lat="44.44097" lon="1.0459">
        <ele>204</ele>
        <time>2012-04-01T07:48:49Z</time>
      </trkpt>
      <trkpt lat="44.44098" lon="1.04598">
        <ele>204</ele>
        <time>2012-04-01T07:48:50Z</time>
      </trkpt>
      <trkpt lat="44.44098" lon="1.04606">
        <ele>204</ele>
        <time>2012-04-01T07:48:51Z</time>
      </trkpt>
      <trkpt lat="44.441" lon="1.04614">
        <ele>204</ele>
        <time>2012-04-01T07:48:52Z</time>
      </trkpt>
      <trkpt lat="44.44101" lon="1.04623">
        <ele>204</ele>
        <time>2012-04-01T07:48:53Z</time>
      </trkpt>
      <trkpt lat="44.44103" lon="1.04632">
        <ele>204</ele>
        <time>2012-04-01T07:48:54Z</time>
      </trkpt>
      <trkpt lat="44.44104" lon="1.04641">
        <ele>204</ele>
        <time>2012-04-01T07:48:55Z</time>
      </trkpt>
      <trkpt lat="44.44106" lon="1.0465">
        <ele>204</ele>
        <time>2012-04-01T07:48:56Z</time>
      </trkpt>
      <trkpt lat="44.44106" lon="1.04659">
        <ele>204</ele>
        <time>2012-04-01T07:48:57Z</time>
      </trkpt>
      <trkpt lat="44.44107" lon="1.04668">
        <ele>204</ele>
        <time>2012-04-01T07:48:58Z</time>
      </trkpt>
      <trkpt lat="44.44107" lon="1.04677">
        <ele>204</ele>
        <time>2012-04-01T07:48:59Z</time>
      </trkpt>
      <trkpt lat="44.44107" lon="1.04685">
        <ele>204</ele>
        <time>2012-04-01T07:49:00Z</time>
      </trkpt>
      <trkpt lat="44.44107" lon="1.04693">
        <ele>204</ele>
        <time>2012-04-01T07:49:01Z</time>
      </trkpt>
      <trkpt lat="44.44107" lon="1.047">
        <ele>204</ele>
        <time>2012-04-01T07:49:02Z</time>
      </trkpt>
      <trkpt lat="44.44108" lon="1.04707">
        <ele>204</ele>
        <time>2012-04-01T07:49:03Z</time>
      </trkpt>
      <trkpt lat="44.44111" lon="1.04714">
        <ele>204</ele>
        <time>2012-04-01T07:49:04Z</time>
      </trkpt>
      <trkpt lat="44.44115" lon="1.04721">
        <ele>204</ele>
        <time>2012-04-01T07:49:05Z</time>
      </trkpt>
      <trkpt lat="44.44119" lon="1.04728">
        <ele>204</ele>
        <time>2012-04-01T07:49:06Z</time>
      </trkpt>
      <trkpt lat="44.44125" lon="1.04734">
        <ele>204</ele>
        <time>2012-04-01T07:49:07Z</time>
      </trkpt>
      <trkpt lat="44.44131" lon="1.04741">
        <ele>204</ele>
        <time>2012-04-01T07:49:08Z</time>
      </trkpt>
      <trkpt lat="44.44136" lon="1.04748">
        <ele>204</ele>
        <time>2012-04-01T07:49:09Z</time>
      </trkpt>
      <trkpt lat="44.44141" lon="1.04755">
        <ele>204</ele>
        <time>2012-04-01T07:49:10Z</time>
      </trkpt>
      <trkpt lat="44.44146" lon="1.04762">
        <ele>204</ele>
        <time>2012-04-01T07:49:11Z</time>
      </trkpt>
      <trkpt lat="44.44151" lon="1.0477">
        <ele>204</ele>
        <time>2012-04-01T07:49:12Z</time>
      </trkpt>
      <trkpt lat="44.44156" lon="1.04777">
        <ele>204</ele>
        <time>2012-04-01T07:49:13Z</time>
      </trkpt>
      <trkpt lat="44.44161" lon="1.04784">
        <ele>204</ele>
        <time>2012-04-01T07:49:14Z</time>
      </trkpt>
      <trkpt lat="44.44165" lon="1.04791">
        <ele>204</ele>
        <time>2012-04-01T07:49:15Z</time>
      </trkpt>
      <trkpt lat="44.4417" lon="1.04798">
        <ele>204</ele>
        <time>2012-04-01T07:49:16Z</time>
      </trkpt>
      <trkpt lat="44.44174" lon="1.04805">
        <ele>204</ele>
        <time>2012-04-01T07:49:17Z</time>
      </trkpt>
      <trkpt lat="44.44179" lon="1.04812">
        <ele>204</ele>
        <time>2012-04-01T07:49:18Z</time>
      </trkpt>
      <trkpt lat="44.44183" lon="1.04818">
        <ele>204</ele>
        <time>2012-04-01T07:49:19Z</time>
      </trkpt>
      <trkpt lat="44.44188" lon="1.04825">
        <ele>204</ele>
        <time>2012-04-01T07:49:20Z</time>
      </trkpt>
      <trkpt lat="44.44192" lon="1.04833">
        <ele>204</ele>
        <time>2012-04-01T07:49:21Z</time>
      </trkpt>
      <trkpt lat="44.44196" lon="1.0484">
        <ele>204</ele>
        <time>2012-04-01T07:49:22Z</time>
      </trkpt>
      <trkpt lat="44.44201" lon="1.04848">
        <ele>204</ele>
        <time>2012-04-01T07:49:23Z</time>
      </trkpt>
      <trkpt lat="44.44205" lon="1.04855">
        <ele>204</ele>
        <time>2012-04-01T07:49:24Z</time>
      </trkpt>
      <trkpt lat="44.44209" lon="1.04862">
        <ele>204</ele>
        <time>2012-04-01T07:49:25Z</time>
      </trkpt>
      <trkpt lat="44.44213" lon="1.04869">
        <ele>204</ele>
        <time>2012-04-01T07:49:26Z</time>
      </trkpt>
      <trkpt lat="44.44217" lon="1.04877">
        <ele>204</ele>
        <time>2012-04-01T07:49:27Z</time>
      </trkpt>
      <trkpt lat="44.44221" lon="1.04884">
        <ele>204</ele>
        <time>2012-04-01T07:49:28Z</time>
      </trkpt>
      <trkpt lat="44.44225" lon="1.04891">
        <ele>204</ele>
        <time>2012-04-01T07:49:29Z</time>
      </trkpt>
      <trkpt lat="44.44228" lon="1.04898">
        <ele>204</ele>
        <time>2012-04-01T07:49:30Z</time>
      </trkpt>
      <trkpt lat="44.44232" lon="1.04905">
        <ele>204</ele>
        <time>2012-04-01T07:49:31Z</time>
      </trkpt>
      <trkpt lat="44.44235" lon="1.04912">
        <ele>204</ele>
        <time>2012-04-01T07:49:32Z</time>
      </trkpt>
      <trkpt lat="44.44238" lon="1.04919">
        <ele>204</ele>
        <time>2012-04-01T07:49:33Z</time>
      </trkpt>
      <trkpt lat="44.44241" lon="1.04927">
        <ele>204</ele>
        <time>2012-04-01T07:49:34Z</time>
      </trkpt>
      <trkpt lat="44.44242" lon="1.04935">
        <ele>204</ele>
        <time>2012-04-01T07:49:35Z</time>
      </trkpt>
      <trkpt lat="44.44244" lon="1.04943">
        <ele>205</ele>
        <time>2012-04-01T07:49:36Z</time>
      </trkpt>
      <trkpt lat="44.44246" lon="1.04949">
        <ele>205</ele>
        <time>2012-04-01T07:49:37Z</time>
      </trkpt>
      <trkpt lat="44.44247" lon="1.04956">
        <ele>205</ele>
        <time>2012-04-01T07:49:38Z</time>
      </trkpt>
      <trkpt lat="44.44249" lon="1.04962">
        <ele>206</ele>
        <time>2012-04-01T07:49:39Z</time>
      </trkpt>
      <trkpt lat="44.4425" lon="1.04969">
        <ele>206</ele>
        <time>2012-04-01T07:49:40Z</time>
      </trkpt>
      <trkpt lat="44.44251" lon="1.04977">
        <ele>206</ele>
        <time>2012-04-01T07:49:41Z</time>
      </trkpt>
      <trkpt lat="44.44252" lon="1.04984">
        <ele>206</ele>
        <time>2012-04-01T07:49:42Z</time>
      </trkpt>
      <trkpt lat="44.44252" lon="1.04991">
        <ele>206</ele>
        <time>2012-04-01T07:49:43Z</time>
      </trkpt>
      <trkpt lat="44.44253" lon="1.04998">
        <ele>206</ele>
        <time>2012-04-01T07:49:44Z</time>
      </trkpt>
      <trkpt lat="44.44254" lon="1.05004">
        <ele>206</ele>
        <time>2012-04-01T07:49:45Z</time>
      </trkpt>
      <trkpt lat="44.44254" lon="1.05011">
        <ele>206</ele>
        <time>2012-04-01T07:49:46Z</time>
      </trkpt>
      <trkpt lat="44.44255" lon="1.05018">
        <ele>206</ele>
        <time>2012-04-01T07:49:47Z</time>
      </trkpt>
      <trkpt lat="44.44255" lon="1.05024">
        <ele>206</ele>
        <time>2012-04-01T07:49:48Z</time>
      </trkpt>
      <trkpt lat="44.44256" lon="1.05031">
        <ele>206</ele>
        <time>2012-04-01T07:49:49Z</time>
      </trkpt>
      <trkpt lat="44.44257" lon="1.05038">
        <ele>206</ele>
        <time>2012-04-01T07:49:50Z</time>
      </trkpt>
      <trkpt lat="44.44257" lon="1.05045">
        <ele>206</ele>
        <time>2012-04-01T07:49:51Z</time>
      </trkpt>
      <trkpt lat="44.44258" lon="1.05053">
        <ele>206</ele>
        <time>2012-04-01T07:49:52Z</time>
      </trkpt>
      <trkpt lat="44.44259" lon="1.05061">
        <ele>206</ele>
        <time>2012-04-01T07:49:53Z</time>
      </trkpt>
      <trkpt lat="44.4426" lon="1.05069">
        <ele>206</ele>
        <time>2012-04-01T07:49:54Z</time>
      </trkpt>
      <trkpt lat="44.4426" lon="1.05077">
        <ele>206</ele>
        <time>2012-04-01T07:49:55Z</time>
      </trkpt>
      <trkpt lat="44.4426" lon="1.05085">
        <ele>206</ele>
        <time>2012-04-01T07:49:56Z</time>
      </trkpt>
      <trkpt lat="44.4426" lon="1.05093">
        <ele>206</ele>
        <time>2012-04-01T07:49:57Z</time>
      </trkpt>
      <trkpt lat="44.44261" lon="1.051">
        <ele>206</ele>
        <time>2012-04-01T07:49:58Z</time>
      </trkpt>
      <trkpt lat="44.44263" lon="1.05107">
        <ele>206</ele>
        <time>2012-04-01T07:49:59Z</time>
      </trkpt>
      <trkpt lat="44.44265" lon="1.05114">
        <ele>206</ele>
        <time>2012-04-01T07:50:00Z</time>
      </trkpt>
      <trkpt lat="44.44267" lon="1.05122">
        <ele>206</ele>
        <time>2012-04-01T07:50:01Z</time>
      </trkpt>
      <trkpt lat="44.44269" lon="1.05128">
        <ele>206</ele>
        <time>2012-04-01T07:50:02Z</time>
      </trkpt>
      <trkpt lat="44.44271" lon="1.05134">
        <ele>206</ele>
        <time>2012-04-01T07:50:03Z</time>
      </trkpt>
      <trkpt lat="44.44273" lon="1.05141">
        <ele>206</ele>
        <time>2012-04-01T07:50:04Z</time>
      </trkpt>
      <trkpt lat="44.44275" lon="1.05148">
        <ele>206</ele>
        <time>2012-04-01T07:50:05Z</time>
      </trkpt>
      <trkpt lat="44.44278" lon="1.05155">
        <ele>206</ele>
        <time>2012-04-01T07:50:06Z</time>
      </trkpt>
      <trkpt lat="44.4428" lon="1.05161">
        <ele>206</ele>
        <time>2012-04-01T07:50:07Z</time>
      </trkpt>
      <trkpt lat="44.44282" lon="1.05168">
        <ele>206</ele>
        <time>2012-04-01T07:50:08Z</time>
      </trkpt>
      <trkpt lat="44.44283" lon="1.05175">
        <ele>206</ele>
        <time>2012-04-01T07:50:09Z</time>
      </trkpt>
      <trkpt lat="44.44284" lon="1.05182">
        <ele>206</ele>
        <time>2012-04-01T07:50:10Z</time>
      </trkpt>
      <trkpt lat="44.44285" lon="1.05187">
        <ele>206</ele>
        <time>2012-04-01T07:50:11Z</time>
      </trkpt>
      <trkpt lat="44.44286" lon="1.05191">
        <ele>207</ele>
        <time>2012-04-01T07:50:12Z</time>
      </trkpt>
      <trkpt lat="44.44287" lon="1.05193">
        <ele>207</ele>
        <time>2012-04-01T07:50:13Z</time>
      </trkpt>
      <trkpt lat="44.44289" lon="1.05193">
        <ele>207</ele>
        <time>2012-04-01T07:50:14Z</time>
      </trkpt>
      <trkpt lat="44.44291" lon="1.05193">
        <ele>207</ele>
        <time>2012-04-01T07:50:15Z</time>
      </trkpt>
      <trkpt lat="44.44293" lon="1.05193">
        <ele>207</ele>
        <time>2012-04-01T07:50:16Z</time>
      </trkpt>
      <trkpt lat="44.44295" lon="1.05192">
        <ele>207</ele>
        <time>2012-04-01T07:50:17Z</time>
      </trkpt>
      <trkpt lat="44.44299" lon="1.0519">
        <ele>207</ele>
        <time>2012-04-01T07:50:18Z</time>
      </trkpt>
      <trkpt lat="44.44303" lon="1.05187">
        <ele>207</ele>
        <time>2012-04-01T07:50:19Z</time>
      </trkpt>
      <trkpt lat="44.44308" lon="1.05185">
        <ele>207</ele>
        <time>2012-04-01T07:50:20Z</time>
      </trkpt>
      <trkpt lat="44.44314" lon="1.05182">
        <ele>207</ele>
        <time>2012-04-01T07:50:21Z</time>
      </trkpt>
      <trkpt lat="44.44319" lon="1.05179">
        <ele>207</ele>
        <time>2012-04-01T07:50:22Z</time>
      </trkpt>
      <trkpt lat="44.44325" lon="1.05176">
        <ele>207</ele>
        <time>2012-04-01T07:50:23Z</time>
      </trkpt>
      <trkpt lat="44.44331" lon="1.05172">
        <ele>207</ele>
        <time>2012-04-01T07:50:24Z</time>
      </trkpt>
      <trkpt lat="44.44338" lon="1.05168">
        <ele>207</ele>
        <time>2012-04-01T07:50:25Z</time>
      </trkpt>
      <trkpt lat="44.44345" lon="1.05165">
        <ele>207</ele>
        <time>2012-04-01T07:50:26Z</time>
      </trkpt>
      <trkpt lat="44.44352" lon="1.05163">
        <ele>207</ele>
        <time>2012-04-01T07:50:27Z</time>
      </trkpt>
      <trkpt lat="44.44358" lon="1.05159">
        <ele>207</ele>
        <time>2012-04-01T07:50:28Z</time>
      </trkpt>
      <trkpt lat="44.44365" lon="1.05156">
        <ele>207</ele>
        <time>2012-04-01T07:50:29Z</time>
      </trkpt>
      <trkpt lat="44.44372" lon="1.05153">
        <ele>207</ele>
        <time>2012-04-01T07:50:30Z</time>
      </trkpt>
      <trkpt lat="44.44378" lon="1.0515">
        <ele>207</ele>
        <time>2012-04-01T07:50:31Z</time>
      </trkpt>
      <trkpt lat="44.44384" lon="1.05147">
        <ele>207</ele>
        <time>2012-04-01T07:50:32Z</time>
      </trkpt>
      <trkpt lat="44.44389" lon="1.05144">
        <ele>206</ele>
        <time>2012-04-01T07:50:33Z</time>
      </trkpt>
      <trkpt lat="44.44395" lon="1.05142">
        <ele>206</ele>
        <time>2012-04-01T07:50:34Z</time>
      </trkpt>
      <trkpt lat="44.44403" lon="1.05137">
        <ele>206</ele>
        <time>2012-04-01T07:50:35Z</time>
      </trkpt>
      <trkpt lat="44.4441" lon="1.05136">
        <ele>206</ele>
        <time>2012-04-01T07:50:36Z</time>
      </trkpt>
      <trkpt lat="44.44416" lon="1.05137">
        <ele>206</ele>
        <time>2012-04-01T07:50:37Z</time>
      </trkpt>
      <trkpt lat="44.44422" lon="1.05137">
        <ele>206</ele>
        <time>2012-04-01T07:50:38Z</time>
      </trkpt>
      <trkpt lat="44.44427" lon="1.05136">
        <ele>206</ele>
        <time>2012-04-01T07:50:39Z</time>
      </trkpt>
      <trkpt lat="44.44431" lon="1.05131">
        <ele>206</ele>
        <time>2012-04-01T07:50:40Z</time>
      </trkpt>
      <trkpt lat="44.44434" lon="1.05125">
        <ele>206</ele>
        <time>2012-04-01T07:50:41Z</time>
      </trkpt>
      <trkpt lat="44.44436" lon="1.0512">
        <ele>206</ele>
        <time>2012-04-01T07:50:42Z</time>
      </trkpt>
      <trkpt lat="44.4444" lon="1.05114">
        <ele>206</ele>
        <time>2012-04-01T07:50:43Z</time>
      </trkpt>
      <trkpt lat="44.44444" lon="1.05107">
        <ele>206</ele>
        <time>2012-04-01T07:50:44Z</time>
      </trkpt>
      <trkpt lat="44.44448" lon="1.051">
        <ele>206</ele>
        <time>2012-04-01T07:50:45Z</time>
      </trkpt>
      <trkpt lat="44.44455" lon="1.0509">
        <ele>206</ele>
        <time>2012-04-01T07:50:46Z</time>
      </trkpt>
      <trkpt lat="44.44461" lon="1.05082">
        <ele>206</ele>
        <time>2012-04-01T07:50:47Z</time>
      </trkpt>
      <trkpt lat="44.44466" lon="1.05073">
        <ele>206</ele>
        <time>2012-04-01T07:50:48Z</time>
      </trkpt>
      <trkpt lat="44.44471" lon="1.05065">
        <ele>206</ele>
        <time>2012-04-01T07:50:49Z</time>
      </trkpt>
      <trkpt lat="44.44477" lon="1.05055">
        <ele>206</ele>
        <time>2012-04-01T07:50:50Z</time>
      </trkpt>
      <trkpt lat="44.44482" lon="1.05046">
        <ele>206</ele>
        <time>2012-04-01T07:50:51Z</time>
      </trkpt>
      <trkpt lat="44.44487" lon="1.05037">
        <ele>206</ele>
        <time>2012-04-01T07:50:52Z</time>
      </trkpt>
      <trkpt lat="44.44492" lon="1.05029">
        <ele>206</ele>
        <time>2012-04-01T07:50:53Z</time>
      </trkpt>
      <trkpt lat="44.44496" lon="1.05021">
        <ele>206</ele>
        <time>2012-04-01T07:50:54Z</time>
      </trkpt>
      <trkpt lat="44.44499" lon="1.05013">
        <ele>206</ele>
        <time>2012-04-01T07:50:55Z</time>
      </trkpt>
      <trkpt lat="44.44504" lon="1.05005">
        <ele>206</ele>
        <time>2012-04-01T07:50:56Z</time>
      </trkpt>
      <trkpt lat="44.44509" lon="1.04996">
        <ele>206</ele>
        <time>2012-04-01T07:50:57Z</time>
      </trkpt>
      <trkpt lat="44.44513" lon="1.04987">
        <ele>206</ele>
        <time>2012-04-01T07:50:58Z</time>
      </trkpt>
      <trkpt lat="44.44519" lon="1.04977">
        <ele>206</ele>
        <time>2012-04-01T07:50:59Z</time>
      </trkpt>
      <trkpt lat="44.44523" lon="1.04969">
        <ele>206</ele>
        <time>2012-04-01T07:51:00Z</time>
      </trkpt>
      <trkpt lat="44.44529" lon="1.0496">
        <ele>206</ele>
        <time>2012-04-01T07:51:01Z</time>
      </trkpt>
      <trkpt lat="44.44534" lon="1.04951">
        <ele>206</ele>
        <time>2012-04-01T07:51:02Z</time>
      </trkpt>
      <trkpt lat="44.4454" lon="1.04941">
        <ele>205</ele>
        <time>2012-04-01T07:51:03Z</time>
      </trkpt>
      <trkpt lat="44.44545" lon="1.04933">
        <ele>204</ele>
        <time>2012-04-01T07:51:04Z</time>
      </trkpt>
      <trkpt lat="44.4455" lon="1.04926">
        <ele>204</ele>
        <time>2012-04-01T07:51:05Z</time>
      </trkpt>
      <trkpt lat="44.44554" lon="1.04918">
        <ele>203</ele>
        <time>2012-04-01T07:51:06Z</time>
      </trkpt>
      <trkpt lat="44.44558" lon="1.04912">
        <ele>202</ele>
        <time>2012-04-01T07:51:07Z</time>
      </trkpt>
      <trkpt lat="44.44562" lon="1.04905">
        <ele>202</ele>
        <time>2012-04-01T07:51:08Z</time>
      </trkpt>
      <trkpt lat="44.44567" lon="1.04899">
        <ele>202</ele>
        <time>2012-04-01T07:51:09Z</time>
      </trkpt>
      <trkpt lat="44.4457" lon="1.04894">
        <ele>202</ele>
        <time>2012-04-01T07:51:10Z</time>
      </trkpt>
      <trkpt lat="44.44573" lon="1.04891">
        <ele>202</ele>
        <time>2012-04-01T07:51:11Z</time>
      </trkpt>
      <trkpt lat="44.44577" lon="1.04888">
        <ele>201</ele>
        <time>2012-04-01T07:51:12Z</time>
      </trkpt>
      <trkpt lat="44.44582" lon="1.04885">
        <ele>201</ele>
        <time>2012-04-01T07:51:13Z</time>
      </trkpt>
      <trkpt lat="44.44587" lon="1.04883">
        <ele>200</ele>
        <time>2012-04-01T07:51:14Z</time>
      </trkpt>
      <trkpt lat="44.44592" lon="1.04881">
        <ele>200</ele>
        <time>2012-04-01T07:51:15Z</time>
      </trkpt>
      <trkpt lat="44.44598" lon="1.0488">
        <ele>200</ele>
        <time>2012-04-01T07:51:16Z</time>
      </trkpt>
      <trkpt lat="44.44603" lon="1.04878">
        <ele>200</ele>
        <time>2012-04-01T07:51:17Z</time>
      </trkpt>
      <trkpt lat="44.44609" lon="1.04876">
        <ele>200</ele>
        <time>2012-04-01T07:51:18Z</time>
      </trkpt>
      <trkpt lat="44.44615" lon="1.04874">
        <ele>200</ele>
        <time>2012-04-01T07:51:19Z</time>
      </trkpt>
      <trkpt lat="44.44621" lon="1.04873">
        <ele>200</ele>
        <time>2012-04-01T07:51:20Z</time>
      </trkpt>
      <trkpt lat="44.44628" lon="1.04871">
        <ele>200</ele>
        <time>2012-04-01T07:51:21Z</time>
      </trkpt>
      <trkpt lat="44.44635" lon="1.0487">
        <ele>200</ele>
        <time>2012-04-01T07:51:22Z</time>
      </trkpt>
      <trkpt lat="44.44642" lon="1.04869">
        <ele>200</ele>
        <time>2012-04-01T07:51:23Z</time>
      </trkpt>
      <trkpt lat="44.44649" lon="1.04868">
        <ele>200</ele>
        <time>2012-04-01T07:51:24Z</time>
      </trkpt>
      <trkpt lat="44.44655" lon="1.04869">
        <ele>200</ele>
        <time>2012-04-01T07:51:25Z</time>
      </trkpt>
      <trkpt lat="44.44662" lon="1.0487">
        <ele>200</ele>
        <time>2012-04-01T07:51:26Z</time>
      </trkpt>
      <trkpt lat="44.44669" lon="1.04871">
        <ele>200</ele>
        <time>2012-04-01T07:51:27Z</time>
      </trkpt>
      <trkpt lat="44.44675" lon="1.04874">
        <ele>200</ele>
        <time>2012-04-01T07:51:28Z</time>
      </trkpt>
      <trkpt lat="44.44682" lon="1.04877">
        <ele>200</ele>
        <time>2012-04-01T07:51:29Z</time>
      </trkpt>
      <trkpt lat="44.44688" lon="1.04881">
        <ele>200</ele>
        <time>2012-04-01T07:51:30Z</time>
      </trkpt>
      <trkpt lat="44.44695" lon="1.04885">
        <ele>200</ele>
        <time>2012-04-01T07:51:31Z</time>
      </trkpt>
      <trkpt lat="44.44701" lon="1.0489">
        <ele>200</ele>
        <time>2012-04-01T07:51:32Z</time>
      </trkpt>
      <trkpt lat="44.44707" lon="1.04894">
        <ele>200</ele>
        <time>2012-04-01T07:51:33Z</time>
      </trkpt>
      <trkpt lat="44.44713" lon="1.04899">
        <ele>200</ele>
        <time>2012-04-01T07:51:34Z</time>
      </trkpt>
      <trkpt lat="44.44719" lon="1.04903">
        <ele>200</ele>
        <time>2012-04-01T07:51:35Z</time>
      </trkpt>
      <trkpt lat="44.44725" lon="1.04907">
        <ele>200</ele>
        <time>2012-04-01T07:51:36Z</time>
      </trkpt>
      <trkpt lat="44.44732" lon="1.0491">
        <ele>200</ele>
        <time>2012-04-01T07:51:37Z</time>
      </trkpt>
      <trkpt lat="44.44739" lon="1.04911">
        <ele>200</ele>
        <time>2012-04-01T07:51:38Z</time>
      </trkpt>
      <trkpt lat="44.44746" lon="1.04911">
        <ele>200</ele>
        <time>2012-04-01T07:51:39Z</time>
      </trkpt>
      <trkpt lat="44.44754" lon="1.04911">
        <ele>200</ele>
        <time>2012-04-01T07:51:40Z</time>
      </trkpt>
      <trkpt lat="44.44762" lon="1.04909">
        <ele>200</ele>
        <time>2012-04-01T07:51:41Z</time>
      </trkpt>
      <trkpt lat="44.4477" lon="1.04908">
        <ele>200</ele>
        <time>2012-04-01T07:51:42Z</time>
      </trkpt>
      <trkpt lat="44.44778" lon="1.04905">
        <ele>200</ele>
        <time>2012-04-01T07:51:43Z</time>
      </trkpt>
      <trkpt lat="44.44787" lon="1.04903">
        <ele>200</ele>
        <time>2012-04-01T07:51:44Z</time>
      </trkpt>
      <trkpt lat="44.44796" lon="1.049">
        <ele>200</ele>
        <time>2012-04-01T07:51:45Z</time>
      </trkpt>
      <trkpt lat="44.44806" lon="1.04898">
        <ele>200</ele>
        <time>2012-04-01T07:51:46Z</time>
      </trkpt>
      <trkpt lat="44.44815" lon="1.04896">
        <ele>199</ele>
        <time>2012-04-01T07:51:47Z</time>
      </trkpt>
      <trkpt lat="44.44825" lon="1.04893">
        <ele>198</ele>
        <time>2012-04-01T07:51:48Z</time>
      </trkpt>
      <trkpt lat="44.44835" lon="1.0489">
        <ele>198</ele>
        <time>2012-04-01T07:51:49Z</time>
      </trkpt>
      <trkpt lat="44.44845" lon="1.04887">
        <ele>197</ele>
        <time>2012-04-01T07:51:50Z</time>
      </trkpt>
      <trkpt lat="44.44855" lon="1.04885">
        <ele>197</ele>
        <time>2012-04-01T07:51:51Z</time>
      </trkpt>
      <trkpt lat="44.44866" lon="1.04883">
        <ele>196</ele>
        <time>2012-04-01T07:51:52Z</time>
      </trkpt>
      <trkpt lat="44.44877" lon="1.04881">
        <ele>196</ele>
        <time>2012-04-01T07:51:53Z</time>
      </trkpt>
      <trkpt lat="44.44888" lon="1.04879">
        <ele>196</ele>
        <time>2012-04-01T07:51:54Z</time>
      </trkpt>
      <trkpt lat="44.44898" lon="1.04877">
        <ele>195</ele>
        <time>2012-04-01T07:51:55Z</time>
      </trkpt>
      <trkpt lat="44.44909" lon="1.04875">
        <ele>195</ele>
        <time>2012-04-01T07:51:56Z</time>
      </trkpt>
      <trkpt lat="44.44919" lon="1.04873">
        <ele>195</ele>
        <time>2012-04-01T07:51:57Z</time>
      </trkpt>
      <trkpt lat="44.4493" lon="1.04871">
        <ele>195</ele>
        <time>2012-04-01T07:51:58Z</time>
      </trkpt>
      <trkpt lat="44.44941" lon="1.04869">
        <ele>195</ele>
        <time>2012-04-01T07:51:59Z</time>
      </trkpt>
      <trkpt lat="44.44951" lon="1.04868">
        <ele>194</ele>
        <time>2012-04-01T07:52:00Z</time>
      </trkpt>
      <trkpt lat="44.44962" lon="1.04866">
        <ele>194</ele>
        <time>2012-04-01T07:52:01Z</time>
      </trkpt>
      <trkpt lat="44.44973" lon="1.04865">
        <ele>194</ele>
        <time>2012-04-01T07:52:02Z</time>
      </trkpt>
      <trkpt lat="44.44983" lon="1.04863">
        <ele>194</ele>
        <time>2012-04-01T07:52:03Z</time>
      </trkpt>
      <trkpt lat="44.44994" lon="1.04861">
        <ele>193</ele>
        <time>2012-04-01T07:52:04Z</time>
      </trkpt>
      <trkpt lat="44.45005" lon="1.0486">
        <ele>193</ele>
        <time>2012-04-01T07:52:05Z</time>
      </trkpt>
      <trkpt lat="44.45015" lon="1.04859">
        <ele>193</ele>
        <time>2012-04-01T07:52:06Z</time>
      </trkpt>
      <trkpt lat="44.45026" lon="1.04857">
        <ele>192</ele>
        <time>2012-04-01T07:52:07Z</time>
      </trkpt>
      <trkpt lat="44.45036" lon="1.04855">
        <ele>192</ele>
        <time>2012-04-01T07:52:08Z</time>
      </trkpt>
      <trkpt lat="44.45047" lon="1.04853">
        <ele>192</ele>
        <time>2012-04-01T07:52:09Z</time>
      </trkpt>
      <trkpt lat="44.45057" lon="1.04851">
        <ele>191</ele>
        <time>2012-04-01T07:52:10Z</time>
      </trkpt>
      <trkpt lat="44.45066" lon="1.0485">
        <ele>191</ele>
        <time>2012-04-01T07:52:11Z</time>
      </trkpt>
      <trkpt lat="44.45075" lon="1.04851">
        <ele>191</ele>
        <time>2012-04-01T07:52:12Z</time>
      </trkpt>
      <trkpt lat="44.45084" lon="1.04853">
        <ele>190</ele>
        <time>2012-04-01T07:52:13Z</time>
      </trkpt>
      <trkpt lat="44.45092" lon="1.04855">
        <ele>190</ele>
        <time>2012-04-01T07:52:14Z</time>
      </trkpt>
      <trkpt lat="44.451" lon="1.04857">
        <ele>190</ele>
        <time>2012-04-01T07:52:15Z</time>
      </trkpt>
      <trkpt lat="44.45108" lon="1.04857">
        <ele>190</ele>
        <time>2012-04-01T07:52:16Z</time>
      </trkpt>
      <trkpt lat="44.45116" lon="1.04857">
        <ele>190</ele>
        <time>2012-04-01T07:52:17Z</time>
      </trkpt>
      <trkpt lat="44.45123" lon="1.04855">
        <ele>190</ele>
        <time>2012-04-01T07:52:18Z</time>
      </trkpt>
      <trkpt lat="44.45129" lon="1.04851">
        <ele>190</ele>
        <time>2012-04-01T07:52:19Z</time>
      </trkpt>
      <trkpt lat="44.45135" lon="1.04847">
        <ele>190</ele>
        <time>2012-04-01T07:52:20Z</time>
      </trkpt>
      <trkpt lat="44.45141" lon="1.04844">
        <ele>190</ele>
        <time>2012-04-01T07:52:21Z</time>
      </trkpt>
      <trkpt lat="44.45148" lon="1.04841">
        <ele>190</ele>
        <time>2012-04-01T07:52:22Z</time>
      </trkpt>
      <trkpt lat="44.45155" lon="1.04839">
        <ele>190</ele>
        <time>2012-04-01T07:52:23Z</time>
      </trkpt>
      <trkpt lat="44.45162" lon="1.04837">
        <ele>190</ele>
        <time>2012-04-01T07:52:24Z</time>
      </trkpt>
      <trkpt lat="44.45169" lon="1.04834">
        <ele>190</ele>
        <time>2012-04-01T07:52:25Z</time>
      </trkpt>
      <trkpt lat="44.45176" lon="1.04831">
        <ele>190</ele>
        <time>2012-04-01T07:52:26Z</time>
      </trkpt>
      <trkpt lat="44.45184" lon="1.04827">
        <ele>190</ele>
        <time>2012-04-01T07:52:27Z</time>
      </trkpt>
      <trkpt lat="44.45191" lon="1.04824">
        <ele>190</ele>
        <time>2012-04-01T07:52:28Z</time>
      </trkpt>
      <trkpt lat="44.45198" lon="1.0482">
        <ele>190</ele>
        <time>2012-04-01T07:52:29Z</time>
      </trkpt>
      <trkpt lat="44.45206" lon="1.04816">
        <ele>190</ele>
        <time>2012-04-01T07:52:30Z</time>
      </trkpt>
      <trkpt lat="44.45213" lon="1.04813">
        <ele>190</ele>
        <time>2012-04-01T07:52:31Z</time>
      </trkpt>
      <trkpt lat="44.45221" lon="1.0481">
        <ele>190</ele>
        <time>2012-04-01T07:52:32Z</time>
      </trkpt>
      <trkpt lat="44.45227" lon="1.04807">
        <ele>190</ele>
        <time>2012-04-01T07:52:33Z</time>
      </trkpt>
      <trkpt lat="44.45234" lon="1.04804">
        <ele>190</ele>
        <time>2012-04-01T07:52:34Z</time>
      </trkpt>
      <trkpt lat="44.45241" lon="1.04801">
        <ele>190</ele>
        <time>2012-04-01T07:52:35Z</time>
      </trkpt>
      <trkpt lat="44.45249" lon="1.04797">
        <ele>190</ele>
        <time>2012-04-01T07:52:36Z</time>
      </trkpt>
      <trkpt lat="44.45255" lon="1.04795">
        <ele>190</ele>
        <time>2012-04-01T07:52:37Z</time>
      </trkpt>
      <trkpt lat="44.45261" lon="1.04793">
        <ele>190</ele>
        <time>2012-04-01T07:52:38Z</time>
      </trkpt>
      <trkpt lat="44.45268" lon="1.04789">
        <ele>190</ele>
        <time>2012-04-01T07:52:39Z</time>
      </trkpt>
      <trkpt lat="44.45274" lon="1.04787">
        <ele>190</ele>
        <time>2012-04-01T07:52:40Z</time>
      </trkpt>
      <trkpt lat="44.45279" lon="1.04784">
        <ele>190</ele>
        <time>2012-04-01T07:52:41Z</time>
      </trkpt>
      <trkpt lat="44.45285" lon="1.04783">
        <ele>190</ele>
        <time>2012-04-01T07:52:42Z</time>
      </trkpt>
      <trkpt lat="44.45291" lon="1.04783">
        <ele>190</ele>
        <time>2012-04-01T07:52:43Z</time>
      </trkpt>
      <trkpt lat="44.45296" lon="1.04784">
        <ele>190</ele>
        <time>2012-04-01T07:52:44Z</time>
      </trkpt>
      <trkpt lat="44.453" lon="1.04787">
        <ele>190</ele>
        <time>2012-04-01T07:52:45Z</time>
      </trkpt>
      <trkpt lat="44.45303" lon="1.04791">
        <ele>190</ele>
        <time>2012-04-01T07:52:46Z</time>
      </trkpt>
      <trkpt lat="44.45306" lon="1.04797">
        <ele>190</ele>
        <time>2012-04-01T07:52:47Z</time>
      </trkpt>
      <trkpt lat="44.45308" lon="1.04802">
        <ele>190</ele>
        <time>2012-04-01T07:52:48Z</time>
      </trkpt>
      <trkpt lat="44.45311" lon="1.04808">
        <ele>190</ele>
        <time>2012-04-01T07:52:49Z</time>
      </trkpt>
      <trkpt lat="44.45314" lon="1.04812">
        <ele>190</ele>
        <time>2012-04-01T07:52:50Z</time>
      </trkpt>
      <trkpt lat="44.45318" lon="1.04814">
        <ele>190</ele>
        <time>2012-04-01T07:52:51Z</time>
      </trkpt>
      <trkpt lat="44.4532" lon="1.04814">
        <ele>190</ele>
        <time>2012-04-01T07:52:52Z</time>
      </trkpt>
      <trkpt lat="44.45322" lon="1.04813">
        <ele>190</ele>
        <time>2012-04-01T07:52:53Z</time>
      </trkpt>
      <trkpt lat="44.45323" lon="1.04811">
        <ele>190</ele>
        <time>2012-04-01T07:52:54Z</time>
      </trkpt>
      <trkpt lat="44.45325" lon="1.04809">
        <ele>190</ele>
        <time>2012-04-01T07:52:55Z</time>
      </trkpt>
      <trkpt lat="44.45326" lon="1.04807">
        <ele>190</ele>
        <time>2012-04-01T07:52:56Z</time>
      </trkpt>
      <trkpt lat="44.45327" lon="1.04805">
        <ele>190</ele>
        <time>2012-04-01T07:52:57Z</time>
      </trkpt>
      <trkpt lat="44.45328" lon="1.04803">
        <ele>190</ele>
        <time>2012-04-01T07:52:58Z</time>
      </trkpt>
      <trkpt lat="44.45329" lon="1.048">
        <ele>190</ele>
        <time>2012-04-01T07:52:59Z</time>
      </trkpt>
      <trkpt lat="44.4533" lon="1.04797">
        <ele>190</ele>
        <time>2012-04-01T07:53:00Z</time>
      </trkpt>
      <trkpt lat="44.45331" lon="1.04795">
        <ele>190</ele>
        <time>2012-04-01T07:53:01Z</time>
      </trkpt>
      <trkpt lat="44.45332" lon="1.04792">
        <ele>190</ele>
        <time>2012-04-01T07:53:02Z</time>
      </trkpt>
      <trkpt lat="44.45333" lon="1.0479">
        <ele>190</ele>
        <time>2012-04-01T07:53:03Z</time>
      </trkpt>
      <trkpt lat="44.45334" lon="1.04788">
        <ele>190</ele>
        <time>2012-04-01T07:53:04Z</time>
      </trkpt>
      <trkpt lat="44.45336" lon="1.04786">
        <ele>190</ele>
        <time>2012-04-01T07:53:05Z</time>
      </trkpt>
      <trkpt lat="44.4534" lon="1.04783">
        <ele>190</ele>
        <time>2012-04-01T07:53:06Z</time>
      </trkpt>
      <trkpt lat="44.45343" lon="1.04782">
        <ele>190</ele>
        <time>2012-04-01T07:53:07Z</time>
      </trkpt>
      <trkpt lat="44.45346" lon="1.04782">
        <ele>190</ele>
        <time>2012-04-01T07:53:08Z</time>
      </trkpt>
      <trkpt lat="44.45349" lon="1.04782">
        <ele>190</ele>
        <time>2012-04-01T07:53:09Z</time>
      </trkpt>
      <trkpt lat="44.45351" lon="1.04782">
        <ele>190</ele>
        <time>2012-04-01T07:53:10Z</time>
      </trkpt>
      <trkpt lat="44.45352" lon="1.04782">
        <ele>190</ele>
        <time>2012-04-01T07:53:11Z</time>
      </trkpt>
      <trkpt lat="44.45354" lon="1.04782">
        <ele>190</ele>
        <time>2012-04-01T07:53:12Z</time>
      </trkpt>
      <trkpt lat="44.45356" lon="1.04782">
        <ele>190</ele>
        <time>2012-04-01T07:53:13Z</time>
      </trkpt>
      <trkpt lat="44.45357" lon="1.04782">
        <ele>190</ele>
        <time>2012-04-01T07:53:15Z</time>
      </trkpt>
      <trkpt lat="44.45358" lon="1.04782">
        <ele>190</ele>
        <time>2012-04-01T07:53:19Z</time>
      </trkpt>
      <trkpt lat="44.45357" lon="1.0478">
        <ele>190</ele>
        <time>2012-04-01T07:53:29Z</time>
      </trkpt>
      <trkpt lat="44.45358" lon="1.04779">
        <ele>190</ele>
        <time>2012-04-01T07:53:35Z</time>
      </trkpt>
      <trkpt lat="44.45359" lon="1.0478">
        <ele>191</ele>
        <time>2012-04-01T07:53:46Z</time>
      </trkpt>
    </trkseg>
  </trk>
</gpx>